<?xml version="1.0" encoding="UTF-8" standalone="no" ?>
<gpx xmlns="http://www.topografix.com/GPX/1/1" xmlns:xsi="http://www.w3.org/2001/XMLSchema-instance" xsi:schemaLocation="http://www.topografix.com/GPX/1/1 http://www.topografix.com/GPX/1/1/gpx.xsd" version="1.1" creator="VisuGPX - https://www.visugpx.com">
  <metadata>
    <name>Lozère Divide</name>
  </metadata>
  <trk>
    <name><![CDATA[Lozere divide]]></name>
    <extensions>
      <line xmlns="http://www.topografix.com/GPX/gpx_style/0/2">
        <color>0000FF</color>
        <width>4</width>
      </line>
    </extensions>
    <trkseg>
      <trkpt lat="44.34932" lon="3.94985">
        <ele>483.194352</ele>
        <time>2019-10-06T19:28:02.051Z</time>
      </trkpt>
      <trkpt lat="44.34932" lon="3.94985">
        <ele>483.194352</ele>
        <time>2019-10-06T19:28:02.051Z</time>
      </trkpt>
      <trkpt lat="44.34924" lon="3.94987">
        <ele>483.194352</ele>
        <time>2019-10-06T19:28:03.482Z</time>
      </trkpt>
      <trkpt lat="44.34924" lon="3.94998">
        <ele>483.194352</ele>
        <time>2019-10-06T19:28:05.399Z</time>
      </trkpt>
      <trkpt lat="44.34924" lon="3.95011">
        <ele>483.194352</ele>
        <time>2019-10-06T19:28:07.424Z</time>
      </trkpt>
      <trkpt lat="44.3492" lon="3.95013">
        <ele>483.194352</ele>
        <time>2019-10-06T19:28:08.548Z</time>
      </trkpt>
      <trkpt lat="44.34923" lon="3.95044">
        <ele>483.194352</ele>
        <time>2019-10-06T19:28:13.387Z</time>
      </trkpt>
      <trkpt lat="44.34919" lon="3.95048">
        <ele>483.194352</ele>
        <time>2019-10-06T19:28:14.201Z</time>
      </trkpt>
      <trkpt lat="44.34907" lon="3.95055">
        <ele>483.194352</ele>
        <time>2019-10-06T19:28:16.407Z</time>
      </trkpt>
      <trkpt lat="44.34881" lon="3.9507">
        <ele>482.644069</ele>
        <time>2019-10-06T19:28:21.022Z</time>
      </trkpt>
      <trkpt lat="44.34878" lon="3.95072">
        <ele>482.393184</ele>
        <time>2019-10-06T19:28:21.649Z</time>
      </trkpt>
      <trkpt lat="44.34871" lon="3.95077">
        <ele>481.899018</ele>
        <time>2019-10-06T19:28:22.774Z</time>
      </trkpt>
      <trkpt lat="44.34849" lon="3.95101">
        <ele>480.135683</ele>
        <time>2019-10-06T19:28:27.018Z</time>
      </trkpt>
      <trkpt lat="44.34808" lon="3.95145">
        <ele>476.823074</ele>
        <time>2019-10-06T19:28:34.771Z</time>
      </trkpt>
      <trkpt lat="44.34805" lon="3.9517">
        <ele>475.663312</ele>
        <time>2019-10-06T19:28:37.500Z</time>
      </trkpt>
      <trkpt lat="44.348" lon="3.9519">
        <ele>474.683098</ele>
        <time>2019-10-06T19:28:39.760Z</time>
      </trkpt>
      <trkpt lat="44.34796" lon="3.95211">
        <ele>473.675359</ele>
        <time>2019-10-06T19:28:42.281Z</time>
      </trkpt>
      <trkpt lat="44.34793" lon="3.95219">
        <ele>473.283903</ele>
        <time>2019-10-06T19:28:43.145Z</time>
      </trkpt>
      <trkpt lat="44.34777" lon="3.95225">
        <ele>472.228007</ele>
        <time>2019-10-06T19:28:45.602Z</time>
      </trkpt>
      <trkpt lat="44.3474" lon="3.95212">
        <ele>470.527623</ele>
        <time>2019-10-06T19:28:51.428Z</time>
      </trkpt>
      <trkpt lat="44.34671" lon="3.95276">
        <ele>467.261834</ele>
        <time>2019-10-06T19:29:05.257Z</time>
      </trkpt>
      <trkpt lat="44.3461" lon="3.95333">
        <ele>464.41436</ele>
        <time>2019-10-06T19:29:18.548Z</time>
      </trkpt>
      <trkpt lat="44.34559" lon="3.95377">
        <ele>462.269269</ele>
        <time>2019-10-06T19:29:28.758Z</time>
      </trkpt>
      <trkpt lat="44.34555" lon="3.95379">
        <ele>462.119162</ele>
        <time>2019-10-06T19:29:29.455Z</time>
      </trkpt>
      <trkpt lat="44.34549" lon="3.95381">
        <ele>461.890268</ele>
        <time>2019-10-06T19:29:31.049Z</time>
      </trkpt>
      <trkpt lat="44.34544" lon="3.9538">
        <ele>461.712352</ele>
        <time>2019-10-06T19:29:31.782Z</time>
      </trkpt>
      <trkpt lat="44.34486" lon="3.9535">
        <ele>459.497277</ele>
        <time>2019-10-06T19:29:42.003Z</time>
      </trkpt>
      <trkpt lat="44.34464" lon="3.95338">
        <ele>458.626635</ele>
        <time>2019-10-06T19:29:46.039Z</time>
      </trkpt>
      <trkpt lat="44.34424" lon="3.95317">
        <ele>456.477795</ele>
        <time>2019-10-06T19:29:52.864Z</time>
      </trkpt>
      <trkpt lat="44.34379" lon="3.95305">
        <ele>453.831016</ele>
        <time>2019-10-06T19:29:59.977Z</time>
      </trkpt>
      <trkpt lat="44.34324" lon="3.95311">
        <ele>450.711112</ele>
        <time>2019-10-06T19:30:08.158Z</time>
      </trkpt>
      <trkpt lat="44.34211" lon="3.95367">
        <ele>443.742421</ele>
        <time>2019-10-06T19:30:26.972Z</time>
      </trkpt>
      <trkpt lat="44.34195" lon="3.9539">
        <ele>442.44069</ele>
        <time>2019-10-06T19:30:30.443Z</time>
      </trkpt>
      <trkpt lat="44.3419" lon="3.95404">
        <ele>441.792016</ele>
        <time>2019-10-06T19:30:32.168Z</time>
      </trkpt>
      <trkpt lat="44.34182" lon="3.95412">
        <ele>441.234064</ele>
        <time>2019-10-06T19:30:33.623Z</time>
      </trkpt>
      <trkpt lat="44.34164" lon="3.95423">
        <ele>440.103819</ele>
        <time>2019-10-06T19:30:36.712Z</time>
      </trkpt>
      <trkpt lat="44.34095" lon="3.95435">
        <ele>435.87366</ele>
        <time>2019-10-06T19:30:47.577Z</time>
      </trkpt>
      <trkpt lat="44.34078" lon="3.95443">
        <ele>434.755956</ele>
        <time>2019-10-06T19:30:50.189Z</time>
      </trkpt>
      <trkpt lat="44.34056" lon="3.95459">
        <ele>433.16164</ele>
        <time>2019-10-06T19:30:54.020Z</time>
      </trkpt>
      <trkpt lat="44.34032" lon="3.95468">
        <ele>431.513376</ele>
        <time>2019-10-06T19:30:57.904Z</time>
      </trkpt>
      <trkpt lat="44.33955" lon="3.9548">
        <ele>426.560015</ele>
        <time>2019-10-06T19:31:09.480Z</time>
      </trkpt>
      <trkpt lat="44.33872" lon="3.95551">
        <ele>420.14152</ele>
        <time>2019-10-06T19:31:24.175Z</time>
      </trkpt>
      <trkpt lat="44.33819" lon="3.95561">
        <ele>416.618841</ele>
        <time>2019-10-06T19:31:32.256Z</time>
      </trkpt>
      <trkpt lat="44.33773" lon="3.95617">
        <ele>413.334302</ele>
        <time>2019-10-06T19:31:41.639Z</time>
      </trkpt>
      <trkpt lat="44.33714" lon="3.95662">
        <ele>411.378389</ele>
        <time>2019-10-06T19:31:51.874Z</time>
      </trkpt>
      <trkpt lat="44.33642" lon="3.95743">
        <ele>408.756267</ele>
        <time>2019-10-06T19:32:09.690Z</time>
      </trkpt>
      <trkpt lat="44.33633" lon="3.95757">
        <ele>409.754792</ele>
        <time>2019-10-06T19:32:17.202Z</time>
      </trkpt>
      <trkpt lat="44.33627" lon="3.95777">
        <ele>410.890657</ele>
        <time>2019-10-06T19:32:23.606Z</time>
      </trkpt>
      <trkpt lat="44.33627" lon="3.95793">
        <ele>411.712264</ele>
        <time>2019-10-06T19:32:30.539Z</time>
      </trkpt>
      <trkpt lat="44.33627" lon="3.95799">
        <ele>412.070803</ele>
        <time>2019-10-06T19:32:33.040Z</time>
      </trkpt>
      <trkpt lat="44.33629" lon="3.95816">
        <ele>412.968075</ele>
        <time>2019-10-06T19:32:39.115Z</time>
      </trkpt>
      <trkpt lat="44.33586" lon="3.95804">
        <ele>416.152705</ele>
        <time>2019-10-06T19:33:05.809Z</time>
      </trkpt>
      <trkpt lat="44.33544" lon="3.95792">
        <ele>419.289044</ele>
        <time>2019-10-06T19:33:35.550Z</time>
      </trkpt>
      <trkpt lat="44.33533" lon="3.95787">
        <ele>420.147649</ele>
        <time>2019-10-06T19:33:45.880Z</time>
      </trkpt>
      <trkpt lat="44.3352" lon="3.95789">
        <ele>421.139826</ele>
        <time>2019-10-06T19:33:54.893Z</time>
      </trkpt>
      <trkpt lat="44.33504" lon="3.95824">
        <ele>423.812492</ele>
        <time>2019-10-06T19:34:18.778Z</time>
      </trkpt>
      <trkpt lat="44.33457" lon="3.95981">
        <ele>435.754402</ele>
        <time>2019-10-06T19:35:51.397Z</time>
      </trkpt>
      <trkpt lat="44.33426" lon="3.96057">
        <ele>440.932808</ele>
        <time>2019-10-06T19:36:27.816Z</time>
      </trkpt>
      <trkpt lat="44.33407" lon="3.96117">
        <ele>443.618644</ele>
        <time>2019-10-06T19:36:55.767Z</time>
      </trkpt>
      <trkpt lat="44.33401" lon="3.96126">
        <ele>444.151118</ele>
        <time>2019-10-06T19:36:59.110Z</time>
      </trkpt>
      <trkpt lat="44.3338" lon="3.96122">
        <ele>445.350584</ele>
        <time>2019-10-06T19:37:10.619Z</time>
      </trkpt>
      <trkpt lat="44.33374" lon="3.96126">
        <ele>445.756877</ele>
        <time>2019-10-06T19:37:16.106Z</time>
      </trkpt>
      <trkpt lat="44.33315" lon="3.96208">
        <ele>449.652579</ele>
        <time>2019-10-06T19:37:50.743Z</time>
      </trkpt>
      <trkpt lat="44.33285" lon="3.96302">
        <ele>448.495954</ele>
        <time>2019-10-06T19:38:14.247Z</time>
      </trkpt>
      <trkpt lat="44.33277" lon="3.96322">
        <ele>448.238652</ele>
        <time>2019-10-06T19:38:17.018Z</time>
      </trkpt>
      <trkpt lat="44.33266" lon="3.96327">
        <ele>448.065015</ele>
        <time>2019-10-06T19:38:19.138Z</time>
      </trkpt>
      <trkpt lat="44.33261" lon="3.96326">
        <ele>447.98568</ele>
        <time>2019-10-06T19:38:19.938Z</time>
      </trkpt>
      <trkpt lat="44.3325" lon="3.96346">
        <ele>447.694375</ele>
        <time>2019-10-06T19:38:22.946Z</time>
      </trkpt>
      <trkpt lat="44.33234" lon="3.96362">
        <ele>447.396144</ele>
        <time>2019-10-06T19:38:26.008Z</time>
      </trkpt>
      <trkpt lat="44.33184" lon="3.96392">
        <ele>444.21903</ele>
        <time>2019-10-06T19:38:34.181Z</time>
      </trkpt>
      <trkpt lat="44.33137" lon="3.96422">
        <ele>439.571506</ele>
        <time>2019-10-06T19:38:41.487Z</time>
      </trkpt>
      <trkpt lat="44.33133" lon="3.96412">
        <ele>438.808838</ele>
        <time>2019-10-06T19:38:42.691Z</time>
      </trkpt>
      <trkpt lat="44.33075" lon="3.96468">
        <ele>432.42704</ele>
        <time>2019-10-06T19:39:00.703Z</time>
      </trkpt>
      <trkpt lat="44.33012" lon="3.96531">
        <ele>426.003892</ele>
        <time>2019-10-06T19:39:20.804Z</time>
      </trkpt>
      <trkpt lat="44.32988" lon="3.96562">
        <ele>423.424619</ele>
        <time>2019-10-06T19:39:29.212Z</time>
      </trkpt>
      <trkpt lat="44.32945" lon="3.96594">
        <ele>419.484417</ele>
        <time>2019-10-06T19:39:42.530Z</time>
      </trkpt>
      <trkpt lat="44.32914" lon="3.96638">
        <ele>416.121457</ele>
        <time>2019-10-06T19:39:54.952Z</time>
      </trkpt>
      <trkpt lat="44.32863" lon="3.96658">
        <ele>413.964031</ele>
        <time>2019-10-06T19:40:10.242Z</time>
      </trkpt>
      <trkpt lat="44.32822" lon="3.96664">
        <ele>412.273262</ele>
        <time>2019-10-06T19:40:22.734Z</time>
      </trkpt>
      <trkpt lat="44.32781" lon="3.96708">
        <ele>410.15397</ele>
        <time>2019-10-06T19:40:38.761Z</time>
      </trkpt>
      <trkpt lat="44.32685" lon="3.96644">
        <ele>404.818629</ele>
        <time>2019-10-06T19:41:10.518Z</time>
      </trkpt>
      <trkpt lat="44.32645" lon="3.96626">
        <ele>402.597752</ele>
        <time>2019-10-06T19:41:22.344Z</time>
      </trkpt>
      <trkpt lat="44.32627" lon="3.96623">
        <ele>401.569969</ele>
        <time>2019-10-06T19:41:27.657Z</time>
      </trkpt>
      <trkpt lat="44.32588" lon="3.9663">
        <ele>399.464055</ele>
        <time>2019-10-06T19:41:38.365Z</time>
      </trkpt>
      <trkpt lat="44.32563" lon="3.96623">
        <ele>397.020911</ele>
        <time>2019-10-06T19:41:45.105Z</time>
      </trkpt>
      <trkpt lat="44.32536" lon="3.96603">
        <ele>393.716944</ele>
        <time>2019-10-06T19:41:53.310Z</time>
      </trkpt>
      <trkpt lat="44.32457" lon="3.96414">
        <ele>376.024759</ele>
        <time>2019-10-06T19:42:32.647Z</time>
      </trkpt>
      <trkpt lat="44.32425" lon="3.9627">
        <ele>360.662553</ele>
        <time>2019-10-06T19:42:58.520Z</time>
      </trkpt>
      <trkpt lat="44.32402" lon="3.96207">
        <ele>353.787666</ele>
        <time>2019-10-06T19:43:10.928Z</time>
      </trkpt>
      <trkpt lat="44.32398" lon="3.96201">
        <ele>353.316581</ele>
        <time>2019-10-06T19:43:11.726Z</time>
      </trkpt>
      <trkpt lat="44.32372" lon="3.96192">
        <ele>350.949284</ele>
        <time>2019-10-06T19:43:15.713Z</time>
      </trkpt>
      <trkpt lat="44.32339" lon="3.96192">
        <ele>348.127916</ele>
        <time>2019-10-06T19:43:20.543Z</time>
      </trkpt>
      <trkpt lat="44.32257" lon="3.96214">
        <ele>340.967591</ele>
        <time>2019-10-06T19:43:33.455Z</time>
      </trkpt>
      <trkpt lat="44.3221" lon="3.96214">
        <ele>338.469973</ele>
        <time>2019-10-06T19:43:42.262Z</time>
      </trkpt>
      <trkpt lat="44.3211" lon="3.96257">
        <ele>336.326057</ele>
        <time>2019-10-06T19:44:03.944Z</time>
      </trkpt>
      <trkpt lat="44.32016" lon="3.96269">
        <ele>333.393486</ele>
        <time>2019-10-06T19:44:21.878Z</time>
      </trkpt>
      <trkpt lat="44.31961" lon="3.96287">
        <ele>330.851785</ele>
        <time>2019-10-06T19:44:31.916Z</time>
      </trkpt>
      <trkpt lat="44.31826" lon="3.96362">
        <ele>322.625892</ele>
        <time>2019-10-06T19:44:55.048Z</time>
      </trkpt>
      <trkpt lat="44.31788" lon="3.96387">
        <ele>319.642108</ele>
        <time>2019-10-06T19:45:01.488Z</time>
      </trkpt>
      <trkpt lat="44.31761" lon="3.96411">
        <ele>317.377471</ele>
        <time>2019-10-06T19:45:06.371Z</time>
      </trkpt>
      <trkpt lat="44.31722" lon="3.9643">
        <ele>314.449368</ele>
        <time>2019-10-06T19:45:12.829Z</time>
      </trkpt>
      <trkpt lat="44.3171" lon="3.96431">
        <ele>314.355755</ele>
        <time>2019-10-06T19:45:14.662Z</time>
      </trkpt>
      <trkpt lat="44.31674" lon="3.96432">
        <ele>314.153313</ele>
        <time>2019-10-06T19:45:20.542Z</time>
      </trkpt>
      <trkpt lat="44.31652" lon="3.96441">
        <ele>314.024069</ele>
        <time>2019-10-06T19:45:24.691Z</time>
      </trkpt>
      <trkpt lat="44.31626" lon="3.96458">
        <ele>313.863405</ele>
        <time>2019-10-06T19:45:30.944Z</time>
      </trkpt>
      <trkpt lat="44.316" lon="3.96495">
        <ele>313.654196</ele>
        <time>2019-10-06T19:45:41.335Z</time>
      </trkpt>
      <trkpt lat="44.31591" lon="3.96507">
        <ele>313.579391</ele>
        <time>2019-10-06T19:45:49.134Z</time>
      </trkpt>
      <trkpt lat="44.31574" lon="3.96536">
        <ele>313.429922</ele>
        <time>2019-10-06T19:45:58.851Z</time>
      </trkpt>
      <trkpt lat="44.31563" lon="3.96517">
        <ele>314.327158</ele>
        <time>2019-10-06T19:46:10.720Z</time>
      </trkpt>
      <trkpt lat="44.3155" lon="3.96499">
        <ele>315.606687</ele>
        <time>2019-10-06T19:46:17.625Z</time>
      </trkpt>
      <trkpt lat="44.31541" lon="3.96482">
        <ele>316.642423</ele>
        <time>2019-10-06T19:46:29.068Z</time>
      </trkpt>
      <trkpt lat="44.31537" lon="3.96451">
        <ele>318.262785</ele>
        <time>2019-10-06T19:46:40.416Z</time>
      </trkpt>
      <trkpt lat="44.31545" lon="3.96407">
        <ele>320.542473</ele>
        <time>2019-10-06T19:47:00.678Z</time>
      </trkpt>
      <trkpt lat="44.3155" lon="3.9639">
        <ele>321.455986</ele>
        <time>2019-10-06T19:47:12.036Z</time>
      </trkpt>
      <trkpt lat="44.31552" lon="3.96373">
        <ele>322.29011</ele>
        <time>2019-10-06T19:47:18.665Z</time>
      </trkpt>
      <trkpt lat="44.31553" lon="3.96356">
        <ele>323.165324</ele>
        <time>2019-10-06T19:47:25.148Z</time>
      </trkpt>
      <trkpt lat="44.31546" lon="3.96326">
        <ele>324.728809</ele>
        <time>2019-10-06T19:47:41.442Z</time>
      </trkpt>
      <trkpt lat="44.31535" lon="3.96309">
        <ele>325.887519</ele>
        <time>2019-10-06T19:47:51.120Z</time>
      </trkpt>
      <trkpt lat="44.31519" lon="3.96273">
        <ele>327.684646</ele>
        <time>2019-10-06T19:48:08.858Z</time>
      </trkpt>
      <trkpt lat="44.31487" lon="3.96186">
        <ele>331.834125</ele>
        <time>2019-10-06T19:48:44.909Z</time>
      </trkpt>
      <trkpt lat="44.31448" lon="3.96109">
        <ele>335.79058</ele>
        <time>2019-10-06T19:49:15.680Z</time>
      </trkpt>
      <trkpt lat="44.31448" lon="3.96109">
        <ele>335.79058</ele>
        <time>2019-10-06T19:49:15.832Z</time>
      </trkpt>
      <trkpt lat="44.31432" lon="3.96065">
        <ele>338.244632</ele>
        <time>2019-10-06T19:49:33.966Z</time>
      </trkpt>
      <trkpt lat="44.31442" lon="3.96012">
        <ele>341.354511</ele>
        <time>2019-10-06T19:49:56.548Z</time>
      </trkpt>
      <trkpt lat="44.31456" lon="3.95979">
        <ele>343.460802</ele>
        <time>2019-10-06T19:50:13.027Z</time>
      </trkpt>
      <trkpt lat="44.31461" lon="3.95962">
        <ele>344.467193</ele>
        <time>2019-10-06T19:50:20.358Z</time>
      </trkpt>
      <trkpt lat="44.31459" lon="3.95957">
        <ele>344.770374</ele>
        <time>2019-10-06T19:50:26.252Z</time>
      </trkpt>
      <trkpt lat="44.31462" lon="3.95919">
        <ele>346.912128</ele>
        <time>2019-10-06T19:50:45.546Z</time>
      </trkpt>
      <trkpt lat="44.31449" lon="3.95845">
        <ele>351.312614</ele>
        <time>2019-10-06T19:51:32.723Z</time>
      </trkpt>
      <trkpt lat="44.31432" lon="3.95807">
        <ele>354.34964</ele>
        <time>2019-10-06T19:52:00.590Z</time>
      </trkpt>
      <trkpt lat="44.31432" lon="3.95785">
        <ele>355.868529</ele>
        <time>2019-10-06T19:52:12.825Z</time>
      </trkpt>
      <trkpt lat="44.31459" lon="3.95749">
        <ele>359.511855</ele>
        <time>2019-10-06T19:52:46.358Z</time>
      </trkpt>
      <trkpt lat="44.31466" lon="3.9573">
        <ele>360.95267</ele>
        <time>2019-10-06T19:52:58.637Z</time>
      </trkpt>
      <trkpt lat="44.31475" lon="3.95635">
        <ele>367.608728</ele>
        <time>2019-10-06T19:53:58.038Z</time>
      </trkpt>
      <trkpt lat="44.31481" lon="3.95611">
        <ele>369.299957</ele>
        <time>2019-10-06T19:54:13.523Z</time>
      </trkpt>
      <trkpt lat="44.31496" lon="3.95585">
        <ele>371.600439</ele>
        <time>2019-10-06T19:54:34.156Z</time>
      </trkpt>
      <trkpt lat="44.31489" lon="3.95581">
        <ele>372.359145</ele>
        <time>2019-10-06T19:54:41.064Z</time>
      </trkpt>
      <trkpt lat="44.31482" lon="3.95587">
        <ele>373.144307</ele>
        <time>2019-10-06T19:54:47.984Z</time>
      </trkpt>
      <trkpt lat="44.31435" lon="3.95678">
        <ele>380.663414</ele>
        <time>2019-10-06T19:55:53.167Z</time>
      </trkpt>
      <trkpt lat="44.31347" lon="3.95724">
        <ele>389.214141</ele>
        <time>2019-10-06T19:57:14.563Z</time>
      </trkpt>
      <trkpt lat="44.31312" lon="3.95762">
        <ele>393.135942</ele>
        <time>2019-10-06T19:57:52.043Z</time>
      </trkpt>
      <trkpt lat="44.31312" lon="3.95783">
        <ele>394.498604</ele>
        <time>2019-10-06T19:58:04.229Z</time>
      </trkpt>
      <trkpt lat="44.31343" lon="3.95824">
        <ele>398.272622</ele>
        <time>2019-10-06T19:58:36.566Z</time>
      </trkpt>
      <trkpt lat="44.31347" lon="3.95841">
        <ele>399.379605</ele>
        <time>2019-10-06T19:58:45.782Z</time>
      </trkpt>
      <trkpt lat="44.31346" lon="3.95866">
        <ele>400.952895</ele>
        <time>2019-10-06T19:58:59.503Z</time>
      </trkpt>
      <trkpt lat="44.31338" lon="3.95868">
        <ele>401.630472</ele>
        <time>2019-10-06T19:59:05.879Z</time>
      </trkpt>
      <trkpt lat="44.31335" lon="3.95832">
        <ele>403.8024</ele>
        <time>2019-10-06T19:59:26.164Z</time>
      </trkpt>
      <trkpt lat="44.3128" lon="3.95794">
        <ele>408.955851</ele>
        <time>2019-10-06T20:00:16.312Z</time>
      </trkpt>
      <trkpt lat="44.31276" lon="3.95785">
        <ele>409.611441</ele>
        <time>2019-10-06T20:00:22.747Z</time>
      </trkpt>
      <trkpt lat="44.31277" lon="3.95754">
        <ele>411.506122</ele>
        <time>2019-10-06T20:00:40.150Z</time>
      </trkpt>
      <trkpt lat="44.31295" lon="3.95711">
        <ele>414.465999</ele>
        <time>2019-10-06T20:01:07.241Z</time>
      </trkpt>
      <trkpt lat="44.31332" lon="3.95666">
        <ele>418.575572</ele>
        <time>2019-10-06T20:01:46.054Z</time>
      </trkpt>
      <trkpt lat="44.31357" lon="3.95623">
        <ele>421.858569</ele>
        <time>2019-10-06T20:02:18.607Z</time>
      </trkpt>
      <trkpt lat="44.31365" lon="3.95598">
        <ele>423.495296</ele>
        <time>2019-10-06T20:02:34.988Z</time>
      </trkpt>
      <trkpt lat="44.31308" lon="3.95519">
        <ele>430.095719</ele>
        <time>2019-10-06T20:03:40.219Z</time>
      </trkpt>
      <trkpt lat="44.31261" lon="3.95468">
        <ele>432.905256</ele>
        <time>2019-10-06T20:04:19.675Z</time>
      </trkpt>
      <trkpt lat="44.31249" lon="3.95461">
        <ele>433.443954</ele>
        <time>2019-10-06T20:04:27.934Z</time>
      </trkpt>
      <trkpt lat="44.31214" lon="3.95457">
        <ele>434.899114</ele>
        <time>2019-10-06T20:04:48.944Z</time>
      </trkpt>
      <trkpt lat="44.31208" lon="3.95448">
        <ele>435.249259</ele>
        <time>2019-10-06T20:04:53.697Z</time>
      </trkpt>
      <trkpt lat="44.31239" lon="3.95374">
        <ele>437.741722</ele>
        <time>2019-10-06T20:05:23.409Z</time>
      </trkpt>
      <trkpt lat="44.31298" lon="3.95355">
        <ele>439.00344</ele>
        <time>2019-10-06T20:05:48.656Z</time>
      </trkpt>
      <trkpt lat="44.3136" lon="3.95321">
        <ele>440.093091</ele>
        <time>2019-10-06T20:06:16.370Z</time>
      </trkpt>
      <trkpt lat="44.31363" lon="3.95302">
        <ele>440.319393</ele>
        <time>2019-10-06T20:06:22.718Z</time>
      </trkpt>
      <trkpt lat="44.31328" lon="3.95227">
        <ele>441.769033</ele>
        <time>2019-10-06T20:06:54.438Z</time>
      </trkpt>
      <trkpt lat="44.31324" lon="3.95218">
        <ele>442.086185</ele>
        <time>2019-10-06T20:06:58.265Z</time>
      </trkpt>
      <trkpt lat="44.31326" lon="3.95212">
        <ele>442.269261</ele>
        <time>2019-10-06T20:07:00.444Z</time>
      </trkpt>
      <trkpt lat="44.31327" lon="3.95208">
        <ele>442.411058</ele>
        <time>2019-10-06T20:07:02.139Z</time>
      </trkpt>
      <trkpt lat="44.31356" lon="3.95195">
        <ele>443.739811</ele>
        <time>2019-10-06T20:07:18.037Z</time>
      </trkpt>
      <trkpt lat="44.31418" lon="3.95139">
        <ele>446.989259</ele>
        <time>2019-10-06T20:08:02.966Z</time>
      </trkpt>
      <trkpt lat="44.31493" lon="3.95113">
        <ele>450.540323</ele>
        <time>2019-10-06T20:08:54.782Z</time>
      </trkpt>
      <trkpt lat="44.31499" lon="3.95102">
        <ele>451.003192</ele>
        <time>2019-10-06T20:09:01.315Z</time>
      </trkpt>
      <trkpt lat="44.31499" lon="3.95084">
        <ele>451.634763</ele>
        <time>2019-10-06T20:09:10.267Z</time>
      </trkpt>
      <trkpt lat="44.31484" lon="3.95036">
        <ele>453.448995</ele>
        <time>2019-10-06T20:09:35.075Z</time>
      </trkpt>
      <trkpt lat="44.31474" lon="3.95023">
        <ele>454.119327</ele>
        <time>2019-10-06T20:09:43.612Z</time>
      </trkpt>
      <trkpt lat="44.31462" lon="3.95019">
        <ele>454.723668</ele>
        <time>2019-10-06T20:09:51.569Z</time>
      </trkpt>
      <trkpt lat="44.31432" lon="3.95018">
        <ele>456.144681</ele>
        <time>2019-10-06T20:10:08.769Z</time>
      </trkpt>
      <trkpt lat="44.31369" lon="3.94954">
        <ele>457.853792</ele>
        <time>2019-10-06T20:10:50.144Z</time>
      </trkpt>
      <trkpt lat="44.31365" lon="3.94935">
        <ele>457.892536</ele>
        <time>2019-10-06T20:10:56.164Z</time>
      </trkpt>
      <trkpt lat="44.31404" lon="3.94901">
        <ele>458.017289</ele>
        <time>2019-10-06T20:11:12.728Z</time>
      </trkpt>
      <trkpt lat="44.31413" lon="3.94881">
        <ele>458.063253</ele>
        <time>2019-10-06T20:11:18.515Z</time>
      </trkpt>
      <trkpt lat="44.31417" lon="3.9485">
        <ele>458.125648</ele>
        <time>2019-10-06T20:11:25.940Z</time>
      </trkpt>
      <trkpt lat="44.31425" lon="3.94844">
        <ele>458.149207</ele>
        <time>2019-10-06T20:11:28.797Z</time>
      </trkpt>
      <trkpt lat="44.31475" lon="3.94848">
        <ele>458.254088</ele>
        <time>2019-10-06T20:11:45.239Z</time>
      </trkpt>
      <trkpt lat="44.31484" lon="3.94843">
        <ele>458.267081</ele>
        <time>2019-10-06T20:11:48.245Z</time>
      </trkpt>
      <trkpt lat="44.31524" lon="3.94745">
        <ele>458.377783</ele>
        <time>2019-10-06T20:12:16.458Z</time>
      </trkpt>
      <trkpt lat="44.31522" lon="3.94718">
        <ele>458.40407</ele>
        <time>2019-10-06T20:12:24.784Z</time>
      </trkpt>
      <trkpt lat="44.31527" lon="3.94707">
        <ele>458.416682</ele>
        <time>2019-10-06T20:12:28.091Z</time>
      </trkpt>
      <trkpt lat="44.31543" lon="3.94696">
        <ele>458.44132</ele>
        <time>2019-10-06T20:12:36.875Z</time>
      </trkpt>
      <trkpt lat="44.3157" lon="3.94708">
        <ele>459.099227</ele>
        <time>2019-10-06T20:12:50.107Z</time>
      </trkpt>
      <trkpt lat="44.31584" lon="3.94705">
        <ele>460.065858</ele>
        <time>2019-10-06T20:12:58.766Z</time>
      </trkpt>
      <trkpt lat="44.31592" lon="3.94692">
        <ele>460.932384</ele>
        <time>2019-10-06T20:13:05.660Z</time>
      </trkpt>
      <trkpt lat="44.31609" lon="3.94633">
        <ele>464.098291</ele>
        <time>2019-10-06T20:13:37.162Z</time>
      </trkpt>
      <trkpt lat="44.31609" lon="3.94633">
        <ele>464.098291</ele>
        <time>2019-10-06T20:13:37.298Z</time>
      </trkpt>
      <trkpt lat="44.31609" lon="3.94605">
        <ele>465.505761</ele>
        <time>2019-10-06T20:13:52.949Z</time>
      </trkpt>
      <trkpt lat="44.31614" lon="3.94588">
        <ele>466.433701</ele>
        <time>2019-10-06T20:14:03.122Z</time>
      </trkpt>
      <trkpt lat="44.31611" lon="3.94575">
        <ele>467.129375</ele>
        <time>2019-10-06T20:14:12.000Z</time>
      </trkpt>
      <trkpt lat="44.31603" lon="3.94579">
        <ele>467.696707</ele>
        <time>2019-10-06T20:14:18.626Z</time>
      </trkpt>
      <trkpt lat="44.31595" lon="3.94639">
        <ele>470.751157</ele>
        <time>2019-10-06T20:14:53.844Z</time>
      </trkpt>
      <trkpt lat="44.31584" lon="3.94658">
        <ele>472.464223</ele>
        <time>2019-10-06T20:15:08.835Z</time>
      </trkpt>
      <trkpt lat="44.31575" lon="3.94658">
        <ele>473.398049</ele>
        <time>2019-10-06T20:15:17.118Z</time>
      </trkpt>
      <trkpt lat="44.31509" lon="3.94618">
        <ele>480.848371</ele>
        <time>2019-10-06T20:16:22.169Z</time>
      </trkpt>
      <trkpt lat="44.31489" lon="3.94631">
        <ele>483.108445</ele>
        <time>2019-10-06T20:16:41.752Z</time>
      </trkpt>
      <trkpt lat="44.31445" lon="3.94623">
        <ele>487.645483</ele>
        <time>2019-10-06T20:17:22.548Z</time>
      </trkpt>
      <trkpt lat="44.31441" lon="3.94626">
        <ele>488.150809</ele>
        <time>2019-10-06T20:17:27.477Z</time>
      </trkpt>
      <trkpt lat="44.3144" lon="3.94639">
        <ele>489.12239</ele>
        <time>2019-10-06T20:17:36.038Z</time>
      </trkpt>
      <trkpt lat="44.31441" lon="3.94677">
        <ele>491.674508</ele>
        <time>2019-10-06T20:17:59.667Z</time>
      </trkpt>
      <trkpt lat="44.31424" lon="3.94718">
        <ele>494.812294</ele>
        <time>2019-10-06T20:18:28.740Z</time>
      </trkpt>
      <trkpt lat="44.31362" lon="3.94755">
        <ele>501.081941</ele>
        <time>2019-10-06T20:19:24.981Z</time>
      </trkpt>
      <trkpt lat="44.31353" lon="3.94749">
        <ele>501.960239</ele>
        <time>2019-10-06T20:19:33.066Z</time>
      </trkpt>
      <trkpt lat="44.31353" lon="3.94741">
        <ele>502.538188</ele>
        <time>2019-10-06T20:19:38.219Z</time>
      </trkpt>
      <trkpt lat="44.31359" lon="3.94732">
        <ele>503.366524</ele>
        <time>2019-10-06T20:19:45.136Z</time>
      </trkpt>
      <trkpt lat="44.3139" lon="3.9471">
        <ele>506.551365</ele>
        <time>2019-10-06T20:20:11.546Z</time>
      </trkpt>
      <trkpt lat="44.31406" lon="3.9467">
        <ele>509.433685</ele>
        <time>2019-10-06T20:20:36.901Z</time>
      </trkpt>
      <trkpt lat="44.31411" lon="3.9464">
        <ele>511.313587</ele>
        <time>2019-10-06T20:20:53.749Z</time>
      </trkpt>
      <trkpt lat="44.31408" lon="3.94565">
        <ele>516.03634</ele>
        <time>2019-10-06T20:21:37.278Z</time>
      </trkpt>
      <trkpt lat="44.31414" lon="3.94557">
        <ele>516.692545</ele>
        <time>2019-10-06T20:21:43.078Z</time>
      </trkpt>
      <trkpt lat="44.31439" lon="3.94555">
        <ele>518.875188</ele>
        <time>2019-10-06T20:22:03.275Z</time>
      </trkpt>
      <trkpt lat="44.3145" lon="3.94548">
        <ele>519.968825</ele>
        <time>2019-10-06T20:22:13.404Z</time>
      </trkpt>
      <trkpt lat="44.3146" lon="3.94533">
        <ele>521.284307</ele>
        <time>2019-10-06T20:22:26.064Z</time>
      </trkpt>
      <trkpt lat="44.31505" lon="3.94508">
        <ele>526.669738</ele>
        <time>2019-10-06T20:23:08.269Z</time>
      </trkpt>
      <trkpt lat="44.31521" lon="3.94488">
        <ele>529.123982</ele>
        <time>2019-10-06T20:23:27.545Z</time>
      </trkpt>
      <trkpt lat="44.31523" lon="3.94473">
        <ele>530.430769</ele>
        <time>2019-10-06T20:23:38.520Z</time>
      </trkpt>
      <trkpt lat="44.31491" lon="3.94436">
        <ele>535.202493</ele>
        <time>2019-10-06T20:24:19.503Z</time>
      </trkpt>
      <trkpt lat="44.31449" lon="3.94365">
        <ele>542.934346</ele>
        <time>2019-10-06T20:25:28.228Z</time>
      </trkpt>
      <trkpt lat="44.31445" lon="3.94332">
        <ele>545.467172</ele>
        <time>2019-10-06T20:25:51.192Z</time>
      </trkpt>
      <trkpt lat="44.31435" lon="3.94304">
        <ele>547.938352</ele>
        <time>2019-10-06T20:26:13.483Z</time>
      </trkpt>
      <trkpt lat="44.31438" lon="3.94257">
        <ele>551.568727</ele>
        <time>2019-10-06T20:26:44.893Z</time>
      </trkpt>
      <trkpt lat="44.31471" lon="3.94186">
        <ele>558.01632</ele>
        <time>2019-10-06T20:27:37.326Z</time>
      </trkpt>
      <trkpt lat="44.31473" lon="3.94171">
        <ele>559.256608</ele>
        <time>2019-10-06T20:27:47.267Z</time>
      </trkpt>
      <trkpt lat="44.31467" lon="3.94088">
        <ele>564.923529</ele>
        <time>2019-10-06T20:28:37.854Z</time>
      </trkpt>
      <trkpt lat="44.3146" lon="3.94071">
        <ele>566.071543</ele>
        <time>2019-10-06T20:28:50.999Z</time>
      </trkpt>
      <trkpt lat="44.31459" lon="3.94048">
        <ele>567.504655</ele>
        <time>2019-10-06T20:29:02.073Z</time>
      </trkpt>
      <trkpt lat="44.31474" lon="3.93986">
        <ele>571.451245</ele>
        <time>2019-10-06T20:29:38.690Z</time>
      </trkpt>
      <trkpt lat="44.3149" lon="3.9397">
        <ele>573.089613</ele>
        <time>2019-10-06T20:29:53.199Z</time>
      </trkpt>
      <trkpt lat="44.31491" lon="3.93958">
        <ele>573.814318</ele>
        <time>2019-10-06T20:29:58.870Z</time>
      </trkpt>
      <trkpt lat="44.31488" lon="3.93952">
        <ele>574.296371</ele>
        <time>2019-10-06T20:30:03.791Z</time>
      </trkpt>
      <trkpt lat="44.31479" lon="3.93953">
        <ele>575.117607</ele>
        <time>2019-10-06T20:30:13.136Z</time>
      </trkpt>
      <trkpt lat="44.31468" lon="3.93964">
        <ele>576.235996</ele>
        <time>2019-10-06T20:30:21.665Z</time>
      </trkpt>
      <trkpt lat="44.31451" lon="3.94013">
        <ele>579.484141</ele>
        <time>2019-10-06T20:30:51.967Z</time>
      </trkpt>
      <trkpt lat="44.31433" lon="3.94042">
        <ele>581.714214</ele>
        <time>2019-10-06T20:31:14.345Z</time>
      </trkpt>
      <trkpt lat="44.31434" lon="3.9413">
        <ele>586.889273</ele>
        <time>2019-10-06T20:32:05.045Z</time>
      </trkpt>
      <trkpt lat="44.31423" lon="3.94168">
        <ele>589.224181</ele>
        <time>2019-10-06T20:32:25.807Z</time>
      </trkpt>
      <trkpt lat="44.31409" lon="3.94192">
        <ele>591.09333</ele>
        <time>2019-10-06T20:32:43.005Z</time>
      </trkpt>
      <trkpt lat="44.31374" lon="3.94215">
        <ele>594.198202</ele>
        <time>2019-10-06T20:33:13.734Z</time>
      </trkpt>
      <trkpt lat="44.31356" lon="3.94263">
        <ele>597.267135</ele>
        <time>2019-10-06T20:33:44.469Z</time>
      </trkpt>
      <trkpt lat="44.31346" lon="3.94264">
        <ele>598.001407</ele>
        <time>2019-10-06T20:33:51.851Z</time>
      </trkpt>
      <trkpt lat="44.31347" lon="3.94251">
        <ele>598.702247</ele>
        <time>2019-10-06T20:33:58.782Z</time>
      </trkpt>
      <trkpt lat="44.31369" lon="3.9419">
        <ele>602.603965</ele>
        <time>2019-10-06T20:34:36.358Z</time>
      </trkpt>
      <trkpt lat="44.31398" lon="3.94157">
        <ele>605.521082</ele>
        <time>2019-10-06T20:35:03.887Z</time>
      </trkpt>
      <trkpt lat="44.31402" lon="3.94141">
        <ele>606.414831</ele>
        <time>2019-10-06T20:35:12.978Z</time>
      </trkpt>
      <trkpt lat="44.31396" lon="3.94081">
        <ele>608.945029</ele>
        <time>2019-10-06T20:35:45.903Z</time>
      </trkpt>
      <trkpt lat="44.31386" lon="3.94057">
        <ele>610.088375</ele>
        <time>2019-10-06T20:36:00.274Z</time>
      </trkpt>
      <trkpt lat="44.31382" lon="3.9403">
        <ele>611.216805</ele>
        <time>2019-10-06T20:36:13.964Z</time>
      </trkpt>
      <trkpt lat="44.31397" lon="3.93958">
        <ele>614.317704</ele>
        <time>2019-10-06T20:36:47.785Z</time>
      </trkpt>
      <trkpt lat="44.31402" lon="3.93887">
        <ele>617.027258</ele>
        <time>2019-10-06T20:37:17.555Z</time>
      </trkpt>
      <trkpt lat="44.31412" lon="3.93869">
        <ele>617.523766</ele>
        <time>2019-10-06T20:37:25.718Z</time>
      </trkpt>
      <trkpt lat="44.3144" lon="3.9383">
        <ele>618.783025</ele>
        <time>2019-10-06T20:37:46.062Z</time>
      </trkpt>
      <trkpt lat="44.31474" lon="3.938">
        <ele>620.089474</ele>
        <time>2019-10-06T20:38:06.390Z</time>
      </trkpt>
      <trkpt lat="44.31499" lon="3.93792">
        <ele>620.882811</ele>
        <time>2019-10-06T20:38:18.618Z</time>
      </trkpt>
      <trkpt lat="44.31529" lon="3.93794">
        <ele>621.848602</ele>
        <time>2019-10-06T20:38:33.005Z</time>
      </trkpt>
      <trkpt lat="44.31546" lon="3.93781">
        <ele>622.494094</ele>
        <time>2019-10-06T20:38:42.701Z</time>
      </trkpt>
      <trkpt lat="44.3166" lon="3.93669">
        <ele>630.173772</ele>
        <time>2019-10-06T20:40:12.816Z</time>
      </trkpt>
      <trkpt lat="44.31664" lon="3.93658">
        <ele>630.648416</ele>
        <time>2019-10-06T20:40:19.342Z</time>
      </trkpt>
      <trkpt lat="44.31663" lon="3.93643">
        <ele>631.244146</ele>
        <time>2019-10-06T20:40:28.842Z</time>
      </trkpt>
      <trkpt lat="44.31657" lon="3.93633">
        <ele>631.768797</ele>
        <time>2019-10-06T20:40:34.247Z</time>
      </trkpt>
      <trkpt lat="44.31643" lon="3.9363">
        <ele>632.539264</ele>
        <time>2019-10-06T20:40:43.527Z</time>
      </trkpt>
      <trkpt lat="44.31601" lon="3.93644">
        <ele>634.835822</ele>
        <time>2019-10-06T20:41:15.570Z</time>
      </trkpt>
      <trkpt lat="44.31564" lon="3.93641">
        <ele>636.79402</ele>
        <time>2019-10-06T20:41:42.003Z</time>
      </trkpt>
      <trkpt lat="44.31563" lon="3.9365">
        <ele>637.123551</ele>
        <time>2019-10-06T20:41:46.693Z</time>
      </trkpt>
      <trkpt lat="44.31581" lon="3.93673">
        <ele>638.417595</ele>
        <time>2019-10-06T20:42:02.335Z</time>
      </trkpt>
      <trkpt lat="44.31581" lon="3.93682">
        <ele>638.772141</ele>
        <time>2019-10-06T20:42:07.936Z</time>
      </trkpt>
      <trkpt lat="44.31573" lon="3.93691">
        <ele>639.302761</ele>
        <time>2019-10-06T20:42:14.016Z</time>
      </trkpt>
      <trkpt lat="44.31537" lon="3.93715">
        <ele>641.413601</ele>
        <time>2019-10-06T20:42:34.040Z</time>
      </trkpt>
      <trkpt lat="44.31537" lon="3.93715">
        <ele>641.413601</ele>
        <time>2019-10-06T20:42:34.202Z</time>
      </trkpt>
      <trkpt lat="44.31472" lon="3.93726">
        <ele>642.3687</ele>
        <time>2019-10-06T20:43:04.177Z</time>
      </trkpt>
      <trkpt lat="44.31415" lon="3.93746">
        <ele>642.924761</ele>
        <time>2019-10-06T20:43:25.360Z</time>
      </trkpt>
      <trkpt lat="44.31394" lon="3.93776">
        <ele>643.197843</ele>
        <time>2019-10-06T20:43:36.604Z</time>
      </trkpt>
      <trkpt lat="44.31351" lon="3.93816">
        <ele>644.180509</ele>
        <time>2019-10-06T20:43:57.866Z</time>
      </trkpt>
      <trkpt lat="44.31322" lon="3.93852">
        <ele>645.610583</ele>
        <time>2019-10-06T20:44:15.516Z</time>
      </trkpt>
      <trkpt lat="44.31313" lon="3.93856">
        <ele>645.946601</ele>
        <time>2019-10-06T20:44:18.485Z</time>
      </trkpt>
      <trkpt lat="44.31308" lon="3.93834">
        <ele>646.560084</ele>
        <time>2019-10-06T20:44:26.016Z</time>
      </trkpt>
      <trkpt lat="44.31306" lon="3.93824">
        <ele>646.817529</ele>
        <time>2019-10-06T20:44:28.813Z</time>
      </trkpt>
      <trkpt lat="44.313" lon="3.93796">
        <ele>647.607058</ele>
        <time>2019-10-06T20:44:37.602Z</time>
      </trkpt>
      <trkpt lat="44.31274" lon="3.93658">
        <ele>653.370909</ele>
        <time>2019-10-06T20:45:31.516Z</time>
      </trkpt>
      <trkpt lat="44.31262" lon="3.93634">
        <ele>655.382445</ele>
        <time>2019-10-06T20:45:46.620Z</time>
      </trkpt>
      <trkpt lat="44.31246" lon="3.93618">
        <ele>657.271035</ele>
        <time>2019-10-06T20:46:03.106Z</time>
      </trkpt>
      <trkpt lat="44.31208" lon="3.93592">
        <ele>661.401475</ele>
        <time>2019-10-06T20:46:34.675Z</time>
      </trkpt>
      <trkpt lat="44.31101" lon="3.93392">
        <ele>679.968779</ele>
        <time>2019-10-06T20:48:56.411Z</time>
      </trkpt>
      <trkpt lat="44.31072" lon="3.93356">
        <ele>684.188964</ele>
        <time>2019-10-06T20:49:26.412Z</time>
      </trkpt>
      <trkpt lat="44.31012" lon="3.93308">
        <ele>690.751603</ele>
        <time>2019-10-06T20:50:16.185Z</time>
      </trkpt>
      <trkpt lat="44.30944" lon="3.93301">
        <ele>696.782351</ele>
        <time>2019-10-06T20:51:02.173Z</time>
      </trkpt>
      <trkpt lat="44.30927" lon="3.93308">
        <ele>698.363234</ele>
        <time>2019-10-06T20:51:13.524Z</time>
      </trkpt>
      <trkpt lat="44.30876" lon="3.93311">
        <ele>702.828311</ele>
        <time>2019-10-06T20:51:45.486Z</time>
      </trkpt>
      <trkpt lat="44.3085" lon="3.93301">
        <ele>705.048042</ele>
        <time>2019-10-06T20:52:01.963Z</time>
      </trkpt>
      <trkpt lat="44.30846" lon="3.93295">
        <ele>705.591607</ele>
        <time>2019-10-06T20:52:06.047Z</time>
      </trkpt>
      <trkpt lat="44.30848" lon="3.93281">
        <ele>706.444649</ele>
        <time>2019-10-06T20:52:12.469Z</time>
      </trkpt>
      <trkpt lat="44.30854" lon="3.9328">
        <ele>706.886912</ele>
        <time>2019-10-06T20:52:15.691Z</time>
      </trkpt>
      <trkpt lat="44.30887" lon="3.93298">
        <ele>709.821648</ele>
        <time>2019-10-06T20:52:37.741Z</time>
      </trkpt>
      <trkpt lat="44.30968" lon="3.93252">
        <ele>717.138878</ele>
        <time>2019-10-06T20:53:34.365Z</time>
      </trkpt>
      <trkpt lat="44.31031" lon="3.93225">
        <ele>723.293968</ele>
        <time>2019-10-06T20:54:22.133Z</time>
      </trkpt>
      <trkpt lat="44.31056" lon="3.93221">
        <ele>725.655304</ele>
        <time>2019-10-06T20:54:41.346Z</time>
      </trkpt>
      <trkpt lat="44.31103" lon="3.93225">
        <ele>730.156045</ele>
        <time>2019-10-06T20:55:13.284Z</time>
      </trkpt>
      <trkpt lat="44.31108" lon="3.93217">
        <ele>730.89971</ele>
        <time>2019-10-06T20:55:19.232Z</time>
      </trkpt>
      <trkpt lat="44.31108" lon="3.93209">
        <ele>731.430003</ele>
        <time>2019-10-06T20:55:25.098Z</time>
      </trkpt>
      <trkpt lat="44.31103" lon="3.93201">
        <ele>732.215397</ele>
        <time>2019-10-06T20:55:29.872Z</time>
      </trkpt>
      <trkpt lat="44.3107" lon="3.93184">
        <ele>735.440237</ele>
        <time>2019-10-06T20:55:53.822Z</time>
      </trkpt>
      <trkpt lat="44.30966" lon="3.93144">
        <ele>744.878668</ele>
        <time>2019-10-06T20:57:08.942Z</time>
      </trkpt>
      <trkpt lat="44.30887" lon="3.9313">
        <ele>751.788417</ele>
        <time>2019-10-06T20:57:56.993Z</time>
      </trkpt>
      <trkpt lat="44.30858" lon="3.93083">
        <ele>755.677795</ele>
        <time>2019-10-06T20:58:26.089Z</time>
      </trkpt>
      <trkpt lat="44.30837" lon="3.93008">
        <ele>760.72247</ele>
        <time>2019-10-06T20:59:05.788Z</time>
      </trkpt>
      <trkpt lat="44.30822" lon="3.92975">
        <ele>763.179656</ele>
        <time>2019-10-06T20:59:25.259Z</time>
      </trkpt>
      <trkpt lat="44.30802" lon="3.92954">
        <ele>765.39286</ele>
        <time>2019-10-06T20:59:42.326Z</time>
      </trkpt>
      <trkpt lat="44.3081" lon="3.92945">
        <ele>766.280036</ele>
        <time>2019-10-06T20:59:49.616Z</time>
      </trkpt>
      <trkpt lat="44.30844" lon="3.92968">
        <ele>769.863118</ele>
        <time>2019-10-06T21:00:16.274Z</time>
      </trkpt>
      <trkpt lat="44.30875" lon="3.93018">
        <ele>774.182296</ele>
        <time>2019-10-06T21:00:48.348Z</time>
      </trkpt>
      <trkpt lat="44.30888" lon="3.93022">
        <ele>775.414624</ele>
        <time>2019-10-06T21:00:57.430Z</time>
      </trkpt>
      <trkpt lat="44.30899" lon="3.93013">
        <ele>776.604979</ele>
        <time>2019-10-06T21:01:06.890Z</time>
      </trkpt>
      <trkpt lat="44.30905" lon="3.92989">
        <ele>778.335895</ele>
        <time>2019-10-06T21:01:19.778Z</time>
      </trkpt>
      <trkpt lat="44.30905" lon="3.92957">
        <ele>780.455496</ele>
        <time>2019-10-06T21:01:36.417Z</time>
      </trkpt>
      <trkpt lat="44.309" lon="3.92945">
        <ele>781.401471</ele>
        <time>2019-10-06T21:01:43.384Z</time>
      </trkpt>
      <trkpt lat="44.30866" lon="3.92927">
        <ele>784.813072</ele>
        <time>2019-10-06T21:02:08.802Z</time>
      </trkpt>
      <trkpt lat="44.3085" lon="3.92906">
        <ele>786.821294</ele>
        <time>2019-10-06T21:02:23.870Z</time>
      </trkpt>
      <trkpt lat="44.30839" lon="3.92877">
        <ele>789.012583</ele>
        <time>2019-10-06T21:02:39.986Z</time>
      </trkpt>
      <trkpt lat="44.3082" lon="3.92844">
        <ele>791.842608</ele>
        <time>2019-10-06T21:03:01.068Z</time>
      </trkpt>
      <trkpt lat="44.3078" lon="3.92789">
        <ele>797.149111</ele>
        <time>2019-10-06T21:03:40.898Z</time>
      </trkpt>
      <trkpt lat="44.30709" lon="3.92744">
        <ele>804.650601</ele>
        <time>2019-10-06T21:04:35.967Z</time>
      </trkpt>
      <trkpt lat="44.30655" lon="3.92696">
        <ele>810.929633</ele>
        <time>2019-10-06T21:05:21.450Z</time>
      </trkpt>
      <trkpt lat="44.30587" lon="3.92565">
        <ele>823.01532</ele>
        <time>2019-10-06T21:06:47.253Z</time>
      </trkpt>
      <trkpt lat="44.30556" lon="3.92529">
        <ele>827.621285</ele>
        <time>2019-10-06T21:07:18.429Z</time>
      </trkpt>
      <trkpt lat="44.30459" lon="3.92452">
        <ele>839.531807</ele>
        <time>2019-10-06T21:08:54.896Z</time>
      </trkpt>
      <trkpt lat="44.30412" lon="3.92445">
        <ele>843.340715</ele>
        <time>2019-10-06T21:09:31.219Z</time>
      </trkpt>
      <trkpt lat="44.30372" lon="3.92423">
        <ele>846.765264</ele>
        <time>2019-10-06T21:09:58.462Z</time>
      </trkpt>
      <trkpt lat="44.30367" lon="3.92419">
        <ele>847.237854</ele>
        <time>2019-10-06T21:10:05.953Z</time>
      </trkpt>
      <trkpt lat="44.30366" lon="3.92409">
        <ele>847.828165</ele>
        <time>2019-10-06T21:10:10.893Z</time>
      </trkpt>
      <trkpt lat="44.30371" lon="3.92374">
        <ele>849.886574</ele>
        <time>2019-10-06T21:10:20.779Z</time>
      </trkpt>
      <trkpt lat="44.30371" lon="3.92366">
        <ele>850.319673</ele>
        <time>2019-10-06T21:10:26.264Z</time>
      </trkpt>
      <trkpt lat="44.30369" lon="3.92359">
        <ele>850.765044</ele>
        <time>2019-10-06T21:10:28.365Z</time>
      </trkpt>
      <trkpt lat="44.3036" lon="3.92326">
        <ele>851.665316</ele>
        <time>2019-10-06T21:10:34.807Z</time>
      </trkpt>
      <trkpt lat="44.30342" lon="3.92321">
        <ele>850.5047</ele>
        <time>2019-10-06T21:10:41.313Z</time>
      </trkpt>
      <trkpt lat="44.30317" lon="3.92303">
        <ele>848.732153</ele>
        <time>2019-10-06T21:10:49.034Z</time>
      </trkpt>
      <trkpt lat="44.30305" lon="3.92281">
        <ele>847.483792</ele>
        <time>2019-10-06T21:10:52.205Z</time>
      </trkpt>
      <trkpt lat="44.3031" lon="3.92277">
        <ele>847.102184</ele>
        <time>2019-10-06T21:10:54.188Z</time>
      </trkpt>
      <trkpt lat="44.30334" lon="3.92282">
        <ele>845.509169</ele>
        <time>2019-10-06T21:10:57.902Z</time>
      </trkpt>
      <trkpt lat="44.3035" lon="3.92262">
        <ele>844.187001</ele>
        <time>2019-10-06T21:11:01.196Z</time>
      </trkpt>
      <trkpt lat="44.30378" lon="3.92204">
        <ele>841.0347</ele>
        <time>2019-10-06T21:11:08.202Z</time>
      </trkpt>
      <trkpt lat="44.30403" lon="3.92129">
        <ele>834.742044</ele>
        <time>2019-10-06T21:11:16.874Z</time>
      </trkpt>
      <trkpt lat="44.30401" lon="3.92119">
        <ele>833.948604</ele>
        <time>2019-10-06T21:11:17.869Z</time>
      </trkpt>
      <trkpt lat="44.30403" lon="3.92112">
        <ele>833.398965</ele>
        <time>2019-10-06T21:11:18.527Z</time>
      </trkpt>
      <trkpt lat="44.30405" lon="3.92042">
        <ele>827.917387</ele>
        <time>2019-10-06T21:11:25.599Z</time>
      </trkpt>
      <trkpt lat="44.30417" lon="3.91962">
        <ele>821.536366</ele>
        <time>2019-10-06T21:11:33.936Z</time>
      </trkpt>
      <trkpt lat="44.30417" lon="3.91962">
        <ele>824</ele>
      </trkpt>
      <trkpt lat="44.30417" lon="3.91959">
        <ele>823.8</ele>
      </trkpt>
      <trkpt lat="44.3042" lon="3.91947">
        <ele>823.4</ele>
      </trkpt>
      <trkpt lat="44.30421" lon="3.91939">
        <ele>822.9</ele>
      </trkpt>
      <trkpt lat="44.30424" lon="3.91927">
        <ele>822.6</ele>
      </trkpt>
      <trkpt lat="44.30428" lon="3.91916">
        <ele>822.6</ele>
      </trkpt>
      <trkpt lat="44.30431" lon="3.91906">
        <ele>822.3</ele>
      </trkpt>
      <trkpt lat="44.30434" lon="3.91893">
        <ele>821.9</ele>
      </trkpt>
      <trkpt lat="44.30437" lon="3.91881">
        <ele>821.4</ele>
      </trkpt>
      <trkpt lat="44.3044" lon="3.9187">
        <ele>821.2</ele>
      </trkpt>
      <trkpt lat="44.30442" lon="3.91862">
        <ele>820.6</ele>
      </trkpt>
      <trkpt lat="44.30443" lon="3.9185">
        <ele>819.3</ele>
      </trkpt>
      <trkpt lat="44.30444" lon="3.91836">
        <ele>817.6</ele>
      </trkpt>
      <trkpt lat="44.30444" lon="3.9182">
        <ele>816.9</ele>
      </trkpt>
      <trkpt lat="44.30443" lon="3.91803">
        <ele>816.1</ele>
      </trkpt>
      <trkpt lat="44.30442" lon="3.91783">
        <ele>815.1</ele>
      </trkpt>
      <trkpt lat="44.30441" lon="3.91765">
        <ele>814.1</ele>
      </trkpt>
      <trkpt lat="44.30441" lon="3.91749">
        <ele>813.3</ele>
      </trkpt>
      <trkpt lat="44.3044" lon="3.91737">
        <ele>811.5</ele>
      </trkpt>
      <trkpt lat="44.3044" lon="3.91722">
        <ele>809.5</ele>
      </trkpt>
      <trkpt lat="44.30441" lon="3.91712">
        <ele>808.6</ele>
      </trkpt>
      <trkpt lat="44.30442" lon="3.91705">
        <ele>808</ele>
      </trkpt>
      <trkpt lat="44.30443" lon="3.91699">
        <ele>807.7</ele>
      </trkpt>
      <trkpt lat="44.30446" lon="3.9169">
        <ele>807.3</ele>
      </trkpt>
      <trkpt lat="44.30449" lon="3.91682">
        <ele>807.1</ele>
      </trkpt>
      <trkpt lat="44.30453" lon="3.91674">
        <ele>807.2</ele>
      </trkpt>
      <trkpt lat="44.30457" lon="3.91668">
        <ele>807.3</ele>
      </trkpt>
      <trkpt lat="44.30463" lon="3.9166">
        <ele>807.2</ele>
      </trkpt>
      <trkpt lat="44.3047" lon="3.91652">
        <ele>807.4</ele>
      </trkpt>
      <trkpt lat="44.30479" lon="3.91644">
        <ele>808.3</ele>
      </trkpt>
      <trkpt lat="44.30488" lon="3.91636">
        <ele>809.5</ele>
      </trkpt>
      <trkpt lat="44.30501" lon="3.91625">
        <ele>811.2</ele>
      </trkpt>
      <trkpt lat="44.30512" lon="3.91616">
        <ele>812.6</ele>
      </trkpt>
      <trkpt lat="44.30521" lon="3.91611">
        <ele>814.5</ele>
      </trkpt>
      <trkpt lat="44.30528" lon="3.91605">
        <ele>815.7</ele>
      </trkpt>
      <trkpt lat="44.30533" lon="3.916">
        <ele>816.7</ele>
      </trkpt>
      <trkpt lat="44.30537" lon="3.91594">
        <ele>817</ele>
      </trkpt>
      <trkpt lat="44.30538" lon="3.91591">
        <ele>817.1</ele>
      </trkpt>
      <trkpt lat="44.30541" lon="3.91584">
        <ele>817.2</ele>
      </trkpt>
      <trkpt lat="44.30544" lon="3.91571">
        <ele>817.9</ele>
      </trkpt>
      <trkpt lat="44.30548" lon="3.91554">
        <ele>818.8</ele>
      </trkpt>
      <trkpt lat="44.30552" lon="3.91534">
        <ele>819.8</ele>
      </trkpt>
      <trkpt lat="44.30555" lon="3.91515">
        <ele>820.5</ele>
      </trkpt>
      <trkpt lat="44.30557" lon="3.915">
        <ele>821.2</ele>
      </trkpt>
      <trkpt lat="44.30558" lon="3.9149">
        <ele>822.2</ele>
      </trkpt>
      <trkpt lat="44.30558" lon="3.9148">
        <ele>823</ele>
      </trkpt>
      <trkpt lat="44.30558" lon="3.9147">
        <ele>823.3</ele>
      </trkpt>
      <trkpt lat="44.30555" lon="3.91454">
        <ele>823</ele>
      </trkpt>
      <trkpt lat="44.30551" lon="3.91435">
        <ele>822.3</ele>
      </trkpt>
      <trkpt lat="44.30546" lon="3.91417">
        <ele>821.7</ele>
      </trkpt>
      <trkpt lat="44.30543" lon="3.91402">
        <ele>821.4</ele>
      </trkpt>
      <trkpt lat="44.30539" lon="3.91382">
        <ele>821.3</ele>
      </trkpt>
      <trkpt lat="44.30535" lon="3.91366">
        <ele>820.9</ele>
      </trkpt>
      <trkpt lat="44.30531" lon="3.9135">
        <ele>820.6</ele>
      </trkpt>
      <trkpt lat="44.30527" lon="3.91335">
        <ele>820.7</ele>
      </trkpt>
      <trkpt lat="44.30525" lon="3.9132">
        <ele>818.5</ele>
      </trkpt>
      <trkpt lat="44.30524" lon="3.91312">
        <ele>817.2</ele>
      </trkpt>
      <trkpt lat="44.30525" lon="3.91303">
        <ele>816.3</ele>
      </trkpt>
      <trkpt lat="44.30527" lon="3.91296">
        <ele>815.8</ele>
      </trkpt>
      <trkpt lat="44.3053" lon="3.91288">
        <ele>815.6</ele>
      </trkpt>
      <trkpt lat="44.30534" lon="3.91281">
        <ele>815.8</ele>
      </trkpt>
      <trkpt lat="44.30541" lon="3.91274">
        <ele>816.7</ele>
      </trkpt>
      <trkpt lat="44.30551" lon="3.91265">
        <ele>817.9</ele>
      </trkpt>
      <trkpt lat="44.30561" lon="3.91255">
        <ele>819.2</ele>
      </trkpt>
      <trkpt lat="44.30573" lon="3.91246">
        <ele>819.9</ele>
      </trkpt>
      <trkpt lat="44.30586" lon="3.91235">
        <ele>820.5</ele>
      </trkpt>
      <trkpt lat="44.30599" lon="3.91225">
        <ele>822.7</ele>
      </trkpt>
      <trkpt lat="44.3061" lon="3.91215">
        <ele>824.8</ele>
      </trkpt>
      <trkpt lat="44.3062" lon="3.91208">
        <ele>826.9</ele>
      </trkpt>
      <trkpt lat="44.30629" lon="3.91198">
        <ele>828.3</ele>
      </trkpt>
      <trkpt lat="44.30634" lon="3.91193">
        <ele>829.5</ele>
      </trkpt>
      <trkpt lat="44.30641" lon="3.91187">
        <ele>831.3</ele>
      </trkpt>
      <trkpt lat="44.30646" lon="3.9118">
        <ele>831.9</ele>
      </trkpt>
      <trkpt lat="44.30648" lon="3.91173">
        <ele>831.5</ele>
      </trkpt>
      <trkpt lat="44.3065" lon="3.91164">
        <ele>831</ele>
      </trkpt>
      <trkpt lat="44.30651" lon="3.91154">
        <ele>830.6</ele>
      </trkpt>
      <trkpt lat="44.30652" lon="3.91144">
        <ele>830.4</ele>
      </trkpt>
      <trkpt lat="44.30654" lon="3.91135">
        <ele>830.7</ele>
      </trkpt>
      <trkpt lat="44.30656" lon="3.91126">
        <ele>831.2</ele>
      </trkpt>
      <trkpt lat="44.30659" lon="3.91116">
        <ele>832.2</ele>
      </trkpt>
      <trkpt lat="44.30662" lon="3.91108">
        <ele>832.8</ele>
      </trkpt>
      <trkpt lat="44.30663" lon="3.91097">
        <ele>832.7</ele>
      </trkpt>
      <trkpt lat="44.30663" lon="3.91083">
        <ele>831.9</ele>
      </trkpt>
      <trkpt lat="44.30662" lon="3.91064">
        <ele>831.5</ele>
      </trkpt>
      <trkpt lat="44.30662" lon="3.91047">
        <ele>831.3</ele>
      </trkpt>
      <trkpt lat="44.30663" lon="3.91039">
        <ele>831.4</ele>
      </trkpt>
      <trkpt lat="44.30665" lon="3.91026">
        <ele>832.2</ele>
      </trkpt>
      <trkpt lat="44.30668" lon="3.91008">
        <ele>833.5</ele>
      </trkpt>
      <trkpt lat="44.30672" lon="3.90989">
        <ele>834.3</ele>
      </trkpt>
      <trkpt lat="44.30676" lon="3.90971">
        <ele>834.6</ele>
      </trkpt>
      <trkpt lat="44.30679" lon="3.90952">
        <ele>834.6</ele>
      </trkpt>
      <trkpt lat="44.30681" lon="3.90935">
        <ele>834.1</ele>
      </trkpt>
      <trkpt lat="44.30682" lon="3.90921">
        <ele>833.7</ele>
      </trkpt>
      <trkpt lat="44.30683" lon="3.90905">
        <ele>833.4</ele>
      </trkpt>
      <trkpt lat="44.30683" lon="3.90892">
        <ele>832.9</ele>
      </trkpt>
      <trkpt lat="44.30682" lon="3.90877">
        <ele>832.2</ele>
      </trkpt>
      <trkpt lat="44.30681" lon="3.90858">
        <ele>831</ele>
      </trkpt>
      <trkpt lat="44.3068" lon="3.90845">
        <ele>830.1</ele>
      </trkpt>
      <trkpt lat="44.30679" lon="3.90835">
        <ele>829.4</ele>
      </trkpt>
      <trkpt lat="44.3068" lon="3.90827">
        <ele>830</ele>
      </trkpt>
      <trkpt lat="44.3068" lon="3.90819">
        <ele>830.9</ele>
      </trkpt>
      <trkpt lat="44.30681" lon="3.90813">
        <ele>832</ele>
      </trkpt>
      <trkpt lat="44.30685" lon="3.90803">
        <ele>834.5</ele>
      </trkpt>
      <trkpt lat="44.30687" lon="3.90795">
        <ele>836.1</ele>
      </trkpt>
      <trkpt lat="44.30688" lon="3.90788">
        <ele>837.2</ele>
      </trkpt>
      <trkpt lat="44.30688" lon="3.90783">
        <ele>837.6</ele>
      </trkpt>
      <trkpt lat="44.30687" lon="3.90778">
        <ele>837.5</ele>
      </trkpt>
      <trkpt lat="44.30686" lon="3.90776">
        <ele>837.3</ele>
      </trkpt>
      <trkpt lat="44.30685" lon="3.90772">
        <ele>837</ele>
      </trkpt>
      <trkpt lat="44.30682" lon="3.90768">
        <ele>836</ele>
      </trkpt>
      <trkpt lat="44.30676" lon="3.90761">
        <ele>834</ele>
      </trkpt>
      <trkpt lat="44.30667" lon="3.90751">
        <ele>831.2</ele>
      </trkpt>
      <trkpt lat="44.30661" lon="3.90742">
        <ele>829.6</ele>
      </trkpt>
      <trkpt lat="44.30651" lon="3.9073">
        <ele>827.5</ele>
      </trkpt>
      <trkpt lat="44.30643" lon="3.90717">
        <ele>825.9</ele>
      </trkpt>
      <trkpt lat="44.30634" lon="3.90705">
        <ele>824.7</ele>
      </trkpt>
      <trkpt lat="44.3063" lon="3.90694">
        <ele>824.8</ele>
      </trkpt>
      <trkpt lat="44.30624" lon="3.90679">
        <ele>824.7</ele>
      </trkpt>
      <trkpt lat="44.30616" lon="3.90663">
        <ele>823.8</ele>
      </trkpt>
      <trkpt lat="44.3061" lon="3.90649">
        <ele>821.7</ele>
      </trkpt>
      <trkpt lat="44.30604" lon="3.90634">
        <ele>820</ele>
      </trkpt>
      <trkpt lat="44.30589" lon="3.9059">
        <ele>816.3</ele>
      </trkpt>
      <trkpt lat="44.30584" lon="3.90575">
        <ele>815</ele>
      </trkpt>
      <trkpt lat="44.30578" lon="3.90558">
        <ele>812.8</ele>
      </trkpt>
      <trkpt lat="44.30573" lon="3.90546">
        <ele>811</ele>
      </trkpt>
      <trkpt lat="44.3057" lon="3.90537">
        <ele>809.9</ele>
      </trkpt>
      <trkpt lat="44.30568" lon="3.9053">
        <ele>809.2</ele>
      </trkpt>
      <trkpt lat="44.30567" lon="3.90522">
        <ele>808.9</ele>
      </trkpt>
      <trkpt lat="44.30567" lon="3.90516">
        <ele>808.9</ele>
      </trkpt>
      <trkpt lat="44.30567" lon="3.9051">
        <ele>808.8</ele>
      </trkpt>
      <trkpt lat="44.30567" lon="3.90503">
        <ele>808.9</ele>
      </trkpt>
      <trkpt lat="44.30569" lon="3.90493">
        <ele>808.2</ele>
      </trkpt>
      <trkpt lat="44.30571" lon="3.90488">
        <ele>807.7</ele>
      </trkpt>
      <trkpt lat="44.30574" lon="3.90483">
        <ele>807.3</ele>
      </trkpt>
      <trkpt lat="44.30578" lon="3.90479">
        <ele>807.4</ele>
      </trkpt>
      <trkpt lat="44.30582" lon="3.90475">
        <ele>807.3</ele>
      </trkpt>
      <trkpt lat="44.30588" lon="3.90473">
        <ele>807.2</ele>
      </trkpt>
      <trkpt lat="44.30594" lon="3.90471">
        <ele>806.6</ele>
      </trkpt>
      <trkpt lat="44.30604" lon="3.9047">
        <ele>805.9</ele>
      </trkpt>
      <trkpt lat="44.30614" lon="3.90469">
        <ele>805.4</ele>
      </trkpt>
      <trkpt lat="44.30624" lon="3.90469">
        <ele>805.4</ele>
      </trkpt>
      <trkpt lat="44.30634" lon="3.9047">
        <ele>805.5</ele>
      </trkpt>
      <trkpt lat="44.30645" lon="3.90472">
        <ele>806</ele>
      </trkpt>
      <trkpt lat="44.30653" lon="3.90475">
        <ele>806.8</ele>
      </trkpt>
      <trkpt lat="44.30664" lon="3.9048">
        <ele>808.5</ele>
      </trkpt>
      <trkpt lat="44.30676" lon="3.90484">
        <ele>809.1</ele>
      </trkpt>
      <trkpt lat="44.30688" lon="3.9049">
        <ele>809.8</ele>
      </trkpt>
      <trkpt lat="44.30699" lon="3.90495">
        <ele>810.4</ele>
      </trkpt>
      <trkpt lat="44.30707" lon="3.90498">
        <ele>810.8</ele>
      </trkpt>
      <trkpt lat="44.30716" lon="3.905">
        <ele>810.7</ele>
      </trkpt>
      <trkpt lat="44.30723" lon="3.90502">
        <ele>810.5</ele>
      </trkpt>
      <trkpt lat="44.3073" lon="3.90502">
        <ele>809.9</ele>
      </trkpt>
      <trkpt lat="44.30739" lon="3.90502">
        <ele>808.9</ele>
      </trkpt>
      <trkpt lat="44.3075" lon="3.905">
        <ele>807</ele>
      </trkpt>
      <trkpt lat="44.30763" lon="3.90499">
        <ele>808.7</ele>
      </trkpt>
      <trkpt lat="44.30773" lon="3.90496">
        <ele>809.8</ele>
      </trkpt>
      <trkpt lat="44.30788" lon="3.90495">
        <ele>811.8</ele>
      </trkpt>
      <trkpt lat="44.30799" lon="3.90493">
        <ele>813.4</ele>
      </trkpt>
      <trkpt lat="44.30806" lon="3.90491">
        <ele>814.1</ele>
      </trkpt>
      <trkpt lat="44.30809" lon="3.9049">
        <ele>814.2</ele>
      </trkpt>
      <trkpt lat="44.30813" lon="3.90488">
        <ele>814.5</ele>
      </trkpt>
      <trkpt lat="44.30818" lon="3.90485">
        <ele>814.3</ele>
      </trkpt>
      <trkpt lat="44.30822" lon="3.90481">
        <ele>814</ele>
      </trkpt>
      <trkpt lat="44.30827" lon="3.90475">
        <ele>812.9</ele>
      </trkpt>
      <trkpt lat="44.30832" lon="3.90469">
        <ele>811.8</ele>
      </trkpt>
      <trkpt lat="44.30836" lon="3.90462">
        <ele>811.1</ele>
      </trkpt>
      <trkpt lat="44.3084" lon="3.90454">
        <ele>809.9</ele>
      </trkpt>
      <trkpt lat="44.30844" lon="3.90443">
        <ele>808</ele>
      </trkpt>
      <trkpt lat="44.30848" lon="3.90432">
        <ele>806.4</ele>
      </trkpt>
      <trkpt lat="44.30851" lon="3.90422">
        <ele>804.8</ele>
      </trkpt>
      <trkpt lat="44.30855" lon="3.90415">
        <ele>804.3</ele>
      </trkpt>
      <trkpt lat="44.3086" lon="3.90407">
        <ele>804.7</ele>
      </trkpt>
      <trkpt lat="44.30865" lon="3.90398">
        <ele>805.1</ele>
      </trkpt>
      <trkpt lat="44.30872" lon="3.90388">
        <ele>805.9</ele>
      </trkpt>
      <trkpt lat="44.30879" lon="3.90379">
        <ele>807</ele>
      </trkpt>
      <trkpt lat="44.3089" lon="3.90364">
        <ele>808.5</ele>
      </trkpt>
      <trkpt lat="44.30896" lon="3.90354">
        <ele>809.1</ele>
      </trkpt>
      <trkpt lat="44.30904" lon="3.90341">
        <ele>809.8</ele>
      </trkpt>
      <trkpt lat="44.30911" lon="3.90327">
        <ele>810.4</ele>
      </trkpt>
      <trkpt lat="44.30919" lon="3.90311">
        <ele>810.6</ele>
      </trkpt>
      <trkpt lat="44.30928" lon="3.90296">
        <ele>810.6</ele>
      </trkpt>
      <trkpt lat="44.30934" lon="3.90284">
        <ele>810.7</ele>
      </trkpt>
      <trkpt lat="44.30941" lon="3.9027">
        <ele>810.9</ele>
      </trkpt>
      <trkpt lat="44.30951" lon="3.90251">
        <ele>811.3</ele>
      </trkpt>
      <trkpt lat="44.30957" lon="3.90237">
        <ele>812</ele>
      </trkpt>
      <trkpt lat="44.30964" lon="3.90223">
        <ele>813.3</ele>
      </trkpt>
      <trkpt lat="44.3097" lon="3.90209">
        <ele>814.2</ele>
      </trkpt>
      <trkpt lat="44.30975" lon="3.90196">
        <ele>814.7</ele>
      </trkpt>
      <trkpt lat="44.30981" lon="3.90179">
        <ele>815.3</ele>
      </trkpt>
      <trkpt lat="44.30987" lon="3.90159">
        <ele>816</ele>
      </trkpt>
      <trkpt lat="44.30992" lon="3.90142">
        <ele>816.5</ele>
      </trkpt>
      <trkpt lat="44.30997" lon="3.90125">
        <ele>817</ele>
      </trkpt>
      <trkpt lat="44.31" lon="3.90109">
        <ele>817.2</ele>
      </trkpt>
      <trkpt lat="44.31005" lon="3.90093">
        <ele>817.3</ele>
      </trkpt>
      <trkpt lat="44.31006" lon="3.9009">
        <ele>817.3</ele>
      </trkpt>
      <trkpt lat="44.3101" lon="3.90076">
        <ele>817.2</ele>
      </trkpt>
      <trkpt lat="44.31014" lon="3.90065">
        <ele>816.8</ele>
      </trkpt>
      <trkpt lat="44.31018" lon="3.90054">
        <ele>816.8</ele>
      </trkpt>
      <trkpt lat="44.31023" lon="3.90043">
        <ele>816.9</ele>
      </trkpt>
      <trkpt lat="44.31035" lon="3.90019">
        <ele>817.5</ele>
      </trkpt>
      <trkpt lat="44.31039" lon="3.90011">
        <ele>817.8</ele>
      </trkpt>
      <trkpt lat="44.31046" lon="3.9">
        <ele>818.5</ele>
      </trkpt>
      <trkpt lat="44.31054" lon="3.89989">
        <ele>818.9</ele>
      </trkpt>
      <trkpt lat="44.31064" lon="3.89975">
        <ele>819.6</ele>
      </trkpt>
      <trkpt lat="44.31064" lon="3.89975">
        <ele>819.7</ele>
      </trkpt>
      <trkpt lat="44.31074" lon="3.89965">
        <ele>820.9</ele>
      </trkpt>
      <trkpt lat="44.31089" lon="3.89948">
        <ele>822.3</ele>
      </trkpt>
      <trkpt lat="44.31103" lon="3.89931">
        <ele>822.9</ele>
      </trkpt>
      <trkpt lat="44.31117" lon="3.89916">
        <ele>824.1</ele>
      </trkpt>
      <trkpt lat="44.31121" lon="3.89912">
        <ele>824.5</ele>
      </trkpt>
      <trkpt lat="44.31128" lon="3.89906">
        <ele>825.3</ele>
      </trkpt>
      <trkpt lat="44.31138" lon="3.89897">
        <ele>826.5</ele>
      </trkpt>
      <trkpt lat="44.31149" lon="3.89886">
        <ele>827.8</ele>
      </trkpt>
      <trkpt lat="44.31158" lon="3.89875">
        <ele>828.9</ele>
      </trkpt>
      <trkpt lat="44.31166" lon="3.89863">
        <ele>829.5</ele>
      </trkpt>
      <trkpt lat="44.31174" lon="3.89848">
        <ele>829.4</ele>
      </trkpt>
      <trkpt lat="44.31183" lon="3.89829">
        <ele>829.8</ele>
      </trkpt>
      <trkpt lat="44.3119" lon="3.89815">
        <ele>830.7</ele>
      </trkpt>
      <trkpt lat="44.31195" lon="3.89807">
        <ele>831.6</ele>
      </trkpt>
      <trkpt lat="44.31203" lon="3.89796">
        <ele>833.3</ele>
      </trkpt>
      <trkpt lat="44.31209" lon="3.89786">
        <ele>834.6</ele>
      </trkpt>
      <trkpt lat="44.31211" lon="3.8978">
        <ele>835</ele>
      </trkpt>
      <trkpt lat="44.31214" lon="3.89772">
        <ele>835.4</ele>
      </trkpt>
      <trkpt lat="44.31215" lon="3.8976">
        <ele>835</ele>
      </trkpt>
      <trkpt lat="44.31216" lon="3.89742">
        <ele>833.8</ele>
      </trkpt>
      <trkpt lat="44.31217" lon="3.89725">
        <ele>833</ele>
      </trkpt>
      <trkpt lat="44.31217" lon="3.89718">
        <ele>832.6</ele>
      </trkpt>
      <trkpt lat="44.31222" lon="3.8972">
        <ele>834.8</ele>
      </trkpt>
      <trkpt lat="44.31225" lon="3.89722">
        <ele>836.5</ele>
      </trkpt>
      <trkpt lat="44.31228" lon="3.89724">
        <ele>837.7</ele>
      </trkpt>
      <trkpt lat="44.31229" lon="3.89727">
        <ele>838.5</ele>
      </trkpt>
      <trkpt lat="44.3123" lon="3.89732">
        <ele>839</ele>
      </trkpt>
      <trkpt lat="44.31229" lon="3.89738">
        <ele>839</ele>
      </trkpt>
      <trkpt lat="44.31227" lon="3.89745">
        <ele>838.6</ele>
      </trkpt>
      <trkpt lat="44.31225" lon="3.89757">
        <ele>838.4</ele>
      </trkpt>
      <trkpt lat="44.31223" lon="3.89765">
        <ele>838.3</ele>
      </trkpt>
      <trkpt lat="44.31222" lon="3.89773">
        <ele>838.4</ele>
      </trkpt>
      <trkpt lat="44.31221" lon="3.89782">
        <ele>838.7</ele>
      </trkpt>
      <trkpt lat="44.31218" lon="3.89791">
        <ele>838.4</ele>
      </trkpt>
      <trkpt lat="44.31214" lon="3.89804">
        <ele>837.8</ele>
      </trkpt>
      <trkpt lat="44.3121" lon="3.89817">
        <ele>837.7</ele>
      </trkpt>
      <trkpt lat="44.31209" lon="3.89822">
        <ele>837.7</ele>
      </trkpt>
      <trkpt lat="44.31206" lon="3.89835">
        <ele>837.8</ele>
      </trkpt>
      <trkpt lat="44.31205" lon="3.89846">
        <ele>838.2</ele>
      </trkpt>
      <trkpt lat="44.31202" lon="3.89858">
        <ele>838.5</ele>
      </trkpt>
      <trkpt lat="44.31199" lon="3.89872">
        <ele>838.8</ele>
      </trkpt>
      <trkpt lat="44.31197" lon="3.89885">
        <ele>839.5</ele>
      </trkpt>
      <trkpt lat="44.31193" lon="3.89899">
        <ele>840.1</ele>
      </trkpt>
      <trkpt lat="44.3119" lon="3.89913">
        <ele>841</ele>
      </trkpt>
      <trkpt lat="44.31188" lon="3.89926">
        <ele>841.2</ele>
      </trkpt>
      <trkpt lat="44.31187" lon="3.89935">
        <ele>841.3</ele>
      </trkpt>
      <trkpt lat="44.31187" lon="3.89943">
        <ele>841.5</ele>
      </trkpt>
      <trkpt lat="44.31189" lon="3.8995">
        <ele>841.7</ele>
      </trkpt>
      <trkpt lat="44.31189" lon="3.89957">
        <ele>841.8</ele>
      </trkpt>
      <trkpt lat="44.31192" lon="3.89964">
        <ele>841.8</ele>
      </trkpt>
      <trkpt lat="44.31196" lon="3.89971">
        <ele>841.8</ele>
      </trkpt>
      <trkpt lat="44.31198" lon="3.89973">
        <ele>841.7</ele>
      </trkpt>
      <trkpt lat="44.312" lon="3.89975">
        <ele>841.6</ele>
      </trkpt>
      <trkpt lat="44.31204" lon="3.89978">
        <ele>841.3</ele>
      </trkpt>
      <trkpt lat="44.31207" lon="3.89979">
        <ele>841.1</ele>
      </trkpt>
      <trkpt lat="44.31213" lon="3.89979">
        <ele>840.8</ele>
      </trkpt>
      <trkpt lat="44.31218" lon="3.89977">
        <ele>840.6</ele>
      </trkpt>
      <trkpt lat="44.31227" lon="3.89974">
        <ele>840.6</ele>
      </trkpt>
      <trkpt lat="44.31232" lon="3.8997">
        <ele>840.8</ele>
      </trkpt>
      <trkpt lat="44.31253" lon="3.89953">
        <ele>840.141913</ele>
        <time>2019-10-06T21:27:49.127Z</time>
      </trkpt>
      <trkpt lat="44.31357" lon="3.8989">
        <ele>839.997425</ele>
        <time>2019-10-06T21:28:29.941Z</time>
      </trkpt>
      <trkpt lat="44.31376" lon="3.89868">
        <ele>839.965622</ele>
        <time>2019-10-06T21:28:38.756Z</time>
      </trkpt>
      <trkpt lat="44.3145" lon="3.89717">
        <ele>841.610094</ele>
        <time>2019-10-06T21:29:34.950Z</time>
      </trkpt>
      <trkpt lat="44.31474" lon="3.89692">
        <ele>841.998772</ele>
        <time>2019-10-06T21:29:49.804Z</time>
      </trkpt>
      <trkpt lat="44.31491" lon="3.89677">
        <ele>842.258926</ele>
        <time>2019-10-06T21:29:58.236Z</time>
      </trkpt>
      <trkpt lat="44.31501" lon="3.89667">
        <ele>842.463286</ele>
        <time>2019-10-06T21:30:05.531Z</time>
      </trkpt>
      <trkpt lat="44.31519" lon="3.89645">
        <ele>842.885631</ele>
        <time>2019-10-06T21:30:15.695Z</time>
      </trkpt>
      <trkpt lat="44.31526" lon="3.89632">
        <ele>843.091915</ele>
        <time>2019-10-06T21:30:22.924Z</time>
      </trkpt>
      <trkpt lat="44.31532" lon="3.89619">
        <ele>843.279959</ele>
        <time>2019-10-06T21:30:27.516Z</time>
      </trkpt>
      <trkpt lat="44.31532" lon="3.89591">
        <ele>843.627674</ele>
        <time>2019-10-06T21:30:37.151Z</time>
      </trkpt>
      <trkpt lat="44.31509" lon="3.8951">
        <ele>844.724525</ele>
        <time>2019-10-06T21:31:06.604Z</time>
      </trkpt>
      <trkpt lat="44.31477" lon="3.89359">
        <ele>845.400538</ele>
        <time>2019-10-06T21:31:53.088Z</time>
      </trkpt>
      <trkpt lat="44.3147" lon="3.89271">
        <ele>845.37332</ele>
        <time>2019-10-06T21:32:15.048Z</time>
      </trkpt>
      <trkpt lat="44.31477" lon="3.89189">
        <ele>845.426865</ele>
        <time>2019-10-06T21:32:35.930Z</time>
      </trkpt>
      <trkpt lat="44.31489" lon="3.89131">
        <ele>845.640057</ele>
        <time>2019-10-06T21:32:51.460Z</time>
      </trkpt>
      <trkpt lat="44.31502" lon="3.89107">
        <ele>845.746265</ele>
        <time>2019-10-06T21:32:59.329Z</time>
      </trkpt>
      <trkpt lat="44.31552" lon="3.89049">
        <ele>846.072146</ele>
        <time>2019-10-06T21:33:25.759Z</time>
      </trkpt>
      <trkpt lat="44.3156" lon="3.89013">
        <ele>846.203224</ele>
        <time>2019-10-06T21:33:37.765Z</time>
      </trkpt>
      <trkpt lat="44.31505" lon="3.88849">
        <ele>847.807644</ele>
        <time>2019-10-06T21:34:40.412Z</time>
      </trkpt>
      <trkpt lat="44.31486" lon="3.88774">
        <ele>848.540617</ele>
        <time>2019-10-06T21:35:03.655Z</time>
      </trkpt>
      <trkpt lat="44.31493" lon="3.88638">
        <ele>845.949104</ele>
        <time>2019-10-06T21:35:36.040Z</time>
      </trkpt>
      <trkpt lat="44.31466" lon="3.88561">
        <ele>844.266786</ele>
        <time>2019-10-06T21:35:54.520Z</time>
      </trkpt>
      <trkpt lat="44.31459" lon="3.88528">
        <ele>843.524149</ele>
        <time>2019-10-06T21:36:01.685Z</time>
      </trkpt>
      <trkpt lat="44.3146" lon="3.88503">
        <ele>842.47078</ele>
        <time>2019-10-06T21:36:06.730Z</time>
      </trkpt>
      <trkpt lat="44.31471" lon="3.88433">
        <ele>839.441325</ele>
        <time>2019-10-06T21:36:20.943Z</time>
      </trkpt>
      <trkpt lat="44.3149" lon="3.88371">
        <ele>836.551909</ele>
        <time>2019-10-06T21:36:34.426Z</time>
      </trkpt>
      <trkpt lat="44.31495" lon="3.88311">
        <ele>834.006118</ele>
        <time>2019-10-06T21:36:46.382Z</time>
      </trkpt>
      <trkpt lat="44.31488" lon="3.88261">
        <ele>831.746149</ele>
        <time>2019-10-06T21:36:56.609Z</time>
      </trkpt>
      <trkpt lat="44.31463" lon="3.88164">
        <ele>826.864307</ele>
        <time>2019-10-06T21:37:17.431Z</time>
      </trkpt>
      <trkpt lat="44.3149" lon="3.88073">
        <ele>822.186996</ele>
        <time>2019-10-06T21:37:36.850Z</time>
      </trkpt>
      <trkpt lat="44.31491" lon="3.88026">
        <ele>819.662617</ele>
        <time>2019-10-06T21:37:45.952Z</time>
      </trkpt>
      <trkpt lat="44.31482" lon="3.8798">
        <ele>816.727519</ele>
        <time>2019-10-06T21:37:55.265Z</time>
      </trkpt>
      <trkpt lat="44.31483" lon="3.87893">
        <ele>811.468133</ele>
        <time>2019-10-06T21:38:11.445Z</time>
      </trkpt>
      <trkpt lat="44.315" lon="3.87882">
        <ele>809.905012</ele>
        <time>2019-10-06T21:38:16.081Z</time>
      </trkpt>
      <trkpt lat="44.31516" lon="3.87857">
        <ele>807.819946</ele>
        <time>2019-10-06T21:38:22.509Z</time>
      </trkpt>
      <trkpt lat="44.31579" lon="3.87827">
        <ele>803.00301</ele>
        <time>2019-10-06T21:38:39.991Z</time>
      </trkpt>
      <trkpt lat="44.31579" lon="3.87828">
        <ele>801.6</ele>
      </trkpt>
      <trkpt lat="44.3158" lon="3.87828">
        <ele>801.6</ele>
      </trkpt>
      <trkpt lat="44.31586" lon="3.87826">
        <ele>801.1</ele>
      </trkpt>
      <trkpt lat="44.31594" lon="3.87825">
        <ele>800.6</ele>
      </trkpt>
      <trkpt lat="44.316" lon="3.87824">
        <ele>800</ele>
      </trkpt>
      <trkpt lat="44.31602" lon="3.87821">
        <ele>800.8</ele>
      </trkpt>
      <trkpt lat="44.31605" lon="3.87817">
        <ele>801.8</ele>
      </trkpt>
      <trkpt lat="44.31611" lon="3.87812">
        <ele>802.6</ele>
      </trkpt>
      <trkpt lat="44.31616" lon="3.87809">
        <ele>803</ele>
      </trkpt>
      <trkpt lat="44.3162" lon="3.87805">
        <ele>803.8</ele>
      </trkpt>
      <trkpt lat="44.31626" lon="3.87798">
        <ele>805.1</ele>
      </trkpt>
      <trkpt lat="44.3163" lon="3.87792">
        <ele>806.5</ele>
      </trkpt>
      <trkpt lat="44.31636" lon="3.87784">
        <ele>808.7</ele>
      </trkpt>
      <trkpt lat="44.31641" lon="3.87775">
        <ele>810.6</ele>
      </trkpt>
      <trkpt lat="44.31645" lon="3.87768">
        <ele>812.4</ele>
      </trkpt>
      <trkpt lat="44.3165" lon="3.87761">
        <ele>813.9</ele>
      </trkpt>
      <trkpt lat="44.31654" lon="3.87754">
        <ele>815.5</ele>
      </trkpt>
      <trkpt lat="44.31658" lon="3.87746">
        <ele>817.4</ele>
      </trkpt>
      <trkpt lat="44.31661" lon="3.87739">
        <ele>818.7</ele>
      </trkpt>
      <trkpt lat="44.31664" lon="3.8773">
        <ele>820.2</ele>
      </trkpt>
      <trkpt lat="44.31667" lon="3.87722">
        <ele>821.7</ele>
      </trkpt>
      <trkpt lat="44.31669" lon="3.87716">
        <ele>823</ele>
      </trkpt>
      <trkpt lat="44.31673" lon="3.87711">
        <ele>824.2</ele>
      </trkpt>
      <trkpt lat="44.31678" lon="3.87706">
        <ele>825.4</ele>
      </trkpt>
      <trkpt lat="44.31684" lon="3.87701">
        <ele>826.3</ele>
      </trkpt>
      <trkpt lat="44.31689" lon="3.87696">
        <ele>827.2</ele>
      </trkpt>
      <trkpt lat="44.31693" lon="3.87693">
        <ele>827.9</ele>
      </trkpt>
      <trkpt lat="44.31696" lon="3.87687">
        <ele>829.1</ele>
      </trkpt>
      <trkpt lat="44.31699" lon="3.87681">
        <ele>830.2</ele>
      </trkpt>
      <trkpt lat="44.31702" lon="3.87679">
        <ele>830.7</ele>
      </trkpt>
      <trkpt lat="44.31706" lon="3.87676">
        <ele>831</ele>
      </trkpt>
      <trkpt lat="44.31711" lon="3.87676">
        <ele>830.9</ele>
      </trkpt>
      <trkpt lat="44.31717" lon="3.87675">
        <ele>830.8</ele>
      </trkpt>
      <trkpt lat="44.31724" lon="3.87674">
        <ele>830.8</ele>
      </trkpt>
      <trkpt lat="44.31728" lon="3.87673">
        <ele>830.7</ele>
      </trkpt>
      <trkpt lat="44.31731" lon="3.87673">
        <ele>830.7</ele>
      </trkpt>
      <trkpt lat="44.31733" lon="3.87671">
        <ele>830.9</ele>
      </trkpt>
      <trkpt lat="44.31734" lon="3.8767">
        <ele>831</ele>
      </trkpt>
      <trkpt lat="44.31735" lon="3.87668">
        <ele>831.5</ele>
      </trkpt>
      <trkpt lat="44.31736" lon="3.8766">
        <ele>831.4</ele>
      </trkpt>
      <trkpt lat="44.31737" lon="3.87647">
        <ele>830.7</ele>
      </trkpt>
      <trkpt lat="44.31738" lon="3.87633">
        <ele>830</ele>
      </trkpt>
      <trkpt lat="44.31739" lon="3.87626">
        <ele>829.6</ele>
      </trkpt>
      <trkpt lat="44.3174" lon="3.87624">
        <ele>829.5</ele>
      </trkpt>
      <trkpt lat="44.3174" lon="3.87617">
        <ele>829.2</ele>
      </trkpt>
      <trkpt lat="44.31739" lon="3.87612">
        <ele>829</ele>
      </trkpt>
      <trkpt lat="44.31739" lon="3.87611">
        <ele>829</ele>
      </trkpt>
      <trkpt lat="44.31738" lon="3.8761">
        <ele>828.9</ele>
      </trkpt>
      <trkpt lat="44.31736" lon="3.87607">
        <ele>828.9</ele>
      </trkpt>
      <trkpt lat="44.31731" lon="3.87604">
        <ele>829</ele>
      </trkpt>
      <trkpt lat="44.31725" lon="3.876">
        <ele>829.2</ele>
      </trkpt>
      <trkpt lat="44.31718" lon="3.87597">
        <ele>829.5</ele>
      </trkpt>
      <trkpt lat="44.3171" lon="3.87594">
        <ele>829.9</ele>
      </trkpt>
      <trkpt lat="44.31704" lon="3.87592">
        <ele>830.1</ele>
      </trkpt>
      <trkpt lat="44.31685" lon="3.8758">
        <ele>837.411166</ele>
        <time>2019-10-06T21:46:20.019Z</time>
      </trkpt>
      <trkpt lat="44.31579" lon="3.87494">
        <ele>849.703996</ele>
        <time>2019-10-06T21:48:17.401Z</time>
      </trkpt>
      <trkpt lat="44.31563" lon="3.87478">
        <ele>851.568459</ele>
        <time>2019-10-06T21:48:31.419Z</time>
      </trkpt>
      <trkpt lat="44.31547" lon="3.87443">
        <ele>854.189007</ele>
        <time>2019-10-06T21:48:50.399Z</time>
      </trkpt>
      <trkpt lat="44.31525" lon="3.87416">
        <ele>856.84879</ele>
        <time>2019-10-06T21:49:09.439Z</time>
      </trkpt>
      <trkpt lat="44.31492" lon="3.87397">
        <ele>858.208075</ele>
        <time>2019-10-06T21:49:31.424Z</time>
      </trkpt>
      <trkpt lat="44.31482" lon="3.87362">
        <ele>859.141737</ele>
        <time>2019-10-06T21:49:46.792Z</time>
      </trkpt>
      <trkpt lat="44.3147" lon="3.87344">
        <ele>859.750237</ele>
        <time>2019-10-06T21:49:55.884Z</time>
      </trkpt>
      <trkpt lat="44.31466" lon="3.87339">
        <ele>859.960338</ele>
        <time>2019-10-06T21:49:59.448Z</time>
      </trkpt>
      <trkpt lat="44.31452" lon="3.87342">
        <ele>860.460282</ele>
        <time>2019-10-06T21:50:08.247Z</time>
      </trkpt>
      <trkpt lat="44.31446" lon="3.87323">
        <ele>860.972443</ele>
        <time>2019-10-06T21:50:15.441Z</time>
      </trkpt>
      <trkpt lat="44.31424" lon="3.87307">
        <ele>861.844261</ele>
        <time>2019-10-06T21:50:29.261Z</time>
      </trkpt>
      <trkpt lat="44.31452" lon="3.87281">
        <ele>863.018792</ele>
        <time>2019-10-06T21:50:45.251Z</time>
      </trkpt>
      <trkpt lat="44.31455" lon="3.87208">
        <ele>862.995327</ele>
        <time>2019-10-06T21:51:07.502Z</time>
      </trkpt>
      <trkpt lat="44.31435" lon="3.87192">
        <ele>862.832162</ele>
        <time>2019-10-06T21:51:17.400Z</time>
      </trkpt>
      <trkpt lat="44.31454" lon="3.87166">
        <ele>862.644983</ele>
        <time>2019-10-06T21:51:26.713Z</time>
      </trkpt>
      <trkpt lat="44.31446" lon="3.87098">
        <ele>862.285475</ele>
        <time>2019-10-06T21:51:43.370Z</time>
      </trkpt>
      <trkpt lat="44.31435" lon="3.8708">
        <ele>862.162596</ele>
        <time>2019-10-06T21:51:48.686Z</time>
      </trkpt>
      <trkpt lat="44.31444" lon="3.87041">
        <ele>861.664886</ele>
        <time>2019-10-06T21:51:57.600Z</time>
      </trkpt>
      <trkpt lat="44.31438" lon="3.87026">
        <ele>861.120537</ele>
        <time>2019-10-06T21:52:01.325Z</time>
      </trkpt>
      <trkpt lat="44.31419" lon="3.87007">
        <ele>860.074921</ele>
        <time>2019-10-06T21:52:08.228Z</time>
      </trkpt>
      <trkpt lat="44.31447" lon="3.86986">
        <ele>858.667059</ele>
        <time>2019-10-06T21:52:17.159Z</time>
      </trkpt>
      <trkpt lat="44.31466" lon="3.86963">
        <ele>857.549866</ele>
        <time>2019-10-06T21:52:24.135Z</time>
      </trkpt>
      <trkpt lat="44.31505" lon="3.86965">
        <ele>855.779418</ele>
        <time>2019-10-06T21:52:35.300Z</time>
      </trkpt>
      <trkpt lat="44.31611" lon="3.86957">
        <ele>855.140443</ele>
        <time>2019-10-06T21:53:07.842Z</time>
      </trkpt>
      <trkpt lat="44.31642" lon="3.86935">
        <ele>855.741207</ele>
        <time>2019-10-06T21:53:23.010Z</time>
      </trkpt>
      <trkpt lat="44.31702" lon="3.86866">
        <ele>857.072236</ele>
        <time>2019-10-06T21:54:11.075Z</time>
      </trkpt>
      <trkpt lat="44.31741" lon="3.86797">
        <ele>863.358345</ele>
        <time>2019-10-06T21:55:03.995Z</time>
      </trkpt>
      <trkpt lat="44.3184" lon="3.86659">
        <ele>877.352941</ele>
        <time>2019-10-06T21:57:15.961Z</time>
      </trkpt>
      <trkpt lat="44.31843" lon="3.86635">
        <ele>879.022289</ele>
        <time>2019-10-06T21:57:32.044Z</time>
      </trkpt>
      <trkpt lat="44.31808" lon="3.86578">
        <ele>884.220939</ele>
        <time>2019-10-06T21:58:20.984Z</time>
      </trkpt>
      <trkpt lat="44.3178" lon="3.86543">
        <ele>887.906602</ele>
        <time>2019-10-06T21:58:53.418Z</time>
      </trkpt>
      <trkpt lat="44.31772" lon="3.86522">
        <ele>889.550982</ele>
        <time>2019-10-06T21:59:07.191Z</time>
      </trkpt>
      <trkpt lat="44.3172" lon="3.86463">
        <ele>894.372823</ele>
        <time>2019-10-06T21:59:55.938Z</time>
      </trkpt>
      <trkpt lat="44.31681" lon="3.86427">
        <ele>896.688884</ele>
        <time>2019-10-06T22:00:26.198Z</time>
      </trkpt>
      <trkpt lat="44.31666" lon="3.86402">
        <ele>897.847822</ele>
        <time>2019-10-06T22:00:40.208Z</time>
      </trkpt>
      <trkpt lat="44.31666" lon="3.86402">
        <ele>897.847822</ele>
        <time>2019-10-06T22:00:40.249Z</time>
      </trkpt>
      <trkpt lat="44.31652" lon="3.86359">
        <ele>899.486581</ele>
        <time>2019-10-06T22:00:59.026Z</time>
      </trkpt>
      <trkpt lat="44.31618" lon="3.862">
        <ele>903.926004</ele>
        <time>2019-10-06T22:02:00.405Z</time>
      </trkpt>
      <trkpt lat="44.31577" lon="3.86171">
        <ele>905.337487</ele>
        <time>2019-10-06T22:02:23.877Z</time>
      </trkpt>
      <trkpt lat="44.31531" lon="3.86163">
        <ele>906.741184</ele>
        <time>2019-10-06T22:02:48.299Z</time>
      </trkpt>
      <trkpt lat="44.31496" lon="3.86168">
        <ele>907.717776</ele>
        <time>2019-10-06T22:03:07.766Z</time>
      </trkpt>
      <trkpt lat="44.31445" lon="3.862">
        <ele>909.180053</ele>
        <time>2019-10-06T22:03:38.554Z</time>
      </trkpt>
      <trkpt lat="44.31431" lon="3.86197">
        <ele>909.553508</ele>
        <time>2019-10-06T22:03:45.702Z</time>
      </trkpt>
      <trkpt lat="44.31418" lon="3.86171">
        <ele>910.14719</ele>
        <time>2019-10-06T22:03:57.547Z</time>
      </trkpt>
      <trkpt lat="44.31399" lon="3.86153">
        <ele>910.758363</ele>
        <time>2019-10-06T22:04:08.713Z</time>
      </trkpt>
      <trkpt lat="44.31354" lon="3.86143">
        <ele>911.785335</ele>
        <time>2019-10-06T22:04:29.558Z</time>
      </trkpt>
      <trkpt lat="44.31363" lon="3.86113">
        <ele>911.805954</ele>
        <time>2019-10-06T22:04:38.817Z</time>
      </trkpt>
      <trkpt lat="44.31363" lon="3.86097">
        <ele>911.815968</ele>
        <time>2019-10-06T22:04:43.788Z</time>
      </trkpt>
      <trkpt lat="44.31341" lon="3.86003">
        <ele>911.877266</ele>
        <time>2019-10-06T22:05:09.844Z</time>
      </trkpt>
      <trkpt lat="44.31351" lon="3.85969">
        <ele>911.899898</ele>
        <time>2019-10-06T22:05:18.921Z</time>
      </trkpt>
      <trkpt lat="44.31357" lon="3.85922">
        <ele>911.929727</ele>
        <time>2019-10-06T22:05:30.788Z</time>
      </trkpt>
      <trkpt lat="44.31354" lon="3.85895">
        <ele>912.143107</ele>
        <time>2019-10-06T22:05:37.752Z</time>
      </trkpt>
      <trkpt lat="44.3132" lon="3.85787">
        <ele>913.568821</ele>
        <time>2019-10-06T22:06:09.137Z</time>
      </trkpt>
      <trkpt lat="44.31315" lon="3.85764">
        <ele>913.863369</ele>
        <time>2019-10-06T22:06:17.161Z</time>
      </trkpt>
      <trkpt lat="44.31318" lon="3.85742">
        <ele>914.13735</ele>
        <time>2019-10-06T22:06:24.877Z</time>
      </trkpt>
      <trkpt lat="44.31313" lon="3.85723">
        <ele>914.378815</ele>
        <time>2019-10-06T22:06:32.160Z</time>
      </trkpt>
      <trkpt lat="44.31283" lon="3.85664">
        <ele>916.624654</ele>
        <time>2019-10-06T22:07:03.237Z</time>
      </trkpt>
      <trkpt lat="44.31294" lon="3.85662">
        <ele>917.751464</ele>
        <time>2019-10-06T22:07:10.632Z</time>
      </trkpt>
      <trkpt lat="44.31364" lon="3.85593">
        <ele>926.162905</ele>
        <time>2019-10-06T22:08:18.641Z</time>
      </trkpt>
      <trkpt lat="44.31376" lon="3.85568">
        <ele>928.278947</ele>
        <time>2019-10-06T22:08:39.865Z</time>
      </trkpt>
      <trkpt lat="44.31366" lon="3.85534">
        <ele>930.883268</ele>
        <time>2019-10-06T22:09:07.762Z</time>
      </trkpt>
      <trkpt lat="44.31317" lon="3.85475">
        <ele>940.53555</ele>
        <time>2019-10-06T22:10:22.964Z</time>
      </trkpt>
      <trkpt lat="44.31273" lon="3.85409">
        <ele>951.429824</ele>
        <time>2019-10-06T22:11:45.019Z</time>
      </trkpt>
      <trkpt lat="44.31205" lon="3.85264">
        <ele>970.653073</ele>
        <time>2019-10-06T22:14:21.411Z</time>
      </trkpt>
      <trkpt lat="44.31195" lon="3.85229">
        <ele>974.335491</ele>
        <time>2019-10-06T22:14:51.752Z</time>
      </trkpt>
      <trkpt lat="44.31207" lon="3.85169">
        <ele>980.434611</ele>
        <time>2019-10-06T22:15:37.803Z</time>
      </trkpt>
      <trkpt lat="44.31204" lon="3.8515">
        <ele>982.318626</ele>
        <time>2019-10-06T22:15:51.072Z</time>
      </trkpt>
      <trkpt lat="44.31213" lon="3.85106">
        <ele>986.759694</ele>
        <time>2019-10-06T22:16:20.144Z</time>
      </trkpt>
      <trkpt lat="44.31217" lon="3.85002">
        <ele>991.103564</ele>
        <time>2019-10-06T22:17:16.373Z</time>
      </trkpt>
      <trkpt lat="44.31215" lon="3.8496">
        <ele>992.624092</ele>
        <time>2019-10-06T22:17:34.471Z</time>
      </trkpt>
      <trkpt lat="44.31238" lon="3.8482">
        <ele>997.140319</ele>
        <time>2019-10-06T22:18:24.775Z</time>
      </trkpt>
      <trkpt lat="44.31229" lon="3.84791">
        <ele>997.581172</ele>
        <time>2019-10-06T22:18:35.173Z</time>
      </trkpt>
      <trkpt lat="44.31228" lon="3.84792">
        <ele>993.3</ele>
      </trkpt>
      <trkpt lat="44.31228" lon="3.84791">
        <ele>993.3</ele>
      </trkpt>
      <trkpt lat="44.31228" lon="3.84791">
        <ele>993.3</ele>
      </trkpt>
      <trkpt lat="44.31226" lon="3.84788">
        <ele>993.5</ele>
      </trkpt>
      <trkpt lat="44.31224" lon="3.84783">
        <ele>993.6</ele>
      </trkpt>
      <trkpt lat="44.31221" lon="3.84778">
        <ele>993.7</ele>
      </trkpt>
      <trkpt lat="44.31219" lon="3.84772">
        <ele>993.7</ele>
      </trkpt>
      <trkpt lat="44.31217" lon="3.84766">
        <ele>993.6</ele>
      </trkpt>
      <trkpt lat="44.31208" lon="3.84755">
        <ele>993.1</ele>
      </trkpt>
      <trkpt lat="44.31222" lon="3.8473">
        <ele>992.3</ele>
      </trkpt>
      <trkpt lat="44.31238" lon="3.84701">
        <ele>993</ele>
      </trkpt>
      <trkpt lat="44.31267" lon="3.84653">
        <ele>994.8</ele>
      </trkpt>
      <trkpt lat="44.31289" lon="3.84617">
        <ele>994.6</ele>
      </trkpt>
      <trkpt lat="44.31308" lon="3.84587">
        <ele>997.6</ele>
      </trkpt>
      <trkpt lat="44.31323" lon="3.84563">
        <ele>999.7</ele>
      </trkpt>
      <trkpt lat="44.31338" lon="3.84538">
        <ele>1001.4</ele>
      </trkpt>
      <trkpt lat="44.31349" lon="3.84519">
        <ele>1001.9</ele>
      </trkpt>
      <trkpt lat="44.31356" lon="3.84505">
        <ele>1002.3</ele>
      </trkpt>
      <trkpt lat="44.31365" lon="3.8449">
        <ele>1002.4</ele>
      </trkpt>
      <trkpt lat="44.31372" lon="3.8448">
        <ele>1002.2</ele>
      </trkpt>
      <trkpt lat="44.31376" lon="3.84474">
        <ele>1002.3</ele>
      </trkpt>
      <trkpt lat="44.31379" lon="3.8447">
        <ele>1002.4</ele>
      </trkpt>
      <trkpt lat="44.31385" lon="3.84464">
        <ele>1002.7</ele>
      </trkpt>
      <trkpt lat="44.31389" lon="3.84457">
        <ele>1002.9</ele>
      </trkpt>
      <trkpt lat="44.31395" lon="3.84448">
        <ele>1003</ele>
      </trkpt>
      <trkpt lat="44.31405" lon="3.84429">
        <ele>1002.9</ele>
      </trkpt>
      <trkpt lat="44.31417" lon="3.84412">
        <ele>1003</ele>
      </trkpt>
      <trkpt lat="44.31428" lon="3.84394">
        <ele>1000.5</ele>
      </trkpt>
      <trkpt lat="44.31439" lon="3.84381">
        <ele>999.1</ele>
      </trkpt>
      <trkpt lat="44.31452" lon="3.84367">
        <ele>998.2</ele>
      </trkpt>
      <trkpt lat="44.31459" lon="3.84357">
        <ele>997.7</ele>
      </trkpt>
      <trkpt lat="44.31462" lon="3.84353">
        <ele>997.6</ele>
      </trkpt>
      <trkpt lat="44.31466" lon="3.84346">
        <ele>997.4</ele>
      </trkpt>
      <trkpt lat="44.31474" lon="3.84332">
        <ele>997.1</ele>
      </trkpt>
      <trkpt lat="44.31481" lon="3.84322">
        <ele>997.7</ele>
      </trkpt>
      <trkpt lat="44.31487" lon="3.84311">
        <ele>998.1</ele>
      </trkpt>
      <trkpt lat="44.31493" lon="3.84304">
        <ele>998.8</ele>
      </trkpt>
      <trkpt lat="44.31501" lon="3.84295">
        <ele>999.6</ele>
      </trkpt>
      <trkpt lat="44.3151" lon="3.84287">
        <ele>999.3</ele>
      </trkpt>
      <trkpt lat="44.31518" lon="3.84277">
        <ele>999.2</ele>
      </trkpt>
      <trkpt lat="44.31523" lon="3.84271">
        <ele>999.3</ele>
      </trkpt>
      <trkpt lat="44.31527" lon="3.84264">
        <ele>999.5</ele>
      </trkpt>
      <trkpt lat="44.3153" lon="3.84258">
        <ele>999.7</ele>
      </trkpt>
      <trkpt lat="44.3153" lon="3.84257">
        <ele>999.7</ele>
      </trkpt>
      <trkpt lat="44.31531" lon="3.84252">
        <ele>999.8</ele>
      </trkpt>
      <trkpt lat="44.31536" lon="3.84226">
        <ele>1004.548726</ele>
        <time>2019-10-06T22:22:22.779Z</time>
      </trkpt>
      <trkpt lat="44.31593" lon="3.84054">
        <ele>1007.321473</ele>
        <time>2019-10-06T22:23:09.093Z</time>
      </trkpt>
      <trkpt lat="44.31596" lon="3.84044">
        <ele>1007.68792</ele>
        <time>2019-10-06T22:23:13.357Z</time>
      </trkpt>
      <trkpt lat="44.31624" lon="3.83938">
        <ele>1011.418806</ele>
        <time>2019-10-06T22:23:50.592Z</time>
      </trkpt>
      <trkpt lat="44.31659" lon="3.83836">
        <ele>1015.16418</ele>
        <time>2019-10-06T22:24:28.969Z</time>
      </trkpt>
      <trkpt lat="44.31665" lon="3.83789">
        <ele>1017.277478</ele>
        <time>2019-10-06T22:24:45.321Z</time>
      </trkpt>
      <trkpt lat="44.31675" lon="3.83706">
        <ele>1021.134212</ele>
        <time>2019-10-06T22:25:15.800Z</time>
      </trkpt>
      <trkpt lat="44.31697" lon="3.83613">
        <ele>1025.606225</ele>
        <time>2019-10-06T22:25:56.351Z</time>
      </trkpt>
      <trkpt lat="44.31738" lon="3.83513">
        <ele>1031.862204</ele>
        <time>2019-10-06T22:26:46.925Z</time>
      </trkpt>
      <trkpt lat="44.31761" lon="3.83477">
        <ele>1034.661996</ele>
        <time>2019-10-06T22:27:08.483Z</time>
      </trkpt>
      <trkpt lat="44.31766" lon="3.83467">
        <ele>1035.315626</ele>
        <time>2019-10-06T22:27:15.444Z</time>
      </trkpt>
      <trkpt lat="44.31768" lon="3.83459">
        <ele>1035.826837</ele>
        <time>2019-10-06T22:27:19.405Z</time>
      </trkpt>
      <trkpt lat="44.31766" lon="3.83437">
        <ele>1037.084859</ele>
        <time>2019-10-06T22:27:27.669Z</time>
      </trkpt>
      <trkpt lat="44.31742" lon="3.83353">
        <ele>1042.221885</ele>
        <time>2019-10-06T22:28:08.789Z</time>
      </trkpt>
      <trkpt lat="44.31741" lon="3.83324">
        <ele>1043.761267</ele>
        <time>2019-10-06T22:28:22.628Z</time>
      </trkpt>
      <trkpt lat="44.31757" lon="3.83271">
        <ele>1046.840302</ele>
        <time>2019-10-06T22:28:49.220Z</time>
      </trkpt>
      <trkpt lat="44.31776" lon="3.8324">
        <ele>1049.066449</ele>
        <time>2019-10-06T22:29:06.210Z</time>
      </trkpt>
      <trkpt lat="44.31785" lon="3.83213">
        <ele>1050.610376</ele>
        <time>2019-10-06T22:29:17.791Z</time>
      </trkpt>
      <trkpt lat="44.31778" lon="3.83039">
        <ele>1059.424376</ele>
        <time>2019-10-06T22:30:28.120Z</time>
      </trkpt>
      <trkpt lat="44.31788" lon="3.82958">
        <ele>1063.385178</ele>
        <time>2019-10-06T22:30:55.317Z</time>
      </trkpt>
      <trkpt lat="44.31805" lon="3.82916">
        <ele>1065.706392</ele>
        <time>2019-10-06T22:31:15.706Z</time>
      </trkpt>
      <trkpt lat="44.31814" lon="3.82898">
        <ele>1066.749118</ele>
        <time>2019-10-06T22:31:30.570Z</time>
      </trkpt>
      <trkpt lat="44.31804" lon="3.82895">
        <ele>1067.681623</ele>
        <time>2019-10-06T22:31:34.507Z</time>
      </trkpt>
      <trkpt lat="44.31778" lon="3.82882">
        <ele>1070.54989</ele>
        <time>2019-10-06T22:31:59.533Z</time>
      </trkpt>
      <trkpt lat="44.31756" lon="3.8287">
        <ele>1072.924471</ele>
        <time>2019-10-06T22:32:12.502Z</time>
      </trkpt>
      <trkpt lat="44.31761" lon="3.82855">
        <ele>1074.134663</ele>
        <time>2019-10-06T22:32:28.079Z</time>
      </trkpt>
      <trkpt lat="44.3179" lon="3.82816">
        <ele>1078.243702</ele>
        <time>2019-10-06T22:33:01.078Z</time>
      </trkpt>
      <trkpt lat="44.31829" lon="3.82799">
        <ele>1082.443308</ele>
        <time>2019-10-06T22:33:37.204Z</time>
      </trkpt>
      <trkpt lat="44.31914" lon="3.82698">
        <ele>1097.143165</ele>
        <time>2019-10-06T22:35:36.195Z</time>
      </trkpt>
      <trkpt lat="44.3199" lon="3.82634">
        <ele>1109.803177</ele>
        <time>2019-10-06T22:37:15.502Z</time>
      </trkpt>
      <trkpt lat="44.32009" lon="3.82609">
        <ele>1113.433678</ele>
        <time>2019-10-06T22:37:44.632Z</time>
      </trkpt>
      <trkpt lat="44.32016" lon="3.82587">
        <ele>1115.787594</ele>
        <time>2019-10-06T22:38:03.738Z</time>
      </trkpt>
      <trkpt lat="44.32017" lon="3.82558">
        <ele>1118.748054</ele>
        <time>2019-10-06T22:38:27.718Z</time>
      </trkpt>
      <trkpt lat="44.32014" lon="3.82538">
        <ele>1120.819064</ele>
        <time>2019-10-06T22:38:44.216Z</time>
      </trkpt>
      <trkpt lat="44.31986" lon="3.8244">
        <ele>1131.385222</ele>
        <time>2019-10-06T22:40:05.238Z</time>
      </trkpt>
      <trkpt lat="44.3197" lon="3.82412">
        <ele>1134.953545</ele>
        <time>2019-10-06T22:40:30.990Z</time>
      </trkpt>
      <trkpt lat="44.31948" lon="3.82382">
        <ele>1138.392503</ele>
        <time>2019-10-06T22:41:01.230Z</time>
      </trkpt>
      <trkpt lat="44.31895" lon="3.82328">
        <ele>1145.044574</ele>
        <time>2019-10-06T22:42:04.712Z</time>
      </trkpt>
      <trkpt lat="44.31817" lon="3.82259">
        <ele>1154.395542</ele>
        <time>2019-10-06T22:43:19.281Z</time>
      </trkpt>
      <trkpt lat="44.31817" lon="3.82259">
        <ele>1154.395542</ele>
        <time>2019-10-06T22:43:19.937Z</time>
      </trkpt>
      <trkpt lat="44.31743" lon="3.82109">
        <ele>1160.700944</ele>
        <time>2019-10-06T22:44:43.580Z</time>
      </trkpt>
      <trkpt lat="44.3171" lon="3.8206">
        <ele>1163.021276</ele>
        <time>2019-10-06T22:45:07.892Z</time>
      </trkpt>
      <trkpt lat="44.31691" lon="3.82052">
        <ele>1163.161411</ele>
        <time>2019-10-06T22:45:15.760Z</time>
      </trkpt>
      <trkpt lat="44.31689" lon="3.82065">
        <ele>1163.22959</ele>
        <time>2019-10-06T22:45:19.510Z</time>
      </trkpt>
      <trkpt lat="44.31708" lon="3.8213">
        <ele>1163.588668</ele>
        <time>2019-10-06T22:45:37.008Z</time>
      </trkpt>
      <trkpt lat="44.31713" lon="3.82169">
        <ele>1163.793393</ele>
        <time>2019-10-06T22:45:47.226Z</time>
      </trkpt>
      <trkpt lat="44.31719" lon="3.82316">
        <ele>1166.030261</ele>
        <time>2019-10-06T22:46:31.364Z</time>
      </trkpt>
      <trkpt lat="44.31714" lon="3.82318">
        <ele>1166.284154</ele>
        <time>2019-10-06T22:46:32.672Z</time>
      </trkpt>
      <trkpt lat="44.3171" lon="3.82313">
        <ele>1166.562763</ele>
        <time>2019-10-06T22:46:37.229Z</time>
      </trkpt>
      <trkpt lat="44.31653" lon="3.82201">
        <ele>1171.610586</ele>
        <time>2019-10-06T22:47:39.511Z</time>
      </trkpt>
      <trkpt lat="44.31628" lon="3.82123">
        <ele>1175.936284</ele>
        <time>2019-10-06T22:48:30.571Z</time>
      </trkpt>
      <trkpt lat="44.31583" lon="3.8204">
        <ele>1183.437811</ele>
        <time>2019-10-06T22:49:38.870Z</time>
      </trkpt>
      <trkpt lat="44.31573" lon="3.8201">
        <ele>1185.847228</ele>
        <time>2019-10-06T22:50:00.856Z</time>
      </trkpt>
      <trkpt lat="44.31567" lon="3.8196">
        <ele>1189.502803</ele>
        <time>2019-10-06T22:50:33.642Z</time>
      </trkpt>
      <trkpt lat="44.31577" lon="3.81912">
        <ele>1193.117615</ele>
        <time>2019-10-06T22:51:05.086Z</time>
      </trkpt>
      <trkpt lat="44.316" lon="3.81843">
        <ele>1198.516835</ele>
        <time>2019-10-06T22:51:49.431Z</time>
      </trkpt>
      <trkpt lat="44.31661" lon="3.81795">
        <ele>1205.444153</ele>
        <time>2019-10-06T22:52:46.091Z</time>
      </trkpt>
      <trkpt lat="44.31695" lon="3.81759">
        <ele>1209.709369</ele>
        <time>2019-10-06T22:53:25.396Z</time>
      </trkpt>
      <trkpt lat="44.31715" lon="3.8173">
        <ele>1214.095798</ele>
        <time>2019-10-06T22:53:54.711Z</time>
      </trkpt>
      <trkpt lat="44.31739" lon="3.81673">
        <ele>1221.431827</ele>
        <time>2019-10-06T22:54:42.740Z</time>
      </trkpt>
      <trkpt lat="44.31738" lon="3.81665">
        <ele>1222.412371</ele>
        <time>2019-10-06T22:54:52.142Z</time>
      </trkpt>
      <trkpt lat="44.31661" lon="3.81652">
        <ele>1234.338397</ele>
        <time>2019-10-06T22:56:23.539Z</time>
      </trkpt>
      <trkpt lat="44.316" lon="3.81645">
        <ele>1245.771716</ele>
        <time>2019-10-06T22:57:48.858Z</time>
      </trkpt>
      <trkpt lat="44.31573" lon="3.81633">
        <ele>1251.538226</ele>
        <time>2019-10-06T22:58:31.035Z</time>
      </trkpt>
      <trkpt lat="44.31545" lon="3.81632">
        <ele>1257.184149</ele>
        <time>2019-10-06T22:59:08.431Z</time>
      </trkpt>
      <trkpt lat="44.31527" lon="3.81627">
        <ele>1260.796314</ele>
        <time>2019-10-06T22:59:35.158Z</time>
      </trkpt>
      <trkpt lat="44.31445" lon="3.81607">
        <ele>1277.277652</ele>
        <time>2019-10-06T23:01:30.417Z</time>
      </trkpt>
      <trkpt lat="44.31353" lon="3.81584">
        <ele>1294.556938</ele>
        <time>2019-10-06T23:03:41.830Z</time>
      </trkpt>
      <trkpt lat="44.31329" lon="3.81565">
        <ele>1299.584453</ele>
        <time>2019-10-06T23:04:14.322Z</time>
      </trkpt>
      <trkpt lat="44.31322" lon="3.81547">
        <ele>1302.280998</ele>
        <time>2019-10-06T23:04:33.660Z</time>
      </trkpt>
      <trkpt lat="44.3125" lon="3.81485">
        <ele>1311.95304</ele>
        <time>2019-10-06T23:06:02.847Z</time>
      </trkpt>
      <trkpt lat="44.3119" lon="3.81453">
        <ele>1317.545067</ele>
        <time>2019-10-06T23:06:59.186Z</time>
      </trkpt>
      <trkpt lat="44.3119" lon="3.81453">
        <ele>1317.545067</ele>
        <time>2019-10-06T23:06:59.362Z</time>
      </trkpt>
      <trkpt lat="44.31218" lon="3.81412">
        <ele>1321.079367</ele>
        <time>2019-10-06T23:07:20.455Z</time>
      </trkpt>
      <trkpt lat="44.31237" lon="3.81395">
        <ele>1321.917921</ele>
        <time>2019-10-06T23:07:29.642Z</time>
      </trkpt>
      <trkpt lat="44.31274" lon="3.81324">
        <ele>1318.710677</ele>
        <time>2019-10-06T23:07:50.270Z</time>
      </trkpt>
      <trkpt lat="44.31299" lon="3.81292">
        <ele>1316.967196</ele>
        <time>2019-10-06T23:08:00.012Z</time>
      </trkpt>
      <trkpt lat="44.31318" lon="3.81239">
        <ele>1314.82144</ele>
        <time>2019-10-06T23:08:11.196Z</time>
      </trkpt>
      <trkpt lat="44.31362" lon="3.81182">
        <ele>1309.95501</ele>
        <time>2019-10-06T23:08:26.495Z</time>
      </trkpt>
      <trkpt lat="44.31398" lon="3.81117">
        <ele>1303.059883</ele>
        <time>2019-10-06T23:08:41.197Z</time>
      </trkpt>
      <trkpt lat="44.31427" lon="3.81106">
        <ele>1299.543042</ele>
        <time>2019-10-06T23:08:48.645Z</time>
      </trkpt>
      <trkpt lat="44.31455" lon="3.81086">
        <ele>1295.846626</ele>
        <time>2019-10-06T23:08:56.514Z</time>
      </trkpt>
      <trkpt lat="44.31496" lon="3.81047">
        <ele>1290.550528</ele>
        <time>2019-10-06T23:09:08.970Z</time>
      </trkpt>
      <trkpt lat="44.31528" lon="3.81004">
        <ele>1286.692647</ele>
        <time>2019-10-06T23:09:20.104Z</time>
      </trkpt>
      <trkpt lat="44.31559" lon="3.80931">
        <ele>1281.318408</ele>
        <time>2019-10-06T23:09:36.118Z</time>
      </trkpt>
      <trkpt lat="44.31564" lon="3.8091">
        <ele>1279.946176</ele>
        <time>2019-10-06T23:09:40.355Z</time>
      </trkpt>
      <trkpt lat="44.31615" lon="3.8085">
        <ele>1274.686843</ele>
        <time>2019-10-06T23:09:59.162Z</time>
      </trkpt>
      <trkpt lat="44.31636" lon="3.80825">
        <ele>1272.988401</ele>
        <time>2019-10-06T23:10:07.043Z</time>
      </trkpt>
      <trkpt lat="44.31652" lon="3.8081">
        <ele>1271.847085</ele>
        <time>2019-10-06T23:10:12.387Z</time>
      </trkpt>
      <trkpt lat="44.31707" lon="3.80737">
        <ele>1267.156293</ele>
        <time>2019-10-06T23:10:33.890Z</time>
      </trkpt>
      <trkpt lat="44.31715" lon="3.80717">
        <ele>1266.113262</ele>
        <time>2019-10-06T23:10:38.535Z</time>
      </trkpt>
      <trkpt lat="44.31737" lon="3.80616">
        <ele>1260.148197</ele>
        <time>2019-10-06T23:10:58.910Z</time>
      </trkpt>
      <trkpt lat="44.31725" lon="3.80471">
        <ele>1251.44381</ele>
        <time>2019-10-06T23:11:26.132Z</time>
      </trkpt>
      <trkpt lat="44.31693" lon="3.80377">
        <ele>1247.339197</ele>
        <time>2019-10-06T23:11:45.973Z</time>
      </trkpt>
      <trkpt lat="44.31692" lon="3.80277">
        <ele>1243.933436</ele>
        <time>2019-10-06T23:12:06.558Z</time>
      </trkpt>
      <trkpt lat="44.31696" lon="3.80251">
        <ele>1243.033425</ele>
        <time>2019-10-06T23:12:12.687Z</time>
      </trkpt>
      <trkpt lat="44.3171" lon="3.80219">
        <ele>1241.775169</ele>
        <time>2019-10-06T23:12:21.750Z</time>
      </trkpt>
      <trkpt lat="44.31722" lon="3.80169">
        <ele>1242.856709</ele>
        <time>2019-10-06T23:12:38.670Z</time>
      </trkpt>
      <trkpt lat="44.31752" lon="3.8009">
        <ele>1245.188633</ele>
        <time>2019-10-06T23:13:14.426Z</time>
      </trkpt>
      <trkpt lat="44.31784" lon="3.8005">
        <ele>1246.743235</ele>
        <time>2019-10-06T23:13:42.407Z</time>
      </trkpt>
      <trkpt lat="44.3181" lon="3.80004">
        <ele>1248.221956</ele>
        <time>2019-10-06T23:14:10.624Z</time>
      </trkpt>
      <trkpt lat="44.31853" lon="3.79947">
        <ele>1249.804494</ele>
        <time>2019-10-06T23:14:48.031Z</time>
      </trkpt>
      <trkpt lat="44.31896" lon="3.79902">
        <ele>1251.243466</ele>
        <time>2019-10-06T23:15:18.555Z</time>
      </trkpt>
      <trkpt lat="44.31901" lon="3.79883">
        <ele>1251.644812</ele>
        <time>2019-10-06T23:15:26.163Z</time>
      </trkpt>
      <trkpt lat="44.31854" lon="3.79606">
        <ele>1250.109042</ele>
        <time>2019-10-06T23:16:33.040Z</time>
      </trkpt>
      <trkpt lat="44.31845" lon="3.79573">
        <ele>1249.6475</ele>
        <time>2019-10-06T23:16:40.917Z</time>
      </trkpt>
      <trkpt lat="44.31813" lon="3.79504">
        <ele>1249.936504</ele>
        <time>2019-10-06T23:16:59.534Z</time>
      </trkpt>
      <trkpt lat="44.31727" lon="3.79149">
        <ele>1255.05989</ele>
        <time>2019-10-06T23:19:06.182Z</time>
      </trkpt>
      <trkpt lat="44.3173" lon="3.7909">
        <ele>1256.722003</ele>
        <time>2019-10-06T23:19:34.517Z</time>
      </trkpt>
      <trkpt lat="44.31755" lon="3.78941">
        <ele>1264.597253</ele>
        <time>2019-10-06T23:20:56.000Z</time>
      </trkpt>
      <trkpt lat="44.31786" lon="3.7886">
        <ele>1269.401736</ele>
        <time>2019-10-06T23:21:46.423Z</time>
      </trkpt>
      <trkpt lat="44.31786" lon="3.7886">
        <ele>1274.8</ele>
      </trkpt>
      <trkpt lat="44.31786" lon="3.7886">
        <ele>1274.8</ele>
      </trkpt>
      <trkpt lat="44.31793" lon="3.78841">
        <ele>1274.7</ele>
      </trkpt>
      <trkpt lat="44.31797" lon="3.78822">
        <ele>1274.8</ele>
      </trkpt>
      <trkpt lat="44.31799" lon="3.78809">
        <ele>1274.9</ele>
      </trkpt>
      <trkpt lat="44.31799" lon="3.788">
        <ele>1274.9</ele>
      </trkpt>
      <trkpt lat="44.31795" lon="3.78792">
        <ele>1274.8</ele>
      </trkpt>
      <trkpt lat="44.31792" lon="3.78785">
        <ele>1274.8</ele>
      </trkpt>
      <trkpt lat="44.31784" lon="3.78772">
        <ele>1274.6</ele>
      </trkpt>
      <trkpt lat="44.3177" lon="3.78746">
        <ele>1274.6</ele>
      </trkpt>
      <trkpt lat="44.31755" lon="3.78718">
        <ele>1275.6</ele>
      </trkpt>
      <trkpt lat="44.31742" lon="3.78694">
        <ele>1275.4</ele>
      </trkpt>
      <trkpt lat="44.31728" lon="3.78667">
        <ele>1274.5</ele>
      </trkpt>
      <trkpt lat="44.31715" lon="3.78645">
        <ele>1274.8</ele>
      </trkpt>
      <trkpt lat="44.31706" lon="3.7863">
        <ele>1274.9</ele>
      </trkpt>
      <trkpt lat="44.31701" lon="3.78625">
        <ele>1274.7</ele>
      </trkpt>
      <trkpt lat="44.31696" lon="3.78618">
        <ele>1274.6</ele>
      </trkpt>
      <trkpt lat="44.31688" lon="3.7861">
        <ele>1274.2</ele>
      </trkpt>
      <trkpt lat="44.31673" lon="3.78595">
        <ele>1273.7</ele>
      </trkpt>
      <trkpt lat="44.31657" lon="3.78581">
        <ele>1272.6</ele>
      </trkpt>
      <trkpt lat="44.31648" lon="3.78571">
        <ele>1272.4</ele>
      </trkpt>
      <trkpt lat="44.3164" lon="3.78564">
        <ele>1272</ele>
      </trkpt>
      <trkpt lat="44.31636" lon="3.78563">
        <ele>1271.5</ele>
      </trkpt>
      <trkpt lat="44.31629" lon="3.78561">
        <ele>1270.7</ele>
      </trkpt>
      <trkpt lat="44.31613" lon="3.78549">
        <ele>1269.6</ele>
      </trkpt>
      <trkpt lat="44.316" lon="3.78539">
        <ele>1268.8</ele>
      </trkpt>
      <trkpt lat="44.31586" lon="3.78526">
        <ele>1268.5</ele>
      </trkpt>
      <trkpt lat="44.31575" lon="3.78514">
        <ele>1268</ele>
      </trkpt>
      <trkpt lat="44.31565" lon="3.78507">
        <ele>1267.3</ele>
      </trkpt>
      <trkpt lat="44.31553" lon="3.78492">
        <ele>1266.5</ele>
      </trkpt>
      <trkpt lat="44.31545" lon="3.78476">
        <ele>1266</ele>
      </trkpt>
      <trkpt lat="44.31539" lon="3.78462">
        <ele>1265.9</ele>
      </trkpt>
      <trkpt lat="44.31534" lon="3.78445">
        <ele>1266.2</ele>
      </trkpt>
      <trkpt lat="44.31529" lon="3.78426">
        <ele>1266.7</ele>
      </trkpt>
      <trkpt lat="44.31526" lon="3.78404">
        <ele>1268.6</ele>
      </trkpt>
      <trkpt lat="44.31523" lon="3.78384">
        <ele>1270.6</ele>
      </trkpt>
      <trkpt lat="44.31521" lon="3.78377">
        <ele>1271</ele>
      </trkpt>
      <trkpt lat="44.31517" lon="3.78374">
        <ele>1270.7</ele>
      </trkpt>
      <trkpt lat="44.31515" lon="3.78374">
        <ele>1270.3</ele>
      </trkpt>
      <trkpt lat="44.31512" lon="3.78374">
        <ele>1269.7</ele>
      </trkpt>
      <trkpt lat="44.31509" lon="3.78377">
        <ele>1268.8</ele>
      </trkpt>
      <trkpt lat="44.31507" lon="3.7838">
        <ele>1268.1</ele>
      </trkpt>
      <trkpt lat="44.31504" lon="3.78383">
        <ele>1267.2</ele>
      </trkpt>
      <trkpt lat="44.31501" lon="3.78385">
        <ele>1266.4</ele>
      </trkpt>
      <trkpt lat="44.31498" lon="3.78387">
        <ele>1265.6</ele>
      </trkpt>
      <trkpt lat="44.31493" lon="3.78388">
        <ele>1264.8</ele>
      </trkpt>
      <trkpt lat="44.31487" lon="3.78388">
        <ele>1263.9</ele>
      </trkpt>
      <trkpt lat="44.3148" lon="3.78386">
        <ele>1262.9</ele>
      </trkpt>
      <trkpt lat="44.3147" lon="3.78382">
        <ele>1261.8</ele>
      </trkpt>
      <trkpt lat="44.31457" lon="3.78376">
        <ele>1260.4</ele>
      </trkpt>
      <trkpt lat="44.31446" lon="3.78366">
        <ele>1259.8</ele>
      </trkpt>
      <trkpt lat="44.31435" lon="3.78357">
        <ele>1258.9</ele>
      </trkpt>
      <trkpt lat="44.31425" lon="3.78344">
        <ele>1258.4</ele>
      </trkpt>
      <trkpt lat="44.31416" lon="3.78327">
        <ele>1258.5</ele>
      </trkpt>
      <trkpt lat="44.3141" lon="3.78311">
        <ele>1258.8</ele>
      </trkpt>
      <trkpt lat="44.31407" lon="3.78296">
        <ele>1259.6</ele>
      </trkpt>
      <trkpt lat="44.31405" lon="3.78278">
        <ele>1260.8</ele>
      </trkpt>
      <trkpt lat="44.31399" lon="3.78264">
        <ele>1260.6</ele>
      </trkpt>
      <trkpt lat="44.31395" lon="3.78251">
        <ele>1260.9</ele>
      </trkpt>
      <trkpt lat="44.31388" lon="3.78237">
        <ele>1261.3</ele>
      </trkpt>
      <trkpt lat="44.31388" lon="3.78237">
        <ele>1261.3</ele>
      </trkpt>
      <trkpt lat="44.31384" lon="3.78231">
        <ele>1261.6</ele>
      </trkpt>
      <trkpt lat="44.31371" lon="3.78208">
        <ele>1262.6</ele>
      </trkpt>
      <trkpt lat="44.31368" lon="3.78202">
        <ele>1262.9</ele>
      </trkpt>
      <trkpt lat="44.31358" lon="3.78187">
        <ele>1263.5</ele>
      </trkpt>
      <trkpt lat="44.31353" lon="3.78182">
        <ele>1263.4</ele>
      </trkpt>
      <trkpt lat="44.31342" lon="3.78171">
        <ele>1263.2</ele>
      </trkpt>
      <trkpt lat="44.31331" lon="3.78158">
        <ele>1261.7</ele>
      </trkpt>
      <trkpt lat="44.31312" lon="3.78139">
        <ele>1258.5</ele>
      </trkpt>
      <trkpt lat="44.31295" lon="3.78119">
        <ele>1256.3</ele>
      </trkpt>
      <trkpt lat="44.3129" lon="3.7811">
        <ele>1256</ele>
      </trkpt>
      <trkpt lat="44.31287" lon="3.78102">
        <ele>1256.3</ele>
      </trkpt>
      <trkpt lat="44.31287" lon="3.78097">
        <ele>1256.7</ele>
      </trkpt>
      <trkpt lat="44.31289" lon="3.78087">
        <ele>1257.8</ele>
      </trkpt>
      <trkpt lat="44.31292" lon="3.7808">
        <ele>1258</ele>
      </trkpt>
      <trkpt lat="44.31295" lon="3.78077">
        <ele>1258</ele>
      </trkpt>
      <trkpt lat="44.31301" lon="3.78072">
        <ele>1258.3</ele>
      </trkpt>
      <trkpt lat="44.31307" lon="3.78067">
        <ele>1258.6</ele>
      </trkpt>
      <trkpt lat="44.3132" lon="3.7806">
        <ele>1259.9</ele>
      </trkpt>
      <trkpt lat="44.31344" lon="3.78049">
        <ele>1263.1</ele>
      </trkpt>
      <trkpt lat="44.31365" lon="3.78036">
        <ele>1266.3</ele>
      </trkpt>
      <trkpt lat="44.3139" lon="3.78022">
        <ele>1269.9</ele>
      </trkpt>
      <trkpt lat="44.31409" lon="3.78007">
        <ele>1272.3</ele>
      </trkpt>
      <trkpt lat="44.31428" lon="3.77989">
        <ele>1273.7</ele>
      </trkpt>
      <trkpt lat="44.31434" lon="3.7798">
        <ele>1273.8</ele>
      </trkpt>
      <trkpt lat="44.31438" lon="3.77975">
        <ele>1274</ele>
      </trkpt>
      <trkpt lat="44.31448" lon="3.7796">
        <ele>1274.5</ele>
      </trkpt>
      <trkpt lat="44.31462" lon="3.77946">
        <ele>1276.4</ele>
      </trkpt>
      <trkpt lat="44.31469" lon="3.77934">
        <ele>1276.7</ele>
      </trkpt>
      <trkpt lat="44.31476" lon="3.77919">
        <ele>1276.8</ele>
      </trkpt>
      <trkpt lat="44.31479" lon="3.77911">
        <ele>1276.7</ele>
      </trkpt>
      <trkpt lat="44.31481" lon="3.77899">
        <ele>1276</ele>
      </trkpt>
      <trkpt lat="44.31481" lon="3.77888">
        <ele>1274.8</ele>
      </trkpt>
      <trkpt lat="44.31482" lon="3.77874">
        <ele>1273.3</ele>
      </trkpt>
      <trkpt lat="44.31486" lon="3.77856">
        <ele>1272.8</ele>
      </trkpt>
      <trkpt lat="44.3149" lon="3.77837">
        <ele>1272.2</ele>
      </trkpt>
      <trkpt lat="44.31494" lon="3.77819">
        <ele>1272.4</ele>
      </trkpt>
      <trkpt lat="44.31497" lon="3.77803">
        <ele>1272.9</ele>
      </trkpt>
      <trkpt lat="44.315" lon="3.77786">
        <ele>1273.2</ele>
      </trkpt>
      <trkpt lat="44.315" lon="3.77775">
        <ele>1272.6</ele>
      </trkpt>
      <trkpt lat="44.31499" lon="3.77761">
        <ele>1271.1</ele>
      </trkpt>
      <trkpt lat="44.31495" lon="3.7774">
        <ele>1268.5</ele>
      </trkpt>
      <trkpt lat="44.31493" lon="3.7772">
        <ele>1267.4</ele>
      </trkpt>
      <trkpt lat="44.31492" lon="3.77704">
        <ele>1266.6</ele>
      </trkpt>
      <trkpt lat="44.31493" lon="3.7769">
        <ele>1267</ele>
      </trkpt>
      <trkpt lat="44.31495" lon="3.77675">
        <ele>1267.5</ele>
      </trkpt>
      <trkpt lat="44.31495" lon="3.77658">
        <ele>1267.9</ele>
      </trkpt>
      <trkpt lat="44.31496" lon="3.77622">
        <ele>1269.3</ele>
      </trkpt>
      <trkpt lat="44.31498" lon="3.77598">
        <ele>1270.5</ele>
      </trkpt>
      <trkpt lat="44.31498" lon="3.77578">
        <ele>1270.5</ele>
      </trkpt>
      <trkpt lat="44.31502" lon="3.7755">
        <ele>1268.7</ele>
      </trkpt>
      <trkpt lat="44.31505" lon="3.77536">
        <ele>1268</ele>
      </trkpt>
      <trkpt lat="44.31509" lon="3.77521">
        <ele>1267.5</ele>
      </trkpt>
      <trkpt lat="44.31513" lon="3.77508">
        <ele>1267.4</ele>
      </trkpt>
      <trkpt lat="44.31515" lon="3.77497">
        <ele>1267</ele>
      </trkpt>
      <trkpt lat="44.31517" lon="3.77484">
        <ele>1266.8</ele>
      </trkpt>
      <trkpt lat="44.31517" lon="3.77473">
        <ele>1266.1</ele>
      </trkpt>
      <trkpt lat="44.31519" lon="3.77463">
        <ele>1266</ele>
      </trkpt>
      <trkpt lat="44.31522" lon="3.77451">
        <ele>1266.1</ele>
      </trkpt>
      <trkpt lat="44.31528" lon="3.77429">
        <ele>1266.9</ele>
      </trkpt>
      <trkpt lat="44.31536" lon="3.77409">
        <ele>1267.6</ele>
      </trkpt>
      <trkpt lat="44.31542" lon="3.77389">
        <ele>1266.9</ele>
      </trkpt>
      <trkpt lat="44.31549" lon="3.77376">
        <ele>1267.3</ele>
      </trkpt>
      <trkpt lat="44.31549" lon="3.77375">
        <ele>1267.3</ele>
      </trkpt>
      <trkpt lat="44.31556" lon="3.77363">
        <ele>1267.8</ele>
      </trkpt>
      <trkpt lat="44.31561" lon="3.77352">
        <ele>1268</ele>
      </trkpt>
      <trkpt lat="44.3157" lon="3.77339">
        <ele>1269.1</ele>
      </trkpt>
      <trkpt lat="44.31579" lon="3.77327">
        <ele>1269.9</ele>
      </trkpt>
      <trkpt lat="44.31582" lon="3.77323">
        <ele>1270.3</ele>
      </trkpt>
      <trkpt lat="44.31595" lon="3.77318">
        <ele>1272.6</ele>
      </trkpt>
      <trkpt lat="44.3161" lon="3.77305">
        <ele>1273.8</ele>
      </trkpt>
      <trkpt lat="44.31623" lon="3.77296">
        <ele>1275.2</ele>
      </trkpt>
      <trkpt lat="44.31646" lon="3.77283">
        <ele>1278.9</ele>
      </trkpt>
      <trkpt lat="44.31671" lon="3.77268">
        <ele>1282.7</ele>
      </trkpt>
      <trkpt lat="44.31683" lon="3.77261">
        <ele>1284.6</ele>
      </trkpt>
      <trkpt lat="44.3169" lon="3.77255">
        <ele>1285.7</ele>
      </trkpt>
      <trkpt lat="44.31699" lon="3.77246">
        <ele>1286.8</ele>
      </trkpt>
      <trkpt lat="44.31705" lon="3.77234">
        <ele>1286.9</ele>
      </trkpt>
      <trkpt lat="44.31711" lon="3.7722">
        <ele>1286.8</ele>
      </trkpt>
      <trkpt lat="44.31715" lon="3.77207">
        <ele>1286.3</ele>
      </trkpt>
      <trkpt lat="44.31721" lon="3.7719">
        <ele>1285.7</ele>
      </trkpt>
      <trkpt lat="44.31725" lon="3.77173">
        <ele>1284.6</ele>
      </trkpt>
      <trkpt lat="44.3173" lon="3.77156">
        <ele>1284.3</ele>
      </trkpt>
      <trkpt lat="44.31734" lon="3.77142">
        <ele>1284.6</ele>
      </trkpt>
      <trkpt lat="44.31739" lon="3.77128">
        <ele>1285</ele>
      </trkpt>
      <trkpt lat="44.31745" lon="3.77114">
        <ele>1285.7</ele>
      </trkpt>
      <trkpt lat="44.31748" lon="3.77104">
        <ele>1286</ele>
      </trkpt>
      <trkpt lat="44.31754" lon="3.77087">
        <ele>1286.7</ele>
      </trkpt>
      <trkpt lat="44.31764" lon="3.77066">
        <ele>1288.2</ele>
      </trkpt>
      <trkpt lat="44.31773" lon="3.77046">
        <ele>1289.7</ele>
      </trkpt>
      <trkpt lat="44.31783" lon="3.77024">
        <ele>1291</ele>
      </trkpt>
      <trkpt lat="44.31793" lon="3.77003">
        <ele>1292.7</ele>
      </trkpt>
      <trkpt lat="44.31799" lon="3.76984">
        <ele>1293.6</ele>
      </trkpt>
      <trkpt lat="44.31806" lon="3.76962">
        <ele>1294.7</ele>
      </trkpt>
      <trkpt lat="44.31811" lon="3.76947">
        <ele>1295.4</ele>
      </trkpt>
      <trkpt lat="44.31814" lon="3.76934">
        <ele>1295.5</ele>
      </trkpt>
      <trkpt lat="44.31816" lon="3.76922">
        <ele>1295.5</ele>
      </trkpt>
      <trkpt lat="44.3182" lon="3.76901">
        <ele>1295.5</ele>
      </trkpt>
      <trkpt lat="44.31823" lon="3.76884">
        <ele>1295.5</ele>
      </trkpt>
      <trkpt lat="44.31826" lon="3.76868">
        <ele>1295.6</ele>
      </trkpt>
      <trkpt lat="44.31831" lon="3.76852">
        <ele>1296.2</ele>
      </trkpt>
      <trkpt lat="44.31835" lon="3.76832">
        <ele>1296.4</ele>
      </trkpt>
      <trkpt lat="44.31838" lon="3.7682">
        <ele>1296.7</ele>
      </trkpt>
      <trkpt lat="44.31845" lon="3.76804">
        <ele>1297.9</ele>
      </trkpt>
      <trkpt lat="44.31853" lon="3.76782">
        <ele>1299.1</ele>
      </trkpt>
      <trkpt lat="44.31863" lon="3.76756">
        <ele>1300.7</ele>
      </trkpt>
      <trkpt lat="44.31867" lon="3.76747">
        <ele>1301.5</ele>
      </trkpt>
      <trkpt lat="44.3187" lon="3.76737">
        <ele>1302.1</ele>
      </trkpt>
      <trkpt lat="44.31874" lon="3.76725">
        <ele>1302.8</ele>
      </trkpt>
      <trkpt lat="44.31876" lon="3.76717">
        <ele>1303.2</ele>
      </trkpt>
      <trkpt lat="44.31881" lon="3.76703">
        <ele>1304</ele>
      </trkpt>
      <trkpt lat="44.31888" lon="3.76673">
        <ele>1304.9</ele>
      </trkpt>
      <trkpt lat="44.31897" lon="3.76634">
        <ele>1307.6</ele>
      </trkpt>
      <trkpt lat="44.31901" lon="3.76615">
        <ele>1308.7</ele>
      </trkpt>
      <trkpt lat="44.31903" lon="3.76603">
        <ele>1309.2</ele>
      </trkpt>
      <trkpt lat="44.31904" lon="3.76593">
        <ele>1309.6</ele>
      </trkpt>
      <trkpt lat="44.31906" lon="3.76576">
        <ele>1310.2</ele>
      </trkpt>
      <trkpt lat="44.31907" lon="3.76561">
        <ele>1310.5</ele>
      </trkpt>
      <trkpt lat="44.31908" lon="3.76506">
        <ele>1310.9</ele>
      </trkpt>
      <trkpt lat="44.31908" lon="3.765">
        <ele>1311</ele>
      </trkpt>
      <trkpt lat="44.31908" lon="3.7649">
        <ele>1311.1</ele>
      </trkpt>
      <trkpt lat="44.31909" lon="3.76478">
        <ele>1311.4</ele>
      </trkpt>
      <trkpt lat="44.3191" lon="3.76469">
        <ele>1311.7</ele>
      </trkpt>
      <trkpt lat="44.31912" lon="3.76459">
        <ele>1312</ele>
      </trkpt>
      <trkpt lat="44.31914" lon="3.7645">
        <ele>1312.5</ele>
      </trkpt>
      <trkpt lat="44.31918" lon="3.76436">
        <ele>1313.1</ele>
      </trkpt>
      <trkpt lat="44.3192" lon="3.76429">
        <ele>1313.2</ele>
      </trkpt>
      <trkpt lat="44.31924" lon="3.76418">
        <ele>1313.3</ele>
      </trkpt>
      <trkpt lat="44.31928" lon="3.764">
        <ele>1314.4</ele>
      </trkpt>
      <trkpt lat="44.3193" lon="3.76393">
        <ele>1314.8</ele>
      </trkpt>
      <trkpt lat="44.31923" lon="3.76399">
        <ele>1314.3</ele>
      </trkpt>
      <trkpt lat="44.31916" lon="3.76401">
        <ele>1313.8</ele>
      </trkpt>
      <trkpt lat="44.31866" lon="3.76405">
        <ele>1306.8</ele>
      </trkpt>
      <trkpt lat="44.31861" lon="3.76405">
        <ele>1306.1</ele>
      </trkpt>
      <trkpt lat="44.31852" lon="3.76403">
        <ele>1305.1</ele>
      </trkpt>
      <trkpt lat="44.31843" lon="3.76402">
        <ele>1304</ele>
      </trkpt>
      <trkpt lat="44.31823" lon="3.76396">
        <ele>1301.7</ele>
      </trkpt>
      <trkpt lat="44.31798" lon="3.76387">
        <ele>1298.9</ele>
      </trkpt>
      <trkpt lat="44.31783" lon="3.76379">
        <ele>1297.5</ele>
      </trkpt>
      <trkpt lat="44.31774" lon="3.76366">
        <ele>1298.1</ele>
      </trkpt>
      <trkpt lat="44.31759" lon="3.76347">
        <ele>1298.9</ele>
      </trkpt>
      <trkpt lat="44.31749" lon="3.76331">
        <ele>1300</ele>
      </trkpt>
      <trkpt lat="44.31739" lon="3.76316">
        <ele>1299</ele>
      </trkpt>
      <trkpt lat="44.31736" lon="3.76304">
        <ele>1299.9</ele>
      </trkpt>
      <trkpt lat="44.31733" lon="3.76286">
        <ele>1301.6</ele>
      </trkpt>
      <trkpt lat="44.31728" lon="3.7626">
        <ele>1303.9</ele>
      </trkpt>
      <trkpt lat="44.31726" lon="3.76233">
        <ele>1306.6</ele>
      </trkpt>
      <trkpt lat="44.31723" lon="3.76202">
        <ele>1309.1</ele>
      </trkpt>
      <trkpt lat="44.31719" lon="3.76171">
        <ele>1311.4</ele>
      </trkpt>
      <trkpt lat="44.31718" lon="3.76165">
        <ele>1311.6</ele>
      </trkpt>
      <trkpt lat="44.31713" lon="3.76126">
        <ele>1311</ele>
      </trkpt>
      <trkpt lat="44.31709" lon="3.76101">
        <ele>1310.4</ele>
      </trkpt>
      <trkpt lat="44.31704" lon="3.76073">
        <ele>1309.2</ele>
      </trkpt>
      <trkpt lat="44.31703" lon="3.76047">
        <ele>1308.3</ele>
      </trkpt>
      <trkpt lat="44.31703" lon="3.76029">
        <ele>1308</ele>
      </trkpt>
      <trkpt lat="44.31704" lon="3.76012">
        <ele>1308.1</ele>
      </trkpt>
      <trkpt lat="44.31705" lon="3.76003">
        <ele>1308.2</ele>
      </trkpt>
      <trkpt lat="44.31707" lon="3.75989">
        <ele>1307.6</ele>
      </trkpt>
      <trkpt lat="44.31708" lon="3.75974">
        <ele>1306.6</ele>
      </trkpt>
      <trkpt lat="44.31713" lon="3.75951">
        <ele>1305.9</ele>
      </trkpt>
      <trkpt lat="44.31719" lon="3.75921">
        <ele>1305</ele>
      </trkpt>
      <trkpt lat="44.31723" lon="3.75903">
        <ele>1304.5</ele>
      </trkpt>
      <trkpt lat="44.31731" lon="3.75879">
        <ele>1304.7</ele>
      </trkpt>
      <trkpt lat="44.3174" lon="3.75853">
        <ele>1305.2</ele>
      </trkpt>
      <trkpt lat="44.31744" lon="3.75844">
        <ele>1305.8</ele>
      </trkpt>
      <trkpt lat="44.31746" lon="3.75837">
        <ele>1305.9</ele>
      </trkpt>
      <trkpt lat="44.31746" lon="3.75827">
        <ele>1305.3</ele>
      </trkpt>
      <trkpt lat="44.31747" lon="3.75817">
        <ele>1304.6</ele>
      </trkpt>
      <trkpt lat="44.31749" lon="3.75804">
        <ele>1303.9</ele>
      </trkpt>
      <trkpt lat="44.31754" lon="3.75777">
        <ele>1302.7</ele>
      </trkpt>
      <trkpt lat="44.31759" lon="3.7575">
        <ele>1301.7</ele>
      </trkpt>
      <trkpt lat="44.31765" lon="3.75732">
        <ele>1301.3</ele>
      </trkpt>
      <trkpt lat="44.31766" lon="3.75731">
        <ele>1301.2</ele>
      </trkpt>
      <trkpt lat="44.31769" lon="3.75723">
        <ele>1301.3</ele>
      </trkpt>
      <trkpt lat="44.31771" lon="3.75717">
        <ele>1301.4</ele>
      </trkpt>
      <trkpt lat="44.31773" lon="3.7571">
        <ele>1301</ele>
      </trkpt>
      <trkpt lat="44.31775" lon="3.75699">
        <ele>1300.6</ele>
      </trkpt>
      <trkpt lat="44.31783" lon="3.75675">
        <ele>1300.2</ele>
      </trkpt>
      <trkpt lat="44.3179" lon="3.75656">
        <ele>1300.6</ele>
      </trkpt>
      <trkpt lat="44.31798" lon="3.7564">
        <ele>1301.8</ele>
      </trkpt>
      <trkpt lat="44.31805" lon="3.75626">
        <ele>1303.2</ele>
      </trkpt>
      <trkpt lat="44.31813" lon="3.75615">
        <ele>1304.7</ele>
      </trkpt>
      <trkpt lat="44.31817" lon="3.7561">
        <ele>1305.6</ele>
      </trkpt>
      <trkpt lat="44.31818" lon="3.75606">
        <ele>1305.6</ele>
      </trkpt>
      <trkpt lat="44.31817" lon="3.756">
        <ele>1305</ele>
      </trkpt>
      <trkpt lat="44.31814" lon="3.75588">
        <ele>1302.9</ele>
      </trkpt>
      <trkpt lat="44.31811" lon="3.75573">
        <ele>1301.5</ele>
      </trkpt>
      <trkpt lat="44.31809" lon="3.75561">
        <ele>1300.9</ele>
      </trkpt>
      <trkpt lat="44.31809" lon="3.75547">
        <ele>1300.7</ele>
      </trkpt>
      <trkpt lat="44.31811" lon="3.75527">
        <ele>1301</ele>
      </trkpt>
      <trkpt lat="44.31811" lon="3.75505">
        <ele>1300.8</ele>
      </trkpt>
      <trkpt lat="44.3181" lon="3.75488">
        <ele>1300.6</ele>
      </trkpt>
      <trkpt lat="44.31808" lon="3.75473">
        <ele>1300.2</ele>
      </trkpt>
      <trkpt lat="44.31803" lon="3.75453">
        <ele>1298.8</ele>
      </trkpt>
      <trkpt lat="44.31798" lon="3.75436">
        <ele>1297.7</ele>
      </trkpt>
      <trkpt lat="44.31795" lon="3.7542">
        <ele>1297.1</ele>
      </trkpt>
      <trkpt lat="44.31793" lon="3.75405">
        <ele>1296.1</ele>
      </trkpt>
      <trkpt lat="44.31792" lon="3.7539">
        <ele>1295.2</ele>
      </trkpt>
      <trkpt lat="44.31791" lon="3.75369">
        <ele>1293.9</ele>
      </trkpt>
      <trkpt lat="44.31789" lon="3.75339">
        <ele>1292.3</ele>
      </trkpt>
      <trkpt lat="44.31789" lon="3.75313">
        <ele>1291.5</ele>
      </trkpt>
      <trkpt lat="44.3179" lon="3.75297">
        <ele>1291</ele>
      </trkpt>
      <trkpt lat="44.31791" lon="3.75283">
        <ele>1290.8</ele>
      </trkpt>
      <trkpt lat="44.31793" lon="3.75266">
        <ele>1290.9</ele>
      </trkpt>
      <trkpt lat="44.31796" lon="3.75246">
        <ele>1291.4</ele>
      </trkpt>
      <trkpt lat="44.318" lon="3.7523">
        <ele>1292.5</ele>
      </trkpt>
      <trkpt lat="44.31801" lon="3.75218">
        <ele>1292.8</ele>
      </trkpt>
      <trkpt lat="44.31801" lon="3.75209">
        <ele>1292.8</ele>
      </trkpt>
      <trkpt lat="44.31799" lon="3.75189">
        <ele>1292.1</ele>
      </trkpt>
      <trkpt lat="44.31796" lon="3.75163">
        <ele>1291.2</ele>
      </trkpt>
      <trkpt lat="44.31792" lon="3.75139">
        <ele>1290.1</ele>
      </trkpt>
      <trkpt lat="44.31789" lon="3.75116">
        <ele>1289.3</ele>
      </trkpt>
      <trkpt lat="44.31788" lon="3.75101">
        <ele>1289</ele>
      </trkpt>
      <trkpt lat="44.31788" lon="3.75085">
        <ele>1289</ele>
      </trkpt>
      <trkpt lat="44.31789" lon="3.75067">
        <ele>1288.8</ele>
      </trkpt>
      <trkpt lat="44.3179" lon="3.75049">
        <ele>1288.7</ele>
      </trkpt>
      <trkpt lat="44.31792" lon="3.7503">
        <ele>1288.5</ele>
      </trkpt>
      <trkpt lat="44.31795" lon="3.75013">
        <ele>1288.5</ele>
      </trkpt>
      <trkpt lat="44.31795" lon="3.75008">
        <ele>1288.4</ele>
      </trkpt>
      <trkpt lat="44.31795" lon="3.74971">
        <ele>1284.088005</ele>
        <time>2019-10-06T23:47:16.761Z</time>
      </trkpt>
      <trkpt lat="44.31795" lon="3.74945">
        <ele>1284.661066</ele>
        <time>2019-10-06T23:47:26.068Z</time>
      </trkpt>
      <trkpt lat="44.31802" lon="3.74927">
        <ele>1285.137643</ele>
        <time>2019-10-06T23:47:35.435Z</time>
      </trkpt>
      <trkpt lat="44.31711" lon="3.74716">
        <ele>1294.025537</ele>
        <time>2019-10-06T23:49:28.866Z</time>
      </trkpt>
      <trkpt lat="44.31696" lon="3.74676">
        <ele>1295.870796</ele>
        <time>2019-10-06T23:49:50.991Z</time>
      </trkpt>
      <trkpt lat="44.31685" lon="3.74632">
        <ele>1298.010665</ele>
        <time>2019-10-06T23:50:14.210Z</time>
      </trkpt>
      <trkpt lat="44.31684" lon="3.74592">
        <ele>1300.057858</ele>
        <time>2019-10-06T23:50:34.642Z</time>
      </trkpt>
      <trkpt lat="44.3168" lon="3.74558">
        <ele>1301.846007</ele>
        <time>2019-10-06T23:50:52.912Z</time>
      </trkpt>
      <trkpt lat="44.31667" lon="3.74507">
        <ele>1304.594431</ele>
        <time>2019-10-06T23:51:21.061Z</time>
      </trkpt>
      <trkpt lat="44.3164" lon="3.74442">
        <ele>1308.474642</ele>
        <time>2019-10-06T23:52:01.474Z</time>
      </trkpt>
      <trkpt lat="44.316" lon="3.74312">
        <ele>1317.581035</ele>
        <time>2019-10-06T23:53:18.515Z</time>
      </trkpt>
      <trkpt lat="44.31593" lon="3.74251">
        <ele>1321.753785</ele>
        <time>2019-10-06T23:53:56.313Z</time>
      </trkpt>
      <trkpt lat="44.3158" lon="3.74195">
        <ele>1325.673249</ele>
        <time>2019-10-06T23:54:35.713Z</time>
      </trkpt>
      <trkpt lat="44.31573" lon="3.74178">
        <ele>1327.146872</ele>
        <time>2019-10-06T23:54:48.022Z</time>
      </trkpt>
      <trkpt lat="44.31562" lon="3.74163">
        <ele>1329.276255</ele>
        <time>2019-10-06T23:55:04.729Z</time>
      </trkpt>
      <trkpt lat="44.31548" lon="3.74149">
        <ele>1331.607887</ele>
        <time>2019-10-06T23:55:20.831Z</time>
      </trkpt>
      <trkpt lat="44.31539" lon="3.74137">
        <ele>1333.218044</ele>
        <time>2019-10-06T23:55:32.363Z</time>
      </trkpt>
      <trkpt lat="44.31547" lon="3.74118">
        <ele>1335.347791</ele>
        <time>2019-10-06T23:55:50.253Z</time>
      </trkpt>
      <trkpt lat="44.31552" lon="3.74105">
        <ele>1336.765399</ele>
        <time>2019-10-06T23:55:59.970Z</time>
      </trkpt>
      <trkpt lat="44.31555" lon="3.74095">
        <ele>1337.845731</ele>
        <time>2019-10-06T23:56:07.757Z</time>
      </trkpt>
      <trkpt lat="44.3155" lon="3.7408">
        <ele>1339.401484</ele>
        <time>2019-10-06T23:56:22.720Z</time>
      </trkpt>
      <trkpt lat="44.31542" lon="3.73989">
        <ele>1348.31253</ele>
        <time>2019-10-06T23:57:35.419Z</time>
      </trkpt>
      <trkpt lat="44.31492" lon="3.73689">
        <ele>1375.490097</ele>
        <time>2019-10-07T00:01:28.520Z</time>
      </trkpt>
      <trkpt lat="44.31495" lon="3.7367">
        <ele>1376.026265</ele>
        <time>2019-10-07T00:01:38.588Z</time>
      </trkpt>
      <trkpt lat="44.31555" lon="3.7361">
        <ele>1378.880265</ele>
        <time>2019-10-07T00:02:20.577Z</time>
      </trkpt>
      <trkpt lat="44.31561" lon="3.73599">
        <ele>1379.282806</ele>
        <time>2019-10-07T00:02:25.266Z</time>
      </trkpt>
      <trkpt lat="44.31583" lon="3.73568">
        <ele>1380.471638</ele>
        <time>2019-10-07T00:02:37.432Z</time>
      </trkpt>
      <trkpt lat="44.31598" lon="3.73546">
        <ele>1381.32719</ele>
        <time>2019-10-07T00:02:44.557Z</time>
      </trkpt>
      <trkpt lat="44.31633" lon="3.73493">
        <ele>1380.960515</ele>
        <time>2019-10-07T00:03:00.962Z</time>
      </trkpt>
      <trkpt lat="44.31637" lon="3.7348">
        <ele>1380.776831</ele>
        <time>2019-10-07T00:03:03.990Z</time>
      </trkpt>
      <trkpt lat="44.31693" lon="3.73111">
        <ele>1379.568482</ele>
        <time>2019-10-07T00:04:34.442Z</time>
      </trkpt>
      <trkpt lat="44.31688" lon="3.73074">
        <ele>1379.755178</ele>
        <time>2019-10-07T00:04:53.438Z</time>
      </trkpt>
      <trkpt lat="44.31697" lon="3.73011">
        <ele>1383.185153</ele>
        <time>2019-10-07T00:05:25.647Z</time>
      </trkpt>
      <trkpt lat="44.31705" lon="3.72961">
        <ele>1386.673209</ele>
        <time>2019-10-07T00:05:58.024Z</time>
      </trkpt>
      <trkpt lat="44.31713" lon="3.72941">
        <ele>1388.262066</ele>
        <time>2019-10-07T00:06:13.980Z</time>
      </trkpt>
      <trkpt lat="44.31762" lon="3.72801">
        <ele>1398.244826</ele>
        <time>2019-10-07T00:07:58.036Z</time>
      </trkpt>
      <trkpt lat="44.31762" lon="3.72785">
        <ele>1398.955673</ele>
        <time>2019-10-07T00:08:09.980Z</time>
      </trkpt>
      <trkpt lat="44.3176" lon="3.72735">
        <ele>1401.183637</ele>
        <time>2019-10-07T00:08:39.373Z</time>
      </trkpt>
      <trkpt lat="44.31741" lon="3.72604">
        <ele>1407.135546</ele>
        <time>2019-10-07T00:09:36.974Z</time>
      </trkpt>
      <trkpt lat="44.31735" lon="3.7259">
        <ele>1407.869762</ele>
        <time>2019-10-07T00:09:45.651Z</time>
      </trkpt>
      <trkpt lat="44.31733" lon="3.72559">
        <ele>1407.772003</ele>
        <time>2019-10-07T00:09:54.153Z</time>
      </trkpt>
      <trkpt lat="44.31725" lon="3.72499">
        <ele>1406.632543</ele>
        <time>2019-10-07T00:10:09.067Z</time>
      </trkpt>
      <trkpt lat="44.31716" lon="3.72474">
        <ele>1406.106899</ele>
        <time>2019-10-07T00:10:15.378Z</time>
      </trkpt>
      <trkpt lat="44.31711" lon="3.72451">
        <ele>1405.66367</ele>
        <time>2019-10-07T00:10:20.776Z</time>
      </trkpt>
      <trkpt lat="44.31684" lon="3.72333">
        <ele>1402.971425</ele>
        <time>2019-10-07T00:10:46.476Z</time>
      </trkpt>
      <trkpt lat="44.3167" lon="3.72297">
        <ele>1400.430145</ele>
        <time>2019-10-07T00:10:54.618Z</time>
      </trkpt>
      <trkpt lat="44.31664" lon="3.72182">
        <ele>1393.3585</ele>
        <time>2019-10-07T00:11:16.347Z</time>
      </trkpt>
      <trkpt lat="44.31671" lon="3.72059">
        <ele>1384.730705</ele>
        <time>2019-10-07T00:11:39.072Z</time>
      </trkpt>
      <trkpt lat="44.31685" lon="3.72016">
        <ele>1380.522931</ele>
        <time>2019-10-07T00:11:47.617Z</time>
      </trkpt>
      <trkpt lat="44.31809" lon="3.71796">
        <ele>1353.413343</ele>
        <time>2019-10-07T00:12:36.932Z</time>
      </trkpt>
      <trkpt lat="44.31809" lon="3.71797">
        <ele>1349.4</ele>
      </trkpt>
      <trkpt lat="44.31814" lon="3.7179">
        <ele>1348.3</ele>
      </trkpt>
      <trkpt lat="44.31822" lon="3.71783">
        <ele>1346.6</ele>
      </trkpt>
      <trkpt lat="44.31832" lon="3.71772">
        <ele>1344.2</ele>
      </trkpt>
      <trkpt lat="44.31847" lon="3.71761">
        <ele>1339.3</ele>
      </trkpt>
      <trkpt lat="44.31863" lon="3.71748">
        <ele>1333.6</ele>
      </trkpt>
      <trkpt lat="44.3188" lon="3.71734">
        <ele>1327.9</ele>
      </trkpt>
      <trkpt lat="44.31899" lon="3.71716">
        <ele>1321.7</ele>
      </trkpt>
      <trkpt lat="44.31924" lon="3.71692">
        <ele>1314.8</ele>
      </trkpt>
      <trkpt lat="44.31947" lon="3.71669">
        <ele>1310.1</ele>
      </trkpt>
      <trkpt lat="44.31969" lon="3.71648">
        <ele>1305.5</ele>
      </trkpt>
      <trkpt lat="44.31983" lon="3.71636">
        <ele>1302.9</ele>
      </trkpt>
      <trkpt lat="44.31997" lon="3.7162">
        <ele>1300.5</ele>
      </trkpt>
      <trkpt lat="44.31987" lon="3.71602">
        <ele>1301.9</ele>
      </trkpt>
      <trkpt lat="44.31972" lon="3.71577">
        <ele>1302.8</ele>
      </trkpt>
      <trkpt lat="44.31952" lon="3.71548">
        <ele>1300.2</ele>
      </trkpt>
      <trkpt lat="44.31935" lon="3.71528">
        <ele>1298.2</ele>
      </trkpt>
      <trkpt lat="44.31924" lon="3.71512">
        <ele>1295.9</ele>
      </trkpt>
      <trkpt lat="44.31918" lon="3.71498">
        <ele>1293.5</ele>
      </trkpt>
      <trkpt lat="44.31914" lon="3.71484">
        <ele>1291.5</ele>
      </trkpt>
      <trkpt lat="44.31912" lon="3.71466">
        <ele>1288.8</ele>
      </trkpt>
      <trkpt lat="44.31911" lon="3.71436">
        <ele>1283.5</ele>
      </trkpt>
      <trkpt lat="44.3191" lon="3.71425">
        <ele>1281.6</ele>
      </trkpt>
      <trkpt lat="44.31905" lon="3.71409">
        <ele>1279.6</ele>
      </trkpt>
      <trkpt lat="44.31895" lon="3.71391">
        <ele>1277.8</ele>
      </trkpt>
      <trkpt lat="44.3189" lon="3.71378">
        <ele>1276.2</ele>
      </trkpt>
      <trkpt lat="44.31886" lon="3.71358">
        <ele>1273.1</ele>
      </trkpt>
      <trkpt lat="44.31881" lon="3.71321">
        <ele>1267.1</ele>
      </trkpt>
      <trkpt lat="44.31877" lon="3.71293">
        <ele>1262.7</ele>
      </trkpt>
      <trkpt lat="44.31875" lon="3.71272">
        <ele>1259.1</ele>
      </trkpt>
      <trkpt lat="44.31875" lon="3.71241">
        <ele>1253.6</ele>
      </trkpt>
      <trkpt lat="44.31874" lon="3.71223">
        <ele>1250.7</ele>
      </trkpt>
      <trkpt lat="44.31871" lon="3.71211">
        <ele>1248.8</ele>
      </trkpt>
      <trkpt lat="44.31868" lon="3.71197">
        <ele>1246.9</ele>
      </trkpt>
      <trkpt lat="44.31867" lon="3.71194">
        <ele>1246.4</ele>
      </trkpt>
      <trkpt lat="44.31865" lon="3.71183">
        <ele>1244.6</ele>
      </trkpt>
      <trkpt lat="44.31861" lon="3.71175">
        <ele>1243.5</ele>
      </trkpt>
      <trkpt lat="44.31858" lon="3.71171">
        <ele>1243</ele>
      </trkpt>
      <trkpt lat="44.31855" lon="3.71168">
        <ele>1242.7</ele>
      </trkpt>
      <trkpt lat="44.31849" lon="3.71166">
        <ele>1242.7</ele>
      </trkpt>
      <trkpt lat="44.31845" lon="3.71163">
        <ele>1242.5</ele>
      </trkpt>
      <trkpt lat="44.31842" lon="3.71161">
        <ele>1242.1</ele>
      </trkpt>
      <trkpt lat="44.31841" lon="3.71157">
        <ele>1241.5</ele>
      </trkpt>
      <trkpt lat="44.31841" lon="3.71152">
        <ele>1240.4</ele>
      </trkpt>
      <trkpt lat="44.31843" lon="3.71144">
        <ele>1238.7</ele>
      </trkpt>
      <trkpt lat="44.31849" lon="3.71133">
        <ele>1236.2</ele>
      </trkpt>
      <trkpt lat="44.31856" lon="3.7112">
        <ele>1233.5</ele>
      </trkpt>
      <trkpt lat="44.31863" lon="3.71104">
        <ele>1230.5</ele>
      </trkpt>
      <trkpt lat="44.31873" lon="3.71074">
        <ele>1225.3</ele>
      </trkpt>
      <trkpt lat="44.31884" lon="3.71045">
        <ele>1220.5</ele>
      </trkpt>
      <trkpt lat="44.31894" lon="3.7102">
        <ele>1217.1</ele>
      </trkpt>
      <trkpt lat="44.31902" lon="3.71003">
        <ele>1215</ele>
      </trkpt>
      <trkpt lat="44.31909" lon="3.70991">
        <ele>1214.1</ele>
      </trkpt>
      <trkpt lat="44.31915" lon="3.70976">
        <ele>1212.9</ele>
      </trkpt>
      <trkpt lat="44.31916" lon="3.70974">
        <ele>1212.8</ele>
      </trkpt>
      <trkpt lat="44.31923" lon="3.70957">
        <ele>1210.1</ele>
      </trkpt>
      <trkpt lat="44.31932" lon="3.70937">
        <ele>1206.7</ele>
      </trkpt>
      <trkpt lat="44.31944" lon="3.70914">
        <ele>1203.1</ele>
      </trkpt>
      <trkpt lat="44.31945" lon="3.70913">
        <ele>1202.9</ele>
      </trkpt>
      <trkpt lat="44.31952" lon="3.70897">
        <ele>1200.8</ele>
      </trkpt>
      <trkpt lat="44.31956" lon="3.70886">
        <ele>1199.7</ele>
      </trkpt>
      <trkpt lat="44.31959" lon="3.70878">
        <ele>1199</ele>
      </trkpt>
      <trkpt lat="44.31964" lon="3.70869">
        <ele>1198.3</ele>
      </trkpt>
      <trkpt lat="44.31969" lon="3.70859">
        <ele>1197.8</ele>
      </trkpt>
      <trkpt lat="44.31972" lon="3.70852">
        <ele>1197.5</ele>
      </trkpt>
      <trkpt lat="44.31978" lon="3.70851">
        <ele>1197.8</ele>
      </trkpt>
      <trkpt lat="44.31986" lon="3.70849">
        <ele>1198.1</ele>
      </trkpt>
      <trkpt lat="44.31994" lon="3.70847">
        <ele>1198.5</ele>
      </trkpt>
      <trkpt lat="44.32" lon="3.70844">
        <ele>1198.8</ele>
      </trkpt>
      <trkpt lat="44.32006" lon="3.7084">
        <ele>1198.1</ele>
      </trkpt>
      <trkpt lat="44.32009" lon="3.70838">
        <ele>1197.8</ele>
      </trkpt>
      <trkpt lat="44.32013" lon="3.70831">
        <ele>1196.9</ele>
      </trkpt>
      <trkpt lat="44.3202" lon="3.70819">
        <ele>1194.7</ele>
      </trkpt>
      <trkpt lat="44.32028" lon="3.7081">
        <ele>1193</ele>
      </trkpt>
      <trkpt lat="44.32033" lon="3.70804">
        <ele>1192.2</ele>
      </trkpt>
      <trkpt lat="44.32037" lon="3.70802">
        <ele>1191.8</ele>
      </trkpt>
      <trkpt lat="44.32041" lon="3.70799">
        <ele>1191.5</ele>
      </trkpt>
      <trkpt lat="44.32044" lon="3.70796">
        <ele>1191.2</ele>
      </trkpt>
      <trkpt lat="44.32048" lon="3.70789">
        <ele>1190.8</ele>
      </trkpt>
      <trkpt lat="44.32053" lon="3.70778">
        <ele>1190.5</ele>
      </trkpt>
      <trkpt lat="44.32057" lon="3.70763">
        <ele>1190.3</ele>
      </trkpt>
      <trkpt lat="44.3206" lon="3.70755">
        <ele>1190.6</ele>
      </trkpt>
      <trkpt lat="44.32068" lon="3.70739">
        <ele>1189.6</ele>
      </trkpt>
      <trkpt lat="44.32074" lon="3.70721">
        <ele>1188</ele>
      </trkpt>
      <trkpt lat="44.32079" lon="3.70704">
        <ele>1186.7</ele>
      </trkpt>
      <trkpt lat="44.32085" lon="3.70691">
        <ele>1185.7</ele>
      </trkpt>
      <trkpt lat="44.32091" lon="3.70685">
        <ele>1184.3</ele>
      </trkpt>
      <trkpt lat="44.32097" lon="3.7068">
        <ele>1183</ele>
      </trkpt>
      <trkpt lat="44.32103" lon="3.70672">
        <ele>1181.8</ele>
      </trkpt>
      <trkpt lat="44.32107" lon="3.70669">
        <ele>1181.2</ele>
      </trkpt>
      <trkpt lat="44.32108" lon="3.70666">
        <ele>1180.8</ele>
      </trkpt>
      <trkpt lat="44.3211" lon="3.70657">
        <ele>1179.2</ele>
      </trkpt>
      <trkpt lat="44.32112" lon="3.70651">
        <ele>1178.1</ele>
      </trkpt>
      <trkpt lat="44.32116" lon="3.70644">
        <ele>1177.1</ele>
      </trkpt>
      <trkpt lat="44.32118" lon="3.70638">
        <ele>1176.3</ele>
      </trkpt>
      <trkpt lat="44.32118" lon="3.70632">
        <ele>1175.4</ele>
      </trkpt>
      <trkpt lat="44.3212" lon="3.70623">
        <ele>1174.2</ele>
      </trkpt>
      <trkpt lat="44.32123" lon="3.70616">
        <ele>1173.6</ele>
      </trkpt>
      <trkpt lat="44.32125" lon="3.7061">
        <ele>1173</ele>
      </trkpt>
      <trkpt lat="44.32128" lon="3.70603">
        <ele>1172.5</ele>
      </trkpt>
      <trkpt lat="44.32134" lon="3.70594">
        <ele>1172.5</ele>
      </trkpt>
      <trkpt lat="44.32143" lon="3.70588">
        <ele>1173.3</ele>
      </trkpt>
      <trkpt lat="44.32148" lon="3.70582">
        <ele>1173.7</ele>
      </trkpt>
      <trkpt lat="44.32149" lon="3.70581">
        <ele>1173.7</ele>
      </trkpt>
      <trkpt lat="44.32156" lon="3.70569">
        <ele>1173.8</ele>
      </trkpt>
      <trkpt lat="44.32162" lon="3.70557">
        <ele>1173.9</ele>
      </trkpt>
      <trkpt lat="44.32164" lon="3.70551">
        <ele>1174.1</ele>
      </trkpt>
      <trkpt lat="44.32169" lon="3.70545">
        <ele>1174</ele>
      </trkpt>
      <trkpt lat="44.32172" lon="3.70537">
        <ele>1173.3</ele>
      </trkpt>
      <trkpt lat="44.32176" lon="3.70531">
        <ele>1172.8</ele>
      </trkpt>
      <trkpt lat="44.32179" lon="3.70527">
        <ele>1172.5</ele>
      </trkpt>
      <trkpt lat="44.32179" lon="3.7052">
        <ele>1172.2</ele>
      </trkpt>
      <trkpt lat="44.32181" lon="3.70511">
        <ele>1171.9</ele>
      </trkpt>
      <trkpt lat="44.32183" lon="3.70502">
        <ele>1171.6</ele>
      </trkpt>
      <trkpt lat="44.32187" lon="3.70491">
        <ele>1170.9</ele>
      </trkpt>
      <trkpt lat="44.32193" lon="3.70476">
        <ele>1170.3</ele>
      </trkpt>
      <trkpt lat="44.32201" lon="3.70457">
        <ele>1170</ele>
      </trkpt>
      <trkpt lat="44.3221" lon="3.70437">
        <ele>1170.5</ele>
      </trkpt>
      <trkpt lat="44.32213" lon="3.70422">
        <ele>1170.7</ele>
      </trkpt>
      <trkpt lat="44.32218" lon="3.70404">
        <ele>1171.1</ele>
      </trkpt>
      <trkpt lat="44.32219" lon="3.70398">
        <ele>1171.1</ele>
      </trkpt>
      <trkpt lat="44.32219" lon="3.70395">
        <ele>1171.1</ele>
      </trkpt>
      <trkpt lat="44.3222" lon="3.70391">
        <ele>1170.9</ele>
      </trkpt>
      <trkpt lat="44.3222" lon="3.70387">
        <ele>1170.8</ele>
      </trkpt>
      <trkpt lat="44.3222" lon="3.70383">
        <ele>1170.6</ele>
      </trkpt>
      <trkpt lat="44.3222" lon="3.70379">
        <ele>1170.5</ele>
      </trkpt>
      <trkpt lat="44.3222" lon="3.70375">
        <ele>1170.3</ele>
      </trkpt>
      <trkpt lat="44.3222" lon="3.70372">
        <ele>1170.2</ele>
      </trkpt>
      <trkpt lat="44.3222" lon="3.70369">
        <ele>1170.1</ele>
      </trkpt>
      <trkpt lat="44.3222" lon="3.70366">
        <ele>1170.1</ele>
      </trkpt>
      <trkpt lat="44.3222" lon="3.70363">
        <ele>1170</ele>
      </trkpt>
      <trkpt lat="44.32251" lon="3.70297">
        <ele>1176.8</ele>
      </trkpt>
      <trkpt lat="44.3227" lon="3.70221">
        <ele>1169.9</ele>
      </trkpt>
      <trkpt lat="44.32283" lon="3.70133">
        <ele>1164.1</ele>
      </trkpt>
      <trkpt lat="44.3229" lon="3.70079">
        <ele>1161.6</ele>
      </trkpt>
      <trkpt lat="44.32309" lon="3.70036">
        <ele>1157.8</ele>
      </trkpt>
      <trkpt lat="44.32362" lon="3.69985">
        <ele>1149.2</ele>
      </trkpt>
      <trkpt lat="44.32386" lon="3.6995">
        <ele>1142.2</ele>
      </trkpt>
      <trkpt lat="44.32422" lon="3.69879">
        <ele>1141.2</ele>
      </trkpt>
      <trkpt lat="44.32442" lon="3.69838">
        <ele>1137.5</ele>
      </trkpt>
      <trkpt lat="44.32444" lon="3.69832">
        <ele>1137.3</ele>
      </trkpt>
      <trkpt lat="44.32445" lon="3.69827">
        <ele>1136.8</ele>
      </trkpt>
      <trkpt lat="44.32446" lon="3.69823">
        <ele>1136.4</ele>
      </trkpt>
      <trkpt lat="44.32446" lon="3.69819">
        <ele>1136</ele>
      </trkpt>
      <trkpt lat="44.32445" lon="3.69815">
        <ele>1136</ele>
      </trkpt>
      <trkpt lat="44.32443" lon="3.69811">
        <ele>1136.1</ele>
      </trkpt>
      <trkpt lat="44.32442" lon="3.69808">
        <ele>1136.2</ele>
      </trkpt>
      <trkpt lat="44.32441" lon="3.69805">
        <ele>1136</ele>
      </trkpt>
      <trkpt lat="44.32441" lon="3.69802">
        <ele>1135.8</ele>
      </trkpt>
      <trkpt lat="44.3244" lon="3.69799">
        <ele>1135.6</ele>
      </trkpt>
      <trkpt lat="44.32441" lon="3.69795">
        <ele>1135.3</ele>
      </trkpt>
      <trkpt lat="44.32441" lon="3.69792">
        <ele>1135</ele>
      </trkpt>
      <trkpt lat="44.32441" lon="3.69789">
        <ele>1134.8</ele>
      </trkpt>
      <trkpt lat="44.3244" lon="3.69787">
        <ele>1134.6</ele>
      </trkpt>
      <trkpt lat="44.32436" lon="3.69782">
        <ele>1134.4</ele>
      </trkpt>
      <trkpt lat="44.32431" lon="3.69775">
        <ele>1133.9</ele>
      </trkpt>
      <trkpt lat="44.32429" lon="3.6977">
        <ele>1133.3</ele>
      </trkpt>
      <trkpt lat="44.3243" lon="3.69768">
        <ele>1133.1</ele>
      </trkpt>
      <trkpt lat="44.32431" lon="3.69765">
        <ele>1132.8</ele>
      </trkpt>
      <trkpt lat="44.32434" lon="3.69763">
        <ele>1132.5</ele>
      </trkpt>
      <trkpt lat="44.32444" lon="3.69752">
        <ele>1132</ele>
      </trkpt>
      <trkpt lat="44.32452" lon="3.69729">
        <ele>1128.9</ele>
      </trkpt>
      <trkpt lat="44.32454" lon="3.69724">
        <ele>1128.3</ele>
      </trkpt>
      <trkpt lat="44.32462" lon="3.69698">
        <ele>1126.1</ele>
      </trkpt>
      <trkpt lat="44.32467" lon="3.69674">
        <ele>1124.8</ele>
      </trkpt>
      <trkpt lat="44.3247" lon="3.69663">
        <ele>1124.3</ele>
      </trkpt>
      <trkpt lat="44.32473" lon="3.69645">
        <ele>1122.5</ele>
      </trkpt>
      <trkpt lat="44.32475" lon="3.69638">
        <ele>1122.2</ele>
      </trkpt>
      <trkpt lat="44.32477" lon="3.69632">
        <ele>1122.3</ele>
      </trkpt>
      <trkpt lat="44.32483" lon="3.69618">
        <ele>1122.9</ele>
      </trkpt>
      <trkpt lat="44.3249" lon="3.69599">
        <ele>1123.2</ele>
      </trkpt>
      <trkpt lat="44.32494" lon="3.69583">
        <ele>1123</ele>
      </trkpt>
      <trkpt lat="44.32495" lon="3.69577">
        <ele>1122.7</ele>
      </trkpt>
      <trkpt lat="44.32496" lon="3.6957">
        <ele>1122</ele>
      </trkpt>
      <trkpt lat="44.32498" lon="3.69558">
        <ele>1121.5</ele>
      </trkpt>
      <trkpt lat="44.325" lon="3.69547">
        <ele>1121</ele>
      </trkpt>
      <trkpt lat="44.32502" lon="3.6952">
        <ele>1118.5</ele>
      </trkpt>
      <trkpt lat="44.32508" lon="3.6948">
        <ele>1115.3</ele>
      </trkpt>
      <trkpt lat="44.32509" lon="3.6946">
        <ele>1113.4</ele>
      </trkpt>
      <trkpt lat="44.3251" lon="3.69435">
        <ele>1110.4</ele>
      </trkpt>
      <trkpt lat="44.32511" lon="3.69407">
        <ele>1108</ele>
      </trkpt>
      <trkpt lat="44.32511" lon="3.69387">
        <ele>1107.5</ele>
      </trkpt>
      <trkpt lat="44.32513" lon="3.69377">
        <ele>1107.5</ele>
      </trkpt>
      <trkpt lat="44.32515" lon="3.69362">
        <ele>1107.8</ele>
      </trkpt>
      <trkpt lat="44.32517" lon="3.6933">
        <ele>1107.5</ele>
      </trkpt>
      <trkpt lat="44.32518" lon="3.69308">
        <ele>1106.7</ele>
      </trkpt>
      <trkpt lat="44.32518" lon="3.69291">
        <ele>1106.2</ele>
      </trkpt>
      <trkpt lat="44.32519" lon="3.69283">
        <ele>1106</ele>
      </trkpt>
      <trkpt lat="44.3252" lon="3.69277">
        <ele>1106.1</ele>
      </trkpt>
      <trkpt lat="44.32521" lon="3.69273">
        <ele>1106.4</ele>
      </trkpt>
      <trkpt lat="44.32522" lon="3.69268">
        <ele>1107.1</ele>
      </trkpt>
      <trkpt lat="44.32524" lon="3.69264">
        <ele>1107.7</ele>
      </trkpt>
      <trkpt lat="44.32526" lon="3.69258">
        <ele>1108.3</ele>
      </trkpt>
      <trkpt lat="44.32527" lon="3.69253">
        <ele>1108.6</ele>
      </trkpt>
      <trkpt lat="44.32528" lon="3.69248">
        <ele>1108.7</ele>
      </trkpt>
      <trkpt lat="44.32528" lon="3.69241">
        <ele>1108.5</ele>
      </trkpt>
      <trkpt lat="44.3253" lon="3.69227">
        <ele>1108</ele>
      </trkpt>
      <trkpt lat="44.32532" lon="3.69205">
        <ele>1107.4</ele>
      </trkpt>
      <trkpt lat="44.32535" lon="3.69182">
        <ele>1107.3</ele>
      </trkpt>
      <trkpt lat="44.32536" lon="3.69173">
        <ele>1106.8</ele>
      </trkpt>
      <trkpt lat="44.32536" lon="3.69167">
        <ele>1106.5</ele>
      </trkpt>
      <trkpt lat="44.32537" lon="3.69161">
        <ele>1106.5</ele>
      </trkpt>
      <trkpt lat="44.32538" lon="3.69156">
        <ele>1106.5</ele>
      </trkpt>
      <trkpt lat="44.32539" lon="3.6915">
        <ele>1106.7</ele>
      </trkpt>
      <trkpt lat="44.3254" lon="3.69145">
        <ele>1106.8</ele>
      </trkpt>
      <trkpt lat="44.32541" lon="3.6914">
        <ele>1107.1</ele>
      </trkpt>
      <trkpt lat="44.32542" lon="3.69137">
        <ele>1107.2</ele>
      </trkpt>
      <trkpt lat="44.32542" lon="3.69132">
        <ele>1107.1</ele>
      </trkpt>
      <trkpt lat="44.32543" lon="3.69126">
        <ele>1107</ele>
      </trkpt>
      <trkpt lat="44.32544" lon="3.69121">
        <ele>1107.3</ele>
      </trkpt>
      <trkpt lat="44.32545" lon="3.69117">
        <ele>1107.7</ele>
      </trkpt>
      <trkpt lat="44.32547" lon="3.69112">
        <ele>1107.9</ele>
      </trkpt>
      <trkpt lat="44.32547" lon="3.69107">
        <ele>1107.9</ele>
      </trkpt>
      <trkpt lat="44.32548" lon="3.69101">
        <ele>1107.8</ele>
      </trkpt>
      <trkpt lat="44.32549" lon="3.69096">
        <ele>1107.7</ele>
      </trkpt>
      <trkpt lat="44.32549" lon="3.69091">
        <ele>1107.4</ele>
      </trkpt>
      <trkpt lat="44.32549" lon="3.69086">
        <ele>1107</ele>
      </trkpt>
      <trkpt lat="44.32548" lon="3.69081">
        <ele>1106.3</ele>
      </trkpt>
      <trkpt lat="44.32545" lon="3.6907">
        <ele>1104.3</ele>
      </trkpt>
      <trkpt lat="44.32543" lon="3.69062">
        <ele>1102.8</ele>
      </trkpt>
      <trkpt lat="44.32542" lon="3.69056">
        <ele>1102.1</ele>
      </trkpt>
      <trkpt lat="44.32541" lon="3.69052">
        <ele>1101.8</ele>
      </trkpt>
      <trkpt lat="44.32541" lon="3.69047">
        <ele>1101.3</ele>
      </trkpt>
      <trkpt lat="44.3254" lon="3.69041">
        <ele>1100.9</ele>
      </trkpt>
      <trkpt lat="44.3254" lon="3.69037">
        <ele>1100.5</ele>
      </trkpt>
      <trkpt lat="44.32538" lon="3.69033">
        <ele>1099.7</ele>
      </trkpt>
      <trkpt lat="44.32535" lon="3.69026">
        <ele>1098.2</ele>
      </trkpt>
      <trkpt lat="44.3253" lon="3.69016">
        <ele>1095.8</ele>
      </trkpt>
      <trkpt lat="44.32526" lon="3.69008">
        <ele>1094.3</ele>
      </trkpt>
      <trkpt lat="44.32521" lon="3.68996">
        <ele>1092.7</ele>
      </trkpt>
      <trkpt lat="44.32517" lon="3.68982">
        <ele>1091.3</ele>
      </trkpt>
      <trkpt lat="44.32513" lon="3.68962">
        <ele>1090.2</ele>
      </trkpt>
      <trkpt lat="44.32508" lon="3.68936">
        <ele>1089.3</ele>
      </trkpt>
      <trkpt lat="44.32506" lon="3.68924">
        <ele>1089.2</ele>
      </trkpt>
      <trkpt lat="44.32504" lon="3.68915">
        <ele>1088.9</ele>
      </trkpt>
      <trkpt lat="44.32499" lon="3.68891">
        <ele>1087.2</ele>
      </trkpt>
      <trkpt lat="44.32496" lon="3.68877">
        <ele>1085.9</ele>
      </trkpt>
      <trkpt lat="44.32496" lon="3.68872">
        <ele>1085.6</ele>
      </trkpt>
      <trkpt lat="44.32496" lon="3.68867">
        <ele>1085.6</ele>
      </trkpt>
      <trkpt lat="44.32497" lon="3.68855">
        <ele>1085.8</ele>
      </trkpt>
      <trkpt lat="44.325" lon="3.68802">
        <ele>1086.3</ele>
      </trkpt>
      <trkpt lat="44.32502" lon="3.68785">
        <ele>1086.1</ele>
      </trkpt>
      <trkpt lat="44.32502" lon="3.68775">
        <ele>1085.9</ele>
      </trkpt>
      <trkpt lat="44.32502" lon="3.68769">
        <ele>1085.8</ele>
      </trkpt>
      <trkpt lat="44.32502" lon="3.68763">
        <ele>1085.7</ele>
      </trkpt>
      <trkpt lat="44.32502" lon="3.68757">
        <ele>1085.4</ele>
      </trkpt>
      <trkpt lat="44.32501" lon="3.68752">
        <ele>1085.2</ele>
      </trkpt>
      <trkpt lat="44.325" lon="3.68747">
        <ele>1084.8</ele>
      </trkpt>
      <trkpt lat="44.32499" lon="3.68742">
        <ele>1084.2</ele>
      </trkpt>
      <trkpt lat="44.32499" lon="3.68737">
        <ele>1083.7</ele>
      </trkpt>
      <trkpt lat="44.32499" lon="3.68732">
        <ele>1083.3</ele>
      </trkpt>
      <trkpt lat="44.32499" lon="3.68727">
        <ele>1083.1</ele>
      </trkpt>
      <trkpt lat="44.325" lon="3.68724">
        <ele>1083.1</ele>
      </trkpt>
      <trkpt lat="44.32501" lon="3.6872">
        <ele>1083.1</ele>
      </trkpt>
      <trkpt lat="44.32503" lon="3.68715">
        <ele>1082.9</ele>
      </trkpt>
      <trkpt lat="44.32504" lon="3.68709">
        <ele>1082.6</ele>
      </trkpt>
      <trkpt lat="44.32506" lon="3.687">
        <ele>1082.2</ele>
      </trkpt>
      <trkpt lat="44.32508" lon="3.68694">
        <ele>1082.1</ele>
      </trkpt>
      <trkpt lat="44.32516" lon="3.6867">
        <ele>1081.6</ele>
      </trkpt>
      <trkpt lat="44.32519" lon="3.68659">
        <ele>1081.3</ele>
      </trkpt>
      <trkpt lat="44.32523" lon="3.68647">
        <ele>1080.9</ele>
      </trkpt>
      <trkpt lat="44.32524" lon="3.68641">
        <ele>1080.6</ele>
      </trkpt>
      <trkpt lat="44.32525" lon="3.68635">
        <ele>1080.3</ele>
      </trkpt>
      <trkpt lat="44.32527" lon="3.68617">
        <ele>1079.2</ele>
      </trkpt>
      <trkpt lat="44.32528" lon="3.68611">
        <ele>1078.8</ele>
      </trkpt>
      <trkpt lat="44.32528" lon="3.68605">
        <ele>1078.3</ele>
      </trkpt>
      <trkpt lat="44.32528" lon="3.68597">
        <ele>1077.7</ele>
      </trkpt>
      <trkpt lat="44.3253" lon="3.68596">
        <ele>1077.8</ele>
      </trkpt>
      <trkpt lat="44.32534" lon="3.68592">
        <ele>1077.7</ele>
      </trkpt>
      <trkpt lat="44.32536" lon="3.68595">
        <ele>1078.1</ele>
      </trkpt>
      <trkpt lat="44.3254" lon="3.68601">
        <ele>1078.9</ele>
      </trkpt>
      <trkpt lat="44.32551" lon="3.68611">
        <ele>1080.8</ele>
      </trkpt>
      <trkpt lat="44.32566" lon="3.6862">
        <ele>1083.1</ele>
      </trkpt>
      <trkpt lat="44.32575" lon="3.68627">
        <ele>1085</ele>
      </trkpt>
      <trkpt lat="44.32585" lon="3.68636">
        <ele>1086.6</ele>
      </trkpt>
      <trkpt lat="44.32592" lon="3.68645">
        <ele>1086.1</ele>
      </trkpt>
      <trkpt lat="44.32601" lon="3.68657">
        <ele>1085.3</ele>
      </trkpt>
      <trkpt lat="44.32618" lon="3.68677">
        <ele>1083.8</ele>
      </trkpt>
      <trkpt lat="44.32625" lon="3.68689">
        <ele>1083.2</ele>
      </trkpt>
      <trkpt lat="44.32628" lon="3.68695">
        <ele>1083.1</ele>
      </trkpt>
      <trkpt lat="44.32629" lon="3.687">
        <ele>1083.2</ele>
      </trkpt>
      <trkpt lat="44.32632" lon="3.68707">
        <ele>1083.4</ele>
      </trkpt>
      <trkpt lat="44.32635" lon="3.6873">
        <ele>1084.9</ele>
      </trkpt>
      <trkpt lat="44.32636" lon="3.68747">
        <ele>1086.3</ele>
      </trkpt>
      <trkpt lat="44.32637" lon="3.68783">
        <ele>1090.2</ele>
      </trkpt>
      <trkpt lat="44.32639" lon="3.688">
        <ele>1091.9</ele>
      </trkpt>
      <trkpt lat="44.3264" lon="3.68807">
        <ele>1092.6</ele>
      </trkpt>
      <trkpt lat="44.32641" lon="3.68812">
        <ele>1093.2</ele>
      </trkpt>
      <trkpt lat="44.32642" lon="3.68817">
        <ele>1093.6</ele>
      </trkpt>
      <trkpt lat="44.32643" lon="3.68822">
        <ele>1094.1</ele>
      </trkpt>
      <trkpt lat="44.32644" lon="3.68826">
        <ele>1094.6</ele>
      </trkpt>
      <trkpt lat="44.32646" lon="3.68832">
        <ele>1095.1</ele>
      </trkpt>
      <trkpt lat="44.32647" lon="3.68835">
        <ele>1095.4</ele>
      </trkpt>
      <trkpt lat="44.3265" lon="3.6884">
        <ele>1096</ele>
      </trkpt>
      <trkpt lat="44.32653" lon="3.68845">
        <ele>1096.8</ele>
      </trkpt>
      <trkpt lat="44.32657" lon="3.68849">
        <ele>1097.2</ele>
      </trkpt>
      <trkpt lat="44.32662" lon="3.68852">
        <ele>1097.6</ele>
      </trkpt>
      <trkpt lat="44.32665" lon="3.68854">
        <ele>1097.7</ele>
      </trkpt>
      <trkpt lat="44.32675" lon="3.68858">
        <ele>1098.3</ele>
      </trkpt>
      <trkpt lat="44.32685" lon="3.68861">
        <ele>1098.6</ele>
      </trkpt>
      <trkpt lat="44.32706" lon="3.68865">
        <ele>1099</ele>
      </trkpt>
      <trkpt lat="44.32719" lon="3.68866">
        <ele>1099.1</ele>
      </trkpt>
      <trkpt lat="44.32721" lon="3.68866">
        <ele>1098.9</ele>
      </trkpt>
      <trkpt lat="44.3273" lon="3.68865">
        <ele>1098.4</ele>
      </trkpt>
      <trkpt lat="44.32746" lon="3.68862">
        <ele>1097</ele>
      </trkpt>
      <trkpt lat="44.32761" lon="3.68858">
        <ele>1095.4</ele>
      </trkpt>
      <trkpt lat="44.3278" lon="3.68851">
        <ele>1093.3</ele>
      </trkpt>
      <trkpt lat="44.32794" lon="3.68845">
        <ele>1091.6</ele>
      </trkpt>
      <trkpt lat="44.32813" lon="3.68838">
        <ele>1089.8</ele>
      </trkpt>
      <trkpt lat="44.32817" lon="3.68836">
        <ele>1089.5</ele>
      </trkpt>
      <trkpt lat="44.32825" lon="3.68834">
        <ele>1089.1</ele>
      </trkpt>
      <trkpt lat="44.3283" lon="3.68834">
        <ele>1089</ele>
      </trkpt>
      <trkpt lat="44.32836" lon="3.68834">
        <ele>1088.7</ele>
      </trkpt>
      <trkpt lat="44.3284" lon="3.68834">
        <ele>1088.1</ele>
      </trkpt>
      <trkpt lat="44.32847" lon="3.68835">
        <ele>1087.3</ele>
      </trkpt>
      <trkpt lat="44.32867" lon="3.68837">
        <ele>1084.7</ele>
      </trkpt>
      <trkpt lat="44.32893" lon="3.6884">
        <ele>1080.7</ele>
      </trkpt>
      <trkpt lat="44.32896" lon="3.68842">
        <ele>1080.1</ele>
      </trkpt>
      <trkpt lat="44.329" lon="3.68844">
        <ele>1079.5</ele>
      </trkpt>
      <trkpt lat="44.32901" lon="3.68847">
        <ele>1079.2</ele>
      </trkpt>
      <trkpt lat="44.32901" lon="3.68852">
        <ele>1079.2</ele>
      </trkpt>
      <trkpt lat="44.329" lon="3.68857">
        <ele>1079.5</ele>
      </trkpt>
      <trkpt lat="44.32897" lon="3.68865">
        <ele>1080.3</ele>
      </trkpt>
      <trkpt lat="44.3289" lon="3.68883">
        <ele>1082.6</ele>
      </trkpt>
      <trkpt lat="44.32885" lon="3.68895">
        <ele>1084.7</ele>
      </trkpt>
      <trkpt lat="44.32872" lon="3.68929">
        <ele>1089.6</ele>
      </trkpt>
      <trkpt lat="44.32861" lon="3.68959">
        <ele>1090.8</ele>
      </trkpt>
      <trkpt lat="44.32851" lon="3.68983">
        <ele>1092.3</ele>
      </trkpt>
      <trkpt lat="44.32843" lon="3.69004">
        <ele>1093.6</ele>
      </trkpt>
      <trkpt lat="44.32837" lon="3.69018">
        <ele>1094.2</ele>
      </trkpt>
      <trkpt lat="44.32827" lon="3.69037">
        <ele>1095</ele>
      </trkpt>
      <trkpt lat="44.32808" lon="3.69067">
        <ele>1099.4</ele>
      </trkpt>
      <trkpt lat="44.328" lon="3.6908">
        <ele>1101.8</ele>
      </trkpt>
      <trkpt lat="44.32791" lon="3.69096">
        <ele>1105</ele>
      </trkpt>
      <trkpt lat="44.32788" lon="3.69106">
        <ele>1105.8</ele>
      </trkpt>
      <trkpt lat="44.32786" lon="3.6912">
        <ele>1105.7</ele>
      </trkpt>
      <trkpt lat="44.32784" lon="3.69137">
        <ele>1105.3</ele>
      </trkpt>
      <trkpt lat="44.32785" lon="3.69151">
        <ele>1104</ele>
      </trkpt>
      <trkpt lat="44.32787" lon="3.69182">
        <ele>1099.6</ele>
      </trkpt>
      <trkpt lat="44.32789" lon="3.69199">
        <ele>1097.1</ele>
      </trkpt>
      <trkpt lat="44.32788" lon="3.69219">
        <ele>1095.5</ele>
      </trkpt>
      <trkpt lat="44.32786" lon="3.69238">
        <ele>1094.9</ele>
      </trkpt>
      <trkpt lat="44.3278" lon="3.69257">
        <ele>1096.3</ele>
      </trkpt>
      <trkpt lat="44.32777" lon="3.6927">
        <ele>1096.2</ele>
      </trkpt>
      <trkpt lat="44.32757" lon="3.69325">
        <ele>1098.3</ele>
      </trkpt>
      <trkpt lat="44.32742" lon="3.69366">
        <ele>1100.5</ele>
      </trkpt>
      <trkpt lat="44.3273" lon="3.69405">
        <ele>1101.1</ele>
      </trkpt>
      <trkpt lat="44.32729" lon="3.69412">
        <ele>1100.8</ele>
      </trkpt>
      <trkpt lat="44.32728" lon="3.69418">
        <ele>1100.5</ele>
      </trkpt>
      <trkpt lat="44.32726" lon="3.69424">
        <ele>1100.4</ele>
      </trkpt>
      <trkpt lat="44.32725" lon="3.69429">
        <ele>1100.3</ele>
      </trkpt>
      <trkpt lat="44.32724" lon="3.69435">
        <ele>1100.4</ele>
      </trkpt>
      <trkpt lat="44.32723" lon="3.69442">
        <ele>1100</ele>
      </trkpt>
      <trkpt lat="44.32723" lon="3.69448">
        <ele>1099.5</ele>
      </trkpt>
      <trkpt lat="44.32723" lon="3.69455">
        <ele>1098.4</ele>
      </trkpt>
      <trkpt lat="44.32724" lon="3.69461">
        <ele>1097.4</ele>
      </trkpt>
      <trkpt lat="44.32724" lon="3.69467">
        <ele>1096.4</ele>
      </trkpt>
      <trkpt lat="44.32724" lon="3.69473">
        <ele>1095.5</ele>
      </trkpt>
      <trkpt lat="44.32724" lon="3.69481">
        <ele>1094.6</ele>
      </trkpt>
      <trkpt lat="44.32724" lon="3.69489">
        <ele>1093.5</ele>
      </trkpt>
      <trkpt lat="44.32724" lon="3.69496">
        <ele>1092.7</ele>
      </trkpt>
      <trkpt lat="44.32724" lon="3.69503">
        <ele>1092.2</ele>
      </trkpt>
      <trkpt lat="44.32723" lon="3.69509">
        <ele>1091.8</ele>
      </trkpt>
      <trkpt lat="44.32723" lon="3.69517">
        <ele>1091.3</ele>
      </trkpt>
      <trkpt lat="44.32722" lon="3.69524">
        <ele>1090.8</ele>
      </trkpt>
      <trkpt lat="44.32721" lon="3.69532">
        <ele>1090.7</ele>
      </trkpt>
      <trkpt lat="44.32719" lon="3.69538">
        <ele>1091</ele>
      </trkpt>
      <trkpt lat="44.32717" lon="3.69545">
        <ele>1091</ele>
      </trkpt>
      <trkpt lat="44.32714" lon="3.69554">
        <ele>1091.7</ele>
      </trkpt>
      <trkpt lat="44.32709" lon="3.69566">
        <ele>1092.6</ele>
      </trkpt>
      <trkpt lat="44.32705" lon="3.69577">
        <ele>1093.7</ele>
      </trkpt>
      <trkpt lat="44.32701" lon="3.69584">
        <ele>1094.4</ele>
      </trkpt>
      <trkpt lat="44.32658" lon="3.69657">
        <ele>1096.6</ele>
      </trkpt>
      <trkpt lat="44.32647" lon="3.69675">
        <ele>1097.2</ele>
      </trkpt>
      <trkpt lat="44.32622" lon="3.69719">
        <ele>1097.7</ele>
      </trkpt>
      <trkpt lat="44.32602" lon="3.69756">
        <ele>1097.3</ele>
      </trkpt>
      <trkpt lat="44.32531" lon="3.6988">
        <ele>1101.6</ele>
      </trkpt>
      <trkpt lat="44.32524" lon="3.69892">
        <ele>1102.2</ele>
      </trkpt>
      <trkpt lat="44.32507" lon="3.69935">
        <ele>1101.7</ele>
      </trkpt>
      <trkpt lat="44.32477" lon="3.70011">
        <ele>1103</ele>
      </trkpt>
      <trkpt lat="44.32451" lon="3.70086">
        <ele>1106.1</ele>
      </trkpt>
      <trkpt lat="44.32445" lon="3.70113">
        <ele>1106.9</ele>
      </trkpt>
      <trkpt lat="44.32443" lon="3.70125">
        <ele>1106.8</ele>
      </trkpt>
      <trkpt lat="44.32441" lon="3.70147">
        <ele>1105.8</ele>
      </trkpt>
      <trkpt lat="44.3244" lon="3.70179">
        <ele>1104.8</ele>
      </trkpt>
      <trkpt lat="44.32439" lon="3.70185">
        <ele>1104.8</ele>
      </trkpt>
      <trkpt lat="44.32437" lon="3.70222">
        <ele>1105.1</ele>
      </trkpt>
      <trkpt lat="44.32437" lon="3.70263">
        <ele>1105.7</ele>
      </trkpt>
      <trkpt lat="44.32432" lon="3.70297">
        <ele>1108.1</ele>
      </trkpt>
      <trkpt lat="44.32428" lon="3.70321">
        <ele>1109.6</ele>
      </trkpt>
      <trkpt lat="44.32421" lon="3.7035">
        <ele>1111.9</ele>
      </trkpt>
      <trkpt lat="44.32418" lon="3.70362">
        <ele>1113</ele>
      </trkpt>
      <trkpt lat="44.32417" lon="3.70367">
        <ele>1113.4</ele>
      </trkpt>
      <trkpt lat="44.32416" lon="3.70372">
        <ele>1114.1</ele>
      </trkpt>
      <trkpt lat="44.32415" lon="3.70377">
        <ele>1114.7</ele>
      </trkpt>
      <trkpt lat="44.32415" lon="3.70382">
        <ele>1115.1</ele>
      </trkpt>
      <trkpt lat="44.32417" lon="3.7039">
        <ele>1115.1</ele>
      </trkpt>
      <trkpt lat="44.32419" lon="3.70393">
        <ele>1115.4</ele>
      </trkpt>
      <trkpt lat="44.3242" lon="3.70396">
        <ele>1115.6</ele>
      </trkpt>
      <trkpt lat="44.32423" lon="3.70398">
        <ele>1115.9</ele>
      </trkpt>
      <trkpt lat="44.32425" lon="3.704">
        <ele>1116.2</ele>
      </trkpt>
      <trkpt lat="44.32428" lon="3.70401">
        <ele>1116.4</ele>
      </trkpt>
      <trkpt lat="44.32429" lon="3.70401">
        <ele>1116.4</ele>
      </trkpt>
      <trkpt lat="44.32434" lon="3.70401">
        <ele>1116.7</ele>
      </trkpt>
      <trkpt lat="44.32437" lon="3.70399">
        <ele>1116.6</ele>
      </trkpt>
      <trkpt lat="44.32443" lon="3.70391">
        <ele>1115.9</ele>
      </trkpt>
      <trkpt lat="44.32451" lon="3.70379">
        <ele>1114.3</ele>
      </trkpt>
      <trkpt lat="44.32459" lon="3.70369">
        <ele>1112.8</ele>
      </trkpt>
      <trkpt lat="44.32473" lon="3.70356">
        <ele>1110</ele>
      </trkpt>
      <trkpt lat="44.32508" lon="3.70324">
        <ele>1103.6</ele>
      </trkpt>
      <trkpt lat="44.32525" lon="3.70304">
        <ele>1105.3</ele>
      </trkpt>
      <trkpt lat="44.32535" lon="3.70282">
        <ele>1103.5</ele>
      </trkpt>
      <trkpt lat="44.32547" lon="3.70256">
        <ele>1101</ele>
      </trkpt>
      <trkpt lat="44.32549" lon="3.70252">
        <ele>1100.5</ele>
      </trkpt>
      <trkpt lat="44.32559" lon="3.70231">
        <ele>1098</ele>
      </trkpt>
      <trkpt lat="44.32564" lon="3.70226">
        <ele>1097.8</ele>
      </trkpt>
      <trkpt lat="44.32573" lon="3.70216">
        <ele>1096.9</ele>
      </trkpt>
      <trkpt lat="44.32587" lon="3.70203">
        <ele>1095.4</ele>
      </trkpt>
      <trkpt lat="44.32602" lon="3.70191">
        <ele>1094.3</ele>
      </trkpt>
      <trkpt lat="44.32616" lon="3.70183">
        <ele>1093.3</ele>
      </trkpt>
      <trkpt lat="44.32626" lon="3.70178">
        <ele>1093</ele>
      </trkpt>
      <trkpt lat="44.32636" lon="3.70174">
        <ele>1093</ele>
      </trkpt>
      <trkpt lat="44.32647" lon="3.70171">
        <ele>1093.3</ele>
      </trkpt>
      <trkpt lat="44.32664" lon="3.70167">
        <ele>1094</ele>
      </trkpt>
      <trkpt lat="44.3268" lon="3.70164">
        <ele>1093.8</ele>
      </trkpt>
      <trkpt lat="44.3269" lon="3.70163">
        <ele>1093.9</ele>
      </trkpt>
      <trkpt lat="44.32699" lon="3.70162">
        <ele>1094.1</ele>
      </trkpt>
      <trkpt lat="44.32712" lon="3.70164">
        <ele>1095.6</ele>
      </trkpt>
      <trkpt lat="44.32735" lon="3.70168">
        <ele>1098.4</ele>
      </trkpt>
      <trkpt lat="44.32742" lon="3.70167">
        <ele>1098.7</ele>
      </trkpt>
      <trkpt lat="44.32765" lon="3.70162">
        <ele>1097</ele>
      </trkpt>
      <trkpt lat="44.32778" lon="3.70159">
        <ele>1095.8</ele>
      </trkpt>
      <trkpt lat="44.32788" lon="3.70158">
        <ele>1095.3</ele>
      </trkpt>
      <trkpt lat="44.32801" lon="3.70157">
        <ele>1094.9</ele>
      </trkpt>
      <trkpt lat="44.32812" lon="3.70157">
        <ele>1095</ele>
      </trkpt>
      <trkpt lat="44.3282" lon="3.70159">
        <ele>1095.7</ele>
      </trkpt>
      <trkpt lat="44.3283" lon="3.70162">
        <ele>1096.6</ele>
      </trkpt>
      <trkpt lat="44.32836" lon="3.70166">
        <ele>1097.5</ele>
      </trkpt>
      <trkpt lat="44.32845" lon="3.70174">
        <ele>1098</ele>
      </trkpt>
      <trkpt lat="44.32848" lon="3.70179">
        <ele>1098.3</ele>
      </trkpt>
      <trkpt lat="44.3285" lon="3.70185">
        <ele>1098.9</ele>
      </trkpt>
      <trkpt lat="44.32852" lon="3.70196">
        <ele>1099.8</ele>
      </trkpt>
      <trkpt lat="44.32853" lon="3.70211">
        <ele>1101.4</ele>
      </trkpt>
      <trkpt lat="44.32853" lon="3.70224">
        <ele>1102.8</ele>
      </trkpt>
      <trkpt lat="44.32853" lon="3.70239">
        <ele>1104.3</ele>
      </trkpt>
      <trkpt lat="44.32854" lon="3.70244">
        <ele>1104.7</ele>
      </trkpt>
      <trkpt lat="44.32855" lon="3.70249">
        <ele>1105</ele>
      </trkpt>
      <trkpt lat="44.32857" lon="3.70253">
        <ele>1105.3</ele>
      </trkpt>
      <trkpt lat="44.3286" lon="3.70257">
        <ele>1105.4</ele>
      </trkpt>
      <trkpt lat="44.32879" lon="3.7027">
        <ele>1104.4</ele>
      </trkpt>
      <trkpt lat="44.3289" lon="3.70278">
        <ele>1103.9</ele>
      </trkpt>
      <trkpt lat="44.32918" lon="3.70303">
        <ele>1103.9</ele>
      </trkpt>
      <trkpt lat="44.32952" lon="3.70328">
        <ele>1098.2</ele>
      </trkpt>
      <trkpt lat="44.32983" lon="3.70356">
        <ele>1093.4</ele>
      </trkpt>
      <trkpt lat="44.32986" lon="3.7036">
        <ele>1093.2</ele>
      </trkpt>
      <trkpt lat="44.32989" lon="3.70364">
        <ele>1093.1</ele>
      </trkpt>
      <trkpt lat="44.3299" lon="3.70369">
        <ele>1093.3</ele>
      </trkpt>
      <trkpt lat="44.32992" lon="3.70374">
        <ele>1093.8</ele>
      </trkpt>
      <trkpt lat="44.32993" lon="3.70382">
        <ele>1094.8</ele>
      </trkpt>
      <trkpt lat="44.32994" lon="3.70398">
        <ele>1097.1</ele>
      </trkpt>
      <trkpt lat="44.32994" lon="3.70418">
        <ele>1100.7</ele>
      </trkpt>
      <trkpt lat="44.32992" lon="3.70442">
        <ele>1103.3</ele>
      </trkpt>
      <trkpt lat="44.32991" lon="3.70453">
        <ele>1104.3</ele>
      </trkpt>
      <trkpt lat="44.32992" lon="3.70459">
        <ele>1104.7</ele>
      </trkpt>
      <trkpt lat="44.32992" lon="3.70463">
        <ele>1104.6</ele>
      </trkpt>
      <trkpt lat="44.32995" lon="3.70471">
        <ele>1104.2</ele>
      </trkpt>
      <trkpt lat="44.32997" lon="3.70475">
        <ele>1103.7</ele>
      </trkpt>
      <trkpt lat="44.32997" lon="3.70477">
        <ele>1103.4</ele>
      </trkpt>
      <trkpt lat="44.33002" lon="3.70489">
        <ele>1102.5</ele>
      </trkpt>
      <trkpt lat="44.33005" lon="3.70496">
        <ele>1102.2</ele>
      </trkpt>
      <trkpt lat="44.33013" lon="3.70519">
        <ele>1103.2</ele>
      </trkpt>
      <trkpt lat="44.3303" lon="3.70564">
        <ele>1106.2</ele>
      </trkpt>
      <trkpt lat="44.33053" lon="3.70609">
        <ele>1107.3</ele>
      </trkpt>
      <trkpt lat="44.33057" lon="3.70613">
        <ele>1107</ele>
      </trkpt>
      <trkpt lat="44.33065" lon="3.70619">
        <ele>1106</ele>
      </trkpt>
      <trkpt lat="44.33069" lon="3.70621">
        <ele>1105.4</ele>
      </trkpt>
      <trkpt lat="44.33073" lon="3.70622">
        <ele>1104.7</ele>
      </trkpt>
      <trkpt lat="44.33077" lon="3.70622">
        <ele>1103.9</ele>
      </trkpt>
      <trkpt lat="44.33083" lon="3.70621">
        <ele>1102.5</ele>
      </trkpt>
      <trkpt lat="44.33085" lon="3.7062">
        <ele>1102.2</ele>
      </trkpt>
      <trkpt lat="44.33088" lon="3.70619">
        <ele>1101.9</ele>
      </trkpt>
      <trkpt lat="44.33095" lon="3.70615">
        <ele>1101.3</ele>
      </trkpt>
      <trkpt lat="44.3311" lon="3.70608">
        <ele>1100.1</ele>
      </trkpt>
      <trkpt lat="44.33124" lon="3.70604">
        <ele>1099.4</ele>
      </trkpt>
      <trkpt lat="44.33132" lon="3.70603">
        <ele>1099.2</ele>
      </trkpt>
      <trkpt lat="44.33141" lon="3.70601">
        <ele>1098.9</ele>
      </trkpt>
      <trkpt lat="44.33154" lon="3.70597">
        <ele>1098.3</ele>
      </trkpt>
      <trkpt lat="44.33162" lon="3.70592">
        <ele>1097.5</ele>
      </trkpt>
      <trkpt lat="44.33171" lon="3.70585">
        <ele>1096.1</ele>
      </trkpt>
      <trkpt lat="44.33182" lon="3.70575">
        <ele>1093.2</ele>
      </trkpt>
      <trkpt lat="44.3319" lon="3.70569">
        <ele>1091.7</ele>
      </trkpt>
      <trkpt lat="44.33201" lon="3.70564">
        <ele>1090.3</ele>
      </trkpt>
      <trkpt lat="44.33206" lon="3.70562">
        <ele>1089.8</ele>
      </trkpt>
      <trkpt lat="44.33211" lon="3.70561">
        <ele>1089.4</ele>
      </trkpt>
      <trkpt lat="44.33217" lon="3.7056">
        <ele>1089.1</ele>
      </trkpt>
      <trkpt lat="44.33222" lon="3.70559">
        <ele>1088.9</ele>
      </trkpt>
      <trkpt lat="44.33227" lon="3.70559">
        <ele>1088.8</ele>
      </trkpt>
      <trkpt lat="44.33231" lon="3.70559">
        <ele>1088.7</ele>
      </trkpt>
      <trkpt lat="44.33235" lon="3.70559">
        <ele>1088.8</ele>
      </trkpt>
      <trkpt lat="44.33239" lon="3.7056">
        <ele>1088.8</ele>
      </trkpt>
      <trkpt lat="44.33242" lon="3.70562">
        <ele>1089</ele>
      </trkpt>
      <trkpt lat="44.33245" lon="3.70564">
        <ele>1089.2</ele>
      </trkpt>
      <trkpt lat="44.33248" lon="3.70567">
        <ele>1089.7</ele>
      </trkpt>
      <trkpt lat="44.33251" lon="3.7057">
        <ele>1089.9</ele>
      </trkpt>
      <trkpt lat="44.33253" lon="3.70573">
        <ele>1090.1</ele>
      </trkpt>
      <trkpt lat="44.33255" lon="3.70578">
        <ele>1090.6</ele>
      </trkpt>
      <trkpt lat="44.33256" lon="3.70581">
        <ele>1090.9</ele>
      </trkpt>
      <trkpt lat="44.33257" lon="3.70587">
        <ele>1091.4</ele>
      </trkpt>
      <trkpt lat="44.33258" lon="3.70592">
        <ele>1091.7</ele>
      </trkpt>
      <trkpt lat="44.33259" lon="3.70601">
        <ele>1092.3</ele>
      </trkpt>
      <trkpt lat="44.33258" lon="3.70613">
        <ele>1093.5</ele>
      </trkpt>
      <trkpt lat="44.33254" lon="3.70627">
        <ele>1095.2</ele>
      </trkpt>
      <trkpt lat="44.33246" lon="3.70652">
        <ele>1098.3</ele>
      </trkpt>
      <trkpt lat="44.33242" lon="3.70666">
        <ele>1100</ele>
      </trkpt>
      <trkpt lat="44.33241" lon="3.70678">
        <ele>1100.2</ele>
      </trkpt>
      <trkpt lat="44.3324" lon="3.70691">
        <ele>1100.2</ele>
      </trkpt>
      <trkpt lat="44.3324" lon="3.70714">
        <ele>1100.1</ele>
      </trkpt>
      <trkpt lat="44.3324" lon="3.70736">
        <ele>1100</ele>
      </trkpt>
      <trkpt lat="44.3325" lon="3.70732">
        <ele>1098.2</ele>
      </trkpt>
      <trkpt lat="44.33255" lon="3.70732">
        <ele>1097.6</ele>
      </trkpt>
      <trkpt lat="44.33267" lon="3.70733">
        <ele>1096.2</ele>
      </trkpt>
      <trkpt lat="44.33284" lon="3.70735">
        <ele>1094.3</ele>
      </trkpt>
      <trkpt lat="44.33304" lon="3.70738">
        <ele>1092</ele>
      </trkpt>
      <trkpt lat="44.33316" lon="3.70738">
        <ele>1090.7</ele>
      </trkpt>
      <trkpt lat="44.33324" lon="3.70737">
        <ele>1089.7</ele>
      </trkpt>
      <trkpt lat="44.33332" lon="3.70734">
        <ele>1088.8</ele>
      </trkpt>
      <trkpt lat="44.33337" lon="3.70746">
        <ele>1089</ele>
      </trkpt>
      <trkpt lat="44.33338" lon="3.70759">
        <ele>1089.1</ele>
      </trkpt>
      <trkpt lat="44.33339" lon="3.70777">
        <ele>1088.9</ele>
      </trkpt>
      <trkpt lat="44.33338" lon="3.70799">
        <ele>1088.6</ele>
      </trkpt>
      <trkpt lat="44.33337" lon="3.70811">
        <ele>1088.4</ele>
      </trkpt>
      <trkpt lat="44.33333" lon="3.70824">
        <ele>1088.1</ele>
      </trkpt>
      <trkpt lat="44.33332" lon="3.70827">
        <ele>1088.2</ele>
      </trkpt>
      <trkpt lat="44.33322" lon="3.70856">
        <ele>1088.1</ele>
      </trkpt>
      <trkpt lat="44.3331" lon="3.70888">
        <ele>1087.7</ele>
      </trkpt>
      <trkpt lat="44.33298" lon="3.70927">
        <ele>1086.8</ele>
      </trkpt>
      <trkpt lat="44.33287" lon="3.70966">
        <ele>1085.7</ele>
      </trkpt>
      <trkpt lat="44.33281" lon="3.70988">
        <ele>1084.8</ele>
      </trkpt>
      <trkpt lat="44.33277" lon="3.71012">
        <ele>1084.2</ele>
      </trkpt>
      <trkpt lat="44.33275" lon="3.71027">
        <ele>1084</ele>
      </trkpt>
      <trkpt lat="44.33272" lon="3.71041">
        <ele>1083.7</ele>
      </trkpt>
      <trkpt lat="44.33271" lon="3.71046">
        <ele>1083.6</ele>
      </trkpt>
      <trkpt lat="44.3327" lon="3.71053">
        <ele>1083.5</ele>
      </trkpt>
      <trkpt lat="44.33268" lon="3.71062">
        <ele>1083.3</ele>
      </trkpt>
      <trkpt lat="44.33268" lon="3.7107">
        <ele>1083.2</ele>
      </trkpt>
      <trkpt lat="44.33269" lon="3.71079">
        <ele>1083.2</ele>
      </trkpt>
      <trkpt lat="44.33271" lon="3.71091">
        <ele>1083.3</ele>
      </trkpt>
      <trkpt lat="44.33273" lon="3.7111">
        <ele>1083.4</ele>
      </trkpt>
      <trkpt lat="44.33276" lon="3.71131">
        <ele>1083.6</ele>
      </trkpt>
      <trkpt lat="44.33276" lon="3.71153">
        <ele>1083.6</ele>
      </trkpt>
      <trkpt lat="44.33276" lon="3.71172">
        <ele>1083.5</ele>
      </trkpt>
      <trkpt lat="44.33273" lon="3.712">
        <ele>1083.2</ele>
      </trkpt>
      <trkpt lat="44.33273" lon="3.7122">
        <ele>1082.9</ele>
      </trkpt>
      <trkpt lat="44.33274" lon="3.71228">
        <ele>1082.8</ele>
      </trkpt>
      <trkpt lat="44.33278" lon="3.71237">
        <ele>1082.8</ele>
      </trkpt>
      <trkpt lat="44.33286" lon="3.71252">
        <ele>1082.7</ele>
      </trkpt>
      <trkpt lat="44.33302" lon="3.71274">
        <ele>1081.3</ele>
      </trkpt>
      <trkpt lat="44.33304" lon="3.71279">
        <ele>1080.9</ele>
      </trkpt>
      <trkpt lat="44.33312" lon="3.71292">
        <ele>1079.8</ele>
      </trkpt>
      <trkpt lat="44.33315" lon="3.71302">
        <ele>1079</ele>
      </trkpt>
      <trkpt lat="44.33318" lon="3.71315">
        <ele>1077.8</ele>
      </trkpt>
      <trkpt lat="44.33323" lon="3.71329">
        <ele>1076.6</ele>
      </trkpt>
      <trkpt lat="44.33332" lon="3.71349">
        <ele>1073.7</ele>
      </trkpt>
      <trkpt lat="44.33345" lon="3.71382">
        <ele>1069.1</ele>
      </trkpt>
      <trkpt lat="44.33357" lon="3.71415">
        <ele>1063.4</ele>
      </trkpt>
      <trkpt lat="44.33363" lon="3.71425">
        <ele>1061.7</ele>
      </trkpt>
      <trkpt lat="44.33369" lon="3.7143">
        <ele>1060.8</ele>
      </trkpt>
      <trkpt lat="44.33375" lon="3.71432">
        <ele>1060.3</ele>
      </trkpt>
      <trkpt lat="44.33382" lon="3.71432">
        <ele>1060.1</ele>
      </trkpt>
      <trkpt lat="44.33393" lon="3.7143">
        <ele>1060</ele>
      </trkpt>
      <trkpt lat="44.33413" lon="3.71424">
        <ele>1060.1</ele>
      </trkpt>
      <trkpt lat="44.33424" lon="3.71421">
        <ele>1059.6</ele>
      </trkpt>
      <trkpt lat="44.33436" lon="3.7142">
        <ele>1058.4</ele>
      </trkpt>
      <trkpt lat="44.33443" lon="3.71419">
        <ele>1057.6</ele>
      </trkpt>
      <trkpt lat="44.33449" lon="3.71418">
        <ele>1057</ele>
      </trkpt>
      <trkpt lat="44.33459" lon="3.71417">
        <ele>1055.9</ele>
      </trkpt>
      <trkpt lat="44.33483" lon="3.71414">
        <ele>1053.6</ele>
      </trkpt>
      <trkpt lat="44.33492" lon="3.71411">
        <ele>1053.1</ele>
      </trkpt>
      <trkpt lat="44.33503" lon="3.71405">
        <ele>1052.9</ele>
      </trkpt>
      <trkpt lat="44.3351" lon="3.71398">
        <ele>1053.6</ele>
      </trkpt>
      <trkpt lat="44.33518" lon="3.71387">
        <ele>1054.9</ele>
      </trkpt>
      <trkpt lat="44.33522" lon="3.71379">
        <ele>1055.6</ele>
      </trkpt>
      <trkpt lat="44.33527" lon="3.71375">
        <ele>1055.8</ele>
      </trkpt>
      <trkpt lat="44.33532" lon="3.71374">
        <ele>1055.4</ele>
      </trkpt>
      <trkpt lat="44.33536" lon="3.71375">
        <ele>1054.8</ele>
      </trkpt>
      <trkpt lat="44.33541" lon="3.71379">
        <ele>1053.9</ele>
      </trkpt>
      <trkpt lat="44.33545" lon="3.71388">
        <ele>1052.3</ele>
      </trkpt>
      <trkpt lat="44.33548" lon="3.71397">
        <ele>1051.1</ele>
      </trkpt>
      <trkpt lat="44.33551" lon="3.71403">
        <ele>1050.1</ele>
      </trkpt>
      <trkpt lat="44.33558" lon="3.71407">
        <ele>1049.2</ele>
      </trkpt>
      <trkpt lat="44.33566" lon="3.71407">
        <ele>1048.8</ele>
      </trkpt>
      <trkpt lat="44.33578" lon="3.71405">
        <ele>1048.2</ele>
      </trkpt>
      <trkpt lat="44.33581" lon="3.71424">
        <ele>1048.3</ele>
      </trkpt>
      <trkpt lat="44.33571" lon="3.71433">
        <ele>1050.1</ele>
      </trkpt>
      <trkpt lat="44.3356" lon="3.71442">
        <ele>1051.7</ele>
      </trkpt>
      <trkpt lat="44.33549" lon="3.71453">
        <ele>1053.2</ele>
      </trkpt>
      <trkpt lat="44.33541" lon="3.71461">
        <ele>1054</ele>
      </trkpt>
      <trkpt lat="44.33532" lon="3.71466">
        <ele>1054.4</ele>
      </trkpt>
      <trkpt lat="44.33521" lon="3.71469">
        <ele>1054.5</ele>
      </trkpt>
      <trkpt lat="44.33503" lon="3.71471">
        <ele>1054.3</ele>
      </trkpt>
      <trkpt lat="44.33492" lon="3.71474">
        <ele>1054.3</ele>
      </trkpt>
      <trkpt lat="44.33478" lon="3.71479">
        <ele>1054.2</ele>
      </trkpt>
      <trkpt lat="44.33467" lon="3.71484">
        <ele>1053.9</ele>
      </trkpt>
      <trkpt lat="44.33457" lon="3.71493">
        <ele>1053.2</ele>
      </trkpt>
      <trkpt lat="44.33448" lon="3.71505">
        <ele>1053</ele>
      </trkpt>
      <trkpt lat="44.33445" lon="3.71511">
        <ele>1053.6</ele>
      </trkpt>
      <trkpt lat="44.3344" lon="3.71521">
        <ele>1054.4</ele>
      </trkpt>
      <trkpt lat="44.33434" lon="3.71536">
        <ele>1055.8</ele>
      </trkpt>
      <trkpt lat="44.3343" lon="3.7155">
        <ele>1057.2</ele>
      </trkpt>
      <trkpt lat="44.33428" lon="3.71566">
        <ele>1058.8</ele>
      </trkpt>
      <trkpt lat="44.33428" lon="3.71578">
        <ele>1060.1</ele>
      </trkpt>
      <trkpt lat="44.33426" lon="3.71583">
        <ele>1060.5</ele>
      </trkpt>
      <trkpt lat="44.33424" lon="3.71587">
        <ele>1060.5</ele>
      </trkpt>
      <trkpt lat="44.33418" lon="3.71592">
        <ele>1060.1</ele>
      </trkpt>
      <trkpt lat="44.3341" lon="3.71596">
        <ele>1059.8</ele>
      </trkpt>
      <trkpt lat="44.33401" lon="3.71599">
        <ele>1059.6</ele>
      </trkpt>
      <trkpt lat="44.33397" lon="3.71601">
        <ele>1059.5</ele>
      </trkpt>
      <trkpt lat="44.33394" lon="3.71603">
        <ele>1059.5</ele>
      </trkpt>
      <trkpt lat="44.3339" lon="3.71607">
        <ele>1059.5</ele>
      </trkpt>
      <trkpt lat="44.33384" lon="3.71615">
        <ele>1059.8</ele>
      </trkpt>
      <trkpt lat="44.3338" lon="3.71624">
        <ele>1060.1</ele>
      </trkpt>
      <trkpt lat="44.33377" lon="3.71633">
        <ele>1060.4</ele>
      </trkpt>
      <trkpt lat="44.33374" lon="3.71645">
        <ele>1061</ele>
      </trkpt>
      <trkpt lat="44.33373" lon="3.71654">
        <ele>1061.4</ele>
      </trkpt>
      <trkpt lat="44.3337" lon="3.71662">
        <ele>1061.7</ele>
      </trkpt>
      <trkpt lat="44.33366" lon="3.7167">
        <ele>1061.7</ele>
      </trkpt>
      <trkpt lat="44.33362" lon="3.71677">
        <ele>1061.8</ele>
      </trkpt>
      <trkpt lat="44.33358" lon="3.71686">
        <ele>1062</ele>
      </trkpt>
      <trkpt lat="44.33351" lon="3.71708">
        <ele>1062.5</ele>
      </trkpt>
      <trkpt lat="44.33346" lon="3.71725">
        <ele>1062.8</ele>
      </trkpt>
      <trkpt lat="44.33343" lon="3.71736">
        <ele>1063</ele>
      </trkpt>
      <trkpt lat="44.33341" lon="3.71757">
        <ele>1063.6</ele>
      </trkpt>
      <trkpt lat="44.33336" lon="3.71784">
        <ele>1063.4</ele>
      </trkpt>
      <trkpt lat="44.3333" lon="3.71808">
        <ele>1063.5</ele>
      </trkpt>
      <trkpt lat="44.33323" lon="3.71827">
        <ele>1064.3</ele>
      </trkpt>
      <trkpt lat="44.33313" lon="3.71845">
        <ele>1065.3</ele>
      </trkpt>
      <trkpt lat="44.33307" lon="3.71857">
        <ele>1065.8</ele>
      </trkpt>
      <trkpt lat="44.33302" lon="3.71864">
        <ele>1066.1</ele>
      </trkpt>
      <trkpt lat="44.33299" lon="3.71873">
        <ele>1066.2</ele>
      </trkpt>
      <trkpt lat="44.33297" lon="3.71883">
        <ele>1066.3</ele>
      </trkpt>
      <trkpt lat="44.33294" lon="3.71897">
        <ele>1066.4</ele>
      </trkpt>
      <trkpt lat="44.33286" lon="3.71916">
        <ele>1065.9</ele>
      </trkpt>
      <trkpt lat="44.3328" lon="3.71931">
        <ele>1065.4</ele>
      </trkpt>
      <trkpt lat="44.33277" lon="3.71943">
        <ele>1065.1</ele>
      </trkpt>
      <trkpt lat="44.33276" lon="3.71952">
        <ele>1065</ele>
      </trkpt>
      <trkpt lat="44.33276" lon="3.71963">
        <ele>1065</ele>
      </trkpt>
      <trkpt lat="44.33277" lon="3.7198">
        <ele>1065.3</ele>
      </trkpt>
      <trkpt lat="44.33279" lon="3.71996">
        <ele>1065.8</ele>
      </trkpt>
      <trkpt lat="44.33279" lon="3.72012">
        <ele>1066.1</ele>
      </trkpt>
      <trkpt lat="44.3328" lon="3.72016">
        <ele>1066.3</ele>
      </trkpt>
      <trkpt lat="44.33282" lon="3.72029">
        <ele>1066.8</ele>
      </trkpt>
      <trkpt lat="44.33284" lon="3.7204">
        <ele>1067.4</ele>
      </trkpt>
      <trkpt lat="44.33286" lon="3.72048">
        <ele>1067.8</ele>
      </trkpt>
      <trkpt lat="44.3329" lon="3.72056">
        <ele>1068.5</ele>
      </trkpt>
      <trkpt lat="44.33297" lon="3.72066">
        <ele>1069.5</ele>
      </trkpt>
      <trkpt lat="44.33307" lon="3.72079">
        <ele>1070.8</ele>
      </trkpt>
      <trkpt lat="44.33318" lon="3.72093">
        <ele>1072.6</ele>
      </trkpt>
      <trkpt lat="44.33326" lon="3.72107">
        <ele>1074.3</ele>
      </trkpt>
      <trkpt lat="44.3333" lon="3.72114">
        <ele>1075.1</ele>
      </trkpt>
      <trkpt lat="44.33331" lon="3.72119">
        <ele>1075.4</ele>
      </trkpt>
      <trkpt lat="44.33331" lon="3.72123">
        <ele>1075.6</ele>
      </trkpt>
      <trkpt lat="44.33328" lon="3.72128">
        <ele>1075.6</ele>
      </trkpt>
      <trkpt lat="44.33323" lon="3.72133">
        <ele>1075.3</ele>
      </trkpt>
      <trkpt lat="44.33315" lon="3.72138">
        <ele>1074.6</ele>
      </trkpt>
      <trkpt lat="44.33302" lon="3.72143">
        <ele>1073.6</ele>
      </trkpt>
      <trkpt lat="44.33294" lon="3.72149">
        <ele>1073.2</ele>
      </trkpt>
      <trkpt lat="44.33291" lon="3.72153">
        <ele>1073.1</ele>
      </trkpt>
      <trkpt lat="44.33289" lon="3.72158">
        <ele>1073.2</ele>
      </trkpt>
      <trkpt lat="44.33289" lon="3.72162">
        <ele>1073.5</ele>
      </trkpt>
      <trkpt lat="44.3329" lon="3.72166">
        <ele>1073.8</ele>
      </trkpt>
      <trkpt lat="44.33294" lon="3.72172">
        <ele>1074.6</ele>
      </trkpt>
      <trkpt lat="44.33298" lon="3.72177">
        <ele>1075.4</ele>
      </trkpt>
      <trkpt lat="44.33302" lon="3.72183">
        <ele>1076.2</ele>
      </trkpt>
      <trkpt lat="44.33306" lon="3.72197">
        <ele>1077.5</ele>
      </trkpt>
      <trkpt lat="44.33309" lon="3.72217">
        <ele>1079.2</ele>
      </trkpt>
      <trkpt lat="44.33311" lon="3.72247">
        <ele>1081.4</ele>
      </trkpt>
      <trkpt lat="44.33312" lon="3.72272">
        <ele>1082.5</ele>
      </trkpt>
      <trkpt lat="44.33311" lon="3.72305">
        <ele>1083.7</ele>
      </trkpt>
      <trkpt lat="44.33311" lon="3.72323">
        <ele>1084.3</ele>
      </trkpt>
      <trkpt lat="44.33312" lon="3.72337">
        <ele>1084.8</ele>
      </trkpt>
      <trkpt lat="44.33312" lon="3.72352">
        <ele>1085</ele>
      </trkpt>
      <trkpt lat="44.33309" lon="3.72368">
        <ele>1085.3</ele>
      </trkpt>
      <trkpt lat="44.33319" lon="3.72367">
        <ele>1085.2</ele>
      </trkpt>
      <trkpt lat="44.33343" lon="3.72366">
        <ele>1085.6</ele>
      </trkpt>
      <trkpt lat="44.3336" lon="3.72362">
        <ele>1086.6</ele>
      </trkpt>
      <trkpt lat="44.33372" lon="3.72361">
        <ele>1087.3</ele>
      </trkpt>
      <trkpt lat="44.33383" lon="3.72359">
        <ele>1087.9</ele>
      </trkpt>
      <trkpt lat="44.33389" lon="3.72359">
        <ele>1088.3</ele>
      </trkpt>
      <trkpt lat="44.33395" lon="3.72361">
        <ele>1088.7</ele>
      </trkpt>
      <trkpt lat="44.334" lon="3.72362">
        <ele>1089.1</ele>
      </trkpt>
      <trkpt lat="44.33405" lon="3.72367">
        <ele>1089.5</ele>
      </trkpt>
      <trkpt lat="44.33409" lon="3.72375">
        <ele>1090</ele>
      </trkpt>
      <trkpt lat="44.3341" lon="3.72385">
        <ele>1090.4</ele>
      </trkpt>
      <trkpt lat="44.33411" lon="3.72394">
        <ele>1090.7</ele>
      </trkpt>
      <trkpt lat="44.33412" lon="3.72406">
        <ele>1091.3</ele>
      </trkpt>
      <trkpt lat="44.33413" lon="3.72407">
        <ele>1091.3</ele>
      </trkpt>
      <trkpt lat="44.33423" lon="3.72459">
        <ele>1093.9</ele>
      </trkpt>
      <trkpt lat="44.33428" lon="3.72492">
        <ele>1095.6</ele>
      </trkpt>
      <trkpt lat="44.3343" lon="3.72512">
        <ele>1096.7</ele>
      </trkpt>
      <trkpt lat="44.33433" lon="3.72545">
        <ele>1098.4</ele>
      </trkpt>
      <trkpt lat="44.33435" lon="3.72559">
        <ele>1099.3</ele>
      </trkpt>
      <trkpt lat="44.33438" lon="3.72571">
        <ele>1100.3</ele>
      </trkpt>
      <trkpt lat="44.33446" lon="3.72589">
        <ele>1101.9</ele>
      </trkpt>
      <trkpt lat="44.3345" lon="3.726">
        <ele>1102.8</ele>
      </trkpt>
      <trkpt lat="44.33452" lon="3.72604">
        <ele>1103.1</ele>
      </trkpt>
      <trkpt lat="44.33452" lon="3.72613">
        <ele>1103.3</ele>
      </trkpt>
      <trkpt lat="44.3345" lon="3.72647">
        <ele>1103.8</ele>
      </trkpt>
      <trkpt lat="44.3345" lon="3.72671">
        <ele>1104.3</ele>
      </trkpt>
      <trkpt lat="44.3345" lon="3.72682">
        <ele>1104.5</ele>
      </trkpt>
      <trkpt lat="44.33451" lon="3.72689">
        <ele>1104.8</ele>
      </trkpt>
      <trkpt lat="44.33454" lon="3.72699">
        <ele>1105.4</ele>
      </trkpt>
      <trkpt lat="44.33465" lon="3.72732">
        <ele>1106.9</ele>
      </trkpt>
      <trkpt lat="44.33474" lon="3.72757">
        <ele>1107.6</ele>
      </trkpt>
      <trkpt lat="44.33484" lon="3.72777">
        <ele>1107.4</ele>
      </trkpt>
      <trkpt lat="44.33492" lon="3.72789">
        <ele>1107.3</ele>
      </trkpt>
      <trkpt lat="44.335" lon="3.72797">
        <ele>1107.1</ele>
      </trkpt>
      <trkpt lat="44.33506" lon="3.72803">
        <ele>1106.6</ele>
      </trkpt>
      <trkpt lat="44.33514" lon="3.72806">
        <ele>1106.1</ele>
      </trkpt>
      <trkpt lat="44.33519" lon="3.72808">
        <ele>1105.7</ele>
      </trkpt>
      <trkpt lat="44.33526" lon="3.72808">
        <ele>1105.5</ele>
      </trkpt>
      <trkpt lat="44.33536" lon="3.72804">
        <ele>1105.4</ele>
      </trkpt>
      <trkpt lat="44.3355" lon="3.72797">
        <ele>1105.5</ele>
      </trkpt>
      <trkpt lat="44.33561" lon="3.72788">
        <ele>1106</ele>
      </trkpt>
      <trkpt lat="44.33576" lon="3.72773">
        <ele>1107.3</ele>
      </trkpt>
      <trkpt lat="44.33582" lon="3.72767">
        <ele>1107.9</ele>
      </trkpt>
      <trkpt lat="44.33589" lon="3.72765">
        <ele>1108.5</ele>
      </trkpt>
      <trkpt lat="44.33595" lon="3.72765">
        <ele>1108.7</ele>
      </trkpt>
      <trkpt lat="44.33602" lon="3.72767">
        <ele>1108.7</ele>
      </trkpt>
      <trkpt lat="44.33616" lon="3.72778">
        <ele>1108.2</ele>
      </trkpt>
      <trkpt lat="44.33637" lon="3.72796">
        <ele>1107.4</ele>
      </trkpt>
      <trkpt lat="44.33652" lon="3.72814">
        <ele>1106.7</ele>
      </trkpt>
      <trkpt lat="44.33665" lon="3.72829">
        <ele>1106.2</ele>
      </trkpt>
      <trkpt lat="44.33674" lon="3.72838">
        <ele>1105.5</ele>
      </trkpt>
      <trkpt lat="44.33685" lon="3.72846">
        <ele>1104.6</ele>
      </trkpt>
      <trkpt lat="44.33707" lon="3.7286">
        <ele>1103.4</ele>
      </trkpt>
      <trkpt lat="44.33736" lon="3.72879">
        <ele>1102.5</ele>
      </trkpt>
      <trkpt lat="44.33749" lon="3.72889">
        <ele>1102.3</ele>
      </trkpt>
      <trkpt lat="44.33757" lon="3.72896">
        <ele>1102.4</ele>
      </trkpt>
      <trkpt lat="44.33762" lon="3.72903">
        <ele>1102.4</ele>
      </trkpt>
      <trkpt lat="44.33766" lon="3.72912">
        <ele>1102.4</ele>
      </trkpt>
      <trkpt lat="44.33772" lon="3.72928">
        <ele>1102.6</ele>
      </trkpt>
      <trkpt lat="44.33777" lon="3.7295">
        <ele>1103.1</ele>
      </trkpt>
      <trkpt lat="44.33779" lon="3.72966">
        <ele>1103.3</ele>
      </trkpt>
      <trkpt lat="44.33779" lon="3.72981">
        <ele>1103.3</ele>
      </trkpt>
      <trkpt lat="44.33779" lon="3.72993">
        <ele>1103.4</ele>
      </trkpt>
      <trkpt lat="44.33779" lon="3.73001">
        <ele>1103.3</ele>
      </trkpt>
      <trkpt lat="44.3378" lon="3.73009">
        <ele>1103.2</ele>
      </trkpt>
      <trkpt lat="44.33783" lon="3.73017">
        <ele>1103</ele>
      </trkpt>
      <trkpt lat="44.33788" lon="3.73025">
        <ele>1102.9</ele>
      </trkpt>
      <trkpt lat="44.33795" lon="3.73032">
        <ele>1102.9</ele>
      </trkpt>
      <trkpt lat="44.33811" lon="3.73051">
        <ele>1102.8</ele>
      </trkpt>
      <trkpt lat="44.33828" lon="3.7307">
        <ele>1102.5</ele>
      </trkpt>
      <trkpt lat="44.33832" lon="3.73076">
        <ele>1102.3</ele>
      </trkpt>
      <trkpt lat="44.33836" lon="3.73084">
        <ele>1102</ele>
      </trkpt>
      <trkpt lat="44.33842" lon="3.73098">
        <ele>1101.5</ele>
      </trkpt>
      <trkpt lat="44.33846" lon="3.73112">
        <ele>1100.9</ele>
      </trkpt>
      <trkpt lat="44.33848" lon="3.73125">
        <ele>1100.4</ele>
      </trkpt>
      <trkpt lat="44.33849" lon="3.73139">
        <ele>1099.9</ele>
      </trkpt>
      <trkpt lat="44.33848" lon="3.73151">
        <ele>1099.4</ele>
      </trkpt>
      <trkpt lat="44.33849" lon="3.7317">
        <ele>1098.8</ele>
      </trkpt>
      <trkpt lat="44.3385" lon="3.7318">
        <ele>1098.7</ele>
      </trkpt>
      <trkpt lat="44.33853" lon="3.73191">
        <ele>1098.5</ele>
      </trkpt>
      <trkpt lat="44.33857" lon="3.73203">
        <ele>1098.4</ele>
      </trkpt>
      <trkpt lat="44.33866" lon="3.73219">
        <ele>1098.2</ele>
      </trkpt>
      <trkpt lat="44.33886" lon="3.7325">
        <ele>1098</ele>
      </trkpt>
      <trkpt lat="44.33922" lon="3.73301">
        <ele>1097.7</ele>
      </trkpt>
      <trkpt lat="44.33955" lon="3.73344">
        <ele>1096.1</ele>
      </trkpt>
      <trkpt lat="44.33975" lon="3.7337">
        <ele>1094.5</ele>
      </trkpt>
      <trkpt lat="44.33981" lon="3.73383">
        <ele>1093.9</ele>
      </trkpt>
      <trkpt lat="44.33986" lon="3.73399">
        <ele>1093</ele>
      </trkpt>
      <trkpt lat="44.33991" lon="3.73423">
        <ele>1091.6</ele>
      </trkpt>
      <trkpt lat="44.33997" lon="3.73456">
        <ele>1089.5</ele>
      </trkpt>
      <trkpt lat="44.33998" lon="3.73471">
        <ele>1088.6</ele>
      </trkpt>
      <trkpt lat="44.33998" lon="3.73484">
        <ele>1088</ele>
      </trkpt>
      <trkpt lat="44.33997" lon="3.73494">
        <ele>1087.7</ele>
      </trkpt>
      <trkpt lat="44.33998" lon="3.73506">
        <ele>1087.8</ele>
      </trkpt>
      <trkpt lat="44.33999" lon="3.73518">
        <ele>1088.6</ele>
      </trkpt>
      <trkpt lat="44.34003" lon="3.73529">
        <ele>1089.3</ele>
      </trkpt>
      <trkpt lat="44.34008" lon="3.73538">
        <ele>1089.8</ele>
      </trkpt>
      <trkpt lat="44.34016" lon="3.73548">
        <ele>1090.4</ele>
      </trkpt>
      <trkpt lat="44.34023" lon="3.73554">
        <ele>1090.8</ele>
      </trkpt>
      <trkpt lat="44.3403" lon="3.73557">
        <ele>1091</ele>
      </trkpt>
      <trkpt lat="44.34038" lon="3.73558">
        <ele>1090.9</ele>
      </trkpt>
      <trkpt lat="44.34046" lon="3.73557">
        <ele>1090.6</ele>
      </trkpt>
      <trkpt lat="44.34058" lon="3.73555">
        <ele>1089.9</ele>
      </trkpt>
      <trkpt lat="44.34082" lon="3.73549">
        <ele>1087.9</ele>
      </trkpt>
      <trkpt lat="44.34096" lon="3.73546">
        <ele>1086.8</ele>
      </trkpt>
      <trkpt lat="44.34103" lon="3.73546">
        <ele>1086.5</ele>
      </trkpt>
      <trkpt lat="44.34109" lon="3.73547">
        <ele>1086.4</ele>
      </trkpt>
      <trkpt lat="44.34116" lon="3.73549">
        <ele>1086.6</ele>
      </trkpt>
      <trkpt lat="44.34131" lon="3.73556">
        <ele>1087.4</ele>
      </trkpt>
      <trkpt lat="44.34158" lon="3.73568">
        <ele>1088.5</ele>
      </trkpt>
      <trkpt lat="44.34168" lon="3.73572">
        <ele>1088.7</ele>
      </trkpt>
      <trkpt lat="44.34174" lon="3.73573">
        <ele>1088.5</ele>
      </trkpt>
      <trkpt lat="44.3418" lon="3.73573">
        <ele>1088</ele>
      </trkpt>
      <trkpt lat="44.34186" lon="3.73571">
        <ele>1087.3</ele>
      </trkpt>
      <trkpt lat="44.34193" lon="3.73567">
        <ele>1086.1</ele>
      </trkpt>
      <trkpt lat="44.342" lon="3.73565">
        <ele>1085.5</ele>
      </trkpt>
      <trkpt lat="44.34205" lon="3.73565">
        <ele>1085.1</ele>
      </trkpt>
      <trkpt lat="44.3421" lon="3.73566">
        <ele>1085</ele>
      </trkpt>
      <trkpt lat="44.34215" lon="3.73569">
        <ele>1085.1</ele>
      </trkpt>
      <trkpt lat="44.34225" lon="3.73577">
        <ele>1085.3</ele>
      </trkpt>
      <trkpt lat="44.34241" lon="3.73588">
        <ele>1085.1</ele>
      </trkpt>
      <trkpt lat="44.34253" lon="3.73593">
        <ele>1084.6</ele>
      </trkpt>
      <trkpt lat="44.34258" lon="3.73594">
        <ele>1084.6</ele>
      </trkpt>
      <trkpt lat="44.34262" lon="3.73595">
        <ele>1084.5</ele>
      </trkpt>
      <trkpt lat="44.34268" lon="3.73594">
        <ele>1084.4</ele>
      </trkpt>
      <trkpt lat="44.34274" lon="3.73592">
        <ele>1084.1</ele>
      </trkpt>
      <trkpt lat="44.34281" lon="3.73588">
        <ele>1083.6</ele>
      </trkpt>
      <trkpt lat="44.34293" lon="3.7358">
        <ele>1082.6</ele>
      </trkpt>
      <trkpt lat="44.34313" lon="3.73566">
        <ele>1080.6</ele>
      </trkpt>
      <trkpt lat="44.3433" lon="3.73553">
        <ele>1078.5</ele>
      </trkpt>
      <trkpt lat="44.34341" lon="3.73546">
        <ele>1077.5</ele>
      </trkpt>
      <trkpt lat="44.34346" lon="3.73543">
        <ele>1077.3</ele>
      </trkpt>
      <trkpt lat="44.34351" lon="3.73543">
        <ele>1077.2</ele>
      </trkpt>
      <trkpt lat="44.34356" lon="3.73544">
        <ele>1077.4</ele>
      </trkpt>
      <trkpt lat="44.34362" lon="3.73547">
        <ele>1077.8</ele>
      </trkpt>
      <trkpt lat="44.34373" lon="3.73556">
        <ele>1079</ele>
      </trkpt>
      <trkpt lat="44.34383" lon="3.73563">
        <ele>1080</ele>
      </trkpt>
      <trkpt lat="44.34389" lon="3.73565">
        <ele>1080.3</ele>
      </trkpt>
      <trkpt lat="44.34394" lon="3.73564">
        <ele>1080.3</ele>
      </trkpt>
      <trkpt lat="44.34399" lon="3.73563">
        <ele>1080.1</ele>
      </trkpt>
      <trkpt lat="44.34404" lon="3.73559">
        <ele>1079.7</ele>
      </trkpt>
      <trkpt lat="44.3441" lon="3.73552">
        <ele>1078.8</ele>
      </trkpt>
      <trkpt lat="44.34417" lon="3.73537">
        <ele>1076.8</ele>
      </trkpt>
      <trkpt lat="44.34426" lon="3.73512">
        <ele>1074.7</ele>
      </trkpt>
      <trkpt lat="44.34428" lon="3.73505">
        <ele>1073.9</ele>
      </trkpt>
      <trkpt lat="44.34429" lon="3.73493">
        <ele>1073.1</ele>
      </trkpt>
      <trkpt lat="44.34431" lon="3.7348">
        <ele>1072.7</ele>
      </trkpt>
      <trkpt lat="44.34433" lon="3.73469">
        <ele>1072.6</ele>
      </trkpt>
      <trkpt lat="44.34437" lon="3.73459">
        <ele>1072.6</ele>
      </trkpt>
      <trkpt lat="44.34443" lon="3.73449">
        <ele>1072.8</ele>
      </trkpt>
      <trkpt lat="44.34444" lon="3.7344">
        <ele>1072.7</ele>
      </trkpt>
      <trkpt lat="44.34445" lon="3.73432">
        <ele>1072.5</ele>
      </trkpt>
      <trkpt lat="44.34444" lon="3.73421">
        <ele>1071.8</ele>
      </trkpt>
      <trkpt lat="44.34442" lon="3.73406">
        <ele>1070.6</ele>
      </trkpt>
      <trkpt lat="44.3444" lon="3.73391">
        <ele>1069.5</ele>
      </trkpt>
      <trkpt lat="44.3444" lon="3.73384">
        <ele>1069.1</ele>
      </trkpt>
      <trkpt lat="44.34441" lon="3.73376">
        <ele>1068.8</ele>
      </trkpt>
      <trkpt lat="44.34443" lon="3.7337">
        <ele>1068.6</ele>
      </trkpt>
      <trkpt lat="44.34448" lon="3.73359">
        <ele>1068.6</ele>
      </trkpt>
      <trkpt lat="44.34456" lon="3.73342">
        <ele>1068.7</ele>
      </trkpt>
      <trkpt lat="44.34459" lon="3.73334">
        <ele>1068.7</ele>
      </trkpt>
      <trkpt lat="44.34464" lon="3.73322">
        <ele>1067.6</ele>
      </trkpt>
      <trkpt lat="44.34471" lon="3.73301">
        <ele>1065.6</ele>
      </trkpt>
      <trkpt lat="44.34479" lon="3.73282">
        <ele>1063.9</ele>
      </trkpt>
      <trkpt lat="44.34487" lon="3.73268">
        <ele>1062.8</ele>
      </trkpt>
      <trkpt lat="44.34495" lon="3.73257">
        <ele>1062.4</ele>
      </trkpt>
      <trkpt lat="44.34506" lon="3.73245">
        <ele>1061.3</ele>
      </trkpt>
      <trkpt lat="44.3452" lon="3.7323">
        <ele>1058.9</ele>
      </trkpt>
      <trkpt lat="44.34532" lon="3.73219">
        <ele>1057.6</ele>
      </trkpt>
      <trkpt lat="44.34541" lon="3.73214">
        <ele>1057.2</ele>
      </trkpt>
      <trkpt lat="44.34547" lon="3.7321">
        <ele>1057.1</ele>
      </trkpt>
      <trkpt lat="44.34555" lon="3.73209">
        <ele>1057.6</ele>
      </trkpt>
      <trkpt lat="44.34563" lon="3.73209">
        <ele>1058.2</ele>
      </trkpt>
      <trkpt lat="44.34571" lon="3.73206">
        <ele>1058.4</ele>
      </trkpt>
      <trkpt lat="44.34578" lon="3.732">
        <ele>1058.1</ele>
      </trkpt>
      <trkpt lat="44.34587" lon="3.7319">
        <ele>1057.4</ele>
      </trkpt>
      <trkpt lat="44.346" lon="3.73172">
        <ele>1056.4</ele>
      </trkpt>
      <trkpt lat="44.34615" lon="3.73149">
        <ele>1055.2</ele>
      </trkpt>
      <trkpt lat="44.34632" lon="3.73122">
        <ele>1053.7</ele>
      </trkpt>
      <trkpt lat="44.34656" lon="3.73084">
        <ele>1051.4</ele>
      </trkpt>
      <trkpt lat="44.34667" lon="3.73062">
        <ele>1050.4</ele>
      </trkpt>
      <trkpt lat="44.34678" lon="3.73044">
        <ele>1049.6</ele>
      </trkpt>
      <trkpt lat="44.34682" lon="3.73038">
        <ele>1049.5</ele>
      </trkpt>
      <trkpt lat="44.34688" lon="3.73034">
        <ele>1049.6</ele>
      </trkpt>
      <trkpt lat="44.34694" lon="3.7303">
        <ele>1049.9</ele>
      </trkpt>
      <trkpt lat="44.347" lon="3.73029">
        <ele>1050.5</ele>
      </trkpt>
      <trkpt lat="44.34706" lon="3.7303">
        <ele>1051.5</ele>
      </trkpt>
      <trkpt lat="44.34712" lon="3.73028">
        <ele>1052.1</ele>
      </trkpt>
      <trkpt lat="44.34717" lon="3.73026">
        <ele>1052.3</ele>
      </trkpt>
      <trkpt lat="44.34721" lon="3.73021">
        <ele>1051.9</ele>
      </trkpt>
      <trkpt lat="44.34728" lon="3.73008">
        <ele>1050.2</ele>
      </trkpt>
      <trkpt lat="44.3474" lon="3.72987">
        <ele>1048.1</ele>
      </trkpt>
      <trkpt lat="44.34746" lon="3.72979">
        <ele>1047.5</ele>
      </trkpt>
      <trkpt lat="44.3475" lon="3.72971">
        <ele>1046.8</ele>
      </trkpt>
      <trkpt lat="44.34757" lon="3.72953">
        <ele>1045.5</ele>
      </trkpt>
      <trkpt lat="44.34765" lon="3.72938">
        <ele>1044.5</ele>
      </trkpt>
      <trkpt lat="44.34771" lon="3.72927">
        <ele>1043.8</ele>
      </trkpt>
      <trkpt lat="44.34782" lon="3.7291">
        <ele>1042.6</ele>
      </trkpt>
      <trkpt lat="44.34792" lon="3.72895">
        <ele>1042.1</ele>
      </trkpt>
      <trkpt lat="44.34799" lon="3.72886">
        <ele>1041.7</ele>
      </trkpt>
      <trkpt lat="44.34811" lon="3.72869">
        <ele>1040.8</ele>
      </trkpt>
      <trkpt lat="44.3484" lon="3.72826">
        <ele>1038.1</ele>
      </trkpt>
      <trkpt lat="44.34844" lon="3.72819">
        <ele>1038.1</ele>
      </trkpt>
      <trkpt lat="44.34849" lon="3.72816">
        <ele>1038.3</ele>
      </trkpt>
      <trkpt lat="44.34855" lon="3.72813">
        <ele>1038.7</ele>
      </trkpt>
      <trkpt lat="44.34862" lon="3.72811">
        <ele>1039.3</ele>
      </trkpt>
      <trkpt lat="44.34867" lon="3.72807">
        <ele>1039.5</ele>
      </trkpt>
      <trkpt lat="44.34872" lon="3.72803">
        <ele>1039.6</ele>
      </trkpt>
      <trkpt lat="44.34877" lon="3.72795">
        <ele>1039.5</ele>
      </trkpt>
      <trkpt lat="44.34882" lon="3.72786">
        <ele>1039.2</ele>
      </trkpt>
      <trkpt lat="44.34889" lon="3.72762">
        <ele>1037.7</ele>
      </trkpt>
      <trkpt lat="44.34895" lon="3.72734">
        <ele>1036.6</ele>
      </trkpt>
      <trkpt lat="44.34898" lon="3.72718">
        <ele>1036.3</ele>
      </trkpt>
      <trkpt lat="44.34901" lon="3.72703">
        <ele>1036.1</ele>
      </trkpt>
      <trkpt lat="44.34904" lon="3.72695">
        <ele>1036.2</ele>
      </trkpt>
      <trkpt lat="44.34907" lon="3.72692">
        <ele>1036.5</ele>
      </trkpt>
      <trkpt lat="44.34911" lon="3.72691">
        <ele>1036.9</ele>
      </trkpt>
      <trkpt lat="44.34914" lon="3.72691">
        <ele>1037.3</ele>
      </trkpt>
      <trkpt lat="44.34917" lon="3.72693">
        <ele>1037.6</ele>
      </trkpt>
      <trkpt lat="44.3492" lon="3.72698">
        <ele>1038.2</ele>
      </trkpt>
      <trkpt lat="44.34923" lon="3.72701">
        <ele>1038.6</ele>
      </trkpt>
      <trkpt lat="44.34926" lon="3.72702">
        <ele>1038.8</ele>
      </trkpt>
      <trkpt lat="44.34928" lon="3.72701">
        <ele>1039.1</ele>
      </trkpt>
      <trkpt lat="44.34932" lon="3.72698">
        <ele>1039.5</ele>
      </trkpt>
      <trkpt lat="44.34939" lon="3.72691">
        <ele>1040.1</ele>
      </trkpt>
      <trkpt lat="44.34953" lon="3.72679">
        <ele>1041.2</ele>
      </trkpt>
      <trkpt lat="44.34964" lon="3.72665">
        <ele>1042.1</ele>
      </trkpt>
      <trkpt lat="44.3497" lon="3.72656">
        <ele>1042.4</ele>
      </trkpt>
      <trkpt lat="44.34974" lon="3.72649">
        <ele>1042.5</ele>
      </trkpt>
      <trkpt lat="44.34978" lon="3.7264">
        <ele>1042.6</ele>
      </trkpt>
      <trkpt lat="44.34983" lon="3.7263">
        <ele>1042.9</ele>
      </trkpt>
      <trkpt lat="44.3499" lon="3.72623">
        <ele>1043.4</ele>
      </trkpt>
      <trkpt lat="44.35" lon="3.72614">
        <ele>1044.1</ele>
      </trkpt>
      <trkpt lat="44.35002" lon="3.72612">
        <ele>1044.1</ele>
      </trkpt>
      <trkpt lat="44.35013" lon="3.72603">
        <ele>1043.9</ele>
      </trkpt>
      <trkpt lat="44.35022" lon="3.72589">
        <ele>1043.5</ele>
      </trkpt>
      <trkpt lat="44.35037" lon="3.72571">
        <ele>1042.4</ele>
      </trkpt>
      <trkpt lat="44.3504" lon="3.72567">
        <ele>1042.2</ele>
      </trkpt>
      <trkpt lat="44.35047" lon="3.72559">
        <ele>1041.8</ele>
      </trkpt>
      <trkpt lat="44.35051" lon="3.72555">
        <ele>1041.6</ele>
      </trkpt>
      <trkpt lat="44.35059" lon="3.72545">
        <ele>1041.4</ele>
      </trkpt>
      <trkpt lat="44.35066" lon="3.72537">
        <ele>1041.3</ele>
      </trkpt>
      <trkpt lat="44.35078" lon="3.72525">
        <ele>1041.5</ele>
      </trkpt>
      <trkpt lat="44.35091" lon="3.72512">
        <ele>1041.3</ele>
      </trkpt>
      <trkpt lat="44.35107" lon="3.72496">
        <ele>1040.1</ele>
      </trkpt>
      <trkpt lat="44.35114" lon="3.72487">
        <ele>1039</ele>
      </trkpt>
      <trkpt lat="44.35124" lon="3.72471">
        <ele>1037.4</ele>
      </trkpt>
      <trkpt lat="44.35139" lon="3.72446">
        <ele>1035.6</ele>
      </trkpt>
      <trkpt lat="44.35151" lon="3.72428">
        <ele>1035</ele>
      </trkpt>
      <trkpt lat="44.35158" lon="3.72418">
        <ele>1035.1</ele>
      </trkpt>
      <trkpt lat="44.35167" lon="3.72406">
        <ele>1033.9</ele>
      </trkpt>
      <trkpt lat="44.35179" lon="3.72395">
        <ele>1031.5</ele>
      </trkpt>
      <trkpt lat="44.35186" lon="3.72386">
        <ele>1030.1</ele>
      </trkpt>
      <trkpt lat="44.35193" lon="3.72374">
        <ele>1028.5</ele>
      </trkpt>
      <trkpt lat="44.352" lon="3.72364">
        <ele>1027.6</ele>
      </trkpt>
      <trkpt lat="44.3521" lon="3.72354">
        <ele>1027.1</ele>
      </trkpt>
      <trkpt lat="44.35214" lon="3.72347">
        <ele>1026.8</ele>
      </trkpt>
      <trkpt lat="44.35219" lon="3.72335">
        <ele>1026.4</ele>
      </trkpt>
      <trkpt lat="44.35224" lon="3.72323">
        <ele>1025.1</ele>
      </trkpt>
      <trkpt lat="44.35229" lon="3.72314">
        <ele>1024.4</ele>
      </trkpt>
      <trkpt lat="44.35235" lon="3.72307">
        <ele>1024.1</ele>
      </trkpt>
      <trkpt lat="44.35241" lon="3.72303">
        <ele>1024.2</ele>
      </trkpt>
      <trkpt lat="44.3525" lon="3.72297">
        <ele>1024.7</ele>
      </trkpt>
      <trkpt lat="44.35258" lon="3.72288">
        <ele>1022</ele>
      </trkpt>
      <trkpt lat="44.35263" lon="3.72281">
        <ele>1020.1</ele>
      </trkpt>
      <trkpt lat="44.35266" lon="3.72274">
        <ele>1018.8</ele>
      </trkpt>
      <trkpt lat="44.35269" lon="3.72265">
        <ele>1017.3</ele>
      </trkpt>
      <trkpt lat="44.3527" lon="3.72254">
        <ele>1015.8</ele>
      </trkpt>
      <trkpt lat="44.35271" lon="3.72241">
        <ele>1013.4</ele>
      </trkpt>
      <trkpt lat="44.35274" lon="3.7223">
        <ele>1010.8</ele>
      </trkpt>
      <trkpt lat="44.35277" lon="3.72218">
        <ele>1008.3</ele>
      </trkpt>
      <trkpt lat="44.35281" lon="3.72211">
        <ele>1006.6</ele>
      </trkpt>
      <trkpt lat="44.35284" lon="3.72206">
        <ele>1005.3</ele>
      </trkpt>
      <trkpt lat="44.35287" lon="3.72204">
        <ele>1004.6</ele>
      </trkpt>
      <trkpt lat="44.35291" lon="3.72203">
        <ele>1004.1</ele>
      </trkpt>
      <trkpt lat="44.35295" lon="3.72203">
        <ele>1003.7</ele>
      </trkpt>
      <trkpt lat="44.35298" lon="3.72205">
        <ele>1003.8</ele>
      </trkpt>
      <trkpt lat="44.35301" lon="3.72209">
        <ele>1004.3</ele>
      </trkpt>
      <trkpt lat="44.35303" lon="3.72217">
        <ele>1005.4</ele>
      </trkpt>
      <trkpt lat="44.35304" lon="3.72224">
        <ele>1006.4</ele>
      </trkpt>
      <trkpt lat="44.35307" lon="3.72229">
        <ele>1006.9</ele>
      </trkpt>
      <trkpt lat="44.35311" lon="3.72233">
        <ele>1007.1</ele>
      </trkpt>
      <trkpt lat="44.3532" lon="3.72239">
        <ele>1007</ele>
      </trkpt>
      <trkpt lat="44.35324" lon="3.72243">
        <ele>1007.2</ele>
      </trkpt>
      <trkpt lat="44.35326" lon="3.72248">
        <ele>1007.6</ele>
      </trkpt>
      <trkpt lat="44.35328" lon="3.72254">
        <ele>1007.8</ele>
      </trkpt>
      <trkpt lat="44.35328" lon="3.72261">
        <ele>1008</ele>
      </trkpt>
      <trkpt lat="44.35328" lon="3.72275">
        <ele>1008.5</ele>
      </trkpt>
      <trkpt lat="44.35326" lon="3.72284">
        <ele>1009.1</ele>
      </trkpt>
      <trkpt lat="44.35325" lon="3.72296">
        <ele>1009.8</ele>
      </trkpt>
      <trkpt lat="44.35324" lon="3.72303">
        <ele>1010.2</ele>
      </trkpt>
      <trkpt lat="44.35324" lon="3.72307">
        <ele>1010.4</ele>
      </trkpt>
      <trkpt lat="44.35325" lon="3.72315">
        <ele>1010.6</ele>
      </trkpt>
      <trkpt lat="44.35326" lon="3.72324">
        <ele>1010.5</ele>
      </trkpt>
      <trkpt lat="44.35329" lon="3.72337">
        <ele>1010.1</ele>
      </trkpt>
      <trkpt lat="44.35334" lon="3.72353">
        <ele>1008.5</ele>
      </trkpt>
      <trkpt lat="44.35339" lon="3.72368">
        <ele>1006.6</ele>
      </trkpt>
      <trkpt lat="44.35342" lon="3.72377">
        <ele>1005.7</ele>
      </trkpt>
      <trkpt lat="44.35342" lon="3.72385">
        <ele>1005.4</ele>
      </trkpt>
      <trkpt lat="44.35343" lon="3.72395">
        <ele>1005.2</ele>
      </trkpt>
      <trkpt lat="44.35342" lon="3.72407">
        <ele>1005.4</ele>
      </trkpt>
      <trkpt lat="44.3534" lon="3.72428">
        <ele>1006.6</ele>
      </trkpt>
      <trkpt lat="44.35338" lon="3.72446">
        <ele>1007.8</ele>
      </trkpt>
      <trkpt lat="44.35338" lon="3.72459">
        <ele>1008.4</ele>
      </trkpt>
      <trkpt lat="44.3534" lon="3.72468">
        <ele>1008.4</ele>
      </trkpt>
      <trkpt lat="44.35343" lon="3.72478">
        <ele>1008.2</ele>
      </trkpt>
      <trkpt lat="44.35348" lon="3.72484">
        <ele>1007.6</ele>
      </trkpt>
      <trkpt lat="44.35352" lon="3.72487">
        <ele>1006.9</ele>
      </trkpt>
      <trkpt lat="44.35358" lon="3.72488">
        <ele>1005.7</ele>
      </trkpt>
      <trkpt lat="44.35368" lon="3.72489">
        <ele>1003.8</ele>
      </trkpt>
      <trkpt lat="44.3538" lon="3.7249">
        <ele>1001.7</ele>
      </trkpt>
      <trkpt lat="44.35386" lon="3.72492">
        <ele>1000.6</ele>
      </trkpt>
      <trkpt lat="44.35395" lon="3.72496">
        <ele>999.5</ele>
      </trkpt>
      <trkpt lat="44.35402" lon="3.72503">
        <ele>999.1</ele>
      </trkpt>
      <trkpt lat="44.35408" lon="3.72511">
        <ele>999.5</ele>
      </trkpt>
      <trkpt lat="44.35415" lon="3.72522">
        <ele>1000.1</ele>
      </trkpt>
      <trkpt lat="44.35424" lon="3.72537">
        <ele>1001.5</ele>
      </trkpt>
      <trkpt lat="44.35432" lon="3.72546">
        <ele>1002.2</ele>
      </trkpt>
      <trkpt lat="44.35441" lon="3.72554">
        <ele>1002.6</ele>
      </trkpt>
      <trkpt lat="44.35451" lon="3.7256">
        <ele>1002.7</ele>
      </trkpt>
      <trkpt lat="44.35465" lon="3.72564">
        <ele>1002.3</ele>
      </trkpt>
      <trkpt lat="44.35482" lon="3.72567">
        <ele>1001.4</ele>
      </trkpt>
      <trkpt lat="44.35505" lon="3.72569">
        <ele>999.8</ele>
      </trkpt>
      <trkpt lat="44.35524" lon="3.72569">
        <ele>997.3</ele>
      </trkpt>
      <trkpt lat="44.35536" lon="3.72567">
        <ele>995.3</ele>
      </trkpt>
      <trkpt lat="44.35545" lon="3.72564">
        <ele>993.3</ele>
      </trkpt>
      <trkpt lat="44.35565" lon="3.72557">
        <ele>988.7</ele>
      </trkpt>
      <trkpt lat="44.35587" lon="3.72546">
        <ele>982</ele>
      </trkpt>
      <trkpt lat="44.35604" lon="3.72538">
        <ele>976</ele>
      </trkpt>
      <trkpt lat="44.35611" lon="3.72534">
        <ele>973.6</ele>
      </trkpt>
      <trkpt lat="44.35617" lon="3.72533">
        <ele>972.3</ele>
      </trkpt>
      <trkpt lat="44.35625" lon="3.72534">
        <ele>971.2</ele>
      </trkpt>
      <trkpt lat="44.35635" lon="3.72538">
        <ele>970.6</ele>
      </trkpt>
      <trkpt lat="44.35644" lon="3.72543">
        <ele>970.3</ele>
      </trkpt>
      <trkpt lat="44.35648" lon="3.72548">
        <ele>970.9</ele>
      </trkpt>
      <trkpt lat="44.35652" lon="3.72554">
        <ele>972</ele>
      </trkpt>
      <trkpt lat="44.35654" lon="3.72562">
        <ele>973.5</ele>
      </trkpt>
      <trkpt lat="44.35655" lon="3.7257">
        <ele>975.6</ele>
      </trkpt>
      <trkpt lat="44.35654" lon="3.72581">
        <ele>978.4</ele>
      </trkpt>
      <trkpt lat="44.35651" lon="3.72601">
        <ele>981.8</ele>
      </trkpt>
      <trkpt lat="44.35651" lon="3.72613">
        <ele>983.2</ele>
      </trkpt>
      <trkpt lat="44.35653" lon="3.72632">
        <ele>984.6</ele>
      </trkpt>
      <trkpt lat="44.35657" lon="3.72653">
        <ele>985.2</ele>
      </trkpt>
      <trkpt lat="44.35661" lon="3.72666">
        <ele>984.8</ele>
      </trkpt>
      <trkpt lat="44.35669" lon="3.72688">
        <ele>985</ele>
      </trkpt>
      <trkpt lat="44.35694" lon="3.72761">
        <ele>985</ele>
      </trkpt>
      <trkpt lat="44.3573" lon="3.7284">
        <ele>974.5</ele>
      </trkpt>
      <trkpt lat="44.35739" lon="3.7287">
        <ele>970.9</ele>
      </trkpt>
      <trkpt lat="44.35744" lon="3.72894">
        <ele>969.1</ele>
      </trkpt>
      <trkpt lat="44.35745" lon="3.72907">
        <ele>969.5</ele>
      </trkpt>
      <trkpt lat="44.35745" lon="3.72919">
        <ele>970.4</ele>
      </trkpt>
      <trkpt lat="44.3574" lon="3.72962">
        <ele>974.9</ele>
      </trkpt>
      <trkpt lat="44.35736" lon="3.72988">
        <ele>977.4</ele>
      </trkpt>
      <trkpt lat="44.35736" lon="3.72998">
        <ele>977.6</ele>
      </trkpt>
      <trkpt lat="44.35738" lon="3.73008">
        <ele>977.9</ele>
      </trkpt>
      <trkpt lat="44.35741" lon="3.73012">
        <ele>977.6</ele>
      </trkpt>
      <trkpt lat="44.35744" lon="3.73015">
        <ele>976.7</ele>
      </trkpt>
      <trkpt lat="44.35747" lon="3.73017">
        <ele>975.9</ele>
      </trkpt>
      <trkpt lat="44.35776" lon="3.73032">
        <ele>969.9</ele>
      </trkpt>
      <trkpt lat="44.35798" lon="3.73044">
        <ele>967.2</ele>
      </trkpt>
      <trkpt lat="44.3581" lon="3.73054">
        <ele>966.7</ele>
      </trkpt>
      <trkpt lat="44.35818" lon="3.73059">
        <ele>966.3</ele>
      </trkpt>
      <trkpt lat="44.35824" lon="3.73061">
        <ele>965.4</ele>
      </trkpt>
      <trkpt lat="44.35829" lon="3.73061">
        <ele>964.2</ele>
      </trkpt>
      <trkpt lat="44.35839" lon="3.73057">
        <ele>960.1</ele>
      </trkpt>
      <trkpt lat="44.3585" lon="3.73055">
        <ele>955.8</ele>
      </trkpt>
      <trkpt lat="44.35864" lon="3.73054">
        <ele>951</ele>
      </trkpt>
      <trkpt lat="44.35872" lon="3.73055">
        <ele>949.1</ele>
      </trkpt>
      <trkpt lat="44.35878" lon="3.73058">
        <ele>948</ele>
      </trkpt>
      <trkpt lat="44.35884" lon="3.73063">
        <ele>947.4</ele>
      </trkpt>
      <trkpt lat="44.3589" lon="3.7307">
        <ele>947.4</ele>
      </trkpt>
      <trkpt lat="44.35893" lon="3.73078">
        <ele>948.6</ele>
      </trkpt>
      <trkpt lat="44.35896" lon="3.73093">
        <ele>950.5</ele>
      </trkpt>
      <trkpt lat="44.359" lon="3.73114">
        <ele>951.6</ele>
      </trkpt>
      <trkpt lat="44.35905" lon="3.7313">
        <ele>951.4</ele>
      </trkpt>
      <trkpt lat="44.35914" lon="3.7315">
        <ele>949.4</ele>
      </trkpt>
      <trkpt lat="44.35924" lon="3.73163">
        <ele>945.5</ele>
      </trkpt>
      <trkpt lat="44.35928" lon="3.73174">
        <ele>942.6</ele>
      </trkpt>
      <trkpt lat="44.3593" lon="3.73183">
        <ele>940.8</ele>
      </trkpt>
      <trkpt lat="44.3593" lon="3.73191">
        <ele>940</ele>
      </trkpt>
      <trkpt lat="44.35929" lon="3.73203">
        <ele>939.7</ele>
      </trkpt>
      <trkpt lat="44.35927" lon="3.73214">
        <ele>940.4</ele>
      </trkpt>
      <trkpt lat="44.35922" lon="3.73223">
        <ele>942.4</ele>
      </trkpt>
      <trkpt lat="44.35918" lon="3.73228">
        <ele>944.5</ele>
      </trkpt>
      <trkpt lat="44.35913" lon="3.73232">
        <ele>947.3</ele>
      </trkpt>
      <trkpt lat="44.35906" lon="3.73233">
        <ele>951</ele>
      </trkpt>
      <trkpt lat="44.35901" lon="3.73236">
        <ele>953.7</ele>
      </trkpt>
      <trkpt lat="44.35897" lon="3.73242">
        <ele>955.9</ele>
      </trkpt>
      <trkpt lat="44.3589" lon="3.73262">
        <ele>958.3</ele>
      </trkpt>
      <trkpt lat="44.35883" lon="3.73293">
        <ele>960</ele>
      </trkpt>
      <trkpt lat="44.35883" lon="3.73298">
        <ele>959.5</ele>
      </trkpt>
      <trkpt lat="44.35884" lon="3.73304">
        <ele>958.1</ele>
      </trkpt>
      <trkpt lat="44.35889" lon="3.73313">
        <ele>954</ele>
      </trkpt>
      <trkpt lat="44.35899" lon="3.73331">
        <ele>945.9</ele>
      </trkpt>
      <trkpt lat="44.35902" lon="3.73339">
        <ele>943.3</ele>
      </trkpt>
      <trkpt lat="44.35903" lon="3.73348">
        <ele>941.8</ele>
      </trkpt>
      <trkpt lat="44.35903" lon="3.73359">
        <ele>940.9</ele>
      </trkpt>
      <trkpt lat="44.359" lon="3.73384">
        <ele>941.1</ele>
      </trkpt>
      <trkpt lat="44.35892" lon="3.73417">
        <ele>944.3</ele>
      </trkpt>
      <trkpt lat="44.35887" lon="3.73456">
        <ele>946.6</ele>
      </trkpt>
      <trkpt lat="44.35884" lon="3.73482">
        <ele>948.1</ele>
      </trkpt>
      <trkpt lat="44.35882" lon="3.735">
        <ele>948.9</ele>
      </trkpt>
      <trkpt lat="44.35882" lon="3.73511">
        <ele>949.7</ele>
      </trkpt>
      <trkpt lat="44.35884" lon="3.7352">
        <ele>949.6</ele>
      </trkpt>
      <trkpt lat="44.35884" lon="3.73521">
        <ele>949.5</ele>
      </trkpt>
      <trkpt lat="44.35889" lon="3.73534">
        <ele>947.6</ele>
      </trkpt>
      <trkpt lat="44.35903" lon="3.73559">
        <ele>941.7</ele>
      </trkpt>
      <trkpt lat="44.35921" lon="3.73583">
        <ele>934.1</ele>
      </trkpt>
      <trkpt lat="44.35929" lon="3.73599">
        <ele>933.6</ele>
      </trkpt>
      <trkpt lat="44.35935" lon="3.73609">
        <ele>933.2</ele>
      </trkpt>
      <trkpt lat="44.35939" lon="3.73615">
        <ele>932.5</ele>
      </trkpt>
      <trkpt lat="44.35944" lon="3.73617">
        <ele>929.7</ele>
      </trkpt>
      <trkpt lat="44.35952" lon="3.73621">
        <ele>925.1</ele>
      </trkpt>
      <trkpt lat="44.35961" lon="3.73626">
        <ele>920.9</ele>
      </trkpt>
      <trkpt lat="44.35967" lon="3.73634">
        <ele>919.2</ele>
      </trkpt>
      <trkpt lat="44.35971" lon="3.73643">
        <ele>919.5</ele>
      </trkpt>
      <trkpt lat="44.35973" lon="3.73659">
        <ele>923.4</ele>
      </trkpt>
      <trkpt lat="44.35973" lon="3.73667">
        <ele>925.9</ele>
      </trkpt>
      <trkpt lat="44.35973" lon="3.73667">
        <ele>925.6</ele>
      </trkpt>
      <trkpt lat="44.35974" lon="3.73673">
        <ele>927</ele>
      </trkpt>
      <trkpt lat="44.35977" lon="3.7368">
        <ele>927.8</ele>
      </trkpt>
      <trkpt lat="44.35987" lon="3.73696">
        <ele>927</ele>
      </trkpt>
      <trkpt lat="44.35992" lon="3.73705">
        <ele>927.4</ele>
      </trkpt>
      <trkpt lat="44.35998" lon="3.73718">
        <ele>928.2</ele>
      </trkpt>
      <trkpt lat="44.36002" lon="3.73724">
        <ele>928.1</ele>
      </trkpt>
      <trkpt lat="44.36005" lon="3.73727">
        <ele>927.4</ele>
      </trkpt>
      <trkpt lat="44.3601" lon="3.73729">
        <ele>925.7</ele>
      </trkpt>
      <trkpt lat="44.36015" lon="3.73729">
        <ele>923</ele>
      </trkpt>
      <trkpt lat="44.36021" lon="3.73729">
        <ele>920</ele>
      </trkpt>
      <trkpt lat="44.36024" lon="3.7373">
        <ele>918.7</ele>
      </trkpt>
      <trkpt lat="44.36028" lon="3.73734">
        <ele>918.2</ele>
      </trkpt>
      <trkpt lat="44.36032" lon="3.73742">
        <ele>919.2</ele>
      </trkpt>
      <trkpt lat="44.36033" lon="3.73747">
        <ele>920.2</ele>
      </trkpt>
      <trkpt lat="44.36036" lon="3.73751">
        <ele>920.4</ele>
      </trkpt>
      <trkpt lat="44.36039" lon="3.73752">
        <ele>919.2</ele>
      </trkpt>
      <trkpt lat="44.36044" lon="3.73752">
        <ele>916.4</ele>
      </trkpt>
      <trkpt lat="44.36049" lon="3.73753">
        <ele>914.4</ele>
      </trkpt>
      <trkpt lat="44.36053" lon="3.73755">
        <ele>913.3</ele>
      </trkpt>
      <trkpt lat="44.36057" lon="3.7376">
        <ele>913.1</ele>
      </trkpt>
      <trkpt lat="44.36062" lon="3.73767">
        <ele>914.1</ele>
      </trkpt>
      <trkpt lat="44.36069" lon="3.73775">
        <ele>914.4</ele>
      </trkpt>
      <trkpt lat="44.36081" lon="3.73784">
        <ele>912.1</ele>
      </trkpt>
      <trkpt lat="44.36095" lon="3.7379">
        <ele>909.8</ele>
      </trkpt>
      <trkpt lat="44.36107" lon="3.73793">
        <ele>907.5</ele>
      </trkpt>
      <trkpt lat="44.36116" lon="3.73799">
        <ele>907.2</ele>
      </trkpt>
      <trkpt lat="44.36126" lon="3.73808">
        <ele>907.9</ele>
      </trkpt>
      <trkpt lat="44.36129" lon="3.73813">
        <ele>908.8</ele>
      </trkpt>
      <trkpt lat="44.36135" lon="3.73823">
        <ele>911.1</ele>
      </trkpt>
      <trkpt lat="44.36143" lon="3.73835">
        <ele>913.2</ele>
      </trkpt>
      <trkpt lat="44.36149" lon="3.73843">
        <ele>913.6</ele>
      </trkpt>
      <trkpt lat="44.36155" lon="3.73847">
        <ele>913.2</ele>
      </trkpt>
      <trkpt lat="44.36159" lon="3.73849">
        <ele>912.2</ele>
      </trkpt>
      <trkpt lat="44.36168" lon="3.7385">
        <ele>909.8</ele>
      </trkpt>
      <trkpt lat="44.36183" lon="3.7385">
        <ele>909.1</ele>
      </trkpt>
      <trkpt lat="44.36209" lon="3.73849">
        <ele>907.6</ele>
      </trkpt>
      <trkpt lat="44.36225" lon="3.73849">
        <ele>906.8</ele>
      </trkpt>
      <trkpt lat="44.36231" lon="3.73848">
        <ele>906.2</ele>
      </trkpt>
      <trkpt lat="44.36239" lon="3.73845">
        <ele>904.8</ele>
      </trkpt>
      <trkpt lat="44.36261" lon="3.73837">
        <ele>901.3</ele>
      </trkpt>
      <trkpt lat="44.36294" lon="3.73821">
        <ele>896.4</ele>
      </trkpt>
      <trkpt lat="44.3631" lon="3.73815">
        <ele>894.6</ele>
      </trkpt>
      <trkpt lat="44.36326" lon="3.7381">
        <ele>893.5</ele>
      </trkpt>
      <trkpt lat="44.36371" lon="3.73799">
        <ele>886</ele>
      </trkpt>
      <trkpt lat="44.3639" lon="3.73795">
        <ele>883.1</ele>
      </trkpt>
      <trkpt lat="44.36395" lon="3.73795">
        <ele>882.6</ele>
      </trkpt>
      <trkpt lat="44.36399" lon="3.73796">
        <ele>882.5</ele>
      </trkpt>
      <trkpt lat="44.36402" lon="3.73799">
        <ele>882.7</ele>
      </trkpt>
      <trkpt lat="44.36405" lon="3.73804">
        <ele>883.2</ele>
      </trkpt>
      <trkpt lat="44.36405" lon="3.73809">
        <ele>883.9</ele>
      </trkpt>
      <trkpt lat="44.36405" lon="3.73814">
        <ele>884.8</ele>
      </trkpt>
      <trkpt lat="44.364" lon="3.73827">
        <ele>887.8</ele>
      </trkpt>
      <trkpt lat="44.36395" lon="3.73841">
        <ele>890.1</ele>
      </trkpt>
      <trkpt lat="44.36394" lon="3.73846">
        <ele>890.4</ele>
      </trkpt>
      <trkpt lat="44.36389" lon="3.73866">
        <ele>892.3</ele>
      </trkpt>
      <trkpt lat="44.36384" lon="3.73892">
        <ele>894.8</ele>
      </trkpt>
      <trkpt lat="44.36383" lon="3.73906">
        <ele>895.9</ele>
      </trkpt>
      <trkpt lat="44.36383" lon="3.73925">
        <ele>896.1</ele>
      </trkpt>
      <trkpt lat="44.36382" lon="3.73944">
        <ele>895.1</ele>
      </trkpt>
      <trkpt lat="44.36382" lon="3.73953">
        <ele>894.8</ele>
      </trkpt>
      <trkpt lat="44.3638" lon="3.73965">
        <ele>895</ele>
      </trkpt>
      <trkpt lat="44.36377" lon="3.73979">
        <ele>895.4</ele>
      </trkpt>
      <trkpt lat="44.36376" lon="3.73987">
        <ele>895.2</ele>
      </trkpt>
      <trkpt lat="44.36376" lon="3.73999">
        <ele>894.6</ele>
      </trkpt>
      <trkpt lat="44.36376" lon="3.74011">
        <ele>893.7</ele>
      </trkpt>
      <trkpt lat="44.36375" lon="3.74019">
        <ele>893.6</ele>
      </trkpt>
      <trkpt lat="44.36372" lon="3.74034">
        <ele>894</ele>
      </trkpt>
      <trkpt lat="44.36363" lon="3.74066">
        <ele>894.8</ele>
      </trkpt>
      <trkpt lat="44.36351" lon="3.74101">
        <ele>895.1</ele>
      </trkpt>
      <trkpt lat="44.36344" lon="3.74123">
        <ele>893.4</ele>
      </trkpt>
      <trkpt lat="44.36338" lon="3.74144">
        <ele>890.9</ele>
      </trkpt>
      <trkpt lat="44.36325" lon="3.74185">
        <ele>889</ele>
      </trkpt>
      <trkpt lat="44.36322" lon="3.74195">
        <ele>889</ele>
      </trkpt>
      <trkpt lat="44.3632" lon="3.74203">
        <ele>888.9</ele>
      </trkpt>
      <trkpt lat="44.36312" lon="3.74231">
        <ele>888</ele>
      </trkpt>
      <trkpt lat="44.36308" lon="3.74247">
        <ele>886.6</ele>
      </trkpt>
      <trkpt lat="44.36307" lon="3.74259">
        <ele>885.8</ele>
      </trkpt>
      <trkpt lat="44.36306" lon="3.74269">
        <ele>884.9</ele>
      </trkpt>
      <trkpt lat="44.36305" lon="3.74279">
        <ele>884.1</ele>
      </trkpt>
      <trkpt lat="44.36304" lon="3.74284">
        <ele>883.8</ele>
      </trkpt>
      <trkpt lat="44.36301" lon="3.74289">
        <ele>883.9</ele>
      </trkpt>
      <trkpt lat="44.36297" lon="3.74298">
        <ele>883.7</ele>
      </trkpt>
      <trkpt lat="44.36292" lon="3.74313">
        <ele>882.7</ele>
      </trkpt>
      <trkpt lat="44.36285" lon="3.74341">
        <ele>880.6</ele>
      </trkpt>
      <trkpt lat="44.36297" lon="3.74346">
        <ele>879.2</ele>
      </trkpt>
      <trkpt lat="44.363" lon="3.74348">
        <ele>878.9</ele>
      </trkpt>
      <trkpt lat="44.36315" lon="3.74354">
        <ele>877.6</ele>
      </trkpt>
      <trkpt lat="44.36322" lon="3.74356">
        <ele>877</ele>
      </trkpt>
      <trkpt lat="44.36324" lon="3.74357">
        <ele>876.9</ele>
      </trkpt>
      <trkpt lat="44.36329" lon="3.7436">
        <ele>876.7</ele>
      </trkpt>
      <trkpt lat="44.36331" lon="3.74363">
        <ele>876.6</ele>
      </trkpt>
      <trkpt lat="44.36329" lon="3.74367">
        <ele>876.9</ele>
      </trkpt>
      <trkpt lat="44.36327" lon="3.74375">
        <ele>877.3</ele>
      </trkpt>
      <trkpt lat="44.36324" lon="3.74391">
        <ele>878</ele>
      </trkpt>
      <trkpt lat="44.36314" lon="3.74433">
        <ele>879.5</ele>
      </trkpt>
      <trkpt lat="44.36304" lon="3.74475">
        <ele>880.9</ele>
      </trkpt>
      <trkpt lat="44.36302" lon="3.74482">
        <ele>881.1</ele>
      </trkpt>
      <trkpt lat="44.36302" lon="3.74489">
        <ele>881.3</ele>
      </trkpt>
      <trkpt lat="44.36303" lon="3.74526">
        <ele>882.9</ele>
      </trkpt>
      <trkpt lat="44.36303" lon="3.74544">
        <ele>883.8</ele>
      </trkpt>
      <trkpt lat="44.36305" lon="3.74598">
        <ele>885.8</ele>
      </trkpt>
      <trkpt lat="44.36305" lon="3.74603">
        <ele>885.8</ele>
      </trkpt>
      <trkpt lat="44.36306" lon="3.74618">
        <ele>886</ele>
      </trkpt>
      <trkpt lat="44.36307" lon="3.7462">
        <ele>886</ele>
      </trkpt>
      <trkpt lat="44.36307" lon="3.74623">
        <ele>886.1</ele>
      </trkpt>
      <trkpt lat="44.3631" lon="3.74619">
        <ele>886.2</ele>
      </trkpt>
      <trkpt lat="44.36315" lon="3.74608">
        <ele>886.5</ele>
      </trkpt>
      <trkpt lat="44.36319" lon="3.74599">
        <ele>886.8</ele>
      </trkpt>
      <trkpt lat="44.36321" lon="3.74591">
        <ele>886.9</ele>
      </trkpt>
      <trkpt lat="44.36322" lon="3.74574">
        <ele>886.6</ele>
      </trkpt>
      <trkpt lat="44.36323" lon="3.7457">
        <ele>886.5</ele>
      </trkpt>
      <trkpt lat="44.36326" lon="3.74548">
        <ele>885.7</ele>
      </trkpt>
      <trkpt lat="44.3633" lon="3.7452">
        <ele>884.7</ele>
      </trkpt>
      <trkpt lat="44.36336" lon="3.74502">
        <ele>884.4</ele>
      </trkpt>
      <trkpt lat="44.36342" lon="3.74475">
        <ele>883.5</ele>
      </trkpt>
      <trkpt lat="44.36344" lon="3.74466">
        <ele>883.1</ele>
      </trkpt>
      <trkpt lat="44.36347" lon="3.74466">
        <ele>883.5</ele>
      </trkpt>
      <trkpt lat="44.36354" lon="3.74466">
        <ele>884.2</ele>
      </trkpt>
      <trkpt lat="44.36367" lon="3.74465">
        <ele>885.7</ele>
      </trkpt>
      <trkpt lat="44.36368" lon="3.7447">
        <ele>886.1</ele>
      </trkpt>
      <trkpt lat="44.36365" lon="3.74478">
        <ele>886.2</ele>
      </trkpt>
      <trkpt lat="44.36365" lon="3.74481">
        <ele>886.3</ele>
      </trkpt>
      <trkpt lat="44.36365" lon="3.74492">
        <ele>887</ele>
      </trkpt>
      <trkpt lat="44.36367" lon="3.74497">
        <ele>887.4</ele>
      </trkpt>
      <trkpt lat="44.3637" lon="3.745">
        <ele>887.9</ele>
      </trkpt>
      <trkpt lat="44.36371" lon="3.74504">
        <ele>888.4</ele>
      </trkpt>
      <trkpt lat="44.36372" lon="3.74507">
        <ele>888.7</ele>
      </trkpt>
      <trkpt lat="44.36375" lon="3.74519">
        <ele>890</ele>
      </trkpt>
      <trkpt lat="44.36379" lon="3.74534">
        <ele>891.6</ele>
      </trkpt>
      <trkpt lat="44.36383" lon="3.74531">
        <ele>891.9</ele>
      </trkpt>
      <trkpt lat="44.36387" lon="3.7453">
        <ele>892.4</ele>
      </trkpt>
      <trkpt lat="44.36391" lon="3.7453">
        <ele>892.8</ele>
      </trkpt>
      <trkpt lat="44.36395" lon="3.7453">
        <ele>893.4</ele>
      </trkpt>
      <trkpt lat="44.36397" lon="3.74533">
        <ele>894</ele>
      </trkpt>
      <trkpt lat="44.36399" lon="3.74538">
        <ele>894.8</ele>
      </trkpt>
      <trkpt lat="44.36401" lon="3.74544">
        <ele>895.5</ele>
      </trkpt>
      <trkpt lat="44.36401" lon="3.7455">
        <ele>896</ele>
      </trkpt>
      <trkpt lat="44.364" lon="3.74555">
        <ele>896.5</ele>
      </trkpt>
      <trkpt lat="44.36392" lon="3.74591">
        <ele>898.8</ele>
      </trkpt>
      <trkpt lat="44.36375" lon="3.74668">
        <ele>901</ele>
      </trkpt>
      <trkpt lat="44.36365" lon="3.74715">
        <ele>901.9</ele>
      </trkpt>
      <trkpt lat="44.36364" lon="3.74721">
        <ele>902.3</ele>
      </trkpt>
      <trkpt lat="44.36365" lon="3.74726">
        <ele>903</ele>
      </trkpt>
      <trkpt lat="44.36366" lon="3.74728">
        <ele>903.6</ele>
      </trkpt>
      <trkpt lat="44.36366" lon="3.74747">
        <ele>905.5</ele>
      </trkpt>
      <trkpt lat="44.36369" lon="3.74751">
        <ele>898.991282</ele>
        <time>2019-10-07T01:17:51.949Z</time>
      </trkpt>
      <trkpt lat="44.36373" lon="3.74912">
        <ele>907.39544</ele>
        <time>2019-10-07T01:19:00.100Z</time>
      </trkpt>
      <trkpt lat="44.36368" lon="3.74957">
        <ele>910.044371</ele>
        <time>2019-10-07T01:19:22.808Z</time>
      </trkpt>
      <trkpt lat="44.36368" lon="3.75039">
        <ele>914.82774</ele>
        <time>2019-10-07T01:19:59.735Z</time>
      </trkpt>
      <trkpt lat="44.3638" lon="3.75094">
        <ele>918.174013</ele>
        <time>2019-10-07T01:20:25.942Z</time>
      </trkpt>
      <trkpt lat="44.36382" lon="3.75105">
        <ele>918.855467</ele>
        <time>2019-10-07T01:20:32.494Z</time>
      </trkpt>
      <trkpt lat="44.36383" lon="3.75099">
        <ele>919.252769</ele>
        <time>2019-10-07T01:20:36.312Z</time>
      </trkpt>
      <trkpt lat="44.36384" lon="3.75053">
        <ele>921.92208</ele>
        <time>2019-10-07T01:20:56.321Z</time>
      </trkpt>
      <trkpt lat="44.36389" lon="3.7502">
        <ele>924.255941</ele>
        <time>2019-10-07T01:21:10.176Z</time>
      </trkpt>
      <trkpt lat="44.36393" lon="3.75009">
        <ele>925.095175</ele>
        <time>2019-10-07T01:21:16.573Z</time>
      </trkpt>
      <trkpt lat="44.36394" lon="3.75034">
        <ele>926.857184</ele>
        <time>2019-10-07T01:21:28.814Z</time>
      </trkpt>
      <trkpt lat="44.36402" lon="3.75075">
        <ele>929.69961</ele>
        <time>2019-10-07T01:21:48.933Z</time>
      </trkpt>
      <trkpt lat="44.36412" lon="3.75212">
        <ele>939.18943</ele>
        <time>2019-10-07T01:23:01.250Z</time>
      </trkpt>
      <trkpt lat="44.36412" lon="3.7526">
        <ele>943.626875</ele>
        <time>2019-10-07T01:23:28.218Z</time>
      </trkpt>
      <trkpt lat="44.36409" lon="3.75339">
        <ele>951.078236</ele>
        <time>2019-10-07T01:24:14.159Z</time>
      </trkpt>
      <trkpt lat="44.36375" lon="3.75487">
        <ele>964.89345</ele>
        <time>2019-10-07T01:26:05.665Z</time>
      </trkpt>
      <trkpt lat="44.36376" lon="3.75536">
        <ele>968.579964</ele>
        <time>2019-10-07T01:26:36.891Z</time>
      </trkpt>
      <trkpt lat="44.36361" lon="3.7557">
        <ele>971.496078</ele>
        <time>2019-10-07T01:26:54.243Z</time>
      </trkpt>
      <trkpt lat="44.36359" lon="3.75575">
        <ele>971.936583</ele>
        <time>2019-10-07T01:27:00.175Z</time>
      </trkpt>
      <trkpt lat="44.36338" lon="3.75601">
        <ele>974.915106</ele>
        <time>2019-10-07T01:27:15.802Z</time>
      </trkpt>
      <trkpt lat="44.36315" lon="3.75624">
        <ele>977.814366</ele>
        <time>2019-10-07T01:27:34.767Z</time>
      </trkpt>
      <trkpt lat="44.36302" lon="3.7563">
        <ele>979.275888</ele>
        <time>2019-10-07T01:27:44.501Z</time>
      </trkpt>
      <trkpt lat="44.36261" lon="3.7563">
        <ele>981.562471</ele>
        <time>2019-10-07T01:28:07.363Z</time>
      </trkpt>
      <trkpt lat="44.36194" lon="3.75656">
        <ele>983.10251</ele>
        <time>2019-10-07T01:28:30.637Z</time>
      </trkpt>
      <trkpt lat="44.36166" lon="3.75696">
        <ele>984.006193</ele>
        <time>2019-10-07T01:28:38.946Z</time>
      </trkpt>
      <trkpt lat="44.36146" lon="3.75764">
        <ele>985.219669</ele>
        <time>2019-10-07T01:28:50.448Z</time>
      </trkpt>
      <trkpt lat="44.3614" lon="3.75843">
        <ele>986.834461</ele>
        <time>2019-10-07T01:29:05.657Z</time>
      </trkpt>
      <trkpt lat="44.36147" lon="3.75991">
        <ele>989.889464</ele>
        <time>2019-10-07T01:29:47.629Z</time>
      </trkpt>
      <trkpt lat="44.36139" lon="3.7611">
        <ele>996.57508</ele>
        <time>2019-10-07T01:30:34.960Z</time>
      </trkpt>
      <trkpt lat="44.36145" lon="3.76182">
        <ele>1000.981472</ele>
        <time>2019-10-07T01:31:10.040Z</time>
      </trkpt>
      <trkpt lat="44.3616" lon="3.76248">
        <ele>1005.222893</ele>
        <time>2019-10-07T01:31:48.769Z</time>
      </trkpt>
      <trkpt lat="44.36192" lon="3.7629">
        <ele>1010.793944</ele>
        <time>2019-10-07T01:32:24.589Z</time>
      </trkpt>
      <trkpt lat="44.36211" lon="3.76333">
        <ele>1015.570338</ele>
        <time>2019-10-07T01:32:55.637Z</time>
      </trkpt>
      <trkpt lat="44.36222" lon="3.76345">
        <ele>1017.425213</ele>
        <time>2019-10-07T01:33:07.786Z</time>
      </trkpt>
      <trkpt lat="44.36246" lon="3.76344">
        <ele>1020.569122</ele>
        <time>2019-10-07T01:33:30.389Z</time>
      </trkpt>
      <trkpt lat="44.3627" lon="3.76322">
        <ele>1024.393707</ele>
        <time>2019-10-07T01:33:58.862Z</time>
      </trkpt>
      <trkpt lat="44.36345" lon="3.76222">
        <ele>1037.588174</ele>
        <time>2019-10-07T01:35:33.842Z</time>
      </trkpt>
      <trkpt lat="44.36364" lon="3.76198">
        <ele>1040.797273</ele>
        <time>2019-10-07T01:35:56.202Z</time>
      </trkpt>
      <trkpt lat="44.3638" lon="3.76175">
        <ele>1043.605789</ele>
        <time>2019-10-07T01:36:14.274Z</time>
      </trkpt>
      <trkpt lat="44.36397" lon="3.76159">
        <ele>1046.223274</ele>
        <time>2019-10-07T01:36:30.588Z</time>
      </trkpt>
      <trkpt lat="44.36424" lon="3.76155">
        <ele>1049.612846</ele>
        <time>2019-10-07T01:36:52.526Z</time>
      </trkpt>
      <trkpt lat="44.36507" lon="3.76092">
        <ele>1059.544109</ele>
        <time>2019-10-07T01:38:05.612Z</time>
      </trkpt>
      <trkpt lat="44.36586" lon="3.76057">
        <ele>1067.756987</ele>
        <time>2019-10-07T01:39:01.930Z</time>
      </trkpt>
      <trkpt lat="44.36605" lon="3.76044">
        <ele>1069.881954</ele>
        <time>2019-10-07T01:39:17.195Z</time>
      </trkpt>
      <trkpt lat="44.36666" lon="3.75991">
        <ele>1075.405639</ele>
        <time>2019-10-07T01:40:04.261Z</time>
      </trkpt>
      <trkpt lat="44.36712" lon="3.75939">
        <ele>1079.967896</ele>
        <time>2019-10-07T01:40:39.790Z</time>
      </trkpt>
      <trkpt lat="44.36728" lon="3.7593">
        <ele>1081.300919</ele>
        <time>2019-10-07T01:40:49.613Z</time>
      </trkpt>
      <trkpt lat="44.36738" lon="3.75936">
        <ele>1082.139916</ele>
        <time>2019-10-07T01:40:55.397Z</time>
      </trkpt>
      <trkpt lat="44.36746" lon="3.75953">
        <ele>1083.283304</ele>
        <time>2019-10-07T01:41:03.071Z</time>
      </trkpt>
      <trkpt lat="44.36751" lon="3.75984">
        <ele>1084.926241</ele>
        <time>2019-10-07T01:41:14.331Z</time>
      </trkpt>
      <trkpt lat="44.36749" lon="3.76059">
        <ele>1088.820171</ele>
        <time>2019-10-07T01:41:42.747Z</time>
      </trkpt>
      <trkpt lat="44.36747" lon="3.76141">
        <ele>1093.075595</ele>
        <time>2019-10-07T01:42:18.350Z</time>
      </trkpt>
      <trkpt lat="44.36751" lon="3.76159">
        <ele>1094.011168</ele>
        <time>2019-10-07T01:42:25.408Z</time>
      </trkpt>
      <trkpt lat="44.36771" lon="3.76172">
        <ele>1095.659832</ele>
        <time>2019-10-07T01:42:39.533Z</time>
      </trkpt>
      <trkpt lat="44.36823" lon="3.7618">
        <ele>1099.683267</ele>
        <time>2019-10-07T01:43:13.411Z</time>
      </trkpt>
      <trkpt lat="44.36843" lon="3.76183">
        <ele>1101.284091</ele>
        <time>2019-10-07T01:43:28.693Z</time>
      </trkpt>
      <trkpt lat="44.36853" lon="3.76187">
        <ele>1102.111954</ele>
        <time>2019-10-07T01:43:36.008Z</time>
      </trkpt>
      <trkpt lat="44.36863" lon="3.76215">
        <ele>1103.857276</ele>
        <time>2019-10-07T01:43:53.181Z</time>
      </trkpt>
      <trkpt lat="44.36855" lon="3.76255">
        <ele>1106.23096</ele>
        <time>2019-10-07T01:44:09.773Z</time>
      </trkpt>
      <trkpt lat="44.36863" lon="3.76305">
        <ele>1109.138243</ele>
        <time>2019-10-07T01:44:31.427Z</time>
      </trkpt>
      <trkpt lat="44.36861" lon="3.76326">
        <ele>1110.346875</ele>
        <time>2019-10-07T01:44:39.055Z</time>
      </trkpt>
      <trkpt lat="44.36856" lon="3.7636">
        <ele>1111.830998</ele>
        <time>2019-10-07T01:44:53.872Z</time>
      </trkpt>
      <trkpt lat="44.3685" lon="3.76399">
        <ele>1113.412974</ele>
        <time>2019-10-07T01:45:05.067Z</time>
      </trkpt>
      <trkpt lat="44.36846" lon="3.76409">
        <ele>1113.835681</ele>
        <time>2019-10-07T01:45:11.079Z</time>
      </trkpt>
      <trkpt lat="44.3684" lon="3.76429">
        <ele>1114.684641</ele>
        <time>2019-10-07T01:45:13.954Z</time>
      </trkpt>
      <trkpt lat="44.36831" lon="3.76447">
        <ele>1115.552414</ele>
        <time>2019-10-07T01:45:25.045Z</time>
      </trkpt>
      <trkpt lat="44.36796" lon="3.76493">
        <ele>1118.152824</ele>
        <time>2019-10-07T01:45:49.319Z</time>
      </trkpt>
      <trkpt lat="44.36791" lon="3.7651">
        <ele>1118.864416</ele>
        <time>2019-10-07T01:45:51.549Z</time>
      </trkpt>
      <trkpt lat="44.36791" lon="3.76512">
        <ele>1118.932353</ele>
        <time>2019-10-07T01:45:53.603Z</time>
      </trkpt>
      <trkpt lat="44.3679" lon="3.76529">
        <ele>1119.619706</ele>
        <time>2019-10-07T01:46:01.833Z</time>
      </trkpt>
      <trkpt lat="44.36797" lon="3.76546">
        <ele>1120.379608</ele>
        <time>2019-10-07T01:46:04.566Z</time>
      </trkpt>
      <trkpt lat="44.36864" lon="3.76636">
        <ele>1127.707996</ele>
        <time>2019-10-07T01:46:56.532Z</time>
      </trkpt>
      <trkpt lat="44.36866" lon="3.76655">
        <ele>1128.839841</ele>
        <time>2019-10-07T01:47:04.572Z</time>
      </trkpt>
      <trkpt lat="44.36864" lon="3.76683">
        <ele>1130.441154</ele>
        <time>2019-10-07T01:47:20.421Z</time>
      </trkpt>
      <trkpt lat="44.36857" lon="3.76708">
        <ele>1132.035825</ele>
        <time>2019-10-07T01:47:34.963Z</time>
      </trkpt>
      <trkpt lat="44.36832" lon="3.76759">
        <ele>1135.616341</ele>
        <time>2019-10-07T01:48:06.686Z</time>
      </trkpt>
      <trkpt lat="44.36827" lon="3.76819">
        <ele>1139.827286</ele>
        <time>2019-10-07T01:48:38.199Z</time>
      </trkpt>
      <trkpt lat="44.36811" lon="3.76905">
        <ele>1145.905877</ele>
        <time>2019-10-07T01:49:22.866Z</time>
      </trkpt>
      <trkpt lat="44.36811" lon="3.7698">
        <ele>1151.085405</ele>
        <time>2019-10-07T01:49:59.843Z</time>
      </trkpt>
      <trkpt lat="44.36821" lon="3.77055">
        <ele>1156.336102</ele>
        <time>2019-10-07T01:50:36.964Z</time>
      </trkpt>
      <trkpt lat="44.3681" lon="3.77085">
        <ele>1158.670759</ele>
        <time>2019-10-07T01:50:53.489Z</time>
      </trkpt>
      <trkpt lat="44.36799" lon="3.77136">
        <ele>1162.319258</ele>
        <time>2019-10-07T01:51:19.858Z</time>
      </trkpt>
      <trkpt lat="44.36802" lon="3.77155">
        <ele>1163.622832</ele>
        <time>2019-10-07T01:51:29.521Z</time>
      </trkpt>
      <trkpt lat="44.36812" lon="3.77171">
        <ele>1165.090061</ele>
        <time>2019-10-07T01:51:40.170Z</time>
      </trkpt>
      <trkpt lat="44.36891" lon="3.77229">
        <ele>1174.228398</ele>
        <time>2019-10-07T01:52:45.446Z</time>
      </trkpt>
      <trkpt lat="44.3698" lon="3.77294">
        <ele>1185.382142</ele>
        <time>2019-10-07T01:54:04.763Z</time>
      </trkpt>
      <trkpt lat="44.37006" lon="3.773">
        <ele>1188.241445</ele>
        <time>2019-10-07T01:54:25.830Z</time>
      </trkpt>
      <trkpt lat="44.37045" lon="3.77291">
        <ele>1192.703884</ele>
        <time>2019-10-07T01:54:57.230Z</time>
      </trkpt>
      <trkpt lat="44.37153" lon="3.77302">
        <ele>1205.309206</ele>
        <time>2019-10-07T01:56:23.287Z</time>
      </trkpt>
      <trkpt lat="44.37237" lon="3.77332">
        <ele>1214.932899</ele>
        <time>2019-10-07T01:57:35.804Z</time>
      </trkpt>
      <trkpt lat="44.37287" lon="3.77365">
        <ele>1220.668234</ele>
        <time>2019-10-07T01:58:18.447Z</time>
      </trkpt>
      <trkpt lat="44.37303" lon="3.77379">
        <ele>1222.643657</ele>
        <time>2019-10-07T01:58:32.822Z</time>
      </trkpt>
      <trkpt lat="44.37361" lon="3.77431">
        <ele>1229.577401</ele>
        <time>2019-10-07T01:59:19.425Z</time>
      </trkpt>
      <trkpt lat="44.37373" lon="3.77444">
        <ele>1230.464755</ele>
        <time>2019-10-07T01:59:28.978Z</time>
      </trkpt>
      <trkpt lat="44.37384" lon="3.77467">
        <ele>1231.632353</ele>
        <time>2019-10-07T01:59:41.154Z</time>
      </trkpt>
      <trkpt lat="44.37393" lon="3.77539">
        <ele>1234.691159</ele>
        <time>2019-10-07T02:00:12.122Z</time>
      </trkpt>
      <trkpt lat="44.37378" lon="3.77625">
        <ele>1238.4297</ele>
        <time>2019-10-07T02:00:41.409Z</time>
      </trkpt>
      <trkpt lat="44.37434" lon="3.77769">
        <ele>1241.148933</ele>
        <time>2019-10-07T02:01:18.590Z</time>
      </trkpt>
      <trkpt lat="44.37441" lon="3.77801">
        <ele>1241.483446</ele>
        <time>2019-10-07T02:01:24.995Z</time>
      </trkpt>
      <trkpt lat="44.37428" lon="3.77832">
        <ele>1241.849115</ele>
        <time>2019-10-07T02:01:31.558Z</time>
      </trkpt>
      <trkpt lat="44.37389" lon="3.77886">
        <ele>1242.45211</ele>
        <time>2019-10-07T02:01:44.547Z</time>
      </trkpt>
      <trkpt lat="44.37365" lon="3.77931">
        <ele>1242.629886</ele>
        <time>2019-10-07T02:01:53.516Z</time>
      </trkpt>
      <trkpt lat="44.37329" lon="3.78027">
        <ele>1242.976288</ele>
        <time>2019-10-07T02:02:11.284Z</time>
      </trkpt>
      <trkpt lat="44.37316" lon="3.78126">
        <ele>1243.607955</ele>
        <time>2019-10-07T02:02:30.938Z</time>
      </trkpt>
      <trkpt lat="44.37317" lon="3.78173">
        <ele>1244.15708</ele>
        <time>2019-10-07T02:02:41.251Z</time>
      </trkpt>
      <trkpt lat="44.37309" lon="3.7821">
        <ele>1244.599014</ele>
        <time>2019-10-07T02:02:49.872Z</time>
      </trkpt>
      <trkpt lat="44.37276" lon="3.78289">
        <ele>1245.662239</ele>
        <time>2019-10-07T02:03:10.869Z</time>
      </trkpt>
      <trkpt lat="44.37234" lon="3.78413">
        <ele>1247.167691</ele>
        <time>2019-10-07T02:03:40.935Z</time>
      </trkpt>
      <trkpt lat="44.37226" lon="3.7851">
        <ele>1248.224308</ele>
        <time>2019-10-07T02:04:01.014Z</time>
      </trkpt>
      <trkpt lat="44.37204" lon="3.78632">
        <ele>1250.299598</ele>
        <time>2019-10-07T02:04:27.676Z</time>
      </trkpt>
      <trkpt lat="44.37197" lon="3.78703">
        <ele>1251.775007</ele>
        <time>2019-10-07T02:04:45.088Z</time>
      </trkpt>
      <trkpt lat="44.37201" lon="3.78812">
        <ele>1254.043005</ele>
        <time>2019-10-07T02:05:16.822Z</time>
      </trkpt>
      <trkpt lat="44.37216" lon="3.78858">
        <ele>1255.921598</ele>
        <time>2019-10-07T02:05:33.734Z</time>
      </trkpt>
      <trkpt lat="44.37228" lon="3.78881">
        <ele>1256.996264</ele>
        <time>2019-10-07T02:05:46.268Z</time>
      </trkpt>
      <trkpt lat="44.37323" lon="3.79005">
        <ele>1263.497389</ele>
        <time>2019-10-07T02:06:50.944Z</time>
      </trkpt>
      <trkpt lat="44.37325" lon="3.79016">
        <ele>1263.671571</ele>
        <time>2019-10-07T02:06:55.992Z</time>
      </trkpt>
      <trkpt lat="44.37323" lon="3.79054">
        <ele>1264.278504</ele>
        <time>2019-10-07T02:07:05.464Z</time>
      </trkpt>
      <trkpt lat="44.37325" lon="3.79059">
        <ele>1264.361503</ele>
        <time>2019-10-07T02:07:07.923Z</time>
      </trkpt>
      <trkpt lat="44.373" lon="3.7906">
        <ele>1264.908342</ele>
        <time>2019-10-07T02:07:19.710Z</time>
      </trkpt>
      <trkpt lat="44.37186" lon="3.79063">
        <ele>1267.291951</ele>
        <time>2019-10-07T02:08:09.769Z</time>
      </trkpt>
      <trkpt lat="44.37153" lon="3.79075">
        <ele>1267.434013</ele>
        <time>2019-10-07T02:08:21.231Z</time>
      </trkpt>
      <trkpt lat="44.37149" lon="3.79084">
        <ele>1267.466441</ele>
        <time>2019-10-07T02:08:23.988Z</time>
      </trkpt>
      <trkpt lat="44.37171" lon="3.79159">
        <ele>1267.708742</ele>
        <time>2019-10-07T02:08:45.383Z</time>
      </trkpt>
      <trkpt lat="44.37162" lon="3.79221">
        <ele>1267.897014</ele>
        <time>2019-10-07T02:09:03.750Z</time>
      </trkpt>
      <trkpt lat="44.37146" lon="3.79262">
        <ele>1268.070849</ele>
        <time>2019-10-07T02:09:17.903Z</time>
      </trkpt>
      <trkpt lat="44.37147" lon="3.79397">
        <ele>1269.333638</ele>
        <time>2019-10-07T02:09:59.868Z</time>
      </trkpt>
      <trkpt lat="44.372" lon="3.79577">
        <ele>1272.921983</ele>
        <time>2019-10-07T02:11:01.848Z</time>
      </trkpt>
      <trkpt lat="44.37192" lon="3.79583">
        <ele>1273.305357</ele>
        <time>2019-10-07T02:11:05.429Z</time>
      </trkpt>
      <trkpt lat="44.3719" lon="3.79608">
        <ele>1274.078575</ele>
        <time>2019-10-07T02:11:16.158Z</time>
      </trkpt>
      <trkpt lat="44.37168" lon="3.79619">
        <ele>1275.064233</ele>
        <time>2019-10-07T02:11:30.710Z</time>
      </trkpt>
      <trkpt lat="44.37154" lon="3.79605">
        <ele>1275.824201</ele>
        <time>2019-10-07T02:11:43.088Z</time>
      </trkpt>
      <trkpt lat="44.37147" lon="3.79589">
        <ele>1276.374343</ele>
        <time>2019-10-07T02:11:51.246Z</time>
      </trkpt>
      <trkpt lat="44.37138" lon="3.79576">
        <ele>1276.946107</ele>
        <time>2019-10-07T02:11:59.591Z</time>
      </trkpt>
      <trkpt lat="44.37125" lon="3.79576">
        <ele>1277.515122</ele>
        <time>2019-10-07T02:12:10.695Z</time>
      </trkpt>
      <trkpt lat="44.37115" lon="3.79589">
        <ele>1278.133</ele>
        <time>2019-10-07T02:12:18.666Z</time>
      </trkpt>
      <trkpt lat="44.37103" lon="3.79591">
        <ele>1279.367737</ele>
        <time>2019-10-07T02:12:27.408Z</time>
      </trkpt>
      <trkpt lat="44.37083" lon="3.79574">
        <ele>1281.700751</ele>
        <time>2019-10-07T02:12:45.857Z</time>
      </trkpt>
      <trkpt lat="44.37071" lon="3.79573">
        <ele>1282.896898</ele>
        <time>2019-10-07T02:12:55.038Z</time>
      </trkpt>
      <trkpt lat="44.3706" lon="3.79596">
        <ele>1284.873538</ele>
        <time>2019-10-07T02:13:13.251Z</time>
      </trkpt>
      <trkpt lat="44.37032" lon="3.79669">
        <ele>1290.71531</ele>
        <time>2019-10-07T02:14:06.844Z</time>
      </trkpt>
      <trkpt lat="44.37039" lon="3.79728">
        <ele>1294.991956</ele>
        <time>2019-10-07T02:14:47.790Z</time>
      </trkpt>
      <trkpt lat="44.37016" lon="3.79835">
        <ele>1303.485269</ele>
        <time>2019-10-07T02:16:04.560Z</time>
      </trkpt>
      <trkpt lat="44.37012" lon="3.79883">
        <ele>1307.193885</ele>
        <time>2019-10-07T02:16:36.711Z</time>
      </trkpt>
      <trkpt lat="44.36993" lon="3.79923">
        <ele>1310.809584</ele>
        <time>2019-10-07T02:17:07.127Z</time>
      </trkpt>
      <trkpt lat="44.36987" lon="3.7995">
        <ele>1312.993752</ele>
        <time>2019-10-07T02:17:24.844Z</time>
      </trkpt>
      <trkpt lat="44.36979" lon="3.80005">
        <ele>1316.48</ele>
        <time>2019-10-07T02:17:58.973Z</time>
      </trkpt>
      <trkpt lat="44.37012" lon="3.80081">
        <ele>1320.631283</ele>
        <time>2019-10-07T02:18:47.086Z</time>
      </trkpt>
      <trkpt lat="44.37025" lon="3.80129">
        <ele>1323.075131</ele>
        <time>2019-10-07T02:19:13.413Z</time>
      </trkpt>
      <trkpt lat="44.37048" lon="3.80145">
        <ele>1324.779988</ele>
        <time>2019-10-07T02:19:30.722Z</time>
      </trkpt>
      <trkpt lat="44.37122" lon="3.80255">
        <ele>1328.211976</ele>
        <time>2019-10-07T02:20:25.583Z</time>
      </trkpt>
      <trkpt lat="44.37139" lon="3.80297">
        <ele>1328.790695</ele>
        <time>2019-10-07T02:20:41.042Z</time>
      </trkpt>
      <trkpt lat="44.3715" lon="3.80344">
        <ele>1329.387091</ele>
        <time>2019-10-07T02:20:56.207Z</time>
      </trkpt>
      <trkpt lat="44.37186" lon="3.80421">
        <ele>1329.492274</ele>
        <time>2019-10-07T02:21:20.216Z</time>
      </trkpt>
      <trkpt lat="44.37198" lon="3.8052">
        <ele>1328.315721</ele>
        <time>2019-10-07T02:21:44.247Z</time>
      </trkpt>
      <trkpt lat="44.37209" lon="3.80575">
        <ele>1327.646921</ele>
        <time>2019-10-07T02:21:57.375Z</time>
      </trkpt>
      <trkpt lat="44.37209" lon="3.80593">
        <ele>1327.437517</ele>
        <time>2019-10-07T02:22:01.199Z</time>
      </trkpt>
      <trkpt lat="44.37199" lon="3.80603">
        <ele>1327.24153</ele>
        <time>2019-10-07T02:22:05.153Z</time>
      </trkpt>
      <trkpt lat="44.37185" lon="3.80668">
        <ele>1326.285425</ele>
        <time>2019-10-07T02:22:20.591Z</time>
      </trkpt>
      <trkpt lat="44.37127" lon="3.80753">
        <ele>1324.540337</ele>
        <time>2019-10-07T02:22:47.054Z</time>
      </trkpt>
      <trkpt lat="44.37093" lon="3.8085">
        <ele>1323.280946</ele>
        <time>2019-10-07T02:23:13.377Z</time>
      </trkpt>
      <trkpt lat="44.37019" lon="3.80919">
        <ele>1323.181625</ele>
        <time>2019-10-07T02:23:45.339Z</time>
      </trkpt>
      <trkpt lat="44.37004" lon="3.81042">
        <ele>1323.301108</ele>
        <time>2019-10-07T02:24:20.689Z</time>
      </trkpt>
      <trkpt lat="44.37008" lon="3.81099">
        <ele>1323.853327</ele>
        <time>2019-10-07T02:24:38.332Z</time>
      </trkpt>
      <trkpt lat="44.36995" lon="3.81202">
        <ele>1324.851538</ele>
        <time>2019-10-07T02:25:11.822Z</time>
      </trkpt>
      <trkpt lat="44.36914" lon="3.81264">
        <ele>1326.041958</ele>
        <time>2019-10-07T02:25:54.351Z</time>
      </trkpt>
      <trkpt lat="44.36897" lon="3.81285">
        <ele>1326.322363</ele>
        <time>2019-10-07T02:26:04.657Z</time>
      </trkpt>
      <trkpt lat="44.36882" lon="3.81288">
        <ele>1326.505909</ele>
        <time>2019-10-07T02:26:11.395Z</time>
      </trkpt>
      <trkpt lat="44.36862" lon="3.81328">
        <ele>1326.936632</ele>
        <time>2019-10-07T02:26:26.924Z</time>
      </trkpt>
      <trkpt lat="44.36837" lon="3.81362">
        <ele>1327.369847</ele>
        <time>2019-10-07T02:26:42.038Z</time>
      </trkpt>
      <trkpt lat="44.36828" lon="3.81391">
        <ele>1327.650264</ele>
        <time>2019-10-07T02:26:50.776Z</time>
      </trkpt>
      <trkpt lat="44.36828" lon="3.81391">
        <ele>1327.650264</ele>
        <time>2019-10-07T02:26:50.798Z</time>
      </trkpt>
      <trkpt lat="44.36832" lon="3.81459">
        <ele>1327.633529</ele>
        <time>2019-10-07T02:27:08.660Z</time>
      </trkpt>
      <trkpt lat="44.36841" lon="3.81481">
        <ele>1327.596725</ele>
        <time>2019-10-07T02:27:15.177Z</time>
      </trkpt>
      <trkpt lat="44.36882" lon="3.81531">
        <ele>1327.486086</ele>
        <time>2019-10-07T02:27:35.013Z</time>
      </trkpt>
      <trkpt lat="44.36926" lon="3.81554">
        <ele>1327.391574</ele>
        <time>2019-10-07T02:27:51.755Z</time>
      </trkpt>
      <trkpt lat="44.37011" lon="3.81597">
        <ele>1327.540232</ele>
        <time>2019-10-07T02:28:24.700Z</time>
      </trkpt>
      <trkpt lat="44.3706" lon="3.81652">
        <ele>1327.697086</ele>
        <time>2019-10-07T02:28:49.035Z</time>
      </trkpt>
      <trkpt lat="44.37097" lon="3.81678">
        <ele>1327.801231</ele>
        <time>2019-10-07T02:29:06.595Z</time>
      </trkpt>
      <trkpt lat="44.37155" lon="3.81755">
        <ele>1328.087586</ele>
        <time>2019-10-07T02:29:39.181Z</time>
      </trkpt>
      <trkpt lat="44.37169" lon="3.81806">
        <ele>1328.229577</ele>
        <time>2019-10-07T02:29:54.514Z</time>
      </trkpt>
      <trkpt lat="44.37124" lon="3.8202">
        <ele>1328.434638</ele>
        <time>2019-10-07T02:30:53.200Z</time>
      </trkpt>
      <trkpt lat="44.37158" lon="3.82125">
        <ele>1328.418042</ele>
        <time>2019-10-07T02:31:23.641Z</time>
      </trkpt>
      <trkpt lat="44.37193" lon="3.82186">
        <ele>1328.925685</ele>
        <time>2019-10-07T02:31:45.517Z</time>
      </trkpt>
      <trkpt lat="44.37218" lon="3.82211">
        <ele>1329.203386</ele>
        <time>2019-10-07T02:31:57.728Z</time>
      </trkpt>
      <trkpt lat="44.37236" lon="3.82209">
        <ele>1329.365713</ele>
        <time>2019-10-07T02:32:04.831Z</time>
      </trkpt>
      <trkpt lat="44.37236" lon="3.82219">
        <ele>1329.435025</ele>
        <time>2019-10-07T02:32:08.008Z</time>
      </trkpt>
      <trkpt lat="44.37251" lon="3.82256">
        <ele>1329.711115</ele>
        <time>2019-10-07T02:32:21.322Z</time>
      </trkpt>
      <trkpt lat="44.37262" lon="3.82265">
        <ele>1329.832154</ele>
        <time>2019-10-07T02:32:27.120Z</time>
      </trkpt>
      <trkpt lat="44.3737" lon="3.82277">
        <ele>1331.942923</ele>
        <time>2019-10-07T02:33:17.775Z</time>
      </trkpt>
      <trkpt lat="44.37378" lon="3.82289">
        <ele>1332.21111</ele>
        <time>2019-10-07T02:33:23.978Z</time>
      </trkpt>
      <trkpt lat="44.37556" lon="3.82473">
        <ele>1337.588192</ele>
        <time>2019-10-07T02:35:14.226Z</time>
      </trkpt>
      <trkpt lat="44.37571" lon="3.82496">
        <ele>1338.14993</ele>
        <time>2019-10-07T02:35:25.055Z</time>
      </trkpt>
      <trkpt lat="44.37581" lon="3.8253">
        <ele>1338.847737</ele>
        <time>2019-10-07T02:35:37.622Z</time>
      </trkpt>
      <trkpt lat="44.37571" lon="3.82606">
        <ele>1340.904916</ele>
        <time>2019-10-07T02:36:05.720Z</time>
      </trkpt>
      <trkpt lat="44.37555" lon="3.8264">
        <ele>1341.999141</ele>
        <time>2019-10-07T02:36:21.354Z</time>
      </trkpt>
      <trkpt lat="44.37536" lon="3.82714">
        <ele>1344.088958</ele>
        <time>2019-10-07T02:36:52.857Z</time>
      </trkpt>
      <trkpt lat="44.3751" lon="3.82751">
        <ele>1345.477728</ele>
        <time>2019-10-07T02:37:14.652Z</time>
      </trkpt>
      <trkpt lat="44.37417" lon="3.82785">
        <ele>1351.401195</ele>
        <time>2019-10-07T02:38:21.638Z</time>
      </trkpt>
      <trkpt lat="44.37391" lon="3.82807">
        <ele>1353.236159</ele>
        <time>2019-10-07T02:38:43.041Z</time>
      </trkpt>
      <trkpt lat="44.37378" lon="3.82839">
        <ele>1354.812401</ele>
        <time>2019-10-07T02:39:01.729Z</time>
      </trkpt>
      <trkpt lat="44.37378" lon="3.82858">
        <ele>1355.658216</ele>
        <time>2019-10-07T02:39:11.330Z</time>
      </trkpt>
      <trkpt lat="44.37393" lon="3.82892">
        <ele>1357.013982</ele>
        <time>2019-10-07T02:39:30.149Z</time>
      </trkpt>
      <trkpt lat="44.37403" lon="3.82913">
        <ele>1357.664992</ele>
        <time>2019-10-07T02:39:43.144Z</time>
      </trkpt>
      <trkpt lat="44.37431" lon="3.82954">
        <ele>1359.162617</ele>
        <time>2019-10-07T02:40:07.444Z</time>
      </trkpt>
      <trkpt lat="44.3745" lon="3.82994">
        <ele>1360.438743</ele>
        <time>2019-10-07T02:40:26.961Z</time>
      </trkpt>
      <trkpt lat="44.37464" lon="3.8307">
        <ele>1362.498846</ele>
        <time>2019-10-07T02:40:54.204Z</time>
      </trkpt>
      <trkpt lat="44.37466" lon="3.83119">
        <ele>1363.00372</ele>
        <time>2019-10-07T02:41:08.921Z</time>
      </trkpt>
      <trkpt lat="44.37461" lon="3.8317">
        <ele>1362.997668</ele>
        <time>2019-10-07T02:41:21.890Z</time>
      </trkpt>
      <trkpt lat="44.37388" lon="3.83345">
        <ele>1362.78155</ele>
        <time>2019-10-07T02:42:14.382Z</time>
      </trkpt>
      <trkpt lat="44.37387" lon="3.83344">
        <ele>1356.9</ele>
      </trkpt>
      <trkpt lat="44.37382" lon="3.83355">
        <ele>1357.6</ele>
      </trkpt>
      <trkpt lat="44.37361" lon="3.83388">
        <ele>1358.9</ele>
      </trkpt>
      <trkpt lat="44.37347" lon="3.8341">
        <ele>1358.7</ele>
      </trkpt>
      <trkpt lat="44.37337" lon="3.83425">
        <ele>1359.1</ele>
      </trkpt>
      <trkpt lat="44.37329" lon="3.83436">
        <ele>1359.8</ele>
      </trkpt>
      <trkpt lat="44.37325" lon="3.83445">
        <ele>1360.3</ele>
      </trkpt>
      <trkpt lat="44.37323" lon="3.83453">
        <ele>1360.6</ele>
      </trkpt>
      <trkpt lat="44.37323" lon="3.83456">
        <ele>1360.7</ele>
      </trkpt>
      <trkpt lat="44.37323" lon="3.83465">
        <ele>1360.9</ele>
      </trkpt>
      <trkpt lat="44.37323" lon="3.83475">
        <ele>1361.1</ele>
      </trkpt>
      <trkpt lat="44.37326" lon="3.83484">
        <ele>1361.1</ele>
      </trkpt>
      <trkpt lat="44.37331" lon="3.83494">
        <ele>1361</ele>
      </trkpt>
      <trkpt lat="44.37335" lon="3.835">
        <ele>1361.1</ele>
      </trkpt>
      <trkpt lat="44.37341" lon="3.83504">
        <ele>1361.5</ele>
      </trkpt>
      <trkpt lat="44.37345" lon="3.83504">
        <ele>1361.7</ele>
      </trkpt>
      <trkpt lat="44.37349" lon="3.83504">
        <ele>1361.8</ele>
      </trkpt>
      <trkpt lat="44.37354" lon="3.83502">
        <ele>1361.7</ele>
      </trkpt>
      <trkpt lat="44.3736" lon="3.83496">
        <ele>1361.5</ele>
      </trkpt>
      <trkpt lat="44.37368" lon="3.8349">
        <ele>1361.3</ele>
      </trkpt>
      <trkpt lat="44.37374" lon="3.83486">
        <ele>1361.2</ele>
      </trkpt>
      <trkpt lat="44.37383" lon="3.83484">
        <ele>1361.1</ele>
      </trkpt>
      <trkpt lat="44.37397" lon="3.8348">
        <ele>1360.9</ele>
      </trkpt>
      <trkpt lat="44.37408" lon="3.83479">
        <ele>1360.9</ele>
      </trkpt>
      <trkpt lat="44.37415" lon="3.8348">
        <ele>1361.1</ele>
      </trkpt>
      <trkpt lat="44.37428" lon="3.83482">
        <ele>1361.1</ele>
      </trkpt>
      <trkpt lat="44.37444" lon="3.83487">
        <ele>1361.3</ele>
      </trkpt>
      <trkpt lat="44.37452" lon="3.8349">
        <ele>1361.5</ele>
      </trkpt>
      <trkpt lat="44.37461" lon="3.83496">
        <ele>1362</ele>
      </trkpt>
      <trkpt lat="44.37473" lon="3.83505">
        <ele>1362.7</ele>
      </trkpt>
      <trkpt lat="44.37485" lon="3.83512">
        <ele>1363.1</ele>
      </trkpt>
      <trkpt lat="44.37507" lon="3.83525">
        <ele>1363.9</ele>
      </trkpt>
      <trkpt lat="44.37533" lon="3.83542">
        <ele>1365</ele>
      </trkpt>
      <trkpt lat="44.3754" lon="3.83549">
        <ele>1365.4</ele>
      </trkpt>
      <trkpt lat="44.37545" lon="3.83556">
        <ele>1365.9</ele>
      </trkpt>
      <trkpt lat="44.37552" lon="3.83568">
        <ele>1366.5</ele>
      </trkpt>
      <trkpt lat="44.37566" lon="3.83604">
        <ele>1366.8</ele>
      </trkpt>
      <trkpt lat="44.37573" lon="3.83625">
        <ele>1366.3</ele>
      </trkpt>
      <trkpt lat="44.37574" lon="3.83635">
        <ele>1366</ele>
      </trkpt>
      <trkpt lat="44.37574" lon="3.83644">
        <ele>1365.8</ele>
      </trkpt>
      <trkpt lat="44.37572" lon="3.83653">
        <ele>1365.7</ele>
      </trkpt>
      <trkpt lat="44.37568" lon="3.83664">
        <ele>1365.6</ele>
      </trkpt>
      <trkpt lat="44.37562" lon="3.83679">
        <ele>1366</ele>
      </trkpt>
      <trkpt lat="44.3756" lon="3.83689">
        <ele>1366.3</ele>
      </trkpt>
      <trkpt lat="44.37559" lon="3.83699">
        <ele>1366.5</ele>
      </trkpt>
      <trkpt lat="44.37559" lon="3.83709">
        <ele>1366.7</ele>
      </trkpt>
      <trkpt lat="44.37561" lon="3.83718">
        <ele>1366.7</ele>
      </trkpt>
      <trkpt lat="44.37565" lon="3.83727">
        <ele>1366.7</ele>
      </trkpt>
      <trkpt lat="44.37572" lon="3.83737">
        <ele>1366.5</ele>
      </trkpt>
      <trkpt lat="44.37582" lon="3.83751">
        <ele>1366.1</ele>
      </trkpt>
      <trkpt lat="44.37597" lon="3.83769">
        <ele>1366.8</ele>
      </trkpt>
      <trkpt lat="44.37615" lon="3.83794">
        <ele>1367.8</ele>
      </trkpt>
      <trkpt lat="44.37626" lon="3.83807">
        <ele>1368.1</ele>
      </trkpt>
      <trkpt lat="44.37633" lon="3.83814">
        <ele>1368.1</ele>
      </trkpt>
      <trkpt lat="44.37641" lon="3.83819">
        <ele>1367.9</ele>
      </trkpt>
      <trkpt lat="44.3765" lon="3.83824">
        <ele>1367.5</ele>
      </trkpt>
      <trkpt lat="44.37658" lon="3.83827">
        <ele>1367.2</ele>
      </trkpt>
      <trkpt lat="44.37676" lon="3.83834">
        <ele>1366.7</ele>
      </trkpt>
      <trkpt lat="44.37687" lon="3.83838">
        <ele>1366.6</ele>
      </trkpt>
      <trkpt lat="44.37695" lon="3.83845">
        <ele>1366.9</ele>
      </trkpt>
      <trkpt lat="44.37702" lon="3.83854">
        <ele>1367.2</ele>
      </trkpt>
      <trkpt lat="44.37707" lon="3.83867">
        <ele>1367.8</ele>
      </trkpt>
      <trkpt lat="44.37709" lon="3.83882">
        <ele>1368.6</ele>
      </trkpt>
      <trkpt lat="44.3771" lon="3.83898">
        <ele>1369.6</ele>
      </trkpt>
      <trkpt lat="44.37706" lon="3.83923">
        <ele>1371.4</ele>
      </trkpt>
      <trkpt lat="44.37694" lon="3.83968">
        <ele>1374</ele>
      </trkpt>
      <trkpt lat="44.37687" lon="3.83987">
        <ele>1375.1</ele>
      </trkpt>
      <trkpt lat="44.37678" lon="3.84007">
        <ele>1376.5</ele>
      </trkpt>
      <trkpt lat="44.37664" lon="3.84036">
        <ele>1378.8</ele>
      </trkpt>
      <trkpt lat="44.37647" lon="3.84066">
        <ele>1383</ele>
      </trkpt>
      <trkpt lat="44.37642" lon="3.84078">
        <ele>1384.4</ele>
      </trkpt>
      <trkpt lat="44.37641" lon="3.84086">
        <ele>1385</ele>
      </trkpt>
      <trkpt lat="44.37642" lon="3.84097">
        <ele>1386.2</ele>
      </trkpt>
      <trkpt lat="44.37644" lon="3.84103">
        <ele>1386.5</ele>
      </trkpt>
      <trkpt lat="44.37645" lon="3.84105">
        <ele>1386.7</ele>
      </trkpt>
      <trkpt lat="44.37654" lon="3.84113">
        <ele>1386.3</ele>
      </trkpt>
      <trkpt lat="44.3767" lon="3.84118">
        <ele>1385.3</ele>
      </trkpt>
      <trkpt lat="44.37697" lon="3.84122">
        <ele>1385</ele>
      </trkpt>
      <trkpt lat="44.37714" lon="3.84121">
        <ele>1384.3</ele>
      </trkpt>
      <trkpt lat="44.37752" lon="3.84112">
        <ele>1381.7</ele>
      </trkpt>
      <trkpt lat="44.37773" lon="3.84108">
        <ele>1380.3</ele>
      </trkpt>
      <trkpt lat="44.37786" lon="3.84108">
        <ele>1379.6</ele>
      </trkpt>
      <trkpt lat="44.37798" lon="3.8411">
        <ele>1379.2</ele>
      </trkpt>
      <trkpt lat="44.37809" lon="3.84117">
        <ele>1379.3</ele>
      </trkpt>
      <trkpt lat="44.37816" lon="3.84125">
        <ele>1379.6</ele>
      </trkpt>
      <trkpt lat="44.37821" lon="3.84136">
        <ele>1380.1</ele>
      </trkpt>
      <trkpt lat="44.37823" lon="3.84148">
        <ele>1380.7</ele>
      </trkpt>
      <trkpt lat="44.37825" lon="3.84183">
        <ele>1382.4</ele>
      </trkpt>
      <trkpt lat="44.37826" lon="3.842">
        <ele>1383</ele>
      </trkpt>
      <trkpt lat="44.37828" lon="3.8421">
        <ele>1383.2</ele>
      </trkpt>
      <trkpt lat="44.3784" lon="3.8423">
        <ele>1382.7</ele>
      </trkpt>
      <trkpt lat="44.37863" lon="3.84268">
        <ele>1383.5</ele>
      </trkpt>
      <trkpt lat="44.37871" lon="3.84285">
        <ele>1384.5</ele>
      </trkpt>
      <trkpt lat="44.37884" lon="3.84318">
        <ele>1386.2</ele>
      </trkpt>
      <trkpt lat="44.37891" lon="3.84337">
        <ele>1387</ele>
      </trkpt>
      <trkpt lat="44.37895" lon="3.84355">
        <ele>1387.6</ele>
      </trkpt>
      <trkpt lat="44.379" lon="3.84383">
        <ele>1388.7</ele>
      </trkpt>
      <trkpt lat="44.37914" lon="3.84441">
        <ele>1388.9</ele>
      </trkpt>
      <trkpt lat="44.37917" lon="3.84459">
        <ele>1389</ele>
      </trkpt>
      <trkpt lat="44.37917" lon="3.84471">
        <ele>1389.6</ele>
      </trkpt>
      <trkpt lat="44.37917" lon="3.84486">
        <ele>1390.3</ele>
      </trkpt>
      <trkpt lat="44.37914" lon="3.84514">
        <ele>1392.1</ele>
      </trkpt>
      <trkpt lat="44.37912" lon="3.8453">
        <ele>1392.8</ele>
      </trkpt>
      <trkpt lat="44.37915" lon="3.84537">
        <ele>1392.2</ele>
      </trkpt>
      <trkpt lat="44.37918" lon="3.84542">
        <ele>1391.9</ele>
      </trkpt>
      <trkpt lat="44.37921" lon="3.84553">
        <ele>1392</ele>
      </trkpt>
      <trkpt lat="44.37928" lon="3.84567">
        <ele>1392</ele>
      </trkpt>
      <trkpt lat="44.37938" lon="3.84578">
        <ele>1391.8</ele>
      </trkpt>
      <trkpt lat="44.37957" lon="3.84588">
        <ele>1391.2</ele>
      </trkpt>
      <trkpt lat="44.37967" lon="3.84591">
        <ele>1390.8</ele>
      </trkpt>
      <trkpt lat="44.37973" lon="3.84593">
        <ele>1390.6</ele>
      </trkpt>
      <trkpt lat="44.3798" lon="3.84596">
        <ele>1390.3</ele>
      </trkpt>
      <trkpt lat="44.37995" lon="3.84604">
        <ele>1389.7</ele>
      </trkpt>
      <trkpt lat="44.37998" lon="3.84606">
        <ele>1389.6</ele>
      </trkpt>
      <trkpt lat="44.38006" lon="3.8461">
        <ele>1390.3</ele>
      </trkpt>
      <trkpt lat="44.38015" lon="3.84612">
        <ele>1391.3</ele>
      </trkpt>
      <trkpt lat="44.38021" lon="3.84612">
        <ele>1391.9</ele>
      </trkpt>
      <trkpt lat="44.38034" lon="3.84606">
        <ele>1393.3</ele>
      </trkpt>
      <trkpt lat="44.38049" lon="3.84597">
        <ele>1395</ele>
      </trkpt>
      <trkpt lat="44.38046" lon="3.84593">
        <ele>1394.5</ele>
      </trkpt>
      <trkpt lat="44.38041" lon="3.84581">
        <ele>1393.9</ele>
      </trkpt>
      <trkpt lat="44.38036" lon="3.84558">
        <ele>1392.9</ele>
      </trkpt>
      <trkpt lat="44.3803" lon="3.84524">
        <ele>1391.3</ele>
      </trkpt>
      <trkpt lat="44.38021" lon="3.84487">
        <ele>1388.5</ele>
      </trkpt>
      <trkpt lat="44.38016" lon="3.84451">
        <ele>1386.3</ele>
      </trkpt>
      <trkpt lat="44.38014" lon="3.84422">
        <ele>1384.8</ele>
      </trkpt>
      <trkpt lat="44.38015" lon="3.84393">
        <ele>1383.6</ele>
      </trkpt>
      <trkpt lat="44.38017" lon="3.84368">
        <ele>1382.9</ele>
      </trkpt>
      <trkpt lat="44.3802" lon="3.84351">
        <ele>1382.6</ele>
      </trkpt>
      <trkpt lat="44.38023" lon="3.84336">
        <ele>1382.5</ele>
      </trkpt>
      <trkpt lat="44.38031" lon="3.84322">
        <ele>1382.5</ele>
      </trkpt>
      <trkpt lat="44.38039" lon="3.84307">
        <ele>1382.4</ele>
      </trkpt>
      <trkpt lat="44.38047" lon="3.84286">
        <ele>1381.7</ele>
      </trkpt>
      <trkpt lat="44.38058" lon="3.84259">
        <ele>1380.4</ele>
      </trkpt>
      <trkpt lat="44.38067" lon="3.8424">
        <ele>1379.2</ele>
      </trkpt>
      <trkpt lat="44.38074" lon="3.84231">
        <ele>1378.9</ele>
      </trkpt>
      <trkpt lat="44.38087" lon="3.84216">
        <ele>1377.9</ele>
      </trkpt>
      <trkpt lat="44.38098" lon="3.84208">
        <ele>1376.8</ele>
      </trkpt>
      <trkpt lat="44.38106" lon="3.84204">
        <ele>1376.3</ele>
      </trkpt>
      <trkpt lat="44.38121" lon="3.84205">
        <ele>1376.3</ele>
      </trkpt>
      <trkpt lat="44.38155" lon="3.84207">
        <ele>1376.4</ele>
      </trkpt>
      <trkpt lat="44.38176" lon="3.84211">
        <ele>1376.5</ele>
      </trkpt>
      <trkpt lat="44.38183" lon="3.84211">
        <ele>1376.1</ele>
      </trkpt>
      <trkpt lat="44.38192" lon="3.84208">
        <ele>1375.5</ele>
      </trkpt>
      <trkpt lat="44.38202" lon="3.84204">
        <ele>1374.5</ele>
      </trkpt>
      <trkpt lat="44.38213" lon="3.84201">
        <ele>1373.7</ele>
      </trkpt>
      <trkpt lat="44.38224" lon="3.842">
        <ele>1373.2</ele>
      </trkpt>
      <trkpt lat="44.38232" lon="3.84202">
        <ele>1373.1</ele>
      </trkpt>
      <trkpt lat="44.38243" lon="3.84205">
        <ele>1373</ele>
      </trkpt>
      <trkpt lat="44.38251" lon="3.84206">
        <ele>1372.8</ele>
      </trkpt>
      <trkpt lat="44.38257" lon="3.84204">
        <ele>1372.6</ele>
      </trkpt>
      <trkpt lat="44.38263" lon="3.84198">
        <ele>1372.2</ele>
      </trkpt>
      <trkpt lat="44.38271" lon="3.84185">
        <ele>1371.2</ele>
      </trkpt>
      <trkpt lat="44.38277" lon="3.8417">
        <ele>1370.2</ele>
      </trkpt>
      <trkpt lat="44.38278" lon="3.84159">
        <ele>1369.9</ele>
      </trkpt>
      <trkpt lat="44.38279" lon="3.84154">
        <ele>1369.8</ele>
      </trkpt>
      <trkpt lat="44.38279" lon="3.84151">
        <ele>1369.8</ele>
      </trkpt>
      <trkpt lat="44.3828" lon="3.84149">
        <ele>1369.8</ele>
      </trkpt>
      <trkpt lat="44.3828" lon="3.84144">
        <ele>1369.7</ele>
      </trkpt>
      <trkpt lat="44.38279" lon="3.84135">
        <ele>1369.6</ele>
      </trkpt>
      <trkpt lat="44.38276" lon="3.84128">
        <ele>1369.3</ele>
      </trkpt>
      <trkpt lat="44.38267" lon="3.84118">
        <ele>1368.7</ele>
      </trkpt>
      <trkpt lat="44.38246" lon="3.84093">
        <ele>1367.1</ele>
      </trkpt>
      <trkpt lat="44.38238" lon="3.84079">
        <ele>1366.5</ele>
      </trkpt>
      <trkpt lat="44.38236" lon="3.84069">
        <ele>1366.3</ele>
      </trkpt>
      <trkpt lat="44.38234" lon="3.84053">
        <ele>1365.9</ele>
      </trkpt>
      <trkpt lat="44.38237" lon="3.84038">
        <ele>1365.8</ele>
      </trkpt>
      <trkpt lat="44.38241" lon="3.84022">
        <ele>1365.8</ele>
      </trkpt>
      <trkpt lat="44.38243" lon="3.84013">
        <ele>1365.8</ele>
      </trkpt>
      <trkpt lat="44.38248" lon="3.8399">
        <ele>1365.6</ele>
      </trkpt>
      <trkpt lat="44.38252" lon="3.83974">
        <ele>1365.1</ele>
      </trkpt>
      <trkpt lat="44.38252" lon="3.83961">
        <ele>1364.6</ele>
      </trkpt>
      <trkpt lat="44.38252" lon="3.83938">
        <ele>1363.8</ele>
      </trkpt>
      <trkpt lat="44.3825" lon="3.83898">
        <ele>1363.2</ele>
      </trkpt>
      <trkpt lat="44.38249" lon="3.83894">
        <ele>1363.3</ele>
      </trkpt>
      <trkpt lat="44.38249" lon="3.83886">
        <ele>1363.3</ele>
      </trkpt>
      <trkpt lat="44.38248" lon="3.8388">
        <ele>1363.4</ele>
      </trkpt>
      <trkpt lat="44.38248" lon="3.83876">
        <ele>1363.4</ele>
      </trkpt>
      <trkpt lat="44.38247" lon="3.83857">
        <ele>1363.6</ele>
      </trkpt>
      <trkpt lat="44.38248" lon="3.83842">
        <ele>1363.8</ele>
      </trkpt>
      <trkpt lat="44.38252" lon="3.83811">
        <ele>1365.6</ele>
      </trkpt>
      <trkpt lat="44.38252" lon="3.83794">
        <ele>1366.7</ele>
      </trkpt>
      <trkpt lat="44.38251" lon="3.83782">
        <ele>1367.2</ele>
      </trkpt>
      <trkpt lat="44.38247" lon="3.83769">
        <ele>1367.6</ele>
      </trkpt>
      <trkpt lat="44.3824" lon="3.83746">
        <ele>1368.2</ele>
      </trkpt>
      <trkpt lat="44.38234" lon="3.8373">
        <ele>1368.8</ele>
      </trkpt>
      <trkpt lat="44.38231" lon="3.83715">
        <ele>1369.6</ele>
      </trkpt>
      <trkpt lat="44.38229" lon="3.83704">
        <ele>1370.3</ele>
      </trkpt>
      <trkpt lat="44.38227" lon="3.83693">
        <ele>1370.9</ele>
      </trkpt>
      <trkpt lat="44.38225" lon="3.83674">
        <ele>1372.1</ele>
      </trkpt>
      <trkpt lat="44.38223" lon="3.83661">
        <ele>1372.5</ele>
      </trkpt>
      <trkpt lat="44.38219" lon="3.83648">
        <ele>1372.4</ele>
      </trkpt>
      <trkpt lat="44.38215" lon="3.83629">
        <ele>1372.4</ele>
      </trkpt>
      <trkpt lat="44.38209" lon="3.83616">
        <ele>1372.2</ele>
      </trkpt>
      <trkpt lat="44.38204" lon="3.83604">
        <ele>1371.8</ele>
      </trkpt>
      <trkpt lat="44.38197" lon="3.83592">
        <ele>1371.3</ele>
      </trkpt>
      <trkpt lat="44.38193" lon="3.83586">
        <ele>1371</ele>
      </trkpt>
      <trkpt lat="44.38184" lon="3.83579">
        <ele>1370</ele>
      </trkpt>
      <trkpt lat="44.38179" lon="3.83573">
        <ele>1369.3</ele>
      </trkpt>
      <trkpt lat="44.38176" lon="3.83567">
        <ele>1368.9</ele>
      </trkpt>
      <trkpt lat="44.38174" lon="3.83557">
        <ele>1368.5</ele>
      </trkpt>
      <trkpt lat="44.38174" lon="3.83548">
        <ele>1368.4</ele>
      </trkpt>
      <trkpt lat="44.38175" lon="3.8353">
        <ele>1368.3</ele>
      </trkpt>
      <trkpt lat="44.38176" lon="3.83518">
        <ele>1368.4</ele>
      </trkpt>
      <trkpt lat="44.38179" lon="3.83509">
        <ele>1368.6</ele>
      </trkpt>
      <trkpt lat="44.38181" lon="3.83503">
        <ele>1368.8</ele>
      </trkpt>
      <trkpt lat="44.38181" lon="3.83495">
        <ele>1368.8</ele>
      </trkpt>
      <trkpt lat="44.38179" lon="3.83481">
        <ele>1368.7</ele>
      </trkpt>
      <trkpt lat="44.38175" lon="3.83468">
        <ele>1368.4</ele>
      </trkpt>
      <trkpt lat="44.38171" lon="3.83452">
        <ele>1368.1</ele>
      </trkpt>
      <trkpt lat="44.38169" lon="3.83443">
        <ele>1368</ele>
      </trkpt>
      <trkpt lat="44.38162" lon="3.83427">
        <ele>1367.5</ele>
      </trkpt>
      <trkpt lat="44.38144" lon="3.83385">
        <ele>1365.8</ele>
      </trkpt>
      <trkpt lat="44.3814" lon="3.8337">
        <ele>1365.4</ele>
      </trkpt>
      <trkpt lat="44.38138" lon="3.83357">
        <ele>1365.1</ele>
      </trkpt>
      <trkpt lat="44.38137" lon="3.83342">
        <ele>1364.9</ele>
      </trkpt>
      <trkpt lat="44.38142" lon="3.833">
        <ele>1363.270526</ele>
        <time>2019-10-07T02:49:43.046Z</time>
      </trkpt>
      <trkpt lat="44.38157" lon="3.83276">
        <ele>1363.4991</ele>
        <time>2019-10-07T02:49:52.016Z</time>
      </trkpt>
      <trkpt lat="44.38161" lon="3.8324">
        <ele>1363.751911</ele>
        <time>2019-10-07T02:50:02.761Z</time>
      </trkpt>
      <trkpt lat="44.38162" lon="3.83156">
        <ele>1364.39612</ele>
        <time>2019-10-07T02:50:26.933Z</time>
      </trkpt>
      <trkpt lat="44.3817" lon="3.83126">
        <ele>1364.747368</ele>
        <time>2019-10-07T02:50:36.632Z</time>
      </trkpt>
      <trkpt lat="44.38182" lon="3.83095">
        <ele>1365.13948</ele>
        <time>2019-10-07T02:50:47.571Z</time>
      </trkpt>
      <trkpt lat="44.38278" lon="3.82967">
        <ele>1367.235594</ele>
        <time>2019-10-07T02:51:48.362Z</time>
      </trkpt>
      <trkpt lat="44.38323" lon="3.82918">
        <ele>1368.483356</ele>
        <time>2019-10-07T02:52:16.075Z</time>
      </trkpt>
      <trkpt lat="44.38343" lon="3.82872">
        <ele>1369.32147</ele>
        <time>2019-10-07T02:52:34.928Z</time>
      </trkpt>
      <trkpt lat="44.38351" lon="3.82829">
        <ele>1370.015198</ele>
        <time>2019-10-07T02:52:50.525Z</time>
      </trkpt>
      <trkpt lat="44.38347" lon="3.82729">
        <ele>1371.194849</ele>
        <time>2019-10-07T02:53:25.355Z</time>
      </trkpt>
      <trkpt lat="44.38359" lon="3.82664">
        <ele>1371.6079</ele>
        <time>2019-10-07T02:53:47.269Z</time>
      </trkpt>
      <trkpt lat="44.38377" lon="3.82519">
        <ele>1372.4379</ele>
        <time>2019-10-07T02:54:28.594Z</time>
      </trkpt>
      <trkpt lat="44.38377" lon="3.82519">
        <ele>1372.4379</ele>
        <time>2019-10-07T02:54:28.602Z</time>
      </trkpt>
      <trkpt lat="44.38398" lon="3.82467">
        <ele>1371.444147</ele>
        <time>2019-10-07T02:54:43.087Z</time>
      </trkpt>
      <trkpt lat="44.38436" lon="3.82401">
        <ele>1370.019666</ele>
        <time>2019-10-07T02:55:02.678Z</time>
      </trkpt>
      <trkpt lat="44.38463" lon="3.82372">
        <ele>1369.22187</ele>
        <time>2019-10-07T02:55:13.197Z</time>
      </trkpt>
      <trkpt lat="44.38467" lon="3.82322">
        <ele>1368.376007</ele>
        <time>2019-10-07T02:55:24.142Z</time>
      </trkpt>
      <trkpt lat="44.38459" lon="3.8227">
        <ele>1367.009851</ele>
        <time>2019-10-07T02:55:35.375Z</time>
      </trkpt>
      <trkpt lat="44.385" lon="3.82203">
        <ele>1364.659065</ele>
        <time>2019-10-07T02:55:54.085Z</time>
      </trkpt>
      <trkpt lat="44.38526" lon="3.82149">
        <ele>1362.907721</ele>
        <time>2019-10-07T02:56:08.283Z</time>
      </trkpt>
      <trkpt lat="44.38537" lon="3.82134">
        <ele>1362.326024</ele>
        <time>2019-10-07T02:56:12.910Z</time>
      </trkpt>
      <trkpt lat="44.38539" lon="3.82131">
        <ele>1362.231169</ele>
        <time>2019-10-07T02:56:13.714Z</time>
      </trkpt>
      <trkpt lat="44.38553" lon="3.82115">
        <ele>1361.563056</ele>
        <time>2019-10-07T02:56:19.288Z</time>
      </trkpt>
      <trkpt lat="44.38598" lon="3.82095">
        <ele>1359.991689</ele>
        <time>2019-10-07T02:56:33.878Z</time>
      </trkpt>
      <trkpt lat="44.38611" lon="3.82083">
        <ele>1359.476677</ele>
        <time>2019-10-07T02:56:38.743Z</time>
      </trkpt>
      <trkpt lat="44.38651" lon="3.82027">
        <ele>1357.586642</ele>
        <time>2019-10-07T02:56:55.509Z</time>
      </trkpt>
      <trkpt lat="44.3871" lon="3.81965">
        <ele>1355.447733</ele>
        <time>2019-10-07T02:57:18.412Z</time>
      </trkpt>
      <trkpt lat="44.38718" lon="3.81951">
        <ele>1355.307926</ele>
        <time>2019-10-07T02:57:22.624Z</time>
      </trkpt>
      <trkpt lat="44.38719" lon="3.81938">
        <ele>1355.205172</ele>
        <time>2019-10-07T02:57:25.465Z</time>
      </trkpt>
      <trkpt lat="44.38719" lon="3.81926">
        <ele>1355.111534</ele>
        <time>2019-10-07T02:57:28.361Z</time>
      </trkpt>
      <trkpt lat="44.38719" lon="3.81911">
        <ele>1354.997609</ele>
        <time>2019-10-07T02:57:31.912Z</time>
      </trkpt>
      <trkpt lat="44.3872" lon="3.81894">
        <ele>1354.859997</ele>
        <time>2019-10-07T02:57:35.923Z</time>
      </trkpt>
      <trkpt lat="44.38719" lon="3.8188">
        <ele>1354.755071</ele>
        <time>2019-10-07T02:57:39.167Z</time>
      </trkpt>
      <trkpt lat="44.38713" lon="3.81833">
        <ele>1354.379222</ele>
        <time>2019-10-07T02:57:50.843Z</time>
      </trkpt>
      <trkpt lat="44.3872" lon="3.81812">
        <ele>1354.194845</ele>
        <time>2019-10-07T02:57:56.987Z</time>
      </trkpt>
      <trkpt lat="44.38815" lon="3.81714">
        <ele>1354.505286</ele>
        <time>2019-10-07T02:58:43.690Z</time>
      </trkpt>
      <trkpt lat="44.38823" lon="3.81681">
        <ele>1354.826486</ele>
        <time>2019-10-07T02:58:55.279Z</time>
      </trkpt>
      <trkpt lat="44.38818" lon="3.81665">
        <ele>1354.989433</ele>
        <time>2019-10-07T02:59:01.132Z</time>
      </trkpt>
      <trkpt lat="44.38791" lon="3.81648">
        <ele>1355.391463</ele>
        <time>2019-10-07T02:59:15.432Z</time>
      </trkpt>
      <trkpt lat="44.38685" lon="3.81703">
        <ele>1356.985305</ele>
        <time>2019-10-07T03:00:07.009Z</time>
      </trkpt>
      <trkpt lat="44.38641" lon="3.81701">
        <ele>1357.625659</ele>
        <time>2019-10-07T03:00:26.265Z</time>
      </trkpt>
      <trkpt lat="44.3861" lon="3.81688">
        <ele>1358.108065</ele>
        <time>2019-10-07T03:00:40.649Z</time>
      </trkpt>
      <trkpt lat="44.38569" lon="3.81644">
        <ele>1358.744106</ele>
        <time>2019-10-07T03:01:02.883Z</time>
      </trkpt>
      <trkpt lat="44.38561" lon="3.81629">
        <ele>1358.830293</ele>
        <time>2019-10-07T03:01:08.591Z</time>
      </trkpt>
      <trkpt lat="44.3855" lon="3.81575">
        <ele>1359.095352</ele>
        <time>2019-10-07T03:01:25.593Z</time>
      </trkpt>
      <trkpt lat="44.38503" lon="3.81449">
        <ele>1359.750339</ele>
        <time>2019-10-07T03:02:05.200Z</time>
      </trkpt>
      <trkpt lat="44.385" lon="3.81421">
        <ele>1359.844497</ele>
        <time>2019-10-07T03:02:12.929Z</time>
      </trkpt>
      <trkpt lat="44.38511" lon="3.81375">
        <ele>1359.924731</ele>
        <time>2019-10-07T03:02:26.112Z</time>
      </trkpt>
      <trkpt lat="44.38558" lon="3.813">
        <ele>1360.086856</ele>
        <time>2019-10-07T03:02:52.922Z</time>
      </trkpt>
      <trkpt lat="44.38568" lon="3.81258">
        <ele>1360.160296</ele>
        <time>2019-10-07T03:03:05.081Z</time>
      </trkpt>
      <trkpt lat="44.38577" lon="3.81228">
        <ele>1360.212748</ele>
        <time>2019-10-07T03:03:13.683Z</time>
      </trkpt>
      <trkpt lat="44.38587" lon="3.81193">
        <ele>1360.375004</ele>
        <time>2019-10-07T03:03:24.444Z</time>
      </trkpt>
      <trkpt lat="44.38663" lon="3.81094">
        <ele>1361.208113</ele>
        <time>2019-10-07T03:04:06.812Z</time>
      </trkpt>
      <trkpt lat="44.38683" lon="3.81074">
        <ele>1361.410269</ele>
        <time>2019-10-07T03:04:17.755Z</time>
      </trkpt>
      <trkpt lat="44.38715" lon="3.81012">
        <ele>1361.926192</ele>
        <time>2019-10-07T03:04:40.840Z</time>
      </trkpt>
      <trkpt lat="44.38739" lon="3.80989">
        <ele>1362.278426</ele>
        <time>2019-10-07T03:04:53.287Z</time>
      </trkpt>
      <trkpt lat="44.3874" lon="3.80974">
        <ele>1362.400772</ele>
        <time>2019-10-07T03:04:57.709Z</time>
      </trkpt>
      <trkpt lat="44.3874" lon="3.80963">
        <ele>1362.495694</ele>
        <time>2019-10-07T03:05:01.307Z</time>
      </trkpt>
      <trkpt lat="44.38733" lon="3.80941">
        <ele>1362.702137</ele>
        <time>2019-10-07T03:05:08.425Z</time>
      </trkpt>
      <trkpt lat="44.38723" lon="3.8092">
        <ele>1362.916326</ele>
        <time>2019-10-07T03:05:16.354Z</time>
      </trkpt>
      <trkpt lat="44.38709" lon="3.80908">
        <ele>1363.120438</ele>
        <time>2019-10-07T03:05:23.420Z</time>
      </trkpt>
      <trkpt lat="44.38691" lon="3.80905">
        <ele>1363.335724</ele>
        <time>2019-10-07T03:05:31.374Z</time>
      </trkpt>
      <trkpt lat="44.38658" lon="3.80923">
        <ele>1363.757214</ele>
        <time>2019-10-07T03:05:46.511Z</time>
      </trkpt>
      <trkpt lat="44.38572" lon="3.80992">
        <ele>1364.946699</ele>
        <time>2019-10-07T03:06:29.890Z</time>
      </trkpt>
      <trkpt lat="44.38545" lon="3.80995">
        <ele>1365.278526</ele>
        <time>2019-10-07T03:06:41.842Z</time>
      </trkpt>
      <trkpt lat="44.38499" lon="3.80979">
        <ele>1365.854087</ele>
        <time>2019-10-07T03:07:01.632Z</time>
      </trkpt>
      <trkpt lat="44.38489" lon="3.80968">
        <ele>1366.003022</ele>
        <time>2019-10-07T03:07:07.545Z</time>
      </trkpt>
      <trkpt lat="44.38481" lon="3.80955">
        <ele>1366.108125</ele>
        <time>2019-10-07T03:07:12.337Z</time>
      </trkpt>
      <trkpt lat="44.38468" lon="3.80942">
        <ele>1366.242316</ele>
        <time>2019-10-07T03:07:18.875Z</time>
      </trkpt>
      <trkpt lat="44.38467" lon="3.80913">
        <ele>1366.416207</ele>
        <time>2019-10-07T03:07:27.411Z</time>
      </trkpt>
      <trkpt lat="44.3848" lon="3.80876">
        <ele>1366.66716</ele>
        <time>2019-10-07T03:07:39.721Z</time>
      </trkpt>
      <trkpt lat="44.38495" lon="3.80853">
        <ele>1366.851626</ele>
        <time>2019-10-07T03:07:48.363Z</time>
      </trkpt>
      <trkpt lat="44.38608" lon="3.80703">
        <ele>1368.705097</ele>
        <time>2019-10-07T03:08:53.346Z</time>
      </trkpt>
      <trkpt lat="44.38608" lon="3.80702">
        <ele>1368.707775</ele>
        <time>2019-10-07T03:08:53.624Z</time>
      </trkpt>
      <trkpt lat="44.38639" lon="3.80631">
        <ele>1369.625703</ele>
        <time>2019-10-07T03:09:20.651Z</time>
      </trkpt>
      <trkpt lat="44.38642" lon="3.80605">
        <ele>1369.914327</ele>
        <time>2019-10-07T03:09:29.690Z</time>
      </trkpt>
      <trkpt lat="44.38654" lon="3.80558">
        <ele>1370.588455</ele>
        <time>2019-10-07T03:09:46.608Z</time>
      </trkpt>
      <trkpt lat="44.38668" lon="3.80511">
        <ele>1371.59127</ele>
        <time>2019-10-07T03:10:04.882Z</time>
      </trkpt>
      <trkpt lat="44.38672" lon="3.80498">
        <ele>1371.858579</ele>
        <time>2019-10-07T03:10:10.005Z</time>
      </trkpt>
      <trkpt lat="44.38671" lon="3.80485">
        <ele>1372.126354</ele>
        <time>2019-10-07T03:10:14.683Z</time>
      </trkpt>
      <trkpt lat="44.38669" lon="3.80452">
        <ele>1372.769345</ele>
        <time>2019-10-07T03:10:27.028Z</time>
      </trkpt>
      <trkpt lat="44.38685" lon="3.80413">
        <ele>1373.650081</ele>
        <time>2019-10-07T03:10:43.933Z</time>
      </trkpt>
      <trkpt lat="44.38733" lon="3.80363">
        <ele>1375.250837</ele>
        <time>2019-10-07T03:11:14.953Z</time>
      </trkpt>
      <trkpt lat="44.38776" lon="3.80356">
        <ele>1375.875047</ele>
        <time>2019-10-07T03:11:37.001Z</time>
      </trkpt>
      <trkpt lat="44.38844" lon="3.80321">
        <ele>1376.911891</ele>
        <time>2019-10-07T03:12:10.246Z</time>
      </trkpt>
      <trkpt lat="44.38882" lon="3.80313">
        <ele>1377.459008</ele>
        <time>2019-10-07T03:12:25.781Z</time>
      </trkpt>
      <trkpt lat="44.38923" lon="3.80292">
        <ele>1377.454548</ele>
        <time>2019-10-07T03:12:41.857Z</time>
      </trkpt>
      <trkpt lat="44.38963" lon="3.80259">
        <ele>1376.690197</ele>
        <time>2019-10-07T03:12:57.658Z</time>
      </trkpt>
      <trkpt lat="44.38982" lon="3.80174">
        <ele>1375.645663</ele>
        <time>2019-10-07T03:13:18.061Z</time>
      </trkpt>
      <trkpt lat="44.38979" lon="3.8013">
        <ele>1375.125564</ele>
        <time>2019-10-07T03:13:28.065Z</time>
      </trkpt>
      <trkpt lat="44.38999" lon="3.79997">
        <ele>1373.172807</ele>
        <time>2019-10-07T03:13:59.502Z</time>
      </trkpt>
      <trkpt lat="44.39008" lon="3.79972">
        <ele>1372.760558</ele>
        <time>2019-10-07T03:14:05.977Z</time>
      </trkpt>
      <trkpt lat="44.3905" lon="3.79919">
        <ele>1371.575944</ele>
        <time>2019-10-07T03:14:24.670Z</time>
      </trkpt>
      <trkpt lat="44.39106" lon="3.79864">
        <ele>1370.033193</ele>
        <time>2019-10-07T03:14:46.882Z</time>
      </trkpt>
      <trkpt lat="44.39173" lon="3.79847">
        <ele>1368.391811</ele>
        <time>2019-10-07T03:15:09.217Z</time>
      </trkpt>
      <trkpt lat="44.39181" lon="3.79832">
        <ele>1368.07417</ele>
        <time>2019-10-07T03:15:13.421Z</time>
      </trkpt>
      <trkpt lat="44.39177" lon="3.79769">
        <ele>1366.999123</ele>
        <time>2019-10-07T03:15:27.454Z</time>
      </trkpt>
      <trkpt lat="44.39183" lon="3.79752">
        <ele>1366.630295</ele>
        <time>2019-10-07T03:15:31.541Z</time>
      </trkpt>
      <trkpt lat="44.39225" lon="3.7969">
        <ele>1364.532933</ele>
        <time>2019-10-07T03:15:50.215Z</time>
      </trkpt>
      <trkpt lat="44.3926" lon="3.79615">
        <ele>1362.350969</ele>
        <time>2019-10-07T03:16:09.600Z</time>
      </trkpt>
      <trkpt lat="44.39279" lon="3.7952">
        <ele>1360.229204</ele>
        <time>2019-10-07T03:16:31.102Z</time>
      </trkpt>
      <trkpt lat="44.3927" lon="3.79454">
        <ele>1359.224574</ele>
        <time>2019-10-07T03:16:46.035Z</time>
      </trkpt>
      <trkpt lat="44.39204" lon="3.79368">
        <ele>1357.324897</ele>
        <time>2019-10-07T03:17:16.129Z</time>
      </trkpt>
      <trkpt lat="44.39199" lon="3.79355">
        <ele>1357.098121</ele>
        <time>2019-10-07T03:17:19.804Z</time>
      </trkpt>
      <trkpt lat="44.39194" lon="3.79305">
        <ele>1356.511686</ele>
        <time>2019-10-07T03:17:32.168Z</time>
      </trkpt>
      <trkpt lat="44.39196" lon="3.79277">
        <ele>1356.213016</ele>
        <time>2019-10-07T03:17:39.272Z</time>
      </trkpt>
      <trkpt lat="44.39211" lon="3.79246">
        <ele>1355.825595</ele>
        <time>2019-10-07T03:17:48.458Z</time>
      </trkpt>
      <trkpt lat="44.3927" lon="3.79209">
        <ele>1354.873881</ele>
        <time>2019-10-07T03:18:10.627Z</time>
      </trkpt>
      <trkpt lat="44.39294" lon="3.79177">
        <ele>1354.390215</ele>
        <time>2019-10-07T03:18:21.751Z</time>
      </trkpt>
      <trkpt lat="44.39383" lon="3.79102">
        <ele>1350.755142</ele>
        <time>2019-10-07T03:18:53.718Z</time>
      </trkpt>
      <trkpt lat="44.39415" lon="3.79057">
        <ele>1349.095641</ele>
        <time>2019-10-07T03:19:06.869Z</time>
      </trkpt>
      <trkpt lat="44.39422" lon="3.79037">
        <ele>1348.488773</ele>
        <time>2019-10-07T03:19:11.881Z</time>
      </trkpt>
      <trkpt lat="44.39424" lon="3.79013">
        <ele>1347.865865</ele>
        <time>2019-10-07T03:19:16.668Z</time>
      </trkpt>
      <trkpt lat="44.39421" lon="3.7899">
        <ele>1347.211843</ele>
        <time>2019-10-07T03:19:21.706Z</time>
      </trkpt>
      <trkpt lat="44.39399" lon="3.78974">
        <ele>1346.173759</ele>
        <time>2019-10-07T03:19:28.865Z</time>
      </trkpt>
      <trkpt lat="44.39351" lon="3.78957">
        <ele>1344.108411</ele>
        <time>2019-10-07T03:19:43.612Z</time>
      </trkpt>
      <trkpt lat="44.39316" lon="3.78935">
        <ele>1342.5534</ele>
        <time>2019-10-07T03:19:54.649Z</time>
      </trkpt>
      <trkpt lat="44.39264" lon="3.78937">
        <ele>1340.404068</ele>
        <time>2019-10-07T03:20:10.196Z</time>
      </trkpt>
      <trkpt lat="44.39232" lon="3.78928">
        <ele>1339.759882</ele>
        <time>2019-10-07T03:20:20.542Z</time>
      </trkpt>
      <trkpt lat="44.39192" lon="3.789">
        <ele>1339.044817</ele>
        <time>2019-10-07T03:20:34.869Z</time>
      </trkpt>
      <trkpt lat="44.39046" lon="3.7889">
        <ele>1337.557739</ele>
        <time>2019-10-07T03:21:25.649Z</time>
      </trkpt>
      <trkpt lat="44.39002" lon="3.78873">
        <ele>1337.832179</ele>
        <time>2019-10-07T03:21:44.126Z</time>
      </trkpt>
      <trkpt lat="44.3898" lon="3.78838">
        <ele>1338.029612</ele>
        <time>2019-10-07T03:21:58.182Z</time>
      </trkpt>
      <trkpt lat="44.38982" lon="3.78787">
        <ele>1338.247996</ele>
        <time>2019-10-07T03:22:14.033Z</time>
      </trkpt>
      <trkpt lat="44.38994" lon="3.78748">
        <ele>1338.435099</ele>
        <time>2019-10-07T03:22:27.598Z</time>
      </trkpt>
      <trkpt lat="44.39015" lon="3.78708">
        <ele>1338.674645</ele>
        <time>2019-10-07T03:22:43.395Z</time>
      </trkpt>
      <trkpt lat="44.39054" lon="3.78685">
        <ele>1338.95537</ele>
        <time>2019-10-07T03:23:01.271Z</time>
      </trkpt>
      <trkpt lat="44.39101" lon="3.7863">
        <ele>1339.365664</ele>
        <time>2019-10-07T03:23:25.341Z</time>
      </trkpt>
      <trkpt lat="44.39132" lon="3.78568">
        <ele>1339.671977</ele>
        <time>2019-10-07T03:23:45.193Z</time>
      </trkpt>
      <trkpt lat="44.39133" lon="3.78549">
        <ele>1339.723908</ele>
        <time>2019-10-07T03:23:50.353Z</time>
      </trkpt>
      <trkpt lat="44.39102" lon="3.78491">
        <ele>1339.913878</ele>
        <time>2019-10-07T03:24:09.192Z</time>
      </trkpt>
      <trkpt lat="44.39105" lon="3.78409">
        <ele>1340.129648</ele>
        <time>2019-10-07T03:24:31.652Z</time>
      </trkpt>
      <trkpt lat="44.39134" lon="3.78325">
        <ele>1340.943521</ele>
        <time>2019-10-07T03:24:59.932Z</time>
      </trkpt>
      <trkpt lat="44.39145" lon="3.78319">
        <ele>1341.226609</ele>
        <time>2019-10-07T03:25:05.531Z</time>
      </trkpt>
      <trkpt lat="44.39218" lon="3.78233">
        <ele>1343.451549</ele>
        <time>2019-10-07T03:25:53.298Z</time>
      </trkpt>
      <trkpt lat="44.39224" lon="3.78134">
        <ele>1345.409299</ele>
        <time>2019-10-07T03:26:30.931Z</time>
      </trkpt>
      <trkpt lat="44.39197" lon="3.78119">
        <ele>1346.431209</ele>
        <time>2019-10-07T03:26:46.684Z</time>
      </trkpt>
      <trkpt lat="44.39168" lon="3.78087">
        <ele>1347.708964</ele>
        <time>2019-10-07T03:27:06.522Z</time>
      </trkpt>
      <trkpt lat="44.39148" lon="3.77907">
        <ele>1352.347886</ele>
        <time>2019-10-07T03:28:19.101Z</time>
      </trkpt>
      <trkpt lat="44.39089" lon="3.77888">
        <ele>1354.605546</ele>
        <time>2019-10-07T03:28:53.073Z</time>
      </trkpt>
      <trkpt lat="44.39008" lon="3.7781">
        <ele>1357.798158</ele>
        <time>2019-10-07T03:29:48.574Z</time>
      </trkpt>
      <trkpt lat="44.3899" lon="3.77776">
        <ele>1358.271689</ele>
        <time>2019-10-07T03:30:04.819Z</time>
      </trkpt>
      <trkpt lat="44.3899" lon="3.77718">
        <ele>1358.915993</ele>
        <time>2019-10-07T03:30:25.124Z</time>
      </trkpt>
      <trkpt lat="44.39023" lon="3.77639">
        <ele>1359.944389</ele>
        <time>2019-10-07T03:30:52.009Z</time>
      </trkpt>
      <trkpt lat="44.39073" lon="3.77575">
        <ele>1359.468643</ele>
        <time>2019-10-07T03:31:14.592Z</time>
      </trkpt>
      <trkpt lat="44.39128" lon="3.77543">
        <ele>1358.511617</ele>
        <time>2019-10-07T03:31:32.740Z</time>
      </trkpt>
      <trkpt lat="44.39157" lon="3.77457">
        <ele>1357.436087</ele>
        <time>2019-10-07T03:31:55.324Z</time>
      </trkpt>
      <trkpt lat="44.39207" lon="3.77375">
        <ele>1360.023373</ele>
        <time>2019-10-07T03:32:27.586Z</time>
      </trkpt>
      <trkpt lat="44.3925" lon="3.77383">
        <ele>1361.585655</ele>
        <time>2019-10-07T03:32:52.253Z</time>
      </trkpt>
      <trkpt lat="44.39315" lon="3.7741">
        <ele>1364.244949</ele>
        <time>2019-10-07T03:33:38.034Z</time>
      </trkpt>
      <trkpt lat="44.3951" lon="3.77434">
        <ele>1382.494345</ele>
        <time>2019-10-07T03:36:27.299Z</time>
      </trkpt>
      <trkpt lat="44.39562" lon="3.77469">
        <ele>1387.960169</ele>
        <time>2019-10-07T03:37:16.596Z</time>
      </trkpt>
      <trkpt lat="44.39618" lon="3.77473">
        <ele>1393.27132</ele>
        <time>2019-10-07T03:38:03.744Z</time>
      </trkpt>
      <trkpt lat="44.39655" lon="3.77505">
        <ele>1397.416996</ele>
        <time>2019-10-07T03:38:40.047Z</time>
      </trkpt>
      <trkpt lat="44.39692" lon="3.77593">
        <ele>1403.533806</ele>
        <time>2019-10-07T03:39:39.683Z</time>
      </trkpt>
      <trkpt lat="44.39811" lon="3.77746">
        <ele>1416.308689</ele>
        <time>2019-10-07T03:41:44.741Z</time>
      </trkpt>
      <trkpt lat="44.39972" lon="3.77784">
        <ele>1427.264807</ele>
        <time>2019-10-07T03:43:38.541Z</time>
      </trkpt>
      <trkpt lat="44.40192" lon="3.7775">
        <ele>1439.975543</ele>
        <time>2019-10-07T03:46:02.768Z</time>
      </trkpt>
      <trkpt lat="44.40251" lon="3.7779">
        <ele>1443.657382</ele>
        <time>2019-10-07T03:46:46.462Z</time>
      </trkpt>
      <trkpt lat="44.40286" lon="3.77858">
        <ele>1446.44639</ele>
        <time>2019-10-07T03:47:24.482Z</time>
      </trkpt>
      <trkpt lat="44.40334" lon="3.77882">
        <ele>1448.14407</ele>
        <time>2019-10-07T03:47:55.645Z</time>
      </trkpt>
      <trkpt lat="44.40445" lon="3.77908">
        <ele>1451.680118</ele>
        <time>2019-10-07T03:48:50.942Z</time>
      </trkpt>
      <trkpt lat="44.40496" lon="3.77946">
        <ele>1452.055271</ele>
        <time>2019-10-07T03:49:13.452Z</time>
      </trkpt>
      <trkpt lat="44.40534" lon="3.77942">
        <ele>1452.306673</ele>
        <time>2019-10-07T03:49:27.591Z</time>
      </trkpt>
      <trkpt lat="44.40565" lon="3.77883">
        <ele>1452.647961</ele>
        <time>2019-10-07T03:49:46.508Z</time>
      </trkpt>
      <trkpt lat="44.40656" lon="3.77759">
        <ele>1455.288195</ele>
        <time>2019-10-07T03:50:42.285Z</time>
      </trkpt>
      <trkpt lat="44.40676" lon="3.77757">
        <ele>1455.773598</ele>
        <time>2019-10-07T03:50:52.976Z</time>
      </trkpt>
      <trkpt lat="44.40794" lon="3.77772">
        <ele>1459.58268</ele>
        <time>2019-10-07T03:52:02.593Z</time>
      </trkpt>
      <trkpt lat="44.40921" lon="3.77727">
        <ele>1464.577194</ele>
        <time>2019-10-07T03:53:18.389Z</time>
      </trkpt>
      <trkpt lat="44.40921" lon="3.77727">
        <ele>1464.577194</ele>
        <time>2019-10-07T03:53:18.462Z</time>
      </trkpt>
      <trkpt lat="44.40921" lon="3.77727">
        <ele>1464.577194</ele>
        <time>2019-10-07T03:53:18.462Z</time>
      </trkpt>
      <trkpt lat="44.41001" lon="3.77725">
        <ele>1466.395077</ele>
        <time>2019-10-07T03:53:39.016Z</time>
      </trkpt>
      <trkpt lat="44.4108" lon="3.77722">
        <ele>1468.210642</ele>
        <time>2019-10-07T03:53:59.541Z</time>
      </trkpt>
      <trkpt lat="44.4116" lon="3.7772">
        <ele>1469.746617</ele>
        <time>2019-10-07T03:54:20.092Z</time>
      </trkpt>
      <trkpt lat="44.41209" lon="3.77725">
        <ele>1470.677844</ele>
        <time>2019-10-07T03:54:32.837Z</time>
      </trkpt>
      <trkpt lat="44.41258" lon="3.7773">
        <ele>1471.609162</ele>
        <time>2019-10-07T03:54:45.582Z</time>
      </trkpt>
      <trkpt lat="44.41288" lon="3.77716">
        <ele>1472.24171</ele>
        <time>2019-10-07T03:54:53.643Z</time>
      </trkpt>
      <trkpt lat="44.41355" lon="3.77708">
        <ele>1473.665537</ele>
        <time>2019-10-07T03:55:11.178Z</time>
      </trkpt>
      <trkpt lat="44.41386" lon="3.77711">
        <ele>1474.300754</ele>
        <time>2019-10-07T03:55:19.001Z</time>
      </trkpt>
      <trkpt lat="44.41429" lon="3.77738">
        <ele>1475.305789</ele>
        <time>2019-10-07T03:55:31.385Z</time>
      </trkpt>
      <trkpt lat="44.41437" lon="3.77738">
        <ele>1475.4717</ele>
        <time>2019-10-07T03:55:33.428Z</time>
      </trkpt>
      <trkpt lat="44.41446" lon="3.77732">
        <ele>1475.696568</ele>
        <time>2019-10-07T03:55:36.022Z</time>
      </trkpt>
      <trkpt lat="44.41451" lon="3.77724">
        <ele>1475.871838</ele>
        <time>2019-10-07T03:55:37.919Z</time>
      </trkpt>
      <trkpt lat="44.41451" lon="3.77714">
        <ele>1476.044637</ele>
        <time>2019-10-07T03:55:39.792Z</time>
      </trkpt>
      <trkpt lat="44.41435" lon="3.77685">
        <ele>1476.678128</ele>
        <time>2019-10-07T03:55:46.648Z</time>
      </trkpt>
      <trkpt lat="44.41423" lon="3.77667">
        <ele>1477.087769</ele>
        <time>2019-10-07T03:55:51.081Z</time>
      </trkpt>
      <trkpt lat="44.4137" lon="3.77607">
        <ele>1478.731194</ele>
        <time>2019-10-07T03:56:08.856Z</time>
      </trkpt>
      <trkpt lat="44.41327" lon="3.77569">
        <ele>1479.953155</ele>
        <time>2019-10-07T03:56:21.951Z</time>
      </trkpt>
      <trkpt lat="44.41285" lon="3.77467">
        <ele>1482.33502</ele>
        <time>2019-10-07T03:56:43.756Z</time>
      </trkpt>
      <trkpt lat="44.41275" lon="3.77365">
        <ele>1484.414602</ele>
        <time>2019-10-07T03:57:02.810Z</time>
      </trkpt>
      <trkpt lat="44.41305" lon="3.77302">
        <ele>1486.112702</ele>
        <time>2019-10-07T03:57:16.843Z</time>
      </trkpt>
      <trkpt lat="44.41318" lon="3.77246">
        <ele>1487.509604</ele>
        <time>2019-10-07T03:57:27.781Z</time>
      </trkpt>
      <trkpt lat="44.41291" lon="3.77189">
        <ele>1489.13471</ele>
        <time>2019-10-07T03:57:40.498Z</time>
      </trkpt>
      <trkpt lat="44.41252" lon="3.77152">
        <ele>1490.702953</ele>
        <time>2019-10-07T03:57:52.754Z</time>
      </trkpt>
      <trkpt lat="44.41219" lon="3.7712">
        <ele>1492.181177</ele>
        <time>2019-10-07T03:58:03.029Z</time>
      </trkpt>
      <trkpt lat="44.41249" lon="3.77115">
        <ele>1493.31754</ele>
        <time>2019-10-07T03:58:10.738Z</time>
      </trkpt>
      <trkpt lat="44.41279" lon="3.77119">
        <ele>1494.485903</ele>
        <time>2019-10-07T03:58:18.664Z</time>
      </trkpt>
      <trkpt lat="44.41293" lon="3.77126">
        <ele>1495.036326</ele>
        <time>2019-10-07T03:58:22.400Z</time>
      </trkpt>
      <trkpt lat="44.41303" lon="3.77122">
        <ele>1495.442305</ele>
        <time>2019-10-07T03:58:25.155Z</time>
      </trkpt>
      <trkpt lat="44.41334" lon="3.77123">
        <ele>1496.631621</ele>
        <time>2019-10-07T03:58:33.224Z</time>
      </trkpt>
      <trkpt lat="44.41357" lon="3.77139">
        <ele>1497.610331</ele>
        <time>2019-10-07T03:58:39.868Z</time>
      </trkpt>
      <trkpt lat="44.41376" lon="3.7713">
        <ele>1498.430197</ele>
        <time>2019-10-07T03:58:44.984Z</time>
      </trkpt>
      <trkpt lat="44.41389" lon="3.77147">
        <ele>1499.179727</ele>
        <time>2019-10-07T03:58:49.554Z</time>
      </trkpt>
      <trkpt lat="44.41428" lon="3.77166">
        <ele>1500.914929</ele>
        <time>2019-10-07T03:59:00.121Z</time>
      </trkpt>
      <trkpt lat="44.41438" lon="3.77193">
        <ele>1501.828377</ele>
        <time>2019-10-07T03:59:05.697Z</time>
      </trkpt>
      <trkpt lat="44.41442" lon="3.77261">
        <ele>1503.911598</ele>
        <time>2019-10-07T03:59:18.422Z</time>
      </trkpt>
      <trkpt lat="44.41471" lon="3.77294">
        <ele>1505.510936</ele>
        <time>2019-10-07T03:59:28.160Z</time>
      </trkpt>
      <trkpt lat="44.41476" lon="3.77346">
        <ele>1507.140659</ele>
        <time>2019-10-07T03:59:37.895Z</time>
      </trkpt>
      <trkpt lat="44.41482" lon="3.77344">
        <ele>1507.401123</ele>
        <time>2019-10-07T03:59:39.446Z</time>
      </trkpt>
      <trkpt lat="44.41491" lon="3.77338">
        <ele>1507.827779</ele>
        <time>2019-10-07T03:59:41.987Z</time>
      </trkpt>
      <trkpt lat="44.41545" lon="3.77296">
        <ele>1510.509404</ele>
        <time>2019-10-07T03:59:57.963Z</time>
      </trkpt>
      <trkpt lat="44.41598" lon="3.77254">
        <ele>1513.189511</ele>
        <time>2019-10-07T04:00:13.927Z</time>
      </trkpt>
      <trkpt lat="44.41598" lon="3.77254">
        <ele>1513.189511</ele>
        <time>2019-10-07T04:00:13.960Z</time>
      </trkpt>
      <trkpt lat="44.41703" lon="3.77207">
        <ele>1517.788476</ele>
        <time>2019-10-07T04:01:01.617Z</time>
      </trkpt>
      <trkpt lat="44.41819" lon="3.77111">
        <ele>1523.309672</ele>
        <time>2019-10-07T04:01:58.878Z</time>
      </trkpt>
      <trkpt lat="44.41936" lon="3.7705">
        <ele>1528.312516</ele>
        <time>2019-10-07T04:02:52.106Z</time>
      </trkpt>
      <trkpt lat="44.42032" lon="3.77027">
        <ele>1531.926047</ele>
        <time>2019-10-07T04:03:32.031Z</time>
      </trkpt>
      <trkpt lat="44.42245" lon="3.77011">
        <ele>1539.71756</ele>
        <time>2019-10-07T04:04:56.780Z</time>
      </trkpt>
      <trkpt lat="44.42318" lon="3.76968">
        <ele>1542.684943</ele>
        <time>2019-10-07T04:05:29.957Z</time>
      </trkpt>
      <trkpt lat="44.42369" lon="3.76925">
        <ele>1545.028185</ele>
        <time>2019-10-07T04:05:55.178Z</time>
      </trkpt>
      <trkpt lat="44.42384" lon="3.769">
        <ele>1545.972846</ele>
        <time>2019-10-07T04:06:05.711Z</time>
      </trkpt>
      <trkpt lat="44.42391" lon="3.76887">
        <ele>1546.430231</ele>
        <time>2019-10-07T04:06:10.096Z</time>
      </trkpt>
      <trkpt lat="44.42384" lon="3.76869">
        <ele>1547.015303</ele>
        <time>2019-10-07T04:06:18.908Z</time>
      </trkpt>
      <trkpt lat="44.42372" lon="3.76838">
        <ele>1547.996032</ele>
        <time>2019-10-07T04:06:32.537Z</time>
      </trkpt>
      <trkpt lat="44.42341" lon="3.7685">
        <ele>1549.284463</ele>
        <time>2019-10-07T04:06:50.812Z</time>
      </trkpt>
      <trkpt lat="44.42222" lon="3.76885">
        <ele>1554.028589</ele>
        <time>2019-10-07T04:07:59.588Z</time>
      </trkpt>
      <trkpt lat="44.4202" lon="3.76834">
        <ele>1562.293127</ele>
        <time>2019-10-07T04:09:56.831Z</time>
      </trkpt>
      <trkpt lat="44.41956" lon="3.76817">
        <ele>1565.310507</ele>
        <time>2019-10-07T04:10:34.872Z</time>
      </trkpt>
      <trkpt lat="44.41854" lon="3.76791">
        <ele>1570.202244</ele>
        <time>2019-10-07T04:11:38.617Z</time>
      </trkpt>
      <trkpt lat="44.4183" lon="3.76756">
        <ele>1572.040769</ele>
        <time>2019-10-07T04:12:00.377Z</time>
      </trkpt>
      <trkpt lat="44.41814" lon="3.7668">
        <ele>1575.368278</ele>
        <time>2019-10-07T04:12:36.101Z</time>
      </trkpt>
      <trkpt lat="44.41812" lon="3.76624">
        <ele>1577.752375</ele>
        <time>2019-10-07T04:13:02.963Z</time>
      </trkpt>
      <trkpt lat="44.41817" lon="3.7653">
        <ele>1581.740762</ele>
        <time>2019-10-07T04:13:50.557Z</time>
      </trkpt>
      <trkpt lat="44.4184" lon="3.76384">
        <ele>1588.839136</ele>
        <time>2019-10-07T04:15:06.791Z</time>
      </trkpt>
      <trkpt lat="44.41885" lon="3.76223">
        <ele>1596.466052</ele>
        <time>2019-10-07T04:16:33.120Z</time>
      </trkpt>
      <trkpt lat="44.41922" lon="3.76073">
        <ele>1602.711539</ele>
        <time>2019-10-07T04:17:46.188Z</time>
      </trkpt>
      <trkpt lat="44.41928" lon="3.75998">
        <ele>1604.76969</ele>
        <time>2019-10-07T04:18:16.718Z</time>
      </trkpt>
      <trkpt lat="44.41929" lon="3.75957">
        <ele>1605.705222</ele>
        <time>2019-10-07T04:18:33.022Z</time>
      </trkpt>
      <trkpt lat="44.41931" lon="3.75958">
        <ele>1607.2</ele>
      </trkpt>
      <trkpt lat="44.41932" lon="3.75905">
        <ele>1608.3</ele>
      </trkpt>
      <trkpt lat="44.41931" lon="3.75898">
        <ele>1608.4</ele>
      </trkpt>
      <trkpt lat="44.4193" lon="3.75892">
        <ele>1608.5</ele>
      </trkpt>
      <trkpt lat="44.41926" lon="3.75886">
        <ele>1608.6</ele>
      </trkpt>
      <trkpt lat="44.41919" lon="3.75877">
        <ele>1608.5</ele>
      </trkpt>
      <trkpt lat="44.41898" lon="3.75853">
        <ele>1608.7</ele>
      </trkpt>
      <trkpt lat="44.41874" lon="3.75824">
        <ele>1608.4</ele>
      </trkpt>
      <trkpt lat="44.41858" lon="3.75807">
        <ele>1607.8</ele>
      </trkpt>
      <trkpt lat="44.41848" lon="3.75798">
        <ele>1607.3</ele>
      </trkpt>
      <trkpt lat="44.41835" lon="3.75789">
        <ele>1606.5</ele>
      </trkpt>
      <trkpt lat="44.41818" lon="3.75777">
        <ele>1605.7</ele>
      </trkpt>
      <trkpt lat="44.41802" lon="3.75769">
        <ele>1605</ele>
      </trkpt>
      <trkpt lat="44.41797" lon="3.75764">
        <ele>1604.5</ele>
      </trkpt>
      <trkpt lat="44.41795" lon="3.75758">
        <ele>1604.1</ele>
      </trkpt>
      <trkpt lat="44.41793" lon="3.7575">
        <ele>1603.6</ele>
      </trkpt>
      <trkpt lat="44.41794" lon="3.75742">
        <ele>1603</ele>
      </trkpt>
      <trkpt lat="44.41797" lon="3.75723">
        <ele>1601.7</ele>
      </trkpt>
      <trkpt lat="44.41806" lon="3.75677">
        <ele>1599.4</ele>
      </trkpt>
      <trkpt lat="44.41816" lon="3.7563">
        <ele>1597.6</ele>
      </trkpt>
      <trkpt lat="44.41826" lon="3.75574">
        <ele>1595.4</ele>
      </trkpt>
      <trkpt lat="44.41832" lon="3.75541">
        <ele>1592.6</ele>
      </trkpt>
      <trkpt lat="44.41837" lon="3.75518">
        <ele>1591.1</ele>
      </trkpt>
      <trkpt lat="44.41844" lon="3.75496">
        <ele>1589.7</ele>
      </trkpt>
      <trkpt lat="44.41851" lon="3.75476">
        <ele>1587.4</ele>
      </trkpt>
      <trkpt lat="44.41859" lon="3.75457">
        <ele>1585.7</ele>
      </trkpt>
      <trkpt lat="44.4187" lon="3.75438">
        <ele>1584.6</ele>
      </trkpt>
      <trkpt lat="44.4189" lon="3.75411">
        <ele>1583.7</ele>
      </trkpt>
      <trkpt lat="44.41922" lon="3.75368">
        <ele>1581.6</ele>
      </trkpt>
      <trkpt lat="44.41946" lon="3.75332">
        <ele>1579.9</ele>
      </trkpt>
      <trkpt lat="44.41968" lon="3.75299">
        <ele>1577.8</ele>
      </trkpt>
      <trkpt lat="44.41999" lon="3.75259">
        <ele>1576.1</ele>
      </trkpt>
      <trkpt lat="44.42033" lon="3.75213">
        <ele>1572.8</ele>
      </trkpt>
      <trkpt lat="44.42059" lon="3.75175">
        <ele>1569.9</ele>
      </trkpt>
      <trkpt lat="44.42089" lon="3.75128">
        <ele>1568.2</ele>
      </trkpt>
      <trkpt lat="44.42113" lon="3.75088">
        <ele>1565.5</ele>
      </trkpt>
      <trkpt lat="44.42121" lon="3.75077">
        <ele>1565.5</ele>
      </trkpt>
      <trkpt lat="44.42127" lon="3.75066">
        <ele>1565.7</ele>
      </trkpt>
      <trkpt lat="44.42137" lon="3.75054">
        <ele>1566.6</ele>
      </trkpt>
      <trkpt lat="44.42146" lon="3.75044">
        <ele>1567.8</ele>
      </trkpt>
      <trkpt lat="44.42151" lon="3.7504">
        <ele>1568.6</ele>
      </trkpt>
      <trkpt lat="44.42153" lon="3.75036">
        <ele>1568.8</ele>
      </trkpt>
      <trkpt lat="44.42154" lon="3.75034">
        <ele>1568.9</ele>
      </trkpt>
      <trkpt lat="44.42155" lon="3.75029">
        <ele>1568.7</ele>
      </trkpt>
      <trkpt lat="44.42155" lon="3.75027">
        <ele>1568.7</ele>
      </trkpt>
      <trkpt lat="44.42154" lon="3.75024">
        <ele>1568.2</ele>
      </trkpt>
      <trkpt lat="44.42151" lon="3.75014">
        <ele>1566.6</ele>
      </trkpt>
      <trkpt lat="44.4214" lon="3.74995">
        <ele>1562.5</ele>
      </trkpt>
      <trkpt lat="44.42131" lon="3.74972">
        <ele>1559.1</ele>
      </trkpt>
      <trkpt lat="44.42126" lon="3.74948">
        <ele>1556.5</ele>
      </trkpt>
      <trkpt lat="44.42124" lon="3.74929">
        <ele>1555.1</ele>
      </trkpt>
      <trkpt lat="44.42123" lon="3.74908">
        <ele>1553.6</ele>
      </trkpt>
      <trkpt lat="44.42124" lon="3.7489">
        <ele>1552.4</ele>
      </trkpt>
      <trkpt lat="44.42126" lon="3.74877">
        <ele>1552</ele>
      </trkpt>
      <trkpt lat="44.4213" lon="3.74862">
        <ele>1552.3</ele>
      </trkpt>
      <trkpt lat="44.42139" lon="3.7484">
        <ele>1553.4</ele>
      </trkpt>
      <trkpt lat="44.42146" lon="3.74821">
        <ele>1555.8</ele>
      </trkpt>
      <trkpt lat="44.4215" lon="3.74808">
        <ele>1557.5</ele>
      </trkpt>
      <trkpt lat="44.42154" lon="3.74789">
        <ele>1559</ele>
      </trkpt>
      <trkpt lat="44.42159" lon="3.74761">
        <ele>1560.5</ele>
      </trkpt>
      <trkpt lat="44.4216" lon="3.74754">
        <ele>1560.6</ele>
      </trkpt>
      <trkpt lat="44.42158" lon="3.74745">
        <ele>1561.3</ele>
      </trkpt>
      <trkpt lat="44.42156" lon="3.74742">
        <ele>1561.6</ele>
      </trkpt>
      <trkpt lat="44.42155" lon="3.74741">
        <ele>1561.6</ele>
      </trkpt>
      <trkpt lat="44.42153" lon="3.74739">
        <ele>1561.4</ele>
      </trkpt>
      <trkpt lat="44.42145" lon="3.74738">
        <ele>1560.4</ele>
      </trkpt>
      <trkpt lat="44.42133" lon="3.74737">
        <ele>1558.1</ele>
      </trkpt>
      <trkpt lat="44.42117" lon="3.74738">
        <ele>1555</ele>
      </trkpt>
      <trkpt lat="44.42105" lon="3.74736">
        <ele>1553</ele>
      </trkpt>
      <trkpt lat="44.42092" lon="3.74733">
        <ele>1551.2</ele>
      </trkpt>
      <trkpt lat="44.42074" lon="3.74728">
        <ele>1549.9</ele>
      </trkpt>
      <trkpt lat="44.42053" lon="3.74719">
        <ele>1549.5</ele>
      </trkpt>
      <trkpt lat="44.42039" lon="3.74714">
        <ele>1549.1</ele>
      </trkpt>
      <trkpt lat="44.4203" lon="3.74714">
        <ele>1547.9</ele>
      </trkpt>
      <trkpt lat="44.42018" lon="3.74714">
        <ele>1546.3</ele>
      </trkpt>
      <trkpt lat="44.42004" lon="3.74714">
        <ele>1544.5</ele>
      </trkpt>
      <trkpt lat="44.4199" lon="3.74712">
        <ele>1543</ele>
      </trkpt>
      <trkpt lat="44.41977" lon="3.74708">
        <ele>1541.9</ele>
      </trkpt>
      <trkpt lat="44.41957" lon="3.747">
        <ele>1540.8</ele>
      </trkpt>
      <trkpt lat="44.41939" lon="3.74692">
        <ele>1540</ele>
      </trkpt>
      <trkpt lat="44.4192" lon="3.74682">
        <ele>1539.5</ele>
      </trkpt>
      <trkpt lat="44.41905" lon="3.74677">
        <ele>1539</ele>
      </trkpt>
      <trkpt lat="44.41884" lon="3.74673">
        <ele>1537.9</ele>
      </trkpt>
      <trkpt lat="44.41863" lon="3.74671">
        <ele>1536.1</ele>
      </trkpt>
      <trkpt lat="44.4183" lon="3.74669">
        <ele>1533.2</ele>
      </trkpt>
      <trkpt lat="44.41809" lon="3.74667">
        <ele>1532.2</ele>
      </trkpt>
      <trkpt lat="44.4179" lon="3.74665">
        <ele>1531.3</ele>
      </trkpt>
      <trkpt lat="44.41774" lon="3.74665">
        <ele>1530.2</ele>
      </trkpt>
      <trkpt lat="44.41763" lon="3.74665">
        <ele>1529.5</ele>
      </trkpt>
      <trkpt lat="44.41751" lon="3.74663">
        <ele>1529</ele>
      </trkpt>
      <trkpt lat="44.41741" lon="3.74661">
        <ele>1528.2</ele>
      </trkpt>
      <trkpt lat="44.41728" lon="3.74656">
        <ele>1527.3</ele>
      </trkpt>
      <trkpt lat="44.41714" lon="3.74651">
        <ele>1526.4</ele>
      </trkpt>
      <trkpt lat="44.41702" lon="3.74646">
        <ele>1525.7</ele>
      </trkpt>
      <trkpt lat="44.41691" lon="3.74641">
        <ele>1525.2</ele>
      </trkpt>
      <trkpt lat="44.41681" lon="3.74638">
        <ele>1524.3</ele>
      </trkpt>
      <trkpt lat="44.41664" lon="3.74636">
        <ele>1522.1</ele>
      </trkpt>
      <trkpt lat="44.41643" lon="3.74631">
        <ele>1519.1</ele>
      </trkpt>
      <trkpt lat="44.41627" lon="3.74628">
        <ele>1516.6</ele>
      </trkpt>
      <trkpt lat="44.41615" lon="3.74624">
        <ele>1515.1</ele>
      </trkpt>
      <trkpt lat="44.41606" lon="3.74619">
        <ele>1514.5</ele>
      </trkpt>
      <trkpt lat="44.41597" lon="3.74613">
        <ele>1514.2</ele>
      </trkpt>
      <trkpt lat="44.41588" lon="3.74605">
        <ele>1514.5</ele>
      </trkpt>
      <trkpt lat="44.41579" lon="3.74595">
        <ele>1515.2</ele>
      </trkpt>
      <trkpt lat="44.41572" lon="3.74589">
        <ele>1515.5</ele>
      </trkpt>
      <trkpt lat="44.41565" lon="3.74585">
        <ele>1515.1</ele>
      </trkpt>
      <trkpt lat="44.41556" lon="3.74582">
        <ele>1514.1</ele>
      </trkpt>
      <trkpt lat="44.41539" lon="3.74577">
        <ele>1511.6</ele>
      </trkpt>
      <trkpt lat="44.41526" lon="3.74573">
        <ele>1509.7</ele>
      </trkpt>
      <trkpt lat="44.41515" lon="3.74567">
        <ele>1508.5</ele>
      </trkpt>
      <trkpt lat="44.41503" lon="3.74559">
        <ele>1507.5</ele>
      </trkpt>
      <trkpt lat="44.41492" lon="3.74548">
        <ele>1506.5</ele>
      </trkpt>
      <trkpt lat="44.41485" lon="3.7454">
        <ele>1505.8</ele>
      </trkpt>
      <trkpt lat="44.41472" lon="3.74524">
        <ele>1504.7</ele>
      </trkpt>
      <trkpt lat="44.4146" lon="3.74506">
        <ele>1503.9</ele>
      </trkpt>
      <trkpt lat="44.4145" lon="3.74488">
        <ele>1503</ele>
      </trkpt>
      <trkpt lat="44.41441" lon="3.74466">
        <ele>1501.8</ele>
      </trkpt>
      <trkpt lat="44.41432" lon="3.74439">
        <ele>1500.7</ele>
      </trkpt>
      <trkpt lat="44.41419" lon="3.74397">
        <ele>1498.2</ele>
      </trkpt>
      <trkpt lat="44.41414" lon="3.74369">
        <ele>1497.1</ele>
      </trkpt>
      <trkpt lat="44.4141" lon="3.74331">
        <ele>1496.5</ele>
      </trkpt>
      <trkpt lat="44.41407" lon="3.74296">
        <ele>1494.7</ele>
      </trkpt>
      <trkpt lat="44.41405" lon="3.74251">
        <ele>1493.1</ele>
      </trkpt>
      <trkpt lat="44.41404" lon="3.74168">
        <ele>1490.8</ele>
      </trkpt>
      <trkpt lat="44.41404" lon="3.74083">
        <ele>1488.2</ele>
      </trkpt>
      <trkpt lat="44.41405" lon="3.74053">
        <ele>1486.9</ele>
      </trkpt>
      <trkpt lat="44.41406" lon="3.74037">
        <ele>1486.5</ele>
      </trkpt>
      <trkpt lat="44.41408" lon="3.74023">
        <ele>1486.2</ele>
      </trkpt>
      <trkpt lat="44.4141" lon="3.74011">
        <ele>1486</ele>
      </trkpt>
      <trkpt lat="44.41411" lon="3.74001">
        <ele>1485.9</ele>
      </trkpt>
      <trkpt lat="44.41417" lon="3.73967">
        <ele>1485.8</ele>
      </trkpt>
      <trkpt lat="44.41421" lon="3.73948">
        <ele>1486</ele>
      </trkpt>
      <trkpt lat="44.41423" lon="3.73934">
        <ele>1485.9</ele>
      </trkpt>
      <trkpt lat="44.41425" lon="3.73919">
        <ele>1485.6</ele>
      </trkpt>
      <trkpt lat="44.41427" lon="3.73906">
        <ele>1485</ele>
      </trkpt>
      <trkpt lat="44.41431" lon="3.73892">
        <ele>1484.6</ele>
      </trkpt>
      <trkpt lat="44.41438" lon="3.73873">
        <ele>1484.4</ele>
      </trkpt>
      <trkpt lat="44.4145" lon="3.73837">
        <ele>1483.6</ele>
      </trkpt>
      <trkpt lat="44.4146" lon="3.73813">
        <ele>1483</ele>
      </trkpt>
      <trkpt lat="44.41471" lon="3.73791">
        <ele>1482.6</ele>
      </trkpt>
      <trkpt lat="44.41484" lon="3.73771">
        <ele>1482.5</ele>
      </trkpt>
      <trkpt lat="44.41498" lon="3.73743">
        <ele>1481.8</ele>
      </trkpt>
      <trkpt lat="44.41507" lon="3.73721">
        <ele>1480.7</ele>
      </trkpt>
      <trkpt lat="44.41516" lon="3.73704">
        <ele>1480.5</ele>
      </trkpt>
      <trkpt lat="44.41519" lon="3.73699">
        <ele>1480.4</ele>
      </trkpt>
      <trkpt lat="44.4152" lon="3.73696">
        <ele>1480.3</ele>
      </trkpt>
      <trkpt lat="44.41519" lon="3.73694">
        <ele>1480</ele>
      </trkpt>
      <trkpt lat="44.41521" lon="3.73691">
        <ele>1480.1</ele>
      </trkpt>
      <trkpt lat="44.41525" lon="3.73686">
        <ele>1480.4</ele>
      </trkpt>
      <trkpt lat="44.4153" lon="3.7368">
        <ele>1480.7</ele>
      </trkpt>
      <trkpt lat="44.41532" lon="3.73676">
        <ele>1480.9</ele>
      </trkpt>
      <trkpt lat="44.41533" lon="3.73675">
        <ele>1480.9</ele>
      </trkpt>
      <trkpt lat="44.41542" lon="3.73657">
        <ele>1481.8</ele>
      </trkpt>
      <trkpt lat="44.41547" lon="3.7364">
        <ele>1482.7</ele>
      </trkpt>
      <trkpt lat="44.41548" lon="3.73638">
        <ele>1482.8</ele>
      </trkpt>
      <trkpt lat="44.4155" lon="3.73628">
        <ele>1483.2</ele>
      </trkpt>
      <trkpt lat="44.41552" lon="3.73614">
        <ele>1483.2</ele>
      </trkpt>
      <trkpt lat="44.41551" lon="3.73593">
        <ele>1482.7</ele>
      </trkpt>
      <trkpt lat="44.41551" lon="3.73569">
        <ele>1482.8</ele>
      </trkpt>
      <trkpt lat="44.41553" lon="3.73548">
        <ele>1483.7</ele>
      </trkpt>
      <trkpt lat="44.41557" lon="3.73517">
        <ele>1485.4</ele>
      </trkpt>
      <trkpt lat="44.41561" lon="3.73482">
        <ele>1486.6</ele>
      </trkpt>
      <trkpt lat="44.41566" lon="3.73454">
        <ele>1487.5</ele>
      </trkpt>
      <trkpt lat="44.41574" lon="3.73421">
        <ele>1488.9</ele>
      </trkpt>
      <trkpt lat="44.41583" lon="3.73389">
        <ele>1489.6</ele>
      </trkpt>
      <trkpt lat="44.41595" lon="3.73358">
        <ele>1491.9</ele>
      </trkpt>
      <trkpt lat="44.41614" lon="3.7332">
        <ele>1494.7</ele>
      </trkpt>
      <trkpt lat="44.4163" lon="3.7329">
        <ele>1495.7</ele>
      </trkpt>
      <trkpt lat="44.41652" lon="3.73255">
        <ele>1497.6</ele>
      </trkpt>
      <trkpt lat="44.41686" lon="3.73208">
        <ele>1501.4</ele>
      </trkpt>
      <trkpt lat="44.41709" lon="3.73176">
        <ele>1504</ele>
      </trkpt>
      <trkpt lat="44.41747" lon="3.73127">
        <ele>1508.1</ele>
      </trkpt>
      <trkpt lat="44.41792" lon="3.73076">
        <ele>1512.3</ele>
      </trkpt>
      <trkpt lat="44.41821" lon="3.73042">
        <ele>1514.2</ele>
      </trkpt>
      <trkpt lat="44.41849" lon="3.73016">
        <ele>1516.8</ele>
      </trkpt>
      <trkpt lat="44.41863" lon="3.73002">
        <ele>1518.2</ele>
      </trkpt>
      <trkpt lat="44.41883" lon="3.72978">
        <ele>1520.2</ele>
      </trkpt>
      <trkpt lat="44.41896" lon="3.72965">
        <ele>1521.7</ele>
      </trkpt>
      <trkpt lat="44.41913" lon="3.72952">
        <ele>1524.1</ele>
      </trkpt>
      <trkpt lat="44.41929" lon="3.72939">
        <ele>1525.9</ele>
      </trkpt>
      <trkpt lat="44.41947" lon="3.7293">
        <ele>1528.1</ele>
      </trkpt>
      <trkpt lat="44.41968" lon="3.72918">
        <ele>1530.8</ele>
      </trkpt>
      <trkpt lat="44.42003" lon="3.72896">
        <ele>1534.5</ele>
      </trkpt>
      <trkpt lat="44.42036" lon="3.72874">
        <ele>1536.9</ele>
      </trkpt>
      <trkpt lat="44.42066" lon="3.72855">
        <ele>1538.8</ele>
      </trkpt>
      <trkpt lat="44.42097" lon="3.72836">
        <ele>1540.4</ele>
      </trkpt>
      <trkpt lat="44.42133" lon="3.72814">
        <ele>1542.3</ele>
      </trkpt>
      <trkpt lat="44.42162" lon="3.72801">
        <ele>1544.6</ele>
      </trkpt>
      <trkpt lat="44.4219" lon="3.72788">
        <ele>1547.9</ele>
      </trkpt>
      <trkpt lat="44.42218" lon="3.72774">
        <ele>1551.4</ele>
      </trkpt>
      <trkpt lat="44.4224" lon="3.72765">
        <ele>1554.2</ele>
      </trkpt>
      <trkpt lat="44.42253" lon="3.7276">
        <ele>1556</ele>
      </trkpt>
      <trkpt lat="44.4226" lon="3.72759">
        <ele>1557.1</ele>
      </trkpt>
      <trkpt lat="44.4227" lon="3.72758">
        <ele>1558.9</ele>
      </trkpt>
      <trkpt lat="44.42277" lon="3.72758">
        <ele>1560</ele>
      </trkpt>
      <trkpt lat="44.42286" lon="3.72755">
        <ele>1561.2</ele>
      </trkpt>
      <trkpt lat="44.42313" lon="3.72744">
        <ele>1565.6</ele>
      </trkpt>
      <trkpt lat="44.42319" lon="3.72741">
        <ele>1566.8</ele>
      </trkpt>
      <trkpt lat="44.42323" lon="3.72737">
        <ele>1567.6</ele>
      </trkpt>
      <trkpt lat="44.42324" lon="3.72732">
        <ele>1568.2</ele>
      </trkpt>
      <trkpt lat="44.42324" lon="3.72728">
        <ele>1568.2</ele>
      </trkpt>
      <trkpt lat="44.42323" lon="3.72725">
        <ele>1568.3</ele>
      </trkpt>
      <trkpt lat="44.42321" lon="3.7272">
        <ele>1568.1</ele>
      </trkpt>
      <trkpt lat="44.42317" lon="3.72716">
        <ele>1567.5</ele>
      </trkpt>
      <trkpt lat="44.42309" lon="3.72709">
        <ele>1566</ele>
      </trkpt>
      <trkpt lat="44.42298" lon="3.72698">
        <ele>1564.4</ele>
      </trkpt>
      <trkpt lat="44.42277" lon="3.72673">
        <ele>1560.7</ele>
      </trkpt>
      <trkpt lat="44.42249" lon="3.72638">
        <ele>1561.2</ele>
      </trkpt>
      <trkpt lat="44.42233" lon="3.7262">
        <ele>1562.1</ele>
      </trkpt>
      <trkpt lat="44.42217" lon="3.72604">
        <ele>1562</ele>
      </trkpt>
      <trkpt lat="44.42189" lon="3.72577">
        <ele>1561</ele>
      </trkpt>
      <trkpt lat="44.42172" lon="3.72561">
        <ele>1559.7</ele>
      </trkpt>
      <trkpt lat="44.42171" lon="3.7256">
        <ele>1559.7</ele>
      </trkpt>
      <trkpt lat="44.42163" lon="3.72549">
        <ele>1559.4</ele>
      </trkpt>
      <trkpt lat="44.42157" lon="3.72538">
        <ele>1559.2</ele>
      </trkpt>
      <trkpt lat="44.42152" lon="3.72526">
        <ele>1559.8</ele>
      </trkpt>
      <trkpt lat="44.42147" lon="3.72508">
        <ele>1560.9</ele>
      </trkpt>
      <trkpt lat="44.42137" lon="3.7246">
        <ele>1561.5</ele>
      </trkpt>
      <trkpt lat="44.42121" lon="3.72363">
        <ele>1562.4</ele>
      </trkpt>
      <trkpt lat="44.42106" lon="3.72273">
        <ele>1562.8</ele>
      </trkpt>
      <trkpt lat="44.421" lon="3.72233">
        <ele>1562.7</ele>
      </trkpt>
      <trkpt lat="44.42093" lon="3.722">
        <ele>1562</ele>
      </trkpt>
      <trkpt lat="44.42089" lon="3.72173">
        <ele>1562.1</ele>
      </trkpt>
      <trkpt lat="44.42087" lon="3.72148">
        <ele>1561.3</ele>
      </trkpt>
      <trkpt lat="44.42087" lon="3.72145">
        <ele>1561.2</ele>
      </trkpt>
      <trkpt lat="44.42086" lon="3.72122">
        <ele>1560.5</ele>
      </trkpt>
      <trkpt lat="44.42087" lon="3.72102">
        <ele>1560.1</ele>
      </trkpt>
      <trkpt lat="44.42088" lon="3.72086">
        <ele>1559.9</ele>
      </trkpt>
      <trkpt lat="44.4209" lon="3.72074">
        <ele>1559.3</ele>
      </trkpt>
      <trkpt lat="44.42093" lon="3.72064">
        <ele>1558.8</ele>
      </trkpt>
      <trkpt lat="44.42099" lon="3.7205">
        <ele>1558.6</ele>
      </trkpt>
      <trkpt lat="44.42106" lon="3.72039">
        <ele>1558.5</ele>
      </trkpt>
      <trkpt lat="44.42112" lon="3.72032">
        <ele>1558.5</ele>
      </trkpt>
      <trkpt lat="44.42121" lon="3.7202">
        <ele>1558.4</ele>
      </trkpt>
      <trkpt lat="44.42141" lon="3.72">
        <ele>1558.2</ele>
      </trkpt>
      <trkpt lat="44.42175" lon="3.71974">
        <ele>1557.1</ele>
      </trkpt>
      <trkpt lat="44.42197" lon="3.71957">
        <ele>1556.1</ele>
      </trkpt>
      <trkpt lat="44.42224" lon="3.71934">
        <ele>1554.4</ele>
      </trkpt>
      <trkpt lat="44.42245" lon="3.71914">
        <ele>1553.1</ele>
      </trkpt>
      <trkpt lat="44.42272" lon="3.71887">
        <ele>1552.3</ele>
      </trkpt>
      <trkpt lat="44.42287" lon="3.7187">
        <ele>1551.8</ele>
      </trkpt>
      <trkpt lat="44.423" lon="3.71853">
        <ele>1550.9</ele>
      </trkpt>
      <trkpt lat="44.42325" lon="3.71819">
        <ele>1549.5</ele>
      </trkpt>
      <trkpt lat="44.42357" lon="3.71776">
        <ele>1548.3</ele>
      </trkpt>
      <trkpt lat="44.42388" lon="3.71731">
        <ele>1547.1</ele>
      </trkpt>
      <trkpt lat="44.42415" lon="3.71687">
        <ele>1544.9</ele>
      </trkpt>
      <trkpt lat="44.42436" lon="3.71655">
        <ele>1545.5</ele>
      </trkpt>
      <trkpt lat="44.42443" lon="3.71641">
        <ele>1546</ele>
      </trkpt>
      <trkpt lat="44.4245" lon="3.71625">
        <ele>1546</ele>
      </trkpt>
      <trkpt lat="44.42462" lon="3.71596">
        <ele>1545.7</ele>
      </trkpt>
      <trkpt lat="44.42472" lon="3.71573">
        <ele>1545.8</ele>
      </trkpt>
      <trkpt lat="44.42479" lon="3.71558">
        <ele>1545.9</ele>
      </trkpt>
      <trkpt lat="44.42487" lon="3.71535">
        <ele>1545.7</ele>
      </trkpt>
      <trkpt lat="44.42498" lon="3.71509">
        <ele>1545.4</ele>
      </trkpt>
      <trkpt lat="44.42501" lon="3.71503">
        <ele>1545.4</ele>
      </trkpt>
      <trkpt lat="44.42508" lon="3.71489">
        <ele>1545.7</ele>
      </trkpt>
      <trkpt lat="44.42519" lon="3.71462">
        <ele>1545.9</ele>
      </trkpt>
      <trkpt lat="44.42533" lon="3.71419">
        <ele>1545.4</ele>
      </trkpt>
      <trkpt lat="44.42537" lon="3.7141">
        <ele>1545.1</ele>
      </trkpt>
      <trkpt lat="44.42545" lon="3.71384">
        <ele>1544.5</ele>
      </trkpt>
      <trkpt lat="44.42555" lon="3.71351">
        <ele>1543.2</ele>
      </trkpt>
      <trkpt lat="44.42561" lon="3.71319">
        <ele>1541.7</ele>
      </trkpt>
      <trkpt lat="44.42569" lon="3.71281">
        <ele>1539.8</ele>
      </trkpt>
      <trkpt lat="44.42576" lon="3.71248">
        <ele>1538.2</ele>
      </trkpt>
      <trkpt lat="44.42578" lon="3.71238">
        <ele>1538.6</ele>
      </trkpt>
      <trkpt lat="44.42579" lon="3.71237">
        <ele>1538.6</ele>
      </trkpt>
      <trkpt lat="44.42584" lon="3.71224">
        <ele>1539.3</ele>
      </trkpt>
      <trkpt lat="44.42587" lon="3.71214">
        <ele>1539.9</ele>
      </trkpt>
      <trkpt lat="44.42589" lon="3.71206">
        <ele>1540.3</ele>
      </trkpt>
      <trkpt lat="44.42589" lon="3.71203">
        <ele>1540.4</ele>
      </trkpt>
      <trkpt lat="44.42589" lon="3.71199">
        <ele>1540.6</ele>
      </trkpt>
      <trkpt lat="44.42589" lon="3.71198">
        <ele>1540.6</ele>
      </trkpt>
      <trkpt lat="44.42589" lon="3.71191">
        <ele>1540.6</ele>
      </trkpt>
      <trkpt lat="44.42587" lon="3.71185">
        <ele>1540.4</ele>
      </trkpt>
      <trkpt lat="44.42584" lon="3.71177">
        <ele>1539.9</ele>
      </trkpt>
      <trkpt lat="44.42574" lon="3.71164">
        <ele>1539</ele>
      </trkpt>
      <trkpt lat="44.42562" lon="3.71151">
        <ele>1538.6</ele>
      </trkpt>
      <trkpt lat="44.42546" lon="3.71135">
        <ele>1537.5</ele>
      </trkpt>
      <trkpt lat="44.42537" lon="3.71124">
        <ele>1537.1</ele>
      </trkpt>
      <trkpt lat="44.42529" lon="3.71111">
        <ele>1537</ele>
      </trkpt>
      <trkpt lat="44.42524" lon="3.71095">
        <ele>1537.2</ele>
      </trkpt>
      <trkpt lat="44.42515" lon="3.71065">
        <ele>1538.5</ele>
      </trkpt>
      <trkpt lat="44.42503" lon="3.71031">
        <ele>1539.6</ele>
      </trkpt>
      <trkpt lat="44.42493" lon="3.71009">
        <ele>1540</ele>
      </trkpt>
      <trkpt lat="44.42485" lon="3.70994">
        <ele>1540.2</ele>
      </trkpt>
      <trkpt lat="44.42476" lon="3.7098">
        <ele>1539.8</ele>
      </trkpt>
      <trkpt lat="44.42468" lon="3.70967">
        <ele>1539.5</ele>
      </trkpt>
      <trkpt lat="44.42463" lon="3.70956">
        <ele>1539.6</ele>
      </trkpt>
      <trkpt lat="44.42459" lon="3.70943">
        <ele>1539.9</ele>
      </trkpt>
      <trkpt lat="44.42456" lon="3.70927">
        <ele>1540.7</ele>
      </trkpt>
      <trkpt lat="44.42454" lon="3.70901">
        <ele>1541.9</ele>
      </trkpt>
      <trkpt lat="44.42451" lon="3.70863">
        <ele>1543.4</ele>
      </trkpt>
      <trkpt lat="44.4245" lon="3.70839">
        <ele>1544.7</ele>
      </trkpt>
      <trkpt lat="44.4245" lon="3.70811">
        <ele>1545.3</ele>
      </trkpt>
      <trkpt lat="44.42453" lon="3.70775">
        <ele>1546.4</ele>
      </trkpt>
      <trkpt lat="44.42457" lon="3.70741">
        <ele>1547.5</ele>
      </trkpt>
      <trkpt lat="44.42464" lon="3.70696">
        <ele>1549</ele>
      </trkpt>
      <trkpt lat="44.42475" lon="3.70642">
        <ele>1550.9</ele>
      </trkpt>
      <trkpt lat="44.42485" lon="3.706">
        <ele>1551.9</ele>
      </trkpt>
      <trkpt lat="44.42495" lon="3.70557">
        <ele>1553</ele>
      </trkpt>
      <trkpt lat="44.42502" lon="3.70533">
        <ele>1553.6</ele>
      </trkpt>
      <trkpt lat="44.42508" lon="3.70516">
        <ele>1554.4</ele>
      </trkpt>
      <trkpt lat="44.42515" lon="3.70501">
        <ele>1555.4</ele>
      </trkpt>
      <trkpt lat="44.42525" lon="3.70483">
        <ele>1556.6</ele>
      </trkpt>
      <trkpt lat="44.42537" lon="3.70467">
        <ele>1558</ele>
      </trkpt>
      <trkpt lat="44.42556" lon="3.70447">
        <ele>1560.1</ele>
      </trkpt>
      <trkpt lat="44.42574" lon="3.7043">
        <ele>1561.8</ele>
      </trkpt>
      <trkpt lat="44.42588" lon="3.70416">
        <ele>1562.7</ele>
      </trkpt>
      <trkpt lat="44.42608" lon="3.70393">
        <ele>1564.5</ele>
      </trkpt>
      <trkpt lat="44.42615" lon="3.70382">
        <ele>1564.9</ele>
      </trkpt>
      <trkpt lat="44.42624" lon="3.7037">
        <ele>1565.3</ele>
      </trkpt>
      <trkpt lat="44.42643" lon="3.70345">
        <ele>1566.3</ele>
      </trkpt>
      <trkpt lat="44.42661" lon="3.70325">
        <ele>1567.8</ele>
      </trkpt>
      <trkpt lat="44.42673" lon="3.70312">
        <ele>1569.5</ele>
      </trkpt>
      <trkpt lat="44.4268" lon="3.70302">
        <ele>1570.5</ele>
      </trkpt>
      <trkpt lat="44.42683" lon="3.70294">
        <ele>1570.9</ele>
      </trkpt>
      <trkpt lat="44.42685" lon="3.70287">
        <ele>1571.1</ele>
      </trkpt>
      <trkpt lat="44.42686" lon="3.70283">
        <ele>1571.2</ele>
      </trkpt>
      <trkpt lat="44.42686" lon="3.70279">
        <ele>1571.1</ele>
      </trkpt>
      <trkpt lat="44.42686" lon="3.70266">
        <ele>1570.6</ele>
      </trkpt>
      <trkpt lat="44.42682" lon="3.70234">
        <ele>1570.5</ele>
      </trkpt>
      <trkpt lat="44.42679" lon="3.70217">
        <ele>1571.1</ele>
      </trkpt>
      <trkpt lat="44.42675" lon="3.70203">
        <ele>1571.2</ele>
      </trkpt>
      <trkpt lat="44.42672" lon="3.70196">
        <ele>1570.9</ele>
      </trkpt>
      <trkpt lat="44.42667" lon="3.70189">
        <ele>1570.4</ele>
      </trkpt>
      <trkpt lat="44.42657" lon="3.70181">
        <ele>1569.6</ele>
      </trkpt>
      <trkpt lat="44.42633" lon="3.70166">
        <ele>1567.7</ele>
      </trkpt>
      <trkpt lat="44.42616" lon="3.70156">
        <ele>1566.9</ele>
      </trkpt>
      <trkpt lat="44.42598" lon="3.70143">
        <ele>1566.6</ele>
      </trkpt>
      <trkpt lat="44.42566" lon="3.70119">
        <ele>1566.2</ele>
      </trkpt>
      <trkpt lat="44.42531" lon="3.70091">
        <ele>1567</ele>
      </trkpt>
      <trkpt lat="44.42521" lon="3.70074">
        <ele>1568.3</ele>
      </trkpt>
      <trkpt lat="44.42505" lon="3.70053">
        <ele>1569.1</ele>
      </trkpt>
      <trkpt lat="44.42486" lon="3.7003">
        <ele>1570.2</ele>
      </trkpt>
      <trkpt lat="44.42462" lon="3.70008">
        <ele>1571.1</ele>
      </trkpt>
      <trkpt lat="44.4243" lon="3.69985">
        <ele>1571.1</ele>
      </trkpt>
      <trkpt lat="44.42398" lon="3.69963">
        <ele>1571.4</ele>
      </trkpt>
      <trkpt lat="44.42377" lon="3.69951">
        <ele>1571.8</ele>
      </trkpt>
      <trkpt lat="44.42374" lon="3.69947">
        <ele>1572.1</ele>
      </trkpt>
      <trkpt lat="44.42372" lon="3.69943">
        <ele>1572.4</ele>
      </trkpt>
      <trkpt lat="44.42372" lon="3.69939">
        <ele>1572.8</ele>
      </trkpt>
      <trkpt lat="44.42374" lon="3.69936">
        <ele>1573.1</ele>
      </trkpt>
      <trkpt lat="44.42377" lon="3.69934">
        <ele>1573.4</ele>
      </trkpt>
      <trkpt lat="44.42382" lon="3.69934">
        <ele>1573.6</ele>
      </trkpt>
      <trkpt lat="44.42391" lon="3.69935">
        <ele>1573.7</ele>
      </trkpt>
      <trkpt lat="44.42402" lon="3.69934">
        <ele>1574.1</ele>
      </trkpt>
      <trkpt lat="44.42425" lon="3.69928">
        <ele>1575.3</ele>
      </trkpt>
      <trkpt lat="44.4245" lon="3.69921">
        <ele>1576.5</ele>
      </trkpt>
      <trkpt lat="44.42484" lon="3.69905">
        <ele>1577.7</ele>
      </trkpt>
      <trkpt lat="44.42519" lon="3.69888">
        <ele>1578.6</ele>
      </trkpt>
      <trkpt lat="44.42541" lon="3.69875">
        <ele>1579</ele>
      </trkpt>
      <trkpt lat="44.42561" lon="3.69865">
        <ele>1579.1</ele>
      </trkpt>
      <trkpt lat="44.42575" lon="3.69855">
        <ele>1579</ele>
      </trkpt>
      <trkpt lat="44.42586" lon="3.6985">
        <ele>1578.9</ele>
      </trkpt>
      <trkpt lat="44.42596" lon="3.69847">
        <ele>1579.2</ele>
      </trkpt>
      <trkpt lat="44.42622" lon="3.69843">
        <ele>1579.9</ele>
      </trkpt>
      <trkpt lat="44.42657" lon="3.69837">
        <ele>1580.9</ele>
      </trkpt>
      <trkpt lat="44.4268" lon="3.69834">
        <ele>1582</ele>
      </trkpt>
      <trkpt lat="44.42686" lon="3.69832">
        <ele>1582.4</ele>
      </trkpt>
      <trkpt lat="44.42698" lon="3.69827">
        <ele>1582.7</ele>
      </trkpt>
      <trkpt lat="44.42709" lon="3.69819">
        <ele>1582.9</ele>
      </trkpt>
      <trkpt lat="44.42726" lon="3.69802">
        <ele>1582.8</ele>
      </trkpt>
      <trkpt lat="44.4275" lon="3.69777">
        <ele>1582.3</ele>
      </trkpt>
      <trkpt lat="44.42777" lon="3.69751">
        <ele>1583</ele>
      </trkpt>
      <trkpt lat="44.42801" lon="3.6973">
        <ele>1583.9</ele>
      </trkpt>
      <trkpt lat="44.42823" lon="3.69712">
        <ele>1584.7</ele>
      </trkpt>
      <trkpt lat="44.42839" lon="3.69701">
        <ele>1585.5</ele>
      </trkpt>
      <trkpt lat="44.42861" lon="3.69651">
        <ele>1584</ele>
      </trkpt>
      <trkpt lat="44.42886" lon="3.69596">
        <ele>1581.4</ele>
      </trkpt>
      <trkpt lat="44.42902" lon="3.69565">
        <ele>1579.6</ele>
      </trkpt>
      <trkpt lat="44.42918" lon="3.69537">
        <ele>1578.1</ele>
      </trkpt>
      <trkpt lat="44.42936" lon="3.69511">
        <ele>1576.8</ele>
      </trkpt>
      <trkpt lat="44.42954" lon="3.69485">
        <ele>1575.6</ele>
      </trkpt>
      <trkpt lat="44.42975" lon="3.6946">
        <ele>1574.2</ele>
      </trkpt>
      <trkpt lat="44.42988" lon="3.69448">
        <ele>1573.4</ele>
      </trkpt>
      <trkpt lat="44.42998" lon="3.6944">
        <ele>1572.9</ele>
      </trkpt>
      <trkpt lat="44.43009" lon="3.69434">
        <ele>1572.4</ele>
      </trkpt>
      <trkpt lat="44.43022" lon="3.69429">
        <ele>1571.9</ele>
      </trkpt>
      <trkpt lat="44.43037" lon="3.69425">
        <ele>1571.5</ele>
      </trkpt>
      <trkpt lat="44.43061" lon="3.69417">
        <ele>1570.7</ele>
      </trkpt>
      <trkpt lat="44.43069" lon="3.69416">
        <ele>1570.7</ele>
      </trkpt>
      <trkpt lat="44.43083" lon="3.69414">
        <ele>1570.6</ele>
      </trkpt>
      <trkpt lat="44.43098" lon="3.69411">
        <ele>1570.7</ele>
      </trkpt>
      <trkpt lat="44.43129" lon="3.69405">
        <ele>1570.9</ele>
      </trkpt>
      <trkpt lat="44.43156" lon="3.694">
        <ele>1571</ele>
      </trkpt>
      <trkpt lat="44.43176" lon="3.69394">
        <ele>1570.8</ele>
      </trkpt>
      <trkpt lat="44.43199" lon="3.69385">
        <ele>1570.3</ele>
      </trkpt>
      <trkpt lat="44.43218" lon="3.69378">
        <ele>1569.9</ele>
      </trkpt>
      <trkpt lat="44.43237" lon="3.69373">
        <ele>1569.7</ele>
      </trkpt>
      <trkpt lat="44.43247" lon="3.69369">
        <ele>1569.4</ele>
      </trkpt>
      <trkpt lat="44.43261" lon="3.6936">
        <ele>1568.8</ele>
      </trkpt>
      <trkpt lat="44.43287" lon="3.6934">
        <ele>1567.4</ele>
      </trkpt>
      <trkpt lat="44.43306" lon="3.69329">
        <ele>1566.8</ele>
      </trkpt>
      <trkpt lat="44.43325" lon="3.69319">
        <ele>1566.8</ele>
      </trkpt>
      <trkpt lat="44.43337" lon="3.69308">
        <ele>1566.2</ele>
      </trkpt>
      <trkpt lat="44.43341" lon="3.69304">
        <ele>1566</ele>
      </trkpt>
      <trkpt lat="44.43361" lon="3.69287">
        <ele>1565.1</ele>
      </trkpt>
      <trkpt lat="44.4338" lon="3.69265">
        <ele>1563.7</ele>
      </trkpt>
      <trkpt lat="44.43395" lon="3.69249">
        <ele>1562.6</ele>
      </trkpt>
      <trkpt lat="44.43407" lon="3.69238">
        <ele>1561.9</ele>
      </trkpt>
      <trkpt lat="44.43418" lon="3.69224">
        <ele>1560.9</ele>
      </trkpt>
      <trkpt lat="44.43437" lon="3.69198">
        <ele>1558.7</ele>
      </trkpt>
      <trkpt lat="44.43455" lon="3.69174">
        <ele>1556.7</ele>
      </trkpt>
      <trkpt lat="44.43459" lon="3.69169">
        <ele>1556.2</ele>
      </trkpt>
      <trkpt lat="44.43471" lon="3.69149">
        <ele>1555.3</ele>
      </trkpt>
      <trkpt lat="44.43484" lon="3.69123">
        <ele>1554</ele>
      </trkpt>
      <trkpt lat="44.43486" lon="3.69118">
        <ele>1553.7</ele>
      </trkpt>
      <trkpt lat="44.43493" lon="3.69102">
        <ele>1553</ele>
      </trkpt>
      <trkpt lat="44.43499" lon="3.69094">
        <ele>1552.7</ele>
      </trkpt>
      <trkpt lat="44.43502" lon="3.69089">
        <ele>1552.5</ele>
      </trkpt>
      <trkpt lat="44.43507" lon="3.69074">
        <ele>1551.7</ele>
      </trkpt>
      <trkpt lat="44.43519" lon="3.69045">
        <ele>1550.5</ele>
      </trkpt>
      <trkpt lat="44.43531" lon="3.69018">
        <ele>1549.3</ele>
      </trkpt>
      <trkpt lat="44.43545" lon="3.68987">
        <ele>1548</ele>
      </trkpt>
      <trkpt lat="44.43545" lon="3.68986">
        <ele>1547.9</ele>
      </trkpt>
      <trkpt lat="44.4356" lon="3.68951">
        <ele>1546.5</ele>
      </trkpt>
      <trkpt lat="44.43572" lon="3.6892">
        <ele>1545.1</ele>
      </trkpt>
      <trkpt lat="44.43584" lon="3.68891">
        <ele>1544.1</ele>
      </trkpt>
      <trkpt lat="44.43599" lon="3.68854">
        <ele>1541.8</ele>
      </trkpt>
      <trkpt lat="44.43607" lon="3.68834">
        <ele>1540.6</ele>
      </trkpt>
      <trkpt lat="44.4361" lon="3.68828">
        <ele>1540.4</ele>
      </trkpt>
      <trkpt lat="44.43612" lon="3.68825">
        <ele>1540.3</ele>
      </trkpt>
      <trkpt lat="44.43628" lon="3.68807">
        <ele>1539.3</ele>
      </trkpt>
      <trkpt lat="44.43624" lon="3.68788">
        <ele>1539.6</ele>
      </trkpt>
      <trkpt lat="44.43621" lon="3.68772">
        <ele>1539.9</ele>
      </trkpt>
      <trkpt lat="44.43613" lon="3.6873">
        <ele>1545.211494</ele>
        <time>2019-10-07T05:44:37.180Z</time>
      </trkpt>
      <trkpt lat="44.43628" lon="3.68522">
        <ele>1547.847851</ele>
        <time>2019-10-07T05:46:51.521Z</time>
      </trkpt>
      <trkpt lat="44.4364" lon="3.68429">
        <ele>1549.415477</ele>
        <time>2019-10-07T05:47:54.716Z</time>
      </trkpt>
      <trkpt lat="44.43635" lon="3.68378">
        <ele>1550.266306</ele>
        <time>2019-10-07T05:48:28.575Z</time>
      </trkpt>
      <trkpt lat="44.43606" lon="3.68268">
        <ele>1551.966775</ele>
        <time>2019-10-07T05:49:44.118Z</time>
      </trkpt>
      <trkpt lat="44.4359" lon="3.68232">
        <ele>1552.337376</ele>
        <time>2019-10-07T05:50:10.829Z</time>
      </trkpt>
      <trkpt lat="44.4351" lon="3.6812">
        <ele>1553.698364</ele>
        <time>2019-10-07T05:51:45.810Z</time>
      </trkpt>
      <trkpt lat="44.43506" lon="3.68085">
        <ele>1553.96919</ele>
        <time>2019-10-07T05:52:07.089Z</time>
      </trkpt>
      <trkpt lat="44.43514" lon="3.68047">
        <ele>1554.210807</ele>
        <time>2019-10-07T05:52:30.466Z</time>
      </trkpt>
      <trkpt lat="44.43551" lon="3.67994">
        <ele>1554.659667</ele>
        <time>2019-10-07T05:53:14.311Z</time>
      </trkpt>
      <trkpt lat="44.43607" lon="3.67849">
        <ele>1555.368588</ele>
        <time>2019-10-07T05:54:54.346Z</time>
      </trkpt>
      <trkpt lat="44.43617" lon="3.67791">
        <ele>1555.303338</ele>
        <time>2019-10-07T05:55:28.754Z</time>
      </trkpt>
      <trkpt lat="44.43618" lon="3.67725">
        <ele>1555.23142</ele>
        <time>2019-10-07T05:56:05.928Z</time>
      </trkpt>
      <trkpt lat="44.43619" lon="3.67651">
        <ele>1555.15006</ele>
        <time>2019-10-07T05:56:46.832Z</time>
      </trkpt>
      <trkpt lat="44.43615" lon="3.67447">
        <ele>1553.253012</ele>
        <time>2019-10-07T05:58:36.784Z</time>
      </trkpt>
      <trkpt lat="44.43607" lon="3.67404">
        <ele>1552.820592</ele>
        <time>2019-10-07T05:59:00.917Z</time>
      </trkpt>
      <trkpt lat="44.43589" lon="3.67361">
        <ele>1552.48959</ele>
        <time>2019-10-07T05:59:27.908Z</time>
      </trkpt>
      <trkpt lat="44.43457" lon="3.6722">
        <ele>1551.109903</ele>
        <time>2019-10-07T06:01:37.096Z</time>
      </trkpt>
      <trkpt lat="44.43441" lon="3.67191">
        <ele>1550.702712</ele>
        <time>2019-10-07T06:01:57.721Z</time>
      </trkpt>
      <trkpt lat="44.4343" lon="3.67147">
        <ele>1550.195983</ele>
        <time>2019-10-07T06:02:23.286Z</time>
      </trkpt>
      <trkpt lat="44.43407" lon="3.6696">
        <ele>1547.555638</ele>
        <time>2019-10-07T06:04:04.445Z</time>
      </trkpt>
      <trkpt lat="44.4336" lon="3.66904">
        <ele>1545.411937</ele>
        <time>2019-10-07T06:04:23.262Z</time>
      </trkpt>
      <trkpt lat="44.43146" lon="3.66661">
        <ele>1534.478819</ele>
        <time>2019-10-07T06:05:44.999Z</time>
      </trkpt>
      <trkpt lat="44.43124" lon="3.66601">
        <ele>1531.497536</ele>
        <time>2019-10-07T06:05:59.101Z</time>
      </trkpt>
      <trkpt lat="44.43103" lon="3.6656">
        <ele>1529.22156</ele>
        <time>2019-10-07T06:06:09.810Z</time>
      </trkpt>
      <trkpt lat="44.43075" lon="3.66529">
        <ele>1526.978806</ele>
        <time>2019-10-07T06:06:19.605Z</time>
      </trkpt>
      <trkpt lat="44.43054" lon="3.66525">
        <ele>1525.660931</ele>
        <time>2019-10-07T06:06:25.285Z</time>
      </trkpt>
      <trkpt lat="44.42969" lon="3.66558">
        <ele>1517.751457</ele>
        <time>2019-10-07T06:06:48.307Z</time>
      </trkpt>
      <trkpt lat="44.42947" lon="3.66577">
        <ele>1515.040416</ele>
        <time>2019-10-07T06:06:54.958Z</time>
      </trkpt>
      <trkpt lat="44.42935" lon="3.66575">
        <ele>1513.727174</ele>
        <time>2019-10-07T06:06:57.998Z</time>
      </trkpt>
      <trkpt lat="44.42925" lon="3.66578">
        <ele>1512.655331</ele>
        <time>2019-10-07T06:07:00.612Z</time>
      </trkpt>
      <trkpt lat="44.42761" lon="3.66554">
        <ele>1495.199239</ele>
        <time>2019-10-07T06:07:41.833Z</time>
      </trkpt>
      <trkpt lat="44.42738" lon="3.66544">
        <ele>1492.703806</ele>
        <time>2019-10-07T06:07:47.890Z</time>
      </trkpt>
      <trkpt lat="44.42712" lon="3.66512">
        <ele>1489.045845</ele>
        <time>2019-10-07T06:07:56.874Z</time>
      </trkpt>
      <trkpt lat="44.42675" lon="3.66479">
        <ele>1484.710986</ele>
        <time>2019-10-07T06:08:08.467Z</time>
      </trkpt>
      <trkpt lat="44.42601" lon="3.66443">
        <ele>1479.009754</ele>
        <time>2019-10-07T06:08:29.458Z</time>
      </trkpt>
      <trkpt lat="44.42528" lon="3.66365">
        <ele>1472.326866</ele>
        <time>2019-10-07T06:08:54.959Z</time>
      </trkpt>
      <trkpt lat="44.42515" lon="3.66343">
        <ele>1471.081135</ele>
        <time>2019-10-07T06:09:00.664Z</time>
      </trkpt>
      <trkpt lat="44.42502" lon="3.66339">
        <ele>1470.311066</ele>
        <time>2019-10-07T06:09:04.291Z</time>
      </trkpt>
      <trkpt lat="44.42493" lon="3.66341">
        <ele>1469.746184</ele>
        <time>2019-10-07T06:09:06.870Z</time>
      </trkpt>
      <trkpt lat="44.42484" lon="3.66329">
        <ele>1469.014745</ele>
        <time>2019-10-07T06:09:10.238Z</time>
      </trkpt>
      <trkpt lat="44.42338" lon="3.66169">
        <ele>1456.823211</ele>
        <time>2019-10-07T06:10:01.916Z</time>
      </trkpt>
      <trkpt lat="44.42283" lon="3.66132">
        <ele>1452.17007</ele>
        <time>2019-10-07T06:10:18.516Z</time>
      </trkpt>
      <trkpt lat="44.42248" lon="3.66124">
        <ele>1449.523979</ele>
        <time>2019-10-07T06:10:27.806Z</time>
      </trkpt>
      <trkpt lat="44.42178" lon="3.66133">
        <ele>1443.480539</ele>
        <time>2019-10-07T06:10:46.291Z</time>
      </trkpt>
      <trkpt lat="44.42144" lon="3.66145">
        <ele>1440.360871</ele>
        <time>2019-10-07T06:10:55.288Z</time>
      </trkpt>
      <trkpt lat="44.42102" lon="3.66169">
        <ele>1436.270166</ele>
        <time>2019-10-07T06:11:07.078Z</time>
      </trkpt>
      <trkpt lat="44.42056" lon="3.66201">
        <ele>1431.6547</ele>
        <time>2019-10-07T06:11:20.526Z</time>
      </trkpt>
      <trkpt lat="44.42005" lon="3.6625">
        <ele>1427.008932</ele>
        <time>2019-10-07T06:11:37.048Z</time>
      </trkpt>
      <trkpt lat="44.41969" lon="3.6629">
        <ele>1423.608091</ele>
        <time>2019-10-07T06:11:49.124Z</time>
      </trkpt>
      <trkpt lat="44.41889" lon="3.66432">
        <ele>1415.696831</ele>
        <time>2019-10-07T06:12:25.338Z</time>
      </trkpt>
      <trkpt lat="44.41886" lon="3.66432">
        <ele>1415.552898</ele>
        <time>2019-10-07T06:12:26.119Z</time>
      </trkpt>
      <trkpt lat="44.41883" lon="3.6643">
        <ele>1415.406608</ele>
        <time>2019-10-07T06:12:27.115Z</time>
      </trkpt>
      <trkpt lat="44.41907" lon="3.66326">
        <ele>1411.983471</ele>
        <time>2019-10-07T06:12:50.627Z</time>
      </trkpt>
      <trkpt lat="44.42015" lon="3.65958">
        <ele>1405.90133</ele>
        <time>2019-10-07T06:14:23.755Z</time>
      </trkpt>
      <trkpt lat="44.42024" lon="3.6586">
        <ele>1404.967896</ele>
        <time>2019-10-07T06:14:48.100Z</time>
      </trkpt>
      <trkpt lat="44.42028" lon="3.65712">
        <ele>1404.036676</ele>
        <time>2019-10-07T06:15:25.039Z</time>
      </trkpt>
      <trkpt lat="44.42035" lon="3.65675">
        <ele>1403.873211</ele>
        <time>2019-10-07T06:15:34.962Z</time>
      </trkpt>
      <trkpt lat="44.42198" lon="3.65437">
        <ele>1401.95164</ele>
        <time>2019-10-07T06:16:59.130Z</time>
      </trkpt>
      <trkpt lat="44.42236" lon="3.65368">
        <ele>1400.738027</ele>
        <time>2019-10-07T06:17:19.136Z</time>
      </trkpt>
      <trkpt lat="44.4227" lon="3.65268">
        <ele>1398.2662</ele>
        <time>2019-10-07T06:17:43.844Z</time>
      </trkpt>
      <trkpt lat="44.42275" lon="3.65239">
        <ele>1397.586932</ele>
        <time>2019-10-07T06:17:50.596Z</time>
      </trkpt>
      <trkpt lat="44.4228" lon="3.65243">
        <ele>1397.41703</ele>
        <time>2019-10-07T06:17:52.029Z</time>
      </trkpt>
      <trkpt lat="44.42296" lon="3.65288">
        <ele>1396.278634</ele>
        <time>2019-10-07T06:18:02.865Z</time>
      </trkpt>
      <trkpt lat="44.42323" lon="3.65345">
        <ele>1394.088873</ele>
        <time>2019-10-07T06:18:17.256Z</time>
      </trkpt>
      <trkpt lat="44.42347" lon="3.65331">
        <ele>1392.817791</ele>
        <time>2019-10-07T06:18:24.784Z</time>
      </trkpt>
      <trkpt lat="44.42466" lon="3.65002">
        <ele>1379.256991</ele>
        <time>2019-10-07T06:19:40.617Z</time>
      </trkpt>
      <trkpt lat="44.42517" lon="3.64918">
        <ele>1374.104987</ele>
        <time>2019-10-07T06:20:02.585Z</time>
      </trkpt>
      <trkpt lat="44.42677" lon="3.64541">
        <ele>1350.355606</ele>
        <time>2019-10-07T06:21:26.584Z</time>
      </trkpt>
      <trkpt lat="44.4273" lon="3.64383">
        <ele>1340.820202</ele>
        <time>2019-10-07T06:22:00.003Z</time>
      </trkpt>
      <trkpt lat="44.42747" lon="3.6429">
        <ele>1335.730659</ele>
        <time>2019-10-07T06:22:18.742Z</time>
      </trkpt>
      <trkpt lat="44.42766" lon="3.64218">
        <ele>1332.168949</ele>
        <time>2019-10-07T06:22:33.871Z</time>
      </trkpt>
      <trkpt lat="44.42764" lon="3.64154">
        <ele>1329.157008</ele>
        <time>2019-10-07T06:22:46.744Z</time>
      </trkpt>
      <trkpt lat="44.42745" lon="3.64051">
        <ele>1323.957612</ele>
        <time>2019-10-07T06:23:07.884Z</time>
      </trkpt>
      <trkpt lat="44.42724" lon="3.64015">
        <ele>1321.146657</ele>
        <time>2019-10-07T06:23:16.891Z</time>
      </trkpt>
      <trkpt lat="44.42656" lon="3.63936">
        <ele>1313.633648</ele>
        <time>2019-10-07T06:23:40.315Z</time>
      </trkpt>
      <trkpt lat="44.42643" lon="3.63902">
        <ele>1311.244682</ele>
        <time>2019-10-07T06:23:47.550Z</time>
      </trkpt>
      <trkpt lat="44.42634" lon="3.63827">
        <ele>1305.78601</ele>
        <time>2019-10-07T06:24:01.386Z</time>
      </trkpt>
      <trkpt lat="44.42615" lon="3.6378">
        <ele>1301.656831</ele>
        <time>2019-10-07T06:24:10.908Z</time>
      </trkpt>
      <trkpt lat="44.42597" lon="3.63672">
        <ele>1292.972683</ele>
        <time>2019-10-07T06:24:31.049Z</time>
      </trkpt>
      <trkpt lat="44.42594" lon="3.63634">
        <ele>1290.014507</ele>
        <time>2019-10-07T06:24:38.131Z</time>
      </trkpt>
      <trkpt lat="44.42593" lon="3.63634">
        <ele>1281</ele>
      </trkpt>
      <trkpt lat="44.42593" lon="3.63633">
        <ele>1280.9</ele>
      </trkpt>
      <trkpt lat="44.42597" lon="3.63625">
        <ele>1280.9</ele>
      </trkpt>
      <trkpt lat="44.42605" lon="3.6361">
        <ele>1281.2</ele>
      </trkpt>
      <trkpt lat="44.42606" lon="3.63602">
        <ele>1281</ele>
      </trkpt>
      <trkpt lat="44.42608" lon="3.63591">
        <ele>1280.5</ele>
      </trkpt>
      <trkpt lat="44.42609" lon="3.63566">
        <ele>1281</ele>
      </trkpt>
      <trkpt lat="44.42612" lon="3.63566">
        <ele>1281.6</ele>
      </trkpt>
      <trkpt lat="44.42613" lon="3.63565">
        <ele>1281.8</ele>
      </trkpt>
      <trkpt lat="44.42616" lon="3.6356">
        <ele>1282.3</ele>
      </trkpt>
      <trkpt lat="44.42617" lon="3.6355">
        <ele>1283</ele>
      </trkpt>
      <trkpt lat="44.42618" lon="3.63544">
        <ele>1283.4</ele>
      </trkpt>
      <trkpt lat="44.42617" lon="3.63538">
        <ele>1283.5</ele>
      </trkpt>
      <trkpt lat="44.42612" lon="3.63525">
        <ele>1283.2</ele>
      </trkpt>
      <trkpt lat="44.42604" lon="3.63512">
        <ele>1282.3</ele>
      </trkpt>
      <trkpt lat="44.42602" lon="3.63505">
        <ele>1282.2</ele>
      </trkpt>
      <trkpt lat="44.42601" lon="3.63499">
        <ele>1282.3</ele>
      </trkpt>
      <trkpt lat="44.42598" lon="3.63492">
        <ele>1282.4</ele>
      </trkpt>
      <trkpt lat="44.42594" lon="3.63485">
        <ele>1282.3</ele>
      </trkpt>
      <trkpt lat="44.4259" lon="3.63477">
        <ele>1282</ele>
      </trkpt>
      <trkpt lat="44.42583" lon="3.6347">
        <ele>1281.4</ele>
      </trkpt>
      <trkpt lat="44.42578" lon="3.63464">
        <ele>1281.3</ele>
      </trkpt>
      <trkpt lat="44.42573" lon="3.63455">
        <ele>1281.4</ele>
      </trkpt>
      <trkpt lat="44.42573" lon="3.63454">
        <ele>1281.4</ele>
      </trkpt>
      <trkpt lat="44.4257" lon="3.63444">
        <ele>1281.6</ele>
      </trkpt>
      <trkpt lat="44.42566" lon="3.63433">
        <ele>1281.7</ele>
      </trkpt>
      <trkpt lat="44.4256" lon="3.63424">
        <ele>1281.4</ele>
      </trkpt>
      <trkpt lat="44.42555" lon="3.63412">
        <ele>1280.9</ele>
      </trkpt>
      <trkpt lat="44.42552" lon="3.634">
        <ele>1280.3</ele>
      </trkpt>
      <trkpt lat="44.4255" lon="3.63379">
        <ele>1279.9</ele>
      </trkpt>
      <trkpt lat="44.42551" lon="3.63362">
        <ele>1280</ele>
      </trkpt>
      <trkpt lat="44.42555" lon="3.63335">
        <ele>1280.6</ele>
      </trkpt>
      <trkpt lat="44.42561" lon="3.63307">
        <ele>1279.6</ele>
      </trkpt>
      <trkpt lat="44.42564" lon="3.63289">
        <ele>1278.7</ele>
      </trkpt>
      <trkpt lat="44.42566" lon="3.6328">
        <ele>1278.3</ele>
      </trkpt>
      <trkpt lat="44.42576" lon="3.63248">
        <ele>1277</ele>
      </trkpt>
      <trkpt lat="44.42584" lon="3.63225">
        <ele>1276.3</ele>
      </trkpt>
      <trkpt lat="44.42594" lon="3.63202">
        <ele>1275.8</ele>
      </trkpt>
      <trkpt lat="44.42602" lon="3.63189">
        <ele>1275.4</ele>
      </trkpt>
      <trkpt lat="44.42611" lon="3.63177">
        <ele>1275.3</ele>
      </trkpt>
      <trkpt lat="44.42619" lon="3.6317">
        <ele>1275.3</ele>
      </trkpt>
      <trkpt lat="44.42623" lon="3.63165">
        <ele>1275.2</ele>
      </trkpt>
      <trkpt lat="44.42631" lon="3.63157">
        <ele>1275.3</ele>
      </trkpt>
      <trkpt lat="44.42661" lon="3.6313">
        <ele>1275.1</ele>
      </trkpt>
      <trkpt lat="44.42678" lon="3.63118">
        <ele>1275.1</ele>
      </trkpt>
      <trkpt lat="44.427" lon="3.63103">
        <ele>1274.9</ele>
      </trkpt>
      <trkpt lat="44.42727" lon="3.63089">
        <ele>1274.7</ele>
      </trkpt>
      <trkpt lat="44.42741" lon="3.63081">
        <ele>1274.4</ele>
      </trkpt>
      <trkpt lat="44.42743" lon="3.63079">
        <ele>1274.3</ele>
      </trkpt>
      <trkpt lat="44.42751" lon="3.63072">
        <ele>1274.2</ele>
      </trkpt>
      <trkpt lat="44.42774" lon="3.63054">
        <ele>1274.2</ele>
      </trkpt>
      <trkpt lat="44.42791" lon="3.63041">
        <ele>1273.8</ele>
      </trkpt>
      <trkpt lat="44.4281" lon="3.63021">
        <ele>1272.2</ele>
      </trkpt>
      <trkpt lat="44.42835" lon="3.62994">
        <ele>1269.5</ele>
      </trkpt>
      <trkpt lat="44.42852" lon="3.62975">
        <ele>1268.8</ele>
      </trkpt>
      <trkpt lat="44.42868" lon="3.62956">
        <ele>1267.9</ele>
      </trkpt>
      <trkpt lat="44.42882" lon="3.62935">
        <ele>1266.3</ele>
      </trkpt>
      <trkpt lat="44.42892" lon="3.62923">
        <ele>1265.4</ele>
      </trkpt>
      <trkpt lat="44.42901" lon="3.62916">
        <ele>1265</ele>
      </trkpt>
      <trkpt lat="44.42911" lon="3.6291">
        <ele>1264.8</ele>
      </trkpt>
      <trkpt lat="44.42928" lon="3.62901">
        <ele>1265.1</ele>
      </trkpt>
      <trkpt lat="44.42932" lon="3.629">
        <ele>1265.2</ele>
      </trkpt>
      <trkpt lat="44.42944" lon="3.62893">
        <ele>1265.2</ele>
      </trkpt>
      <trkpt lat="44.42953" lon="3.62886">
        <ele>1265</ele>
      </trkpt>
      <trkpt lat="44.42973" lon="3.62865">
        <ele>1263.7</ele>
      </trkpt>
      <trkpt lat="44.43" lon="3.62842">
        <ele>1262.3</ele>
      </trkpt>
      <trkpt lat="44.4301" lon="3.62833">
        <ele>1261.6</ele>
      </trkpt>
      <trkpt lat="44.43016" lon="3.62826">
        <ele>1261.3</ele>
      </trkpt>
      <trkpt lat="44.4302" lon="3.62819">
        <ele>1260.9</ele>
      </trkpt>
      <trkpt lat="44.43026" lon="3.628">
        <ele>1259.7</ele>
      </trkpt>
      <trkpt lat="44.43029" lon="3.62792">
        <ele>1259.1</ele>
      </trkpt>
      <trkpt lat="44.43035" lon="3.62784">
        <ele>1258.7</ele>
      </trkpt>
      <trkpt lat="44.43044" lon="3.62775">
        <ele>1258.4</ele>
      </trkpt>
      <trkpt lat="44.43066" lon="3.62757">
        <ele>1257.8</ele>
      </trkpt>
      <trkpt lat="44.43081" lon="3.62747">
        <ele>1257.9</ele>
      </trkpt>
      <trkpt lat="44.43091" lon="3.62743">
        <ele>1258.5</ele>
      </trkpt>
      <trkpt lat="44.43112" lon="3.62738">
        <ele>1259.7</ele>
      </trkpt>
      <trkpt lat="44.43126" lon="3.62737">
        <ele>1260.4</ele>
      </trkpt>
      <trkpt lat="44.43129" lon="3.62736">
        <ele>1260.6</ele>
      </trkpt>
      <trkpt lat="44.43132" lon="3.62734">
        <ele>1260.8</ele>
      </trkpt>
      <trkpt lat="44.43137" lon="3.62731">
        <ele>1261.2</ele>
      </trkpt>
      <trkpt lat="44.4314" lon="3.62729">
        <ele>1261.4</ele>
      </trkpt>
      <trkpt lat="44.43144" lon="3.62725">
        <ele>1261.7</ele>
      </trkpt>
      <trkpt lat="44.43143" lon="3.62715">
        <ele>1262</ele>
      </trkpt>
      <trkpt lat="44.43142" lon="3.62708">
        <ele>1262.2</ele>
      </trkpt>
      <trkpt lat="44.4314" lon="3.62706">
        <ele>1262.1</ele>
      </trkpt>
      <trkpt lat="44.4314" lon="3.62706">
        <ele>1262.1</ele>
      </trkpt>
      <trkpt lat="44.43137" lon="3.62704">
        <ele>1262</ele>
      </trkpt>
      <trkpt lat="44.4313" lon="3.627">
        <ele>1261.8</ele>
      </trkpt>
      <trkpt lat="44.43126" lon="3.62692">
        <ele>1261.8</ele>
      </trkpt>
      <trkpt lat="44.43122" lon="3.62681">
        <ele>1261.9</ele>
      </trkpt>
      <trkpt lat="44.43136" lon="3.62677">
        <ele>1262.8</ele>
      </trkpt>
      <trkpt lat="44.43122" lon="3.62681">
        <ele>1261.9</ele>
      </trkpt>
      <trkpt lat="44.43119" lon="3.62675">
        <ele>1261.9</ele>
      </trkpt>
      <trkpt lat="44.43112" lon="3.62663">
        <ele>1262.1</ele>
      </trkpt>
      <trkpt lat="44.43107" lon="3.62659">
        <ele>1262.4</ele>
      </trkpt>
      <trkpt lat="44.431" lon="3.62653">
        <ele>1262.7</ele>
      </trkpt>
      <trkpt lat="44.43093" lon="3.6265">
        <ele>1262.7</ele>
      </trkpt>
      <trkpt lat="44.43087" lon="3.62648">
        <ele>1262.6</ele>
      </trkpt>
      <trkpt lat="44.43074" lon="3.62648">
        <ele>1262</ele>
      </trkpt>
      <trkpt lat="44.43053" lon="3.62647">
        <ele>1261.2</ele>
      </trkpt>
      <trkpt lat="44.43041" lon="3.62647">
        <ele>1260.7</ele>
      </trkpt>
      <trkpt lat="44.43034" lon="3.62651">
        <ele>1259.8</ele>
      </trkpt>
      <trkpt lat="44.43019" lon="3.62659">
        <ele>1257.9</ele>
      </trkpt>
      <trkpt lat="44.43007" lon="3.62667">
        <ele>1256.3</ele>
      </trkpt>
      <trkpt lat="44.42994" lon="3.62671">
        <ele>1255.7</ele>
      </trkpt>
      <trkpt lat="44.42983" lon="3.62675">
        <ele>1255.3</ele>
      </trkpt>
      <trkpt lat="44.42977" lon="3.62675">
        <ele>1255.1</ele>
      </trkpt>
      <trkpt lat="44.42973" lon="3.62674">
        <ele>1255.1</ele>
      </trkpt>
      <trkpt lat="44.42953" lon="3.62663">
        <ele>1255.3</ele>
      </trkpt>
      <trkpt lat="44.42941" lon="3.62661">
        <ele>1255.3</ele>
      </trkpt>
      <trkpt lat="44.42919" lon="3.62661">
        <ele>1254.7</ele>
      </trkpt>
      <trkpt lat="44.42906" lon="3.62658">
        <ele>1254.2</ele>
      </trkpt>
      <trkpt lat="44.4289" lon="3.62653">
        <ele>1253.8</ele>
      </trkpt>
      <trkpt lat="44.42875" lon="3.62652">
        <ele>1252.9</ele>
      </trkpt>
      <trkpt lat="44.42852" lon="3.62649">
        <ele>1251.7</ele>
      </trkpt>
      <trkpt lat="44.42838" lon="3.62644">
        <ele>1251.2</ele>
      </trkpt>
      <trkpt lat="44.42833" lon="3.62644">
        <ele>1250.9</ele>
      </trkpt>
      <trkpt lat="44.42823" lon="3.62641">
        <ele>1249.9</ele>
      </trkpt>
      <trkpt lat="44.42816" lon="3.62637">
        <ele>1249.5</ele>
      </trkpt>
      <trkpt lat="44.4281" lon="3.62631">
        <ele>1249.2</ele>
      </trkpt>
      <trkpt lat="44.42799" lon="3.62619">
        <ele>1248.5</ele>
      </trkpt>
      <trkpt lat="44.42783" lon="3.62604">
        <ele>1247.1</ele>
      </trkpt>
      <trkpt lat="44.42777" lon="3.62597">
        <ele>1246.6</ele>
      </trkpt>
      <trkpt lat="44.4277" lon="3.62585">
        <ele>1246.1</ele>
      </trkpt>
      <trkpt lat="44.42756" lon="3.62556">
        <ele>1244.7</ele>
      </trkpt>
      <trkpt lat="44.42752" lon="3.62542">
        <ele>1244.4</ele>
      </trkpt>
      <trkpt lat="44.42751" lon="3.6253">
        <ele>1244.4</ele>
      </trkpt>
      <trkpt lat="44.42751" lon="3.62517">
        <ele>1244.7</ele>
      </trkpt>
      <trkpt lat="44.42753" lon="3.62491">
        <ele>1245.4</ele>
      </trkpt>
      <trkpt lat="44.42753" lon="3.62433">
        <ele>1245.4</ele>
      </trkpt>
      <trkpt lat="44.42752" lon="3.62396">
        <ele>1245.3</ele>
      </trkpt>
      <trkpt lat="44.4275" lon="3.62375">
        <ele>1245</ele>
      </trkpt>
      <trkpt lat="44.42746" lon="3.62351">
        <ele>1244.6</ele>
      </trkpt>
      <trkpt lat="44.4274" lon="3.62328">
        <ele>1244</ele>
      </trkpt>
      <trkpt lat="44.42735" lon="3.62319">
        <ele>1243.7</ele>
      </trkpt>
      <trkpt lat="44.4273" lon="3.62317">
        <ele>1243.2</ele>
      </trkpt>
      <trkpt lat="44.42724" lon="3.62316">
        <ele>1242.5</ele>
      </trkpt>
      <trkpt lat="44.42715" lon="3.62318">
        <ele>1241.5</ele>
      </trkpt>
      <trkpt lat="44.42706" lon="3.62321">
        <ele>1240.4</ele>
      </trkpt>
      <trkpt lat="44.42702" lon="3.62321">
        <ele>1239.9</ele>
      </trkpt>
      <trkpt lat="44.42698" lon="3.62319">
        <ele>1239.5</ele>
      </trkpt>
      <trkpt lat="44.42696" lon="3.62315">
        <ele>1239.3</ele>
      </trkpt>
      <trkpt lat="44.42693" lon="3.62306">
        <ele>1239.1</ele>
      </trkpt>
      <trkpt lat="44.42692" lon="3.62289">
        <ele>1239</ele>
      </trkpt>
      <trkpt lat="44.42689" lon="3.62268">
        <ele>1238.8</ele>
      </trkpt>
      <trkpt lat="44.42685" lon="3.62258">
        <ele>1238.4</ele>
      </trkpt>
      <trkpt lat="44.42681" lon="3.62253">
        <ele>1237.9</ele>
      </trkpt>
      <trkpt lat="44.42678" lon="3.62252">
        <ele>1237.5</ele>
      </trkpt>
      <trkpt lat="44.42673" lon="3.62252">
        <ele>1236.8</ele>
      </trkpt>
      <trkpt lat="44.42667" lon="3.62255">
        <ele>1236.1</ele>
      </trkpt>
      <trkpt lat="44.42652" lon="3.62264">
        <ele>1234.7</ele>
      </trkpt>
      <trkpt lat="44.42632" lon="3.62277">
        <ele>1233.1</ele>
      </trkpt>
      <trkpt lat="44.42603" lon="3.62303">
        <ele>1231.3</ele>
      </trkpt>
      <trkpt lat="44.42597" lon="3.62305">
        <ele>1231</ele>
      </trkpt>
      <trkpt lat="44.42591" lon="3.62305">
        <ele>1230.5</ele>
      </trkpt>
      <trkpt lat="44.42587" lon="3.62303">
        <ele>1230.2</ele>
      </trkpt>
      <trkpt lat="44.42585" lon="3.623">
        <ele>1229.9</ele>
      </trkpt>
      <trkpt lat="44.42583" lon="3.62293">
        <ele>1229.5</ele>
      </trkpt>
      <trkpt lat="44.4258" lon="3.62273">
        <ele>1228.6</ele>
      </trkpt>
      <trkpt lat="44.42577" lon="3.62248">
        <ele>1227.6</ele>
      </trkpt>
      <trkpt lat="44.4257" lon="3.62202">
        <ele>1226.1</ele>
      </trkpt>
      <trkpt lat="44.42568" lon="3.62183">
        <ele>1225.5</ele>
      </trkpt>
      <trkpt lat="44.42567" lon="3.62159">
        <ele>1225</ele>
      </trkpt>
      <trkpt lat="44.42568" lon="3.62149">
        <ele>1225</ele>
      </trkpt>
      <trkpt lat="44.42571" lon="3.62143">
        <ele>1225.1</ele>
      </trkpt>
      <trkpt lat="44.42575" lon="3.62135">
        <ele>1225.2</ele>
      </trkpt>
      <trkpt lat="44.42577" lon="3.62131">
        <ele>1225.2</ele>
      </trkpt>
      <trkpt lat="44.4258" lon="3.62122">
        <ele>1225.3</ele>
      </trkpt>
      <trkpt lat="44.42585" lon="3.62103">
        <ele>1225.3</ele>
      </trkpt>
      <trkpt lat="44.42588" lon="3.6208">
        <ele>1225.5</ele>
      </trkpt>
      <trkpt lat="44.4259" lon="3.62065">
        <ele>1226.3</ele>
      </trkpt>
      <trkpt lat="44.42589" lon="3.62051">
        <ele>1226.8</ele>
      </trkpt>
      <trkpt lat="44.42588" lon="3.62031">
        <ele>1227.7</ele>
      </trkpt>
      <trkpt lat="44.42585" lon="3.62017">
        <ele>1228.2</ele>
      </trkpt>
      <trkpt lat="44.42579" lon="3.62005">
        <ele>1228.7</ele>
      </trkpt>
      <trkpt lat="44.42567" lon="3.6198">
        <ele>1230.1</ele>
      </trkpt>
      <trkpt lat="44.42554" lon="3.61946">
        <ele>1232.4</ele>
      </trkpt>
      <trkpt lat="44.42548" lon="3.6193">
        <ele>1233.5</ele>
      </trkpt>
      <trkpt lat="44.42535" lon="3.61903">
        <ele>1235.2</ele>
      </trkpt>
      <trkpt lat="44.42526" lon="3.61876">
        <ele>1236.4</ele>
      </trkpt>
      <trkpt lat="44.42521" lon="3.61863">
        <ele>1237</ele>
      </trkpt>
      <trkpt lat="44.42518" lon="3.61856">
        <ele>1237.3</ele>
      </trkpt>
      <trkpt lat="44.42508" lon="3.61847">
        <ele>1237.6</ele>
      </trkpt>
      <trkpt lat="44.425" lon="3.61844">
        <ele>1237.6</ele>
      </trkpt>
      <trkpt lat="44.42495" lon="3.61839">
        <ele>1237</ele>
      </trkpt>
      <trkpt lat="44.42492" lon="3.61834">
        <ele>1236.7</ele>
      </trkpt>
      <trkpt lat="44.42489" lon="3.61821">
        <ele>1235.6</ele>
      </trkpt>
      <trkpt lat="44.42487" lon="3.61803">
        <ele>1234.8</ele>
      </trkpt>
      <trkpt lat="44.42486" lon="3.61791">
        <ele>1234.3</ele>
      </trkpt>
      <trkpt lat="44.42486" lon="3.61783">
        <ele>1234.1</ele>
      </trkpt>
      <trkpt lat="44.42489" lon="3.61751">
        <ele>1233.5</ele>
      </trkpt>
      <trkpt lat="44.42491" lon="3.61719">
        <ele>1232.9</ele>
      </trkpt>
      <trkpt lat="44.42496" lon="3.61712">
        <ele>1233.5</ele>
      </trkpt>
      <trkpt lat="44.42506" lon="3.61696">
        <ele>1234</ele>
      </trkpt>
      <trkpt lat="44.42516" lon="3.61681">
        <ele>1234.2</ele>
      </trkpt>
      <trkpt lat="44.42522" lon="3.61667">
        <ele>1234.3</ele>
      </trkpt>
      <trkpt lat="44.42528" lon="3.61639">
        <ele>1234.8</ele>
      </trkpt>
      <trkpt lat="44.4253" lon="3.61618">
        <ele>1235.1</ele>
      </trkpt>
      <trkpt lat="44.42534" lon="3.61608">
        <ele>1235.5</ele>
      </trkpt>
      <trkpt lat="44.42539" lon="3.616">
        <ele>1236.1</ele>
      </trkpt>
      <trkpt lat="44.42545" lon="3.61589">
        <ele>1236.8</ele>
      </trkpt>
      <trkpt lat="44.42555" lon="3.61561">
        <ele>1238.5</ele>
      </trkpt>
      <trkpt lat="44.42564" lon="3.61536">
        <ele>1240.3</ele>
      </trkpt>
      <trkpt lat="44.42574" lon="3.61517">
        <ele>1242.2</ele>
      </trkpt>
      <trkpt lat="44.42583" lon="3.61497">
        <ele>1244</ele>
      </trkpt>
      <trkpt lat="44.42593" lon="3.61472">
        <ele>1245.1</ele>
      </trkpt>
      <trkpt lat="44.42609" lon="3.61441">
        <ele>1241.347205</ele>
        <time>2019-10-07T06:34:50.818Z</time>
      </trkpt>
      <trkpt lat="44.42627" lon="3.61407">
        <ele>1243.034246</ele>
        <time>2019-10-07T06:35:06.132Z</time>
      </trkpt>
      <trkpt lat="44.42662" lon="3.61359">
        <ele>1245.743197</ele>
        <time>2019-10-07T06:35:29.701Z</time>
      </trkpt>
      <trkpt lat="44.42751" lon="3.61217">
        <ele>1251.082442</ele>
        <time>2019-10-07T06:36:31.665Z</time>
      </trkpt>
      <trkpt lat="44.42776" lon="3.61178">
        <ele>1252.496408</ele>
        <time>2019-10-07T06:36:46.425Z</time>
      </trkpt>
      <trkpt lat="44.42884" lon="3.60902">
        <ele>1256.032466</ele>
        <time>2019-10-07T06:37:55.212Z</time>
      </trkpt>
      <trkpt lat="44.42907" lon="3.6087">
        <ele>1255.915735</ele>
        <time>2019-10-07T06:38:02.647Z</time>
      </trkpt>
      <trkpt lat="44.42935" lon="3.60788">
        <ele>1255.679553</ele>
        <time>2019-10-07T06:38:16.989Z</time>
      </trkpt>
      <trkpt lat="44.42961" lon="3.60736">
        <ele>1255.512675</ele>
        <time>2019-10-07T06:38:26.518Z</time>
      </trkpt>
      <trkpt lat="44.43005" lon="3.60667">
        <ele>1254.185329</ele>
        <time>2019-10-07T06:38:39.395Z</time>
      </trkpt>
      <trkpt lat="44.43009" lon="3.60658">
        <ele>1253.981976</ele>
        <time>2019-10-07T06:38:40.916Z</time>
      </trkpt>
      <trkpt lat="44.43014" lon="3.60649">
        <ele>1253.758529</ele>
        <time>2019-10-07T06:38:42.402Z</time>
      </trkpt>
      <trkpt lat="44.43054" lon="3.60475">
        <ele>1250.085117</ele>
        <time>2019-10-07T06:39:06.070Z</time>
      </trkpt>
      <trkpt lat="44.43098" lon="3.60323">
        <ele>1245.361138</ele>
        <time>2019-10-07T06:39:26.151Z</time>
      </trkpt>
      <trkpt lat="44.43103" lon="3.60266">
        <ele>1243.720142</ele>
        <time>2019-10-07T06:39:33.104Z</time>
      </trkpt>
      <trkpt lat="44.43123" lon="3.60199">
        <ele>1241.705123</ele>
        <time>2019-10-07T06:39:42.076Z</time>
      </trkpt>
      <trkpt lat="44.4315" lon="3.60122">
        <ele>1239.3375</ele>
        <time>2019-10-07T06:39:52.749Z</time>
      </trkpt>
      <trkpt lat="44.43233" lon="3.59993">
        <ele>1234.09256</ele>
        <time>2019-10-07T06:40:14.829Z</time>
      </trkpt>
      <trkpt lat="44.43238" lon="3.59987">
        <ele>1233.794867</ele>
        <time>2019-10-07T06:40:15.870Z</time>
      </trkpt>
      <trkpt lat="44.4326" lon="3.59957">
        <ele>1232.311105</ele>
        <time>2019-10-07T06:40:21.041Z</time>
      </trkpt>
      <trkpt lat="44.43302" lon="3.59922">
        <ele>1229.959056</ele>
        <time>2019-10-07T06:40:29.212Z</time>
      </trkpt>
      <trkpt lat="44.43339" lon="3.59918">
        <ele>1228.14842</ele>
        <time>2019-10-07T06:40:35.310Z</time>
      </trkpt>
      <trkpt lat="44.43387" lon="3.59927">
        <ele>1224.536063</ele>
        <time>2019-10-07T06:40:42.979Z</time>
      </trkpt>
      <trkpt lat="44.43393" lon="3.59927">
        <ele>1224.054363</ele>
        <time>2019-10-07T06:40:43.947Z</time>
      </trkpt>
      <trkpt lat="44.43394" lon="3.59924">
        <ele>1223.835437</ele>
        <time>2019-10-07T06:40:44.328Z</time>
      </trkpt>
      <trkpt lat="44.43372" lon="3.59888">
        <ele>1221.124056</ele>
        <time>2019-10-07T06:40:49.811Z</time>
      </trkpt>
      <trkpt lat="44.43354" lon="3.59845">
        <ele>1218.342605</ele>
        <time>2019-10-07T06:40:55.184Z</time>
      </trkpt>
      <trkpt lat="44.43331" lon="3.59813">
        <ele>1215.80872</ele>
        <time>2019-10-07T06:41:00.010Z</time>
      </trkpt>
      <trkpt lat="44.43335" lon="3.59805">
        <ele>1215.231944</ele>
        <time>2019-10-07T06:41:01.046Z</time>
      </trkpt>
      <trkpt lat="44.43354" lon="3.59794">
        <ele>1213.614798</ele>
        <time>2019-10-07T06:41:04.478Z</time>
      </trkpt>
      <trkpt lat="44.43359" lon="3.59786">
        <ele>1213.10287</ele>
        <time>2019-10-07T06:41:05.537Z</time>
      </trkpt>
      <trkpt lat="44.43387" lon="3.59797">
        <ele>1211.145286</ele>
        <time>2019-10-07T06:41:10.062Z</time>
      </trkpt>
      <trkpt lat="44.43401" lon="3.59794">
        <ele>1210.173231</ele>
        <time>2019-10-07T06:41:12.208Z</time>
      </trkpt>
      <trkpt lat="44.43406" lon="3.59786">
        <ele>1209.661864</ele>
        <time>2019-10-07T06:41:13.532Z</time>
      </trkpt>
      <trkpt lat="44.43413" lon="3.59771">
        <ele>1208.820169</ele>
        <time>2019-10-07T06:41:15.680Z</time>
      </trkpt>
      <trkpt lat="44.43416" lon="3.59764">
        <ele>1208.427568</ele>
        <time>2019-10-07T06:41:16.492Z</time>
      </trkpt>
      <trkpt lat="44.43412" lon="3.59747">
        <ele>1207.561579</ele>
        <time>2019-10-07T06:41:18.651Z</time>
      </trkpt>
      <trkpt lat="44.4337" lon="3.59678">
        <ele>1203.232683</ele>
        <time>2019-10-07T06:41:28.946Z</time>
      </trkpt>
      <trkpt lat="44.43334" lon="3.59555">
        <ele>1197.693024</ele>
        <time>2019-10-07T06:41:44.979Z</time>
      </trkpt>
      <trkpt lat="44.43334" lon="3.59537">
        <ele>1197.008155</ele>
        <time>2019-10-07T06:41:47.391Z</time>
      </trkpt>
      <trkpt lat="44.43326" lon="3.59534">
        <ele>1196.536051</ele>
        <time>2019-10-07T06:41:49.653Z</time>
      </trkpt>
      <trkpt lat="44.43278" lon="3.59534">
        <ele>1193.912139</ele>
        <time>2019-10-07T06:42:03.778Z</time>
      </trkpt>
      <trkpt lat="44.43257" lon="3.59522">
        <ele>1192.668229</ele>
        <time>2019-10-07T06:42:10.336Z</time>
      </trkpt>
      <trkpt lat="44.43231" lon="3.59494">
        <ele>1190.200724</ele>
        <time>2019-10-07T06:42:19.166Z</time>
      </trkpt>
      <trkpt lat="44.43209" lon="3.59444">
        <ele>1185.935124</ele>
        <time>2019-10-07T06:42:30.061Z</time>
      </trkpt>
      <trkpt lat="44.43189" lon="3.59425">
        <ele>1183.512336</ele>
        <time>2019-10-07T06:42:36.290Z</time>
      </trkpt>
      <trkpt lat="44.43175" lon="3.59338">
        <ele>1177.003514</ele>
        <time>2019-10-07T06:42:52.658Z</time>
      </trkpt>
      <trkpt lat="44.43171" lon="3.59335">
        <ele>1176.611862</ele>
        <time>2019-10-07T06:42:53.592Z</time>
      </trkpt>
      <trkpt lat="44.43162" lon="3.59329">
        <ele>1175.536702</ele>
        <time>2019-10-07T06:42:56.089Z</time>
      </trkpt>
      <trkpt lat="44.4314" lon="3.59307">
        <ele>1172.54807</ele>
        <time>2019-10-07T06:43:03.020Z</time>
      </trkpt>
      <trkpt lat="44.43133" lon="3.5929">
        <ele>1170.613792</ele>
        <time>2019-10-07T06:43:06.384Z</time>
      </trkpt>
      <trkpt lat="44.43137" lon="3.59255">
        <ele>1167.118497</ele>
        <time>2019-10-07T06:43:12.606Z</time>
      </trkpt>
      <trkpt lat="44.4315" lon="3.59225">
        <ele>1163.65069</ele>
        <time>2019-10-07T06:43:18.810Z</time>
      </trkpt>
      <trkpt lat="44.4316" lon="3.59175">
        <ele>1158.478522</ele>
        <time>2019-10-07T06:43:27.849Z</time>
      </trkpt>
      <trkpt lat="44.43137" lon="3.59113">
        <ele>1151.558964</ele>
        <time>2019-10-07T06:43:39.898Z</time>
      </trkpt>
      <trkpt lat="44.43114" lon="3.58963">
        <ele>1138.963523</ele>
        <time>2019-10-07T06:44:07.212Z</time>
      </trkpt>
      <trkpt lat="44.43114" lon="3.58939">
        <ele>1137.076289</ele>
        <time>2019-10-07T06:44:11.650Z</time>
      </trkpt>
      <trkpt lat="44.43124" lon="3.58907">
        <ele>1134.372257</ele>
        <time>2019-10-07T06:44:18.067Z</time>
      </trkpt>
      <trkpt lat="44.431" lon="3.58843">
        <ele>1128.779291</ele>
        <time>2019-10-07T06:44:31.681Z</time>
      </trkpt>
      <trkpt lat="44.43094" lon="3.58795">
        <ele>1127.500131</ele>
        <time>2019-10-07T06:44:41.046Z</time>
      </trkpt>
      <trkpt lat="44.43088" lon="3.58793">
        <ele>1127.248535</ele>
        <time>2019-10-07T06:44:42.903Z</time>
      </trkpt>
      <trkpt lat="44.43069" lon="3.58811">
        <ele>1126.393541</ele>
        <time>2019-10-07T06:44:49.395Z</time>
      </trkpt>
      <trkpt lat="44.43069" lon="3.58788">
        <ele>1125.771828</ele>
        <time>2019-10-07T06:44:54.067Z</time>
      </trkpt>
      <trkpt lat="44.43074" lon="3.58772">
        <ele>1125.318167</ele>
        <time>2019-10-07T06:44:57.564Z</time>
      </trkpt>
      <trkpt lat="44.43071" lon="3.5877">
        <ele>1125.195251</ele>
        <time>2019-10-07T06:44:59.492Z</time>
      </trkpt>
      <trkpt lat="44.43069" lon="3.58778">
        <ele>1124.966161</ele>
        <time>2019-10-07T06:45:03.186Z</time>
      </trkpt>
      <trkpt lat="44.4306" lon="3.58771">
        <ele>1124.592247</ele>
        <time>2019-10-07T06:45:06.051Z</time>
      </trkpt>
      <trkpt lat="44.43055" lon="3.58746">
        <ele>1123.922176</ele>
        <time>2019-10-07T06:45:11.717Z</time>
      </trkpt>
      <trkpt lat="44.43048" lon="3.58739">
        <ele>1123.611001</ele>
        <time>2019-10-07T06:45:17.127Z</time>
      </trkpt>
      <trkpt lat="44.43043" lon="3.58719">
        <ele>1123.046703</ele>
        <time>2019-10-07T06:45:21.711Z</time>
      </trkpt>
      <trkpt lat="44.43037" lon="3.58707">
        <ele>1122.667135</ele>
        <time>2019-10-07T06:45:25.070Z</time>
      </trkpt>
      <trkpt lat="44.43027" lon="3.58705">
        <ele>1122.305143</ele>
        <time>2019-10-07T06:45:32.391Z</time>
      </trkpt>
      <trkpt lat="44.43024" lon="3.58704">
        <ele>1122.189197</ele>
        <time>2019-10-07T06:45:33.265Z</time>
      </trkpt>
      <trkpt lat="44.43028" lon="3.58693">
        <ele>1122.496332</ele>
        <time>2019-10-07T06:45:36.042Z</time>
      </trkpt>
      <trkpt lat="44.43025" lon="3.58683">
        <ele>1122.82339</ele>
        <time>2019-10-07T06:45:38.507Z</time>
      </trkpt>
      <trkpt lat="44.43034" lon="3.58652">
        <ele>1123.845029</ele>
        <time>2019-10-07T06:45:54.816Z</time>
      </trkpt>
      <trkpt lat="44.43041" lon="3.58634">
        <ele>1124.461064</ele>
        <time>2019-10-07T06:45:59.622Z</time>
      </trkpt>
      <trkpt lat="44.43027" lon="3.58639">
        <ele>1125.069229</ele>
        <time>2019-10-07T06:46:13.482Z</time>
      </trkpt>
      <trkpt lat="44.43006" lon="3.58649">
        <ele>1126.026863</ele>
        <time>2019-10-07T06:46:21.805Z</time>
      </trkpt>
      <trkpt lat="44.42987" lon="3.58746">
        <ele>1129.04402</ele>
        <time>2019-10-07T06:47:09.176Z</time>
      </trkpt>
      <trkpt lat="44.42987" lon="3.58765">
        <ele>1129.611511</ele>
        <time>2019-10-07T06:47:22.557Z</time>
      </trkpt>
      <trkpt lat="44.42981" lon="3.58766">
        <ele>1129.900495</ele>
        <time>2019-10-07T06:47:26.537Z</time>
      </trkpt>
      <trkpt lat="44.42982" lon="3.58697">
        <ele>1132.424048</ele>
        <time>2019-10-07T06:47:59.255Z</time>
      </trkpt>
      <trkpt lat="44.42974" lon="3.58676">
        <ele>1133.316786</ele>
        <time>2019-10-07T06:48:11.646Z</time>
      </trkpt>
      <trkpt lat="44.42957" lon="3.58656">
        <ele>1134.455817</ele>
        <time>2019-10-07T06:48:24.110Z</time>
      </trkpt>
      <trkpt lat="44.4291" lon="3.58632">
        <ele>1136.971253</ele>
        <time>2019-10-07T06:48:56.372Z</time>
      </trkpt>
      <trkpt lat="44.42877" lon="3.58627">
        <ele>1138.705667</ele>
        <time>2019-10-07T06:49:14.399Z</time>
      </trkpt>
      <trkpt lat="44.42804" lon="3.58589">
        <ele>1141.089214</ele>
        <time>2019-10-07T06:49:53.910Z</time>
      </trkpt>
      <trkpt lat="44.42791" lon="3.58578">
        <ele>1141.536278</ele>
        <time>2019-10-07T06:50:02.155Z</time>
      </trkpt>
      <trkpt lat="44.42786" lon="3.58584">
        <ele>1141.718316</ele>
        <time>2019-10-07T06:50:05.348Z</time>
      </trkpt>
      <trkpt lat="44.42767" lon="3.58595">
        <ele>1142.338949</ele>
        <time>2019-10-07T06:50:12.944Z</time>
      </trkpt>
      <trkpt lat="44.42682" lon="3.5867">
        <ele>1144.51761</ele>
        <time>2019-10-07T06:50:49.185Z</time>
      </trkpt>
      <trkpt lat="44.4267" lon="3.58673">
        <ele>1144.614072</ele>
        <time>2019-10-07T06:50:53.620Z</time>
      </trkpt>
      <trkpt lat="44.42655" lon="3.5867">
        <ele>1144.728269</ele>
        <time>2019-10-07T06:50:58.753Z</time>
      </trkpt>
      <trkpt lat="44.42636" lon="3.58665">
        <ele>1144.881267</ele>
        <time>2019-10-07T06:51:04.694Z</time>
      </trkpt>
      <trkpt lat="44.42565" lon="3.58614">
        <ele>1145.49574</ele>
        <time>2019-10-07T06:51:24.416Z</time>
      </trkpt>
      <trkpt lat="44.42534" lon="3.58571">
        <ele>1144.856176</ele>
        <time>2019-10-07T06:51:32.939Z</time>
      </trkpt>
      <trkpt lat="44.42459" lon="3.58502">
        <ele>1142.142245</ele>
        <time>2019-10-07T06:51:49.116Z</time>
      </trkpt>
      <trkpt lat="44.42454" lon="3.58497">
        <ele>1141.96012</ele>
        <time>2019-10-07T06:51:50.089Z</time>
      </trkpt>
      <trkpt lat="44.42422" lon="3.58464">
        <ele>1140.775093</ele>
        <time>2019-10-07T06:51:57.008Z</time>
      </trkpt>
      <trkpt lat="44.4238" lon="3.5843">
        <ele>1139.31803</ele>
        <time>2019-10-07T06:52:05.494Z</time>
      </trkpt>
      <trkpt lat="44.4238" lon="3.5843">
        <ele>1139.31803</ele>
        <time>2019-10-07T06:52:05.514Z</time>
      </trkpt>
      <trkpt lat="44.42294" lon="3.58386">
        <ele>1136.539875</ele>
        <time>2019-10-07T06:52:21.687Z</time>
      </trkpt>
      <trkpt lat="44.4224" lon="3.58386">
        <ele>1134.919009</ele>
        <time>2019-10-07T06:52:31.877Z</time>
      </trkpt>
      <trkpt lat="44.42201" lon="3.58399">
        <ele>1134.510509</ele>
        <time>2019-10-07T06:52:40.022Z</time>
      </trkpt>
      <trkpt lat="44.42089" lon="3.58388">
        <ele>1133.623175</ele>
        <time>2019-10-07T06:53:03.758Z</time>
      </trkpt>
      <trkpt lat="44.42063" lon="3.5837">
        <ele>1133.3909</ele>
        <time>2019-10-07T06:53:10.619Z</time>
      </trkpt>
      <trkpt lat="44.42022" lon="3.58284">
        <ele>1134.104099</ele>
        <time>2019-10-07T06:53:29.250Z</time>
      </trkpt>
      <trkpt lat="44.42016" lon="3.58273">
        <ele>1134.203815</ele>
        <time>2019-10-07T06:53:31.612Z</time>
      </trkpt>
      <trkpt lat="44.42015" lon="3.5828">
        <ele>1134.254922</ele>
        <time>2019-10-07T06:53:33.326Z</time>
      </trkpt>
      <trkpt lat="44.41988" lon="3.58464">
        <ele>1135.516786</ele>
        <time>2019-10-07T06:54:15.267Z</time>
      </trkpt>
      <trkpt lat="44.41975" lon="3.58629">
        <ele>1136.390165</ele>
        <time>2019-10-07T06:54:46.833Z</time>
      </trkpt>
      <trkpt lat="44.41933" lon="3.58616">
        <ele>1135.996315</ele>
        <time>2019-10-07T06:55:01.700Z</time>
      </trkpt>
      <trkpt lat="44.41915" lon="3.58608">
        <ele>1135.504366</ele>
        <time>2019-10-07T06:55:08.164Z</time>
      </trkpt>
      <trkpt lat="44.41882" lon="3.58586">
        <ele>1134.577034</ele>
        <time>2019-10-07T06:55:19.954Z</time>
      </trkpt>
      <trkpt lat="44.41813" lon="3.58555">
        <ele>1132.73163</ele>
        <time>2019-10-07T06:55:42.114Z</time>
      </trkpt>
      <trkpt lat="44.41779" lon="3.58524">
        <ele>1131.583532</ele>
        <time>2019-10-07T06:55:54.025Z</time>
      </trkpt>
      <trkpt lat="44.41753" lon="3.5851">
        <ele>1130.526062</ele>
        <time>2019-10-07T06:56:02.231Z</time>
      </trkpt>
      <trkpt lat="44.41693" lon="3.58464">
        <ele>1127.881773</ele>
        <time>2019-10-07T06:56:23.118Z</time>
      </trkpt>
      <trkpt lat="44.41677" lon="3.58441">
        <ele>1127.035494</ele>
        <time>2019-10-07T06:56:29.800Z</time>
      </trkpt>
      <trkpt lat="44.41662" lon="3.5839">
        <ele>1125.516348</ele>
        <time>2019-10-07T06:56:41.786Z</time>
      </trkpt>
      <trkpt lat="44.41638" lon="3.58338">
        <ele>1123.525885</ele>
        <time>2019-10-07T06:56:55.111Z</time>
      </trkpt>
      <trkpt lat="44.41567" lon="3.5828">
        <ele>1119.645162</ele>
        <time>2019-10-07T06:57:19.398Z</time>
      </trkpt>
      <trkpt lat="44.41498" lon="3.58237">
        <ele>1115.805007</ele>
        <time>2019-10-07T06:57:40.766Z</time>
      </trkpt>
      <trkpt lat="44.41468" lon="3.58206">
        <ele>1113.007713</ele>
        <time>2019-10-07T06:57:51.120Z</time>
      </trkpt>
      <trkpt lat="44.41391" lon="3.58155">
        <ele>1106.621208</ele>
        <time>2019-10-07T06:58:14.111Z</time>
      </trkpt>
      <trkpt lat="44.41318" lon="3.58078">
        <ele>1098.434198</ele>
        <time>2019-10-07T06:58:38.144Z</time>
      </trkpt>
      <trkpt lat="44.41238" lon="3.57982">
        <ele>1087.561837</ele>
        <time>2019-10-07T06:59:04.981Z</time>
      </trkpt>
      <trkpt lat="44.41213" lon="3.57963">
        <ele>1084.704132</ele>
        <time>2019-10-07T06:59:11.981Z</time>
      </trkpt>
      <trkpt lat="44.41184" lon="3.57945">
        <ele>1081.258215</ele>
        <time>2019-10-07T06:59:20.018Z</time>
      </trkpt>
      <trkpt lat="44.41165" lon="3.5794">
        <ele>1079.146765</ele>
        <time>2019-10-07T06:59:24.931Z</time>
      </trkpt>
      <trkpt lat="44.41143" lon="3.57942">
        <ele>1076.779565</ele>
        <time>2019-10-07T06:59:30.442Z</time>
      </trkpt>
      <trkpt lat="44.41111" lon="3.57961">
        <ele>1073.042657</ele>
        <time>2019-10-07T06:59:39.162Z</time>
      </trkpt>
      <trkpt lat="44.41094" lon="3.57997">
        <ele>1069.724762</ele>
        <time>2019-10-07T06:59:46.982Z</time>
      </trkpt>
      <trkpt lat="44.41089" lon="3.57993">
        <ele>1069.060638</ele>
        <time>2019-10-07T06:59:48.553Z</time>
      </trkpt>
      <trkpt lat="44.4107" lon="3.57859">
        <ele>1058.452512</ele>
        <time>2019-10-07T07:00:13.759Z</time>
      </trkpt>
      <trkpt lat="44.41065" lon="3.57785">
        <ele>1052.629173</ele>
        <time>2019-10-07T07:00:27.083Z</time>
      </trkpt>
      <trkpt lat="44.41052" lon="3.57741">
        <ele>1048.909199</ele>
        <time>2019-10-07T07:00:35.699Z</time>
      </trkpt>
      <trkpt lat="44.41036" lon="3.57709">
        <ele>1045.856557</ele>
        <time>2019-10-07T07:00:42.772Z</time>
      </trkpt>
      <trkpt lat="44.41016" lon="3.57675">
        <ele>1042.420965</ele>
        <time>2019-10-07T07:00:50.916Z</time>
      </trkpt>
      <trkpt lat="44.41011" lon="3.57679">
        <ele>1041.830337</ele>
        <time>2019-10-07T07:00:52.172Z</time>
      </trkpt>
      <trkpt lat="44.40983" lon="3.57693">
        <ele>1038.577249</ele>
        <time>2019-10-07T07:00:59.910Z</time>
      </trkpt>
      <trkpt lat="44.40915" lon="3.577">
        <ele>1031.169847</ele>
        <time>2019-10-07T07:01:16.912Z</time>
      </trkpt>
      <trkpt lat="44.40822" lon="3.57665">
        <ele>1022.107979</ele>
        <time>2019-10-07T07:01:41.671Z</time>
      </trkpt>
      <trkpt lat="44.40786" lon="3.57664">
        <ele>1019.281087</ele>
        <time>2019-10-07T07:01:51.181Z</time>
      </trkpt>
      <trkpt lat="44.4065" lon="3.57689">
        <ele>1010.85379</ele>
        <time>2019-10-07T07:02:29.205Z</time>
      </trkpt>
      <trkpt lat="44.4065" lon="3.57689">
        <ele>1010.85379</ele>
        <time>2019-10-07T07:02:29.324Z</time>
      </trkpt>
      <trkpt lat="44.40617" lon="3.57687">
        <ele>1010.061537</ele>
        <time>2019-10-07T07:02:40.656Z</time>
      </trkpt>
      <trkpt lat="44.40583" lon="3.57669">
        <ele>1009.171857</ele>
        <time>2019-10-07T07:02:53.070Z</time>
      </trkpt>
      <trkpt lat="44.40579" lon="3.57674">
        <ele>1009.040237</ele>
        <time>2019-10-07T07:02:54.472Z</time>
      </trkpt>
      <trkpt lat="44.4059" lon="3.57743">
        <ele>1007.832266</ele>
        <time>2019-10-07T07:03:13.501Z</time>
      </trkpt>
      <trkpt lat="44.40589" lon="3.5777">
        <ele>1007.522097</ele>
        <time>2019-10-07T07:03:19.990Z</time>
      </trkpt>
      <trkpt lat="44.40562" lon="3.57844">
        <ele>1007.67491</ele>
        <time>2019-10-07T07:03:47.912Z</time>
      </trkpt>
      <trkpt lat="44.40539" lon="3.57883">
        <ele>1007.769088</ele>
        <time>2019-10-07T07:04:05.165Z</time>
      </trkpt>
      <trkpt lat="44.4051" lon="3.5787">
        <ele>1007.847557</ele>
        <time>2019-10-07T07:04:18.519Z</time>
      </trkpt>
      <trkpt lat="44.4039" lon="3.5784">
        <ele>1004.602829</ele>
        <time>2019-10-07T07:04:57.600Z</time>
      </trkpt>
      <trkpt lat="44.4036" lon="3.57847">
        <ele>1003.214396</ele>
        <time>2019-10-07T07:05:06.202Z</time>
      </trkpt>
      <trkpt lat="44.40312" lon="3.57876">
        <ele>1000.807915</ele>
        <time>2019-10-07T07:05:20.898Z</time>
      </trkpt>
      <trkpt lat="44.40303" lon="3.57887">
        <ele>1000.230891</ele>
        <time>2019-10-07T07:05:24.150Z</time>
      </trkpt>
      <trkpt lat="44.40295" lon="3.57899">
        <ele>999.699332</ele>
        <time>2019-10-07T07:05:27.214Z</time>
      </trkpt>
      <trkpt lat="44.40271" lon="3.57941">
        <ele>997.790731</ele>
        <time>2019-10-07T07:05:37.751Z</time>
      </trkpt>
      <trkpt lat="44.40261" lon="3.57972">
        <ele>996.613294</ele>
        <time>2019-10-07T07:05:44.232Z</time>
      </trkpt>
      <trkpt lat="44.40253" lon="3.58016">
        <ele>995.016161</ele>
        <time>2019-10-07T07:05:53.233Z</time>
      </trkpt>
      <trkpt lat="44.40255" lon="3.58046">
        <ele>993.949847</ele>
        <time>2019-10-07T07:05:59.477Z</time>
      </trkpt>
      <trkpt lat="44.40258" lon="3.58071">
        <ele>993.029039</ele>
        <time>2019-10-07T07:06:04.643Z</time>
      </trkpt>
      <trkpt lat="44.40268" lon="3.58092">
        <ele>992.137243</ele>
        <time>2019-10-07T07:06:10.304Z</time>
      </trkpt>
      <trkpt lat="44.40275" lon="3.58105">
        <ele>991.585005</ele>
        <time>2019-10-07T07:06:13.940Z</time>
      </trkpt>
      <trkpt lat="44.40296" lon="3.5812">
        <ele>991.036</ele>
        <time>2019-10-07T07:06:22.687Z</time>
      </trkpt>
      <trkpt lat="44.40299" lon="3.58127">
        <ele>991.197648</ele>
        <time>2019-10-07T07:06:24.882Z</time>
      </trkpt>
      <trkpt lat="44.40299" lon="3.58136">
        <ele>991.353729</ele>
        <time>2019-10-07T07:06:26.138Z</time>
      </trkpt>
      <trkpt lat="44.40289" lon="3.58157">
        <ele>991.833134</ele>
        <time>2019-10-07T07:06:30.989Z</time>
      </trkpt>
      <trkpt lat="44.40301" lon="3.58176">
        <ele>992.311035</ele>
        <time>2019-10-07T07:06:36.114Z</time>
      </trkpt>
      <trkpt lat="44.40306" lon="3.58198">
        <ele>992.727087</ele>
        <time>2019-10-07T07:06:41.329Z</time>
      </trkpt>
      <trkpt lat="44.40303" lon="3.58334">
        <ele>995.248265</ele>
        <time>2019-10-07T07:07:24.100Z</time>
      </trkpt>
      <trkpt lat="44.40296" lon="3.58354">
        <ele>995.794381</ele>
        <time>2019-10-07T07:07:32.081Z</time>
      </trkpt>
      <trkpt lat="44.40247" lon="3.58363">
        <ele>998.066272</ele>
        <time>2019-10-07T07:07:58.922Z</time>
      </trkpt>
      <trkpt lat="44.40223" lon="3.58356">
        <ele>999.219223</ele>
        <time>2019-10-07T07:08:11.199Z</time>
      </trkpt>
      <trkpt lat="44.40206" lon="3.58359">
        <ele>999.992273</ele>
        <time>2019-10-07T07:08:19.958Z</time>
      </trkpt>
      <trkpt lat="44.40191" lon="3.5833">
        <ele>1001.162295</ele>
        <time>2019-10-07T07:08:29.968Z</time>
      </trkpt>
      <trkpt lat="44.40169" lon="3.58306">
        <ele>1002.422954</ele>
        <time>2019-10-07T07:08:41.832Z</time>
      </trkpt>
      <trkpt lat="44.40143" lon="3.58253">
        <ele>1004.378388</ele>
        <time>2019-10-07T07:09:01.146Z</time>
      </trkpt>
      <trkpt lat="44.40135" lon="3.58242">
        <ele>1004.781227</ele>
        <time>2019-10-07T07:09:07.168Z</time>
      </trkpt>
      <trkpt lat="44.40131" lon="3.58231">
        <ele>1005.072347</ele>
        <time>2019-10-07T07:09:09.046Z</time>
      </trkpt>
      <trkpt lat="44.40121" lon="3.58214">
        <ele>1005.632616</ele>
        <time>2019-10-07T07:09:15.028Z</time>
      </trkpt>
      <trkpt lat="44.40096" lon="3.58177">
        <ele>1006.879049</ele>
        <time>2019-10-07T07:09:28.357Z</time>
      </trkpt>
      <trkpt lat="44.4009" lon="3.58176">
        <ele>1007.10975</ele>
        <time>2019-10-07T07:09:31.956Z</time>
      </trkpt>
      <trkpt lat="44.40065" lon="3.58166">
        <ele>1008.014884</ele>
        <time>2019-10-07T07:09:40.813Z</time>
      </trkpt>
      <trkpt lat="44.40018" lon="3.5816">
        <ele>1009.667639</ele>
        <time>2019-10-07T07:10:00.352Z</time>
      </trkpt>
      <trkpt lat="44.39999" lon="3.58163">
        <ele>1010.635354</ele>
        <time>2019-10-07T07:10:06.987Z</time>
      </trkpt>
      <trkpt lat="44.39948" lon="3.58189">
        <ele>1014.639822</ele>
        <time>2019-10-07T07:10:33.818Z</time>
      </trkpt>
      <trkpt lat="44.39941" lon="3.58188">
        <ele>1015.136689</ele>
        <time>2019-10-07T07:10:37.650Z</time>
      </trkpt>
      <trkpt lat="44.39935" lon="3.58177">
        <ele>1015.854389</ele>
        <time>2019-10-07T07:10:43.200Z</time>
      </trkpt>
      <trkpt lat="44.39935" lon="3.5812">
        <ele>1018.824957</ele>
        <time>2019-10-07T07:11:08.358Z</time>
      </trkpt>
      <trkpt lat="44.39927" lon="3.58067">
        <ele>1021.662359</ele>
        <time>2019-10-07T07:11:35.135Z</time>
      </trkpt>
      <trkpt lat="44.39904" lon="3.58027">
        <ele>1025.15312</ele>
        <time>2019-10-07T07:12:03.227Z</time>
      </trkpt>
      <trkpt lat="44.39886" lon="3.58015">
        <ele>1027.683282</ele>
        <time>2019-10-07T07:12:19.480Z</time>
      </trkpt>
      <trkpt lat="44.39874" lon="3.58015">
        <ele>1029.168083</ele>
        <time>2019-10-07T07:12:29.113Z</time>
      </trkpt>
      <trkpt lat="44.39803" lon="3.58029">
        <ele>1038.298735</ele>
        <time>2019-10-07T07:13:32.761Z</time>
      </trkpt>
      <trkpt lat="44.3976" lon="3.58132">
        <ele>1048.992043</ele>
        <time>2019-10-07T07:14:54.055Z</time>
      </trkpt>
      <trkpt lat="44.39679" lon="3.58254">
        <ele>1063.26762</ele>
        <time>2019-10-07T07:16:36.983Z</time>
      </trkpt>
      <trkpt lat="44.39659" lon="3.58311">
        <ele>1068.132996</ele>
        <time>2019-10-07T07:17:08.986Z</time>
      </trkpt>
      <trkpt lat="44.39642" lon="3.58343">
        <ele>1069.729085</ele>
        <time>2019-10-07T07:17:27.179Z</time>
      </trkpt>
      <trkpt lat="44.39634" lon="3.5835">
        <ele>1070.29647</ele>
        <time>2019-10-07T07:17:33.269Z</time>
      </trkpt>
      <trkpt lat="44.39603" lon="3.58344">
        <ele>1072.040003</ele>
        <time>2019-10-07T07:17:50.518Z</time>
      </trkpt>
      <trkpt lat="44.39567" lon="3.58347">
        <ele>1074.074617</ele>
        <time>2019-10-07T07:18:07.906Z</time>
      </trkpt>
      <trkpt lat="44.39486" lon="3.58367">
        <ele>1078.258956</ele>
        <time>2019-10-07T07:18:38.886Z</time>
      </trkpt>
      <trkpt lat="44.39471" lon="3.58377">
        <ele>1078.741671</ele>
        <time>2019-10-07T07:18:44.148Z</time>
      </trkpt>
      <trkpt lat="44.39427" lon="3.58429">
        <ele>1080.498908</ele>
        <time>2019-10-07T07:19:06.459Z</time>
      </trkpt>
      <trkpt lat="44.39375" lon="3.58456">
        <ele>1082.163084</ele>
        <time>2019-10-07T07:19:29.772Z</time>
      </trkpt>
      <trkpt lat="44.39345" lon="3.5848">
        <ele>1083.211598</ele>
        <time>2019-10-07T07:19:42.960Z</time>
      </trkpt>
      <trkpt lat="44.39322" lon="3.58483">
        <ele>1083.332057</ele>
        <time>2019-10-07T07:19:49.271Z</time>
      </trkpt>
      <trkpt lat="44.39322" lon="3.58487">
        <ele>1083.343232</ele>
        <time>2019-10-07T07:19:50.699Z</time>
      </trkpt>
      <trkpt lat="44.39313" lon="3.58491">
        <ele>1083.388307</ele>
        <time>2019-10-07T07:19:56.859Z</time>
      </trkpt>
      <trkpt lat="44.39196" lon="3.58548">
        <ele>1084.014307</ele>
        <time>2019-10-07T07:20:47.898Z</time>
      </trkpt>
      <trkpt lat="44.39171" lon="3.58539">
        <ele>1083.657171</ele>
        <time>2019-10-07T07:20:57.184Z</time>
      </trkpt>
      <trkpt lat="44.39154" lon="3.585">
        <ele>1080.877393</ele>
        <time>2019-10-07T07:21:06.784Z</time>
      </trkpt>
      <trkpt lat="44.39144" lon="3.58432">
        <ele>1076.63105</ele>
        <time>2019-10-07T07:21:19.777Z</time>
      </trkpt>
      <trkpt lat="44.39126" lon="3.58384">
        <ele>1073.264284</ele>
        <time>2019-10-07T07:21:29.854Z</time>
      </trkpt>
      <trkpt lat="44.39082" lon="3.5833">
        <ele>1067.968156</ele>
        <time>2019-10-07T07:21:44.556Z</time>
      </trkpt>
      <trkpt lat="44.39077" lon="3.58324">
        <ele>1067.125718</ele>
        <time>2019-10-07T07:21:46.003Z</time>
      </trkpt>
      <trkpt lat="44.39063" lon="3.58297">
        <ele>1063.848822</ele>
        <time>2019-10-07T07:21:51.910Z</time>
      </trkpt>
      <trkpt lat="44.39046" lon="3.58258">
        <ele>1059.424543</ele>
        <time>2019-10-07T07:21:59.820Z</time>
      </trkpt>
      <trkpt lat="44.39031" lon="3.58242">
        <ele>1056.861814</ele>
        <time>2019-10-07T07:22:04.345Z</time>
      </trkpt>
      <trkpt lat="44.38964" lon="3.5821">
        <ele>1047.030827</ele>
        <time>2019-10-07T07:22:21.679Z</time>
      </trkpt>
      <trkpt lat="44.38844" lon="3.58274">
        <ele>1031.661326</ele>
        <time>2019-10-07T07:22:53.581Z</time>
      </trkpt>
      <trkpt lat="44.38804" lon="3.58318">
        <ele>1025.75147</ele>
        <time>2019-10-07T07:23:06.502Z</time>
      </trkpt>
      <trkpt lat="44.3878" lon="3.58374">
        <ele>1020.805666</ele>
        <time>2019-10-07T07:23:18.553Z</time>
      </trkpt>
      <trkpt lat="44.38755" lon="3.58411">
        <ele>1017.364692</ele>
        <time>2019-10-07T07:23:27.999Z</time>
      </trkpt>
      <trkpt lat="44.38663" lon="3.58479">
        <ele>1007.639916</ele>
        <time>2019-10-07T07:23:54.836Z</time>
      </trkpt>
      <trkpt lat="44.3864" lon="3.58502">
        <ele>1005.321589</ele>
        <time>2019-10-07T07:24:02.335Z</time>
      </trkpt>
      <trkpt lat="44.38581" lon="3.58589">
        <ele>999.685376</ele>
        <time>2019-10-07T07:24:25.788Z</time>
      </trkpt>
      <trkpt lat="44.38546" lon="3.58616">
        <ele>997.127233</ele>
        <time>2019-10-07T07:24:36.784Z</time>
      </trkpt>
      <trkpt lat="44.38484" lon="3.58699">
        <ele>992.455602</ele>
        <time>2019-10-07T07:25:01.996Z</time>
      </trkpt>
      <trkpt lat="44.38467" lon="3.58711">
        <ele>991.644782</ele>
        <time>2019-10-07T07:25:07.583Z</time>
      </trkpt>
      <trkpt lat="44.384" lon="3.58708">
        <ele>988.753201</ele>
        <time>2019-10-07T07:25:27.948Z</time>
      </trkpt>
      <trkpt lat="44.38273" lon="3.58631">
        <ele>982.966503</ele>
        <time>2019-10-07T07:26:08.167Z</time>
      </trkpt>
      <trkpt lat="44.38217" lon="3.58628">
        <ele>980.679296</ele>
        <time>2019-10-07T07:26:24.641Z</time>
      </trkpt>
      <trkpt lat="44.38193" lon="3.5863">
        <ele>979.66</ele>
        <time>2019-10-07T07:26:31.874Z</time>
      </trkpt>
      <trkpt lat="44.38173" lon="3.58634">
        <ele>979.143327</ele>
        <time>2019-10-07T07:26:38.120Z</time>
      </trkpt>
      <trkpt lat="44.3813" lon="3.58646">
        <ele>978.788373</ele>
        <time>2019-10-07T07:26:51.736Z</time>
      </trkpt>
      <trkpt lat="44.37987" lon="3.58588">
        <ele>978.483756</ele>
        <time>2019-10-07T07:27:46.700Z</time>
      </trkpt>
      <trkpt lat="44.37871" lon="3.58575">
        <ele>982.421933</ele>
        <time>2019-10-07T07:28:49.833Z</time>
      </trkpt>
      <trkpt lat="44.37829" lon="3.58547">
        <ele>984.151763</ele>
        <time>2019-10-07T07:29:19.491Z</time>
      </trkpt>
      <trkpt lat="44.37751" lon="3.58524">
        <ele>989.645558</ele>
        <time>2019-10-07T07:30:15.688Z</time>
      </trkpt>
      <trkpt lat="44.37674" lon="3.5847">
        <ele>995.505665</ele>
        <time>2019-10-07T07:31:20.530Z</time>
      </trkpt>
      <trkpt lat="44.37553" lon="3.58405">
        <ele>1003.358865</ele>
        <time>2019-10-07T07:32:52.801Z</time>
      </trkpt>
      <trkpt lat="44.37473" lon="3.58424">
        <ele>1007.206364</ele>
        <time>2019-10-07T07:33:41.880Z</time>
      </trkpt>
      <trkpt lat="44.37459" lon="3.5843">
        <ele>1007.376277</ele>
        <time>2019-10-07T07:33:49.597Z</time>
      </trkpt>
      <trkpt lat="44.37426" lon="3.58459">
        <ele>1007.843089</ele>
        <time>2019-10-07T07:34:09.432Z</time>
      </trkpt>
      <trkpt lat="44.37354" lon="3.58469">
        <ele>1008.705546</ele>
        <time>2019-10-07T07:34:39.990Z</time>
      </trkpt>
      <trkpt lat="44.37288" lon="3.58502">
        <ele>1006.84292</ele>
        <time>2019-10-07T07:35:01.574Z</time>
      </trkpt>
      <trkpt lat="44.37243" lon="3.58497">
        <ele>1004.152785</ele>
        <time>2019-10-07T07:35:14.743Z</time>
      </trkpt>
      <trkpt lat="44.37211" lon="3.5849">
        <ele>1002.23492</ele>
        <time>2019-10-07T07:35:23.865Z</time>
      </trkpt>
      <trkpt lat="44.372" lon="3.58491">
        <ele>1001.594711</ele>
        <time>2019-10-07T07:35:26.639Z</time>
      </trkpt>
      <trkpt lat="44.37119" lon="3.58488">
        <ele>995.461869</ele>
        <time>2019-10-07T07:35:48.029Z</time>
      </trkpt>
      <trkpt lat="44.37083" lon="3.58497">
        <ele>991.562595</ele>
        <time>2019-10-07T07:35:57.294Z</time>
      </trkpt>
      <trkpt lat="44.3703" lon="3.58522">
        <ele>985.597606</ele>
        <time>2019-10-07T07:36:11.306Z</time>
      </trkpt>
      <trkpt lat="44.36942" lon="3.58542">
        <ele>976.01104</ele>
        <time>2019-10-07T07:36:33.764Z</time>
      </trkpt>
      <trkpt lat="44.36921" lon="3.58544">
        <ele>973.632735</ele>
        <time>2019-10-07T07:36:39.248Z</time>
      </trkpt>
      <trkpt lat="44.36848" lon="3.5853">
        <ele>965.609293</ele>
        <time>2019-10-07T07:36:57.827Z</time>
      </trkpt>
      <trkpt lat="44.36738" lon="3.58566">
        <ele>955.300777</ele>
        <time>2019-10-07T07:37:26.800Z</time>
      </trkpt>
      <trkpt lat="44.36633" lon="3.5858">
        <ele>947.45942</ele>
        <time>2019-10-07T07:37:55.474Z</time>
      </trkpt>
      <trkpt lat="44.36598" lon="3.58591">
        <ele>945.751557</ele>
        <time>2019-10-07T07:38:06.222Z</time>
      </trkpt>
      <trkpt lat="44.36579" lon="3.5859">
        <ele>945.262304</ele>
        <time>2019-10-07T07:38:12.150Z</time>
      </trkpt>
      <trkpt lat="44.36569" lon="3.58588">
        <ele>945.024156</ele>
        <time>2019-10-07T07:38:15.560Z</time>
      </trkpt>
      <trkpt lat="44.3654" lon="3.58579">
        <ele>944.29109</ele>
        <time>2019-10-07T07:38:25.069Z</time>
      </trkpt>
      <trkpt lat="44.36499" lon="3.58548">
        <ele>943.148639</ele>
        <time>2019-10-07T07:38:41.337Z</time>
      </trkpt>
      <trkpt lat="44.36386" lon="3.58445">
        <ele>937.439008</ele>
        <time>2019-10-07T07:39:25.117Z</time>
      </trkpt>
      <trkpt lat="44.36327" lon="3.58421">
        <ele>934.108922</ele>
        <time>2019-10-07T07:39:41.748Z</time>
      </trkpt>
      <trkpt lat="44.36274" lon="3.58423">
        <ele>930.56118</ele>
        <time>2019-10-07T07:39:55.640Z</time>
      </trkpt>
      <trkpt lat="44.36184" lon="3.58462">
        <ele>921.056505</ele>
        <time>2019-10-07T07:40:19.680Z</time>
      </trkpt>
      <trkpt lat="44.36117" lon="3.58514">
        <ele>913.372362</ele>
        <time>2019-10-07T07:40:39.243Z</time>
      </trkpt>
      <trkpt lat="44.36091" lon="3.58522">
        <ele>910.690226</ele>
        <time>2019-10-07T07:40:46.111Z</time>
      </trkpt>
      <trkpt lat="44.36031" lon="3.58527">
        <ele>904.615983</ele>
        <time>2019-10-07T07:41:01.741Z</time>
      </trkpt>
      <trkpt lat="44.36006" lon="3.58541">
        <ele>901.958468</ele>
        <time>2019-10-07T07:41:08.551Z</time>
      </trkpt>
      <trkpt lat="44.35935" lon="3.58604">
        <ele>892.713948</ele>
        <time>2019-10-07T07:41:30.172Z</time>
      </trkpt>
      <trkpt lat="44.35914" lon="3.58612">
        <ele>889.712239</ele>
        <time>2019-10-07T07:41:35.777Z</time>
      </trkpt>
      <trkpt lat="44.3589" lon="3.58617">
        <ele>886.290348</ele>
        <time>2019-10-07T07:41:42.126Z</time>
      </trkpt>
      <trkpt lat="44.35824" lon="3.58609">
        <ele>877.232991</ele>
        <time>2019-10-07T07:41:57.904Z</time>
      </trkpt>
      <trkpt lat="44.35798" lon="3.58615">
        <ele>873.611046</ele>
        <time>2019-10-07T07:42:04.343Z</time>
      </trkpt>
      <trkpt lat="44.35793" lon="3.586">
        <ele>872.065547</ele>
        <time>2019-10-07T07:42:07.000Z</time>
      </trkpt>
      <trkpt lat="44.35811" lon="3.58535">
        <ele>864.312064</ele>
        <time>2019-10-07T07:42:19.250Z</time>
      </trkpt>
      <trkpt lat="44.35812" lon="3.58525">
        <ele>863.266779</ele>
        <time>2019-10-07T07:42:20.789Z</time>
      </trkpt>
      <trkpt lat="44.35808" lon="3.58517">
        <ele>862.197828</ele>
        <time>2019-10-07T07:42:22.498Z</time>
      </trkpt>
      <trkpt lat="44.35803" lon="3.58513">
        <ele>861.242917</ele>
        <time>2019-10-07T07:42:23.909Z</time>
      </trkpt>
      <trkpt lat="44.35792" lon="3.58511">
        <ele>859.530411</ele>
        <time>2019-10-07T07:42:26.694Z</time>
      </trkpt>
      <trkpt lat="44.35777" lon="3.58519">
        <ele>857.005802</ele>
        <time>2019-10-07T07:42:30.544Z</time>
      </trkpt>
      <trkpt lat="44.3574" lon="3.58566">
        <ele>849.189007</ele>
        <time>2019-10-07T07:42:42.459Z</time>
      </trkpt>
      <trkpt lat="44.35687" lon="3.58671">
        <ele>836.792537</ele>
        <time>2019-10-07T07:43:04.779Z</time>
      </trkpt>
      <trkpt lat="44.35656" lon="3.58708">
        <ele>831.952334</ele>
        <time>2019-10-07T07:43:15.160Z</time>
      </trkpt>
      <trkpt lat="44.3565" lon="3.58724">
        <ele>830.438485</ele>
        <time>2019-10-07T07:43:18.440Z</time>
      </trkpt>
      <trkpt lat="44.35648" lon="3.58769">
        <ele>826.620089</ele>
        <time>2019-10-07T07:43:26.757Z</time>
      </trkpt>
      <trkpt lat="44.3564" lon="3.58792">
        <ele>824.460091</ele>
        <time>2019-10-07T07:43:31.502Z</time>
      </trkpt>
      <trkpt lat="44.35574" lon="3.58854">
        <ele>818.288274</ele>
        <time>2019-10-07T07:43:52.450Z</time>
      </trkpt>
      <trkpt lat="44.3555" lon="3.58905">
        <ele>815.612025</ele>
        <time>2019-10-07T07:44:04.543Z</time>
      </trkpt>
      <trkpt lat="44.35515" lon="3.58943">
        <ele>812.884434</ele>
        <time>2019-10-07T07:44:17.389Z</time>
      </trkpt>
      <trkpt lat="44.35508" lon="3.58961">
        <ele>811.964542</ele>
        <time>2019-10-07T07:44:21.846Z</time>
      </trkpt>
      <trkpt lat="44.35518" lon="3.59007">
        <ele>809.899777</ele>
        <time>2019-10-07T07:44:32.407Z</time>
      </trkpt>
      <trkpt lat="44.3552" lon="3.59044">
        <ele>808.369953</ele>
        <time>2019-10-07T07:44:40.778Z</time>
      </trkpt>
      <trkpt lat="44.35442" lon="3.59112">
        <ele>803.123963</ele>
        <time>2019-10-07T07:45:07.231Z</time>
      </trkpt>
      <trkpt lat="44.35389" lon="3.59129">
        <ele>799.355012</ele>
        <time>2019-10-07T07:45:22.028Z</time>
      </trkpt>
      <trkpt lat="44.35337" lon="3.59091">
        <ele>791.21525</ele>
        <time>2019-10-07T07:45:36.617Z</time>
      </trkpt>
      <trkpt lat="44.35303" lon="3.59055">
        <ele>785.260257</ele>
        <time>2019-10-07T07:45:46.953Z</time>
      </trkpt>
      <trkpt lat="44.35261" lon="3.59037">
        <ele>779.103295</ele>
        <time>2019-10-07T07:45:57.447Z</time>
      </trkpt>
      <trkpt lat="44.35248" lon="3.59044">
        <ele>777.181296</ele>
        <time>2019-10-07T07:46:00.700Z</time>
      </trkpt>
      <trkpt lat="44.35232" lon="3.59102">
        <ele>769.977722</ele>
        <time>2019-10-07T07:46:11.150Z</time>
      </trkpt>
      <trkpt lat="44.35214" lon="3.59051">
        <ele>762.883535</ele>
        <time>2019-10-07T07:46:20.782Z</time>
      </trkpt>
      <trkpt lat="44.35209" lon="3.59046">
        <ele>761.752405</ele>
        <time>2019-10-07T07:46:22.315Z</time>
      </trkpt>
      <trkpt lat="44.35204" lon="3.59051">
        <ele>760.738788</ele>
        <time>2019-10-07T07:46:23.697Z</time>
      </trkpt>
      <trkpt lat="44.35202" lon="3.59123">
        <ele>751.749818</ele>
        <time>2019-10-07T07:46:35.995Z</time>
      </trkpt>
      <trkpt lat="44.35198" lon="3.59136">
        <ele>749.972511</ele>
        <time>2019-10-07T07:46:38.448Z</time>
      </trkpt>
      <trkpt lat="44.3519" lon="3.59133">
        <ele>748.576969</ele>
        <time>2019-10-07T07:46:40.349Z</time>
      </trkpt>
      <trkpt lat="44.35176" lon="3.59079">
        <ele>741.709958</ele>
        <time>2019-10-07T07:46:50.063Z</time>
      </trkpt>
      <trkpt lat="44.35085" lon="3.5902">
        <ele>726.051477</ele>
        <time>2019-10-07T07:47:14.363Z</time>
      </trkpt>
      <trkpt lat="44.35049" lon="3.59017">
        <ele>720.538345</ele>
        <time>2019-10-07T07:47:23.024Z</time>
      </trkpt>
      <trkpt lat="44.35021" lon="3.59001">
        <ele>715.905893</ele>
        <time>2019-10-07T07:47:30.365Z</time>
      </trkpt>
      <trkpt lat="44.34992" lon="3.5897">
        <ele>711.129167</ele>
        <time>2019-10-07T07:47:39.259Z</time>
      </trkpt>
      <trkpt lat="44.34982" lon="3.5894">
        <ele>707.990778</ele>
        <time>2019-10-07T07:47:45.107Z</time>
      </trkpt>
      <trkpt lat="44.34981" lon="3.58914">
        <ele>705.504374</ele>
        <time>2019-10-07T07:47:49.743Z</time>
      </trkpt>
      <trkpt lat="44.3497" lon="3.58896">
        <ele>703.260118</ele>
        <time>2019-10-07T07:47:53.912Z</time>
      </trkpt>
      <trkpt lat="44.34944" lon="3.58885">
        <ele>699.738769</ele>
        <time>2019-10-07T07:48:00.500Z</time>
      </trkpt>
      <trkpt lat="44.34871" lon="3.5887">
        <ele>690.19238</ele>
        <time>2019-10-07T07:48:18.982Z</time>
      </trkpt>
      <trkpt lat="44.34796" lon="3.58817">
        <ele>679.786205</ele>
        <time>2019-10-07T07:48:39.951Z</time>
      </trkpt>
      <trkpt lat="44.34729" lon="3.58759">
        <ele>670.081997</ele>
        <time>2019-10-07T07:48:59.582Z</time>
      </trkpt>
      <trkpt lat="44.3469" lon="3.58714">
        <ele>664.432718</ele>
        <time>2019-10-07T07:49:12.269Z</time>
      </trkpt>
      <trkpt lat="44.34665" lon="3.58708">
        <ele>661.670348</ele>
        <time>2019-10-07T07:49:18.486Z</time>
      </trkpt>
      <trkpt lat="44.34537" lon="3.58733">
        <ele>647.680234</ele>
        <time>2019-10-07T07:49:51.501Z</time>
      </trkpt>
      <trkpt lat="44.34512" lon="3.5872">
        <ele>645.212525</ele>
        <time>2019-10-07T07:49:58.467Z</time>
      </trkpt>
      <trkpt lat="44.34462" lon="3.58719">
        <ele>640.615742</ele>
        <time>2019-10-07T07:50:11.465Z</time>
      </trkpt>
      <trkpt lat="44.3439" lon="3.58691">
        <ele>633.789005</ele>
        <time>2019-10-07T07:50:31.041Z</time>
      </trkpt>
      <trkpt lat="44.34359" lon="3.58687">
        <ele>630.898233</ele>
        <time>2019-10-07T07:50:39.471Z</time>
      </trkpt>
      <trkpt lat="44.3435" lon="3.58678">
        <ele>629.917598</ele>
        <time>2019-10-07T07:50:42.369Z</time>
      </trkpt>
      <trkpt lat="44.34349" lon="3.58645">
        <ele>627.795934</ele>
        <time>2019-10-07T07:50:48.551Z</time>
      </trkpt>
      <trkpt lat="44.34364" lon="3.58594">
        <ele>624.16253</ele>
        <time>2019-10-07T07:50:59.097Z</time>
      </trkpt>
      <trkpt lat="44.34365" lon="3.58566">
        <ele>622.351707</ele>
        <time>2019-10-07T07:51:04.299Z</time>
      </trkpt>
      <trkpt lat="44.34355" lon="3.58566">
        <ele>621.523017</ele>
        <time>2019-10-07T07:51:06.648Z</time>
      </trkpt>
      <trkpt lat="44.34332" lon="3.58593">
        <ele>618.732847</ele>
        <time>2019-10-07T07:51:14.575Z</time>
      </trkpt>
      <trkpt lat="44.34298" lon="3.58657">
        <ele>612.855957</ele>
        <time>2019-10-07T07:51:28.992Z</time>
      </trkpt>
      <trkpt lat="44.34249" lon="3.58729">
        <ele>604.960696</ele>
        <time>2019-10-07T07:51:39.487Z</time>
      </trkpt>
      <trkpt lat="44.34225" lon="3.5876">
        <ele>601.302335</ele>
        <time>2019-10-07T07:51:44.315Z</time>
      </trkpt>
      <trkpt lat="44.34106" lon="3.58866">
        <ele>585.46185</ele>
        <time>2019-10-07T07:52:04.864Z</time>
      </trkpt>
      <trkpt lat="44.34049" lon="3.58951">
        <ele>576.075432</ele>
        <time>2019-10-07T07:52:17.082Z</time>
      </trkpt>
      <trkpt lat="44.34034" lon="3.58969">
        <ele>573.994558</ele>
        <time>2019-10-07T07:52:19.926Z</time>
      </trkpt>
      <trkpt lat="44.34027" lon="3.58965">
        <ele>573.189165</ele>
        <time>2019-10-07T07:52:21.024Z</time>
      </trkpt>
      <trkpt lat="44.34021" lon="3.5896">
        <ele>572.467872</ele>
        <time>2019-10-07T07:52:22.058Z</time>
      </trkpt>
      <trkpt lat="44.34008" lon="3.58947">
        <ele>570.778206</ele>
        <time>2019-10-07T07:52:24.379Z</time>
      </trkpt>
      <trkpt lat="44.33917" lon="3.58826">
        <ele>557.698401</ele>
        <time>2019-10-07T07:52:42.930Z</time>
      </trkpt>
      <trkpt lat="44.33893" lon="3.58806">
        <ele>556.395443</ele>
        <time>2019-10-07T07:52:47.147Z</time>
      </trkpt>
      <trkpt lat="44.33847" lon="3.58768">
        <ele>553.841995</ele>
        <time>2019-10-07T07:52:55.526Z</time>
      </trkpt>
      <trkpt lat="44.33836" lon="3.58759">
        <ele>553.259931</ele>
        <time>2019-10-07T07:52:57.485Z</time>
      </trkpt>
      <trkpt lat="44.33781" lon="3.58714">
        <ele>550.265613</ele>
        <time>2019-10-07T07:53:09.617Z</time>
      </trkpt>
      <trkpt lat="44.33728" lon="3.5873">
        <ele>550.619907</ele>
        <time>2019-10-07T07:53:31.340Z</time>
      </trkpt>
      <trkpt lat="44.33701" lon="3.58736">
        <ele>551.514998</ele>
        <time>2019-10-07T07:53:40.095Z</time>
      </trkpt>
      <trkpt lat="44.33664" lon="3.58743">
        <ele>552.737522</ele>
        <time>2019-10-07T07:53:52.382Z</time>
      </trkpt>
      <trkpt lat="44.33654" lon="3.58742">
        <ele>553.074406</ele>
        <time>2019-10-07T07:53:59.114Z</time>
      </trkpt>
      <trkpt lat="44.33628" lon="3.58723">
        <ele>554.053699</ele>
        <time>2019-10-07T07:54:11.409Z</time>
      </trkpt>
      <trkpt lat="44.33595" lon="3.58698">
        <ele>555.266372</ele>
        <time>2019-10-07T07:54:30.981Z</time>
      </trkpt>
      <trkpt lat="44.33595" lon="3.58654">
        <ele>555.767123</ele>
        <time>2019-10-07T07:54:45.740Z</time>
      </trkpt>
      <trkpt lat="44.33597" lon="3.58644">
        <ele>555.881299</ele>
        <time>2019-10-07T07:54:50.147Z</time>
      </trkpt>
      <trkpt lat="44.33599" lon="3.58639">
        <ele>555.949717</ele>
        <time>2019-10-07T07:54:52.163Z</time>
      </trkpt>
      <trkpt lat="44.33602" lon="3.58632">
        <ele>556.025576</ele>
        <time>2019-10-07T07:54:53.709Z</time>
      </trkpt>
      <trkpt lat="44.33603" lon="3.58631">
        <ele>556.053878</ele>
        <time>2019-10-07T07:54:54.403Z</time>
      </trkpt>
      <trkpt lat="44.33605" lon="3.58628">
        <ele>556.094091</ele>
        <time>2019-10-07T07:54:55.381Z</time>
      </trkpt>
      <trkpt lat="44.33606" lon="3.58626">
        <ele>556.128144</ele>
        <time>2019-10-07T07:54:56.506Z</time>
      </trkpt>
      <trkpt lat="44.33608" lon="3.58616">
        <ele>556.227385</ele>
        <time>2019-10-07T07:55:01.117Z</time>
      </trkpt>
      <trkpt lat="44.33607" lon="3.58612">
        <ele>556.273319</ele>
        <time>2019-10-07T07:55:01.800Z</time>
      </trkpt>
      <trkpt lat="44.33605" lon="3.58608">
        <ele>556.330139</ele>
        <time>2019-10-07T07:55:03.708Z</time>
      </trkpt>
      <trkpt lat="44.33597" lon="3.58602">
        <ele>556.468093</ele>
        <time>2019-10-07T07:55:07.693Z</time>
      </trkpt>
      <trkpt lat="44.33593" lon="3.58602">
        <ele>556.522169</ele>
        <time>2019-10-07T07:55:08.311Z</time>
      </trkpt>
      <trkpt lat="44.33592" lon="3.58603">
        <ele>556.540291</ele>
        <time>2019-10-07T07:55:08.792Z</time>
      </trkpt>
      <trkpt lat="44.3359" lon="3.58604">
        <ele>556.577101</ele>
        <time>2019-10-07T07:55:09.508Z</time>
      </trkpt>
      <trkpt lat="44.33587" lon="3.58607">
        <ele>556.635008</ele>
        <time>2019-10-07T07:55:10.396Z</time>
      </trkpt>
      <trkpt lat="44.33586" lon="3.58609">
        <ele>556.661264</ele>
        <time>2019-10-07T07:55:11.101Z</time>
      </trkpt>
      <trkpt lat="44.3358" lon="3.58611">
        <ele>556.747423</ele>
        <time>2019-10-07T07:55:14.676Z</time>
      </trkpt>
      <trkpt lat="44.33561" lon="3.58613">
        <ele>557.037391</ele>
        <time>2019-10-07T07:55:18.185Z</time>
      </trkpt>
      <trkpt lat="44.33538" lon="3.58614">
        <ele>557.386867</ele>
        <time>2019-10-07T07:55:24.860Z</time>
      </trkpt>
      <trkpt lat="44.33523" lon="3.58613">
        <ele>557.604382</ele>
        <time>2019-10-07T07:55:27.070Z</time>
      </trkpt>
      <trkpt lat="44.33469" lon="3.58622">
        <ele>557.368336</ele>
        <time>2019-10-07T07:55:36.804Z</time>
      </trkpt>
      <trkpt lat="44.33417" lon="3.58645">
        <ele>555.95096</ele>
        <time>2019-10-07T07:55:46.980Z</time>
      </trkpt>
      <trkpt lat="44.33378" lon="3.58674">
        <ele>554.816181</ele>
        <time>2019-10-07T07:55:54.525Z</time>
      </trkpt>
      <trkpt lat="44.3334" lon="3.58719">
        <ele>553.54233</ele>
        <time>2019-10-07T07:56:03.102Z</time>
      </trkpt>
      <trkpt lat="44.33309" lon="3.58766">
        <ele>552.71028</ele>
        <time>2019-10-07T07:56:11.166Z</time>
      </trkpt>
      <trkpt lat="44.33283" lon="3.58822">
        <ele>551.878452</ele>
        <time>2019-10-07T07:56:19.907Z</time>
      </trkpt>
      <trkpt lat="44.33217" lon="3.58998">
        <ele>549.379396</ele>
        <time>2019-10-07T07:56:48.472Z</time>
      </trkpt>
      <trkpt lat="44.33207" lon="3.59022">
        <ele>549.011376</ele>
        <time>2019-10-07T07:56:51.741Z</time>
      </trkpt>
      <trkpt lat="44.33195" lon="3.59046">
        <ele>548.638381</ele>
        <time>2019-10-07T07:56:55.957Z</time>
      </trkpt>
      <trkpt lat="44.33165" lon="3.59106">
        <ele>547.695879</ele>
        <time>2019-10-07T07:57:05.165Z</time>
      </trkpt>
      <trkpt lat="44.33156" lon="3.59116">
        <ele>547.489438</ele>
        <time>2019-10-07T07:57:09.389Z</time>
      </trkpt>
      <trkpt lat="44.3315" lon="3.59111">
        <ele>547.351335</ele>
        <time>2019-10-07T07:57:10.639Z</time>
      </trkpt>
      <trkpt lat="44.3314" lon="3.59107">
        <ele>547.178451</ele>
        <time>2019-10-07T07:57:12.169Z</time>
      </trkpt>
      <trkpt lat="44.33112" lon="3.59063">
        <ele>546.593749</ele>
        <time>2019-10-07T07:57:19.944Z</time>
      </trkpt>
      <trkpt lat="44.33107" lon="3.59057">
        <ele>546.508656</ele>
        <time>2019-10-07T07:57:22.205Z</time>
      </trkpt>
      <trkpt lat="44.33101" lon="3.59053">
        <ele>546.418712</ele>
        <time>2019-10-07T07:57:24.642Z</time>
      </trkpt>
      <trkpt lat="44.33077" lon="3.59047">
        <ele>546.107562</ele>
        <time>2019-10-07T07:57:28.718Z</time>
      </trkpt>
      <trkpt lat="44.3307" lon="3.59047">
        <ele>546.019549</ele>
        <time>2019-10-07T07:57:30.923Z</time>
      </trkpt>
      <trkpt lat="44.33063" lon="3.59048">
        <ele>545.918652</ele>
        <time>2019-10-07T07:57:32.440Z</time>
      </trkpt>
      <trkpt lat="44.32989" lon="3.59101">
        <ele>544.847313</ele>
        <time>2019-10-07T07:57:47.686Z</time>
      </trkpt>
      <trkpt lat="44.32958" lon="3.59125">
        <ele>544.785088</ele>
        <time>2019-10-07T07:57:57.379Z</time>
      </trkpt>
      <trkpt lat="44.32945" lon="3.59135">
        <ele>544.826899</ele>
        <time>2019-10-07T07:58:01.512Z</time>
      </trkpt>
      <trkpt lat="44.32945" lon="3.59135">
        <ele>544.2</ele>
      </trkpt>
      <trkpt lat="44.32924" lon="3.5915">
        <ele>544.1</ele>
      </trkpt>
      <trkpt lat="44.32921" lon="3.59152">
        <ele>544.1</ele>
      </trkpt>
      <trkpt lat="44.32907" lon="3.59163">
        <ele>544.2</ele>
      </trkpt>
      <trkpt lat="44.32901" lon="3.59166">
        <ele>544.2</ele>
      </trkpt>
      <trkpt lat="44.32895" lon="3.59168">
        <ele>544.3</ele>
      </trkpt>
      <trkpt lat="44.3289" lon="3.59168">
        <ele>544.3</ele>
      </trkpt>
      <trkpt lat="44.32889" lon="3.59171">
        <ele>544.4</ele>
      </trkpt>
      <trkpt lat="44.32889" lon="3.59174">
        <ele>544.4</ele>
      </trkpt>
      <trkpt lat="44.32887" lon="3.59177">
        <ele>544.4</ele>
      </trkpt>
      <trkpt lat="44.32886" lon="3.59179">
        <ele>544.5</ele>
      </trkpt>
      <trkpt lat="44.32883" lon="3.5918">
        <ele>544.5</ele>
      </trkpt>
      <trkpt lat="44.3288" lon="3.59181">
        <ele>544.5</ele>
      </trkpt>
      <trkpt lat="44.32878" lon="3.5918">
        <ele>544.6</ele>
      </trkpt>
      <trkpt lat="44.32876" lon="3.59179">
        <ele>544.6</ele>
      </trkpt>
      <trkpt lat="44.32873" lon="3.59185">
        <ele>544.6</ele>
      </trkpt>
      <trkpt lat="44.32871" lon="3.5919">
        <ele>544.7</ele>
      </trkpt>
      <trkpt lat="44.32867" lon="3.59196">
        <ele>544.7</ele>
      </trkpt>
      <trkpt lat="44.32862" lon="3.592">
        <ele>544.8</ele>
      </trkpt>
      <trkpt lat="44.32838" lon="3.59219">
        <ele>545</ele>
      </trkpt>
      <trkpt lat="44.32825" lon="3.5923">
        <ele>545.2</ele>
      </trkpt>
      <trkpt lat="44.32814" lon="3.59239">
        <ele>545.3</ele>
      </trkpt>
      <trkpt lat="44.32793" lon="3.59256">
        <ele>545.4</ele>
      </trkpt>
      <trkpt lat="44.32766" lon="3.59277">
        <ele>545.2</ele>
      </trkpt>
      <trkpt lat="44.32746" lon="3.59291">
        <ele>545.2</ele>
      </trkpt>
      <trkpt lat="44.32723" lon="3.59308">
        <ele>545.7</ele>
      </trkpt>
      <trkpt lat="44.32696" lon="3.5933">
        <ele>546</ele>
      </trkpt>
      <trkpt lat="44.32686" lon="3.59338">
        <ele>546.2</ele>
      </trkpt>
      <trkpt lat="44.32666" lon="3.59356">
        <ele>546.5</ele>
      </trkpt>
      <trkpt lat="44.32641" lon="3.59376">
        <ele>546.4</ele>
      </trkpt>
      <trkpt lat="44.32617" lon="3.59394">
        <ele>546.3</ele>
      </trkpt>
      <trkpt lat="44.32614" lon="3.59397">
        <ele>546.3</ele>
      </trkpt>
      <trkpt lat="44.32585" lon="3.59418">
        <ele>546</ele>
      </trkpt>
      <trkpt lat="44.32576" lon="3.59425">
        <ele>546.1</ele>
      </trkpt>
      <trkpt lat="44.32568" lon="3.59431">
        <ele>546.2</ele>
      </trkpt>
      <trkpt lat="44.32563" lon="3.59434">
        <ele>546.3</ele>
      </trkpt>
      <trkpt lat="44.32522" lon="3.59466">
        <ele>547.3</ele>
      </trkpt>
      <trkpt lat="44.32518" lon="3.59469">
        <ele>547.4</ele>
      </trkpt>
      <trkpt lat="44.32516" lon="3.59471">
        <ele>547.5</ele>
      </trkpt>
      <trkpt lat="44.3251" lon="3.59475">
        <ele>547.7</ele>
      </trkpt>
      <trkpt lat="44.32479" lon="3.59501">
        <ele>548.2</ele>
      </trkpt>
      <trkpt lat="44.32477" lon="3.59483">
        <ele>548.4</ele>
      </trkpt>
      <trkpt lat="44.32476" lon="3.5948">
        <ele>548.4</ele>
      </trkpt>
      <trkpt lat="44.32475" lon="3.59476">
        <ele>548.5</ele>
      </trkpt>
      <trkpt lat="44.32471" lon="3.59466">
        <ele>548.6</ele>
      </trkpt>
      <trkpt lat="44.32471" lon="3.59466">
        <ele>548.6</ele>
      </trkpt>
      <trkpt lat="44.32462" lon="3.59441">
        <ele>549.1</ele>
      </trkpt>
      <trkpt lat="44.32459" lon="3.59432">
        <ele>549.3</ele>
      </trkpt>
      <trkpt lat="44.32472" lon="3.59419">
        <ele>549</ele>
      </trkpt>
      <trkpt lat="44.32477" lon="3.59414">
        <ele>549</ele>
      </trkpt>
      <trkpt lat="44.32496" lon="3.59387">
        <ele>549.9</ele>
      </trkpt>
      <trkpt lat="44.32508" lon="3.5937">
        <ele>550.5</ele>
      </trkpt>
      <trkpt lat="44.32529" lon="3.59344">
        <ele>551.1</ele>
      </trkpt>
      <trkpt lat="44.32541" lon="3.59327">
        <ele>551.3</ele>
      </trkpt>
      <trkpt lat="44.32544" lon="3.59322">
        <ele>551.4</ele>
      </trkpt>
      <trkpt lat="44.32545" lon="3.59316">
        <ele>551.6</ele>
      </trkpt>
      <trkpt lat="44.32545" lon="3.5931">
        <ele>551.8</ele>
      </trkpt>
      <trkpt lat="44.32545" lon="3.59307">
        <ele>552</ele>
      </trkpt>
      <trkpt lat="44.32544" lon="3.59303">
        <ele>552.2</ele>
      </trkpt>
      <trkpt lat="44.32541" lon="3.59301">
        <ele>552.4</ele>
      </trkpt>
      <trkpt lat="44.32542" lon="3.59299">
        <ele>552.4</ele>
      </trkpt>
      <trkpt lat="44.32546" lon="3.59285">
        <ele>552.9</ele>
      </trkpt>
      <trkpt lat="44.32547" lon="3.59265">
        <ele>553.7</ele>
      </trkpt>
      <trkpt lat="44.32547" lon="3.59256">
        <ele>554.1</ele>
      </trkpt>
      <trkpt lat="44.32556" lon="3.5925">
        <ele>554</ele>
      </trkpt>
      <trkpt lat="44.3258" lon="3.59238">
        <ele>553.9</ele>
      </trkpt>
      <trkpt lat="44.32588" lon="3.59234">
        <ele>553.8</ele>
      </trkpt>
      <trkpt lat="44.32605" lon="3.59228">
        <ele>553.3</ele>
      </trkpt>
      <trkpt lat="44.32617" lon="3.59225">
        <ele>552.8</ele>
      </trkpt>
      <trkpt lat="44.32619" lon="3.59225">
        <ele>552.7</ele>
      </trkpt>
      <trkpt lat="44.32624" lon="3.59225">
        <ele>552.4</ele>
      </trkpt>
      <trkpt lat="44.32634" lon="3.59226">
        <ele>551.9</ele>
      </trkpt>
      <trkpt lat="44.32645" lon="3.59228">
        <ele>551.3</ele>
      </trkpt>
      <trkpt lat="44.32647" lon="3.59229">
        <ele>551.2</ele>
      </trkpt>
      <trkpt lat="44.3266" lon="3.59231">
        <ele>550.5</ele>
      </trkpt>
      <trkpt lat="44.32674" lon="3.59232">
        <ele>549.9</ele>
      </trkpt>
      <trkpt lat="44.32686" lon="3.59232">
        <ele>549.4</ele>
      </trkpt>
      <trkpt lat="44.32695" lon="3.59231">
        <ele>549.1</ele>
      </trkpt>
      <trkpt lat="44.32708" lon="3.59226">
        <ele>548.6</ele>
      </trkpt>
      <trkpt lat="44.32722" lon="3.59218">
        <ele>548.2</ele>
      </trkpt>
      <trkpt lat="44.32736" lon="3.59206">
        <ele>548.1</ele>
      </trkpt>
      <trkpt lat="44.32737" lon="3.59205">
        <ele>548.1</ele>
      </trkpt>
      <trkpt lat="44.32751" lon="3.5919">
        <ele>548.1</ele>
      </trkpt>
      <trkpt lat="44.32766" lon="3.59172">
        <ele>548.1</ele>
      </trkpt>
      <trkpt lat="44.32769" lon="3.5917">
        <ele>548</ele>
      </trkpt>
      <trkpt lat="44.32786" lon="3.59156">
        <ele>547.4</ele>
      </trkpt>
      <trkpt lat="44.32795" lon="3.59149">
        <ele>547.1</ele>
      </trkpt>
      <trkpt lat="44.32802" lon="3.59145">
        <ele>546.8</ele>
      </trkpt>
      <trkpt lat="44.3282" lon="3.59136">
        <ele>546</ele>
      </trkpt>
      <trkpt lat="44.32836" lon="3.5913">
        <ele>545.4</ele>
      </trkpt>
      <trkpt lat="44.32841" lon="3.59128">
        <ele>545.4</ele>
      </trkpt>
      <trkpt lat="44.32844" lon="3.59128">
        <ele>545.3</ele>
      </trkpt>
      <trkpt lat="44.32847" lon="3.59111">
        <ele>545.5</ele>
      </trkpt>
      <trkpt lat="44.32849" lon="3.59104">
        <ele>545.6</ele>
      </trkpt>
      <trkpt lat="44.3285" lon="3.591">
        <ele>545.6</ele>
      </trkpt>
      <trkpt lat="44.32852" lon="3.59095">
        <ele>545.6</ele>
      </trkpt>
      <trkpt lat="44.32856" lon="3.59089">
        <ele>545.7</ele>
      </trkpt>
      <trkpt lat="44.32863" lon="3.59085">
        <ele>545.6</ele>
      </trkpt>
      <trkpt lat="44.32872" lon="3.59079">
        <ele>545.5</ele>
      </trkpt>
      <trkpt lat="44.32881" lon="3.59071">
        <ele>545.4</ele>
      </trkpt>
      <trkpt lat="44.32897" lon="3.59057">
        <ele>545.2</ele>
      </trkpt>
      <trkpt lat="44.32919" lon="3.59038">
        <ele>544.788647</ele>
        <time>2019-10-07T07:58:53.481Z</time>
      </trkpt>
      <trkpt lat="44.32971" lon="3.59003">
        <ele>544.458948</ele>
        <time>2019-10-07T07:59:05.799Z</time>
      </trkpt>
      <trkpt lat="44.32993" lon="3.5899">
        <ele>544.325312</ele>
        <time>2019-10-07T07:59:10.520Z</time>
      </trkpt>
      <trkpt lat="44.33019" lon="3.58971">
        <ele>544.139898</ele>
        <time>2019-10-07T07:59:16.600Z</time>
      </trkpt>
      <trkpt lat="44.33049" lon="3.58941">
        <ele>543.830432</ele>
        <time>2019-10-07T07:59:24.168Z</time>
      </trkpt>
      <trkpt lat="44.33082" lon="3.58897">
        <ele>543.443642</ele>
        <time>2019-10-07T07:59:33.746Z</time>
      </trkpt>
      <trkpt lat="44.33098" lon="3.58876">
        <ele>543.252736</ele>
        <time>2019-10-07T07:59:38.488Z</time>
      </trkpt>
      <trkpt lat="44.33114" lon="3.58859">
        <ele>543.086193</ele>
        <time>2019-10-07T07:59:42.701Z</time>
      </trkpt>
      <trkpt lat="44.33123" lon="3.58849">
        <ele>542.983038</ele>
        <time>2019-10-07T07:59:45.287Z</time>
      </trkpt>
      <trkpt lat="44.33136" lon="3.58835">
        <ele>542.849271</ele>
        <time>2019-10-07T07:59:48.695Z</time>
      </trkpt>
      <trkpt lat="44.33167" lon="3.58803">
        <ele>542.570323</ele>
        <time>2019-10-07T08:00:02.333Z</time>
      </trkpt>
      <trkpt lat="44.33171" lon="3.58801">
        <ele>542.546901</ele>
        <time>2019-10-07T08:00:03.847Z</time>
      </trkpt>
      <trkpt lat="44.33204" lon="3.58776">
        <ele>542.331622</ele>
        <time>2019-10-07T08:00:17.341Z</time>
      </trkpt>
      <trkpt lat="44.33258" lon="3.58717">
        <ele>541.944436</ele>
        <time>2019-10-07T08:00:41.909Z</time>
      </trkpt>
      <trkpt lat="44.33299" lon="3.5863">
        <ele>541.598824</ele>
        <time>2019-10-07T08:01:08.094Z</time>
      </trkpt>
      <trkpt lat="44.3333" lon="3.58546">
        <ele>541.44657</ele>
        <time>2019-10-07T08:01:31.944Z</time>
      </trkpt>
      <trkpt lat="44.33356" lon="3.58496">
        <ele>541.345379</ele>
        <time>2019-10-07T08:01:48.395Z</time>
      </trkpt>
      <trkpt lat="44.33369" lon="3.58469">
        <ele>541.29294</ele>
        <time>2019-10-07T08:01:56.923Z</time>
      </trkpt>
      <trkpt lat="44.33396" lon="3.58429">
        <ele>541.459628</ele>
        <time>2019-10-07T08:02:12.189Z</time>
      </trkpt>
      <trkpt lat="44.33424" lon="3.58404">
        <ele>541.910247</ele>
        <time>2019-10-07T08:02:25.653Z</time>
      </trkpt>
      <trkpt lat="44.33441" lon="3.58399">
        <ele>542.141854</ele>
        <time>2019-10-07T08:02:30.659Z</time>
      </trkpt>
      <trkpt lat="44.33561" lon="3.58442">
        <ele>543.895199</ele>
        <time>2019-10-07T08:03:10.134Z</time>
      </trkpt>
      <trkpt lat="44.33598" lon="3.58441">
        <ele>544.635706</ele>
        <time>2019-10-07T08:03:22.813Z</time>
      </trkpt>
      <trkpt lat="44.33617" lon="3.58435">
        <ele>545.028756</ele>
        <time>2019-10-07T08:03:29.507Z</time>
      </trkpt>
      <trkpt lat="44.33673" lon="3.58392">
        <ele>546.33077</ele>
        <time>2019-10-07T08:03:51.480Z</time>
      </trkpt>
      <trkpt lat="44.33688" lon="3.58387">
        <ele>546.646651</ele>
        <time>2019-10-07T08:03:56.731Z</time>
      </trkpt>
      <trkpt lat="44.33699" lon="3.58376">
        <ele>546.910612</ele>
        <time>2019-10-07T08:04:01.167Z</time>
      </trkpt>
      <trkpt lat="44.33878" lon="3.58268">
        <ele>549.997616</ele>
        <time>2019-10-07T08:05:02.236Z</time>
      </trkpt>
      <trkpt lat="44.3395" lon="3.58186">
        <ele>551.073982</ele>
        <time>2019-10-07T08:05:27.242Z</time>
      </trkpt>
      <trkpt lat="44.3395" lon="3.58186">
        <ele>551.073982</ele>
        <time>2019-10-07T08:05:27.287Z</time>
      </trkpt>
      <trkpt lat="44.33988" lon="3.58117">
        <ele>551.778234</ele>
        <time>2019-10-07T08:05:45.200Z</time>
      </trkpt>
      <trkpt lat="44.34026" lon="3.58072">
        <ele>552.605887</ele>
        <time>2019-10-07T08:06:00.810Z</time>
      </trkpt>
      <trkpt lat="44.34042" lon="3.58038">
        <ele>553.292082</ele>
        <time>2019-10-07T08:06:09.590Z</time>
      </trkpt>
      <trkpt lat="44.34063" lon="3.58006">
        <ele>554.021566</ele>
        <time>2019-10-07T08:06:19.642Z</time>
      </trkpt>
      <trkpt lat="44.34076" lon="3.57989">
        <ele>554.435921</ele>
        <time>2019-10-07T08:06:25.752Z</time>
      </trkpt>
      <trkpt lat="44.34097" lon="3.5797">
        <ele>555.036902</ele>
        <time>2019-10-07T08:06:37.394Z</time>
      </trkpt>
      <trkpt lat="44.34128" lon="3.57958">
        <ele>555.80013</ele>
        <time>2019-10-07T08:06:52.647Z</time>
      </trkpt>
      <trkpt lat="44.34144" lon="3.5794">
        <ele>556.290113</ele>
        <time>2019-10-07T08:07:03.591Z</time>
      </trkpt>
      <trkpt lat="44.34165" lon="3.57902">
        <ele>558.273734</ele>
        <time>2019-10-07T08:07:24.958Z</time>
      </trkpt>
      <trkpt lat="44.3422" lon="3.57844">
        <ele>562.456929</ele>
        <time>2019-10-07T08:08:10.716Z</time>
      </trkpt>
      <trkpt lat="44.34238" lon="3.57797">
        <ele>564.779112</ele>
        <time>2019-10-07T08:08:37.534Z</time>
      </trkpt>
      <trkpt lat="44.34236" lon="3.57789">
        <ele>565.135079</ele>
        <time>2019-10-07T08:08:42.305Z</time>
      </trkpt>
      <trkpt lat="44.34233" lon="3.57763">
        <ele>566.312844</ele>
        <time>2019-10-07T08:08:52.909Z</time>
      </trkpt>
      <trkpt lat="44.34235" lon="3.57757">
        <ele>566.595842</ele>
        <time>2019-10-07T08:08:57.892Z</time>
      </trkpt>
      <trkpt lat="44.34252" lon="3.57691">
        <ele>569.94634</ele>
        <time>2019-10-07T08:09:36.294Z</time>
      </trkpt>
      <trkpt lat="44.34289" lon="3.5758">
        <ele>575.948439</ele>
        <time>2019-10-07T08:10:44.218Z</time>
      </trkpt>
      <trkpt lat="44.34296" lon="3.57538">
        <ele>578.072444</ele>
        <time>2019-10-07T08:11:06.407Z</time>
      </trkpt>
      <trkpt lat="44.34291" lon="3.57481">
        <ele>579.753667</ele>
        <time>2019-10-07T08:11:29.775Z</time>
      </trkpt>
      <trkpt lat="44.34315" lon="3.57399">
        <ele>580.031276</ele>
        <time>2019-10-07T08:11:59.142Z</time>
      </trkpt>
      <trkpt lat="44.34334" lon="3.57378">
        <ele>580.135987</ele>
        <time>2019-10-07T08:12:07.806Z</time>
      </trkpt>
      <trkpt lat="44.34367" lon="3.5737">
        <ele>580.281415</ele>
        <time>2019-10-07T08:12:19.124Z</time>
      </trkpt>
      <trkpt lat="44.34389" lon="3.57354">
        <ele>580.390953</ele>
        <time>2019-10-07T08:12:27.277Z</time>
      </trkpt>
      <trkpt lat="44.34408" lon="3.57304">
        <ele>579.310758</ele>
        <time>2019-10-07T08:12:40.179Z</time>
      </trkpt>
      <trkpt lat="44.34407" lon="3.57291">
        <ele>578.859145</ele>
        <time>2019-10-07T08:12:43.010Z</time>
      </trkpt>
      <trkpt lat="44.34411" lon="3.57285">
        <ele>578.551474</ele>
        <time>2019-10-07T08:12:44.913Z</time>
      </trkpt>
      <trkpt lat="44.34438" lon="3.57293">
        <ele>577.261879</ele>
        <time>2019-10-07T08:12:52.658Z</time>
      </trkpt>
      <trkpt lat="44.34522" lon="3.57214">
        <ele>572.382117</ele>
        <time>2019-10-07T08:13:21.379Z</time>
      </trkpt>
      <trkpt lat="44.34536" lon="3.57213">
        <ele>571.69477</ele>
        <time>2019-10-07T08:13:25.187Z</time>
      </trkpt>
      <trkpt lat="44.34541" lon="3.57205">
        <ele>571.196385</ele>
        <time>2019-10-07T08:13:27.293Z</time>
      </trkpt>
      <trkpt lat="44.34548" lon="3.57163">
        <ele>569.160552</ele>
        <time>2019-10-07T08:13:35.939Z</time>
      </trkpt>
      <trkpt lat="44.34559" lon="3.57137">
        <ele>567.745428</ele>
        <time>2019-10-07T08:13:41.939Z</time>
      </trkpt>
      <trkpt lat="44.34569" lon="3.57141">
        <ele>567.036677</ele>
        <time>2019-10-07T08:13:44.859Z</time>
      </trkpt>
      <trkpt lat="44.34589" lon="3.57179">
        <ele>564.797412</ele>
        <time>2019-10-07T08:13:54.027Z</time>
      </trkpt>
      <trkpt lat="44.34604" lon="3.57186">
        <ele>563.702086</ele>
        <time>2019-10-07T08:13:58.448Z</time>
      </trkpt>
      <trkpt lat="44.34661" lon="3.57183">
        <ele>559.936501</ele>
        <time>2019-10-07T08:14:13.848Z</time>
      </trkpt>
      <trkpt lat="44.34672" lon="3.57188">
        <ele>559.394024</ele>
        <time>2019-10-07T08:14:16.861Z</time>
      </trkpt>
      <trkpt lat="44.34693" lon="3.57175">
        <ele>558.284491</ele>
        <time>2019-10-07T08:14:23.427Z</time>
      </trkpt>
      <trkpt lat="44.34738" lon="3.57179">
        <ele>556.129032</ele>
        <time>2019-10-07T08:14:36.178Z</time>
      </trkpt>
      <trkpt lat="44.3477" lon="3.57165">
        <ele>554.518972</ele>
        <time>2019-10-07T08:14:45.986Z</time>
      </trkpt>
      <trkpt lat="44.34795" lon="3.57179">
        <ele>553.200793</ele>
        <time>2019-10-07T08:14:54.034Z</time>
      </trkpt>
      <trkpt lat="44.34816" lon="3.57178">
        <ele>552.171737</ele>
        <time>2019-10-07T08:15:00.380Z</time>
      </trkpt>
      <trkpt lat="44.34886" lon="3.57204">
        <ele>550.767595</ele>
        <time>2019-10-07T08:15:22.848Z</time>
      </trkpt>
      <trkpt lat="44.34912" lon="3.57203">
        <ele>550.526746</ele>
        <time>2019-10-07T08:15:31.837Z</time>
      </trkpt>
      <trkpt lat="44.34934" lon="3.57217">
        <ele>550.297858</ele>
        <time>2019-10-07T08:15:40.494Z</time>
      </trkpt>
      <trkpt lat="44.34948" lon="3.57236">
        <ele>550.114505</ele>
        <time>2019-10-07T08:15:47.763Z</time>
      </trkpt>
      <trkpt lat="44.35028" lon="3.57277">
        <ele>550.70933</ele>
        <time>2019-10-07T08:16:21.826Z</time>
      </trkpt>
      <trkpt lat="44.35076" lon="3.57308">
        <ele>552.84979</ele>
        <time>2019-10-07T08:16:47.174Z</time>
      </trkpt>
      <trkpt lat="44.35124" lon="3.57316">
        <ele>554.780983</ele>
        <time>2019-10-07T08:17:13.504Z</time>
      </trkpt>
      <trkpt lat="44.35151" lon="3.5733">
        <ele>555.939874</ele>
        <time>2019-10-07T08:17:30.804Z</time>
      </trkpt>
      <trkpt lat="44.3519" lon="3.57331">
        <ele>559.010299</ele>
        <time>2019-10-07T08:18:03.095Z</time>
      </trkpt>
      <trkpt lat="44.35246" lon="3.57302">
        <ele>566.828024</ele>
        <time>2019-10-07T08:19:02.229Z</time>
      </trkpt>
      <trkpt lat="44.35283" lon="3.57303">
        <ele>571.568677</ele>
        <time>2019-10-07T08:19:44.644Z</time>
      </trkpt>
      <trkpt lat="44.35298" lon="3.57303">
        <ele>573.551633</ele>
        <time>2019-10-07T08:20:01.892Z</time>
      </trkpt>
      <trkpt lat="44.35299" lon="3.57283">
        <ele>575.352573</ele>
        <time>2019-10-07T08:20:18.245Z</time>
      </trkpt>
      <trkpt lat="44.35274" lon="3.57185">
        <ele>584.154818</ele>
        <time>2019-10-07T08:21:39.985Z</time>
      </trkpt>
      <trkpt lat="44.35278" lon="3.57173">
        <ele>585.097737</ele>
        <time>2019-10-07T08:21:52.333Z</time>
      </trkpt>
      <trkpt lat="44.35281" lon="3.57162">
        <ele>586.015512</ele>
        <time>2019-10-07T08:22:00.178Z</time>
      </trkpt>
      <trkpt lat="44.35285" lon="3.57129">
        <ele>588.578423</ele>
        <time>2019-10-07T08:22:25.515Z</time>
      </trkpt>
      <trkpt lat="44.3528" lon="3.57104">
        <ele>590.518312</ele>
        <time>2019-10-07T08:22:43.481Z</time>
      </trkpt>
      <trkpt lat="44.35284" lon="3.57063">
        <ele>593.637874</ele>
        <time>2019-10-07T08:23:11.745Z</time>
      </trkpt>
      <trkpt lat="44.35283" lon="3.57018">
        <ele>597.069294</ele>
        <time>2019-10-07T08:23:34.398Z</time>
      </trkpt>
      <trkpt lat="44.35291" lon="3.56955">
        <ele>599.130238</ele>
        <time>2019-10-07T08:24:01.673Z</time>
      </trkpt>
      <trkpt lat="44.35293" lon="3.56834">
        <ele>598.824087</ele>
        <time>2019-10-07T08:24:31.692Z</time>
      </trkpt>
      <trkpt lat="44.35282" lon="3.56809">
        <ele>598.750965</ele>
        <time>2019-10-07T08:24:38.379Z</time>
      </trkpt>
      <trkpt lat="44.35283" lon="3.56782">
        <ele>598.68322</ele>
        <time>2019-10-07T08:24:44.402Z</time>
      </trkpt>
      <trkpt lat="44.35283" lon="3.56782">
        <ele>598.68322</ele>
        <time>2019-10-07T08:24:44.407Z</time>
      </trkpt>
      <trkpt lat="44.35291" lon="3.56761">
        <ele>598.621172</ele>
        <time>2019-10-07T08:24:49.878Z</time>
      </trkpt>
      <trkpt lat="44.35297" lon="3.5669">
        <ele>597.432653</ele>
        <time>2019-10-07T08:25:05.337Z</time>
      </trkpt>
      <trkpt lat="44.35295" lon="3.56662">
        <ele>596.868555</ele>
        <time>2019-10-07T08:25:11.392Z</time>
      </trkpt>
      <trkpt lat="44.35275" lon="3.56622">
        <ele>595.86999</ele>
        <time>2019-10-07T08:25:22.251Z</time>
      </trkpt>
      <trkpt lat="44.35258" lon="3.56606">
        <ele>595.310878</ele>
        <time>2019-10-07T08:25:28.301Z</time>
      </trkpt>
      <trkpt lat="44.35222" lon="3.56553">
        <ele>593.837863</ele>
        <time>2019-10-07T08:25:44.025Z</time>
      </trkpt>
      <trkpt lat="44.35218" lon="3.56536">
        <ele>593.562366</ele>
        <time>2019-10-07T08:25:48.473Z</time>
      </trkpt>
      <trkpt lat="44.35228" lon="3.56524">
        <ele>594.03886</ele>
        <time>2019-10-07T08:25:53.177Z</time>
      </trkpt>
      <trkpt lat="44.35279" lon="3.56515">
        <ele>595.8387</ele>
        <time>2019-10-07T08:26:16.027Z</time>
      </trkpt>
      <trkpt lat="44.35288" lon="3.56509">
        <ele>596.164692</ele>
        <time>2019-10-07T08:26:21.201Z</time>
      </trkpt>
      <trkpt lat="44.35295" lon="3.56488">
        <ele>596.738282</ele>
        <time>2019-10-07T08:26:29.500Z</time>
      </trkpt>
      <trkpt lat="44.35298" lon="3.56437">
        <ele>598.026432</ele>
        <time>2019-10-07T08:26:53.273Z</time>
      </trkpt>
      <trkpt lat="44.35302" lon="3.56363">
        <ele>599.931859</ele>
        <time>2019-10-07T08:27:33.057Z</time>
      </trkpt>
      <trkpt lat="44.35312" lon="3.56312">
        <ele>602.026115</ele>
        <time>2019-10-07T08:28:00.233Z</time>
      </trkpt>
      <trkpt lat="44.3533" lon="3.56254">
        <ele>604.58363</ele>
        <time>2019-10-07T08:28:32.581Z</time>
      </trkpt>
      <trkpt lat="44.35329" lon="3.5622">
        <ele>605.93093</ele>
        <time>2019-10-07T08:28:51.479Z</time>
      </trkpt>
      <trkpt lat="44.35359" lon="3.56171">
        <ele>608.541824</ele>
        <time>2019-10-07T08:29:22.103Z</time>
      </trkpt>
      <trkpt lat="44.3534" lon="3.56076">
        <ele>608.604131</ele>
        <time>2019-10-07T08:29:52.510Z</time>
      </trkpt>
      <trkpt lat="44.35345" lon="3.56069">
        <ele>608.40908</ele>
        <time>2019-10-07T08:29:54.942Z</time>
      </trkpt>
      <trkpt lat="44.35393" lon="3.56068">
        <ele>607.125179</ele>
        <time>2019-10-07T08:30:09.307Z</time>
      </trkpt>
      <trkpt lat="44.3542" lon="3.56082">
        <ele>606.344532</ele>
        <time>2019-10-07T08:30:17.633Z</time>
      </trkpt>
      <trkpt lat="44.35438" lon="3.5608">
        <ele>605.859499</ele>
        <time>2019-10-07T08:30:22.686Z</time>
      </trkpt>
      <trkpt lat="44.35446" lon="3.56073">
        <ele>605.594323</ele>
        <time>2019-10-07T08:30:25.483Z</time>
      </trkpt>
      <trkpt lat="44.3545" lon="3.56057">
        <ele>605.266782</ele>
        <time>2019-10-07T08:30:29.005Z</time>
      </trkpt>
      <trkpt lat="44.35436" lon="3.56018">
        <ele>603.780915</ele>
        <time>2019-10-07T08:30:37.783Z</time>
      </trkpt>
      <trkpt lat="44.35441" lon="3.55994">
        <ele>602.786034</ele>
        <time>2019-10-07T08:30:42.701Z</time>
      </trkpt>
      <trkpt lat="44.35449" lon="3.55993">
        <ele>602.359625</ele>
        <time>2019-10-07T08:30:44.782Z</time>
      </trkpt>
      <trkpt lat="44.35474" lon="3.56009">
        <ele>600.804957</ele>
        <time>2019-10-07T08:30:52.419Z</time>
      </trkpt>
      <trkpt lat="44.35539" lon="3.55989">
        <ele>597.043816</ele>
        <time>2019-10-07T08:31:10.953Z</time>
      </trkpt>
      <trkpt lat="44.35615" lon="3.55975">
        <ele>593.765147</ele>
        <time>2019-10-07T08:31:33.369Z</time>
      </trkpt>
      <trkpt lat="44.35659" lon="3.55989">
        <ele>592.490319</ele>
        <time>2019-10-07T08:31:47.312Z</time>
      </trkpt>
      <trkpt lat="44.35717" lon="3.55988">
        <ele>590.820742</ele>
        <time>2019-10-07T08:32:06.046Z</time>
      </trkpt>
      <trkpt lat="44.35772" lon="3.55963">
        <ele>589.218304</ele>
        <time>2019-10-07T08:32:25.421Z</time>
      </trkpt>
      <trkpt lat="44.35805" lon="3.55929">
        <ele>588.164584</ele>
        <time>2019-10-07T08:32:39.091Z</time>
      </trkpt>
      <trkpt lat="44.3583" lon="3.55929">
        <ele>587.503158</ele>
        <time>2019-10-07T08:32:47.541Z</time>
      </trkpt>
      <trkpt lat="44.35843" lon="3.5592">
        <ele>587.130755</ele>
        <time>2019-10-07T08:32:51.915Z</time>
      </trkpt>
      <trkpt lat="44.35874" lon="3.55873">
        <ele>585.94094</ele>
        <time>2019-10-07T08:33:05.781Z</time>
      </trkpt>
      <trkpt lat="44.35878" lon="3.55879">
        <ele>585.802123</ele>
        <time>2019-10-07T08:33:07.407Z</time>
      </trkpt>
      <trkpt lat="44.35864" lon="3.55929">
        <ele>584.686712</ele>
        <time>2019-10-07T08:33:18.902Z</time>
      </trkpt>
      <trkpt lat="44.35831" lon="3.55982">
        <ele>582.655744</ele>
        <time>2019-10-07T08:33:34.490Z</time>
      </trkpt>
      <trkpt lat="44.35836" lon="3.55985">
        <ele>582.451861</ele>
        <time>2019-10-07T08:33:35.851Z</time>
      </trkpt>
      <trkpt lat="44.3587" lon="3.55969">
        <ele>581.025905</ele>
        <time>2019-10-07T08:33:42.074Z</time>
      </trkpt>
      <trkpt lat="44.35888" lon="3.55954">
        <ele>580.178792</ele>
        <time>2019-10-07T08:33:45.847Z</time>
      </trkpt>
      <trkpt lat="44.359" lon="3.55926">
        <ele>579.246876</ele>
        <time>2019-10-07T08:33:49.769Z</time>
      </trkpt>
      <trkpt lat="44.35927" lon="3.55886">
        <ele>577.674</ele>
        <time>2019-10-07T08:33:56.492Z</time>
      </trkpt>
      <trkpt lat="44.35932" lon="3.55831">
        <ele>576.155031</ele>
        <time>2019-10-07T08:34:03.207Z</time>
      </trkpt>
      <trkpt lat="44.35949" lon="3.55749">
        <ele>573.820385</ele>
        <time>2019-10-07T08:34:14.004Z</time>
      </trkpt>
      <trkpt lat="44.35949" lon="3.55726">
        <ele>573.194967</ele>
        <time>2019-10-07T08:34:16.977Z</time>
      </trkpt>
      <trkpt lat="44.35922" lon="3.55685">
        <ele>571.669632</ele>
        <time>2019-10-07T08:34:24.089Z</time>
      </trkpt>
      <trkpt lat="44.35927" lon="3.55675">
        <ele>571.361531</ele>
        <time>2019-10-07T08:34:25.467Z</time>
      </trkpt>
      <trkpt lat="44.35955" lon="3.55663">
        <ele>570.216108</ele>
        <time>2019-10-07T08:34:30.518Z</time>
      </trkpt>
      <trkpt lat="44.3598" lon="3.55671">
        <ele>569.161164</ele>
        <time>2019-10-07T08:34:34.994Z</time>
      </trkpt>
      <trkpt lat="44.35999" lon="3.55668">
        <ele>568.426938</ele>
        <time>2019-10-07T08:34:38.069Z</time>
      </trkpt>
      <trkpt lat="44.36022" lon="3.55651">
        <ele>567.384578</ele>
        <time>2019-10-07T08:34:42.499Z</time>
      </trkpt>
      <trkpt lat="44.36045" lon="3.55619">
        <ele>566.076756</ele>
        <time>2019-10-07T08:34:48.085Z</time>
      </trkpt>
      <trkpt lat="44.36074" lon="3.55596">
        <ele>564.752482</ele>
        <time>2019-10-07T08:34:53.849Z</time>
      </trkpt>
      <trkpt lat="44.36089" lon="3.5557">
        <ele>563.806448</ele>
        <time>2019-10-07T08:34:58.068Z</time>
      </trkpt>
      <trkpt lat="44.36116" lon="3.55544">
        <ele>563.270317</ele>
        <time>2019-10-07T08:35:04.073Z</time>
      </trkpt>
      <trkpt lat="44.36118" lon="3.5551">
        <ele>562.87048</ele>
        <time>2019-10-07T08:35:08.671Z</time>
      </trkpt>
      <trkpt lat="44.36139" lon="3.55483">
        <ele>562.407083</ele>
        <time>2019-10-07T08:35:14.020Z</time>
      </trkpt>
      <trkpt lat="44.36148" lon="3.55461">
        <ele>562.122463</ele>
        <time>2019-10-07T08:35:17.312Z</time>
      </trkpt>
      <trkpt lat="44.36156" lon="3.55457">
        <ele>561.983589</ele>
        <time>2019-10-07T08:35:18.929Z</time>
      </trkpt>
      <trkpt lat="44.362" lon="3.55519">
        <ele>560.970904</ele>
        <time>2019-10-07T08:35:31.830Z</time>
      </trkpt>
      <trkpt lat="44.36211" lon="3.55515">
        <ele>561.161386</ele>
        <time>2019-10-07T08:35:34.991Z</time>
      </trkpt>
      <trkpt lat="44.36235" lon="3.55485">
        <ele>562.646135</ele>
        <time>2019-10-07T08:35:46.215Z</time>
      </trkpt>
      <trkpt lat="44.36258" lon="3.55428">
        <ele>564.773647</ele>
        <time>2019-10-07T08:36:06.731Z</time>
      </trkpt>
      <trkpt lat="44.36277" lon="3.55418">
        <ele>565.683324</ele>
        <time>2019-10-07T08:36:16.614Z</time>
      </trkpt>
      <trkpt lat="44.36307" lon="3.55419">
        <ele>567.019738</ele>
        <time>2019-10-07T08:36:32.234Z</time>
      </trkpt>
      <trkpt lat="44.36336" lon="3.5541">
        <ele>568.369927</ele>
        <time>2019-10-07T08:36:49.084Z</time>
      </trkpt>
      <trkpt lat="44.36358" lon="3.55396">
        <ele>569.835092</ele>
        <time>2019-10-07T08:37:04.012Z</time>
      </trkpt>
      <trkpt lat="44.36418" lon="3.55315">
        <ele>576.374213</ele>
        <time>2019-10-07T08:37:58.538Z</time>
      </trkpt>
      <trkpt lat="44.36525" lon="3.55202">
        <ele>585.676479</ele>
        <time>2019-10-07T08:39:23.281Z</time>
      </trkpt>
      <trkpt lat="44.36539" lon="3.55208">
        <ele>586.441684</ele>
        <time>2019-10-07T08:39:30.476Z</time>
      </trkpt>
      <trkpt lat="44.36583" lon="3.55207">
        <ele>588.684491</ele>
        <time>2019-10-07T08:39:50.934Z</time>
      </trkpt>
      <trkpt lat="44.36632" lon="3.55223">
        <ele>591.22766</ele>
        <time>2019-10-07T08:40:12.001Z</time>
      </trkpt>
      <trkpt lat="44.36646" lon="3.55222">
        <ele>591.934757</ele>
        <time>2019-10-07T08:40:17.230Z</time>
      </trkpt>
      <trkpt lat="44.36662" lon="3.55211">
        <ele>592.582628</ele>
        <time>2019-10-07T08:40:24.302Z</time>
      </trkpt>
      <trkpt lat="44.3669" lon="3.5517">
        <ele>593.354479</ele>
        <time>2019-10-07T08:40:38.981Z</time>
      </trkpt>
      <trkpt lat="44.36718" lon="3.55167">
        <ele>593.889303</ele>
        <time>2019-10-07T08:40:48.925Z</time>
      </trkpt>
      <trkpt lat="44.36736" lon="3.55178">
        <ele>594.266008</ele>
        <time>2019-10-07T08:40:55.415Z</time>
      </trkpt>
      <trkpt lat="44.36761" lon="3.5521">
        <ele>594.909649</ele>
        <time>2019-10-07T08:41:06.043Z</time>
      </trkpt>
      <trkpt lat="44.36838" lon="3.55218">
        <ele>595.647761</ele>
        <time>2019-10-07T08:41:27.442Z</time>
      </trkpt>
      <trkpt lat="44.36851" lon="3.55217">
        <ele>595.544198</ele>
        <time>2019-10-07T08:41:30.840Z</time>
      </trkpt>
      <trkpt lat="44.36864" lon="3.55217">
        <ele>595.443877</ele>
        <time>2019-10-07T08:41:34.142Z</time>
      </trkpt>
      <trkpt lat="44.36916" lon="3.55202">
        <ele>595.028033</ele>
        <time>2019-10-07T08:41:45.646Z</time>
      </trkpt>
      <trkpt lat="44.36936" lon="3.55203">
        <ele>594.875857</ele>
        <time>2019-10-07T08:41:49.650Z</time>
      </trkpt>
      <trkpt lat="44.36993" lon="3.55223">
        <ele>594.294207</ele>
        <time>2019-10-07T08:42:00.890Z</time>
      </trkpt>
      <trkpt lat="44.37059" lon="3.55236">
        <ele>592.313939</ele>
        <time>2019-10-07T08:42:12.874Z</time>
      </trkpt>
      <trkpt lat="44.37097" lon="3.55251">
        <ele>591.143049</ele>
        <time>2019-10-07T08:42:19.891Z</time>
      </trkpt>
      <trkpt lat="44.37126" lon="3.55254">
        <ele>590.298705</ele>
        <time>2019-10-07T08:42:24.992Z</time>
      </trkpt>
      <trkpt lat="44.37185" lon="3.55247">
        <ele>588.744389</ele>
        <time>2019-10-07T08:42:35.623Z</time>
      </trkpt>
      <trkpt lat="44.37295" lon="3.55194">
        <ele>586.450976</ele>
        <time>2019-10-07T08:42:57.732Z</time>
      </trkpt>
      <trkpt lat="44.37391" lon="3.55176">
        <ele>585.376341</ele>
        <time>2019-10-07T08:43:18.093Z</time>
      </trkpt>
      <trkpt lat="44.37405" lon="3.55164">
        <ele>585.31175</ele>
        <time>2019-10-07T08:43:21.850Z</time>
      </trkpt>
      <trkpt lat="44.37428" lon="3.55125">
        <ele>585.17193</ele>
        <time>2019-10-07T08:43:30.209Z</time>
      </trkpt>
      <trkpt lat="44.37483" lon="3.55064">
        <ele>584.902733</ele>
        <time>2019-10-07T08:43:46.862Z</time>
      </trkpt>
      <trkpt lat="44.37492" lon="3.55047">
        <ele>584.677511</ele>
        <time>2019-10-07T08:43:50.520Z</time>
      </trkpt>
      <trkpt lat="44.37495" lon="3.54985">
        <ele>583.875439</ele>
        <time>2019-10-07T08:44:00.610Z</time>
      </trkpt>
      <trkpt lat="44.37474" lon="3.54871">
        <ele>582.354428</ele>
        <time>2019-10-07T08:44:17.148Z</time>
      </trkpt>
      <trkpt lat="44.37472" lon="3.54798">
        <ele>580.950363</ele>
        <time>2019-10-07T08:44:26.329Z</time>
      </trkpt>
      <trkpt lat="44.37453" lon="3.54661">
        <ele>575.217057</ele>
        <time>2019-10-07T08:44:42.810Z</time>
      </trkpt>
      <trkpt lat="44.37445" lon="3.54569">
        <ele>571.462805</ele>
        <time>2019-10-07T08:44:53.229Z</time>
      </trkpt>
      <trkpt lat="44.37433" lon="3.54528">
        <ele>569.21864</ele>
        <time>2019-10-07T08:44:58.247Z</time>
      </trkpt>
      <trkpt lat="44.37433" lon="3.54508">
        <ele>568.227572</ele>
        <time>2019-10-07T08:45:00.435Z</time>
      </trkpt>
      <trkpt lat="44.37419" lon="3.54441">
        <ele>564.670062</ele>
        <time>2019-10-07T08:45:08.271Z</time>
      </trkpt>
      <trkpt lat="44.37396" lon="3.54403">
        <ele>562.170712</ele>
        <time>2019-10-07T08:45:13.822Z</time>
      </trkpt>
      <trkpt lat="44.37348" lon="3.54346">
        <ele>557.700718</ele>
        <time>2019-10-07T08:45:23.915Z</time>
      </trkpt>
      <trkpt lat="44.37331" lon="3.54327">
        <ele>556.245781</ele>
        <time>2019-10-07T08:45:27.210Z</time>
      </trkpt>
      <trkpt lat="44.37217" lon="3.54258">
        <ele>547.498691</ele>
        <time>2019-10-07T08:45:46.930Z</time>
      </trkpt>
      <trkpt lat="44.37194" lon="3.54236">
        <ele>545.383396</ele>
        <time>2019-10-07T08:45:51.312Z</time>
      </trkpt>
      <trkpt lat="44.37129" lon="3.54207">
        <ele>539.059614</ele>
        <time>2019-10-07T08:46:01.619Z</time>
      </trkpt>
      <trkpt lat="44.37083" lon="3.54129">
        <ele>532.316485</ele>
        <time>2019-10-07T08:46:12.283Z</time>
      </trkpt>
      <trkpt lat="44.37063" lon="3.54111">
        <ele>530.082142</ele>
        <time>2019-10-07T08:46:15.836Z</time>
      </trkpt>
      <trkpt lat="44.37036" lon="3.54093">
        <ele>527.837732</ele>
        <time>2019-10-07T08:46:20.248Z</time>
      </trkpt>
      <trkpt lat="44.3704" lon="3.54082">
        <ele>527.255938</ele>
        <time>2019-10-07T08:46:21.559Z</time>
      </trkpt>
      <trkpt lat="44.37042" lon="3.54074">
        <ele>526.844484</ele>
        <time>2019-10-07T08:46:22.461Z</time>
      </trkpt>
      <trkpt lat="44.37049" lon="3.54057">
        <ele>525.876772</ele>
        <time>2019-10-07T08:46:24.661Z</time>
      </trkpt>
      <trkpt lat="44.37058" lon="3.54058">
        <ele>525.314197</ele>
        <time>2019-10-07T08:46:25.903Z</time>
      </trkpt>
      <trkpt lat="44.37074" lon="3.54062">
        <ele>524.171719</ele>
        <time>2019-10-07T08:46:28.495Z</time>
      </trkpt>
      <trkpt lat="44.37082" lon="3.54056">
        <ele>523.569797</ele>
        <time>2019-10-07T08:46:29.924Z</time>
      </trkpt>
      <trkpt lat="44.37089" lon="3.54037">
        <ele>522.578437</ele>
        <time>2019-10-07T08:46:32.188Z</time>
      </trkpt>
      <trkpt lat="44.37113" lon="3.53946">
        <ele>517.863295</ele>
        <time>2019-10-07T08:46:51.789Z</time>
      </trkpt>
      <trkpt lat="44.37116" lon="3.53943">
        <ele>517.622699</ele>
        <time>2019-10-07T08:46:53.023Z</time>
      </trkpt>
      <trkpt lat="44.3716" lon="3.53959">
        <ele>517.707243</ele>
        <time>2019-10-07T08:47:08.862Z</time>
      </trkpt>
      <trkpt lat="44.37164" lon="3.53953">
        <ele>517.79119</ele>
        <time>2019-10-07T08:47:11.608Z</time>
      </trkpt>
      <trkpt lat="44.37117" lon="3.53932">
        <ele>518.593238</ele>
        <time>2019-10-07T08:47:26.391Z</time>
      </trkpt>
      <trkpt lat="44.37109" lon="3.53928">
        <ele>518.721196</ele>
        <time>2019-10-07T08:47:29.953Z</time>
      </trkpt>
      <trkpt lat="44.37092" lon="3.53914">
        <ele>519.039488</ele>
        <time>2019-10-07T08:47:37.778Z</time>
      </trkpt>
      <trkpt lat="44.37083" lon="3.53895">
        <ele>519.311598</ele>
        <time>2019-10-07T08:47:44.829Z</time>
      </trkpt>
      <trkpt lat="44.37075" lon="3.53868">
        <ele>519.649435</ele>
        <time>2019-10-07T08:47:53.818Z</time>
      </trkpt>
      <trkpt lat="44.37069" lon="3.5385">
        <ele>519.872932</ele>
        <time>2019-10-07T08:47:59.689Z</time>
      </trkpt>
      <trkpt lat="44.37063" lon="3.53834">
        <ele>520.12256</ele>
        <time>2019-10-07T08:48:05.404Z</time>
      </trkpt>
      <trkpt lat="44.3706" lon="3.53826">
        <ele>520.276753</ele>
        <time>2019-10-07T08:48:08.324Z</time>
      </trkpt>
      <trkpt lat="44.37031" lon="3.53784">
        <ele>521.257919</ele>
        <time>2019-10-07T08:48:24.699Z</time>
      </trkpt>
      <trkpt lat="44.37026" lon="3.53771">
        <ele>521.516047</ele>
        <time>2019-10-07T08:48:29.217Z</time>
      </trkpt>
      <trkpt lat="44.37027" lon="3.53755">
        <ele>521.797463</ele>
        <time>2019-10-07T08:48:34.091Z</time>
      </trkpt>
      <trkpt lat="44.37032" lon="3.53738">
        <ele>522.108401</ele>
        <time>2019-10-07T08:48:38.790Z</time>
      </trkpt>
      <trkpt lat="44.37035" lon="3.53723">
        <ele>522.377863</ele>
        <time>2019-10-07T08:48:42.503Z</time>
      </trkpt>
      <trkpt lat="44.37038" lon="3.53711">
        <ele>522.59524</ele>
        <time>2019-10-07T08:48:45.963Z</time>
      </trkpt>
      <trkpt lat="44.37047" lon="3.53665">
        <ele>523.401079</ele>
        <time>2019-10-07T08:48:56.681Z</time>
      </trkpt>
      <trkpt lat="44.37058" lon="3.53611">
        <ele>524.250173</ele>
        <time>2019-10-07T08:49:06.842Z</time>
      </trkpt>
      <trkpt lat="44.37061" lon="3.53593">
        <ele>524.046334</ele>
        <time>2019-10-07T08:49:09.619Z</time>
      </trkpt>
      <trkpt lat="44.37062" lon="3.53588">
        <ele>523.989306</ele>
        <time>2019-10-07T08:49:10.422Z</time>
      </trkpt>
      <trkpt lat="44.37073" lon="3.53539">
        <ele>523.432425</ele>
        <time>2019-10-07T08:49:18.103Z</time>
      </trkpt>
      <trkpt lat="44.37075" lon="3.53526">
        <ele>523.283054</ele>
        <time>2019-10-07T08:49:20.107Z</time>
      </trkpt>
      <trkpt lat="44.37075" lon="3.53524">
        <ele>523.264351</ele>
        <time>2019-10-07T08:49:20.333Z</time>
      </trkpt>
      <trkpt lat="44.37076" lon="3.53514">
        <ele>523.148914</ele>
        <time>2019-10-07T08:49:21.946Z</time>
      </trkpt>
      <trkpt lat="44.37077" lon="3.53511">
        <ele>523.120774</ele>
        <time>2019-10-07T08:49:22.272Z</time>
      </trkpt>
      <trkpt lat="44.37079" lon="3.53504">
        <ele>523.038754</ele>
        <time>2019-10-07T08:49:23.283Z</time>
      </trkpt>
      <trkpt lat="44.37082" lon="3.53499">
        <ele>522.962717</ele>
        <time>2019-10-07T08:49:24.135Z</time>
      </trkpt>
      <trkpt lat="44.37111" lon="3.5346">
        <ele>522.360174</ele>
        <time>2019-10-07T08:49:31.379Z</time>
      </trkpt>
      <trkpt lat="44.37155" lon="3.53396">
        <ele>521.135151</ele>
        <time>2019-10-07T08:49:42.832Z</time>
      </trkpt>
      <trkpt lat="44.37157" lon="3.53393">
        <ele>521.049193</ele>
        <time>2019-10-07T08:49:43.178Z</time>
      </trkpt>
      <trkpt lat="44.37171" lon="3.53373">
        <ele>520.298228</ele>
        <time>2019-10-07T08:49:46.612Z</time>
      </trkpt>
      <trkpt lat="44.37189" lon="3.53348">
        <ele>519.341722</ele>
        <time>2019-10-07T08:49:50.938Z</time>
      </trkpt>
      <trkpt lat="44.37196" lon="3.53339">
        <ele>518.989509</ele>
        <time>2019-10-07T08:49:52.387Z</time>
      </trkpt>
      <trkpt lat="44.37213" lon="3.5329">
        <ele>517.532987</ele>
        <time>2019-10-07T08:49:58.770Z</time>
      </trkpt>
      <trkpt lat="44.37216" lon="3.53278">
        <ele>517.195029</ele>
        <time>2019-10-07T08:50:00.316Z</time>
      </trkpt>
      <trkpt lat="44.37208" lon="3.53271">
        <ele>516.837864</ele>
        <time>2019-10-07T08:50:01.915Z</time>
      </trkpt>
      <trkpt lat="44.37202" lon="3.53261">
        <ele>516.475477</ele>
        <time>2019-10-07T08:50:03.536Z</time>
      </trkpt>
      <trkpt lat="44.37205" lon="3.53208">
        <ele>515.064265</ele>
        <time>2019-10-07T08:50:09.986Z</time>
      </trkpt>
      <trkpt lat="44.37206" lon="3.53196">
        <ele>514.736809</ele>
        <time>2019-10-07T08:50:11.428Z</time>
      </trkpt>
      <trkpt lat="44.37203" lon="3.53163">
        <ele>513.920554</ele>
        <time>2019-10-07T08:50:15.721Z</time>
      </trkpt>
      <trkpt lat="44.37201" lon="3.53154">
        <ele>513.673739</ele>
        <time>2019-10-07T08:50:16.825Z</time>
      </trkpt>
      <trkpt lat="44.37207" lon="3.531">
        <ele>512.324894</ele>
        <time>2019-10-07T08:50:23.244Z</time>
      </trkpt>
      <trkpt lat="44.37228" lon="3.52997">
        <ele>509.647857</ele>
        <time>2019-10-07T08:50:36.096Z</time>
      </trkpt>
      <trkpt lat="44.37254" lon="3.52896">
        <ele>507.927435</ele>
        <time>2019-10-07T08:50:50.065Z</time>
      </trkpt>
      <trkpt lat="44.37254" lon="3.52878">
        <ele>507.744586</ele>
        <time>2019-10-07T08:50:52.598Z</time>
      </trkpt>
      <trkpt lat="44.37238" lon="3.52842">
        <ele>507.336706</ele>
        <time>2019-10-07T08:50:58.479Z</time>
      </trkpt>
      <trkpt lat="44.37229" lon="3.52806">
        <ele>506.955863</ele>
        <time>2019-10-07T08:51:03.964Z</time>
      </trkpt>
      <trkpt lat="44.37231" lon="3.5279">
        <ele>506.796428</ele>
        <time>2019-10-07T08:51:06.316Z</time>
      </trkpt>
      <trkpt lat="44.37235" lon="3.5278">
        <ele>506.677497</ele>
        <time>2019-10-07T08:51:07.873Z</time>
      </trkpt>
      <trkpt lat="44.37241" lon="3.52769">
        <ele>506.545565</ele>
        <time>2019-10-07T08:51:09.946Z</time>
      </trkpt>
      <trkpt lat="44.37244" lon="3.52757">
        <ele>506.422931</ele>
        <time>2019-10-07T08:51:11.871Z</time>
      </trkpt>
      <trkpt lat="44.37305" lon="3.52714">
        <ele>506.255773</ele>
        <time>2019-10-07T08:51:25.694Z</time>
      </trkpt>
      <trkpt lat="44.37329" lon="3.5269">
        <ele>506.384494</ele>
        <time>2019-10-07T08:51:32.037Z</time>
      </trkpt>
      <trkpt lat="44.3734" lon="3.52675">
        <ele>506.451253</ele>
        <time>2019-10-07T08:51:35.870Z</time>
      </trkpt>
      <trkpt lat="44.3739" lon="3.52608">
        <ele>506.749667</ele>
        <time>2019-10-07T08:51:54.456Z</time>
      </trkpt>
      <trkpt lat="44.3741" lon="3.52585">
        <ele>506.919701</ele>
        <time>2019-10-07T08:52:02.062Z</time>
      </trkpt>
      <trkpt lat="44.37408" lon="3.5258">
        <ele>507.015893</ele>
        <time>2019-10-07T08:52:03.388Z</time>
      </trkpt>
      <trkpt lat="44.37377" lon="3.52498">
        <ele>508.598383</ele>
        <time>2019-10-07T08:52:25.811Z</time>
      </trkpt>
      <trkpt lat="44.37368" lon="3.52476">
        <ele>509.039437</ele>
        <time>2019-10-07T08:52:32.204Z</time>
      </trkpt>
      <trkpt lat="44.37361" lon="3.52464">
        <ele>509.308094</ele>
        <time>2019-10-07T08:52:36.354Z</time>
      </trkpt>
      <trkpt lat="44.37338" lon="3.52432">
        <ele>510.080301</ele>
        <time>2019-10-07T08:52:47.695Z</time>
      </trkpt>
      <trkpt lat="44.37322" lon="3.52415">
        <ele>510.563004</ele>
        <time>2019-10-07T08:52:55.136Z</time>
      </trkpt>
      <trkpt lat="44.37315" lon="3.5241">
        <ele>510.766557</ele>
        <time>2019-10-07T08:52:58.145Z</time>
      </trkpt>
      <trkpt lat="44.37295" lon="3.52406">
        <ele>511.261119</ele>
        <time>2019-10-07T08:53:06.022Z</time>
      </trkpt>
      <trkpt lat="44.37198" lon="3.52434">
        <ele>513.838818</ele>
        <time>2019-10-07T08:53:42.614Z</time>
      </trkpt>
      <trkpt lat="44.3714" lon="3.52465">
        <ele>515.437675</ele>
        <time>2019-10-07T08:54:03.373Z</time>
      </trkpt>
      <trkpt lat="44.37096" lon="3.52473">
        <ele>516.418412</ele>
        <time>2019-10-07T08:54:17.753Z</time>
      </trkpt>
      <trkpt lat="44.36955" lon="3.52502">
        <ele>519.211693</ele>
        <time>2019-10-07T08:55:03.201Z</time>
      </trkpt>
      <trkpt lat="44.36903" lon="3.52509">
        <ele>521.236056</ele>
        <time>2019-10-07T08:55:20.722Z</time>
      </trkpt>
      <trkpt lat="44.36869" lon="3.52507">
        <ele>522.70406</ele>
        <time>2019-10-07T08:55:36.127Z</time>
      </trkpt>
      <trkpt lat="44.36855" lon="3.52507">
        <ele>523.269781</ele>
        <time>2019-10-07T08:55:43.006Z</time>
      </trkpt>
      <trkpt lat="44.36833" lon="3.52512">
        <ele>524.252579</ele>
        <time>2019-10-07T08:55:52.628Z</time>
      </trkpt>
      <trkpt lat="44.36782" lon="3.52525">
        <ele>526.431954</ele>
        <time>2019-10-07T08:56:18.226Z</time>
      </trkpt>
      <trkpt lat="44.36775" lon="3.52528">
        <ele>526.77125</ele>
        <time>2019-10-07T08:56:22.130Z</time>
      </trkpt>
      <trkpt lat="44.36767" lon="3.52533">
        <ele>527.141298</ele>
        <time>2019-10-07T08:56:25.687Z</time>
      </trkpt>
      <trkpt lat="44.3676" lon="3.52538">
        <ele>527.617178</ele>
        <time>2019-10-07T08:56:29.139Z</time>
      </trkpt>
      <trkpt lat="44.36751" lon="3.52546">
        <ele>528.276965</ele>
        <time>2019-10-07T08:56:36.308Z</time>
      </trkpt>
      <trkpt lat="44.36681" lon="3.52566">
        <ele>532.536212</ele>
        <time>2019-10-07T08:57:15.589Z</time>
      </trkpt>
      <trkpt lat="44.36644" lon="3.52606">
        <ele>535.290739</ele>
        <time>2019-10-07T08:57:41.265Z</time>
      </trkpt>
      <trkpt lat="44.36607" lon="3.52568">
        <ele>537.859843</ele>
        <time>2019-10-07T08:58:04.729Z</time>
      </trkpt>
      <trkpt lat="44.36568" lon="3.52569">
        <ele>538.914232</ele>
        <time>2019-10-07T08:58:20.866Z</time>
      </trkpt>
      <trkpt lat="44.36541" lon="3.52579">
        <ele>539.660715</ele>
        <time>2019-10-07T08:58:30.986Z</time>
      </trkpt>
      <trkpt lat="44.36534" lon="3.52573">
        <ele>539.881128</ele>
        <time>2019-10-07T08:58:34.410Z</time>
      </trkpt>
      <trkpt lat="44.36527" lon="3.52568">
        <ele>540.080363</ele>
        <time>2019-10-07T08:58:36.746Z</time>
      </trkpt>
      <trkpt lat="44.36485" lon="3.52558">
        <ele>541.232375</ele>
        <time>2019-10-07T08:58:51.390Z</time>
      </trkpt>
      <trkpt lat="44.36393" lon="3.52565">
        <ele>542.517398</ele>
        <time>2019-10-07T08:59:17.841Z</time>
      </trkpt>
      <trkpt lat="44.36326" lon="3.52542">
        <ele>542.469175</ele>
        <time>2019-10-07T08:59:33.098Z</time>
      </trkpt>
      <trkpt lat="44.36272" lon="3.52537">
        <ele>542.431446</ele>
        <time>2019-10-07T08:59:44.765Z</time>
      </trkpt>
      <trkpt lat="44.36249" lon="3.52522">
        <ele>542.252953</ele>
        <time>2019-10-07T08:59:50.264Z</time>
      </trkpt>
      <trkpt lat="44.36224" lon="3.5252">
        <ele>541.891446</ele>
        <time>2019-10-07T08:59:55.510Z</time>
      </trkpt>
      <trkpt lat="44.36193" lon="3.52495">
        <ele>541.379744</ele>
        <time>2019-10-07T09:00:02.786Z</time>
      </trkpt>
      <trkpt lat="44.36171" lon="3.52486">
        <ele>541.056168</ele>
        <time>2019-10-07T09:00:07.298Z</time>
      </trkpt>
      <trkpt lat="44.36071" lon="3.52486">
        <ele>539.554708</ele>
        <time>2019-10-07T09:00:26.794Z</time>
      </trkpt>
      <trkpt lat="44.36034" lon="3.52471">
        <ele>538.885125</ele>
        <time>2019-10-07T09:00:33.984Z</time>
      </trkpt>
      <trkpt lat="44.3597" lon="3.52465">
        <ele>537.76769</ele>
        <time>2019-10-07T09:00:46.141Z</time>
      </trkpt>
      <trkpt lat="44.35882" lon="3.52414">
        <ele>537.054878</ele>
        <time>2019-10-07T09:01:05.095Z</time>
      </trkpt>
      <trkpt lat="44.35719" lon="3.52356">
        <ele>539.739217</ele>
        <time>2019-10-07T09:01:57.931Z</time>
      </trkpt>
      <trkpt lat="44.35675" lon="3.52384">
        <ele>541.946187</ele>
        <time>2019-10-07T09:02:22.005Z</time>
      </trkpt>
      <trkpt lat="44.35636" lon="3.52387">
        <ele>543.768928</ele>
        <time>2019-10-07T09:02:41.606Z</time>
      </trkpt>
      <trkpt lat="44.3563" lon="3.5238">
        <ele>544.120631</ele>
        <time>2019-10-07T09:02:44.409Z</time>
      </trkpt>
      <trkpt lat="44.35631" lon="3.52357">
        <ele>544.864737</ele>
        <time>2019-10-07T09:02:53.950Z</time>
      </trkpt>
      <trkpt lat="44.35633" lon="3.52344">
        <ele>545.309387</ele>
        <time>2019-10-07T09:03:00.479Z</time>
      </trkpt>
      <trkpt lat="44.35624" lon="3.52314">
        <ele>546.388467</ele>
        <time>2019-10-07T09:03:15.402Z</time>
      </trkpt>
      <trkpt lat="44.35607" lon="3.52288">
        <ele>547.115532</ele>
        <time>2019-10-07T09:03:31.119Z</time>
      </trkpt>
      <trkpt lat="44.3558" lon="3.52272">
        <ele>547.384669</ele>
        <time>2019-10-07T09:03:49.618Z</time>
      </trkpt>
      <trkpt lat="44.35555" lon="3.52206">
        <ele>547.871452</ele>
        <time>2019-10-07T09:04:19.047Z</time>
      </trkpt>
      <trkpt lat="44.35507" lon="3.52141">
        <ele>548.479534</ele>
        <time>2019-10-07T09:04:41.606Z</time>
      </trkpt>
      <trkpt lat="44.35442" lon="3.521">
        <ele>544.340105</ele>
        <time>2019-10-07T09:05:02.086Z</time>
      </trkpt>
      <trkpt lat="44.35361" lon="3.52029">
        <ele>536.525011</ele>
        <time>2019-10-07T09:05:26.716Z</time>
      </trkpt>
      <trkpt lat="44.35328" lon="3.51976">
        <ele>532.479004</ele>
        <time>2019-10-07T09:05:39.622Z</time>
      </trkpt>
      <trkpt lat="44.35318" lon="3.51952">
        <ele>531.050232</ele>
        <time>2019-10-07T09:05:44.485Z</time>
      </trkpt>
      <trkpt lat="44.3529" lon="3.51934">
        <ele>528.754938</ele>
        <time>2019-10-07T09:05:52.424Z</time>
      </trkpt>
      <trkpt lat="44.35246" lon="3.51924">
        <ele>525.450113</ele>
        <time>2019-10-07T09:06:04.229Z</time>
      </trkpt>
      <trkpt lat="44.35178" lon="3.51943">
        <ele>520.766789</ele>
        <time>2019-10-07T09:06:24.148Z</time>
      </trkpt>
      <trkpt lat="44.35159" lon="3.51953">
        <ele>522.257438</ele>
        <time>2019-10-07T09:06:31.390Z</time>
      </trkpt>
      <trkpt lat="44.35143" lon="3.51969">
        <ele>523.631844</ele>
        <time>2019-10-07T09:06:38.710Z</time>
      </trkpt>
      <trkpt lat="44.3509" lon="3.51992">
        <ele>527.557806</ele>
        <time>2019-10-07T09:07:10.517Z</time>
      </trkpt>
      <trkpt lat="44.35074" lon="3.52009">
        <ele>529.032983</ele>
        <time>2019-10-07T09:07:34.344Z</time>
      </trkpt>
      <trkpt lat="44.35045" lon="3.52027">
        <ele>531.236834</ele>
        <time>2019-10-07T09:08:08.042Z</time>
      </trkpt>
      <trkpt lat="44.34978" lon="3.52043">
        <ele>538.381881</ele>
        <time>2019-10-07T09:09:24.749Z</time>
      </trkpt>
      <trkpt lat="44.34956" lon="3.52039">
        <ele>541.225291</ele>
        <time>2019-10-07T09:09:44.183Z</time>
      </trkpt>
      <trkpt lat="44.3495" lon="3.52043">
        <ele>542.120209</ele>
        <time>2019-10-07T09:09:54.667Z</time>
      </trkpt>
      <trkpt lat="44.34938" lon="3.5204">
        <ele>543.753699</ele>
        <time>2019-10-07T09:10:15.123Z</time>
      </trkpt>
      <trkpt lat="44.34908" lon="3.52024">
        <ele>547.99333</ele>
        <time>2019-10-07T09:11:04.862Z</time>
      </trkpt>
      <trkpt lat="44.34894" lon="3.52023">
        <ele>549.715649</ele>
        <time>2019-10-07T09:11:21.275Z</time>
      </trkpt>
      <trkpt lat="44.34873" lon="3.52007">
        <ele>552.893986</ele>
        <time>2019-10-07T09:11:58.935Z</time>
      </trkpt>
      <trkpt lat="44.34869" lon="3.51994">
        <ele>554.219694</ele>
        <time>2019-10-07T09:12:10.206Z</time>
      </trkpt>
      <trkpt lat="44.34843" lon="3.5195">
        <ele>557.11428</ele>
        <time>2019-10-07T09:13:02.131Z</time>
      </trkpt>
      <trkpt lat="44.34844" lon="3.51916">
        <ele>557.44814</ele>
        <time>2019-10-07T09:13:35.376Z</time>
      </trkpt>
      <trkpt lat="44.34829" lon="3.51889">
        <ele>557.770439</ele>
        <time>2019-10-07T09:13:55.522Z</time>
      </trkpt>
      <trkpt lat="44.34839" lon="3.51857">
        <ele>558.116676</ele>
        <time>2019-10-07T09:14:15.204Z</time>
      </trkpt>
      <trkpt lat="44.34854" lon="3.51834">
        <ele>558.414821</ele>
        <time>2019-10-07T09:14:31.271Z</time>
      </trkpt>
      <trkpt lat="44.34856" lon="3.51784">
        <ele>558.899144</ele>
        <time>2019-10-07T09:14:57.511Z</time>
      </trkpt>
      <trkpt lat="44.34842" lon="3.51769">
        <ele>559.139501</ele>
        <time>2019-10-07T09:15:10.349Z</time>
      </trkpt>
      <trkpt lat="44.34842" lon="3.51751">
        <ele>559.14715</ele>
        <time>2019-10-07T09:15:19.101Z</time>
      </trkpt>
      <trkpt lat="44.34881" lon="3.51699">
        <ele>556.521258</ele>
        <time>2019-10-07T09:15:55.417Z</time>
      </trkpt>
      <trkpt lat="44.34901" lon="3.51639">
        <ele>554.164073</ele>
        <time>2019-10-07T09:16:27.573Z</time>
      </trkpt>
      <trkpt lat="44.34901" lon="3.51628">
        <ele>553.783286</ele>
        <time>2019-10-07T09:16:32.882Z</time>
      </trkpt>
      <trkpt lat="44.34917" lon="3.51603">
        <ele>552.588838</ele>
        <time>2019-10-07T09:16:49.400Z</time>
      </trkpt>
      <trkpt lat="44.34915" lon="3.51576">
        <ele>551.607739</ele>
        <time>2019-10-07T09:17:03.163Z</time>
      </trkpt>
      <trkpt lat="44.3494" lon="3.5153">
        <ele>550.570093</ele>
        <time>2019-10-07T09:17:31.618Z</time>
      </trkpt>
      <trkpt lat="44.34967" lon="3.51457">
        <ele>551.000547</ele>
        <time>2019-10-07T09:18:15.136Z</time>
      </trkpt>
      <trkpt lat="44.34965" lon="3.51442">
        <ele>551.081161</ele>
        <time>2019-10-07T09:18:23.717Z</time>
      </trkpt>
      <trkpt lat="44.34979" lon="3.51393">
        <ele>551.357779</ele>
        <time>2019-10-07T09:18:55.893Z</time>
      </trkpt>
      <trkpt lat="44.3498" lon="3.51377">
        <ele>551.441667</ele>
        <time>2019-10-07T09:19:06.686Z</time>
      </trkpt>
      <trkpt lat="44.34973" lon="3.51368">
        <ele>551.513134</ele>
        <time>2019-10-07T09:19:16.099Z</time>
      </trkpt>
      <trkpt lat="44.34954" lon="3.51367">
        <ele>551.652326</ele>
        <time>2019-10-07T09:19:34.928Z</time>
      </trkpt>
      <trkpt lat="44.34906" lon="3.51376">
        <ele>554.824155</ele>
        <time>2019-10-07T09:20:29.948Z</time>
      </trkpt>
      <trkpt lat="44.34856" lon="3.51405">
        <ele>559.92307</ele>
        <time>2019-10-07T09:21:39.220Z</time>
      </trkpt>
      <trkpt lat="44.3484" lon="3.51428">
        <ele>562.045906</ele>
        <time>2019-10-07T09:22:09.460Z</time>
      </trkpt>
      <trkpt lat="44.3481" lon="3.51434">
        <ele>564.873069</ele>
        <time>2019-10-07T09:22:50.673Z</time>
      </trkpt>
      <trkpt lat="44.34803" lon="3.51441">
        <ele>565.712752</ele>
        <time>2019-10-07T09:23:03.461Z</time>
      </trkpt>
      <trkpt lat="44.34796" lon="3.51462">
        <ele>567.237652</ele>
        <time>2019-10-07T09:23:26.488Z</time>
      </trkpt>
      <trkpt lat="44.34768" lon="3.5149">
        <ele>569.783992</ele>
        <time>2019-10-07T09:24:13.486Z</time>
      </trkpt>
      <trkpt lat="44.34736" lon="3.51504">
        <ele>571.800568</ele>
        <time>2019-10-07T09:24:57.137Z</time>
      </trkpt>
      <trkpt lat="44.34688" lon="3.51498">
        <ele>574.682163</ele>
        <time>2019-10-07T09:25:52.741Z</time>
      </trkpt>
      <trkpt lat="44.34669" lon="3.51522">
        <ele>576.210901</ele>
        <time>2019-10-07T09:26:20.073Z</time>
      </trkpt>
      <trkpt lat="44.34613" lon="3.51497">
        <ele>579.060116</ele>
        <time>2019-10-07T09:27:11.724Z</time>
      </trkpt>
      <trkpt lat="44.34604" lon="3.51474">
        <ele>578.1243</ele>
        <time>2019-10-07T09:27:26.507Z</time>
      </trkpt>
      <trkpt lat="44.34589" lon="3.51461">
        <ele>577.223071</ele>
        <time>2019-10-07T09:27:39.272Z</time>
      </trkpt>
      <trkpt lat="44.34571" lon="3.5146">
        <ele>576.366683</ele>
        <time>2019-10-07T09:27:51.874Z</time>
      </trkpt>
      <trkpt lat="44.34538" lon="3.51424">
        <ele>574.267812</ele>
        <time>2019-10-07T09:28:20.183Z</time>
      </trkpt>
      <trkpt lat="44.34525" lon="3.51418">
        <ele>573.618287</ele>
        <time>2019-10-07T09:28:28.921Z</time>
      </trkpt>
      <trkpt lat="44.34486" lon="3.51357">
        <ele>570.716337</ele>
        <time>2019-10-07T09:29:07.206Z</time>
      </trkpt>
      <trkpt lat="44.34486" lon="3.51357">
        <ele>570.716337</ele>
        <time>2019-10-07T09:29:07.406Z</time>
      </trkpt>
      <trkpt lat="44.34423" lon="3.51285">
        <ele>564.846416</ele>
        <time>2019-10-07T09:29:59.633Z</time>
      </trkpt>
      <trkpt lat="44.34353" lon="3.51176">
        <ele>557.143552</ele>
        <time>2019-10-07T09:31:08.586Z</time>
      </trkpt>
      <trkpt lat="44.34317" lon="3.51103">
        <ele>553.731451</ele>
        <time>2019-10-07T09:31:52.307Z</time>
      </trkpt>
      <trkpt lat="44.34296" lon="3.5104">
        <ele>551.096756</ele>
        <time>2019-10-07T09:32:26.417Z</time>
      </trkpt>
      <trkpt lat="44.34258" lon="3.50971">
        <ele>547.777064</ele>
        <time>2019-10-07T09:33:09.537Z</time>
      </trkpt>
      <trkpt lat="44.34208" lon="3.50826">
        <ele>539.27475</ele>
        <time>2019-10-07T09:34:26.315Z</time>
      </trkpt>
      <trkpt lat="44.34207" lon="3.50806">
        <ele>538.208975</ele>
        <time>2019-10-07T09:34:35.468Z</time>
      </trkpt>
      <trkpt lat="44.34199" lon="3.50787">
        <ele>537.059633</ele>
        <time>2019-10-07T09:34:45.396Z</time>
      </trkpt>
      <trkpt lat="44.34182" lon="3.50767">
        <ele>535.418864</ele>
        <time>2019-10-07T09:34:59.334Z</time>
      </trkpt>
      <trkpt lat="44.34179" lon="3.50753">
        <ele>534.643949</ele>
        <time>2019-10-07T09:35:05.961Z</time>
      </trkpt>
      <trkpt lat="44.34189" lon="3.50726">
        <ele>532.56366</ele>
        <time>2019-10-07T09:35:19.627Z</time>
      </trkpt>
      <trkpt lat="44.34189" lon="3.50703">
        <ele>530.853116</ele>
        <time>2019-10-07T09:35:29.997Z</time>
      </trkpt>
      <trkpt lat="44.34178" lon="3.50667">
        <ele>527.973121</ele>
        <time>2019-10-07T09:35:47.348Z</time>
      </trkpt>
      <trkpt lat="44.34177" lon="3.50641">
        <ele>526.058603</ele>
        <time>2019-10-07T09:35:58.849Z</time>
      </trkpt>
      <trkpt lat="44.34168" lon="3.50624">
        <ele>524.522432</ele>
        <time>2019-10-07T09:36:08.075Z</time>
      </trkpt>
      <trkpt lat="44.3416" lon="3.50619">
        <ele>523.541695</ele>
        <time>2019-10-07T09:36:13.958Z</time>
      </trkpt>
      <trkpt lat="44.34149" lon="3.50576">
        <ele>520.13894</ele>
        <time>2019-10-07T09:36:34.331Z</time>
      </trkpt>
      <trkpt lat="44.34127" lon="3.5053">
        <ele>516.094495</ele>
        <time>2019-10-07T09:36:58.426Z</time>
      </trkpt>
      <trkpt lat="44.34125" lon="3.50479">
        <ele>513.151552</ele>
        <time>2019-10-07T09:37:21.323Z</time>
      </trkpt>
      <trkpt lat="44.34098" lon="3.50394">
        <ele>508.066645</ele>
        <time>2019-10-07T09:38:04.085Z</time>
      </trkpt>
      <trkpt lat="44.34093" lon="3.50375">
        <ele>506.971368</ele>
        <time>2019-10-07T09:38:13.238Z</time>
      </trkpt>
      <trkpt lat="44.34092" lon="3.50372">
        <ele>506.768244</ele>
        <time>2019-10-07T09:38:14.021Z</time>
      </trkpt>
      <trkpt lat="44.3408" lon="3.50328">
        <ele>504.181733</ele>
        <time>2019-10-07T09:38:23.325Z</time>
      </trkpt>
      <trkpt lat="44.34031" lon="3.50166">
        <ele>498.702999</ele>
        <time>2019-10-07T09:39:00.374Z</time>
      </trkpt>
      <trkpt lat="44.33973" lon="3.50014">
        <ele>495.464461</ele>
        <time>2019-10-07T09:39:40.973Z</time>
      </trkpt>
      <trkpt lat="44.33915" lon="3.4994">
        <ele>494.503026</ele>
        <time>2019-10-07T09:40:07.870Z</time>
      </trkpt>
      <trkpt lat="44.33888" lon="3.49916">
        <ele>494.120562</ele>
        <time>2019-10-07T09:40:18.639Z</time>
      </trkpt>
      <trkpt lat="44.33874" lon="3.49901">
        <ele>493.904538</ele>
        <time>2019-10-07T09:40:24.980Z</time>
      </trkpt>
      <trkpt lat="44.33869" lon="3.49885">
        <ele>493.758362</ele>
        <time>2019-10-07T09:40:27.367Z</time>
      </trkpt>
      <trkpt lat="44.33807" lon="3.49845">
        <ele>493.54878</ele>
        <time>2019-10-07T09:40:42.204Z</time>
      </trkpt>
      <trkpt lat="44.33774" lon="3.49808">
        <ele>493.433764</ele>
        <time>2019-10-07T09:40:51.385Z</time>
      </trkpt>
      <trkpt lat="44.33664" lon="3.49743">
        <ele>494.355577</ele>
        <time>2019-10-07T09:41:20.561Z</time>
      </trkpt>
      <trkpt lat="44.3364" lon="3.49736">
        <ele>494.934074</ele>
        <time>2019-10-07T09:41:27.695Z</time>
      </trkpt>
      <trkpt lat="44.33601" lon="3.49744">
        <ele>495.872086</ele>
        <time>2019-10-07T09:41:40.130Z</time>
      </trkpt>
      <trkpt lat="44.33522" lon="3.49735">
        <ele>498.524622</ele>
        <time>2019-10-07T09:42:14.974Z</time>
      </trkpt>
      <trkpt lat="44.33444" lon="3.49718">
        <ele>505.907149</ele>
        <time>2019-10-07T09:42:57.233Z</time>
      </trkpt>
      <trkpt lat="44.33413" lon="3.49713">
        <ele>508.810898</ele>
        <time>2019-10-07T09:43:20.856Z</time>
      </trkpt>
      <trkpt lat="44.3339" lon="3.49717">
        <ele>510.943037</ele>
        <time>2019-10-07T09:43:42.085Z</time>
      </trkpt>
      <trkpt lat="44.33375" lon="3.49735">
        <ele>512.741717</ele>
        <time>2019-10-07T09:44:00.932Z</time>
      </trkpt>
      <trkpt lat="44.33351" lon="3.49742">
        <ele>515.38126</ele>
        <time>2019-10-07T09:44:23.925Z</time>
      </trkpt>
      <trkpt lat="44.33333" lon="3.49738">
        <ele>517.794745</ele>
        <time>2019-10-07T09:44:44.609Z</time>
      </trkpt>
      <trkpt lat="44.33295" lon="3.49716">
        <ele>523.143625</ele>
        <time>2019-10-07T09:45:23.971Z</time>
      </trkpt>
      <trkpt lat="44.33283" lon="3.49705">
        <ele>524.928316</ele>
        <time>2019-10-07T09:45:36.693Z</time>
      </trkpt>
      <trkpt lat="44.33267" lon="3.49699">
        <ele>527.139244</ele>
        <time>2019-10-07T09:45:54.928Z</time>
      </trkpt>
      <trkpt lat="44.33212" lon="3.49666">
        <ele>534.824862</ele>
        <time>2019-10-07T09:46:42.638Z</time>
      </trkpt>
      <trkpt lat="44.33198" lon="3.49652">
        <ele>537.12145</ele>
        <time>2019-10-07T09:46:56.823Z</time>
      </trkpt>
      <trkpt lat="44.33162" lon="3.49576">
        <ele>537.883096</ele>
        <time>2019-10-07T09:47:39.844Z</time>
      </trkpt>
      <trkpt lat="44.33162" lon="3.49546">
        <ele>537.990846</ele>
        <time>2019-10-07T09:47:44.865Z</time>
      </trkpt>
      <trkpt lat="44.33172" lon="3.49531">
        <ele>538.066793</ele>
        <time>2019-10-07T09:47:47.544Z</time>
      </trkpt>
      <trkpt lat="44.33186" lon="3.4949">
        <ele>538.231809</ele>
        <time>2019-10-07T09:47:52.921Z</time>
      </trkpt>
      <trkpt lat="44.33183" lon="3.49458">
        <ele>538.348189</ele>
        <time>2019-10-07T09:47:56.509Z</time>
      </trkpt>
      <trkpt lat="44.33206" lon="3.49389">
        <ele>536.6538</ele>
        <time>2019-10-07T09:48:04.677Z</time>
      </trkpt>
      <trkpt lat="44.33255" lon="3.49314">
        <ele>531.886381</ele>
        <time>2019-10-07T09:48:15.032Z</time>
      </trkpt>
      <trkpt lat="44.33277" lon="3.4929">
        <ele>530.026367</ele>
        <time>2019-10-07T09:48:19.164Z</time>
      </trkpt>
      <trkpt lat="44.33307" lon="3.49272">
        <ele>527.83605</ele>
        <time>2019-10-07T09:48:24.248Z</time>
      </trkpt>
      <trkpt lat="44.33348" lon="3.49235">
        <ele>527.892967</ele>
        <time>2019-10-07T09:48:33.087Z</time>
      </trkpt>
      <trkpt lat="44.33361" lon="3.49222">
        <ele>528.593452</ele>
        <time>2019-10-07T09:48:36.143Z</time>
      </trkpt>
      <trkpt lat="44.33385" lon="3.49199">
        <ele>529.883715</ele>
        <time>2019-10-07T09:48:46.846Z</time>
      </trkpt>
      <trkpt lat="44.33446" lon="3.49135">
        <ele>533.248206</ele>
        <time>2019-10-07T09:49:28.963Z</time>
      </trkpt>
      <trkpt lat="44.33455" lon="3.4912">
        <ele>533.888616</ele>
        <time>2019-10-07T09:49:39.995Z</time>
      </trkpt>
      <trkpt lat="44.33451" lon="3.49103">
        <ele>534.422138</ele>
        <time>2019-10-07T09:49:49.240Z</time>
      </trkpt>
      <trkpt lat="44.33428" lon="3.49065">
        <ele>537.441643</ele>
        <time>2019-10-07T09:50:18.818Z</time>
      </trkpt>
      <trkpt lat="44.33378" lon="3.49015">
        <ele>542.796381</ele>
        <time>2019-10-07T09:51:09.778Z</time>
      </trkpt>
      <trkpt lat="44.33345" lon="3.48963">
        <ele>547.12023</ele>
        <time>2019-10-07T09:51:40.742Z</time>
      </trkpt>
      <trkpt lat="44.33333" lon="3.48931">
        <ele>549.408912</ele>
        <time>2019-10-07T09:51:52.792Z</time>
      </trkpt>
      <trkpt lat="44.33279" lon="3.48886">
        <ele>550.24507</ele>
        <time>2019-10-07T09:52:17.359Z</time>
      </trkpt>
      <trkpt lat="44.33272" lon="3.48871">
        <ele>550.244212</ele>
        <time>2019-10-07T09:52:21.718Z</time>
      </trkpt>
      <trkpt lat="44.33276" lon="3.48856">
        <ele>550.24347</ele>
        <time>2019-10-07T09:52:25.820Z</time>
      </trkpt>
      <trkpt lat="44.33277" lon="3.48854">
        <ele>550.243362</ele>
        <time>2019-10-07T09:52:26.056Z</time>
      </trkpt>
      <trkpt lat="44.33286" lon="3.4884">
        <ele>550.242488</ele>
        <time>2019-10-07T09:52:28.303Z</time>
      </trkpt>
      <trkpt lat="44.33297" lon="3.4881">
        <ele>550.240895</ele>
        <time>2019-10-07T09:52:34.056Z</time>
      </trkpt>
      <trkpt lat="44.33297" lon="3.48778">
        <ele>550.239429</ele>
        <time>2019-10-07T09:52:38.010Z</time>
      </trkpt>
      <trkpt lat="44.33275" lon="3.48721">
        <ele>549.87843</ele>
        <time>2019-10-07T09:52:46.040Z</time>
      </trkpt>
      <trkpt lat="44.33279" lon="3.48661">
        <ele>547.519423</ele>
        <time>2019-10-07T09:52:52.689Z</time>
      </trkpt>
      <trkpt lat="44.33275" lon="3.48548">
        <ele>543.024168</ele>
        <time>2019-10-07T09:53:05.642Z</time>
      </trkpt>
      <trkpt lat="44.33292" lon="3.48499">
        <ele>540.90672</ele>
        <time>2019-10-07T09:53:11.459Z</time>
      </trkpt>
      <trkpt lat="44.33295" lon="3.48431">
        <ele>536.99018</ele>
        <time>2019-10-07T09:53:18.767Z</time>
      </trkpt>
      <trkpt lat="44.33306" lon="3.48386">
        <ele>534.092189</ele>
        <time>2019-10-07T09:53:23.690Z</time>
      </trkpt>
      <trkpt lat="44.33337" lon="3.48304">
        <ele>528.357445</ele>
        <time>2019-10-07T09:53:33.237Z</time>
      </trkpt>
      <trkpt lat="44.33387" lon="3.48234">
        <ele>522.770064</ele>
        <time>2019-10-07T09:53:43.303Z</time>
      </trkpt>
      <trkpt lat="44.33418" lon="3.48154">
        <ele>518.244671</ele>
        <time>2019-10-07T09:53:52.901Z</time>
      </trkpt>
      <trkpt lat="44.33427" lon="3.48106">
        <ele>515.777785</ele>
        <time>2019-10-07T09:53:58.360Z</time>
      </trkpt>
      <trkpt lat="44.33434" lon="3.48053">
        <ele>513.119039</ele>
        <time>2019-10-07T09:54:04.437Z</time>
      </trkpt>
      <trkpt lat="44.33437" lon="3.48032">
        <ele>512.423889</ele>
        <time>2019-10-07T09:54:06.978Z</time>
      </trkpt>
      <trkpt lat="44.33437" lon="3.48015">
        <ele>512.524581</ele>
        <time>2019-10-07T09:54:09.027Z</time>
      </trkpt>
      <trkpt lat="44.33439" lon="3.47961">
        <ele>512.847734</ele>
        <time>2019-10-07T09:54:16.155Z</time>
      </trkpt>
      <trkpt lat="44.33439" lon="3.47855">
        <ele>513.487703</ele>
        <time>2019-10-07T09:54:37.034Z</time>
      </trkpt>
      <trkpt lat="44.33439" lon="3.47843">
        <ele>513.562426</ele>
        <time>2019-10-07T09:54:40.315Z</time>
      </trkpt>
      <trkpt lat="44.33439" lon="3.47746">
        <ele>515.70738</ele>
        <time>2019-10-07T09:55:13.678Z</time>
      </trkpt>
      <trkpt lat="44.33446" lon="3.47721">
        <ele>516.877946</ele>
        <time>2019-10-07T09:55:24.588Z</time>
      </trkpt>
      <trkpt lat="44.33469" lon="3.47681">
        <ele>519.150408</ele>
        <time>2019-10-07T09:55:45.801Z</time>
      </trkpt>
      <trkpt lat="44.33525" lon="3.47554">
        <ele>525.389355</ele>
        <time>2019-10-07T09:56:45.305Z</time>
      </trkpt>
      <trkpt lat="44.33527" lon="3.47532">
        <ele>525.919555</ele>
        <time>2019-10-07T09:56:53.217Z</time>
      </trkpt>
      <trkpt lat="44.33514" lon="3.47497">
        <ele>526.85244</ele>
        <time>2019-10-07T09:57:06.763Z</time>
      </trkpt>
      <trkpt lat="44.33488" lon="3.47455">
        <ele>528.175174</ele>
        <time>2019-10-07T09:57:23.687Z</time>
      </trkpt>
      <trkpt lat="44.33479" lon="3.47429">
        <ele>528.863225</ele>
        <time>2019-10-07T09:57:31.388Z</time>
      </trkpt>
      <trkpt lat="44.33485" lon="3.47415">
        <ele>529.249663</ele>
        <time>2019-10-07T09:57:35.078Z</time>
      </trkpt>
      <trkpt lat="44.33555" lon="3.47421">
        <ele>531.180438</ele>
        <time>2019-10-07T09:57:52.401Z</time>
      </trkpt>
      <trkpt lat="44.33572" lon="3.47413">
        <ele>531.391441</ele>
        <time>2019-10-07T09:57:56.552Z</time>
      </trkpt>
      <trkpt lat="44.33584" lon="3.4739">
        <ele>531.623328</ele>
        <time>2019-10-07T09:58:01.010Z</time>
      </trkpt>
      <trkpt lat="44.3363" lon="3.4725">
        <ele>532.897384</ele>
        <time>2019-10-07T09:58:34.016Z</time>
      </trkpt>
      <trkpt lat="44.33639" lon="3.47207">
        <ele>533.085137</ele>
        <time>2019-10-07T09:58:44.558Z</time>
      </trkpt>
      <trkpt lat="44.33642" lon="3.47149">
        <ele>533.187186</ele>
        <time>2019-10-07T09:58:56.025Z</time>
      </trkpt>
      <trkpt lat="44.33648" lon="3.47113">
        <ele>533.250856</ele>
        <time>2019-10-07T09:59:02.472Z</time>
      </trkpt>
      <trkpt lat="44.33656" lon="3.47063">
        <ele>533.340106</ele>
        <time>2019-10-07T09:59:11.193Z</time>
      </trkpt>
      <trkpt lat="44.3367" lon="3.47011">
        <ele>533.436914</ele>
        <time>2019-10-07T09:59:19.891Z</time>
      </trkpt>
      <trkpt lat="44.33678" lon="3.46983">
        <ele>533.185354</ele>
        <time>2019-10-07T09:59:25.403Z</time>
      </trkpt>
      <trkpt lat="44.3368" lon="3.46976">
        <ele>532.940987</ele>
        <time>2019-10-07T09:59:26.147Z</time>
      </trkpt>
      <trkpt lat="44.33699" lon="3.46922">
        <ele>530.939835</ele>
        <time>2019-10-07T09:59:33.723Z</time>
      </trkpt>
      <trkpt lat="44.33719" lon="3.46888">
        <ele>529.429275</ele>
        <time>2019-10-07T09:59:38.753Z</time>
      </trkpt>
      <trkpt lat="44.33756" lon="3.46878">
        <ele>527.666405</ele>
        <time>2019-10-07T09:59:44.460Z</time>
      </trkpt>
      <trkpt lat="44.33802" lon="3.46809">
        <ele>524.370881</ele>
        <time>2019-10-07T09:59:54.724Z</time>
      </trkpt>
      <trkpt lat="44.33818" lon="3.46793">
        <ele>523.276934</ele>
        <time>2019-10-07T09:59:57.619Z</time>
      </trkpt>
      <trkpt lat="44.33821" lon="3.46792">
        <ele>523.113501</ele>
        <time>2019-10-07T09:59:58.040Z</time>
      </trkpt>
      <trkpt lat="44.33825" lon="3.46789">
        <ele>522.808956</ele>
        <time>2019-10-07T09:59:58.849Z</time>
      </trkpt>
      <trkpt lat="44.33841" lon="3.4678">
        <ele>521.828944</ele>
        <time>2019-10-07T10:00:01.566Z</time>
      </trkpt>
      <trkpt lat="44.33858" lon="3.46769">
        <ele>520.777301</ele>
        <time>2019-10-07T10:00:04.372Z</time>
      </trkpt>
      <trkpt lat="44.33871" lon="3.46741">
        <ele>519.391009</ele>
        <time>2019-10-07T10:00:08.237Z</time>
      </trkpt>
      <trkpt lat="44.33869" lon="3.4666">
        <ele>516.030692</ele>
        <time>2019-10-07T10:00:17.717Z</time>
      </trkpt>
      <trkpt lat="44.33882" lon="3.46619">
        <ele>514.127238</ele>
        <time>2019-10-07T10:00:22.393Z</time>
      </trkpt>
      <trkpt lat="44.33923" lon="3.46586">
        <ele>510.993771</ele>
        <time>2019-10-07T10:00:29.808Z</time>
      </trkpt>
      <trkpt lat="44.33939" lon="3.46564">
        <ele>509.549623</ele>
        <time>2019-10-07T10:00:32.993Z</time>
      </trkpt>
      <trkpt lat="44.33957" lon="3.465">
        <ele>506.32258</ele>
        <time>2019-10-07T10:00:40.595Z</time>
      </trkpt>
      <trkpt lat="44.33962" lon="3.46486">
        <ele>505.614157</ele>
        <time>2019-10-07T10:00:42.297Z</time>
      </trkpt>
      <trkpt lat="44.33963" lon="3.46502">
        <ele>504.889361</ele>
        <time>2019-10-07T10:00:43.896Z</time>
      </trkpt>
      <trkpt lat="44.33967" lon="3.46564">
        <ele>502.157427</ele>
        <time>2019-10-07T10:00:51.142Z</time>
      </trkpt>
      <trkpt lat="44.33962" lon="3.46621">
        <ele>500.021971</ele>
        <time>2019-10-07T10:00:57.874Z</time>
      </trkpt>
      <trkpt lat="44.33945" lon="3.46707">
        <ele>496.715636</ele>
        <time>2019-10-07T10:01:08.216Z</time>
      </trkpt>
      <trkpt lat="44.33902" lon="3.4678">
        <ele>493.523502</ele>
        <time>2019-10-07T10:01:19.913Z</time>
      </trkpt>
      <trkpt lat="44.33858" lon="3.46804">
        <ele>493.2105</ele>
        <time>2019-10-07T10:01:28.298Z</time>
      </trkpt>
      <trkpt lat="44.33852" lon="3.46815">
        <ele>493.146893</ele>
        <time>2019-10-07T10:01:32.716Z</time>
      </trkpt>
      <trkpt lat="44.33859" lon="3.46892">
        <ele>492.783036</ele>
        <time>2019-10-07T10:01:43.678Z</time>
      </trkpt>
      <trkpt lat="44.33862" lon="3.46896">
        <ele>492.753039</ele>
        <time>2019-10-07T10:01:44.663Z</time>
      </trkpt>
      <trkpt lat="44.33886" lon="3.46895">
        <ele>492.596205</ele>
        <time>2019-10-07T10:01:52.344Z</time>
      </trkpt>
      <trkpt lat="44.33894" lon="3.46899">
        <ele>492.542717</ele>
        <time>2019-10-07T10:01:54.651Z</time>
      </trkpt>
      <trkpt lat="44.33904" lon="3.46924">
        <ele>492.405399</ele>
        <time>2019-10-07T10:02:02.717Z</time>
      </trkpt>
      <trkpt lat="44.33913" lon="3.46951">
        <ele>493.292503</ele>
        <time>2019-10-07T10:02:08.005Z</time>
      </trkpt>
      <trkpt lat="44.33915" lon="3.46957">
        <ele>493.545704</ele>
        <time>2019-10-07T10:02:10.727Z</time>
      </trkpt>
      <trkpt lat="44.33923" lon="3.46984">
        <ele>494.674137</ele>
        <time>2019-10-07T10:02:17.622Z</time>
      </trkpt>
      <trkpt lat="44.3394" lon="3.47022">
        <ele>496.381183</ele>
        <time>2019-10-07T10:02:28.495Z</time>
      </trkpt>
      <trkpt lat="44.3394" lon="3.47034">
        <ele>496.820127</ele>
        <time>2019-10-07T10:02:32.714Z</time>
      </trkpt>
      <trkpt lat="44.33935" lon="3.47046">
        <ele>497.359514</ele>
        <time>2019-10-07T10:02:37.561Z</time>
      </trkpt>
      <trkpt lat="44.33894" lon="3.47126">
        <ele>501.074625</ele>
        <time>2019-10-07T10:03:22.713Z</time>
      </trkpt>
      <trkpt lat="44.33893" lon="3.47146">
        <ele>501.832614</ele>
        <time>2019-10-07T10:03:30.805Z</time>
      </trkpt>
      <trkpt lat="44.339" lon="3.47151">
        <ele>502.384097</ele>
        <time>2019-10-07T10:03:35.608Z</time>
      </trkpt>
      <trkpt lat="44.3394" lon="3.47155">
        <ele>505.626992</ele>
        <time>2019-10-07T10:04:05.741Z</time>
      </trkpt>
      <trkpt lat="44.34007" lon="3.47146">
        <ele>511.050893</ele>
        <time>2019-10-07T10:04:42.018Z</time>
      </trkpt>
      <trkpt lat="44.34011" lon="3.4715">
        <ele>511.406407</ele>
        <time>2019-10-07T10:04:47.502Z</time>
      </trkpt>
      <trkpt lat="44.34012" lon="3.47157">
        <ele>511.818001</ele>
        <time>2019-10-07T10:04:51.013Z</time>
      </trkpt>
      <trkpt lat="44.33972" lon="3.47233">
        <ele>517.288718</ele>
        <time>2019-10-07T10:05:33.777Z</time>
      </trkpt>
      <trkpt lat="44.33954" lon="3.47279">
        <ele>520.507369</ele>
        <time>2019-10-07T10:05:59.416Z</time>
      </trkpt>
      <trkpt lat="44.33949" lon="3.47328">
        <ele>523.527439</ele>
        <time>2019-10-07T10:06:23.688Z</time>
      </trkpt>
      <trkpt lat="44.33953" lon="3.47333">
        <ele>523.934266</ele>
        <time>2019-10-07T10:06:27.311Z</time>
      </trkpt>
      <trkpt lat="44.33962" lon="3.47318">
        <ele>525.118732</ele>
        <time>2019-10-07T10:06:34.012Z</time>
      </trkpt>
      <trkpt lat="44.33975" lon="3.47302">
        <ele>526.582668</ele>
        <time>2019-10-07T10:06:44.587Z</time>
      </trkpt>
      <trkpt lat="44.33991" lon="3.47286">
        <ele>528.293434</ele>
        <time>2019-10-07T10:06:56.151Z</time>
      </trkpt>
      <trkpt lat="44.33994" lon="3.47299">
        <ele>529.104198</ele>
        <time>2019-10-07T10:07:03.962Z</time>
      </trkpt>
      <trkpt lat="44.33993" lon="3.4737">
        <ele>533.663779</ele>
        <time>2019-10-07T10:07:37.743Z</time>
      </trkpt>
      <trkpt lat="44.3402" lon="3.47437">
        <ele>538.837007</ele>
        <time>2019-10-07T10:08:18.309Z</time>
      </trkpt>
      <trkpt lat="44.34024" lon="3.4746">
        <ele>540.436902</ele>
        <time>2019-10-07T10:08:29.155Z</time>
      </trkpt>
      <trkpt lat="44.34" lon="3.47474">
        <ele>542.927818</ele>
        <time>2019-10-07T10:08:49.266Z</time>
      </trkpt>
      <trkpt lat="44.3398" lon="3.475">
        <ele>545.501666</ele>
        <time>2019-10-07T10:09:06.915Z</time>
      </trkpt>
      <trkpt lat="44.3393" lon="3.47642">
        <ele>555.700814</ele>
        <time>2019-10-07T10:10:24.965Z</time>
      </trkpt>
      <trkpt lat="44.33897" lon="3.47664">
        <ele>558.827779</ele>
        <time>2019-10-07T10:10:48.577Z</time>
      </trkpt>
      <trkpt lat="44.33831" lon="3.47679">
        <ele>564.755425</ele>
        <time>2019-10-07T10:11:30.963Z</time>
      </trkpt>
      <trkpt lat="44.33833" lon="3.47684">
        <ele>565.134806</ele>
        <time>2019-10-07T10:11:33.599Z</time>
      </trkpt>
      <trkpt lat="44.33944" lon="3.47719">
        <ele>575.536495</ele>
        <time>2019-10-07T10:12:46.717Z</time>
      </trkpt>
      <trkpt lat="44.33977" lon="3.47714">
        <ele>578.582514</ele>
        <time>2019-10-07T10:13:12.501Z</time>
      </trkpt>
      <trkpt lat="44.33993" lon="3.47706">
        <ele>580.149285</ele>
        <time>2019-10-07T10:13:24.487Z</time>
      </trkpt>
      <trkpt lat="44.34032" lon="3.47673">
        <ele>585.355199</ele>
        <time>2019-10-07T10:13:57.800Z</time>
      </trkpt>
      <trkpt lat="44.34036" lon="3.47671">
        <ele>585.848293</ele>
        <time>2019-10-07T10:13:59.982Z</time>
      </trkpt>
      <trkpt lat="44.34039" lon="3.47672">
        <ele>586.207621</ele>
        <time>2019-10-07T10:14:04.124Z</time>
      </trkpt>
      <trkpt lat="44.34029" lon="3.47721">
        <ele>590.542721</ele>
        <time>2019-10-07T10:14:31.252Z</time>
      </trkpt>
      <trkpt lat="44.34015" lon="3.47755">
        <ele>593.832991</ele>
        <time>2019-10-07T10:14:49.231Z</time>
      </trkpt>
      <trkpt lat="44.34002" lon="3.47772">
        <ele>595.990988</ele>
        <time>2019-10-07T10:15:05.472Z</time>
      </trkpt>
      <trkpt lat="44.33957" lon="3.47841">
        <ele>604.20778</ele>
        <time>2019-10-07T10:16:11.597Z</time>
      </trkpt>
      <trkpt lat="44.33912" lon="3.47879">
        <ele>611.310722</ele>
        <time>2019-10-07T10:16:59.508Z</time>
      </trkpt>
      <trkpt lat="44.33913" lon="3.47891">
        <ele>612.489435</ele>
        <time>2019-10-07T10:17:06.823Z</time>
      </trkpt>
      <trkpt lat="44.33923" lon="3.47895">
        <ele>613.832425</ele>
        <time>2019-10-07T10:17:19.165Z</time>
      </trkpt>
      <trkpt lat="44.33947" lon="3.47902">
        <ele>617.205607</ele>
        <time>2019-10-07T10:17:36.824Z</time>
      </trkpt>
      <trkpt lat="44.33959" lon="3.47903">
        <ele>618.886939</ele>
        <time>2019-10-07T10:17:50.809Z</time>
      </trkpt>
      <trkpt lat="44.34037" lon="3.47897">
        <ele>629.823172</ele>
        <time>2019-10-07T10:18:57.183Z</time>
      </trkpt>
      <trkpt lat="44.34187" lon="3.47829">
        <ele>653.498659</ele>
        <time>2019-10-07T10:21:36.672Z</time>
      </trkpt>
      <trkpt lat="44.34187" lon="3.47829">
        <ele>653.498659</ele>
        <time>2019-10-07T10:21:38.549Z</time>
      </trkpt>
      <trkpt lat="44.34256" lon="3.47819">
        <ele>663.325267</ele>
        <time>2019-10-07T10:22:37.039Z</time>
      </trkpt>
      <trkpt lat="44.34295" lon="3.4782">
        <ele>668.669564</ele>
        <time>2019-10-07T10:23:20.534Z</time>
      </trkpt>
      <trkpt lat="44.3434" lon="3.47721">
        <ele>680.212681</ele>
        <time>2019-10-07T10:24:30.965Z</time>
      </trkpt>
      <trkpt lat="44.34395" lon="3.47669">
        <ele>687.733754</ele>
        <time>2019-10-07T10:25:23.026Z</time>
      </trkpt>
      <trkpt lat="44.34419" lon="3.47669">
        <ele>690.56376</ele>
        <time>2019-10-07T10:25:43.016Z</time>
      </trkpt>
      <trkpt lat="44.34429" lon="3.4766">
        <ele>691.909696</ele>
        <time>2019-10-07T10:25:52.529Z</time>
      </trkpt>
      <trkpt lat="44.3445" lon="3.47578">
        <ele>698.923067</ele>
        <time>2019-10-07T10:26:40.867Z</time>
      </trkpt>
      <trkpt lat="44.34487" lon="3.47524">
        <ele>705.490691</ele>
        <time>2019-10-07T10:27:24.307Z</time>
      </trkpt>
      <trkpt lat="44.34508" lon="3.47407">
        <ele>716.051228</ele>
        <time>2019-10-07T10:28:36.174Z</time>
      </trkpt>
      <trkpt lat="44.34557" lon="3.47351">
        <ele>724.524744</ele>
        <time>2019-10-07T10:29:33.651Z</time>
      </trkpt>
      <trkpt lat="44.34564" lon="3.4728">
        <ele>732.77128</ele>
        <time>2019-10-07T10:30:21.672Z</time>
      </trkpt>
      <trkpt lat="44.34571" lon="3.47253">
        <ele>736.013709</ele>
        <time>2019-10-07T10:30:42.232Z</time>
      </trkpt>
      <trkpt lat="44.34631" lon="3.47151">
        <ele>751.426773</ele>
        <time>2019-10-07T10:32:28.531Z</time>
      </trkpt>
      <trkpt lat="44.3466" lon="3.47123">
        <ele>758.007468</ele>
        <time>2019-10-07T10:33:10.997Z</time>
      </trkpt>
      <trkpt lat="44.34684" lon="3.47111">
        <ele>762.73963</ele>
        <time>2019-10-07T10:33:42.137Z</time>
      </trkpt>
      <trkpt lat="44.34749" lon="3.47062">
        <ele>776.504128</ele>
        <time>2019-10-07T10:35:10.703Z</time>
      </trkpt>
      <trkpt lat="44.34751" lon="3.47067">
        <ele>777.266011</ele>
        <time>2019-10-07T10:35:15.413Z</time>
      </trkpt>
      <trkpt lat="44.34728" lon="3.4713">
        <ele>786.407339</ele>
        <time>2019-10-07T10:36:13.778Z</time>
      </trkpt>
      <trkpt lat="44.34796" lon="3.47069">
        <ele>799.214894</ele>
        <time>2019-10-07T10:37:36.320Z</time>
      </trkpt>
      <trkpt lat="44.3481" lon="3.47065">
        <ele>801.60229</ele>
        <time>2019-10-07T10:37:49.721Z</time>
      </trkpt>
      <trkpt lat="44.34831" lon="3.47071">
        <ele>804.888947</ele>
        <time>2019-10-07T10:38:14.516Z</time>
      </trkpt>
      <trkpt lat="44.34834" lon="3.47067">
        <ele>805.64544</ele>
        <time>2019-10-07T10:38:18.614Z</time>
      </trkpt>
      <trkpt lat="44.34832" lon="3.47029">
        <ele>809.901023</ele>
        <time>2019-10-07T10:38:46.825Z</time>
      </trkpt>
      <trkpt lat="44.34838" lon="3.47014">
        <ele>811.885719</ele>
        <time>2019-10-07T10:38:56.552Z</time>
      </trkpt>
      <trkpt lat="44.34868" lon="3.47011">
        <ele>815.736095</ele>
        <time>2019-10-07T10:39:25.342Z</time>
      </trkpt>
      <trkpt lat="44.3487" lon="3.47016">
        <ele>816.226446</ele>
        <time>2019-10-07T10:39:28.274Z</time>
      </trkpt>
      <trkpt lat="44.34857" lon="3.47035">
        <ele>818.420332</ele>
        <time>2019-10-07T10:39:47.333Z</time>
      </trkpt>
      <trkpt lat="44.34858" lon="3.47045">
        <ele>819.353229</ele>
        <time>2019-10-07T10:39:52.974Z</time>
      </trkpt>
      <trkpt lat="44.34875" lon="3.47034">
        <ele>821.661162</ele>
        <time>2019-10-07T10:40:05.641Z</time>
      </trkpt>
      <trkpt lat="44.34876" lon="3.47038">
        <ele>821.970785</ele>
        <time>2019-10-07T10:40:09.214Z</time>
      </trkpt>
      <trkpt lat="44.34879" lon="3.47036">
        <ele>822.371661</ele>
        <time>2019-10-07T10:40:13.794Z</time>
      </trkpt>
      <trkpt lat="44.34927" lon="3.47053">
        <ele>828.324179</ele>
        <time>2019-10-07T10:40:51.800Z</time>
      </trkpt>
      <trkpt lat="44.34993" lon="3.47061">
        <ele>835.672489</ele>
        <time>2019-10-07T10:41:42.283Z</time>
      </trkpt>
      <trkpt lat="44.35005" lon="3.47077">
        <ele>836.856969</ele>
        <time>2019-10-07T10:41:50.653Z</time>
      </trkpt>
      <trkpt lat="44.35013" lon="3.471">
        <ele>838.257456</ele>
        <time>2019-10-07T10:42:07.819Z</time>
      </trkpt>
      <trkpt lat="44.35019" lon="3.47102">
        <ele>838.736936</ele>
        <time>2019-10-07T10:42:11.133Z</time>
      </trkpt>
      <trkpt lat="44.3504" lon="3.47098">
        <ele>840.30081</ele>
        <time>2019-10-07T10:42:22.667Z</time>
      </trkpt>
      <trkpt lat="44.3506" lon="3.47077">
        <ele>842.187096</ele>
        <time>2019-10-07T10:42:35.796Z</time>
      </trkpt>
      <trkpt lat="44.35098" lon="3.47056">
        <ele>845.227639</ele>
        <time>2019-10-07T10:42:57.684Z</time>
      </trkpt>
      <trkpt lat="44.35109" lon="3.47039">
        <ele>846.453863</ele>
        <time>2019-10-07T10:43:06.792Z</time>
      </trkpt>
      <trkpt lat="44.35113" lon="3.47022">
        <ele>847.393216</ele>
        <time>2019-10-07T10:43:13.595Z</time>
      </trkpt>
      <trkpt lat="44.35112" lon="3.47012">
        <ele>847.951415</ele>
        <time>2019-10-07T10:43:17.605Z</time>
      </trkpt>
      <trkpt lat="44.35112" lon="3.47006">
        <ele>848.279549</ele>
        <time>2019-10-07T10:43:20.712Z</time>
      </trkpt>
      <trkpt lat="44.35103" lon="3.46961">
        <ele>850.573695</ele>
        <time>2019-10-07T10:43:38.487Z</time>
      </trkpt>
      <trkpt lat="44.35109" lon="3.46927">
        <ele>852.358139</ele>
        <time>2019-10-07T10:43:52.321Z</time>
      </trkpt>
      <trkpt lat="44.35109" lon="3.46927">
        <ele>852.358139</ele>
        <time>2019-10-07T10:43:52.433Z</time>
      </trkpt>
      <trkpt lat="44.35116" lon="3.46914">
        <ele>853.161294</ele>
        <time>2019-10-07T10:43:59.144Z</time>
      </trkpt>
      <trkpt lat="44.35158" lon="3.46879">
        <ele>856.570013</ele>
        <time>2019-10-07T10:44:27.931Z</time>
      </trkpt>
      <trkpt lat="44.35219" lon="3.46861">
        <ele>860.934233</ele>
        <time>2019-10-07T10:45:06.254Z</time>
      </trkpt>
      <trkpt lat="44.35299" lon="3.46856">
        <ele>866.162944</ele>
        <time>2019-10-07T10:45:52.974Z</time>
      </trkpt>
      <trkpt lat="44.35385" lon="3.46904">
        <ele>872.264292</ele>
        <time>2019-10-07T10:46:44.520Z</time>
      </trkpt>
      <trkpt lat="44.35412" lon="3.4693">
        <ele>873.574857</ele>
        <time>2019-10-07T10:47:00.266Z</time>
      </trkpt>
      <trkpt lat="44.35432" lon="3.46935">
        <ele>874.352013</ele>
        <time>2019-10-07T10:47:09.184Z</time>
      </trkpt>
      <trkpt lat="44.35443" lon="3.46937">
        <ele>874.778282</ele>
        <time>2019-10-07T10:47:14.337Z</time>
      </trkpt>
      <trkpt lat="44.35458" lon="3.46933">
        <ele>875.333784</ele>
        <time>2019-10-07T10:47:20.708Z</time>
      </trkpt>
      <trkpt lat="44.35499" lon="3.46915">
        <ele>876.971816</ele>
        <time>2019-10-07T10:47:37.587Z</time>
      </trkpt>
      <trkpt lat="44.3555" lon="3.46867">
        <ele>879.278333</ele>
        <time>2019-10-07T10:48:01.406Z</time>
      </trkpt>
      <trkpt lat="44.35622" lon="3.46784">
        <ele>881.24045</ele>
        <time>2019-10-07T10:48:31.784Z</time>
      </trkpt>
      <trkpt lat="44.3563" lon="3.46781">
        <ele>881.41796</ele>
        <time>2019-10-07T10:48:34.238Z</time>
      </trkpt>
      <trkpt lat="44.35634" lon="3.46782">
        <ele>881.500303</ele>
        <time>2019-10-07T10:48:35.805Z</time>
      </trkpt>
      <trkpt lat="44.35637" lon="3.46779">
        <ele>881.580405</ele>
        <time>2019-10-07T10:48:37.466Z</time>
      </trkpt>
      <trkpt lat="44.35732" lon="3.46642">
        <ele>884.990727</ele>
        <time>2019-10-07T10:49:41.960Z</time>
      </trkpt>
      <trkpt lat="44.35758" lon="3.46628">
        <ele>885.808859</ele>
        <time>2019-10-07T10:49:56.374Z</time>
      </trkpt>
      <trkpt lat="44.35779" lon="3.46626">
        <ele>886.399342</ele>
        <time>2019-10-07T10:50:07.374Z</time>
      </trkpt>
      <trkpt lat="44.35788" lon="3.46616">
        <ele>886.738786</ele>
        <time>2019-10-07T10:50:13.191Z</time>
      </trkpt>
      <trkpt lat="44.35792" lon="3.4661">
        <ele>886.903645</ele>
        <time>2019-10-07T10:50:16.341Z</time>
      </trkpt>
      <trkpt lat="44.35815" lon="3.46624">
        <ele>887.65258</ele>
        <time>2019-10-07T10:50:30.696Z</time>
      </trkpt>
      <trkpt lat="44.3584" lon="3.46623">
        <ele>888.438825</ele>
        <time>2019-10-07T10:50:44.851Z</time>
      </trkpt>
      <trkpt lat="44.35889" lon="3.46638">
        <ele>890.640483</ele>
        <time>2019-10-07T10:51:13.422Z</time>
      </trkpt>
      <trkpt lat="44.35906" lon="3.46644">
        <ele>891.446176</ele>
        <time>2019-10-07T10:51:24.490Z</time>
      </trkpt>
      <trkpt lat="44.35963" lon="3.46654">
        <ele>893.997877</ele>
        <time>2019-10-07T10:51:58.949Z</time>
      </trkpt>
      <trkpt lat="44.36007" lon="3.46644">
        <ele>895.960507</ele>
        <time>2019-10-07T10:52:24.926Z</time>
      </trkpt>
      <trkpt lat="44.36042" lon="3.46625">
        <ele>898.179673</ele>
        <time>2019-10-07T10:52:48.739Z</time>
      </trkpt>
      <trkpt lat="44.36055" lon="3.46632">
        <ele>899.00757</ele>
        <time>2019-10-07T10:52:56.715Z</time>
      </trkpt>
      <trkpt lat="44.36065" lon="3.46656">
        <ele>900.255019</ele>
        <time>2019-10-07T10:53:09.484Z</time>
      </trkpt>
      <trkpt lat="44.36097" lon="3.4666">
        <ele>902.226686</ele>
        <time>2019-10-07T10:53:32.540Z</time>
      </trkpt>
      <trkpt lat="44.36109" lon="3.46664">
        <ele>902.994748</ele>
        <time>2019-10-07T10:53:40.259Z</time>
      </trkpt>
      <trkpt lat="44.36114" lon="3.46648">
        <ele>903.76746</ele>
        <time>2019-10-07T10:53:47.814Z</time>
      </trkpt>
      <trkpt lat="44.36124" lon="3.46615">
        <ele>905.338027</ele>
        <time>2019-10-07T10:54:01.993Z</time>
      </trkpt>
      <trkpt lat="44.3613" lon="3.46608">
        <ele>905.854357</ele>
        <time>2019-10-07T10:54:07.002Z</time>
      </trkpt>
      <trkpt lat="44.36126" lon="3.46595">
        <ele>906.462936</ele>
        <time>2019-10-07T10:54:15.738Z</time>
      </trkpt>
      <trkpt lat="44.36124" lon="3.46583">
        <ele>907.020251</ele>
        <time>2019-10-07T10:54:21.128Z</time>
      </trkpt>
      <trkpt lat="44.36134" lon="3.46528">
        <ele>910.037232</ele>
        <time>2019-10-07T10:54:50.628Z</time>
      </trkpt>
      <trkpt lat="44.36144" lon="3.4652">
        <ele>910.933344</ele>
        <time>2019-10-07T10:54:59.585Z</time>
      </trkpt>
      <trkpt lat="44.36141" lon="3.46505">
        <ele>911.741192</ele>
        <time>2019-10-07T10:55:09.251Z</time>
      </trkpt>
      <trkpt lat="44.36114" lon="3.46453">
        <ele>915.250831</ele>
        <time>2019-10-07T10:55:43.212Z</time>
      </trkpt>
      <trkpt lat="44.36118" lon="3.46353">
        <ele>920.750404</ele>
        <time>2019-10-07T10:56:38.577Z</time>
      </trkpt>
      <trkpt lat="44.36115" lon="3.46333">
        <ele>921.717897</ele>
        <time>2019-10-07T10:56:49.783Z</time>
      </trkpt>
      <trkpt lat="44.36092" lon="3.46316">
        <ele>923.341697</ele>
        <time>2019-10-07T10:57:09.429Z</time>
      </trkpt>
      <trkpt lat="44.36083" lon="3.463">
        <ele>924.269449</ele>
        <time>2019-10-07T10:57:19.631Z</time>
      </trkpt>
      <trkpt lat="44.36076" lon="3.46231">
        <ele>927.364551</ele>
        <time>2019-10-07T10:57:53.326Z</time>
      </trkpt>
      <trkpt lat="44.36082" lon="3.46151">
        <ele>930.934788</ele>
        <time>2019-10-07T10:58:31.339Z</time>
      </trkpt>
      <trkpt lat="44.36088" lon="3.46118">
        <ele>932.392798</ele>
        <time>2019-10-07T10:58:46.959Z</time>
      </trkpt>
      <trkpt lat="44.36114" lon="3.46072">
        <ele>933.756396</ele>
        <time>2019-10-07T10:59:12.923Z</time>
      </trkpt>
      <trkpt lat="44.36173" lon="3.46014">
        <ele>936.074874</ele>
        <time>2019-10-07T10:59:53.076Z</time>
      </trkpt>
      <trkpt lat="44.36213" lon="3.45998">
        <ele>937.421664</ele>
        <time>2019-10-07T11:00:13.298Z</time>
      </trkpt>
      <trkpt lat="44.36295" lon="3.45986">
        <ele>937.299023</ele>
        <time>2019-10-07T11:00:45.644Z</time>
      </trkpt>
      <trkpt lat="44.36313" lon="3.45979">
        <ele>937.059909</ele>
        <time>2019-10-07T11:00:51.789Z</time>
      </trkpt>
      <trkpt lat="44.3634" lon="3.45954">
        <ele>936.621399</ele>
        <time>2019-10-07T11:01:02.573Z</time>
      </trkpt>
      <trkpt lat="44.36389" lon="3.4595">
        <ele>935.967866</ele>
        <time>2019-10-07T11:01:17.836Z</time>
      </trkpt>
      <trkpt lat="44.36408" lon="3.45927">
        <ele>935.507689</ele>
        <time>2019-10-07T11:01:25.675Z</time>
      </trkpt>
      <trkpt lat="44.36473" lon="3.45786">
        <ele>931.554113</ele>
        <time>2019-10-07T11:02:01.610Z</time>
      </trkpt>
      <trkpt lat="44.36473" lon="3.45787">
        <ele>926.7</ele>
      </trkpt>
      <trkpt lat="44.36479" lon="3.4578">
        <ele>926.6</ele>
      </trkpt>
      <trkpt lat="44.36494" lon="3.45768">
        <ele>926.4</ele>
      </trkpt>
      <trkpt lat="44.36517" lon="3.45756">
        <ele>926.1</ele>
      </trkpt>
      <trkpt lat="44.36537" lon="3.45751">
        <ele>926</ele>
      </trkpt>
      <trkpt lat="44.36551" lon="3.45745">
        <ele>926</ele>
      </trkpt>
      <trkpt lat="44.36572" lon="3.45733">
        <ele>926</ele>
      </trkpt>
      <trkpt lat="44.36587" lon="3.45722">
        <ele>925.8</ele>
      </trkpt>
      <trkpt lat="44.36598" lon="3.45714">
        <ele>925.5</ele>
      </trkpt>
      <trkpt lat="44.3661" lon="3.45706">
        <ele>925.3</ele>
      </trkpt>
      <trkpt lat="44.36618" lon="3.45699">
        <ele>925.2</ele>
      </trkpt>
      <trkpt lat="44.36639" lon="3.45669">
        <ele>925.9</ele>
      </trkpt>
      <trkpt lat="44.36648" lon="3.45661">
        <ele>926.1</ele>
      </trkpt>
      <trkpt lat="44.36664" lon="3.4565">
        <ele>926.2</ele>
      </trkpt>
      <trkpt lat="44.36673" lon="3.45641">
        <ele>926.7</ele>
      </trkpt>
      <trkpt lat="44.36682" lon="3.4563">
        <ele>927.5</ele>
      </trkpt>
      <trkpt lat="44.36696" lon="3.45605">
        <ele>929.3</ele>
      </trkpt>
      <trkpt lat="44.36703" lon="3.4559">
        <ele>930.7</ele>
      </trkpt>
      <trkpt lat="44.36709" lon="3.4557">
        <ele>931.5</ele>
      </trkpt>
      <trkpt lat="44.36716" lon="3.45553">
        <ele>932</ele>
      </trkpt>
      <trkpt lat="44.36722" lon="3.45534">
        <ele>932.4</ele>
      </trkpt>
      <trkpt lat="44.36727" lon="3.45522">
        <ele>932.6</ele>
      </trkpt>
      <trkpt lat="44.36731" lon="3.45507">
        <ele>932.8</ele>
      </trkpt>
      <trkpt lat="44.3674" lon="3.4549">
        <ele>933</ele>
      </trkpt>
      <trkpt lat="44.36749" lon="3.45476">
        <ele>933.1</ele>
      </trkpt>
      <trkpt lat="44.36756" lon="3.4547">
        <ele>932.9</ele>
      </trkpt>
      <trkpt lat="44.3677" lon="3.45463">
        <ele>932.7</ele>
      </trkpt>
      <trkpt lat="44.3678" lon="3.45453">
        <ele>932.3</ele>
      </trkpt>
      <trkpt lat="44.36791" lon="3.45442">
        <ele>931.7</ele>
      </trkpt>
      <trkpt lat="44.36806" lon="3.45433">
        <ele>931.2</ele>
      </trkpt>
      <trkpt lat="44.36811" lon="3.45425">
        <ele>930.7</ele>
      </trkpt>
      <trkpt lat="44.36818" lon="3.45413">
        <ele>929.9</ele>
      </trkpt>
      <trkpt lat="44.36825" lon="3.4539">
        <ele>927.9</ele>
      </trkpt>
      <trkpt lat="44.36834" lon="3.45349">
        <ele>924.3</ele>
      </trkpt>
      <trkpt lat="44.36841" lon="3.45324">
        <ele>922.8</ele>
      </trkpt>
      <trkpt lat="44.3685" lon="3.45291">
        <ele>921.4</ele>
      </trkpt>
      <trkpt lat="44.36856" lon="3.45258">
        <ele>919.9</ele>
      </trkpt>
      <trkpt lat="44.36859" lon="3.45219">
        <ele>919</ele>
      </trkpt>
      <trkpt lat="44.36862" lon="3.45199">
        <ele>918.6</ele>
      </trkpt>
      <trkpt lat="44.36862" lon="3.45195">
        <ele>918.6</ele>
      </trkpt>
      <trkpt lat="44.36857" lon="3.45156">
        <ele>925.565755</ele>
        <time>2019-10-07T11:06:27.906Z</time>
      </trkpt>
      <trkpt lat="44.36859" lon="3.45094">
        <ele>924.901025</ele>
        <time>2019-10-07T11:06:43.537Z</time>
      </trkpt>
      <trkpt lat="44.36872" lon="3.45012">
        <ele>923.593445</ele>
        <time>2019-10-07T11:07:04.016Z</time>
      </trkpt>
      <trkpt lat="44.36877" lon="3.44936">
        <ele>922.39531</ele>
        <time>2019-10-07T11:07:21.811Z</time>
      </trkpt>
      <trkpt lat="44.36887" lon="3.44904">
        <ele>921.851339</ele>
        <time>2019-10-07T11:07:29.481Z</time>
      </trkpt>
      <trkpt lat="44.36898" lon="3.44892">
        <ele>921.54054</ele>
        <time>2019-10-07T11:07:33.802Z</time>
      </trkpt>
      <trkpt lat="44.36931" lon="3.44813">
        <ele>918.759547</ele>
        <time>2019-10-07T11:07:52.989Z</time>
      </trkpt>
      <trkpt lat="44.36931" lon="3.448">
        <ele>918.322948</ele>
        <time>2019-10-07T11:07:55.732Z</time>
      </trkpt>
      <trkpt lat="44.36957" lon="3.44727">
        <ele>915.63693</ele>
        <time>2019-10-07T11:08:12.273Z</time>
      </trkpt>
      <trkpt lat="44.36956" lon="3.44687">
        <ele>914.313415</ele>
        <time>2019-10-07T11:08:20.359Z</time>
      </trkpt>
      <trkpt lat="44.36984" lon="3.44499">
        <ele>910.051523</ele>
        <time>2019-10-07T11:09:01.452Z</time>
      </trkpt>
      <trkpt lat="44.36997" lon="3.44432">
        <ele>908.68739</ele>
        <time>2019-10-07T11:09:18.543Z</time>
      </trkpt>
      <trkpt lat="44.37016" lon="3.44381">
        <ele>908.187373</ele>
        <time>2019-10-07T11:09:33.215Z</time>
      </trkpt>
      <trkpt lat="44.37054" lon="3.44339">
        <ele>908.346866</ele>
        <time>2019-10-07T11:09:51.840Z</time>
      </trkpt>
      <trkpt lat="44.37112" lon="3.44316">
        <ele>908.544527</ele>
        <time>2019-10-07T11:10:16.834Z</time>
      </trkpt>
      <trkpt lat="44.37166" lon="3.44245">
        <ele>908.713518</ele>
        <time>2019-10-07T11:10:46.959Z</time>
      </trkpt>
      <trkpt lat="44.37232" lon="3.44192">
        <ele>908.721818</ele>
        <time>2019-10-07T11:11:15.402Z</time>
      </trkpt>
      <trkpt lat="44.37281" lon="3.44145">
        <ele>908.728229</ele>
        <time>2019-10-07T11:11:36.539Z</time>
      </trkpt>
      <trkpt lat="44.37389" lon="3.44064">
        <ele>908.801855</ele>
        <time>2019-10-07T11:12:21.029Z</time>
      </trkpt>
      <trkpt lat="44.37436" lon="3.44021">
        <ele>908.841243</ele>
        <time>2019-10-07T11:12:42.400Z</time>
      </trkpt>
      <trkpt lat="44.37557" lon="3.43953">
        <ele>910.261087</ele>
        <time>2019-10-07T11:13:37.895Z</time>
      </trkpt>
      <trkpt lat="44.3766" lon="3.43909">
        <ele>912.30914</ele>
        <time>2019-10-07T11:14:26.518Z</time>
      </trkpt>
      <trkpt lat="44.3772" lon="3.43863">
        <ele>914.441582</ele>
        <time>2019-10-07T11:15:01.375Z</time>
      </trkpt>
      <trkpt lat="44.37723" lon="3.43858">
        <ele>914.604389</ele>
        <time>2019-10-07T11:15:04.481Z</time>
      </trkpt>
      <trkpt lat="44.37719" lon="3.4384">
        <ele>915.010528</ele>
        <time>2019-10-07T11:15:11.041Z</time>
      </trkpt>
      <trkpt lat="44.37715" lon="3.43831">
        <ele>915.245805</ele>
        <time>2019-10-07T11:15:15.476Z</time>
      </trkpt>
      <trkpt lat="44.37713" lon="3.43825">
        <ele>915.394723</ele>
        <time>2019-10-07T11:15:18.577Z</time>
      </trkpt>
      <trkpt lat="44.37703" lon="3.43788">
        <ele>916.288255</ele>
        <time>2019-10-07T11:15:35.747Z</time>
      </trkpt>
      <trkpt lat="44.37688" lon="3.43766">
        <ele>916.940544</ele>
        <time>2019-10-07T11:15:47.224Z</time>
      </trkpt>
      <trkpt lat="44.3766" lon="3.43728">
        <ele>918.077081</ele>
        <time>2019-10-07T11:16:04.046Z</time>
      </trkpt>
      <trkpt lat="44.37652" lon="3.43709">
        <ele>918.532685</ele>
        <time>2019-10-07T11:16:09.941Z</time>
      </trkpt>
      <trkpt lat="44.37647" lon="3.43669">
        <ele>919.374156</ele>
        <time>2019-10-07T11:16:21.305Z</time>
      </trkpt>
      <trkpt lat="44.37647" lon="3.43641">
        <ele>919.939887</ele>
        <time>2019-10-07T11:16:30.497Z</time>
      </trkpt>
      <trkpt lat="44.37653" lon="3.43612">
        <ele>920.555657</ele>
        <time>2019-10-07T11:16:37.425Z</time>
      </trkpt>
      <trkpt lat="44.37661" lon="3.43571">
        <ele>921.430146</ele>
        <time>2019-10-07T11:16:49.025Z</time>
      </trkpt>
      <trkpt lat="44.37621" lon="3.43443">
        <ele>921.000783</ele>
        <time>2019-10-07T11:17:11.456Z</time>
      </trkpt>
      <trkpt lat="44.37608" lon="3.43342">
        <ele>920.108859</ele>
        <time>2019-10-07T11:17:25.010Z</time>
      </trkpt>
      <trkpt lat="44.37609" lon="3.43314">
        <ele>919.866229</ele>
        <time>2019-10-07T11:17:28.583Z</time>
      </trkpt>
      <trkpt lat="44.37618" lon="3.43277">
        <ele>919.809985</ele>
        <time>2019-10-07T11:17:34.220Z</time>
      </trkpt>
      <trkpt lat="44.37639" lon="3.43219">
        <ele>919.829923</ele>
        <time>2019-10-07T11:17:43.731Z</time>
      </trkpt>
      <trkpt lat="44.37648" lon="3.43168">
        <ele>919.846211</ele>
        <time>2019-10-07T11:17:52.403Z</time>
      </trkpt>
      <trkpt lat="44.37672" lon="3.4312">
        <ele>919.864354</ele>
        <time>2019-10-07T11:18:04.202Z</time>
      </trkpt>
      <trkpt lat="44.37698" lon="3.43091">
        <ele>919.885944</ele>
        <time>2019-10-07T11:18:16.081Z</time>
      </trkpt>
      <trkpt lat="44.37731" lon="3.43069">
        <ele>920.160194</ele>
        <time>2019-10-07T11:18:28.826Z</time>
      </trkpt>
      <trkpt lat="44.37731" lon="3.43069">
        <ele>924.8</ele>
      </trkpt>
      <trkpt lat="44.37753" lon="3.43051">
        <ele>925.1</ele>
      </trkpt>
      <trkpt lat="44.37773" lon="3.43031">
        <ele>925.8</ele>
      </trkpt>
      <trkpt lat="44.37789" lon="3.4301">
        <ele>925.6</ele>
      </trkpt>
      <trkpt lat="44.37802" lon="3.42991">
        <ele>924.8</ele>
      </trkpt>
      <trkpt lat="44.37806" lon="3.42976">
        <ele>923.8</ele>
      </trkpt>
      <trkpt lat="44.37812" lon="3.42957">
        <ele>922.4</ele>
      </trkpt>
      <trkpt lat="44.37816" lon="3.42946">
        <ele>921.4</ele>
      </trkpt>
      <trkpt lat="44.37839" lon="3.42914">
        <ele>917.9</ele>
      </trkpt>
      <trkpt lat="44.37852" lon="3.42903">
        <ele>917.3</ele>
      </trkpt>
      <trkpt lat="44.37857" lon="3.42898">
        <ele>917</ele>
      </trkpt>
      <trkpt lat="44.37865" lon="3.42891">
        <ele>916.5</ele>
      </trkpt>
      <trkpt lat="44.37888" lon="3.42874">
        <ele>915.1</ele>
      </trkpt>
      <trkpt lat="44.37904" lon="3.42858">
        <ele>913.5</ele>
      </trkpt>
      <trkpt lat="44.37917" lon="3.42849">
        <ele>912.5</ele>
      </trkpt>
      <trkpt lat="44.37927" lon="3.42835">
        <ele>912.8</ele>
      </trkpt>
      <trkpt lat="44.37932" lon="3.42833">
        <ele>913.3</ele>
      </trkpt>
      <trkpt lat="44.37942" lon="3.42827">
        <ele>914.5</ele>
      </trkpt>
      <trkpt lat="44.3795" lon="3.42815">
        <ele>915.2</ele>
      </trkpt>
      <trkpt lat="44.37963" lon="3.42787">
        <ele>916</ele>
      </trkpt>
      <trkpt lat="44.37973" lon="3.42762">
        <ele>916.7</ele>
      </trkpt>
      <trkpt lat="44.37981" lon="3.42758">
        <ele>917.9</ele>
      </trkpt>
      <trkpt lat="44.37979" lon="3.42741">
        <ele>916.5</ele>
      </trkpt>
      <trkpt lat="44.37981" lon="3.42719">
        <ele>915</ele>
      </trkpt>
      <trkpt lat="44.37989" lon="3.42661">
        <ele>911.5</ele>
      </trkpt>
      <trkpt lat="44.37995" lon="3.42627">
        <ele>909.2</ele>
      </trkpt>
      <trkpt lat="44.38002" lon="3.42604">
        <ele>908.4</ele>
      </trkpt>
      <trkpt lat="44.38017" lon="3.42576">
        <ele>907.8</ele>
      </trkpt>
      <trkpt lat="44.38038" lon="3.42549">
        <ele>907.2</ele>
      </trkpt>
      <trkpt lat="44.38063" lon="3.42519">
        <ele>907.5</ele>
      </trkpt>
      <trkpt lat="44.38091" lon="3.42495">
        <ele>908.3</ele>
      </trkpt>
      <trkpt lat="44.38126" lon="3.42469">
        <ele>904.6</ele>
      </trkpt>
      <trkpt lat="44.3816" lon="3.42441">
        <ele>900.4</ele>
      </trkpt>
      <trkpt lat="44.38162" lon="3.4244">
        <ele>900.2</ele>
      </trkpt>
      <trkpt lat="44.38198" lon="3.42411">
        <ele>898.019099</ele>
        <time>2019-10-07T11:21:28.532Z</time>
      </trkpt>
      <trkpt lat="44.38313" lon="3.42356">
        <ele>889.488042</ele>
        <time>2019-10-07T11:22:01.155Z</time>
      </trkpt>
      <trkpt lat="44.3837" lon="3.42318">
        <ele>885.714209</ele>
        <time>2019-10-07T11:22:17.782Z</time>
      </trkpt>
      <trkpt lat="44.38455" lon="3.42291">
        <ele>881.681121</ele>
        <time>2019-10-07T11:22:42.654Z</time>
      </trkpt>
      <trkpt lat="44.38484" lon="3.42294">
        <ele>880.335781</ele>
        <time>2019-10-07T11:22:51.408Z</time>
      </trkpt>
      <trkpt lat="44.38493" lon="3.423">
        <ele>879.825289</ele>
        <time>2019-10-07T11:22:55.371Z</time>
      </trkpt>
      <trkpt lat="44.38594" lon="3.42406">
        <ele>877.588085</ele>
        <time>2019-10-07T11:23:38.255Z</time>
      </trkpt>
      <trkpt lat="44.38631" lon="3.4251">
        <ele>876.671867</ele>
        <time>2019-10-07T11:24:09.684Z</time>
      </trkpt>
      <trkpt lat="44.38631" lon="3.4251">
        <ele>876.671867</ele>
        <time>2019-10-07T11:24:09.696Z</time>
      </trkpt>
      <trkpt lat="44.3864" lon="3.42519">
        <ele>876.458594</ele>
        <time>2019-10-07T11:24:12.895Z</time>
      </trkpt>
      <trkpt lat="44.38647" lon="3.42515">
        <ele>876.30223</ele>
        <time>2019-10-07T11:24:15.503Z</time>
      </trkpt>
      <trkpt lat="44.38683" lon="3.42426">
        <ele>874.848888</ele>
        <time>2019-10-07T11:24:38.869Z</time>
      </trkpt>
      <trkpt lat="44.38719" lon="3.42377">
        <ele>873.843455</ele>
        <time>2019-10-07T11:24:55.304Z</time>
      </trkpt>
      <trkpt lat="44.38734" lon="3.42371">
        <ele>873.52615</ele>
        <time>2019-10-07T11:24:59.923Z</time>
      </trkpt>
      <trkpt lat="44.38754" lon="3.42354">
        <ele>873.064267</ele>
        <time>2019-10-07T11:25:04.651Z</time>
      </trkpt>
      <trkpt lat="44.38778" lon="3.42335">
        <ele>872.431597</ele>
        <time>2019-10-07T11:25:10.056Z</time>
      </trkpt>
      <trkpt lat="44.38838" lon="3.42306">
        <ele>871.023005</ele>
        <time>2019-10-07T11:25:22.176Z</time>
      </trkpt>
      <trkpt lat="44.38897" lon="3.42316">
        <ele>869.701596</ele>
        <time>2019-10-07T11:25:33.150Z</time>
      </trkpt>
      <trkpt lat="44.38928" lon="3.42327">
        <ele>869.132857</ele>
        <time>2019-10-07T11:25:39.057Z</time>
      </trkpt>
      <trkpt lat="44.38956" lon="3.423">
        <ele>869.04086</ele>
        <time>2019-10-07T11:25:45.647Z</time>
      </trkpt>
      <trkpt lat="44.38983" lon="3.42289">
        <ele>868.963802</ele>
        <time>2019-10-07T11:25:51.393Z</time>
      </trkpt>
      <trkpt lat="44.38993" lon="3.42282">
        <ele>868.934795</ele>
        <time>2019-10-07T11:25:53.270Z</time>
      </trkpt>
      <trkpt lat="44.38977" lon="3.42251">
        <ele>868.860823</ele>
        <time>2019-10-07T11:26:00.217Z</time>
      </trkpt>
      <trkpt lat="44.38984" lon="3.42232">
        <ele>868.820873</ele>
        <time>2019-10-07T11:26:03.123Z</time>
      </trkpt>
      <trkpt lat="44.3899" lon="3.42227">
        <ele>868.799764</ele>
        <time>2019-10-07T11:26:05.039Z</time>
      </trkpt>
      <trkpt lat="44.39008" lon="3.42212">
        <ele>868.745237</ele>
        <time>2019-10-07T11:26:11.694Z</time>
      </trkpt>
      <trkpt lat="44.3901" lon="3.42203">
        <ele>868.727804</ele>
        <time>2019-10-07T11:26:12.876Z</time>
      </trkpt>
      <trkpt lat="44.3901" lon="3.42197">
        <ele>868.714988</ele>
        <time>2019-10-07T11:26:13.797Z</time>
      </trkpt>
      <trkpt lat="44.39017" lon="3.42184">
        <ele>868.685025</ele>
        <time>2019-10-07T11:26:18.178Z</time>
      </trkpt>
      <trkpt lat="44.39027" lon="3.42176">
        <ele>868.95935</ele>
        <time>2019-10-07T11:26:22.123Z</time>
      </trkpt>
      <trkpt lat="44.39048" lon="3.42198">
        <ele>870.633507</ele>
        <time>2019-10-07T11:26:33.338Z</time>
      </trkpt>
      <trkpt lat="44.39053" lon="3.42161">
        <ele>872.356401</ele>
        <time>2019-10-07T11:26:42.935Z</time>
      </trkpt>
      <trkpt lat="44.39055" lon="3.42146">
        <ele>873.070244</ele>
        <time>2019-10-07T11:26:50.252Z</time>
      </trkpt>
      <trkpt lat="44.39056" lon="3.42135">
        <ele>873.626143</ele>
        <time>2019-10-07T11:26:55.817Z</time>
      </trkpt>
      <trkpt lat="44.39058" lon="3.42077">
        <ele>876.291153</ele>
        <time>2019-10-07T11:27:26.448Z</time>
      </trkpt>
      <trkpt lat="44.39053" lon="3.42073">
        <ele>876.654374</ele>
        <time>2019-10-07T11:27:29.936Z</time>
      </trkpt>
      <trkpt lat="44.39031" lon="3.42086">
        <ele>878.183622</ele>
        <time>2019-10-07T11:27:51.791Z</time>
      </trkpt>
      <trkpt lat="44.39018" lon="3.42092">
        <ele>879.048069</ele>
        <time>2019-10-07T11:28:00.983Z</time>
      </trkpt>
      <trkpt lat="44.39025" lon="3.42082">
        <ele>879.673115</ele>
        <time>2019-10-07T11:28:11.138Z</time>
      </trkpt>
      <trkpt lat="44.39035" lon="3.42069">
        <ele>880.727906</ele>
        <time>2019-10-07T11:28:22.431Z</time>
      </trkpt>
      <trkpt lat="44.39053" lon="3.42031">
        <ele>884.281987</ele>
        <time>2019-10-07T11:28:50.668Z</time>
      </trkpt>
      <trkpt lat="44.39091" lon="3.41984">
        <ele>889.813865</ele>
        <time>2019-10-07T11:29:34.825Z</time>
      </trkpt>
      <trkpt lat="44.39192" lon="3.41885">
        <ele>903.38333</ele>
        <time>2019-10-07T11:31:33.446Z</time>
      </trkpt>
      <trkpt lat="44.39198" lon="3.41875">
        <ele>904.466239</ele>
        <time>2019-10-07T11:31:44.191Z</time>
      </trkpt>
      <trkpt lat="44.39203" lon="3.41862">
        <ele>905.695205</ele>
        <time>2019-10-07T11:31:55.654Z</time>
      </trkpt>
      <trkpt lat="44.39204" lon="3.41834">
        <ele>907.940127</ele>
        <time>2019-10-07T11:32:10.625Z</time>
      </trkpt>
      <trkpt lat="44.39205" lon="3.41827">
        <ele>908.541896</ele>
        <time>2019-10-07T11:32:17.119Z</time>
      </trkpt>
      <trkpt lat="44.39208" lon="3.41824">
        <ele>909.035178</ele>
        <time>2019-10-07T11:32:23.437Z</time>
      </trkpt>
      <trkpt lat="44.39278" lon="3.41747">
        <ele>919.278842</ele>
        <time>2019-10-07T11:33:45.160Z</time>
      </trkpt>
      <trkpt lat="44.39411" lon="3.41651">
        <ele>934.77894</ele>
        <time>2019-10-07T11:35:59.784Z</time>
      </trkpt>
      <trkpt lat="44.39431" lon="3.41632">
        <ele>937.237451</ele>
        <time>2019-10-07T11:36:20.381Z</time>
      </trkpt>
      <trkpt lat="44.39451" lon="3.416">
        <ele>940.196281</ele>
        <time>2019-10-07T11:36:46.330Z</time>
      </trkpt>
      <trkpt lat="44.39473" lon="3.4156">
        <ele>943.340657</ele>
        <time>2019-10-07T11:37:15.777Z</time>
      </trkpt>
      <trkpt lat="44.39487" lon="3.41533">
        <ele>945.48054</ele>
        <time>2019-10-07T11:37:35.867Z</time>
      </trkpt>
      <trkpt lat="44.395" lon="3.41512">
        <ele>947.212327</ele>
        <time>2019-10-07T11:37:50.805Z</time>
      </trkpt>
      <trkpt lat="44.39541" lon="3.41473">
        <ele>951.62691</ele>
        <time>2019-10-07T11:38:32.519Z</time>
      </trkpt>
      <trkpt lat="44.39613" lon="3.41432">
        <ele>957.345803</ele>
        <time>2019-10-07T11:39:33.681Z</time>
      </trkpt>
      <trkpt lat="44.39636" lon="3.41427">
        <ele>958.74585</ele>
        <time>2019-10-07T11:39:48.463Z</time>
      </trkpt>
      <trkpt lat="44.39647" lon="3.41429">
        <ele>959.417009</ele>
        <time>2019-10-07T11:39:56.709Z</time>
      </trkpt>
      <trkpt lat="44.39689" lon="3.4141">
        <ele>962.035233</ele>
        <time>2019-10-07T11:40:25.307Z</time>
      </trkpt>
      <trkpt lat="44.3973" lon="3.41382">
        <ele>964.816759</ele>
        <time>2019-10-07T11:40:54.165Z</time>
      </trkpt>
      <trkpt lat="44.3981" lon="3.4136">
        <ele>966.204367</ele>
        <time>2019-10-07T11:41:39.591Z</time>
      </trkpt>
      <trkpt lat="44.39852" lon="3.41336">
        <ele>966.522435</ele>
        <time>2019-10-07T11:41:57.831Z</time>
      </trkpt>
      <trkpt lat="44.39871" lon="3.41332">
        <ele>966.65288</ele>
        <time>2019-10-07T11:42:04.342Z</time>
      </trkpt>
      <trkpt lat="44.39955" lon="3.41344">
        <ele>965.26898</ele>
        <time>2019-10-07T11:42:31.292Z</time>
      </trkpt>
      <trkpt lat="44.4012" lon="3.41391">
        <ele>956.690255</ele>
        <time>2019-10-07T11:43:18.707Z</time>
      </trkpt>
      <trkpt lat="44.40157" lon="3.41367">
        <ele>954.29217</ele>
        <time>2019-10-07T11:43:29.929Z</time>
      </trkpt>
      <trkpt lat="44.40178" lon="3.4132">
        <ele>951.961772</ele>
        <time>2019-10-07T11:43:40.942Z</time>
      </trkpt>
      <trkpt lat="44.40211" lon="3.41282">
        <ele>949.445861</ele>
        <time>2019-10-07T11:43:52.872Z</time>
      </trkpt>
      <trkpt lat="44.40335" lon="3.412">
        <ele>941.353324</ele>
        <time>2019-10-07T11:44:32.067Z</time>
      </trkpt>
      <trkpt lat="44.40335" lon="3.412">
        <ele>941.353324</ele>
        <time>2019-10-07T11:44:32.082Z</time>
      </trkpt>
      <trkpt lat="44.40355" lon="3.41197">
        <ele>940.203225</ele>
        <time>2019-10-07T11:44:37.721Z</time>
      </trkpt>
      <trkpt lat="44.40402" lon="3.41218">
        <ele>937.316534</ele>
        <time>2019-10-07T11:44:50.963Z</time>
      </trkpt>
      <trkpt lat="44.40418" lon="3.41218">
        <ele>936.428321</ele>
        <time>2019-10-07T11:44:55.734Z</time>
      </trkpt>
      <trkpt lat="44.40445" lon="3.41206">
        <ele>935.027558</ele>
        <time>2019-10-07T11:45:03.347Z</time>
      </trkpt>
      <trkpt lat="44.40494" lon="3.41167">
        <ele>932.197248</ele>
        <time>2019-10-07T11:45:19.712Z</time>
      </trkpt>
      <trkpt lat="44.40497" lon="3.41165">
        <ele>932.019785</ele>
        <time>2019-10-07T11:45:20.533Z</time>
      </trkpt>
      <trkpt lat="44.40503" lon="3.41162">
        <ele>931.719453</ele>
        <time>2019-10-07T11:45:22.310Z</time>
      </trkpt>
      <trkpt lat="44.40531" lon="3.41149">
        <ele>930.236748</ele>
        <time>2019-10-07T11:45:30.940Z</time>
      </trkpt>
      <trkpt lat="44.40544" lon="3.41143">
        <ele>929.562283</ele>
        <time>2019-10-07T11:45:35.042Z</time>
      </trkpt>
      <trkpt lat="44.40564" lon="3.41139">
        <ele>928.502581</ele>
        <time>2019-10-07T11:45:41.443Z</time>
      </trkpt>
      <trkpt lat="44.40578" lon="3.41139">
        <ele>927.868544</ele>
        <time>2019-10-07T11:45:45.280Z</time>
      </trkpt>
      <trkpt lat="44.40594" lon="3.41145">
        <ele>927.791928</ele>
        <time>2019-10-07T11:45:51.027Z</time>
      </trkpt>
      <trkpt lat="44.40655" lon="3.41159">
        <ele>927.516973</ele>
        <time>2019-10-07T11:46:10.172Z</time>
      </trkpt>
      <trkpt lat="44.40694" lon="3.41155">
        <ele>927.343243</ele>
        <time>2019-10-07T11:46:25.657Z</time>
      </trkpt>
      <trkpt lat="44.40721" lon="3.41158">
        <ele>927.220868</ele>
        <time>2019-10-07T11:46:37.784Z</time>
      </trkpt>
      <trkpt lat="44.40738" lon="3.4116">
        <ele>927.146908</ele>
        <time>2019-10-07T11:46:46.502Z</time>
      </trkpt>
      <trkpt lat="44.40782" lon="3.41183">
        <ele>928.065669</ele>
        <time>2019-10-07T11:47:10.148Z</time>
      </trkpt>
      <trkpt lat="44.40796" lon="3.41194">
        <ele>928.571303</ele>
        <time>2019-10-07T11:47:17.707Z</time>
      </trkpt>
      <trkpt lat="44.40799" lon="3.41196">
        <ele>928.697125</ele>
        <time>2019-10-07T11:47:20.260Z</time>
      </trkpt>
      <trkpt lat="44.40822" lon="3.4123">
        <ele>929.796566</ele>
        <time>2019-10-07T11:47:36.731Z</time>
      </trkpt>
      <trkpt lat="44.40828" lon="3.4124">
        <ele>930.118802</ele>
        <time>2019-10-07T11:47:42.114Z</time>
      </trkpt>
      <trkpt lat="44.40837" lon="3.41262">
        <ele>930.71108</ele>
        <time>2019-10-07T11:47:48.911Z</time>
      </trkpt>
      <trkpt lat="44.40841" lon="3.41265">
        <ele>930.843369</ele>
        <time>2019-10-07T11:47:50.585Z</time>
      </trkpt>
      <trkpt lat="44.40849" lon="3.41287">
        <ele>931.454393</ele>
        <time>2019-10-07T11:47:57.509Z</time>
      </trkpt>
      <trkpt lat="44.40855" lon="3.41298">
        <ele>931.768323</ele>
        <time>2019-10-07T11:48:01.554Z</time>
      </trkpt>
      <trkpt lat="44.40868" lon="3.41312">
        <ele>932.30987</ele>
        <time>2019-10-07T11:48:08.427Z</time>
      </trkpt>
      <trkpt lat="44.40873" lon="3.41327">
        <ele>932.711339</ele>
        <time>2019-10-07T11:48:13.456Z</time>
      </trkpt>
      <trkpt lat="44.40881" lon="3.41345">
        <ele>933.323922</ele>
        <time>2019-10-07T11:48:20.490Z</time>
      </trkpt>
      <trkpt lat="44.40875" lon="3.4136">
        <ele>933.987758</ele>
        <time>2019-10-07T11:48:26.401Z</time>
      </trkpt>
      <trkpt lat="44.40871" lon="3.41393">
        <ele>935.286975</ele>
        <time>2019-10-07T11:48:38.691Z</time>
      </trkpt>
      <trkpt lat="44.40864" lon="3.41413">
        <ele>936.14062</ele>
        <time>2019-10-07T11:48:46.042Z</time>
      </trkpt>
      <trkpt lat="44.40845" lon="3.41448">
        <ele>937.840538</ele>
        <time>2019-10-07T11:49:02.084Z</time>
      </trkpt>
      <trkpt lat="44.40834" lon="3.41487">
        <ele>939.473313</ele>
        <time>2019-10-07T11:49:17.254Z</time>
      </trkpt>
      <trkpt lat="44.40828" lon="3.41508">
        <ele>940.360064</ele>
        <time>2019-10-07T11:49:24.882Z</time>
      </trkpt>
      <trkpt lat="44.40816" lon="3.41551">
        <ele>942.13554</ele>
        <time>2019-10-07T11:49:41.094Z</time>
      </trkpt>
      <trkpt lat="44.40808" lon="3.41569">
        <ele>943.004458</ele>
        <time>2019-10-07T11:49:49.298Z</time>
      </trkpt>
      <trkpt lat="44.40787" lon="3.41582">
        <ele>944.407015</ele>
        <time>2019-10-07T11:50:00.541Z</time>
      </trkpt>
      <trkpt lat="44.40732" lon="3.41615">
        <ele>948.185834</ele>
        <time>2019-10-07T11:50:36.694Z</time>
      </trkpt>
      <trkpt lat="44.40708" lon="3.41646">
        <ele>950.248588</ele>
        <time>2019-10-07T11:50:55.382Z</time>
      </trkpt>
      <trkpt lat="44.40686" lon="3.41684">
        <ele>952.444497</ele>
        <time>2019-10-07T11:51:13.946Z</time>
      </trkpt>
      <trkpt lat="44.40675" lon="3.41714">
        <ele>953.937989</ele>
        <time>2019-10-07T11:51:24.632Z</time>
      </trkpt>
      <trkpt lat="44.40666" lon="3.41747">
        <ele>955.24344</ele>
        <time>2019-10-07T11:51:38.134Z</time>
      </trkpt>
      <trkpt lat="44.40673" lon="3.41732">
        <ele>955.86857</ele>
        <time>2019-10-07T11:51:43.532Z</time>
      </trkpt>
      <trkpt lat="44.40692" lon="3.41703">
        <ele>957.312675</ele>
        <time>2019-10-07T11:52:01.975Z</time>
      </trkpt>
      <trkpt lat="44.40703" lon="3.41697">
        <ele>957.901276</ele>
        <time>2019-10-07T11:52:08.233Z</time>
      </trkpt>
      <trkpt lat="44.40781" lon="3.41687">
        <ele>961.863523</ele>
        <time>2019-10-07T11:52:58.091Z</time>
      </trkpt>
      <trkpt lat="44.40786" lon="3.41692">
        <ele>962.196114</ele>
        <time>2019-10-07T11:53:02.991Z</time>
      </trkpt>
      <trkpt lat="44.40785" lon="3.417">
        <ele>962.466295</ele>
        <time>2019-10-07T11:53:06.974Z</time>
      </trkpt>
      <trkpt lat="44.40771" lon="3.41702">
        <ele>963.161184</ele>
        <time>2019-10-07T11:53:13.696Z</time>
      </trkpt>
      <trkpt lat="44.40746" lon="3.41724">
        <ele>964.883361</ele>
        <time>2019-10-07T11:53:31.601Z</time>
      </trkpt>
      <trkpt lat="44.40719" lon="3.41771">
        <ele>967.456543</ele>
        <time>2019-10-07T11:53:59.738Z</time>
      </trkpt>
      <trkpt lat="44.40672" lon="3.41878">
        <ele>972.746917</ele>
        <time>2019-10-07T11:55:02.386Z</time>
      </trkpt>
      <trkpt lat="44.40652" lon="3.41938">
        <ele>975.000716</ele>
        <time>2019-10-07T11:55:34.462Z</time>
      </trkpt>
      <trkpt lat="44.40637" lon="3.41962">
        <ele>975.97416</ele>
        <time>2019-10-07T11:55:50.077Z</time>
      </trkpt>
      <trkpt lat="44.40616" lon="3.41976">
        <ele>976.944738</ele>
        <time>2019-10-07T11:56:04.412Z</time>
      </trkpt>
      <trkpt lat="44.40608" lon="3.41988">
        <ele>977.408894</ele>
        <time>2019-10-07T11:56:11.633Z</time>
      </trkpt>
      <trkpt lat="44.40597" lon="3.4202">
        <ele>978.490548</ele>
        <time>2019-10-07T11:56:26.627Z</time>
      </trkpt>
      <trkpt lat="44.40597" lon="3.4202">
        <ele>978.490548</ele>
        <time>2019-10-07T11:56:26.805Z</time>
      </trkpt>
      <trkpt lat="44.40571" lon="3.42158">
        <ele>981.222194</ele>
        <time>2019-10-07T11:57:15.507Z</time>
      </trkpt>
      <trkpt lat="44.40551" lon="3.42209">
        <ele>981.104493</ele>
        <time>2019-10-07T11:57:32.389Z</time>
      </trkpt>
      <trkpt lat="44.4055" lon="3.42215">
        <ele>981.09234</ele>
        <time>2019-10-07T11:57:33.888Z</time>
      </trkpt>
      <trkpt lat="44.40548" lon="3.42234">
        <ele>981.054633</ele>
        <time>2019-10-07T11:57:38.235Z</time>
      </trkpt>
      <trkpt lat="44.40535" lon="3.42279">
        <ele>980.956456</ele>
        <time>2019-10-07T11:57:50.016Z</time>
      </trkpt>
      <trkpt lat="44.40493" lon="3.42385">
        <ele>980.081946</ele>
        <time>2019-10-07T11:58:18.882Z</time>
      </trkpt>
      <trkpt lat="44.40486" lon="3.42405">
        <ele>979.764508</ele>
        <time>2019-10-07T11:58:23.753Z</time>
      </trkpt>
      <trkpt lat="44.40494" lon="3.42613">
        <ele>976.794671</ele>
        <time>2019-10-07T11:58:50.857Z</time>
      </trkpt>
      <trkpt lat="44.40496" lon="3.42675">
        <ele>976.07971</ele>
        <time>2019-10-07T11:58:59.309Z</time>
      </trkpt>
      <trkpt lat="44.40505" lon="3.42707">
        <ele>975.684916</ele>
        <time>2019-10-07T11:59:04.141Z</time>
      </trkpt>
      <trkpt lat="44.40505" lon="3.42719">
        <ele>975.547847</ele>
        <time>2019-10-07T11:59:07.150Z</time>
      </trkpt>
      <trkpt lat="44.40539" lon="3.42799">
        <ele>974.473582</ele>
        <time>2019-10-07T11:59:29.304Z</time>
      </trkpt>
      <trkpt lat="44.40544" lon="3.42847">
        <ele>973.801752</ele>
        <time>2019-10-07T11:59:40.925Z</time>
      </trkpt>
      <trkpt lat="44.40548" lon="3.42887">
        <ele>973.179344</ele>
        <time>2019-10-07T11:59:50.234Z</time>
      </trkpt>
      <trkpt lat="44.40551" lon="3.42905">
        <ele>972.908375</ele>
        <time>2019-10-07T11:59:54.526Z</time>
      </trkpt>
      <trkpt lat="44.40549" lon="3.42914">
        <ele>972.754508</ele>
        <time>2019-10-07T11:59:56.702Z</time>
      </trkpt>
      <trkpt lat="44.40566" lon="3.43021">
        <ele>971.064968</ele>
        <time>2019-10-07T12:00:21.260Z</time>
      </trkpt>
      <trkpt lat="44.40572" lon="3.43111">
        <ele>970.793912</ele>
        <time>2019-10-07T12:00:42.480Z</time>
      </trkpt>
      <trkpt lat="44.40566" lon="3.43153">
        <ele>971.266384</ele>
        <time>2019-10-07T12:00:53.709Z</time>
      </trkpt>
      <trkpt lat="44.40567" lon="3.43166">
        <ele>971.408267</ele>
        <time>2019-10-07T12:00:56.558Z</time>
      </trkpt>
      <trkpt lat="44.40586" lon="3.43171">
        <ele>971.707226</ele>
        <time>2019-10-07T12:01:02.456Z</time>
      </trkpt>
      <trkpt lat="44.4059" lon="3.43185">
        <ele>971.877011</ele>
        <time>2019-10-07T12:01:04.751Z</time>
      </trkpt>
      <trkpt lat="44.40593" lon="3.43199">
        <ele>972.032098</ele>
        <time>2019-10-07T12:01:09.227Z</time>
      </trkpt>
      <trkpt lat="44.40604" lon="3.43227">
        <ele>972.385432</ele>
        <time>2019-10-07T12:01:20.117Z</time>
      </trkpt>
      <trkpt lat="44.40591" lon="3.43277">
        <ele>972.97</ele>
        <time>2019-10-07T12:01:40.451Z</time>
      </trkpt>
      <trkpt lat="44.4059" lon="3.43309">
        <ele>974.49152</ele>
        <time>2019-10-07T12:01:56.980Z</time>
      </trkpt>
      <trkpt lat="44.40615" lon="3.43451">
        <ele>984.37566</ele>
        <time>2019-10-07T12:03:27.344Z</time>
      </trkpt>
      <trkpt lat="44.40626" lon="3.43487">
        <ele>986.982074</ele>
        <time>2019-10-07T12:03:53.307Z</time>
      </trkpt>
      <trkpt lat="44.40632" lon="3.43517">
        <ele>989.086666</ele>
        <time>2019-10-07T12:04:15.453Z</time>
      </trkpt>
      <trkpt lat="44.40638" lon="3.43548">
        <ele>991.193462</ele>
        <time>2019-10-07T12:04:34.987Z</time>
      </trkpt>
      <trkpt lat="44.40667" lon="3.4358">
        <ele>994.653084</ele>
        <time>2019-10-07T12:05:10.115Z</time>
      </trkpt>
      <trkpt lat="44.40671" lon="3.43584">
        <ele>995.063732</ele>
        <time>2019-10-07T12:05:15.305Z</time>
      </trkpt>
      <trkpt lat="44.407" lon="3.43633">
        <ele>999.309667</ele>
        <time>2019-10-07T12:05:57.860Z</time>
      </trkpt>
      <trkpt lat="44.40714" lon="3.43647">
        <ele>1000.889734</ele>
        <time>2019-10-07T12:06:11.988Z</time>
      </trkpt>
      <trkpt lat="44.40754" lon="3.43741">
        <ele>1007.10144</ele>
        <time>2019-10-07T12:07:07.838Z</time>
      </trkpt>
      <trkpt lat="44.4079" lon="3.43784">
        <ele>1008.260143</ele>
        <time>2019-10-07T12:07:35.727Z</time>
      </trkpt>
      <trkpt lat="44.40802" lon="3.43806">
        <ele>1008.747604</ele>
        <time>2019-10-07T12:07:46.642Z</time>
      </trkpt>
      <trkpt lat="44.40821" lon="3.43872">
        <ele>1009.994285</ele>
        <time>2019-10-07T12:08:07.613Z</time>
      </trkpt>
      <trkpt lat="44.40828" lon="3.43947">
        <ele>1011.099257</ele>
        <time>2019-10-07T12:08:27.438Z</time>
      </trkpt>
      <trkpt lat="44.40828" lon="3.43954">
        <ele>1011.070937</ele>
        <time>2019-10-07T12:08:29.379Z</time>
      </trkpt>
      <trkpt lat="44.40826" lon="3.4396">
        <ele>1011.040093</ele>
        <time>2019-10-07T12:08:30.316Z</time>
      </trkpt>
      <trkpt lat="44.40818" lon="3.44011">
        <ele>1010.812219</ele>
        <time>2019-10-07T12:08:37.942Z</time>
      </trkpt>
      <trkpt lat="44.40821" lon="3.44032">
        <ele>1010.716372</ele>
        <time>2019-10-07T12:08:41.201Z</time>
      </trkpt>
      <trkpt lat="44.4082" lon="3.44043">
        <ele>1010.66799</ele>
        <time>2019-10-07T12:08:42.851Z</time>
      </trkpt>
      <trkpt lat="44.40821" lon="3.4406">
        <ele>1010.594087</ele>
        <time>2019-10-07T12:08:45.379Z</time>
      </trkpt>
      <trkpt lat="44.40823" lon="3.44069">
        <ele>1010.551021</ele>
        <time>2019-10-07T12:08:46.690Z</time>
      </trkpt>
      <trkpt lat="44.4081" lon="3.44075">
        <ele>1010.467887</ele>
        <time>2019-10-07T12:08:49.697Z</time>
      </trkpt>
      <trkpt lat="44.40745" lon="3.44079">
        <ele>1010.060185</ele>
        <time>2019-10-07T12:09:03.509Z</time>
      </trkpt>
      <trkpt lat="44.40725" lon="3.44086">
        <ele>1010.181082</ele>
        <time>2019-10-07T12:09:08.116Z</time>
      </trkpt>
      <trkpt lat="44.40713" lon="3.44094">
        <ele>1010.311009</ele>
        <time>2019-10-07T12:09:11.002Z</time>
      </trkpt>
      <trkpt lat="44.40701" lon="3.44104">
        <ele>1010.447627</ele>
        <time>2019-10-07T12:09:14.254Z</time>
      </trkpt>
      <trkpt lat="44.40595" lon="3.44258">
        <ele>1012.10829</ele>
        <time>2019-10-07T12:10:01.502Z</time>
      </trkpt>
      <trkpt lat="44.40575" lon="3.44335">
        <ele>1013.334204</ele>
        <time>2019-10-07T12:10:19.546Z</time>
      </trkpt>
      <trkpt lat="44.40558" lon="3.44363">
        <ele>1013.899745</ele>
        <time>2019-10-07T12:10:28.525Z</time>
      </trkpt>
      <trkpt lat="44.40525" lon="3.44378">
        <ele>1014.620655</ele>
        <time>2019-10-07T12:10:40.717Z</time>
      </trkpt>
      <trkpt lat="44.4051" lon="3.44402">
        <ele>1015.102214</ele>
        <time>2019-10-07T12:10:49.239Z</time>
      </trkpt>
      <trkpt lat="44.40508" lon="3.44484">
        <ele>1016.509092</ele>
        <time>2019-10-07T12:11:10.589Z</time>
      </trkpt>
      <trkpt lat="44.405" lon="3.44516">
        <ele>1017.148442</ele>
        <time>2019-10-07T12:11:19.471Z</time>
      </trkpt>
      <trkpt lat="44.40491" lon="3.44541">
        <ele>1017.665035</ele>
        <time>2019-10-07T12:11:29.897Z</time>
      </trkpt>
      <trkpt lat="44.4045" lon="3.44615">
        <ele>1019.400445</ele>
        <time>2019-10-07T12:12:03.605Z</time>
      </trkpt>
      <trkpt lat="44.40434" lon="3.4469">
        <ele>1020.568178</ele>
        <time>2019-10-07T12:12:31.289Z</time>
      </trkpt>
      <trkpt lat="44.40433" lon="3.44779">
        <ele>1021.508962</ele>
        <time>2019-10-07T12:13:00.897Z</time>
      </trkpt>
      <trkpt lat="44.40446" lon="3.44803">
        <ele>1021.823367</ele>
        <time>2019-10-07T12:13:10.039Z</time>
      </trkpt>
      <trkpt lat="44.40472" lon="3.4482">
        <ele>1022.240169</ele>
        <time>2019-10-07T12:13:21.720Z</time>
      </trkpt>
      <trkpt lat="44.40485" lon="3.44858">
        <ele>1022.686056</ele>
        <time>2019-10-07T12:13:34.161Z</time>
      </trkpt>
      <trkpt lat="44.40483" lon="3.449">
        <ele>1023.043364</ele>
        <time>2019-10-07T12:13:46.356Z</time>
      </trkpt>
      <trkpt lat="44.40451" lon="3.44966">
        <ele>1023.620972</ele>
        <time>2019-10-07T12:14:09.509Z</time>
      </trkpt>
      <trkpt lat="44.40444" lon="3.44985">
        <ele>1023.774371</ele>
        <time>2019-10-07T12:14:15.683Z</time>
      </trkpt>
      <trkpt lat="44.40443" lon="3.45012">
        <ele>1023.970601</ele>
        <time>2019-10-07T12:14:23.571Z</time>
      </trkpt>
      <trkpt lat="44.40449" lon="3.45059">
        <ele>1024.318043</ele>
        <time>2019-10-07T12:14:37.790Z</time>
      </trkpt>
      <trkpt lat="44.40464" lon="3.4512">
        <ele>1024.95944</ele>
        <time>2019-10-07T12:14:57.645Z</time>
      </trkpt>
      <trkpt lat="44.40458" lon="3.45196">
        <ele>1026.560682</ele>
        <time>2019-10-07T12:15:24.076Z</time>
      </trkpt>
      <trkpt lat="44.40468" lon="3.45283">
        <ele>1028.386732</ele>
        <time>2019-10-07T12:15:57.562Z</time>
      </trkpt>
      <trkpt lat="44.40483" lon="3.45367">
        <ele>1030.227502</ele>
        <time>2019-10-07T12:16:33.003Z</time>
      </trkpt>
      <trkpt lat="44.40495" lon="3.45497">
        <ele>1033.286747</ele>
        <time>2019-10-07T12:17:26.217Z</time>
      </trkpt>
      <trkpt lat="44.40496" lon="3.4556">
        <ele>1034.755282</ele>
        <time>2019-10-07T12:17:50.904Z</time>
      </trkpt>
      <trkpt lat="44.40534" lon="3.45754">
        <ele>1036.309614</ele>
        <time>2019-10-07T12:18:55.187Z</time>
      </trkpt>
      <trkpt lat="44.40535" lon="3.4586">
        <ele>1036.499779</ele>
        <time>2019-10-07T12:19:20.648Z</time>
      </trkpt>
      <trkpt lat="44.40523" lon="3.45941">
        <ele>1035.547605</ele>
        <time>2019-10-07T12:19:40.172Z</time>
      </trkpt>
      <trkpt lat="44.40517" lon="3.45988">
        <ele>1034.997967</ele>
        <time>2019-10-07T12:19:51.316Z</time>
      </trkpt>
      <trkpt lat="44.40513" lon="3.46017">
        <ele>1034.661591</ele>
        <time>2019-10-07T12:19:58.071Z</time>
      </trkpt>
      <trkpt lat="44.40516" lon="3.46056">
        <ele>1034.209253</ele>
        <time>2019-10-07T12:20:07.443Z</time>
      </trkpt>
      <trkpt lat="44.4053" lon="3.46083">
        <ele>1033.82619</ele>
        <time>2019-10-07T12:20:15.522Z</time>
      </trkpt>
      <trkpt lat="44.40575" lon="3.46123">
        <ele>1034.026485</ele>
        <time>2019-10-07T12:20:33.859Z</time>
      </trkpt>
      <trkpt lat="44.40598" lon="3.46159">
        <ele>1034.241471</ele>
        <time>2019-10-07T12:20:47.689Z</time>
      </trkpt>
      <trkpt lat="44.40616" lon="3.46226">
        <ele>1034.562929</ele>
        <time>2019-10-07T12:21:11.761Z</time>
      </trkpt>
      <trkpt lat="44.40644" lon="3.46294">
        <ele>1034.851667</ele>
        <time>2019-10-07T12:21:36.399Z</time>
      </trkpt>
      <trkpt lat="44.40653" lon="3.46304">
        <ele>1034.847293</ele>
        <time>2019-10-07T12:21:42.046Z</time>
      </trkpt>
      <trkpt lat="44.4066" lon="3.46313">
        <ele>1034.843384</ele>
        <time>2019-10-07T12:21:46.496Z</time>
      </trkpt>
      <trkpt lat="44.4066" lon="3.46313">
        <ele>1037.7</ele>
      </trkpt>
      <trkpt lat="44.40667" lon="3.46321">
        <ele>1038</ele>
      </trkpt>
      <trkpt lat="44.40684" lon="3.46347">
        <ele>1038.1</ele>
      </trkpt>
      <trkpt lat="44.407" lon="3.46375">
        <ele>1037.5</ele>
      </trkpt>
      <trkpt lat="44.40704" lon="3.4639">
        <ele>1037</ele>
      </trkpt>
      <trkpt lat="44.40705" lon="3.46402">
        <ele>1036.6</ele>
      </trkpt>
      <trkpt lat="44.40703" lon="3.46417">
        <ele>1036.4</ele>
      </trkpt>
      <trkpt lat="44.40702" lon="3.46435">
        <ele>1036.1</ele>
      </trkpt>
      <trkpt lat="44.40703" lon="3.46464">
        <ele>1035.4</ele>
      </trkpt>
      <trkpt lat="44.40705" lon="3.4649">
        <ele>1034.7</ele>
      </trkpt>
      <trkpt lat="44.40707" lon="3.46508">
        <ele>1034.1</ele>
      </trkpt>
      <trkpt lat="44.40707" lon="3.46533">
        <ele>1033.8</ele>
      </trkpt>
      <trkpt lat="44.40708" lon="3.46557">
        <ele>1033.4</ele>
      </trkpt>
      <trkpt lat="44.40709" lon="3.4657">
        <ele>1033.1</ele>
      </trkpt>
      <trkpt lat="44.4071" lon="3.46573">
        <ele>1032.9</ele>
      </trkpt>
      <trkpt lat="44.40711" lon="3.46574">
        <ele>1032.8</ele>
      </trkpt>
      <trkpt lat="44.40712" lon="3.46581">
        <ele>1032.5</ele>
      </trkpt>
      <trkpt lat="44.40717" lon="3.46591">
        <ele>1031.9</ele>
      </trkpt>
      <trkpt lat="44.40727" lon="3.46608">
        <ele>1030.9</ele>
      </trkpt>
      <trkpt lat="44.40744" lon="3.46629">
        <ele>1029.4</ele>
      </trkpt>
      <trkpt lat="44.40759" lon="3.46648">
        <ele>1028.3</ele>
      </trkpt>
      <trkpt lat="44.4077" lon="3.46665">
        <ele>1027.6</ele>
      </trkpt>
      <trkpt lat="44.40786" lon="3.46693">
        <ele>1026.4</ele>
      </trkpt>
      <trkpt lat="44.408" lon="3.46712">
        <ele>1025.4</ele>
      </trkpt>
      <trkpt lat="44.40814" lon="3.46725">
        <ele>1024.2</ele>
      </trkpt>
      <trkpt lat="44.40829" lon="3.46733">
        <ele>1022.9</ele>
      </trkpt>
      <trkpt lat="44.40844" lon="3.46739">
        <ele>1022.2</ele>
      </trkpt>
      <trkpt lat="44.40857" lon="3.4675">
        <ele>1022.1</ele>
      </trkpt>
      <trkpt lat="44.4088" lon="3.46767">
        <ele>1021.8</ele>
      </trkpt>
      <trkpt lat="44.40883" lon="3.46772">
        <ele>1021.9</ele>
      </trkpt>
      <trkpt lat="44.4089" lon="3.46777">
        <ele>1021.8</ele>
      </trkpt>
      <trkpt lat="44.40902" lon="3.4678">
        <ele>1021.5</ele>
      </trkpt>
      <trkpt lat="44.40914" lon="3.46776">
        <ele>1021</ele>
      </trkpt>
      <trkpt lat="44.40919" lon="3.46773">
        <ele>1020.9</ele>
      </trkpt>
      <trkpt lat="44.40925" lon="3.46769">
        <ele>1020.9</ele>
      </trkpt>
      <trkpt lat="44.40935" lon="3.46762">
        <ele>1020.9</ele>
      </trkpt>
      <trkpt lat="44.40944" lon="3.4676">
        <ele>1021</ele>
      </trkpt>
      <trkpt lat="44.40953" lon="3.4676">
        <ele>1021.3</ele>
      </trkpt>
      <trkpt lat="44.40964" lon="3.46766">
        <ele>1021.8</ele>
      </trkpt>
      <trkpt lat="44.40975" lon="3.46777">
        <ele>1022.6</ele>
      </trkpt>
      <trkpt lat="44.40994" lon="3.46797">
        <ele>1030.341669</ele>
        <time>2019-10-07T12:25:14.671Z</time>
      </trkpt>
      <trkpt lat="44.41083" lon="3.46924">
        <ele>1035.867587</ele>
        <time>2019-10-07T12:26:35.987Z</time>
      </trkpt>
      <trkpt lat="44.41128" lon="3.4697">
        <ele>1038.662186</ele>
        <time>2019-10-07T12:27:13.690Z</time>
      </trkpt>
      <trkpt lat="44.41159" lon="3.47027">
        <ele>1041.183482</ele>
        <time>2019-10-07T12:27:46.136Z</time>
      </trkpt>
      <trkpt lat="44.4121" lon="3.471">
        <ele>1044.465789</ele>
        <time>2019-10-07T12:28:29.143Z</time>
      </trkpt>
      <trkpt lat="44.41221" lon="3.47134">
        <ele>1044.935357</ele>
        <time>2019-10-07T12:28:43.009Z</time>
      </trkpt>
      <trkpt lat="44.41228" lon="3.47207">
        <ele>1045.878651</ele>
        <time>2019-10-07T12:29:08.653Z</time>
      </trkpt>
      <trkpt lat="44.41239" lon="3.47253">
        <ele>1046.491258</ele>
        <time>2019-10-07T12:29:23.822Z</time>
      </trkpt>
      <trkpt lat="44.41379" lon="3.47393">
        <ele>1047.391928</ele>
        <time>2019-10-07T12:30:27.612Z</time>
      </trkpt>
      <trkpt lat="44.41386" lon="3.47402">
        <ele>1047.386447</ele>
        <time>2019-10-07T12:30:30.874Z</time>
      </trkpt>
      <trkpt lat="44.4139" lon="3.47417">
        <ele>1047.380083</ele>
        <time>2019-10-07T12:30:35.101Z</time>
      </trkpt>
      <trkpt lat="44.41395" lon="3.47461">
        <ele>1047.361783</ele>
        <time>2019-10-07T12:30:46.779Z</time>
      </trkpt>
      <trkpt lat="44.4139" lon="3.47487">
        <ele>1047.299991</ele>
        <time>2019-10-07T12:30:54.185Z</time>
      </trkpt>
      <trkpt lat="44.41309" lon="3.47596">
        <ele>1046.685708</ele>
        <time>2019-10-07T12:31:35.053Z</time>
      </trkpt>
      <trkpt lat="44.41275" lon="3.47676">
        <ele>1046.091281</ele>
        <time>2019-10-07T12:31:58.437Z</time>
      </trkpt>
      <trkpt lat="44.41275" lon="3.47752">
        <ele>1044.498186</ele>
        <time>2019-10-07T12:32:16.015Z</time>
      </trkpt>
      <trkpt lat="44.41287" lon="3.4781">
        <ele>1043.224426</ele>
        <time>2019-10-07T12:32:29.465Z</time>
      </trkpt>
      <trkpt lat="44.41287" lon="3.47856">
        <ele>1042.248202</ele>
        <time>2019-10-07T12:32:39.453Z</time>
      </trkpt>
      <trkpt lat="44.41294" lon="3.47908">
        <ele>1041.121422</ele>
        <time>2019-10-07T12:32:50.724Z</time>
      </trkpt>
      <trkpt lat="44.4129" lon="3.47959">
        <ele>1039.402506</ele>
        <time>2019-10-07T12:33:01.334Z</time>
      </trkpt>
      <trkpt lat="44.41268" lon="3.48057">
        <ele>1035.87992</ele>
        <time>2019-10-07T12:33:22.251Z</time>
      </trkpt>
      <trkpt lat="44.41256" lon="3.48088">
        <ele>1034.661446</ele>
        <time>2019-10-07T12:33:29.505Z</time>
      </trkpt>
      <trkpt lat="44.41235" lon="3.48119">
        <ele>1033.19065</ele>
        <time>2019-10-07T12:33:38.368Z</time>
      </trkpt>
      <trkpt lat="44.41199" lon="3.4815">
        <ele>1031.684516</ele>
        <time>2019-10-07T12:33:50.843Z</time>
      </trkpt>
      <trkpt lat="44.41151" lon="3.48206">
        <ele>1029.961049</ele>
        <time>2019-10-07T12:34:09.934Z</time>
      </trkpt>
      <trkpt lat="44.41125" lon="3.48305">
        <ele>1027.890037</ele>
        <time>2019-10-07T12:34:34.199Z</time>
      </trkpt>
      <trkpt lat="44.41106" lon="3.48358">
        <ele>1027.428403</ele>
        <time>2019-10-07T12:34:49.039Z</time>
      </trkpt>
      <trkpt lat="44.41065" lon="3.48432">
        <ele>1027.420572</ele>
        <time>2019-10-07T12:35:13.609Z</time>
      </trkpt>
      <trkpt lat="44.41032" lon="3.48466">
        <ele>1027.415767</ele>
        <time>2019-10-07T12:35:29.528Z</time>
      </trkpt>
      <trkpt lat="44.41012" lon="3.48524">
        <ele>1027.41043</ele>
        <time>2019-10-07T12:35:47.664Z</time>
      </trkpt>
      <trkpt lat="44.4098" lon="3.48572">
        <ele>1028.367984</ele>
        <time>2019-10-07T12:36:08.214Z</time>
      </trkpt>
      <trkpt lat="44.40963" lon="3.48632">
        <ele>1029.308163</ele>
        <time>2019-10-07T12:36:29.582Z</time>
      </trkpt>
      <trkpt lat="44.40946" lon="3.48669">
        <ele>1029.952213</ele>
        <time>2019-10-07T12:36:45.064Z</time>
      </trkpt>
      <trkpt lat="44.40938" lon="3.48708">
        <ele>1030.539587</ele>
        <time>2019-10-07T12:36:59.696Z</time>
      </trkpt>
      <trkpt lat="44.40935" lon="3.48729">
        <ele>1030.845888</ele>
        <time>2019-10-07T12:37:07.205Z</time>
      </trkpt>
      <trkpt lat="44.40935" lon="3.4875">
        <ele>1031.215192</ele>
        <time>2019-10-07T12:37:15.387Z</time>
      </trkpt>
      <trkpt lat="44.40949" lon="3.48831">
        <ele>1033.486586</ele>
        <time>2019-10-07T12:37:47.303Z</time>
      </trkpt>
      <trkpt lat="44.4095" lon="3.48864">
        <ele>1034.398752</ele>
        <time>2019-10-07T12:38:00.877Z</time>
      </trkpt>
      <trkpt lat="44.40942" lon="3.48931">
        <ele>1036.23966</ele>
        <time>2019-10-07T12:38:29.169Z</time>
      </trkpt>
      <trkpt lat="44.40964" lon="3.49023">
        <ele>1038.860331</ele>
        <time>2019-10-07T12:39:09.833Z</time>
      </trkpt>
      <trkpt lat="44.40962" lon="3.49099">
        <ele>1040.890812</ele>
        <time>2019-10-07T12:39:41.143Z</time>
      </trkpt>
      <trkpt lat="44.40945" lon="3.49267">
        <ele>1044.865437</ele>
        <time>2019-10-07T12:40:49.200Z</time>
      </trkpt>
      <trkpt lat="44.40949" lon="3.49395">
        <ele>1045.590319</ele>
        <time>2019-10-07T12:41:28.568Z</time>
      </trkpt>
      <trkpt lat="44.40948" lon="3.49402">
        <ele>1045.631933</ele>
        <time>2019-10-07T12:41:31.674Z</time>
      </trkpt>
      <trkpt lat="44.40943" lon="3.4942">
        <ele>1045.736184</ele>
        <time>2019-10-07T12:41:36.196Z</time>
      </trkpt>
      <trkpt lat="44.40947" lon="3.49454">
        <ele>1045.93082</ele>
        <time>2019-10-07T12:41:45.114Z</time>
      </trkpt>
      <trkpt lat="44.40944" lon="3.49481">
        <ele>1046.085538</ele>
        <time>2019-10-07T12:41:51.387Z</time>
      </trkpt>
      <trkpt lat="44.40938" lon="3.49509">
        <ele>1045.58921</ele>
        <time>2019-10-07T12:41:58.696Z</time>
      </trkpt>
      <trkpt lat="44.40928" lon="3.49529">
        <ele>1044.969173</ele>
        <time>2019-10-07T12:42:04.222Z</time>
      </trkpt>
      <trkpt lat="44.40914" lon="3.49578">
        <ele>1043.678997</ele>
        <time>2019-10-07T12:42:16.110Z</time>
      </trkpt>
      <trkpt lat="44.40902" lon="3.496">
        <ele>1043.016835</ele>
        <time>2019-10-07T12:42:22.201Z</time>
      </trkpt>
      <trkpt lat="44.40884" lon="3.49683">
        <ele>1040.8894</ele>
        <time>2019-10-07T12:42:40.161Z</time>
      </trkpt>
      <trkpt lat="44.40856" lon="3.49757">
        <ele>1038.540731</ele>
        <time>2019-10-07T12:42:57.772Z</time>
      </trkpt>
      <trkpt lat="44.40843" lon="3.49806">
        <ele>1036.938134</ele>
        <time>2019-10-07T12:43:08.805Z</time>
      </trkpt>
      <trkpt lat="44.40842" lon="3.49814">
        <ele>1036.692165</ele>
        <time>2019-10-07T12:43:10.390Z</time>
      </trkpt>
      <trkpt lat="44.40823" lon="3.49906">
        <ele>1033.735953</ele>
        <time>2019-10-07T12:43:30.824Z</time>
      </trkpt>
      <trkpt lat="44.40766" lon="3.50053">
        <ele>1028.515065</ele>
        <time>2019-10-07T12:44:06.191Z</time>
      </trkpt>
      <trkpt lat="44.40743" lon="3.50101">
        <ele>1026.698644</ele>
        <time>2019-10-07T12:44:18.414Z</time>
      </trkpt>
      <trkpt lat="44.40693" lon="3.50273">
        <ele>1020.230508</ele>
        <time>2019-10-07T12:44:57.153Z</time>
      </trkpt>
      <trkpt lat="44.40611" lon="3.50432">
        <ele>1012.952584</ele>
        <time>2019-10-07T12:45:36.852Z</time>
      </trkpt>
      <trkpt lat="44.40577" lon="3.50504">
        <ele>1009.746486</ele>
        <time>2019-10-07T12:45:54.425Z</time>
      </trkpt>
      <trkpt lat="44.40566" lon="3.50522">
        <ele>1008.881198</ele>
        <time>2019-10-07T12:45:59.074Z</time>
      </trkpt>
      <trkpt lat="44.40554" lon="3.50541">
        <ele>1007.906553</ele>
        <time>2019-10-07T12:46:04.535Z</time>
      </trkpt>
      <trkpt lat="44.4054" lon="3.50583">
        <ele>1006.207785</ele>
        <time>2019-10-07T12:46:13.883Z</time>
      </trkpt>
      <trkpt lat="44.40507" lon="3.50862">
        <ele>997.695141</ele>
        <time>2019-10-07T12:47:14.139Z</time>
      </trkpt>
      <trkpt lat="44.40472" lon="3.51002">
        <ele>993.980733</ele>
        <time>2019-10-07T12:47:46.480Z</time>
      </trkpt>
      <trkpt lat="44.40463" lon="3.51058">
        <ele>992.530709</ele>
        <time>2019-10-07T12:47:59.046Z</time>
      </trkpt>
      <trkpt lat="44.40462" lon="3.51109">
        <ele>991.542171</ele>
        <time>2019-10-07T12:48:10.199Z</time>
      </trkpt>
      <trkpt lat="44.40466" lon="3.51132">
        <ele>991.303202</ele>
        <time>2019-10-07T12:48:15.292Z</time>
      </trkpt>
      <trkpt lat="44.40472" lon="3.51155">
        <ele>991.051391</ele>
        <time>2019-10-07T12:48:20.583Z</time>
      </trkpt>
      <trkpt lat="44.40484" lon="3.51181">
        <ele>990.727875</ele>
        <time>2019-10-07T12:48:27.452Z</time>
      </trkpt>
      <trkpt lat="44.40499" lon="3.5124">
        <ele>990.077672</ele>
        <time>2019-10-07T12:48:42.607Z</time>
      </trkpt>
      <trkpt lat="44.40501" lon="3.51356">
        <ele>989.777169</ele>
        <time>2019-10-07T12:49:13.459Z</time>
      </trkpt>
      <trkpt lat="44.40501" lon="3.51359">
        <ele>989.866013</ele>
        <time>2019-10-07T12:49:14.084Z</time>
      </trkpt>
      <trkpt lat="44.40526" lon="3.51368">
        <ele>990.741797</ele>
        <time>2019-10-07T12:49:28.027Z</time>
      </trkpt>
      <trkpt lat="44.40589" lon="3.5139">
        <ele>993.051779</ele>
        <time>2019-10-07T12:50:04.161Z</time>
      </trkpt>
      <trkpt lat="44.40631" lon="3.51389">
        <ele>994.52234</ele>
        <time>2019-10-07T12:50:30.608Z</time>
      </trkpt>
      <trkpt lat="44.40647" lon="3.51382">
        <ele>995.090768</ele>
        <time>2019-10-07T12:50:39.662Z</time>
      </trkpt>
      <trkpt lat="44.40661" lon="3.51369">
        <ele>995.82318</ele>
        <time>2019-10-07T12:50:52.557Z</time>
      </trkpt>
      <trkpt lat="44.40683" lon="3.51349">
        <ele>997.246614</ele>
        <time>2019-10-07T12:51:09.830Z</time>
      </trkpt>
      <trkpt lat="44.40768" lon="3.51293">
        <ele>1002.357115</ele>
        <time>2019-10-07T12:52:10.811Z</time>
      </trkpt>
      <trkpt lat="44.40803" lon="3.51281">
        <ele>1004.29572</ele>
        <time>2019-10-07T12:52:33.439Z</time>
      </trkpt>
      <trkpt lat="44.40848" lon="3.51278">
        <ele>1006.618027</ele>
        <time>2019-10-07T12:53:01.102Z</time>
      </trkpt>
      <trkpt lat="44.40857" lon="3.51287">
        <ele>1007.181645</ele>
        <time>2019-10-07T12:53:07.985Z</time>
      </trkpt>
      <trkpt lat="44.40866" lon="3.51295">
        <ele>1007.703774</ele>
        <time>2019-10-07T12:53:14.935Z</time>
      </trkpt>
      <trkpt lat="44.41064" lon="3.51465">
        <ele>1018.610679</ele>
        <time>2019-10-07T12:55:38.337Z</time>
      </trkpt>
      <trkpt lat="44.41072" lon="3.51532">
        <ele>1020.699186</ele>
        <time>2019-10-07T12:56:05.645Z</time>
      </trkpt>
      <trkpt lat="44.41072" lon="3.51532">
        <ele>1020.699186</ele>
        <time>2019-10-07T12:56:05.854Z</time>
      </trkpt>
      <trkpt lat="44.41122" lon="3.51617">
        <ele>1022.928651</ele>
        <time>2019-10-07T12:56:47.242Z</time>
      </trkpt>
      <trkpt lat="44.41157" lon="3.5165">
        <ele>1023.73825</ele>
        <time>2019-10-07T12:57:07.260Z</time>
      </trkpt>
      <trkpt lat="44.41172" lon="3.51658">
        <ele>1024.049013</ele>
        <time>2019-10-07T12:57:14.324Z</time>
      </trkpt>
      <trkpt lat="44.41223" lon="3.51665">
        <ele>1025.046798</ele>
        <time>2019-10-07T12:57:36.937Z</time>
      </trkpt>
      <trkpt lat="44.41246" lon="3.51689">
        <ele>1025.462048</ele>
        <time>2019-10-07T12:57:48.523Z</time>
      </trkpt>
      <trkpt lat="44.41273" lon="3.51754">
        <ele>1025.462804</ele>
        <time>2019-10-07T12:58:09.082Z</time>
      </trkpt>
      <trkpt lat="44.41289" lon="3.51828">
        <ele>1025.463581</ele>
        <time>2019-10-07T12:58:29.521Z</time>
      </trkpt>
      <trkpt lat="44.41317" lon="3.52071">
        <ele>1024.793008</ele>
        <time>2019-10-07T12:59:32.489Z</time>
      </trkpt>
      <trkpt lat="44.41335" lon="3.52118">
        <ele>1024.564414</ele>
        <time>2019-10-07T12:59:45.864Z</time>
      </trkpt>
      <trkpt lat="44.41341" lon="3.52136">
        <ele>1024.48238</ele>
        <time>2019-10-07T12:59:50.598Z</time>
      </trkpt>
      <trkpt lat="44.41357" lon="3.52118">
        <ele>1024.337562</ele>
        <time>2019-10-07T12:59:57.915Z</time>
      </trkpt>
      <trkpt lat="44.41402" lon="3.52069">
        <ele>1023.709416</ele>
        <time>2019-10-07T13:00:17.891Z</time>
      </trkpt>
      <trkpt lat="44.41446" lon="3.5205">
        <ele>1023.200093</ele>
        <time>2019-10-07T13:00:34.213Z</time>
      </trkpt>
      <trkpt lat="44.41474" lon="3.52045">
        <ele>1022.889547</ele>
        <time>2019-10-07T13:00:43.406Z</time>
      </trkpt>
      <trkpt lat="44.41479" lon="3.52052">
        <ele>1022.819662</ele>
        <time>2019-10-07T13:00:45.143Z</time>
      </trkpt>
      <trkpt lat="44.41503" lon="3.52076">
        <ele>1022.494948</ele>
        <time>2019-10-07T13:00:50.837Z</time>
      </trkpt>
      <trkpt lat="44.41514" lon="3.52082">
        <ele>1022.293571</ele>
        <time>2019-10-07T13:00:53.727Z</time>
      </trkpt>
      <trkpt lat="44.41525" lon="3.52077">
        <ele>1022.018751</ele>
        <time>2019-10-07T13:00:55.799Z</time>
      </trkpt>
      <trkpt lat="44.41572" lon="3.52036">
        <ele>1020.681183</ele>
        <time>2019-10-07T13:01:06.644Z</time>
      </trkpt>
      <trkpt lat="44.4158" lon="3.52023">
        <ele>1020.393694</ele>
        <time>2019-10-07T13:01:08.837Z</time>
      </trkpt>
      <trkpt lat="44.41595" lon="3.51971">
        <ele>1019.437037</ele>
        <time>2019-10-07T13:01:16.228Z</time>
      </trkpt>
      <trkpt lat="44.416" lon="3.5193">
        <ele>1018.719474</ele>
        <time>2019-10-07T13:01:21.704Z</time>
      </trkpt>
      <trkpt lat="44.41608" lon="3.51918">
        <ele>1018.441076</ele>
        <time>2019-10-07T13:01:23.713Z</time>
      </trkpt>
      <trkpt lat="44.41638" lon="3.51893">
        <ele>1017.54543</ele>
        <time>2019-10-07T13:01:30.007Z</time>
      </trkpt>
      <trkpt lat="44.41692" lon="3.51754">
        <ele>1014.563409</ele>
        <time>2019-10-07T13:01:50.633Z</time>
      </trkpt>
      <trkpt lat="44.41706" lon="3.51708">
        <ele>1013.623543</ele>
        <time>2019-10-07T13:01:57.438Z</time>
      </trkpt>
      <trkpt lat="44.41718" lon="3.51685">
        <ele>1013.259265</ele>
        <time>2019-10-07T13:02:01.389Z</time>
      </trkpt>
      <trkpt lat="44.41761" lon="3.51652">
        <ele>1012.836681</ele>
        <time>2019-10-07T13:02:11.291Z</time>
      </trkpt>
      <trkpt lat="44.41821" lon="3.51593">
        <ele>1012.207134</ele>
        <time>2019-10-07T13:02:27.007Z</time>
      </trkpt>
      <trkpt lat="44.41856" lon="3.51543">
        <ele>1011.796242</ele>
        <time>2019-10-07T13:02:38.327Z</time>
      </trkpt>
      <trkpt lat="44.419" lon="3.51454">
        <ele>1011.716181</ele>
        <time>2019-10-07T13:02:56.597Z</time>
      </trkpt>
      <trkpt lat="44.41926" lon="3.51355">
        <ele>1011.639172</ele>
        <time>2019-10-07T13:03:13.962Z</time>
      </trkpt>
      <trkpt lat="44.41962" lon="3.51321">
        <ele>1011.325871</ele>
        <time>2019-10-07T13:03:23.858Z</time>
      </trkpt>
      <trkpt lat="44.41969" lon="3.51316">
        <ele>1011.207077</ele>
        <time>2019-10-07T13:03:25.486Z</time>
      </trkpt>
      <trkpt lat="44.41989" lon="3.51316">
        <ele>1010.902525</ele>
        <time>2019-10-07T13:03:29.837Z</time>
      </trkpt>
      <trkpt lat="44.42067" lon="3.51313">
        <ele>1009.723483</ele>
        <time>2019-10-07T13:03:45.904Z</time>
      </trkpt>
      <trkpt lat="44.42173" lon="3.51276">
        <ele>1006.939469</ele>
        <time>2019-10-07T13:04:05.712Z</time>
      </trkpt>
      <trkpt lat="44.42232" lon="3.51247">
        <ele>1004.704345</ele>
        <time>2019-10-07T13:04:16.526Z</time>
      </trkpt>
      <trkpt lat="44.42238" lon="3.51239">
        <ele>1004.413339</ele>
        <time>2019-10-07T13:04:17.841Z</time>
      </trkpt>
      <trkpt lat="44.42244" lon="3.51212">
        <ele>1003.696177</ele>
        <time>2019-10-07T13:04:21.665Z</time>
      </trkpt>
      <trkpt lat="44.42246" lon="3.51205">
        <ele>1003.47989</ele>
        <time>2019-10-07T13:04:22.631Z</time>
      </trkpt>
      <trkpt lat="44.42252" lon="3.512">
        <ele>1003.241357</ele>
        <time>2019-10-07T13:04:23.641Z</time>
      </trkpt>
      <trkpt lat="44.42279" lon="3.51178">
        <ele>1002.279435</ele>
        <time>2019-10-07T13:04:29.219Z</time>
      </trkpt>
      <trkpt lat="44.42306" lon="3.51178">
        <ele>1001.775853</ele>
        <time>2019-10-07T13:04:34.245Z</time>
      </trkpt>
      <trkpt lat="44.42347" lon="3.51187">
        <ele>1001.029306</ele>
        <time>2019-10-07T13:04:41.484Z</time>
      </trkpt>
      <trkpt lat="44.42359" lon="3.51183">
        <ele>1000.802615</ele>
        <time>2019-10-07T13:04:43.566Z</time>
      </trkpt>
      <trkpt lat="44.42411" lon="3.51145">
        <ele>999.712373</ele>
        <time>2019-10-07T13:04:55.694Z</time>
      </trkpt>
      <trkpt lat="44.42448" lon="3.51134">
        <ele>999.20207</ele>
        <time>2019-10-07T13:05:05.794Z</time>
      </trkpt>
      <trkpt lat="44.42477" lon="3.51134">
        <ele>999.571714</ele>
        <time>2019-10-07T13:05:14.398Z</time>
      </trkpt>
      <trkpt lat="44.42551" lon="3.51149">
        <ele>1000.502312</ele>
        <time>2019-10-07T13:05:37.491Z</time>
      </trkpt>
      <trkpt lat="44.4259" lon="3.51177">
        <ele>1001.045419</ele>
        <time>2019-10-07T13:05:51.730Z</time>
      </trkpt>
      <trkpt lat="44.42713" lon="3.51297">
        <ele>1001.980009</ele>
        <time>2019-10-07T13:06:34.095Z</time>
      </trkpt>
      <trkpt lat="44.42803" lon="3.51334">
        <ele>1001.778263</ele>
        <time>2019-10-07T13:06:54.482Z</time>
      </trkpt>
      <trkpt lat="44.42816" lon="3.5133">
        <ele>1001.599799</ele>
        <time>2019-10-07T13:06:57.136Z</time>
      </trkpt>
      <trkpt lat="44.42823" lon="3.51328">
        <ele>1001.510751</ele>
        <time>2019-10-07T13:06:58.491Z</time>
      </trkpt>
      <trkpt lat="44.42905" lon="3.51283">
        <ele>1000.381771</ele>
        <time>2019-10-07T13:07:16.093Z</time>
      </trkpt>
      <trkpt lat="44.42913" lon="3.51279">
        <ele>1000.272588</ele>
        <time>2019-10-07T13:07:17.770Z</time>
      </trkpt>
      <trkpt lat="44.42917" lon="3.51277">
        <ele>1000.215867</ele>
        <time>2019-10-07T13:07:18.520Z</time>
      </trkpt>
      <trkpt lat="44.42965" lon="3.51216">
        <ele>999.443105</ele>
        <time>2019-10-07T13:07:31.345Z</time>
      </trkpt>
      <trkpt lat="44.42983" lon="3.51156">
        <ele>998.906712</ele>
        <time>2019-10-07T13:07:40.720Z</time>
      </trkpt>
      <trkpt lat="44.43049" lon="3.51112">
        <ele>998.060963</ele>
        <time>2019-10-07T13:07:56.164Z</time>
      </trkpt>
      <trkpt lat="44.43067" lon="3.51107">
        <ele>997.848505</ele>
        <time>2019-10-07T13:08:00.162Z</time>
      </trkpt>
      <trkpt lat="44.4309" lon="3.51106">
        <ele>997.51772</ele>
        <time>2019-10-07T13:08:05.082Z</time>
      </trkpt>
      <trkpt lat="44.43099" lon="3.51111">
        <ele>997.365773</ele>
        <time>2019-10-07T13:08:07.366Z</time>
      </trkpt>
      <trkpt lat="44.43122" lon="3.51127">
        <ele>996.991626</ele>
        <time>2019-10-07T13:08:12.460Z</time>
      </trkpt>
      <trkpt lat="44.43133" lon="3.51128">
        <ele>996.830553</ele>
        <time>2019-10-07T13:08:14.817Z</time>
      </trkpt>
      <trkpt lat="44.43156" lon="3.51112">
        <ele>996.468084</ele>
        <time>2019-10-07T13:08:19.747Z</time>
      </trkpt>
      <trkpt lat="44.43167" lon="3.51097">
        <ele>996.240117</ele>
        <time>2019-10-07T13:08:22.886Z</time>
      </trkpt>
      <trkpt lat="44.4318" lon="3.5105">
        <ele>995.723083</ele>
        <time>2019-10-07T13:08:29.969Z</time>
      </trkpt>
      <trkpt lat="44.43181" lon="3.51032">
        <ele>995.530694</ele>
        <time>2019-10-07T13:08:32.536Z</time>
      </trkpt>
      <trkpt lat="44.43175" lon="3.51013">
        <ele>995.32259</ele>
        <time>2019-10-07T13:08:35.516Z</time>
      </trkpt>
      <trkpt lat="44.43168" lon="3.50999">
        <ele>995.051288</ele>
        <time>2019-10-07T13:08:37.797Z</time>
      </trkpt>
      <trkpt lat="44.43163" lon="3.50976">
        <ele>994.643184</ele>
        <time>2019-10-07T13:08:43.243Z</time>
      </trkpt>
      <trkpt lat="44.4316" lon="3.50954">
        <ele>994.252545</ele>
        <time>2019-10-07T13:08:48.230Z</time>
      </trkpt>
      <trkpt lat="44.43164" lon="3.50936">
        <ele>993.906329</ele>
        <time>2019-10-07T13:08:52.714Z</time>
      </trkpt>
      <trkpt lat="44.4319" lon="3.50878">
        <ele>992.725903</ele>
        <time>2019-10-07T13:09:07.986Z</time>
      </trkpt>
      <trkpt lat="44.43221" lon="3.50843">
        <ele>991.742316</ele>
        <time>2019-10-07T13:09:20.480Z</time>
      </trkpt>
      <trkpt lat="44.43268" lon="3.50806">
        <ele>990.598365</ele>
        <time>2019-10-07T13:09:37.691Z</time>
      </trkpt>
      <trkpt lat="44.43276" lon="3.50724">
        <ele>989.742681</ele>
        <time>2019-10-07T13:09:57.189Z</time>
      </trkpt>
      <trkpt lat="44.43307" lon="3.50648">
        <ele>988.841007</ele>
        <time>2019-10-07T13:10:18.386Z</time>
      </trkpt>
      <trkpt lat="44.43335" lon="3.50619">
        <ele>988.341498</ele>
        <time>2019-10-07T13:10:30.546Z</time>
      </trkpt>
      <trkpt lat="44.43382" lon="3.50593">
        <ele>988.303539</ele>
        <time>2019-10-07T13:10:48.643Z</time>
      </trkpt>
      <trkpt lat="44.43455" lon="3.5057">
        <ele>988.376848</ele>
        <time>2019-10-07T13:11:16.932Z</time>
      </trkpt>
      <trkpt lat="44.43528" lon="3.5056">
        <ele>988.606879</ele>
        <time>2019-10-07T13:11:46.048Z</time>
      </trkpt>
      <trkpt lat="44.43568" lon="3.50491">
        <ele>989.446256</ele>
        <time>2019-10-07T13:12:12.919Z</time>
      </trkpt>
      <trkpt lat="44.43611" lon="3.50372">
        <ele>990.709581</ele>
        <time>2019-10-07T13:12:55.886Z</time>
      </trkpt>
      <trkpt lat="44.43637" lon="3.50331">
        <ele>991.399127</ele>
        <time>2019-10-07T13:13:13.809Z</time>
      </trkpt>
      <trkpt lat="44.43718" lon="3.50257">
        <ele>993.243275</ele>
        <time>2019-10-07T13:13:59.667Z</time>
      </trkpt>
      <trkpt lat="44.43765" lon="3.50228">
        <ele>994.241668</ele>
        <time>2019-10-07T13:14:24.112Z</time>
      </trkpt>
      <trkpt lat="44.43835" lon="3.50205">
        <ele>995.505096</ele>
        <time>2019-10-07T13:14:56.578Z</time>
      </trkpt>
      <trkpt lat="44.4389" lon="3.50089">
        <ele>997.259186</ele>
        <time>2019-10-07T13:15:41.636Z</time>
      </trkpt>
      <trkpt lat="44.43902" lon="3.50061">
        <ele>997.741069</ele>
        <time>2019-10-07T13:15:52.428Z</time>
      </trkpt>
      <trkpt lat="44.43933" lon="3.49979">
        <ele>999.246628</ele>
        <time>2019-10-07T13:16:23.970Z</time>
      </trkpt>
      <trkpt lat="44.44008" lon="3.4979">
        <ele>1002.233647</ele>
        <time>2019-10-07T13:17:41.198Z</time>
      </trkpt>
      <trkpt lat="44.44007" lon="3.49714">
        <ele>1002.971766</ele>
        <time>2019-10-07T13:18:06.677Z</time>
      </trkpt>
      <trkpt lat="44.4402" lon="3.49619">
        <ele>1003.908782</ele>
        <time>2019-10-07T13:18:34.138Z</time>
      </trkpt>
      <trkpt lat="44.44024" lon="3.49544">
        <ele>1002.185103</ele>
        <time>2019-10-07T13:18:52.639Z</time>
      </trkpt>
      <trkpt lat="44.44024" lon="3.49544">
        <ele>1002.185103</ele>
        <time>2019-10-07T13:18:52.646Z</time>
      </trkpt>
      <trkpt lat="44.4403" lon="3.49511">
        <ele>1001.374661</ele>
        <time>2019-10-07T13:19:00.660Z</time>
      </trkpt>
      <trkpt lat="44.44044" lon="3.49482">
        <ele>1000.550763</ele>
        <time>2019-10-07T13:19:08.061Z</time>
      </trkpt>
      <trkpt lat="44.44052" lon="3.49454">
        <ele>999.838481</ele>
        <time>2019-10-07T13:19:14.630Z</time>
      </trkpt>
      <trkpt lat="44.44051" lon="3.49454">
        <ele>1005.1</ele>
      </trkpt>
      <trkpt lat="44.44052" lon="3.49448">
        <ele>1004.7</ele>
      </trkpt>
      <trkpt lat="44.44051" lon="3.49424">
        <ele>1003.1</ele>
      </trkpt>
      <trkpt lat="44.44048" lon="3.49384">
        <ele>999.7</ele>
      </trkpt>
      <trkpt lat="44.44045" lon="3.49361">
        <ele>997.6</ele>
      </trkpt>
      <trkpt lat="44.44043" lon="3.49348">
        <ele>996.3</ele>
      </trkpt>
      <trkpt lat="44.44042" lon="3.49342">
        <ele>995.8</ele>
      </trkpt>
      <trkpt lat="44.44042" lon="3.49333">
        <ele>995</ele>
      </trkpt>
      <trkpt lat="44.44043" lon="3.49324">
        <ele>994.8</ele>
      </trkpt>
      <trkpt lat="44.44045" lon="3.49316">
        <ele>994.8</ele>
      </trkpt>
      <trkpt lat="44.44051" lon="3.4931">
        <ele>995.2</ele>
      </trkpt>
      <trkpt lat="44.44056" lon="3.49306">
        <ele>995.6</ele>
      </trkpt>
      <trkpt lat="44.44061" lon="3.49299">
        <ele>995.9</ele>
      </trkpt>
      <trkpt lat="44.44065" lon="3.49288">
        <ele>996</ele>
      </trkpt>
      <trkpt lat="44.44069" lon="3.49269">
        <ele>996</ele>
      </trkpt>
      <trkpt lat="44.44076" lon="3.49251">
        <ele>996.2</ele>
      </trkpt>
      <trkpt lat="44.4408" lon="3.49239">
        <ele>996.4</ele>
      </trkpt>
      <trkpt lat="44.44083" lon="3.4923">
        <ele>996.5</ele>
      </trkpt>
      <trkpt lat="44.44084" lon="3.49222">
        <ele>996.4</ele>
      </trkpt>
      <trkpt lat="44.44084" lon="3.49215">
        <ele>996.2</ele>
      </trkpt>
      <trkpt lat="44.44084" lon="3.49208">
        <ele>996</ele>
      </trkpt>
      <trkpt lat="44.44084" lon="3.49207">
        <ele>996</ele>
      </trkpt>
      <trkpt lat="44.44091" lon="3.49205">
        <ele>996.5</ele>
      </trkpt>
      <trkpt lat="44.44098" lon="3.49201">
        <ele>997</ele>
      </trkpt>
      <trkpt lat="44.44104" lon="3.49195">
        <ele>997.3</ele>
      </trkpt>
      <trkpt lat="44.44113" lon="3.49181">
        <ele>997.6</ele>
      </trkpt>
      <trkpt lat="44.44117" lon="3.49172">
        <ele>997.6</ele>
      </trkpt>
      <trkpt lat="44.44118" lon="3.49153">
        <ele>997.1</ele>
      </trkpt>
      <trkpt lat="44.44121" lon="3.49129">
        <ele>996.6</ele>
      </trkpt>
      <trkpt lat="44.44125" lon="3.49097">
        <ele>995.9</ele>
      </trkpt>
      <trkpt lat="44.44132" lon="3.49068">
        <ele>995.4</ele>
      </trkpt>
      <trkpt lat="44.44137" lon="3.4904">
        <ele>995</ele>
      </trkpt>
      <trkpt lat="44.44143" lon="3.49011">
        <ele>994.6</ele>
      </trkpt>
      <trkpt lat="44.44148" lon="3.4899">
        <ele>994.3</ele>
      </trkpt>
      <trkpt lat="44.4415" lon="3.48986">
        <ele>994.3</ele>
      </trkpt>
      <trkpt lat="44.44152" lon="3.48983">
        <ele>994.2</ele>
      </trkpt>
      <trkpt lat="44.44163" lon="3.48965">
        <ele>994.2</ele>
      </trkpt>
      <trkpt lat="44.4417" lon="3.48954">
        <ele>993.6</ele>
      </trkpt>
      <trkpt lat="44.44175" lon="3.4898">
        <ele>994.6</ele>
      </trkpt>
      <trkpt lat="44.44181" lon="3.49008">
        <ele>995.5</ele>
      </trkpt>
      <trkpt lat="44.44182" lon="3.49012">
        <ele>995.6</ele>
      </trkpt>
      <trkpt lat="44.44186" lon="3.49025">
        <ele>995.7</ele>
      </trkpt>
      <trkpt lat="44.44192" lon="3.49039">
        <ele>995.9</ele>
      </trkpt>
      <trkpt lat="44.44199" lon="3.49053">
        <ele>996</ele>
      </trkpt>
      <trkpt lat="44.44201" lon="3.49055">
        <ele>995.9</ele>
      </trkpt>
      <trkpt lat="44.44207" lon="3.49058">
        <ele>995.8</ele>
      </trkpt>
      <trkpt lat="44.44214" lon="3.49055">
        <ele>995.4</ele>
      </trkpt>
      <trkpt lat="44.44229" lon="3.49057">
        <ele>994.9</ele>
      </trkpt>
      <trkpt lat="44.44241" lon="3.4906">
        <ele>994.5</ele>
      </trkpt>
      <trkpt lat="44.44249" lon="3.49066">
        <ele>994.4</ele>
      </trkpt>
      <trkpt lat="44.44256" lon="3.49072">
        <ele>993.9</ele>
      </trkpt>
      <trkpt lat="44.44263" lon="3.49079">
        <ele>993.3</ele>
      </trkpt>
      <trkpt lat="44.44274" lon="3.49083">
        <ele>992.1</ele>
      </trkpt>
      <trkpt lat="44.44291" lon="3.49086">
        <ele>990.4</ele>
      </trkpt>
      <trkpt lat="44.44327" lon="3.49091">
        <ele>988.393663</ele>
        <time>2019-10-07T13:23:11.265Z</time>
      </trkpt>
      <trkpt lat="44.44389" lon="3.49079">
        <ele>985.383897</ele>
        <time>2019-10-07T13:23:28.401Z</time>
      </trkpt>
      <trkpt lat="44.44402" lon="3.49056">
        <ele>984.344521</ele>
        <time>2019-10-07T13:23:34.364Z</time>
      </trkpt>
      <trkpt lat="44.44419" lon="3.49047">
        <ele>983.46754</ele>
        <time>2019-10-07T13:23:39.338Z</time>
      </trkpt>
      <trkpt lat="44.44427" lon="3.49031">
        <ele>982.814827</ele>
        <time>2019-10-07T13:23:43.171Z</time>
      </trkpt>
      <trkpt lat="44.44468" lon="3.49008">
        <ele>980.736419</ele>
        <time>2019-10-07T13:23:55.429Z</time>
      </trkpt>
      <trkpt lat="44.44476" lon="3.48994">
        <ele>980.116114</ele>
        <time>2019-10-07T13:23:59.053Z</time>
      </trkpt>
      <trkpt lat="44.44555" lon="3.48945">
        <ele>975.994392</ele>
        <time>2019-10-07T13:24:24.269Z</time>
      </trkpt>
      <trkpt lat="44.44634" lon="3.48947">
        <ele>975.007524</ele>
        <time>2019-10-07T13:24:51.880Z</time>
      </trkpt>
      <trkpt lat="44.44679" lon="3.48958">
        <ele>974.710425</ele>
        <time>2019-10-07T13:25:09.072Z</time>
      </trkpt>
      <trkpt lat="44.44715" lon="3.48959">
        <ele>974.471952</ele>
        <time>2019-10-07T13:25:22.731Z</time>
      </trkpt>
      <trkpt lat="44.44767" lon="3.48979">
        <ele>973.991485</ele>
        <time>2019-10-07T13:25:42.945Z</time>
      </trkpt>
      <trkpt lat="44.44786" lon="3.48993">
        <ele>973.736698</ele>
        <time>2019-10-07T13:25:50.475Z</time>
      </trkpt>
      <trkpt lat="44.44804" lon="3.48996">
        <ele>973.519395</ele>
        <time>2019-10-07T13:25:57.364Z</time>
      </trkpt>
      <trkpt lat="44.44839" lon="3.49004">
        <ele>973.097841</ele>
        <time>2019-10-07T13:26:09.631Z</time>
      </trkpt>
      <trkpt lat="44.44923" lon="3.48989">
        <ele>972.06552</ele>
        <time>2019-10-07T13:26:37.081Z</time>
      </trkpt>
      <trkpt lat="44.44994" lon="3.48998">
        <ele>970.316651</ele>
        <time>2019-10-07T13:26:59.342Z</time>
      </trkpt>
      <trkpt lat="44.45026" lon="3.49011">
        <ele>969.496705</ele>
        <time>2019-10-07T13:27:09.713Z</time>
      </trkpt>
      <trkpt lat="44.45068" lon="3.48987">
        <ele>968.389711</ele>
        <time>2019-10-07T13:27:24.205Z</time>
      </trkpt>
      <trkpt lat="44.45105" lon="3.48991">
        <ele>967.701614</ele>
        <time>2019-10-07T13:27:36.158Z</time>
      </trkpt>
      <trkpt lat="44.4516" lon="3.4898">
        <ele>967.424981</ele>
        <time>2019-10-07T13:27:55.612Z</time>
      </trkpt>
      <trkpt lat="44.45169" lon="3.48981">
        <ele>967.384348</ele>
        <time>2019-10-07T13:27:58.387Z</time>
      </trkpt>
      <trkpt lat="44.45176" lon="3.48989">
        <ele>967.337145</ele>
        <time>2019-10-07T13:28:02.226Z</time>
      </trkpt>
      <trkpt lat="44.45211" lon="3.49058">
        <ele>967.038479</ele>
        <time>2019-10-07T13:28:24.872Z</time>
      </trkpt>
      <trkpt lat="44.45252" lon="3.49101">
        <ele>966.691823</ele>
        <time>2019-10-07T13:28:44.779Z</time>
      </trkpt>
      <trkpt lat="44.45263" lon="3.49102">
        <ele>966.562096</ele>
        <time>2019-10-07T13:28:49.111Z</time>
      </trkpt>
      <trkpt lat="44.45282" lon="3.49106">
        <ele>966.353731</ele>
        <time>2019-10-07T13:28:55.728Z</time>
      </trkpt>
      <trkpt lat="44.45301" lon="3.49112">
        <ele>966.134508</ele>
        <time>2019-10-07T13:29:02.967Z</time>
      </trkpt>
      <trkpt lat="44.45314" lon="3.49106">
        <ele>965.978763</ele>
        <time>2019-10-07T13:29:05.878Z</time>
      </trkpt>
      <trkpt lat="44.45371" lon="3.49078">
        <ele>965.305654</ele>
        <time>2019-10-07T13:29:17.870Z</time>
      </trkpt>
      <trkpt lat="44.45383" lon="3.49069">
        <ele>965.150284</ele>
        <time>2019-10-07T13:29:20.584Z</time>
      </trkpt>
      <trkpt lat="44.45407" lon="3.49047">
        <ele>964.776554</ele>
        <time>2019-10-07T13:29:26.005Z</time>
      </trkpt>
      <trkpt lat="44.45443" lon="3.49021">
        <ele>963.412094</ele>
        <time>2019-10-07T13:29:33.607Z</time>
      </trkpt>
      <trkpt lat="44.4546" lon="3.49006">
        <ele>962.734385</ele>
        <time>2019-10-07T13:29:37.072Z</time>
      </trkpt>
      <trkpt lat="44.45476" lon="3.48977">
        <ele>961.856149</ele>
        <time>2019-10-07T13:29:41.767Z</time>
      </trkpt>
      <trkpt lat="44.45486" lon="3.48962">
        <ele>961.363917</ele>
        <time>2019-10-07T13:29:44.259Z</time>
      </trkpt>
      <trkpt lat="44.45498" lon="3.48946">
        <ele>960.80618</ele>
        <time>2019-10-07T13:29:47.279Z</time>
      </trkpt>
      <trkpt lat="44.45537" lon="3.48889">
        <ele>958.90493</ele>
        <time>2019-10-07T13:29:56.930Z</time>
      </trkpt>
      <trkpt lat="44.45543" lon="3.48867">
        <ele>958.310395</ele>
        <time>2019-10-07T13:29:59.915Z</time>
      </trkpt>
      <trkpt lat="44.45541" lon="3.48842">
        <ele>957.67953</ele>
        <time>2019-10-07T13:30:02.906Z</time>
      </trkpt>
      <trkpt lat="44.45527" lon="3.48787">
        <ele>956.194222</ele>
        <time>2019-10-07T13:30:10.350Z</time>
      </trkpt>
      <trkpt lat="44.45528" lon="3.48743">
        <ele>955.076789</ele>
        <time>2019-10-07T13:30:15.942Z</time>
      </trkpt>
      <trkpt lat="44.45533" lon="3.48713">
        <ele>954.299371</ele>
        <time>2019-10-07T13:30:19.855Z</time>
      </trkpt>
      <trkpt lat="44.45537" lon="3.48694">
        <ele>953.777269</ele>
        <time>2019-10-07T13:30:24.274Z</time>
      </trkpt>
      <trkpt lat="44.45549" lon="3.48636">
        <ele>952.299099</ele>
        <time>2019-10-07T13:30:37.338Z</time>
      </trkpt>
      <trkpt lat="44.45565" lon="3.48589">
        <ele>951.437498</ele>
        <time>2019-10-07T13:30:48.768Z</time>
      </trkpt>
      <trkpt lat="44.45602" lon="3.48513">
        <ele>949.896626</ele>
        <time>2019-10-07T13:31:09.388Z</time>
      </trkpt>
      <trkpt lat="44.4565" lon="3.48443">
        <ele>948.269628</ele>
        <time>2019-10-07T13:31:32.719Z</time>
      </trkpt>
      <trkpt lat="44.45709" lon="3.48378">
        <ele>948.021056</ele>
        <time>2019-10-07T13:31:58.592Z</time>
      </trkpt>
      <trkpt lat="44.45747" lon="3.48311">
        <ele>947.874885</ele>
        <time>2019-10-07T13:32:20.751Z</time>
      </trkpt>
      <trkpt lat="44.45753" lon="3.48281">
        <ele>947.820377</ele>
        <time>2019-10-07T13:32:29.896Z</time>
      </trkpt>
      <trkpt lat="44.45843" lon="3.48159">
        <ele>949.08579</ele>
        <time>2019-10-07T13:33:22.536Z</time>
      </trkpt>
      <trkpt lat="44.45862" lon="3.48141">
        <ele>949.392441</ele>
        <time>2019-10-07T13:33:32.943Z</time>
      </trkpt>
      <trkpt lat="44.45864" lon="3.48127">
        <ele>949.528575</ele>
        <time>2019-10-07T13:33:37.450Z</time>
      </trkpt>
      <trkpt lat="44.45861" lon="3.48113">
        <ele>949.660517</ele>
        <time>2019-10-07T13:33:41.982Z</time>
      </trkpt>
      <trkpt lat="44.45823" lon="3.4809">
        <ele>950.276639</ele>
        <time>2019-10-07T13:34:01.407Z</time>
      </trkpt>
      <trkpt lat="44.4578" lon="3.48015">
        <ele>952.071824</ele>
        <time>2019-10-07T13:34:34.945Z</time>
      </trkpt>
      <trkpt lat="44.45773" lon="3.47988">
        <ele>952.612604</ele>
        <time>2019-10-07T13:34:45.414Z</time>
      </trkpt>
      <trkpt lat="44.45782" lon="3.47776">
        <ele>956.680254</ele>
        <time>2019-10-07T13:36:04.351Z</time>
      </trkpt>
      <trkpt lat="44.45799" lon="3.477">
        <ele>958.269685</ele>
        <time>2019-10-07T13:36:34.540Z</time>
      </trkpt>
      <trkpt lat="44.458" lon="3.47667">
        <ele>958.910123</ele>
        <time>2019-10-07T13:36:46.261Z</time>
      </trkpt>
      <trkpt lat="44.45827" lon="3.47586">
        <ele>960.01377</ele>
        <time>2019-10-07T13:37:17.296Z</time>
      </trkpt>
      <trkpt lat="44.45831" lon="3.47553">
        <ele>960.145508</ele>
        <time>2019-10-07T13:37:28.170Z</time>
      </trkpt>
      <trkpt lat="44.45857" lon="3.47481">
        <ele>960.458712</ele>
        <time>2019-10-07T13:37:51.275Z</time>
      </trkpt>
      <trkpt lat="44.45857" lon="3.47481">
        <ele>960.458712</ele>
        <time>2019-10-07T13:37:51.315Z</time>
      </trkpt>
      <trkpt lat="44.45879" lon="3.47442">
        <ele>960.656241</ele>
        <time>2019-10-07T13:38:04.381Z</time>
      </trkpt>
      <trkpt lat="44.459" lon="3.47384">
        <ele>960.494179</ele>
        <time>2019-10-07T13:38:20.410Z</time>
      </trkpt>
      <trkpt lat="44.45909" lon="3.47338">
        <ele>959.706835</ele>
        <time>2019-10-07T13:38:31.549Z</time>
      </trkpt>
      <trkpt lat="44.45911" lon="3.47295">
        <ele>958.980429</ele>
        <time>2019-10-07T13:38:41.619Z</time>
      </trkpt>
      <trkpt lat="44.45932" lon="3.47209">
        <ele>957.478738</ele>
        <time>2019-10-07T13:39:01.862Z</time>
      </trkpt>
      <trkpt lat="44.45988" lon="3.47109">
        <ele>954.45714</ele>
        <time>2019-10-07T13:39:29.859Z</time>
      </trkpt>
      <trkpt lat="44.46023" lon="3.47024">
        <ele>951.642899</ele>
        <time>2019-10-07T13:39:51.100Z</time>
      </trkpt>
      <trkpt lat="44.4604" lon="3.46925">
        <ele>948.44459</ele>
        <time>2019-10-07T13:40:12.278Z</time>
      </trkpt>
      <trkpt lat="44.4608" lon="3.46823">
        <ele>943.696317</ele>
        <time>2019-10-07T13:40:35.301Z</time>
      </trkpt>
      <trkpt lat="44.46082" lon="3.46789">
        <ele>942.31618</ele>
        <time>2019-10-07T13:40:42.074Z</time>
      </trkpt>
      <trkpt lat="44.46067" lon="3.46764">
        <ele>940.992499</ele>
        <time>2019-10-07T13:40:48.640Z</time>
      </trkpt>
      <trkpt lat="44.46045" lon="3.4673">
        <ele>939.12274</ele>
        <time>2019-10-07T13:40:57.992Z</time>
      </trkpt>
      <trkpt lat="44.46063" lon="3.46716">
        <ele>938.286243</ele>
        <time>2019-10-07T13:41:01.435Z</time>
      </trkpt>
      <trkpt lat="44.46125" lon="3.46678">
        <ele>935.575479</ele>
        <time>2019-10-07T13:41:12.878Z</time>
      </trkpt>
      <trkpt lat="44.46149" lon="3.46656">
        <ele>934.446406</ele>
        <time>2019-10-07T13:41:17.793Z</time>
      </trkpt>
      <trkpt lat="44.46185" lon="3.46605">
        <ele>932.413975</ele>
        <time>2019-10-07T13:41:27.172Z</time>
      </trkpt>
      <trkpt lat="44.46202" lon="3.4659">
        <ele>931.609496</ele>
        <time>2019-10-07T13:41:31.227Z</time>
      </trkpt>
      <trkpt lat="44.46267" lon="3.46554">
        <ele>928.988825</ele>
        <time>2019-10-07T13:41:43.556Z</time>
      </trkpt>
      <trkpt lat="44.4628" lon="3.46541">
        <ele>928.376434</ele>
        <time>2019-10-07T13:41:46.310Z</time>
      </trkpt>
      <trkpt lat="44.46305" lon="3.46478">
        <ele>926.433389</ele>
        <time>2019-10-07T13:41:55.272Z</time>
      </trkpt>
      <trkpt lat="44.4631" lon="3.4647">
        <ele>926.157442</ele>
        <time>2019-10-07T13:41:56.496Z</time>
      </trkpt>
      <trkpt lat="44.46315" lon="3.46443">
        <ele>925.41487</ele>
        <time>2019-10-07T13:42:02.189Z</time>
      </trkpt>
      <trkpt lat="44.46328" lon="3.46395">
        <ele>923.975904</ele>
        <time>2019-10-07T13:42:13.166Z</time>
      </trkpt>
      <trkpt lat="44.46381" lon="3.46282">
        <ele>920.243403</ele>
        <time>2019-10-07T13:42:41.382Z</time>
      </trkpt>
      <trkpt lat="44.46409" lon="3.46244">
        <ele>918.728904</ele>
        <time>2019-10-07T13:42:53.290Z</time>
      </trkpt>
      <trkpt lat="44.46426" lon="3.46229">
        <ele>917.933565</ele>
        <time>2019-10-07T13:42:59.850Z</time>
      </trkpt>
      <trkpt lat="44.46464" lon="3.46224">
        <ele>916.388521</ele>
        <time>2019-10-07T13:43:12.248Z</time>
      </trkpt>
      <trkpt lat="44.465" lon="3.46233">
        <ele>914.964086</ele>
        <time>2019-10-07T13:43:23.515Z</time>
      </trkpt>
      <trkpt lat="44.46577" lon="3.46227">
        <ele>911.860171</ele>
        <time>2019-10-07T13:43:46.702Z</time>
      </trkpt>
      <trkpt lat="44.46653" lon="3.46209">
        <ele>906.211547</ele>
        <time>2019-10-07T13:44:07.689Z</time>
      </trkpt>
      <trkpt lat="44.46726" lon="3.46212">
        <ele>899.841144</ele>
        <time>2019-10-07T13:44:26.905Z</time>
      </trkpt>
      <trkpt lat="44.46781" lon="3.46184">
        <ele>894.607653</ele>
        <time>2019-10-07T13:44:41.710Z</time>
      </trkpt>
      <trkpt lat="44.46827" lon="3.46151">
        <ele>888.862485</ele>
        <time>2019-10-07T13:44:54.844Z</time>
      </trkpt>
      <trkpt lat="44.46856" lon="3.46141">
        <ele>885.620312</ele>
        <time>2019-10-07T13:45:02.257Z</time>
      </trkpt>
      <trkpt lat="44.46972" lon="3.46063">
        <ele>871.112761</ele>
        <time>2019-10-07T13:45:34.948Z</time>
      </trkpt>
      <trkpt lat="44.47117" lon="3.45999">
        <ele>852.765256</ele>
        <time>2019-10-07T13:46:13.122Z</time>
      </trkpt>
      <trkpt lat="44.47172" lon="3.45962">
        <ele>844.106678</ele>
        <time>2019-10-07T13:46:27.912Z</time>
      </trkpt>
      <trkpt lat="44.47213" lon="3.45915">
        <ele>836.584294</ele>
        <time>2019-10-07T13:46:40.689Z</time>
      </trkpt>
      <trkpt lat="44.47239" lon="3.45848">
        <ele>828.893746</ele>
        <time>2019-10-07T13:46:53.818Z</time>
      </trkpt>
      <trkpt lat="44.47283" lon="3.45789">
        <ele>822.510389</ele>
        <time>2019-10-07T13:47:08.852Z</time>
      </trkpt>
      <trkpt lat="44.47315" lon="3.45693">
        <ele>814.598899</ele>
        <time>2019-10-07T13:47:28.294Z</time>
      </trkpt>
      <trkpt lat="44.47335" lon="3.45661">
        <ele>811.512495</ele>
        <time>2019-10-07T13:47:36.363Z</time>
      </trkpt>
      <trkpt lat="44.4736" lon="3.45635">
        <ele>809.322322</ele>
        <time>2019-10-07T13:47:45.185Z</time>
      </trkpt>
      <trkpt lat="44.47416" lon="3.45613">
        <ele>806.925624</ele>
        <time>2019-10-07T13:48:02.194Z</time>
      </trkpt>
      <trkpt lat="44.47416" lon="3.45613">
        <ele>806.925624</ele>
        <time>2019-10-07T13:48:02.245Z</time>
      </trkpt>
      <trkpt lat="44.47416" lon="3.45613">
        <ele>806.925624</ele>
        <time>2019-10-07T13:48:02.359Z</time>
      </trkpt>
      <trkpt lat="44.47416" lon="3.45613">
        <ele>806.925624</ele>
        <time>2019-10-07T13:48:02.369Z</time>
      </trkpt>
      <trkpt lat="44.47416" lon="3.45613">
        <ele>806.925624</ele>
        <time>2019-10-07T13:48:02.372Z</time>
      </trkpt>
      <trkpt lat="44.47464" lon="3.45576">
        <ele>804.697849</ele>
        <time>2019-10-07T13:48:16.430Z</time>
      </trkpt>
      <trkpt lat="44.47485" lon="3.4555">
        <ele>803.549589</ele>
        <time>2019-10-07T13:48:23.679Z</time>
      </trkpt>
      <trkpt lat="44.47516" lon="3.45491">
        <ele>801.759509</ele>
        <time>2019-10-07T13:48:37.346Z</time>
      </trkpt>
      <trkpt lat="44.47547" lon="3.45405">
        <ele>799.771128</ele>
        <time>2019-10-07T13:48:55.221Z</time>
      </trkpt>
      <trkpt lat="44.47558" lon="3.45386">
        <ele>799.27854</ele>
        <time>2019-10-07T13:48:59.646Z</time>
      </trkpt>
      <trkpt lat="44.47608" lon="3.45349">
        <ele>797.640585</ele>
        <time>2019-10-07T13:49:14.342Z</time>
      </trkpt>
      <trkpt lat="44.47659" lon="3.45312">
        <ele>795.778443</ele>
        <time>2019-10-07T13:49:29.048Z</time>
      </trkpt>
      <trkpt lat="44.47692" lon="3.45311">
        <ele>794.663899</ele>
        <time>2019-10-07T13:49:37.711Z</time>
      </trkpt>
      <trkpt lat="44.47709" lon="3.45335">
        <ele>793.854637</ele>
        <time>2019-10-07T13:49:44.014Z</time>
      </trkpt>
      <trkpt lat="44.47728" lon="3.45406">
        <ele>792.068387</ele>
        <time>2019-10-07T13:49:57.942Z</time>
      </trkpt>
      <trkpt lat="44.47766" lon="3.45514">
        <ele>788.773577</ele>
        <time>2019-10-07T13:50:20.225Z</time>
      </trkpt>
      <trkpt lat="44.47779" lon="3.45564">
        <ele>787.260486</ele>
        <time>2019-10-07T13:50:30.119Z</time>
      </trkpt>
      <trkpt lat="44.47775" lon="3.45593">
        <ele>786.42451</ele>
        <time>2019-10-07T13:50:35.586Z</time>
      </trkpt>
      <trkpt lat="44.47765" lon="3.45605">
        <ele>785.907115</ele>
        <time>2019-10-07T13:50:38.964Z</time>
      </trkpt>
      <trkpt lat="44.47754" lon="3.45612">
        <ele>785.437475</ele>
        <time>2019-10-07T13:50:42.026Z</time>
      </trkpt>
      <trkpt lat="44.47738" lon="3.45638">
        <ele>784.446707</ele>
        <time>2019-10-07T13:50:48.498Z</time>
      </trkpt>
      <trkpt lat="44.4773" lon="3.45652">
        <ele>783.900946</ele>
        <time>2019-10-07T13:50:51.692Z</time>
      </trkpt>
      <trkpt lat="44.47726" lon="3.45659">
        <ele>783.62803</ele>
        <time>2019-10-07T13:50:53.245Z</time>
      </trkpt>
      <trkpt lat="44.4771" lon="3.45694">
        <ele>782.258122</ele>
        <time>2019-10-07T13:51:01.037Z</time>
      </trkpt>
      <trkpt lat="44.47694" lon="3.45802">
        <ele>778.666501</ele>
        <time>2019-10-07T13:51:21.490Z</time>
      </trkpt>
      <trkpt lat="44.47672" lon="3.45892">
        <ele>775.509219</ele>
        <time>2019-10-07T13:51:39.147Z</time>
      </trkpt>
      <trkpt lat="44.4765" lon="3.45983">
        <ele>772.105913</ele>
        <time>2019-10-07T13:51:56.814Z</time>
      </trkpt>
      <trkpt lat="44.47645" lon="3.46034">
        <ele>770.260725</ele>
        <time>2019-10-07T13:52:06.396Z</time>
      </trkpt>
      <trkpt lat="44.47704" lon="3.45955">
        <ele>766.156679</ele>
        <time>2019-10-07T13:52:27.517Z</time>
      </trkpt>
      <trkpt lat="44.47751" lon="3.4588">
        <ele>762.482407</ele>
        <time>2019-10-07T13:52:45.999Z</time>
      </trkpt>
      <trkpt lat="44.47798" lon="3.45805">
        <ele>758.804738</ele>
        <time>2019-10-07T13:53:04.497Z</time>
      </trkpt>
      <trkpt lat="44.47845" lon="3.4573">
        <ele>755.218924</ele>
        <time>2019-10-07T13:53:22.977Z</time>
      </trkpt>
      <trkpt lat="44.47852" lon="3.45727">
        <ele>754.876984</ele>
        <time>2019-10-07T13:53:24.752Z</time>
      </trkpt>
      <trkpt lat="44.47849" lon="3.45796">
        <ele>752.44236</ele>
        <time>2019-10-07T13:53:37.423Z</time>
      </trkpt>
      <trkpt lat="44.47853" lon="3.45844">
        <ele>750.713613</ele>
        <time>2019-10-07T13:53:46.419Z</time>
      </trkpt>
      <trkpt lat="44.47867" lon="3.45901">
        <ele>748.59872</ele>
        <time>2019-10-07T13:53:57.665Z</time>
      </trkpt>
      <trkpt lat="44.47891" lon="3.4597">
        <ele>746.227665</ele>
        <time>2019-10-07T13:54:11.838Z</time>
      </trkpt>
      <trkpt lat="44.47898" lon="3.45973">
        <ele>745.925182</ele>
        <time>2019-10-07T13:54:13.642Z</time>
      </trkpt>
      <trkpt lat="44.47904" lon="3.45946">
        <ele>745.054311</ele>
        <time>2019-10-07T13:54:18.848Z</time>
      </trkpt>
      <trkpt lat="44.47912" lon="3.45877">
        <ele>742.906157</ele>
        <time>2019-10-07T13:54:31.695Z</time>
      </trkpt>
      <trkpt lat="44.4792" lon="3.45809">
        <ele>740.840546</ele>
        <time>2019-10-07T13:54:44.537Z</time>
      </trkpt>
      <trkpt lat="44.47912" lon="3.45706">
        <ele>738.394749</ele>
        <time>2019-10-07T13:55:03.616Z</time>
      </trkpt>
      <trkpt lat="44.47933" lon="3.45624">
        <ele>736.33403</ele>
        <time>2019-10-07T13:55:19.683Z</time>
      </trkpt>
      <trkpt lat="44.47949" lon="3.45578">
        <ele>735.115744</ele>
        <time>2019-10-07T13:55:29.242Z</time>
      </trkpt>
      <trkpt lat="44.47959" lon="3.45567">
        <ele>734.871754</ele>
        <time>2019-10-07T13:55:32.525Z</time>
      </trkpt>
      <trkpt lat="44.47963" lon="3.45574">
        <ele>734.746454</ele>
        <time>2019-10-07T13:55:34.211Z</time>
      </trkpt>
      <trkpt lat="44.4797" lon="3.45579">
        <ele>734.601143</ele>
        <time>2019-10-07T13:55:36.164Z</time>
      </trkpt>
      <trkpt lat="44.48007" lon="3.45603">
        <ele>733.818841</ele>
        <time>2019-10-07T13:55:46.677Z</time>
      </trkpt>
      <trkpt lat="44.48013" lon="3.45608">
        <ele>733.691163</ele>
        <time>2019-10-07T13:55:48.393Z</time>
      </trkpt>
      <trkpt lat="44.48016" lon="3.45615">
        <ele>733.570396</ele>
        <time>2019-10-07T13:55:50.020Z</time>
      </trkpt>
      <trkpt lat="44.48019" lon="3.45614">
        <ele>733.521046</ele>
        <time>2019-10-07T13:55:50.683Z</time>
      </trkpt>
      <trkpt lat="44.48036" lon="3.45622">
        <ele>733.167221</ele>
        <time>2019-10-07T13:55:55.437Z</time>
      </trkpt>
      <trkpt lat="44.48044" lon="3.45629">
        <ele>732.992072</ele>
        <time>2019-10-07T13:55:57.791Z</time>
      </trkpt>
      <trkpt lat="44.48046" lon="3.45636">
        <ele>732.895345</ele>
        <time>2019-10-07T13:55:59.094Z</time>
      </trkpt>
      <trkpt lat="44.48055" lon="3.45636">
        <ele>732.720082</ele>
        <time>2019-10-07T13:56:01.446Z</time>
      </trkpt>
      <trkpt lat="44.48059" lon="3.4564">
        <ele>732.6334</ele>
        <time>2019-10-07T13:56:02.613Z</time>
      </trkpt>
      <trkpt lat="44.48064" lon="3.45641">
        <ele>732.538105</ele>
        <time>2019-10-07T13:56:03.893Z</time>
      </trkpt>
      <trkpt lat="44.48064" lon="3.45646">
        <ele>732.464697</ele>
        <time>2019-10-07T13:56:04.882Z</time>
      </trkpt>
      <trkpt lat="44.48063" lon="3.45667">
        <ele>732.174456</ele>
        <time>2019-10-07T13:56:08.793Z</time>
      </trkpt>
      <trkpt lat="44.4806" lon="3.45699">
        <ele>731.732347</ele>
        <time>2019-10-07T13:56:14.749Z</time>
      </trkpt>
      <trkpt lat="44.48048" lon="3.45777">
        <ele>731.467205</ele>
        <time>2019-10-07T13:56:29.564Z</time>
      </trkpt>
      <trkpt lat="44.4807" lon="3.4583">
        <ele>731.306067</ele>
        <time>2019-10-07T13:56:40.851Z</time>
      </trkpt>
      <trkpt lat="44.48068" lon="3.45872">
        <ele>731.194899</ele>
        <time>2019-10-07T13:56:48.645Z</time>
      </trkpt>
      <trkpt lat="44.48068" lon="3.45907">
        <ele>731.103583</ele>
        <time>2019-10-07T13:56:55.045Z</time>
      </trkpt>
      <trkpt lat="44.48068" lon="3.45922">
        <ele>731.063725</ele>
        <time>2019-10-07T13:56:57.840Z</time>
      </trkpt>
      <trkpt lat="44.48068" lon="3.45957">
        <ele>731.106893</ele>
        <time>2019-10-07T13:57:04.372Z</time>
      </trkpt>
      <trkpt lat="44.48085" lon="3.45965">
        <ele>731.343782</ele>
        <time>2019-10-07T13:57:09.020Z</time>
      </trkpt>
      <trkpt lat="44.48098" lon="3.45974">
        <ele>731.528902</ele>
        <time>2019-10-07T13:57:12.655Z</time>
      </trkpt>
      <trkpt lat="44.48096" lon="3.45977">
        <ele>731.572743</ele>
        <time>2019-10-07T13:57:13.516Z</time>
      </trkpt>
      <trkpt lat="44.48095" lon="3.46001">
        <ele>731.792304</ele>
        <time>2019-10-07T13:57:17.839Z</time>
      </trkpt>
      <trkpt lat="44.48101" lon="3.46014">
        <ele>731.94915</ele>
        <time>2019-10-07T13:57:20.923Z</time>
      </trkpt>
      <trkpt lat="44.48118" lon="3.46027">
        <ele>732.20265</ele>
        <time>2019-10-07T13:57:25.900Z</time>
      </trkpt>
      <trkpt lat="44.48124" lon="3.46053">
        <ele>732.451011</ele>
        <time>2019-10-07T13:57:30.787Z</time>
      </trkpt>
      <trkpt lat="44.48122" lon="3.46064">
        <ele>732.564155</ele>
        <time>2019-10-07T13:57:33.015Z</time>
      </trkpt>
      <trkpt lat="44.48132" lon="3.46082">
        <ele>732.778215</ele>
        <time>2019-10-07T13:57:37.223Z</time>
      </trkpt>
      <trkpt lat="44.48142" lon="3.46095">
        <ele>732.954836</ele>
        <time>2019-10-07T13:57:40.695Z</time>
      </trkpt>
      <trkpt lat="44.48152" lon="3.46137">
        <ele>733.371385</ele>
        <time>2019-10-07T13:57:48.876Z</time>
      </trkpt>
      <trkpt lat="44.48152" lon="3.46147">
        <ele>733.57437</ele>
        <time>2019-10-07T13:57:50.634Z</time>
      </trkpt>
      <trkpt lat="44.48155" lon="3.46159">
        <ele>733.856429</ele>
        <time>2019-10-07T13:57:53.075Z</time>
      </trkpt>
      <trkpt lat="44.4816" lon="3.46186">
        <ele>734.462651</ele>
        <time>2019-10-07T13:57:58.325Z</time>
      </trkpt>
      <trkpt lat="44.48181" lon="3.46235">
        <ele>735.688503</ele>
        <time>2019-10-07T13:58:08.935Z</time>
      </trkpt>
      <trkpt lat="44.48229" lon="3.46291">
        <ele>737.540704</ele>
        <time>2019-10-07T13:58:24.948Z</time>
      </trkpt>
      <trkpt lat="44.48248" lon="3.46305">
        <ele>738.191438</ele>
        <time>2019-10-07T13:58:30.571Z</time>
      </trkpt>
      <trkpt lat="44.48299" lon="3.46328">
        <ele>740.329444</ele>
        <time>2019-10-07T13:58:44.477Z</time>
      </trkpt>
      <trkpt lat="44.48328" lon="3.46335">
        <ele>741.65689</ele>
        <time>2019-10-07T13:58:52.096Z</time>
      </trkpt>
      <trkpt lat="44.48404" lon="3.46334">
        <ele>745.059375</ele>
        <time>2019-10-07T13:59:11.624Z</time>
      </trkpt>
      <trkpt lat="44.48422" lon="3.4634">
        <ele>745.912303</ele>
        <time>2019-10-07T13:59:16.521Z</time>
      </trkpt>
      <trkpt lat="44.48457" lon="3.46359">
        <ele>747.856532</ele>
        <time>2019-10-07T13:59:26.293Z</time>
      </trkpt>
      <trkpt lat="44.48452" lon="3.4639">
        <ele>749.228694</ele>
        <time>2019-10-07T13:59:32.268Z</time>
      </trkpt>
      <trkpt lat="44.48447" lon="3.46455">
        <ele>751.987571</ele>
        <time>2019-10-07T13:59:44.287Z</time>
      </trkpt>
      <trkpt lat="44.48449" lon="3.46529">
        <ele>755.11818</ele>
        <time>2019-10-07T13:59:57.929Z</time>
      </trkpt>
      <trkpt lat="44.48454" lon="3.4658">
        <ele>757.324072</ele>
        <time>2019-10-07T14:00:07.541Z</time>
      </trkpt>
      <trkpt lat="44.48467" lon="3.46644">
        <ele>760.734533</ele>
        <time>2019-10-07T14:00:19.878Z</time>
      </trkpt>
      <trkpt lat="44.48481" lon="3.46708">
        <ele>764.199969</ele>
        <time>2019-10-07T14:00:32.208Z</time>
      </trkpt>
      <trkpt lat="44.48488" lon="3.46733">
        <ele>765.611827</ele>
        <time>2019-10-07T14:00:37.230Z</time>
      </trkpt>
      <trkpt lat="44.4848" lon="3.46733">
        <ele>766.19598</ele>
        <time>2019-10-07T14:00:39.302Z</time>
      </trkpt>
      <trkpt lat="44.48468" lon="3.46712">
        <ele>767.574671</ele>
        <time>2019-10-07T14:00:44.203Z</time>
      </trkpt>
      <trkpt lat="44.48453" lon="3.46664">
        <ele>770.342689</ele>
        <time>2019-10-07T14:00:54.052Z</time>
      </trkpt>
      <trkpt lat="44.48412" lon="3.46597">
        <ele>775.656851</ele>
        <time>2019-10-07T14:01:10.352Z</time>
      </trkpt>
      <trkpt lat="44.48364" lon="3.46568">
        <ele>780.182204</ele>
        <time>2019-10-07T14:01:24.049Z</time>
      </trkpt>
      <trkpt lat="44.48311" lon="3.46513">
        <ele>785.797608</ele>
        <time>2019-10-07T14:01:41.062Z</time>
      </trkpt>
      <trkpt lat="44.4824" lon="3.46459">
        <ele>793.467923</ele>
        <time>2019-10-07T14:02:01.979Z</time>
      </trkpt>
      <trkpt lat="44.48192" lon="3.46448">
        <ele>798.179559</ele>
        <time>2019-10-07T14:02:14.759Z</time>
      </trkpt>
      <trkpt lat="44.48163" lon="3.46457">
        <ele>800.993794</ele>
        <time>2019-10-07T14:02:22.393Z</time>
      </trkpt>
      <trkpt lat="44.48155" lon="3.46463">
        <ele>801.831406</ele>
        <time>2019-10-07T14:02:24.669Z</time>
      </trkpt>
      <trkpt lat="44.48234" lon="3.46499">
        <ele>810.358386</ele>
        <time>2019-10-07T14:02:46.204Z</time>
      </trkpt>
      <trkpt lat="44.48266" lon="3.46555">
        <ele>815.734458</ele>
        <time>2019-10-07T14:02:59.593Z</time>
      </trkpt>
      <trkpt lat="44.48299" lon="3.46612">
        <ele>821.111215</ele>
        <time>2019-10-07T14:03:12.986Z</time>
      </trkpt>
      <trkpt lat="44.48327" lon="3.46651">
        <ele>825.481269</ele>
        <time>2019-10-07T14:03:23.400Z</time>
      </trkpt>
      <trkpt lat="44.48387" lon="3.46719">
        <ele>834.040314</ele>
        <time>2019-10-07T14:03:43.518Z</time>
      </trkpt>
      <trkpt lat="44.48409" lon="3.46816">
        <ele>842.106445</ele>
        <time>2019-10-07T14:04:02.498Z</time>
      </trkpt>
      <trkpt lat="44.48391" lon="3.46878">
        <ele>847.779972</ele>
        <time>2019-10-07T14:04:14.814Z</time>
      </trkpt>
      <trkpt lat="44.48394" lon="3.46951">
        <ele>854.0467</ele>
        <time>2019-10-07T14:04:28.434Z</time>
      </trkpt>
      <trkpt lat="44.48394" lon="3.46951">
        <ele>854.0467</ele>
        <time>2019-10-07T14:04:28.439Z</time>
      </trkpt>
      <trkpt lat="44.48412" lon="3.47037">
        <ele>861.723235</ele>
        <time>2019-10-07T14:05:31.581Z</time>
      </trkpt>
      <trkpt lat="44.48407" lon="3.47095">
        <ele>866.904878</ele>
        <time>2019-10-07T14:06:13.771Z</time>
      </trkpt>
      <trkpt lat="44.48437" lon="3.47169">
        <ele>874.501358</ele>
        <time>2019-10-07T14:07:14.455Z</time>
      </trkpt>
      <trkpt lat="44.48414" lon="3.47308">
        <ele>887.061936</ele>
        <time>2019-10-07T14:08:57.707Z</time>
      </trkpt>
      <trkpt lat="44.48445" lon="3.47459">
        <ele>899.545783</ele>
        <time>2019-10-07T14:10:42.445Z</time>
      </trkpt>
      <trkpt lat="44.48457" lon="3.47623">
        <ele>911.953901</ele>
        <time>2019-10-07T14:12:27.010Z</time>
      </trkpt>
      <trkpt lat="44.48476" lon="3.47695">
        <ele>917.394941</ele>
        <time>2019-10-07T14:13:13.535Z</time>
      </trkpt>
      <trkpt lat="44.48544" lon="3.47763">
        <ele>925.633353</ele>
        <time>2019-10-07T14:14:24.775Z</time>
      </trkpt>
      <trkpt lat="44.48537" lon="3.47839">
        <ele>931.079338</ele>
        <time>2019-10-07T14:15:13.755Z</time>
      </trkpt>
      <trkpt lat="44.4856" lon="3.47882">
        <ele>934.853265</ele>
        <time>2019-10-07T14:15:47.262Z</time>
      </trkpt>
      <trkpt lat="44.48577" lon="3.47993">
        <ele>942.687345</ele>
        <time>2019-10-07T14:16:57.985Z</time>
      </trkpt>
      <trkpt lat="44.48552" lon="3.48078">
        <ele>947.46692</ele>
        <time>2019-10-07T14:17:51.211Z</time>
      </trkpt>
      <trkpt lat="44.48546" lon="3.48158">
        <ele>951.622757</ele>
        <time>2019-10-07T14:18:32.228Z</time>
      </trkpt>
      <trkpt lat="44.48563" lon="3.48208">
        <ele>954.53278</ele>
        <time>2019-10-07T14:18:58.088Z</time>
      </trkpt>
      <trkpt lat="44.48588" lon="3.48283">
        <ele>956.923424</ele>
        <time>2019-10-07T14:19:32.257Z</time>
      </trkpt>
      <trkpt lat="44.48622" lon="3.48331">
        <ele>958.672871</ele>
        <time>2019-10-07T14:19:58.259Z</time>
      </trkpt>
      <trkpt lat="44.48672" lon="3.48364">
        <ele>960.686606</ele>
        <time>2019-10-07T14:20:26.419Z</time>
      </trkpt>
      <trkpt lat="44.48703" lon="3.48459">
        <ele>963.547418</ele>
        <time>2019-10-07T14:21:06.061Z</time>
      </trkpt>
      <trkpt lat="44.48746" lon="3.48505">
        <ele>965.689209</ele>
        <time>2019-10-07T14:21:36.733Z</time>
      </trkpt>
      <trkpt lat="44.48795" lon="3.48518">
        <ele>967.644469</ele>
        <time>2019-10-07T14:22:06.757Z</time>
      </trkpt>
      <trkpt lat="44.4889" lon="3.48624">
        <ele>973.031013</ele>
        <time>2019-10-07T14:23:19.442Z</time>
      </trkpt>
      <trkpt lat="44.48896" lon="3.48637">
        <ele>973.514982</ele>
        <time>2019-10-07T14:23:26.878Z</time>
      </trkpt>
      <trkpt lat="44.48915" lon="3.48681">
        <ele>975.195997</ele>
        <time>2019-10-07T14:23:48.388Z</time>
      </trkpt>
      <trkpt lat="44.48993" lon="3.48769">
        <ele>979.866362</ele>
        <time>2019-10-07T14:24:47.790Z</time>
      </trkpt>
      <trkpt lat="44.4904" lon="3.48859">
        <ele>983.620682</ele>
        <time>2019-10-07T14:25:36.261Z</time>
      </trkpt>
      <trkpt lat="44.49137" lon="3.48953">
        <ele>989.090357</ele>
        <time>2019-10-07T14:26:49.675Z</time>
      </trkpt>
      <trkpt lat="44.49178" lon="3.49005">
        <ele>991.661878</ele>
        <time>2019-10-07T14:27:23.073Z</time>
      </trkpt>
      <trkpt lat="44.49229" lon="3.49115">
        <ele>995.445357</ele>
        <time>2019-10-07T14:28:16.472Z</time>
      </trkpt>
      <trkpt lat="44.4926" lon="3.49129">
        <ele>996.591507</ele>
        <time>2019-10-07T14:28:33.635Z</time>
      </trkpt>
      <trkpt lat="44.49279" lon="3.49152">
        <ele>997.52147</ele>
        <time>2019-10-07T14:28:47.705Z</time>
      </trkpt>
      <trkpt lat="44.4928" lon="3.49182">
        <ele>998.286105</ele>
        <time>2019-10-07T14:28:59.420Z</time>
      </trkpt>
      <trkpt lat="44.49274" lon="3.49231">
        <ele>999.577455</ele>
        <time>2019-10-07T14:29:19.565Z</time>
      </trkpt>
      <trkpt lat="44.49298" lon="3.49307">
        <ele>1000.975803</ele>
        <time>2019-10-07T14:29:50.799Z</time>
      </trkpt>
      <trkpt lat="44.49293" lon="3.49372">
        <ele>1001.914809</ele>
        <time>2019-10-07T14:30:13.656Z</time>
      </trkpt>
      <trkpt lat="44.49299" lon="3.49399">
        <ele>1002.326043</ele>
        <time>2019-10-07T14:30:22.216Z</time>
      </trkpt>
      <trkpt lat="44.49347" lon="3.49455">
        <ele>1003.584608</ele>
        <time>2019-10-07T14:30:49.626Z</time>
      </trkpt>
      <trkpt lat="44.49355" lon="3.49441">
        <ele>1003.903393</ele>
        <time>2019-10-07T14:30:53.597Z</time>
      </trkpt>
      <trkpt lat="44.49356" lon="3.49396">
        <ele>1004.749047</ele>
        <time>2019-10-07T14:31:08.409Z</time>
      </trkpt>
      <trkpt lat="44.49362" lon="3.4938">
        <ele>1005.07856</ele>
        <time>2019-10-07T14:31:15.006Z</time>
      </trkpt>
      <trkpt lat="44.49401" lon="3.49327">
        <ele>1006.532104</ele>
        <time>2019-10-07T14:31:42.187Z</time>
      </trkpt>
      <trkpt lat="44.49406" lon="3.49322">
        <ele>1006.686459</ele>
        <time>2019-10-07T14:31:43.810Z</time>
      </trkpt>
      <trkpt lat="44.49421" lon="3.49308">
        <ele>1007.170159</ele>
        <time>2019-10-07T14:31:55.357Z</time>
      </trkpt>
      <trkpt lat="44.49488" lon="3.49295">
        <ele>1009.747703</ele>
        <time>2019-10-07T14:32:32.861Z</time>
      </trkpt>
      <trkpt lat="44.49561" lon="3.4934">
        <ele>1014.911408</ele>
        <time>2019-10-07T14:33:29.930Z</time>
      </trkpt>
      <trkpt lat="44.49624" lon="3.49402">
        <ele>1020.005041</ele>
        <time>2019-10-07T14:34:28.643Z</time>
      </trkpt>
      <trkpt lat="44.49666" lon="3.49427">
        <ele>1022.309804</ele>
        <time>2019-10-07T14:35:00.991Z</time>
      </trkpt>
      <trkpt lat="44.49693" lon="3.49453">
        <ele>1023.981868</ele>
        <time>2019-10-07T14:35:23.589Z</time>
      </trkpt>
      <trkpt lat="44.4973" lon="3.4947">
        <ele>1025.942107</ele>
        <time>2019-10-07T14:35:48.609Z</time>
      </trkpt>
      <trkpt lat="44.49797" lon="3.49521">
        <ele>1029.382023</ele>
        <time>2019-10-07T14:36:29.358Z</time>
      </trkpt>
      <trkpt lat="44.49852" lon="3.49521">
        <ele>1029.953466</ele>
        <time>2019-10-07T14:36:52.951Z</time>
      </trkpt>
      <trkpt lat="44.49875" lon="3.49531">
        <ele>1030.214618</ele>
        <time>2019-10-07T14:37:03.077Z</time>
      </trkpt>
      <trkpt lat="44.49925" lon="3.49551">
        <ele>1030.758562</ele>
        <time>2019-10-07T14:37:22.617Z</time>
      </trkpt>
      <trkpt lat="44.49989" lon="3.49562">
        <ele>1031.566644</ele>
        <time>2019-10-07T14:37:47.596Z</time>
      </trkpt>
      <trkpt lat="44.50014" lon="3.49555">
        <ele>1031.957183</ele>
        <time>2019-10-07T14:37:57.687Z</time>
      </trkpt>
      <trkpt lat="44.50018" lon="3.49545">
        <ele>1032.08907</ele>
        <time>2019-10-07T14:38:01.093Z</time>
      </trkpt>
      <trkpt lat="44.50018" lon="3.49513">
        <ele>1032.442207</ele>
        <time>2019-10-07T14:38:10.421Z</time>
      </trkpt>
      <trkpt lat="44.49994" lon="3.49477">
        <ele>1032.996324</ele>
        <time>2019-10-07T14:38:26.616Z</time>
      </trkpt>
      <trkpt lat="44.49972" lon="3.49376">
        <ele>1034.178428</ele>
        <time>2019-10-07T14:39:06.005Z</time>
      </trkpt>
      <trkpt lat="44.49977" lon="3.49319">
        <ele>1034.845054</ele>
        <time>2019-10-07T14:39:25.672Z</time>
      </trkpt>
      <trkpt lat="44.50012" lon="3.49256">
        <ele>1035.780867</ele>
        <time>2019-10-07T14:39:51.086Z</time>
      </trkpt>
      <trkpt lat="44.5002" lon="3.49248">
        <ele>1035.939023</ele>
        <time>2019-10-07T14:39:57.010Z</time>
      </trkpt>
      <trkpt lat="44.50029" lon="3.49267">
        <ele>1036.194588</ele>
        <time>2019-10-07T14:40:02.463Z</time>
      </trkpt>
      <trkpt lat="44.50033" lon="3.49288">
        <ele>1036.449181</ele>
        <time>2019-10-07T14:40:09.920Z</time>
      </trkpt>
      <trkpt lat="44.50032" lon="3.49378">
        <ele>1037.40727</ele>
        <time>2019-10-07T14:40:35.026Z</time>
      </trkpt>
      <trkpt lat="44.50039" lon="3.49413">
        <ele>1037.776971</ele>
        <time>2019-10-07T14:40:45.777Z</time>
      </trkpt>
      <trkpt lat="44.50054" lon="3.49443">
        <ele>1038.145379</ele>
        <time>2019-10-07T14:40:57.564Z</time>
      </trkpt>
      <trkpt lat="44.50096" lon="3.49474">
        <ele>1038.802916</ele>
        <time>2019-10-07T14:41:16.250Z</time>
      </trkpt>
      <trkpt lat="44.50121" lon="3.49561">
        <ele>1040.301194</ele>
        <time>2019-10-07T14:41:49.522Z</time>
      </trkpt>
      <trkpt lat="44.50128" lon="3.49623">
        <ele>1042.083015</ele>
        <time>2019-10-07T14:42:14.962Z</time>
      </trkpt>
      <trkpt lat="44.50144" lon="3.49674">
        <ele>1043.643991</ele>
        <time>2019-10-07T14:42:39.924Z</time>
      </trkpt>
      <trkpt lat="44.50154" lon="3.49758">
        <ele>1046.062105</ele>
        <time>2019-10-07T14:43:16.241Z</time>
      </trkpt>
      <trkpt lat="44.50146" lon="3.49828">
        <ele>1047.137475</ele>
        <time>2019-10-07T14:43:45.479Z</time>
      </trkpt>
      <trkpt lat="44.50148" lon="3.49858">
        <ele>1047.461332</ele>
        <time>2019-10-07T14:43:56.176Z</time>
      </trkpt>
      <trkpt lat="44.5015" lon="3.49865">
        <ele>1047.541463</ele>
        <time>2019-10-07T14:44:00.334Z</time>
      </trkpt>
      <trkpt lat="44.50154" lon="3.49875">
        <ele>1047.6606</ele>
        <time>2019-10-07T14:44:03.524Z</time>
      </trkpt>
      <trkpt lat="44.50173" lon="3.49895">
        <ele>1048.013652</ele>
        <time>2019-10-07T14:44:14.350Z</time>
      </trkpt>
      <trkpt lat="44.50218" lon="3.4991">
        <ele>1048.709494</ele>
        <time>2019-10-07T14:44:33.749Z</time>
      </trkpt>
      <trkpt lat="44.50249" lon="3.49969">
        <ele>1048.918329</ele>
        <time>2019-10-07T14:44:51.164Z</time>
      </trkpt>
      <trkpt lat="44.50295" lon="3.49983">
        <ele>1047.833947</ele>
        <time>2019-10-07T14:45:06.367Z</time>
      </trkpt>
      <trkpt lat="44.50316" lon="3.49997">
        <ele>1047.308377</ele>
        <time>2019-10-07T14:45:13.431Z</time>
      </trkpt>
      <trkpt lat="44.50329" lon="3.50017">
        <ele>1046.865191</ele>
        <time>2019-10-07T14:45:19.471Z</time>
      </trkpt>
      <trkpt lat="44.50337" lon="3.50028">
        <ele>1046.613978</ele>
        <time>2019-10-07T14:45:22.731Z</time>
      </trkpt>
      <trkpt lat="44.50355" lon="3.50064">
        <ele>1045.894997</ele>
        <time>2019-10-07T14:45:32.610Z</time>
      </trkpt>
      <trkpt lat="44.50371" lon="3.50164">
        <ele>1044.687128</ele>
        <time>2019-10-07T14:45:56.165Z</time>
      </trkpt>
      <trkpt lat="44.50366" lon="3.50241">
        <ele>1044.06903</ele>
        <time>2019-10-07T14:46:14.722Z</time>
      </trkpt>
      <trkpt lat="44.50364" lon="3.50277">
        <ele>1043.781686</ele>
        <time>2019-10-07T14:46:24.133Z</time>
      </trkpt>
      <trkpt lat="44.50368" lon="3.50324">
        <ele>1043.401841</ele>
        <time>2019-10-07T14:46:36.518Z</time>
      </trkpt>
      <trkpt lat="44.50387" lon="3.50422">
        <ele>1042.704845</ele>
        <time>2019-10-07T14:47:02.987Z</time>
      </trkpt>
      <trkpt lat="44.50389" lon="3.50455">
        <ele>1042.503093</ele>
        <time>2019-10-07T14:47:11.351Z</time>
      </trkpt>
      <trkpt lat="44.50391" lon="3.50493">
        <ele>1042.263978</ele>
        <time>2019-10-07T14:47:21.211Z</time>
      </trkpt>
      <trkpt lat="44.50397" lon="3.50518">
        <ele>1042.098679</ele>
        <time>2019-10-07T14:47:27.854Z</time>
      </trkpt>
      <trkpt lat="44.50411" lon="3.50549">
        <ele>1041.874029</ele>
        <time>2019-10-07T14:47:36.640Z</time>
      </trkpt>
      <trkpt lat="44.50428" lon="3.5057">
        <ele>1041.678574</ele>
        <time>2019-10-07T14:47:44.158Z</time>
      </trkpt>
      <trkpt lat="44.50469" lon="3.50595">
        <ele>1040.884514</ele>
        <time>2019-10-07T14:47:58.551Z</time>
      </trkpt>
      <trkpt lat="44.50487" lon="3.5062">
        <ele>1040.336606</ele>
        <time>2019-10-07T14:48:06.973Z</time>
      </trkpt>
      <trkpt lat="44.50499" lon="3.50644">
        <ele>1039.887624</ele>
        <time>2019-10-07T14:48:13.494Z</time>
      </trkpt>
      <trkpt lat="44.50506" lon="3.50713">
        <ele>1038.795903</ele>
        <time>2019-10-07T14:48:29.788Z</time>
      </trkpt>
      <trkpt lat="44.50511" lon="3.5072">
        <ele>1038.651018</ele>
        <time>2019-10-07T14:48:31.996Z</time>
      </trkpt>
      <trkpt lat="44.50517" lon="3.50724">
        <ele>1038.512871</ele>
        <time>2019-10-07T14:48:33.789Z</time>
      </trkpt>
      <trkpt lat="44.50512" lon="3.5071">
        <ele>1038.28512</ele>
        <time>2019-10-07T14:48:35.760Z</time>
      </trkpt>
      <trkpt lat="44.50512" lon="3.50702">
        <ele>1038.156168</ele>
        <time>2019-10-07T14:48:36.876Z</time>
      </trkpt>
      <trkpt lat="44.50519" lon="3.50666">
        <ele>1037.553191</ele>
        <time>2019-10-07T14:48:45.321Z</time>
      </trkpt>
      <trkpt lat="44.50526" lon="3.50646">
        <ele>1037.085946</ele>
        <time>2019-10-07T14:48:50.407Z</time>
      </trkpt>
      <trkpt lat="44.50526" lon="3.50626">
        <ele>1036.651125</ele>
        <time>2019-10-07T14:48:54.785Z</time>
      </trkpt>
      <trkpt lat="44.50531" lon="3.50618">
        <ele>1036.425039</ele>
        <time>2019-10-07T14:48:57.255Z</time>
      </trkpt>
      <trkpt lat="44.50536" lon="3.50607">
        <ele>1036.144606</ele>
        <time>2019-10-07T14:49:00.254Z</time>
      </trkpt>
      <trkpt lat="44.50534" lon="3.5059">
        <ele>1035.773077</ele>
        <time>2019-10-07T14:49:04.228Z</time>
      </trkpt>
      <trkpt lat="44.50539" lon="3.50564">
        <ele>1035.193417</ele>
        <time>2019-10-07T14:49:10.127Z</time>
      </trkpt>
      <trkpt lat="44.5053" lon="3.50533">
        <ele>1034.466517</ele>
        <time>2019-10-07T14:49:17.527Z</time>
      </trkpt>
      <trkpt lat="44.50539" lon="3.5043">
        <ele>1032.25132</ele>
        <time>2019-10-07T14:49:40.320Z</time>
      </trkpt>
      <trkpt lat="44.50515" lon="3.50391">
        <ele>1030.557714</ele>
        <time>2019-10-07T14:49:51.446Z</time>
      </trkpt>
      <trkpt lat="44.50507" lon="3.50357">
        <ele>1029.407137</ele>
        <time>2019-10-07T14:49:58.774Z</time>
      </trkpt>
      <trkpt lat="44.50511" lon="3.5034">
        <ele>1028.82127</ele>
        <time>2019-10-07T14:50:02.542Z</time>
      </trkpt>
      <trkpt lat="44.50524" lon="3.50324">
        <ele>1028.000144</ele>
        <time>2019-10-07T14:50:07.741Z</time>
      </trkpt>
      <trkpt lat="44.50582" lon="3.50223">
        <ele>1023.759553</ele>
        <time>2019-10-07T14:50:34.282Z</time>
      </trkpt>
      <trkpt lat="44.50584" lon="3.50221">
        <ele>1023.629482</ele>
        <time>2019-10-07T14:50:34.987Z</time>
      </trkpt>
      <trkpt lat="44.50616" lon="3.50176">
        <ele>1021.41934</ele>
        <time>2019-10-07T14:50:48.001Z</time>
      </trkpt>
      <trkpt lat="44.50661" lon="3.50141">
        <ele>1018.864775</ele>
        <time>2019-10-07T14:51:02.714Z</time>
      </trkpt>
      <trkpt lat="44.50659" lon="3.50128">
        <ele>1018.40508</ele>
        <time>2019-10-07T14:51:05.408Z</time>
      </trkpt>
      <trkpt lat="44.50676" lon="3.50117">
        <ele>1017.449296</ele>
        <time>2019-10-07T14:51:10.861Z</time>
      </trkpt>
      <trkpt lat="44.50679" lon="3.50097">
        <ele>1016.763911</ele>
        <time>2019-10-07T14:51:14.959Z</time>
      </trkpt>
      <trkpt lat="44.50672" lon="3.50082">
        <ele>1016.126584</ele>
        <time>2019-10-07T14:51:18.689Z</time>
      </trkpt>
      <trkpt lat="44.50672" lon="3.50065">
        <ele>1015.542337</ele>
        <time>2019-10-07T14:51:22.112Z</time>
      </trkpt>
      <trkpt lat="44.50686" lon="3.50056">
        <ele>1015.248898</ele>
        <time>2019-10-07T14:51:26.871Z</time>
      </trkpt>
      <trkpt lat="44.50719" lon="3.50053">
        <ele>1015.816991</ele>
        <time>2019-10-07T14:51:37.320Z</time>
      </trkpt>
      <trkpt lat="44.50735" lon="3.50042">
        <ele>1016.116084</ele>
        <time>2019-10-07T14:51:43.758Z</time>
      </trkpt>
      <trkpt lat="44.50751" lon="3.5004">
        <ele>1016.389269</ele>
        <time>2019-10-07T14:51:49.387Z</time>
      </trkpt>
      <trkpt lat="44.50768" lon="3.50054">
        <ele>1016.725848</ele>
        <time>2019-10-07T14:51:58.056Z</time>
      </trkpt>
      <trkpt lat="44.5078" lon="3.50048">
        <ele>1016.937323</ele>
        <time>2019-10-07T14:52:02.966Z</time>
      </trkpt>
      <trkpt lat="44.50802" lon="3.49987">
        <ele>1017.776488</ele>
        <time>2019-10-07T14:52:33.024Z</time>
      </trkpt>
      <trkpt lat="44.50821" lon="3.49959">
        <ele>1018.381963</ele>
        <time>2019-10-07T14:52:51.739Z</time>
      </trkpt>
      <trkpt lat="44.50837" lon="3.49938">
        <ele>1020.54338</ele>
        <time>2019-10-07T14:53:08.564Z</time>
      </trkpt>
      <trkpt lat="44.50852" lon="3.49917">
        <ele>1022.61992</ele>
        <time>2019-10-07T14:53:24.791Z</time>
      </trkpt>
      <trkpt lat="44.50854" lon="3.49906">
        <ele>1023.381451</ele>
        <time>2019-10-07T14:53:31.987Z</time>
      </trkpt>
      <trkpt lat="44.50848" lon="3.49877">
        <ele>1025.529709</ele>
        <time>2019-10-07T14:53:51.147Z</time>
      </trkpt>
      <trkpt lat="44.50839" lon="3.49848">
        <ele>1027.707186</ele>
        <time>2019-10-07T14:54:12.313Z</time>
      </trkpt>
      <trkpt lat="44.50839" lon="3.49848">
        <ele>1027.707186</ele>
        <time>2019-10-07T14:54:12.641Z</time>
      </trkpt>
      <trkpt lat="44.50836" lon="3.49837">
        <ele>1028.475894</ele>
        <time>2019-10-07T14:54:19.131Z</time>
      </trkpt>
      <trkpt lat="44.50834" lon="3.49812">
        <ele>1030.260442</ele>
        <time>2019-10-07T14:54:35.684Z</time>
      </trkpt>
      <trkpt lat="44.50871" lon="3.49693">
        <ele>1038.805157</ele>
        <time>2019-10-07T14:56:01.298Z</time>
      </trkpt>
      <trkpt lat="44.50888" lon="3.49658">
        <ele>1041.405603</ele>
        <time>2019-10-07T14:56:28.899Z</time>
      </trkpt>
      <trkpt lat="44.50894" lon="3.49635">
        <ele>1042.93275</ele>
        <time>2019-10-07T14:56:42.461Z</time>
      </trkpt>
      <trkpt lat="44.5092" lon="3.49608">
        <ele>1045.658128</ele>
        <time>2019-10-07T14:57:06.444Z</time>
      </trkpt>
      <trkpt lat="44.50927" lon="3.49589">
        <ele>1046.952335</ele>
        <time>2019-10-07T14:57:17.956Z</time>
      </trkpt>
      <trkpt lat="44.51024" lon="3.49453">
        <ele>1054.165106</ele>
        <time>2019-10-07T14:58:53.533Z</time>
      </trkpt>
      <trkpt lat="44.51021" lon="3.49419">
        <ele>1055.011024</ele>
        <time>2019-10-07T14:59:05.455Z</time>
      </trkpt>
      <trkpt lat="44.5101" lon="3.49355">
        <ele>1056.668558</ele>
        <time>2019-10-07T14:59:26.548Z</time>
      </trkpt>
      <trkpt lat="44.51003" lon="3.49337">
        <ele>1057.175699</ele>
        <time>2019-10-07T14:59:29.451Z</time>
      </trkpt>
      <trkpt lat="44.50989" lon="3.49298">
        <ele>1056.024502</ele>
        <time>2019-10-07T14:59:39.791Z</time>
      </trkpt>
      <trkpt lat="44.50985" lon="3.49234">
        <ele>1053.821613</ele>
        <time>2019-10-07T14:59:53.848Z</time>
      </trkpt>
      <trkpt lat="44.5098" lon="3.49214">
        <ele>1053.063306</ele>
        <time>2019-10-07T14:59:58.545Z</time>
      </trkpt>
      <trkpt lat="44.50985" lon="3.4914">
        <ele>1050.538493</ele>
        <time>2019-10-07T15:00:13.007Z</time>
      </trkpt>
      <trkpt lat="44.50998" lon="3.49074">
        <ele>1047.815691</ele>
        <time>2019-10-07T15:00:26.116Z</time>
      </trkpt>
      <trkpt lat="44.50977" lon="3.48986">
        <ele>1042.171649</ele>
        <time>2019-10-07T15:00:43.790Z</time>
      </trkpt>
      <trkpt lat="44.50989" lon="3.48934">
        <ele>1038.852963</ele>
        <time>2019-10-07T15:00:54.085Z</time>
      </trkpt>
      <trkpt lat="44.50994" lon="3.48926">
        <ele>1038.165717</ele>
        <time>2019-10-07T15:00:56.215Z</time>
      </trkpt>
      <trkpt lat="44.50994" lon="3.48926">
        <ele>1038.165717</ele>
        <time>2019-10-07T15:00:56.233Z</time>
      </trkpt>
      <trkpt lat="44.50994" lon="3.48926">
        <ele>1038.165717</ele>
        <time>2019-10-07T15:00:56.233Z</time>
      </trkpt>
      <trkpt lat="44.50991" lon="3.48923">
        <ele>1037.856485</ele>
        <time>2019-10-07T15:00:57.175Z</time>
      </trkpt>
      <trkpt lat="44.51012" lon="3.48889">
        <ele>1035.188749</ele>
        <time>2019-10-07T15:01:05.306Z</time>
      </trkpt>
      <trkpt lat="44.51012" lon="3.48873">
        <ele>1034.210231</ele>
        <time>2019-10-07T15:01:08.294Z</time>
      </trkpt>
      <trkpt lat="44.50994" lon="3.48822">
        <ele>1030.463392</ele>
        <time>2019-10-07T15:01:18.783Z</time>
      </trkpt>
      <trkpt lat="44.50992" lon="3.48794">
        <ele>1028.527598</ele>
        <time>2019-10-07T15:01:24.054Z</time>
      </trkpt>
      <trkpt lat="44.50974" lon="3.48739">
        <ele>1024.397235</ele>
        <time>2019-10-07T15:01:35.302Z</time>
      </trkpt>
      <trkpt lat="44.50975" lon="3.48718">
        <ele>1022.951778</ele>
        <time>2019-10-07T15:01:39.240Z</time>
      </trkpt>
      <trkpt lat="44.50984" lon="3.4871">
        <ele>1021.948213</ele>
        <time>2019-10-07T15:01:41.968Z</time>
      </trkpt>
      <trkpt lat="44.50999" lon="3.48696">
        <ele>1020.195946</ele>
        <time>2019-10-07T15:01:46.731Z</time>
      </trkpt>
      <trkpt lat="44.51001" lon="3.48702">
        <ele>1019.75708</ele>
        <time>2019-10-07T15:01:47.926Z</time>
      </trkpt>
      <trkpt lat="44.50993" lon="3.48738">
        <ele>1017.198555</ele>
        <time>2019-10-07T15:01:54.896Z</time>
      </trkpt>
      <trkpt lat="44.50998" lon="3.4876">
        <ele>1015.508123</ele>
        <time>2019-10-07T15:01:59.334Z</time>
      </trkpt>
      <trkpt lat="44.51007" lon="3.48767">
        <ele>1014.440092</ele>
        <time>2019-10-07T15:02:01.957Z</time>
      </trkpt>
      <trkpt lat="44.51014" lon="3.4877">
        <ele>1013.66229</ele>
        <time>2019-10-07T15:02:03.866Z</time>
      </trkpt>
      <trkpt lat="44.51023" lon="3.48773">
        <ele>1012.673909</ele>
        <time>2019-10-07T15:02:06.293Z</time>
      </trkpt>
      <trkpt lat="44.51028" lon="3.48779">
        <ele>1012.006896</ele>
        <time>2019-10-07T15:02:07.932Z</time>
      </trkpt>
      <trkpt lat="44.5103" lon="3.48811">
        <ele>1009.585775</ele>
        <time>2019-10-07T15:02:13.896Z</time>
      </trkpt>
      <trkpt lat="44.51046" lon="3.48865">
        <ele>1005.164503</ele>
        <time>2019-10-07T15:02:24.781Z</time>
      </trkpt>
      <trkpt lat="44.51046" lon="3.48972">
        <ele>997.083318</ele>
        <time>2019-10-07T15:02:44.681Z</time>
      </trkpt>
      <trkpt lat="44.51062" lon="3.49044">
        <ele>990.619717</ele>
        <time>2019-10-07T15:02:58.607Z</time>
      </trkpt>
      <trkpt lat="44.5106" lon="3.4907">
        <ele>988.371372</ele>
        <time>2019-10-07T15:03:03.454Z</time>
      </trkpt>
      <trkpt lat="44.51061" lon="3.49087">
        <ele>986.845199</ele>
        <time>2019-10-07T15:03:06.745Z</time>
      </trkpt>
      <trkpt lat="44.51062" lon="3.49095">
        <ele>986.134211</ele>
        <time>2019-10-07T15:03:08.278Z</time>
      </trkpt>
      <trkpt lat="44.51062" lon="3.49099">
        <ele>985.814846</ele>
        <time>2019-10-07T15:03:08.967Z</time>
      </trkpt>
      <trkpt lat="44.51063" lon="3.49111">
        <ele>984.800084</ele>
        <time>2019-10-07T15:03:11.155Z</time>
      </trkpt>
      <trkpt lat="44.5108" lon="3.49149">
        <ele>980.976353</ele>
        <time>2019-10-07T15:03:19.395Z</time>
      </trkpt>
      <trkpt lat="44.51084" lon="3.49203">
        <ele>976.242172</ele>
        <time>2019-10-07T15:03:29.610Z</time>
      </trkpt>
      <trkpt lat="44.51088" lon="3.4921">
        <ele>975.445284</ele>
        <time>2019-10-07T15:03:31.327Z</time>
      </trkpt>
      <trkpt lat="44.51089" lon="3.49205">
        <ele>974.909351</ele>
        <time>2019-10-07T15:03:32.354Z</time>
      </trkpt>
      <trkpt lat="44.51093" lon="3.49146">
        <ele>969.049249</ele>
        <time>2019-10-07T15:03:43.383Z</time>
      </trkpt>
      <trkpt lat="44.51087" lon="3.49083">
        <ele>962.738213</ele>
        <time>2019-10-07T15:03:55.265Z</time>
      </trkpt>
      <trkpt lat="44.5109" lon="3.48975">
        <ele>952.102576</ele>
        <time>2019-10-07T15:04:15.305Z</time>
      </trkpt>
      <trkpt lat="44.51101" lon="3.48879">
        <ele>941.446249</ele>
        <time>2019-10-07T15:04:33.397Z</time>
      </trkpt>
      <trkpt lat="44.51103" lon="3.48875">
        <ele>940.860683</ele>
        <time>2019-10-07T15:04:34.371Z</time>
      </trkpt>
      <trkpt lat="44.51105" lon="3.48879">
        <ele>940.32132</ele>
        <time>2019-10-07T15:04:35.267Z</time>
      </trkpt>
      <trkpt lat="44.51116" lon="3.48959">
        <ele>931.138991</ele>
        <time>2019-10-07T15:04:50.546Z</time>
      </trkpt>
      <trkpt lat="44.51122" lon="3.48984">
        <ele>928.226744</ele>
        <time>2019-10-07T15:04:55.394Z</time>
      </trkpt>
      <trkpt lat="44.51128" lon="3.48995">
        <ele>926.727613</ele>
        <time>2019-10-07T15:04:57.888Z</time>
      </trkpt>
      <trkpt lat="44.5114" lon="3.49014">
        <ele>923.837205</ele>
        <time>2019-10-07T15:05:02.695Z</time>
      </trkpt>
      <trkpt lat="44.51145" lon="3.49069">
        <ele>917.113898</ele>
        <time>2019-10-07T15:05:13.025Z</time>
      </trkpt>
      <trkpt lat="44.51169" lon="3.49135">
        <ele>907.733919</ele>
        <time>2019-10-07T15:05:27.019Z</time>
      </trkpt>
      <trkpt lat="44.51192" lon="3.49157">
        <ele>902.876545</ele>
        <time>2019-10-07T15:05:34.258Z</time>
      </trkpt>
      <trkpt lat="44.51218" lon="3.49205">
        <ele>895.363286</ele>
        <time>2019-10-07T15:05:45.472Z</time>
      </trkpt>
      <trkpt lat="44.51241" lon="3.49222">
        <ele>890.758349</ele>
        <time>2019-10-07T15:05:52.337Z</time>
      </trkpt>
      <trkpt lat="44.51288" lon="3.49286">
        <ele>878.363747</ele>
        <time>2019-10-07T15:06:09.474Z</time>
      </trkpt>
      <trkpt lat="44.51322" lon="3.49361">
        <ele>866.259094</ele>
        <time>2019-10-07T15:06:26.205Z</time>
      </trkpt>
      <trkpt lat="44.51337" lon="3.49405">
        <ele>859.580562</ele>
        <time>2019-10-07T15:06:35.445Z</time>
      </trkpt>
      <trkpt lat="44.51342" lon="3.49403">
        <ele>858.566513</ele>
        <time>2019-10-07T15:06:36.848Z</time>
      </trkpt>
      <trkpt lat="44.5134" lon="3.49387">
        <ele>856.429002</ele>
        <time>2019-10-07T15:06:39.806Z</time>
      </trkpt>
      <trkpt lat="44.5134" lon="3.49377">
        <ele>854.833394</ele>
        <time>2019-10-07T15:06:41.830Z</time>
      </trkpt>
      <trkpt lat="44.51345" lon="3.4938">
        <ele>853.769081</ele>
        <time>2019-10-07T15:06:43.170Z</time>
      </trkpt>
      <trkpt lat="44.51356" lon="3.49404">
        <ele>849.446195</ele>
        <time>2019-10-07T15:06:48.636Z</time>
      </trkpt>
      <trkpt lat="44.51358" lon="3.49413">
        <ele>847.944637</ele>
        <time>2019-10-07T15:06:50.527Z</time>
      </trkpt>
      <trkpt lat="44.51359" lon="3.49432">
        <ele>845.148848</ele>
        <time>2019-10-07T15:06:54.064Z</time>
      </trkpt>
      <trkpt lat="44.51378" lon="3.49457">
        <ele>839.6336</ele>
        <time>2019-10-07T15:07:00.990Z</time>
      </trkpt>
      <trkpt lat="44.5139" lon="3.49479">
        <ele>835.429383</ele>
        <time>2019-10-07T15:07:06.337Z</time>
      </trkpt>
      <trkpt lat="44.51398" lon="3.49499">
        <ele>832.15627</ele>
        <time>2019-10-07T15:07:10.433Z</time>
      </trkpt>
      <trkpt lat="44.51407" lon="3.49528">
        <ele>827.487781</ele>
        <time>2019-10-07T15:07:16.415Z</time>
      </trkpt>
      <trkpt lat="44.51406" lon="3.49553">
        <ele>823.724573</ele>
        <time>2019-10-07T15:07:21.123Z</time>
      </trkpt>
      <trkpt lat="44.51373" lon="3.4963">
        <ele>809.531652</ele>
        <time>2019-10-07T15:07:38.183Z</time>
      </trkpt>
      <trkpt lat="44.51369" lon="3.49637">
        <ele>808.045995</ele>
        <time>2019-10-07T15:07:39.867Z</time>
      </trkpt>
      <trkpt lat="44.51368" lon="3.49639">
        <ele>807.646868</ele>
        <time>2019-10-07T15:07:40.327Z</time>
      </trkpt>
      <trkpt lat="44.51364" lon="3.49651">
        <ele>805.419724</ele>
        <time>2019-10-07T15:07:42.640Z</time>
      </trkpt>
      <trkpt lat="44.51377" lon="3.49632">
        <ele>801.106658</ele>
        <time>2019-10-07T15:07:47.003Z</time>
      </trkpt>
      <trkpt lat="44.51378" lon="3.49632">
        <ele>800.879005</ele>
        <time>2019-10-07T15:07:47.877Z</time>
      </trkpt>
      <trkpt lat="44.51379" lon="3.49632">
        <ele>800.602938</ele>
        <time>2019-10-07T15:07:48.288Z</time>
      </trkpt>
      <trkpt lat="44.51393" lon="3.49636">
        <ele>797.348365</ele>
        <time>2019-10-07T15:07:51.599Z</time>
      </trkpt>
      <trkpt lat="44.51443" lon="3.49648">
        <ele>785.641805</ele>
        <time>2019-10-07T15:08:03.454Z</time>
      </trkpt>
      <trkpt lat="44.51447" lon="3.49651">
        <ele>784.659775</ele>
        <time>2019-10-07T15:08:04.467Z</time>
      </trkpt>
      <trkpt lat="44.51455" lon="3.49656">
        <ele>782.60388</ele>
        <time>2019-10-07T15:08:06.613Z</time>
      </trkpt>
      <trkpt lat="44.51465" lon="3.49658">
        <ele>780.189242</ele>
        <time>2019-10-07T15:08:09.053Z</time>
      </trkpt>
      <trkpt lat="44.51491" lon="3.49663">
        <ele>775.612495</ele>
        <time>2019-10-07T15:08:12.557Z</time>
      </trkpt>
      <trkpt lat="44.51498" lon="3.49669">
        <ele>774.34462</ele>
        <time>2019-10-07T15:08:13.770Z</time>
      </trkpt>
      <trkpt lat="44.51512" lon="3.49684">
        <ele>771.88123</ele>
        <time>2019-10-07T15:08:16.112Z</time>
      </trkpt>
      <trkpt lat="44.51521" lon="3.49697">
        <ele>769.996843</ele>
        <time>2019-10-07T15:08:17.899Z</time>
      </trkpt>
      <trkpt lat="44.51541" lon="3.49726">
        <ele>765.759985</ele>
        <time>2019-10-07T15:08:21.973Z</time>
      </trkpt>
      <trkpt lat="44.51546" lon="3.49736">
        <ele>764.535082</ele>
        <time>2019-10-07T15:08:23.235Z</time>
      </trkpt>
      <trkpt lat="44.51557" lon="3.49757">
        <ele>761.833749</ele>
        <time>2019-10-07T15:08:25.935Z</time>
      </trkpt>
      <trkpt lat="44.51569" lon="3.49803">
        <ele>756.757872</ele>
        <time>2019-10-07T15:08:30.988Z</time>
      </trkpt>
      <trkpt lat="44.5157" lon="3.49846">
        <ele>752.355404</ele>
        <time>2019-10-07T15:08:35.733Z</time>
      </trkpt>
      <trkpt lat="44.51571" lon="3.4985">
        <ele>751.913676</ele>
        <time>2019-10-07T15:08:36.166Z</time>
      </trkpt>
      <trkpt lat="44.51573" lon="3.49857">
        <ele>751.553309</ele>
        <time>2019-10-07T15:08:36.975Z</time>
      </trkpt>
      <trkpt lat="44.51578" lon="3.49866">
        <ele>751.207334</ele>
        <time>2019-10-07T15:08:38.366Z</time>
      </trkpt>
      <trkpt lat="44.51584" lon="3.49869">
        <ele>750.973417</ele>
        <time>2019-10-07T15:08:39.296Z</time>
      </trkpt>
      <trkpt lat="44.51584" lon="3.49873">
        <ele>750.872364</ele>
        <time>2019-10-07T15:08:39.667Z</time>
      </trkpt>
      <trkpt lat="44.51589" lon="3.49872">
        <ele>750.665039</ele>
        <time>2019-10-07T15:08:40.423Z</time>
      </trkpt>
      <trkpt lat="44.51607" lon="3.49869">
        <ele>749.940345</ele>
        <time>2019-10-07T15:08:43.151Z</time>
      </trkpt>
      <trkpt lat="44.51609" lon="3.49905">
        <ele>748.898336</ele>
        <time>2019-10-07T15:08:47.387Z</time>
      </trkpt>
      <trkpt lat="44.51612" lon="3.49924">
        <ele>748.307325</ele>
        <time>2019-10-07T15:08:49.882Z</time>
      </trkpt>
      <trkpt lat="44.51613" lon="3.49927">
        <ele>748.215795</ele>
        <time>2019-10-07T15:08:50.328Z</time>
      </trkpt>
      <trkpt lat="44.51614" lon="3.49932">
        <ele>748.07567</ele>
        <time>2019-10-07T15:08:50.962Z</time>
      </trkpt>
      <trkpt lat="44.51618" lon="3.4993">
        <ele>747.914326</ele>
        <time>2019-10-07T15:08:51.629Z</time>
      </trkpt>
      <trkpt lat="44.51621" lon="3.49928">
        <ele>747.775324</ele>
        <time>2019-10-07T15:08:52.202Z</time>
      </trkpt>
      <trkpt lat="44.51624" lon="3.49927">
        <ele>747.64411</ele>
        <time>2019-10-07T15:08:52.722Z</time>
      </trkpt>
      <trkpt lat="44.51631" lon="3.49923">
        <ele>747.322375</ele>
        <time>2019-10-07T15:08:54.072Z</time>
      </trkpt>
      <trkpt lat="44.51645" lon="3.49917">
        <ele>746.713601</ele>
        <time>2019-10-07T15:08:57.011Z</time>
      </trkpt>
      <trkpt lat="44.51665" lon="3.49916">
        <ele>745.89653</ele>
        <time>2019-10-07T15:09:00.512Z</time>
      </trkpt>
      <trkpt lat="44.51692" lon="3.49918">
        <ele>744.794098</ele>
        <time>2019-10-07T15:09:05.400Z</time>
      </trkpt>
      <trkpt lat="44.51688" lon="3.49876">
        <ele>743.952492</ele>
        <time>2019-10-07T15:09:11.311Z</time>
      </trkpt>
      <trkpt lat="44.51707" lon="3.49874">
        <ele>743.593775</ele>
        <time>2019-10-07T15:09:15.016Z</time>
      </trkpt>
      <trkpt lat="44.51704" lon="3.49828">
        <ele>742.971871</ele>
        <time>2019-10-07T15:09:21.478Z</time>
      </trkpt>
      <trkpt lat="44.51703" lon="3.49815">
        <ele>742.797144</ele>
        <time>2019-10-07T15:09:23.372Z</time>
      </trkpt>
      <trkpt lat="44.51704" lon="3.49799">
        <ele>742.567513</ele>
        <time>2019-10-07T15:09:25.782Z</time>
      </trkpt>
      <trkpt lat="44.51711" lon="3.49792">
        <ele>742.417807</ele>
        <time>2019-10-07T15:09:27.309Z</time>
      </trkpt>
      <trkpt lat="44.51711" lon="3.4977">
        <ele>742.120866</ele>
        <time>2019-10-07T15:09:30.530Z</time>
      </trkpt>
      <trkpt lat="44.51713" lon="3.49769">
        <ele>742.068841</ele>
        <time>2019-10-07T15:09:31.079Z</time>
      </trkpt>
      <trkpt lat="44.51717" lon="3.49769">
        <ele>741.99752</ele>
        <time>2019-10-07T15:09:31.823Z</time>
      </trkpt>
      <trkpt lat="44.51725" lon="3.49767">
        <ele>741.845231</ele>
        <time>2019-10-07T15:09:33.410Z</time>
      </trkpt>
      <trkpt lat="44.51736" lon="3.49765">
        <ele>741.631082</ele>
        <time>2019-10-07T15:09:35.564Z</time>
      </trkpt>
      <trkpt lat="44.51739" lon="3.49764">
        <ele>741.571302</ele>
        <time>2019-10-07T15:09:36.144Z</time>
      </trkpt>
      <trkpt lat="44.51746" lon="3.49798">
        <ele>741.096023</ele>
        <time>2019-10-07T15:09:41.049Z</time>
      </trkpt>
      <trkpt lat="44.51751" lon="3.49821">
        <ele>740.665113</ele>
        <time>2019-10-07T15:09:44.295Z</time>
      </trkpt>
      <trkpt lat="44.51756" lon="3.49868">
        <ele>739.329607</ele>
        <time>2019-10-07T15:09:50.435Z</time>
      </trkpt>
      <trkpt lat="44.51786" lon="3.49865">
        <ele>738.158005</ele>
        <time>2019-10-07T15:09:55.620Z</time>
      </trkpt>
      <trkpt lat="44.5179" lon="3.49864">
        <ele>737.987332</ele>
        <time>2019-10-07T15:09:56.398Z</time>
      </trkpt>
      <trkpt lat="44.51797" lon="3.49864">
        <ele>737.730168</ele>
        <time>2019-10-07T15:10:00.957Z</time>
      </trkpt>
      <trkpt lat="44.51805" lon="3.49876">
        <ele>737.237872</ele>
        <time>2019-10-07T15:10:09.610Z</time>
      </trkpt>
      <trkpt lat="44.51809" lon="3.49877">
        <ele>737.109861</ele>
        <time>2019-10-07T15:10:11.880Z</time>
      </trkpt>
      <trkpt lat="44.51819" lon="3.4987">
        <ele>736.653905</ele>
        <time>2019-10-07T15:10:13.790Z</time>
      </trkpt>
      <trkpt lat="44.51844" lon="3.49851">
        <ele>735.532184</ele>
        <time>2019-10-07T15:10:18.841Z</time>
      </trkpt>
      <trkpt lat="44.51848" lon="3.49848">
        <ele>735.35359</ele>
        <time>2019-10-07T15:10:19.560Z</time>
      </trkpt>
      <trkpt lat="44.51856" lon="3.49845">
        <ele>735.01972</ele>
        <time>2019-10-07T15:10:20.989Z</time>
      </trkpt>
      <trkpt lat="44.51867" lon="3.49842">
        <ele>734.557378</ele>
        <time>2019-10-07T15:10:23.576Z</time>
      </trkpt>
      <trkpt lat="44.51895" lon="3.49835">
        <ele>733.297142</ele>
        <time>2019-10-07T15:10:28.147Z</time>
      </trkpt>
      <trkpt lat="44.51897" lon="3.4984">
        <ele>733.081617</ele>
        <time>2019-10-07T15:10:28.789Z</time>
      </trkpt>
      <trkpt lat="44.51906" lon="3.49838">
        <ele>732.546318</ele>
        <time>2019-10-07T15:10:30.264Z</time>
      </trkpt>
      <trkpt lat="44.51947" lon="3.49864">
        <ele>730.016368</ele>
        <time>2019-10-07T15:10:37.393Z</time>
      </trkpt>
      <trkpt lat="44.51949" lon="3.49865">
        <ele>729.883974</ele>
        <time>2019-10-07T15:10:37.725Z</time>
      </trkpt>
      <trkpt lat="44.51953" lon="3.49857">
        <ele>729.505431</ele>
        <time>2019-10-07T15:10:38.784Z</time>
      </trkpt>
      <trkpt lat="44.51959" lon="3.49855">
        <ele>729.124427</ele>
        <time>2019-10-07T15:10:39.888Z</time>
      </trkpt>
      <trkpt lat="44.51965" lon="3.49853">
        <ele>728.825311</ele>
        <time>2019-10-07T15:10:40.725Z</time>
      </trkpt>
      <trkpt lat="44.52028" lon="3.49815">
        <ele>724.909835</ele>
        <time>2019-10-07T15:10:51.873Z</time>
      </trkpt>
      <trkpt lat="44.5204" lon="3.49808">
        <ele>724.183587</ele>
        <time>2019-10-07T15:10:53.947Z</time>
      </trkpt>
      <trkpt lat="44.52104" lon="3.49769">
        <ele>723.460121</ele>
        <time>2019-10-07T15:11:06.226Z</time>
      </trkpt>
      <trkpt lat="44.52115" lon="3.49755">
        <ele>723.435132</ele>
        <time>2019-10-07T15:11:09.196Z</time>
      </trkpt>
      <trkpt lat="44.52133" lon="3.49756">
        <ele>723.404077</ele>
        <time>2019-10-07T15:11:12.743Z</time>
      </trkpt>
      <trkpt lat="44.52168" lon="3.4976">
        <ele>723.345392</ele>
        <time>2019-10-07T15:11:24.872Z</time>
      </trkpt>
      <trkpt lat="44.52178" lon="3.49761">
        <ele>723.328328</ele>
        <time>2019-10-07T15:11:29.688Z</time>
      </trkpt>
      <trkpt lat="44.5219" lon="3.49758">
        <ele>723.30679</ele>
        <time>2019-10-07T15:11:37.441Z</time>
      </trkpt>
      <trkpt lat="44.5218" lon="3.4963">
        <ele>728.568057</ele>
        <time>2019-10-07T15:12:23.541Z</time>
      </trkpt>
      <trkpt lat="44.52187" lon="3.49591">
        <ele>731.034308</ele>
        <time>2019-10-07T15:12:43.626Z</time>
      </trkpt>
      <trkpt lat="44.52194" lon="3.49583">
        <ele>731.854015</ele>
        <time>2019-10-07T15:12:50.304Z</time>
      </trkpt>
      <trkpt lat="44.52205" lon="3.49583">
        <ele>732.730606</ele>
        <time>2019-10-07T15:12:59.764Z</time>
      </trkpt>
      <trkpt lat="44.5226" lon="3.49611">
        <ele>737.819669</ele>
        <time>2019-10-07T15:13:42.596Z</time>
      </trkpt>
      <trkpt lat="44.52279" lon="3.49615">
        <ele>739.627559</ele>
        <time>2019-10-07T15:13:56.809Z</time>
      </trkpt>
      <trkpt lat="44.52302" lon="3.49618">
        <ele>742.121002</ele>
        <time>2019-10-07T15:14:17.418Z</time>
      </trkpt>
      <trkpt lat="44.52303" lon="3.49613">
        <ele>742.545445</ele>
        <time>2019-10-07T15:14:21.148Z</time>
      </trkpt>
      <trkpt lat="44.52305" lon="3.49585">
        <ele>744.700497</ele>
        <time>2019-10-07T15:14:38.256Z</time>
      </trkpt>
      <trkpt lat="44.52307" lon="3.49555">
        <ele>747.026001</ele>
        <time>2019-10-07T15:14:57.644Z</time>
      </trkpt>
      <trkpt lat="44.52307" lon="3.49552">
        <ele>747.264366</ele>
        <time>2019-10-07T15:14:58.964Z</time>
      </trkpt>
      <trkpt lat="44.52307" lon="3.49544">
        <ele>747.841963</ele>
        <time>2019-10-07T15:15:03.081Z</time>
      </trkpt>
      <trkpt lat="44.5231" lon="3.49544">
        <ele>748.158106</ele>
        <time>2019-10-07T15:15:07.235Z</time>
      </trkpt>
      <trkpt lat="44.52327" lon="3.49545">
        <ele>749.951166</ele>
        <time>2019-10-07T15:15:20.122Z</time>
      </trkpt>
      <trkpt lat="44.52343" lon="3.49601">
        <ele>754.602114</ele>
        <time>2019-10-07T15:15:49.983Z</time>
      </trkpt>
      <trkpt lat="44.52348" lon="3.49631">
        <ele>756.99168</ele>
        <time>2019-10-07T15:16:07.826Z</time>
      </trkpt>
      <trkpt lat="44.52365" lon="3.49629">
        <ele>758.671132</ele>
        <time>2019-10-07T15:16:16.979Z</time>
      </trkpt>
      <trkpt lat="44.52377" lon="3.49633">
        <ele>759.62738</ele>
        <time>2019-10-07T15:16:25.374Z</time>
      </trkpt>
      <trkpt lat="44.52381" lon="3.49622">
        <ele>760.278996</ele>
        <time>2019-10-07T15:16:30.432Z</time>
      </trkpt>
      <trkpt lat="44.52384" lon="3.49608">
        <ele>761.155368</ele>
        <time>2019-10-07T15:16:35.455Z</time>
      </trkpt>
      <trkpt lat="44.52378" lon="3.49425">
        <ele>771.573606</ele>
        <time>2019-10-07T15:18:00.094Z</time>
      </trkpt>
      <trkpt lat="44.52378" lon="3.49425">
        <ele>771.573606</ele>
        <time>2019-10-07T15:18:00.294Z</time>
      </trkpt>
      <trkpt lat="44.52374" lon="3.49395">
        <ele>773.312489</ele>
        <time>2019-10-07T15:18:12.619Z</time>
      </trkpt>
      <trkpt lat="44.52383" lon="3.49391">
        <ele>774.074457</ele>
        <time>2019-10-07T15:18:17.731Z</time>
      </trkpt>
      <trkpt lat="44.52391" lon="3.49379">
        <ele>775.011962</ele>
        <time>2019-10-07T15:18:22.179Z</time>
      </trkpt>
      <trkpt lat="44.52399" lon="3.4937">
        <ele>775.840936</ele>
        <time>2019-10-07T15:18:28.744Z</time>
      </trkpt>
      <trkpt lat="44.5241" lon="3.49377">
        <ele>776.767623</ele>
        <time>2019-10-07T15:18:36.262Z</time>
      </trkpt>
      <trkpt lat="44.52423" lon="3.49395">
        <ele>778.239124</ele>
        <time>2019-10-07T15:18:44.248Z</time>
      </trkpt>
      <trkpt lat="44.52431" lon="3.49405">
        <ele>779.09399</ele>
        <time>2019-10-07T15:18:53.895Z</time>
      </trkpt>
      <trkpt lat="44.5243" lon="3.49425">
        <ele>780.263735</ele>
        <time>2019-10-07T15:19:02.428Z</time>
      </trkpt>
      <trkpt lat="44.52432" lon="3.49443">
        <ele>781.288913</ele>
        <time>2019-10-07T15:19:08.571Z</time>
      </trkpt>
      <trkpt lat="44.5244" lon="3.49451">
        <ele>782.094764</ele>
        <time>2019-10-07T15:19:18.282Z</time>
      </trkpt>
      <trkpt lat="44.52469" lon="3.49481">
        <ele>785.015452</ele>
        <time>2019-10-07T15:19:43.847Z</time>
      </trkpt>
      <trkpt lat="44.52483" lon="3.49518">
        <ele>787.411369</ele>
        <time>2019-10-07T15:20:01.792Z</time>
      </trkpt>
      <trkpt lat="44.52495" lon="3.49513">
        <ele>788.52497</ele>
        <time>2019-10-07T15:20:12.598Z</time>
      </trkpt>
      <trkpt lat="44.52498" lon="3.49493">
        <ele>789.707409</ele>
        <time>2019-10-07T15:20:20.012Z</time>
      </trkpt>
      <trkpt lat="44.52503" lon="3.49477">
        <ele>790.76699</ele>
        <time>2019-10-07T15:20:29.475Z</time>
      </trkpt>
      <trkpt lat="44.52507" lon="3.49466">
        <ele>791.484972</ele>
        <time>2019-10-07T15:20:35.645Z</time>
      </trkpt>
      <trkpt lat="44.52509" lon="3.49464">
        <ele>791.694469</ele>
        <time>2019-10-07T15:20:37.054Z</time>
      </trkpt>
      <trkpt lat="44.52511" lon="3.49462">
        <ele>791.903966</ele>
        <time>2019-10-07T15:20:38.685Z</time>
      </trkpt>
      <trkpt lat="44.5252" lon="3.4947">
        <ele>792.767205</ele>
        <time>2019-10-07T15:20:43.783Z</time>
      </trkpt>
      <trkpt lat="44.52524" lon="3.49488">
        <ele>793.897332</ele>
        <time>2019-10-07T15:20:53.115Z</time>
      </trkpt>
      <trkpt lat="44.52525" lon="3.49493">
        <ele>794.210076</ele>
        <time>2019-10-07T15:20:57.043Z</time>
      </trkpt>
      <trkpt lat="44.52532" lon="3.49515">
        <ele>795.684103</ele>
        <time>2019-10-07T15:21:07.464Z</time>
      </trkpt>
      <trkpt lat="44.52548" lon="3.49532">
        <ele>797.33594</ele>
        <time>2019-10-07T15:21:19.883Z</time>
      </trkpt>
      <trkpt lat="44.52557" lon="3.49527">
        <ele>798.141178</ele>
        <time>2019-10-07T15:21:25.635Z</time>
      </trkpt>
      <trkpt lat="44.52566" lon="3.49499">
        <ele>799.951338</ele>
        <time>2019-10-07T15:21:37.538Z</time>
      </trkpt>
      <trkpt lat="44.52573" lon="3.4948">
        <ele>801.246589</ele>
        <time>2019-10-07T15:21:48.781Z</time>
      </trkpt>
      <trkpt lat="44.52576" lon="3.49474">
        <ele>801.650639</ele>
        <time>2019-10-07T15:21:51.501Z</time>
      </trkpt>
      <trkpt lat="44.5259" lon="3.49443">
        <ele>803.955463</ele>
        <time>2019-10-07T15:22:12.089Z</time>
      </trkpt>
      <trkpt lat="44.52576" lon="3.49335">
        <ele>810.683785</ele>
        <time>2019-10-07T15:22:59.915Z</time>
      </trkpt>
      <trkpt lat="44.5258" lon="3.49324">
        <ele>811.441335</ele>
        <time>2019-10-07T15:23:04.975Z</time>
      </trkpt>
      <trkpt lat="44.52593" lon="3.49313">
        <ele>812.771178</ele>
        <time>2019-10-07T15:23:16.765Z</time>
      </trkpt>
      <trkpt lat="44.52596" lon="3.4931">
        <ele>813.07883</ele>
        <time>2019-10-07T15:23:20.386Z</time>
      </trkpt>
      <trkpt lat="44.52592" lon="3.49299">
        <ele>813.85559</ele>
        <time>2019-10-07T15:23:26.524Z</time>
      </trkpt>
      <trkpt lat="44.52588" lon="3.4929">
        <ele>814.47103</ele>
        <time>2019-10-07T15:23:30.462Z</time>
      </trkpt>
      <trkpt lat="44.52604" lon="3.49278">
        <ele>815.97088</ele>
        <time>2019-10-07T15:23:45.888Z</time>
      </trkpt>
      <trkpt lat="44.52626" lon="3.49236">
        <ele>819.382671</ele>
        <time>2019-10-07T15:24:16.632Z</time>
      </trkpt>
      <trkpt lat="44.5263" lon="3.49211">
        <ele>821.119211</ele>
        <time>2019-10-07T15:24:29.881Z</time>
      </trkpt>
      <trkpt lat="44.52642" lon="3.49183">
        <ele>823.301298</ele>
        <time>2019-10-07T15:24:50.488Z</time>
      </trkpt>
      <trkpt lat="44.52661" lon="3.4916">
        <ele>825.671889</ele>
        <time>2019-10-07T15:25:11.455Z</time>
      </trkpt>
      <trkpt lat="44.52664" lon="3.49143">
        <ele>826.890087</ele>
        <time>2019-10-07T15:25:22.824Z</time>
      </trkpt>
      <trkpt lat="44.52668" lon="3.49119">
        <ele>828.543642</ele>
        <time>2019-10-07T15:25:37.318Z</time>
      </trkpt>
      <trkpt lat="44.52664" lon="3.49103">
        <ele>829.664901</ele>
        <time>2019-10-07T15:25:48.691Z</time>
      </trkpt>
      <trkpt lat="44.52672" lon="3.49091">
        <ele>830.749352</ele>
        <time>2019-10-07T15:25:59.327Z</time>
      </trkpt>
      <trkpt lat="44.52711" lon="3.49073">
        <ele>834.660493</ele>
        <time>2019-10-07T15:26:35.091Z</time>
      </trkpt>
      <trkpt lat="44.52759" lon="3.49071">
        <ele>838.166025</ele>
        <time>2019-10-07T15:27:14.094Z</time>
      </trkpt>
      <trkpt lat="44.52789" lon="3.49037">
        <ele>840.973916</ele>
        <time>2019-10-07T15:27:41.771Z</time>
      </trkpt>
      <trkpt lat="44.52807" lon="3.49024">
        <ele>842.456003</ele>
        <time>2019-10-07T15:27:56.278Z</time>
      </trkpt>
      <trkpt lat="44.52819" lon="3.48995">
        <ele>844.23172</ele>
        <time>2019-10-07T15:28:13.191Z</time>
      </trkpt>
      <trkpt lat="44.52863" lon="3.48938">
        <ele>848.16001</ele>
        <time>2019-10-07T15:28:53.567Z</time>
      </trkpt>
      <trkpt lat="44.5293" lon="3.48944">
        <ele>850.516321</ele>
        <time>2019-10-07T15:29:36.499Z</time>
      </trkpt>
      <trkpt lat="44.5293" lon="3.48944">
        <ele>850.516321</ele>
        <time>2019-10-07T15:29:36.624Z</time>
      </trkpt>
      <trkpt lat="44.52941" lon="3.48946">
        <ele>850.9257</ele>
        <time>2019-10-07T15:29:43.056Z</time>
      </trkpt>
      <trkpt lat="44.52988" lon="3.48952">
        <ele>852.577915</ele>
        <time>2019-10-07T15:30:05.179Z</time>
      </trkpt>
      <trkpt lat="44.53027" lon="3.48963">
        <ele>853.973449</ele>
        <time>2019-10-07T15:30:22.738Z</time>
      </trkpt>
      <trkpt lat="44.53032" lon="3.48958">
        <ele>854.049536</ele>
        <time>2019-10-07T15:30:26.080Z</time>
      </trkpt>
      <trkpt lat="44.53034" lon="3.48956">
        <ele>854.033297</ele>
        <time>2019-10-07T15:30:26.751Z</time>
      </trkpt>
      <trkpt lat="44.53067" lon="3.48967">
        <ele>853.785572</ele>
        <time>2019-10-07T15:30:41.830Z</time>
      </trkpt>
      <trkpt lat="44.5307" lon="3.48968">
        <ele>853.766271</ele>
        <time>2019-10-07T15:30:42.780Z</time>
      </trkpt>
      <trkpt lat="44.53079" lon="3.48973">
        <ele>853.697022</ele>
        <time>2019-10-07T15:30:47.032Z</time>
      </trkpt>
      <trkpt lat="44.53264" lon="3.4902">
        <ele>851.785416</ele>
        <time>2019-10-07T15:31:49.423Z</time>
      </trkpt>
      <trkpt lat="44.53305" lon="3.49038">
        <ele>851.076707</ele>
        <time>2019-10-07T15:32:03.185Z</time>
      </trkpt>
      <trkpt lat="44.5336" lon="3.49095">
        <ele>849.95838</ele>
        <time>2019-10-07T15:32:25.354Z</time>
      </trkpt>
      <trkpt lat="44.53415" lon="3.49141">
        <ele>850.709079</ele>
        <time>2019-10-07T15:32:50.121Z</time>
      </trkpt>
      <trkpt lat="44.53439" lon="3.49184">
        <ele>851.313348</ele>
        <time>2019-10-07T15:33:07.427Z</time>
      </trkpt>
      <trkpt lat="44.53445" lon="3.49191">
        <ele>851.436941</ele>
        <time>2019-10-07T15:33:10.299Z</time>
      </trkpt>
      <trkpt lat="44.53454" lon="3.49204">
        <ele>851.621282</ele>
        <time>2019-10-07T15:33:17.201Z</time>
      </trkpt>
      <trkpt lat="44.53471" lon="3.49251">
        <ele>852.198181</ele>
        <time>2019-10-07T15:33:35.785Z</time>
      </trkpt>
      <trkpt lat="44.53475" lon="3.49286">
        <ele>852.589389</ele>
        <time>2019-10-07T15:33:48.652Z</time>
      </trkpt>
      <trkpt lat="44.53479" lon="3.49298">
        <ele>853.001615</ele>
        <time>2019-10-07T15:33:54.434Z</time>
      </trkpt>
      <trkpt lat="44.53497" lon="3.49323">
        <ele>854.273192</ele>
        <time>2019-10-07T15:34:08.134Z</time>
      </trkpt>
      <trkpt lat="44.53526" lon="3.49407">
        <ele>857.542002</ele>
        <time>2019-10-07T15:34:50.230Z</time>
      </trkpt>
      <trkpt lat="44.53542" lon="3.49496">
        <ele>860.816021</ele>
        <time>2019-10-07T15:35:33.619Z</time>
      </trkpt>
      <trkpt lat="44.53575" lon="3.49538">
        <ele>863.489413</ele>
        <time>2019-10-07T15:36:01.802Z</time>
      </trkpt>
      <trkpt lat="44.53601" lon="3.49588">
        <ele>866.386354</ele>
        <time>2019-10-07T15:36:31.456Z</time>
      </trkpt>
      <trkpt lat="44.53636" lon="3.49639">
        <ele>869.720285</ele>
        <time>2019-10-07T15:37:07.523Z</time>
      </trkpt>
      <trkpt lat="44.53647" lon="3.49678">
        <ele>871.676027</ele>
        <time>2019-10-07T15:37:29.466Z</time>
      </trkpt>
      <trkpt lat="44.53672" lon="3.49699">
        <ele>873.638565</ele>
        <time>2019-10-07T15:37:51.640Z</time>
      </trkpt>
      <trkpt lat="44.53699" lon="3.49753">
        <ele>876.877402</ele>
        <time>2019-10-07T15:38:27.093Z</time>
      </trkpt>
      <trkpt lat="44.53763" lon="3.49896">
        <ele>885.238746</ele>
        <time>2019-10-07T15:39:54.471Z</time>
      </trkpt>
      <trkpt lat="44.53766" lon="3.49941">
        <ele>886.616015</ele>
        <time>2019-10-07T15:40:15.732Z</time>
      </trkpt>
      <trkpt lat="44.53802" lon="3.49997">
        <ele>888.410577</ele>
        <time>2019-10-07T15:40:48.373Z</time>
      </trkpt>
      <trkpt lat="44.53809" lon="3.50032">
        <ele>889.279777</ele>
        <time>2019-10-07T15:41:02.920Z</time>
      </trkpt>
      <trkpt lat="44.53854" lon="3.50072">
        <ele>891.031262</ele>
        <time>2019-10-07T15:41:25.981Z</time>
      </trkpt>
      <trkpt lat="44.53914" lon="3.50113">
        <ele>892.173088</ele>
        <time>2019-10-07T15:41:52.735Z</time>
      </trkpt>
      <trkpt lat="44.53938" lon="3.50122">
        <ele>892.391907</ele>
        <time>2019-10-07T15:42:02.862Z</time>
      </trkpt>
      <trkpt lat="44.53953" lon="3.50121">
        <ele>892.516084</ele>
        <time>2019-10-07T15:42:07.727Z</time>
      </trkpt>
      <trkpt lat="44.53953" lon="3.5012">
        <ele>892.521522</ele>
        <time>2019-10-07T15:42:07.931Z</time>
      </trkpt>
      <trkpt lat="44.53968" lon="3.50128">
        <ele>892.653673</ele>
        <time>2019-10-07T15:42:14.111Z</time>
      </trkpt>
      <trkpt lat="44.54119" lon="3.50158">
        <ele>896.598649</ele>
        <time>2019-10-07T15:43:21.142Z</time>
      </trkpt>
      <trkpt lat="44.54119" lon="3.50158">
        <ele>896.598649</ele>
        <time>2019-10-07T15:43:21.304Z</time>
      </trkpt>
      <trkpt lat="44.54136" lon="3.5015">
        <ele>897.377117</ele>
        <time>2019-10-07T15:43:31.355Z</time>
      </trkpt>
      <trkpt lat="44.54174" lon="3.50157">
        <ele>899.102529</ele>
        <time>2019-10-07T15:43:56.321Z</time>
      </trkpt>
      <trkpt lat="44.54191" lon="3.50169">
        <ele>899.979929</ele>
        <time>2019-10-07T15:44:10.421Z</time>
      </trkpt>
      <trkpt lat="44.54218" lon="3.5017">
        <ele>901.1608</ele>
        <time>2019-10-07T15:44:29.168Z</time>
      </trkpt>
      <trkpt lat="44.54307" lon="3.50199">
        <ele>909.327132</ele>
        <time>2019-10-07T15:45:44.686Z</time>
      </trkpt>
      <trkpt lat="44.54375" lon="3.50259">
        <ele>916.672057</ele>
        <time>2019-10-07T15:46:54.710Z</time>
      </trkpt>
      <trkpt lat="44.54434" lon="3.50293">
        <ele>921.920972</ele>
        <time>2019-10-07T15:47:49.160Z</time>
      </trkpt>
      <trkpt lat="44.54484" lon="3.50307">
        <ele>925.842365</ele>
        <time>2019-10-07T15:48:28.804Z</time>
      </trkpt>
      <trkpt lat="44.54562" lon="3.50344">
        <ele>932.240072</ele>
        <time>2019-10-07T15:49:27.362Z</time>
      </trkpt>
      <trkpt lat="44.54606" lon="3.50395">
        <ele>935.716006</ele>
        <time>2019-10-07T15:50:02.961Z</time>
      </trkpt>
      <trkpt lat="44.54607" lon="3.50392">
        <ele>922.6</ele>
      </trkpt>
      <trkpt lat="44.54614" lon="3.50397">
        <ele>923</ele>
      </trkpt>
      <trkpt lat="44.54627" lon="3.50406">
        <ele>923.6</ele>
      </trkpt>
      <trkpt lat="44.54652" lon="3.50423">
        <ele>924.6</ele>
      </trkpt>
      <trkpt lat="44.54671" lon="3.50434">
        <ele>925.9</ele>
      </trkpt>
      <trkpt lat="44.54691" lon="3.50442">
        <ele>927.2</ele>
      </trkpt>
      <trkpt lat="44.54701" lon="3.50446">
        <ele>927.8</ele>
      </trkpt>
      <trkpt lat="44.54703" lon="3.50446">
        <ele>927.4</ele>
      </trkpt>
      <trkpt lat="44.54709" lon="3.50444">
        <ele>926.7</ele>
      </trkpt>
      <trkpt lat="44.54726" lon="3.50445">
        <ele>926</ele>
      </trkpt>
      <trkpt lat="44.54779" lon="3.50446">
        <ele>925.9</ele>
      </trkpt>
      <trkpt lat="44.5479" lon="3.50445">
        <ele>926.2</ele>
      </trkpt>
      <trkpt lat="44.54808" lon="3.50445">
        <ele>926.6</ele>
      </trkpt>
      <trkpt lat="44.54835" lon="3.50445">
        <ele>927.6</ele>
      </trkpt>
      <trkpt lat="44.54859" lon="3.50447">
        <ele>929.7</ele>
      </trkpt>
      <trkpt lat="44.54878" lon="3.50448">
        <ele>931.4</ele>
      </trkpt>
      <trkpt lat="44.54891" lon="3.50449">
        <ele>932.6</ele>
      </trkpt>
      <trkpt lat="44.54907" lon="3.50449">
        <ele>933.7</ele>
      </trkpt>
      <trkpt lat="44.54913" lon="3.50451">
        <ele>934.5</ele>
      </trkpt>
      <trkpt lat="44.54915" lon="3.50453">
        <ele>934.9</ele>
      </trkpt>
      <trkpt lat="44.54915" lon="3.50456">
        <ele>935.6</ele>
      </trkpt>
      <trkpt lat="44.54915" lon="3.50461">
        <ele>936.4</ele>
      </trkpt>
      <trkpt lat="44.54914" lon="3.50466">
        <ele>937.2</ele>
      </trkpt>
      <trkpt lat="44.54914" lon="3.50467">
        <ele>937.2</ele>
      </trkpt>
      <trkpt lat="44.54912" lon="3.5047">
        <ele>937.6</ele>
      </trkpt>
      <trkpt lat="44.54906" lon="3.50472">
        <ele>937.7</ele>
      </trkpt>
      <trkpt lat="44.549" lon="3.50476">
        <ele>938.1</ele>
      </trkpt>
      <trkpt lat="44.54889" lon="3.50485">
        <ele>939.2</ele>
      </trkpt>
      <trkpt lat="44.5487" lon="3.50504">
        <ele>942.4</ele>
      </trkpt>
      <trkpt lat="44.54848" lon="3.50528">
        <ele>947.6</ele>
      </trkpt>
      <trkpt lat="44.54835" lon="3.50543">
        <ele>950.9</ele>
      </trkpt>
      <trkpt lat="44.54822" lon="3.50557">
        <ele>954.2</ele>
      </trkpt>
      <trkpt lat="44.54815" lon="3.50566">
        <ele>956.3</ele>
      </trkpt>
      <trkpt lat="44.54796" lon="3.50573">
        <ele>957.8</ele>
      </trkpt>
      <trkpt lat="44.54774" lon="3.50579">
        <ele>959.1</ele>
      </trkpt>
      <trkpt lat="44.54762" lon="3.50582">
        <ele>959.8</ele>
      </trkpt>
      <trkpt lat="44.54756" lon="3.50585">
        <ele>960.3</ele>
      </trkpt>
      <trkpt lat="44.5475" lon="3.50593">
        <ele>961.6</ele>
      </trkpt>
      <trkpt lat="44.54751" lon="3.50593">
        <ele>961.7</ele>
      </trkpt>
      <trkpt lat="44.54757" lon="3.50593">
        <ele>961.7</ele>
      </trkpt>
      <trkpt lat="44.54757" lon="3.50593">
        <ele>961.7</ele>
      </trkpt>
      <trkpt lat="44.54757" lon="3.50597">
        <ele>962.5</ele>
      </trkpt>
      <trkpt lat="44.54756" lon="3.50602">
        <ele>963.2</ele>
      </trkpt>
      <trkpt lat="44.54753" lon="3.50605">
        <ele>963.7</ele>
      </trkpt>
      <trkpt lat="44.54747" lon="3.50607">
        <ele>964</ele>
      </trkpt>
      <trkpt lat="44.54733" lon="3.50612">
        <ele>964.9</ele>
      </trkpt>
      <trkpt lat="44.54725" lon="3.50616">
        <ele>965.6</ele>
      </trkpt>
      <trkpt lat="44.54716" lon="3.50621">
        <ele>966.3</ele>
      </trkpt>
      <trkpt lat="44.54706" lon="3.50625">
        <ele>967</ele>
      </trkpt>
      <trkpt lat="44.54698" lon="3.50627">
        <ele>967.2</ele>
      </trkpt>
      <trkpt lat="44.54685" lon="3.50626">
        <ele>967.2</ele>
      </trkpt>
      <trkpt lat="44.54674" lon="3.50626">
        <ele>967.2</ele>
      </trkpt>
      <trkpt lat="44.54664" lon="3.50627">
        <ele>967.3</ele>
      </trkpt>
      <trkpt lat="44.54655" lon="3.5063">
        <ele>967.7</ele>
      </trkpt>
      <trkpt lat="44.54645" lon="3.50638">
        <ele>968.6</ele>
      </trkpt>
      <trkpt lat="44.54634" lon="3.50649">
        <ele>969.6</ele>
      </trkpt>
      <trkpt lat="44.54625" lon="3.50662">
        <ele>970.6</ele>
      </trkpt>
      <trkpt lat="44.54619" lon="3.50667">
        <ele>970.9</ele>
      </trkpt>
      <trkpt lat="44.54617" lon="3.5067">
        <ele>971</ele>
      </trkpt>
      <trkpt lat="44.54611" lon="3.50674">
        <ele>971.1</ele>
      </trkpt>
      <trkpt lat="44.54604" lon="3.50677">
        <ele>971</ele>
      </trkpt>
      <trkpt lat="44.54593" lon="3.5068">
        <ele>970.8</ele>
      </trkpt>
      <trkpt lat="44.5459" lon="3.50682">
        <ele>970.8</ele>
      </trkpt>
      <trkpt lat="44.54588" lon="3.50685">
        <ele>970.8</ele>
      </trkpt>
      <trkpt lat="44.54583" lon="3.50686">
        <ele>970.7</ele>
      </trkpt>
      <trkpt lat="44.54563" lon="3.50695">
        <ele>970.5</ele>
      </trkpt>
      <trkpt lat="44.54561" lon="3.50694">
        <ele>970.5</ele>
      </trkpt>
      <trkpt lat="44.54554" lon="3.50695">
        <ele>970.3</ele>
      </trkpt>
      <trkpt lat="44.54548" lon="3.50696">
        <ele>970.2</ele>
      </trkpt>
      <trkpt lat="44.54539" lon="3.50699">
        <ele>970</ele>
      </trkpt>
      <trkpt lat="44.54539" lon="3.50703">
        <ele>970.1</ele>
      </trkpt>
      <trkpt lat="44.54538" lon="3.50706">
        <ele>970.1</ele>
      </trkpt>
      <trkpt lat="44.54537" lon="3.50708">
        <ele>970.1</ele>
      </trkpt>
      <trkpt lat="44.54535" lon="3.50711">
        <ele>970.1</ele>
      </trkpt>
      <trkpt lat="44.54545" lon="3.50729">
        <ele>970.7</ele>
      </trkpt>
      <trkpt lat="44.54552" lon="3.50739">
        <ele>971.2</ele>
      </trkpt>
      <trkpt lat="44.54553" lon="3.50741">
        <ele>971.4</ele>
      </trkpt>
      <trkpt lat="44.54558" lon="3.5075">
        <ele>971.8</ele>
      </trkpt>
      <trkpt lat="44.54568" lon="3.50765">
        <ele>972.2</ele>
      </trkpt>
      <trkpt lat="44.5457" lon="3.50768">
        <ele>972.3</ele>
      </trkpt>
      <trkpt lat="44.54589" lon="3.50793">
        <ele>975.331939</ele>
        <time>2019-10-07T15:56:49.964Z</time>
      </trkpt>
      <trkpt lat="44.54696" lon="3.50853">
        <ele>981.706355</ele>
        <time>2019-10-07T15:58:10.240Z</time>
      </trkpt>
      <trkpt lat="44.54714" lon="3.50868">
        <ele>983.256014</ele>
        <time>2019-10-07T15:58:27.009Z</time>
      </trkpt>
      <trkpt lat="44.54783" lon="3.5089">
        <ele>989.474655</ele>
        <time>2019-10-07T15:59:22.168Z</time>
      </trkpt>
      <trkpt lat="44.5489" lon="3.5094">
        <ele>999.439719</ele>
        <time>2019-10-07T16:00:59.220Z</time>
      </trkpt>
      <trkpt lat="44.55002" lon="3.51006">
        <ele>1010.024872</ele>
        <time>2019-10-07T16:02:39.578Z</time>
      </trkpt>
      <trkpt lat="44.55002" lon="3.51006">
        <ele>1010.024872</ele>
        <time>2019-10-07T16:02:40.706Z</time>
      </trkpt>
      <trkpt lat="44.55184" lon="3.51181">
        <ele>1024.735174</ele>
        <time>2019-10-07T16:05:10.019Z</time>
      </trkpt>
      <trkpt lat="44.55204" lon="3.51197">
        <ele>1026.29207</ele>
        <time>2019-10-07T16:05:23.199Z</time>
      </trkpt>
      <trkpt lat="44.55229" lon="3.5121">
        <ele>1028.122002</ele>
        <time>2019-10-07T16:05:39.046Z</time>
      </trkpt>
      <trkpt lat="44.55363" lon="3.51239">
        <ele>1037.506172</ele>
        <time>2019-10-07T16:06:57.806Z</time>
      </trkpt>
      <trkpt lat="44.55427" lon="3.51239">
        <ele>1045.250807</ele>
        <time>2019-10-07T16:07:55.370Z</time>
      </trkpt>
      <trkpt lat="44.55475" lon="3.51269">
        <ele>1051.585422</ele>
        <time>2019-10-07T16:08:48.994Z</time>
      </trkpt>
      <trkpt lat="44.55534" lon="3.51305">
        <ele>1059.306095</ele>
        <time>2019-10-07T16:09:55.180Z</time>
      </trkpt>
      <trkpt lat="44.5554" lon="3.51312">
        <ele>1060.48185</ele>
        <time>2019-10-07T16:10:07.176Z</time>
      </trkpt>
      <trkpt lat="44.55564" lon="3.51318">
        <ele>1064.020635</ele>
        <time>2019-10-07T16:10:32.378Z</time>
      </trkpt>
      <trkpt lat="44.55595" lon="3.51316">
        <ele>1068.731415</ele>
        <time>2019-10-07T16:11:09.823Z</time>
      </trkpt>
      <trkpt lat="44.55608" lon="3.51319">
        <ele>1070.62894</ele>
        <time>2019-10-07T16:11:25.024Z</time>
      </trkpt>
      <trkpt lat="44.5564" lon="3.51325">
        <ele>1075.347957</ele>
        <time>2019-10-07T16:11:58.335Z</time>
      </trkpt>
      <trkpt lat="44.55647" lon="3.51337">
        <ele>1077.05967</ele>
        <time>2019-10-07T16:12:15.834Z</time>
      </trkpt>
      <trkpt lat="44.55656" lon="3.51342">
        <ele>1078.393009</ele>
        <time>2019-10-07T16:12:25.914Z</time>
      </trkpt>
      <trkpt lat="44.55664" lon="3.51349">
        <ele>1079.850484</ele>
        <time>2019-10-07T16:12:32.491Z</time>
      </trkpt>
      <trkpt lat="44.55677" lon="3.51354">
        <ele>1081.835807</ele>
        <time>2019-10-07T16:12:48.417Z</time>
      </trkpt>
      <trkpt lat="44.55684" lon="3.51354">
        <ele>1082.920045</ele>
        <time>2019-10-07T16:12:56.648Z</time>
      </trkpt>
      <trkpt lat="44.55699" lon="3.5135">
        <ele>1085.091902</ele>
        <time>2019-10-07T16:13:08.394Z</time>
      </trkpt>
      <trkpt lat="44.55714" lon="3.51344">
        <ele>1086.780856</ele>
        <time>2019-10-07T16:13:23.324Z</time>
      </trkpt>
      <trkpt lat="44.55747" lon="3.51344">
        <ele>1089.82634</ele>
        <time>2019-10-07T16:13:48.442Z</time>
      </trkpt>
      <trkpt lat="44.55787" lon="3.5136">
        <ele>1093.774856</ele>
        <time>2019-10-07T16:14:22.123Z</time>
      </trkpt>
      <trkpt lat="44.55794" lon="3.5136">
        <ele>1094.406805</ele>
        <time>2019-10-07T16:14:29.043Z</time>
      </trkpt>
      <trkpt lat="44.56011" lon="3.5137">
        <ele>1109.843037</ele>
        <time>2019-10-07T16:16:23.799Z</time>
      </trkpt>
      <trkpt lat="44.56221" lon="3.51417">
        <ele>1120.45794</ele>
        <time>2019-10-07T16:18:03.813Z</time>
      </trkpt>
      <trkpt lat="44.56342" lon="3.5145">
        <ele>1126.59354</ele>
        <time>2019-10-07T16:19:02.600Z</time>
      </trkpt>
      <trkpt lat="44.56406" lon="3.51473">
        <ele>1129.912907</ele>
        <time>2019-10-07T16:19:35.078Z</time>
      </trkpt>
      <trkpt lat="44.56454" lon="3.51498">
        <ele>1132.370259</ele>
        <time>2019-10-07T16:19:59.982Z</time>
      </trkpt>
      <trkpt lat="44.565" lon="3.51536">
        <ele>1134.925587</ele>
        <time>2019-10-07T16:20:25.076Z</time>
      </trkpt>
      <trkpt lat="44.5652" lon="3.5153">
        <ele>1135.89264</ele>
        <time>2019-10-07T16:20:37.705Z</time>
      </trkpt>
      <trkpt lat="44.56573" lon="3.51549">
        <ele>1138.521217</ele>
        <time>2019-10-07T16:21:10.090Z</time>
      </trkpt>
      <trkpt lat="44.56614" lon="3.51541">
        <ele>1140.296114</ele>
        <time>2019-10-07T16:21:35.384Z</time>
      </trkpt>
      <trkpt lat="44.56615" lon="3.51545">
        <ele>1140.420096</ele>
        <time>2019-10-07T16:21:36.730Z</time>
      </trkpt>
      <trkpt lat="44.56667" lon="3.51557">
        <ele>1142.627494</ele>
        <time>2019-10-07T16:22:07.912Z</time>
      </trkpt>
      <trkpt lat="44.56829" lon="3.51611">
        <ele>1149.134768</ele>
        <time>2019-10-07T16:23:41.331Z</time>
      </trkpt>
      <trkpt lat="44.56901" lon="3.51611">
        <ele>1151.773491</ele>
        <time>2019-10-07T16:24:21.359Z</time>
      </trkpt>
      <trkpt lat="44.57041" lon="3.51666">
        <ele>1156.535454</ele>
        <time>2019-10-07T16:25:38.840Z</time>
      </trkpt>
      <trkpt lat="44.57174" lon="3.51675">
        <ele>1160.597446</ele>
        <time>2019-10-07T16:26:47.682Z</time>
      </trkpt>
      <trkpt lat="44.57204" lon="3.51667">
        <ele>1161.499187</ele>
        <time>2019-10-07T16:27:03.624Z</time>
      </trkpt>
      <trkpt lat="44.57249" lon="3.51703">
        <ele>1163.033083</ele>
        <time>2019-10-07T16:27:30.716Z</time>
      </trkpt>
      <trkpt lat="44.57315" lon="3.51734">
        <ele>1164.846462</ele>
        <time>2019-10-07T16:28:06.288Z</time>
      </trkpt>
      <trkpt lat="44.57386" lon="3.51761">
        <ele>1166.601595</ele>
        <time>2019-10-07T16:28:42.769Z</time>
      </trkpt>
      <trkpt lat="44.57466" lon="3.5178">
        <ele>1168.53339</ele>
        <time>2019-10-07T16:29:21.144Z</time>
      </trkpt>
      <trkpt lat="44.57535" lon="3.51903">
        <ele>1171.040606</ele>
        <time>2019-10-07T16:30:12.690Z</time>
      </trkpt>
      <trkpt lat="44.57591" lon="3.51931">
        <ele>1172.565041</ele>
        <time>2019-10-07T16:30:42.828Z</time>
      </trkpt>
      <trkpt lat="44.57638" lon="3.51996">
        <ele>1175.682005</ele>
        <time>2019-10-07T16:31:19.570Z</time>
      </trkpt>
      <trkpt lat="44.5776" lon="3.52082">
        <ele>1182.552972</ele>
        <time>2019-10-07T16:32:48.554Z</time>
      </trkpt>
      <trkpt lat="44.57798" lon="3.52122">
        <ele>1185.467402</ele>
        <time>2019-10-07T16:33:21.386Z</time>
      </trkpt>
      <trkpt lat="44.57805" lon="3.52179">
        <ele>1188.036299</ele>
        <time>2019-10-07T16:33:50.116Z</time>
      </trkpt>
      <trkpt lat="44.57841" lon="3.52258">
        <ele>1192.200971</ele>
        <time>2019-10-07T16:34:36.614Z</time>
      </trkpt>
      <trkpt lat="44.57945" lon="3.52305">
        <ele>1198.601318</ele>
        <time>2019-10-07T16:35:49.734Z</time>
      </trkpt>
      <trkpt lat="44.58123" lon="3.52496">
        <ele>1210.00419</ele>
        <time>2019-10-07T16:38:14.115Z</time>
      </trkpt>
      <trkpt lat="44.58185" lon="3.52593">
        <ele>1211.074674</ele>
        <time>2019-10-07T16:38:57.029Z</time>
      </trkpt>
      <trkpt lat="44.58223" lon="3.52627">
        <ele>1211.132936</ele>
        <time>2019-10-07T16:39:13.780Z</time>
      </trkpt>
      <trkpt lat="44.58233" lon="3.52629">
        <ele>1211.146037</ele>
        <time>2019-10-07T16:39:15.360Z</time>
      </trkpt>
      <trkpt lat="44.58286" lon="3.52667">
        <ele>1211.078524</ele>
        <time>2019-10-07T16:39:26.804Z</time>
      </trkpt>
      <trkpt lat="44.58359" lon="3.52704">
        <ele>1209.48991</ele>
        <time>2019-10-07T16:39:40.219Z</time>
      </trkpt>
      <trkpt lat="44.5843" lon="3.52725">
        <ele>1208.034448</ele>
        <time>2019-10-07T16:39:53.285Z</time>
      </trkpt>
      <trkpt lat="44.58489" lon="3.52731">
        <ele>1207.514679</ele>
        <time>2019-10-07T16:40:06.018Z</time>
      </trkpt>
      <trkpt lat="44.58531" lon="3.52721">
        <ele>1207.457059</ele>
        <time>2019-10-07T16:40:15.072Z</time>
      </trkpt>
      <trkpt lat="44.58553" lon="3.52703">
        <ele>1207.422235</ele>
        <time>2019-10-07T16:40:20.495Z</time>
      </trkpt>
      <trkpt lat="44.58572" lon="3.5266">
        <ele>1207.372994</ele>
        <time>2019-10-07T16:40:28.345Z</time>
      </trkpt>
      <trkpt lat="44.58589" lon="3.52644">
        <ele>1207.344576</ele>
        <time>2019-10-07T16:40:33.663Z</time>
      </trkpt>
      <trkpt lat="44.58597" lon="3.52644">
        <ele>1207.333366</ele>
        <time>2019-10-07T16:40:35.155Z</time>
      </trkpt>
      <trkpt lat="44.58608" lon="3.52651">
        <ele>1207.34604</ele>
        <time>2019-10-07T16:40:37.373Z</time>
      </trkpt>
      <trkpt lat="44.58632" lon="3.52676">
        <ele>1208.271235</ele>
        <time>2019-10-07T16:40:46.497Z</time>
      </trkpt>
      <trkpt lat="44.58638" lon="3.52681">
        <ele>1208.461842</ele>
        <time>2019-10-07T16:40:48.409Z</time>
      </trkpt>
      <trkpt lat="44.58663" lon="3.52692">
        <ele>1209.265918</ele>
        <time>2019-10-07T16:40:57.697Z</time>
      </trkpt>
      <trkpt lat="44.58674" lon="3.52709">
        <ele>1209.754359</ele>
        <time>2019-10-07T16:41:03.359Z</time>
      </trkpt>
      <trkpt lat="44.58676" lon="3.52706">
        <ele>1209.853596</ele>
        <time>2019-10-07T16:41:04.996Z</time>
      </trkpt>
      <trkpt lat="44.5869" lon="3.52738">
        <ele>1210.648742</ele>
        <time>2019-10-07T16:41:13.968Z</time>
      </trkpt>
      <trkpt lat="44.58719" lon="3.52755">
        <ele>1211.600456</ele>
        <time>2019-10-07T16:41:26.644Z</time>
      </trkpt>
      <trkpt lat="44.58744" lon="3.52732">
        <ele>1212.509829</ele>
        <time>2019-10-07T16:41:45.200Z</time>
      </trkpt>
      <trkpt lat="44.5875" lon="3.52717">
        <ele>1213.115738</ele>
        <time>2019-10-07T16:41:53.021Z</time>
      </trkpt>
      <trkpt lat="44.58729" lon="3.5267">
        <ele>1216.400058</ele>
        <time>2019-10-07T16:42:21.231Z</time>
      </trkpt>
      <trkpt lat="44.58718" lon="3.52626">
        <ele>1219.185052</ele>
        <time>2019-10-07T16:42:46.815Z</time>
      </trkpt>
      <trkpt lat="44.58734" lon="3.5259">
        <ele>1221.710852</ele>
        <time>2019-10-07T16:43:12.083Z</time>
      </trkpt>
      <trkpt lat="44.58822" lon="3.52571">
        <ele>1229.273467</ele>
        <time>2019-10-07T16:44:30.022Z</time>
      </trkpt>
      <trkpt lat="44.58866" lon="3.52546">
        <ele>1233.5231</ele>
        <time>2019-10-07T16:45:10.380Z</time>
      </trkpt>
      <trkpt lat="44.58968" lon="3.52376">
        <ele>1246.499754</ele>
        <time>2019-10-07T16:47:18.661Z</time>
      </trkpt>
      <trkpt lat="44.58994" lon="3.52348">
        <ele>1248.330062</ele>
        <time>2019-10-07T16:47:41.349Z</time>
      </trkpt>
      <trkpt lat="44.59013" lon="3.52289">
        <ele>1250.958472</ele>
        <time>2019-10-07T16:48:11.665Z</time>
      </trkpt>
      <trkpt lat="44.59091" lon="3.52154">
        <ele>1255.62262</ele>
        <time>2019-10-07T16:49:16.043Z</time>
      </trkpt>
      <trkpt lat="44.59163" lon="3.52084">
        <ele>1257.370959</ele>
        <time>2019-10-07T16:49:53.229Z</time>
      </trkpt>
      <trkpt lat="44.59248" lon="3.52083">
        <ele>1259.866136</ele>
        <time>2019-10-07T16:50:32.062Z</time>
      </trkpt>
      <trkpt lat="44.59518" lon="3.52096">
        <ele>1270.540971</ele>
        <time>2019-10-07T16:53:09.937Z</time>
      </trkpt>
      <trkpt lat="44.59668" lon="3.52123">
        <ele>1277.364101</ele>
        <time>2019-10-07T16:54:43.427Z</time>
      </trkpt>
      <trkpt lat="44.59757" lon="3.52116">
        <ele>1280.943221</ele>
        <time>2019-10-07T16:55:34.801Z</time>
      </trkpt>
      <trkpt lat="44.5983" lon="3.52091">
        <ele>1283.0984</ele>
        <time>2019-10-07T16:56:14.118Z</time>
      </trkpt>
      <trkpt lat="44.59903" lon="3.52088">
        <ele>1285.178685</ele>
        <time>2019-10-07T16:56:49.180Z</time>
      </trkpt>
      <trkpt lat="44.60062" lon="3.52062">
        <ele>1288.259624</ele>
        <time>2019-10-07T16:58:02.773Z</time>
      </trkpt>
      <trkpt lat="44.60099" lon="3.52063">
        <ele>1288.990747</ele>
        <time>2019-10-07T16:58:19.815Z</time>
      </trkpt>
      <trkpt lat="44.60143" lon="3.52089">
        <ele>1290.040939</ele>
        <time>2019-10-07T16:58:42.711Z</time>
      </trkpt>
      <trkpt lat="44.60251" lon="3.52099">
        <ele>1292.417614</ele>
        <time>2019-10-07T16:59:36.399Z</time>
      </trkpt>
      <trkpt lat="44.60328" lon="3.52129">
        <ele>1292.963541</ele>
        <time>2019-10-07T17:00:12.596Z</time>
      </trkpt>
      <trkpt lat="44.60382" lon="3.5218">
        <ele>1293.258907</ele>
        <time>2019-10-07T17:00:37.053Z</time>
      </trkpt>
      <trkpt lat="44.60439" lon="3.52233">
        <ele>1293.236682</ele>
        <time>2019-10-07T17:01:00.616Z</time>
      </trkpt>
      <trkpt lat="44.60504" lon="3.52265">
        <ele>1292.575097</ele>
        <time>2019-10-07T17:01:23.662Z</time>
      </trkpt>
      <trkpt lat="44.60675" lon="3.52519">
        <ele>1291.449258</ele>
        <time>2019-10-07T17:02:51.497Z</time>
      </trkpt>
      <trkpt lat="44.60747" lon="3.52616">
        <ele>1293.393854</ele>
        <time>2019-10-07T17:03:38.247Z</time>
      </trkpt>
      <trkpt lat="44.60819" lon="3.52695">
        <ele>1295.625406</ele>
        <time>2019-10-07T17:04:27.246Z</time>
      </trkpt>
      <trkpt lat="44.60891" lon="3.5276">
        <ele>1297.317977</ele>
        <time>2019-10-07T17:05:12.274Z</time>
      </trkpt>
      <trkpt lat="44.60926" lon="3.52791">
        <ele>1298.115384</ele>
        <time>2019-10-07T17:05:31.950Z</time>
      </trkpt>
      <trkpt lat="44.6099" lon="3.52908">
        <ele>1298.615879</ele>
        <time>2019-10-07T17:06:12.996Z</time>
      </trkpt>
      <trkpt lat="44.61006" lon="3.52922">
        <ele>1298.342616</ele>
        <time>2019-10-07T17:06:19.301Z</time>
      </trkpt>
      <trkpt lat="44.61044" lon="3.52944">
        <ele>1297.733039</ele>
        <time>2019-10-07T17:06:32.816Z</time>
      </trkpt>
      <trkpt lat="44.61147" lon="3.5304">
        <ele>1295.568077</ele>
        <time>2019-10-07T17:07:11.933Z</time>
      </trkpt>
      <trkpt lat="44.61208" lon="3.53148">
        <ele>1293.467312</ele>
        <time>2019-10-07T17:07:43.492Z</time>
      </trkpt>
      <trkpt lat="44.61241" lon="3.53146">
        <ele>1292.767195</ele>
        <time>2019-10-07T17:07:54.237Z</time>
      </trkpt>
      <trkpt lat="44.61286" lon="3.5312">
        <ele>1292.441008</ele>
        <time>2019-10-07T17:08:11.622Z</time>
      </trkpt>
      <trkpt lat="44.61306" lon="3.53116">
        <ele>1292.312785</ele>
        <time>2019-10-07T17:08:18.389Z</time>
      </trkpt>
      <trkpt lat="44.61367" lon="3.53144">
        <ele>1291.889112</ele>
        <time>2019-10-07T17:08:41.876Z</time>
      </trkpt>
      <trkpt lat="44.61374" lon="3.53151">
        <ele>1291.835688</ele>
        <time>2019-10-07T17:08:44.615Z</time>
      </trkpt>
      <trkpt lat="44.61395" lon="3.53173">
        <ele>1291.666493</ele>
        <time>2019-10-07T17:08:54.482Z</time>
      </trkpt>
      <trkpt lat="44.61514" lon="3.53202">
        <ele>1290.678268</ele>
        <time>2019-10-07T17:09:37.834Z</time>
      </trkpt>
      <trkpt lat="44.61538" lon="3.53193">
        <ele>1290.46487</ele>
        <time>2019-10-07T17:09:46.996Z</time>
      </trkpt>
      <trkpt lat="44.61577" lon="3.53161">
        <ele>1290.091345</ele>
        <time>2019-10-07T17:10:01.935Z</time>
      </trkpt>
      <trkpt lat="44.61652" lon="3.53086">
        <ele>1286.530642</ele>
        <time>2019-10-07T17:10:31.006Z</time>
      </trkpt>
      <trkpt lat="44.61687" lon="3.52985">
        <ele>1283.41545</ele>
        <time>2019-10-07T17:10:54.174Z</time>
      </trkpt>
      <trkpt lat="44.61705" lon="3.52961">
        <ele>1281.681543</ele>
        <time>2019-10-07T17:11:01.063Z</time>
      </trkpt>
      <trkpt lat="44.6176" lon="3.52924">
        <ele>1276.402815</ele>
        <time>2019-10-07T17:11:17.491Z</time>
      </trkpt>
      <trkpt lat="44.61819" lon="3.529">
        <ele>1271.090191</ele>
        <time>2019-10-07T17:11:33.406Z</time>
      </trkpt>
      <trkpt lat="44.6186" lon="3.5287">
        <ele>1266.976895</ele>
        <time>2019-10-07T17:11:45.182Z</time>
      </trkpt>
      <trkpt lat="44.61946" lon="3.52827">
        <ele>1258.003522</ele>
        <time>2019-10-07T17:12:08.582Z</time>
      </trkpt>
      <trkpt lat="44.61954" lon="3.52826">
        <ele>1257.153405</ele>
        <time>2019-10-07T17:12:10.656Z</time>
      </trkpt>
      <trkpt lat="44.6196" lon="3.52836">
        <ele>1256.282155</ele>
        <time>2019-10-07T17:12:12.946Z</time>
      </trkpt>
      <trkpt lat="44.61974" lon="3.52872">
        <ele>1253.41467</ele>
        <time>2019-10-07T17:12:20.500Z</time>
      </trkpt>
      <trkpt lat="44.61982" lon="3.52858">
        <ele>1252.103996</ele>
        <time>2019-10-07T17:12:24.051Z</time>
      </trkpt>
      <trkpt lat="44.61998" lon="3.5285">
        <ele>1250.416119</ele>
        <time>2019-10-07T17:12:28.513Z</time>
      </trkpt>
      <trkpt lat="44.61994" lon="3.52921">
        <ele>1246.152253</ele>
        <time>2019-10-07T17:12:41.784Z</time>
      </trkpt>
      <trkpt lat="44.62019" lon="3.52989">
        <ele>1241.678378</ele>
        <time>2019-10-07T17:12:56.394Z</time>
      </trkpt>
      <trkpt lat="44.62039" lon="3.53103">
        <ele>1234.776151</ele>
        <time>2019-10-07T17:13:19.316Z</time>
      </trkpt>
      <trkpt lat="44.62045" lon="3.53115">
        <ele>1233.836314</ele>
        <time>2019-10-07T17:13:21.940Z</time>
      </trkpt>
      <trkpt lat="44.62054" lon="3.53116">
        <ele>1232.93027</ele>
        <time>2019-10-07T17:13:24.329Z</time>
      </trkpt>
      <trkpt lat="44.6206" lon="3.53097">
        <ele>1231.485245</ele>
        <time>2019-10-07T17:13:28.033Z</time>
      </trkpt>
      <trkpt lat="44.62061" lon="3.53075">
        <ele>1229.97544</ele>
        <time>2019-10-07T17:13:31.958Z</time>
      </trkpt>
      <trkpt lat="44.62068" lon="3.53072">
        <ele>1229.243967</ele>
        <time>2019-10-07T17:13:33.775Z</time>
      </trkpt>
      <trkpt lat="44.62073" lon="3.53081">
        <ele>1228.412449</ele>
        <time>2019-10-07T17:13:35.922Z</time>
      </trkpt>
      <trkpt lat="44.62094" lon="3.53173">
        <ele>1221.694601</ele>
        <time>2019-10-07T17:13:53.433Z</time>
      </trkpt>
      <trkpt lat="44.62097" lon="3.5321">
        <ele>1219.10751</ele>
        <time>2019-10-07T17:14:00.280Z</time>
      </trkpt>
      <trkpt lat="44.621" lon="3.53228">
        <ele>1217.767966</ele>
        <time>2019-10-07T17:14:03.766Z</time>
      </trkpt>
      <trkpt lat="44.62104" lon="3.53231">
        <ele>1217.331812</ele>
        <time>2019-10-07T17:14:04.442Z</time>
      </trkpt>
      <trkpt lat="44.62112" lon="3.53238">
        <ele>1216.672922</ele>
        <time>2019-10-07T17:14:05.952Z</time>
      </trkpt>
      <trkpt lat="44.62124" lon="3.5324">
        <ele>1215.874995</ele>
        <time>2019-10-07T17:14:07.704Z</time>
      </trkpt>
      <trkpt lat="44.62158" lon="3.53228">
        <ele>1213.544051</ele>
        <time>2019-10-07T17:14:13.017Z</time>
      </trkpt>
      <trkpt lat="44.62168" lon="3.53247">
        <ele>1212.414417</ele>
        <time>2019-10-07T17:14:15.673Z</time>
      </trkpt>
      <trkpt lat="44.62166" lon="3.53281">
        <ele>1210.800226</ele>
        <time>2019-10-07T17:14:19.407Z</time>
      </trkpt>
      <trkpt lat="44.62169" lon="3.53296">
        <ele>1210.06316</ele>
        <time>2019-10-07T17:14:21.171Z</time>
      </trkpt>
      <trkpt lat="44.62176" lon="3.53301">
        <ele>1209.54306</ele>
        <time>2019-10-07T17:14:22.412Z</time>
      </trkpt>
      <trkpt lat="44.62182" lon="3.53305">
        <ele>1209.051286</ele>
        <time>2019-10-07T17:14:23.550Z</time>
      </trkpt>
      <trkpt lat="44.62186" lon="3.53303">
        <ele>1208.811539</ele>
        <time>2019-10-07T17:14:24.084Z</time>
      </trkpt>
      <trkpt lat="44.62195" lon="3.53272">
        <ele>1207.217511</ele>
        <time>2019-10-07T17:14:27.943Z</time>
      </trkpt>
      <trkpt lat="44.62196" lon="3.53261">
        <ele>1206.686942</ele>
        <time>2019-10-07T17:14:29.201Z</time>
      </trkpt>
      <trkpt lat="44.62208" lon="3.53224">
        <ele>1205.465533</ele>
        <time>2019-10-07T17:14:35.086Z</time>
      </trkpt>
      <trkpt lat="44.6222" lon="3.53206">
        <ele>1205.713</ele>
        <time>2019-10-07T17:14:38.799Z</time>
      </trkpt>
      <trkpt lat="44.62222" lon="3.53184">
        <ele>1205.934159</ele>
        <time>2019-10-07T17:14:43.285Z</time>
      </trkpt>
      <trkpt lat="44.62224" lon="3.53161">
        <ele>1206.169099</ele>
        <time>2019-10-07T17:14:47.447Z</time>
      </trkpt>
      <trkpt lat="44.62217" lon="3.53116">
        <ele>1206.630375</ele>
        <time>2019-10-07T17:14:57.290Z</time>
      </trkpt>
      <trkpt lat="44.6222" lon="3.5306">
        <ele>1207.190594</ele>
        <time>2019-10-07T17:15:11.370Z</time>
      </trkpt>
      <trkpt lat="44.62224" lon="3.53045">
        <ele>1207.352698</ele>
        <time>2019-10-07T17:15:14.957Z</time>
      </trkpt>
      <trkpt lat="44.62232" lon="3.53025">
        <ele>1207.581115</ele>
        <time>2019-10-07T17:15:25.560Z</time>
      </trkpt>
      <trkpt lat="44.62243" lon="3.53005">
        <ele>1207.844523</ele>
        <time>2019-10-07T17:15:34.813Z</time>
      </trkpt>
      <trkpt lat="44.62264" lon="3.52983">
        <ele>1209.313318</ele>
        <time>2019-10-07T17:15:50.998Z</time>
      </trkpt>
      <trkpt lat="44.62303" lon="3.52974">
        <ele>1211.779661</ele>
        <time>2019-10-07T17:16:16.164Z</time>
      </trkpt>
      <trkpt lat="44.62345" lon="3.52926">
        <ele>1215.113926</ele>
        <time>2019-10-07T17:16:54.784Z</time>
      </trkpt>
      <trkpt lat="44.62353" lon="3.52869">
        <ele>1217.655135</ele>
        <time>2019-10-07T17:17:24.136Z</time>
      </trkpt>
      <trkpt lat="44.62359" lon="3.52747">
        <ele>1224.622805</ele>
        <time>2019-10-07T17:18:30.057Z</time>
      </trkpt>
      <trkpt lat="44.62387" lon="3.52671">
        <ele>1229.773079</ele>
        <time>2019-10-07T17:19:19.668Z</time>
      </trkpt>
      <trkpt lat="44.62424" lon="3.52602">
        <ele>1234.957307</ele>
        <time>2019-10-07T17:20:12.064Z</time>
      </trkpt>
      <trkpt lat="44.62471" lon="3.52566">
        <ele>1238.805678</ele>
        <time>2019-10-07T17:20:56.922Z</time>
      </trkpt>
      <trkpt lat="44.62515" lon="3.52554">
        <ele>1242.028236</ele>
        <time>2019-10-07T17:21:31.344Z</time>
      </trkpt>
      <trkpt lat="44.62541" lon="3.52537">
        <ele>1244.065465</ele>
        <time>2019-10-07T17:21:51.464Z</time>
      </trkpt>
      <trkpt lat="44.62573" lon="3.52491">
        <ele>1247.319202</ele>
        <time>2019-10-07T17:22:20.248Z</time>
      </trkpt>
      <trkpt lat="44.62593" lon="3.52471">
        <ele>1247.896245</ele>
        <time>2019-10-07T17:22:34.085Z</time>
      </trkpt>
      <trkpt lat="44.62692" lon="3.52408">
        <ele>1250.421917</ele>
        <time>2019-10-07T17:23:23.391Z</time>
      </trkpt>
      <trkpt lat="44.62716" lon="3.52373">
        <ele>1251.22859</ele>
        <time>2019-10-07T17:23:38.123Z</time>
      </trkpt>
      <trkpt lat="44.62736" lon="3.52344">
        <ele>1252.307592</ele>
        <time>2019-10-07T17:23:50.708Z</time>
      </trkpt>
      <trkpt lat="44.62758" lon="3.52304">
        <ele>1253.967867</ele>
        <time>2019-10-07T17:24:07.945Z</time>
      </trkpt>
      <trkpt lat="44.62766" lon="3.52256">
        <ele>1255.613184</ele>
        <time>2019-10-07T17:24:27.470Z</time>
      </trkpt>
      <trkpt lat="44.62825" lon="3.52132">
        <ele>1261.255013</ele>
        <time>2019-10-07T17:25:39.620Z</time>
      </trkpt>
      <trkpt lat="44.62847" lon="3.52071">
        <ele>1266.062029</ele>
        <time>2019-10-07T17:26:21.304Z</time>
      </trkpt>
      <trkpt lat="44.62907" lon="3.52035">
        <ele>1272.417584</ele>
        <time>2019-10-07T17:27:21.244Z</time>
      </trkpt>
      <trkpt lat="44.62962" lon="3.52027">
        <ele>1277.747267</ele>
        <time>2019-10-07T17:28:11.388Z</time>
      </trkpt>
      <trkpt lat="44.62984" lon="3.52034">
        <ele>1279.330578</ele>
        <time>2019-10-07T17:28:34.006Z</time>
      </trkpt>
      <trkpt lat="44.63022" lon="3.52082">
        <ele>1282.878864</ele>
        <time>2019-10-07T17:29:09.307Z</time>
      </trkpt>
      <trkpt lat="44.63079" lon="3.5215">
        <ele>1288.138371</ele>
        <time>2019-10-07T17:29:50.298Z</time>
      </trkpt>
      <trkpt lat="44.63087" lon="3.52157">
        <ele>1288.733388</ele>
        <time>2019-10-07T17:29:56.600Z</time>
      </trkpt>
      <trkpt lat="44.63097" lon="3.52165">
        <ele>1289.58471</ele>
        <time>2019-10-07T17:30:00.861Z</time>
      </trkpt>
      <trkpt lat="44.63121" lon="3.52181">
        <ele>1289.454732</ele>
        <time>2019-10-07T17:30:09.539Z</time>
      </trkpt>
      <trkpt lat="44.63131" lon="3.52181">
        <ele>1289.123577</ele>
        <time>2019-10-07T17:30:11.550Z</time>
      </trkpt>
      <trkpt lat="44.63138" lon="3.52179">
        <ele>1288.932948</ele>
        <time>2019-10-07T17:30:12.650Z</time>
      </trkpt>
      <trkpt lat="44.63142" lon="3.52178">
        <ele>1288.788889</ele>
        <time>2019-10-07T17:30:13.422Z</time>
      </trkpt>
      <trkpt lat="44.63151" lon="3.52172">
        <ele>1288.487707</ele>
        <time>2019-10-07T17:30:15.950Z</time>
      </trkpt>
      <trkpt lat="44.63157" lon="3.52163">
        <ele>1288.2114</ele>
        <time>2019-10-07T17:30:18.010Z</time>
      </trkpt>
      <trkpt lat="44.63162" lon="3.52153">
        <ele>1287.940758</ele>
        <time>2019-10-07T17:30:19.409Z</time>
      </trkpt>
      <trkpt lat="44.63159" lon="3.5205">
        <ele>1285.671214</ele>
        <time>2019-10-07T17:30:31.993Z</time>
      </trkpt>
      <trkpt lat="44.6316" lon="3.52034">
        <ele>1285.336213</ele>
        <time>2019-10-07T17:30:33.648Z</time>
      </trkpt>
      <trkpt lat="44.63155" lon="3.52014">
        <ele>1284.853465</ele>
        <time>2019-10-07T17:30:38.222Z</time>
      </trkpt>
      <trkpt lat="44.63147" lon="3.51984">
        <ele>1283.698321</ele>
        <time>2019-10-07T17:30:44.259Z</time>
      </trkpt>
      <trkpt lat="44.63085" lon="3.51849">
        <ele>1275.479451</ele>
        <time>2019-10-07T17:31:15.321Z</time>
      </trkpt>
      <trkpt lat="44.63079" lon="3.51801">
        <ele>1273.008823</ele>
        <time>2019-10-07T17:31:24.641Z</time>
      </trkpt>
      <trkpt lat="44.63087" lon="3.51761">
        <ele>1270.74014</ele>
        <time>2019-10-07T17:31:32.832Z</time>
      </trkpt>
      <trkpt lat="44.63101" lon="3.51735">
        <ele>1268.704696</ele>
        <time>2019-10-07T17:31:39.300Z</time>
      </trkpt>
      <trkpt lat="44.63107" lon="3.51708">
        <ele>1266.964582</ele>
        <time>2019-10-07T17:31:44.678Z</time>
      </trkpt>
      <trkpt lat="44.63138" lon="3.51671">
        <ele>1263.476029</ele>
        <time>2019-10-07T17:31:55.473Z</time>
      </trkpt>
      <trkpt lat="44.63113" lon="3.51653">
        <ele>1261.076012</ele>
        <time>2019-10-07T17:32:02.778Z</time>
      </trkpt>
      <trkpt lat="44.63109" lon="3.51641">
        <ele>1260.306006</ele>
        <time>2019-10-07T17:32:05.128Z</time>
      </trkpt>
      <trkpt lat="44.63106" lon="3.51427">
        <ele>1245.462245</ele>
        <time>2019-10-07T17:32:44.327Z</time>
      </trkpt>
      <trkpt lat="44.63108" lon="3.51375">
        <ele>1241.616396</ele>
        <time>2019-10-07T17:32:53.856Z</time>
      </trkpt>
      <trkpt lat="44.63117" lon="3.51327">
        <ele>1237.971399</ele>
        <time>2019-10-07T17:33:02.912Z</time>
      </trkpt>
      <trkpt lat="44.63104" lon="3.51275">
        <ele>1233.96087</ele>
        <time>2019-10-07T17:33:13.032Z</time>
      </trkpt>
      <trkpt lat="44.63107" lon="3.51259">
        <ele>1232.794949</ele>
        <time>2019-10-07T17:33:15.982Z</time>
      </trkpt>
      <trkpt lat="44.63132" lon="3.51215">
        <ele>1228.725547</ele>
        <time>2019-10-07T17:33:26.291Z</time>
      </trkpt>
      <trkpt lat="44.63153" lon="3.5116">
        <ele>1224.204694</ele>
        <time>2019-10-07T17:33:37.793Z</time>
      </trkpt>
      <trkpt lat="44.63177" lon="3.51129">
        <ele>1220.953926</ele>
        <time>2019-10-07T17:33:46.059Z</time>
      </trkpt>
      <trkpt lat="44.63212" lon="3.50994">
        <ele>1210.988834</ele>
        <time>2019-10-07T17:34:12.477Z</time>
      </trkpt>
      <trkpt lat="44.63246" lon="3.50953">
        <ele>1206.615578</ele>
        <time>2019-10-07T17:34:24.168Z</time>
      </trkpt>
      <trkpt lat="44.63311" lon="3.50807">
        <ele>1194.645847</ele>
        <time>2019-10-07T17:34:55.854Z</time>
      </trkpt>
      <trkpt lat="44.63323" lon="3.50738">
        <ele>1189.640437</ele>
        <time>2019-10-07T17:35:09.022Z</time>
      </trkpt>
      <trkpt lat="44.63328" lon="3.50643">
        <ele>1182.909113</ele>
        <time>2019-10-07T17:35:26.444Z</time>
      </trkpt>
      <trkpt lat="44.63353" lon="3.50554">
        <ele>1175.869143</ele>
        <time>2019-10-07T17:35:43.901Z</time>
      </trkpt>
      <trkpt lat="44.63408" lon="3.50475">
        <ele>1167.717523</ele>
        <time>2019-10-07T17:36:04.183Z</time>
      </trkpt>
      <trkpt lat="44.63438" lon="3.50476">
        <ele>1165.039386</ele>
        <time>2019-10-07T17:36:11.490Z</time>
      </trkpt>
      <trkpt lat="44.63449" lon="3.50485">
        <ele>1164.235985</ele>
        <time>2019-10-07T17:36:14.716Z</time>
      </trkpt>
      <trkpt lat="44.6344" lon="3.50337">
        <ele>1157.549142</ele>
        <time>2019-10-07T17:36:43.181Z</time>
      </trkpt>
      <trkpt lat="44.63434" lon="3.50328">
        <ele>1157.007327</ele>
        <time>2019-10-07T17:36:45.327Z</time>
      </trkpt>
      <trkpt lat="44.63418" lon="3.50298">
        <ele>1155.311772</ele>
        <time>2019-10-07T17:36:54.679Z</time>
      </trkpt>
      <trkpt lat="44.634" lon="3.50281">
        <ele>1154.266785</ele>
        <time>2019-10-07T17:37:01.506Z</time>
      </trkpt>
      <trkpt lat="44.63377" lon="3.50288">
        <ele>1155.091676</ele>
        <time>2019-10-07T17:37:09.433Z</time>
      </trkpt>
      <trkpt lat="44.6336" lon="3.50279">
        <ele>1155.727716</ele>
        <time>2019-10-07T17:37:19.260Z</time>
      </trkpt>
      <trkpt lat="44.63347" lon="3.50226">
        <ele>1157.1393</ele>
        <time>2019-10-07T17:37:39.703Z</time>
      </trkpt>
      <trkpt lat="44.63336" lon="3.50231">
        <ele>1157.547439</ele>
        <time>2019-10-07T17:37:44.016Z</time>
      </trkpt>
      <trkpt lat="44.63333" lon="3.50268">
        <ele>1158.469831</ele>
        <time>2019-10-07T17:38:02.555Z</time>
      </trkpt>
      <trkpt lat="44.63322" lon="3.50275">
        <ele>1158.891077</ele>
        <time>2019-10-07T17:38:11.792Z</time>
      </trkpt>
      <trkpt lat="44.63315" lon="3.50257">
        <ele>1159.410682</ele>
        <time>2019-10-07T17:38:22.829Z</time>
      </trkpt>
      <trkpt lat="44.63306" lon="3.50197">
        <ele>1161.411942</ele>
        <time>2019-10-07T17:38:55.420Z</time>
      </trkpt>
      <trkpt lat="44.63285" lon="3.50169">
        <ele>1163.38375</ele>
        <time>2019-10-07T17:39:16.866Z</time>
      </trkpt>
      <trkpt lat="44.63247" lon="3.50148">
        <ele>1166.238241</ele>
        <time>2019-10-07T17:39:46.409Z</time>
      </trkpt>
      <trkpt lat="44.63233" lon="3.50147">
        <ele>1167.194696</ele>
        <time>2019-10-07T17:39:56.017Z</time>
      </trkpt>
      <trkpt lat="44.63231" lon="3.50134">
        <ele>1167.855319</ele>
        <time>2019-10-07T17:40:02.516Z</time>
      </trkpt>
      <trkpt lat="44.63276" lon="3.50058">
        <ele>1172.758851</ele>
        <time>2019-10-07T17:40:51.628Z</time>
      </trkpt>
      <trkpt lat="44.63282" lon="3.50038">
        <ele>1173.855913</ele>
        <time>2019-10-07T17:41:02.815Z</time>
      </trkpt>
      <trkpt lat="44.63262" lon="3.49975">
        <ele>1177.477403</ele>
        <time>2019-10-07T17:41:38.975Z</time>
      </trkpt>
      <trkpt lat="44.63264" lon="3.49953">
        <ele>1178.646082</ele>
        <time>2019-10-07T17:41:49.998Z</time>
      </trkpt>
      <trkpt lat="44.63279" lon="3.4992">
        <ele>1180.706176</ele>
        <time>2019-10-07T17:42:10.337Z</time>
      </trkpt>
      <trkpt lat="44.63256" lon="3.49904">
        <ele>1182.574016</ele>
        <time>2019-10-07T17:42:26.609Z</time>
      </trkpt>
      <trkpt lat="44.63235" lon="3.49873">
        <ele>1184.838522</ele>
        <time>2019-10-07T17:42:45.317Z</time>
      </trkpt>
      <trkpt lat="44.63227" lon="3.49825">
        <ele>1187.383288</ele>
        <time>2019-10-07T17:43:07.392Z</time>
      </trkpt>
      <trkpt lat="44.63222" lon="3.49736">
        <ele>1191.907699</ele>
        <time>2019-10-07T17:43:49.035Z</time>
      </trkpt>
      <trkpt lat="44.632" lon="3.49672">
        <ele>1195.463536</ele>
        <time>2019-10-07T17:44:20.480Z</time>
      </trkpt>
      <trkpt lat="44.63181" lon="3.49642">
        <ele>1197.514023</ele>
        <time>2019-10-07T17:44:35.647Z</time>
      </trkpt>
      <trkpt lat="44.63157" lon="3.49627">
        <ele>1199.069828</ele>
        <time>2019-10-07T17:44:46.382Z</time>
      </trkpt>
      <trkpt lat="44.63131" lon="3.49597">
        <ele>1200.114655</ele>
        <time>2019-10-07T17:45:01.136Z</time>
      </trkpt>
      <trkpt lat="44.63121" lon="3.49586">
        <ele>1200.525695</ele>
        <time>2019-10-07T17:45:08.849Z</time>
      </trkpt>
      <trkpt lat="44.63119" lon="3.49567">
        <ele>1200.959684</ele>
        <time>2019-10-07T17:45:14.084Z</time>
      </trkpt>
      <trkpt lat="44.6311" lon="3.49533">
        <ele>1201.766118</ele>
        <time>2019-10-07T17:45:24.792Z</time>
      </trkpt>
      <trkpt lat="44.63107" lon="3.49516">
        <ele>1202.153928</ele>
        <time>2019-10-07T17:45:28.702Z</time>
      </trkpt>
      <trkpt lat="44.63108" lon="3.49507">
        <ele>1202.355055</ele>
        <time>2019-10-07T17:45:29.972Z</time>
      </trkpt>
      <trkpt lat="44.63107" lon="3.4947">
        <ele>1203.168566</ele>
        <time>2019-10-07T17:45:40.551Z</time>
      </trkpt>
      <trkpt lat="44.63105" lon="3.49459">
        <ele>1203.435025</ele>
        <time>2019-10-07T17:45:42.193Z</time>
      </trkpt>
      <trkpt lat="44.63122" lon="3.4944">
        <ele>1204.115628</ele>
        <time>2019-10-07T17:45:54.201Z</time>
      </trkpt>
      <trkpt lat="44.6317" lon="3.49328">
        <ele>1204.734965</ele>
        <time>2019-10-07T17:46:31.121Z</time>
      </trkpt>
      <trkpt lat="44.63227" lon="3.49264">
        <ele>1204.980145</ele>
        <time>2019-10-07T17:46:59.171Z</time>
      </trkpt>
      <trkpt lat="44.63298" lon="3.49217">
        <ele>1203.793427</ele>
        <time>2019-10-07T17:47:26.698Z</time>
      </trkpt>
      <trkpt lat="44.63353" lon="3.49122">
        <ele>1201.74158</ele>
        <time>2019-10-07T17:47:54.284Z</time>
      </trkpt>
      <trkpt lat="44.63354" lon="3.49105">
        <ele>1201.453319</ele>
        <time>2019-10-07T17:47:57.995Z</time>
      </trkpt>
      <trkpt lat="44.63343" lon="3.4906">
        <ele>1200.433172</ele>
        <time>2019-10-07T17:48:08.298Z</time>
      </trkpt>
      <trkpt lat="44.63337" lon="3.49016">
        <ele>1198.803369</ele>
        <time>2019-10-07T17:48:17.752Z</time>
      </trkpt>
      <trkpt lat="44.63339" lon="3.49002">
        <ele>1198.305339</ele>
        <time>2019-10-07T17:48:20.498Z</time>
      </trkpt>
      <trkpt lat="44.63353" lon="3.48904">
        <ele>1194.65621</ele>
        <time>2019-10-07T17:48:41.076Z</time>
      </trkpt>
      <trkpt lat="44.63348" lon="3.48843">
        <ele>1192.408668</ele>
        <time>2019-10-07T17:48:53.456Z</time>
      </trkpt>
      <trkpt lat="44.63369" lon="3.4873">
        <ele>1186.483056</ele>
        <time>2019-10-07T17:49:16.179Z</time>
      </trkpt>
      <trkpt lat="44.63364" lon="3.48666">
        <ele>1182.975319</ele>
        <time>2019-10-07T17:49:28.511Z</time>
      </trkpt>
      <trkpt lat="44.63357" lon="3.48592">
        <ele>1178.904121</ele>
        <time>2019-10-07T17:49:42.593Z</time>
      </trkpt>
      <trkpt lat="44.63354" lon="3.48546">
        <ele>1176.516003</ele>
        <time>2019-10-07T17:49:47.679Z</time>
      </trkpt>
      <trkpt lat="44.6335" lon="3.48503">
        <ele>1174.364862</ele>
        <time>2019-10-07T17:49:52.366Z</time>
      </trkpt>
      <trkpt lat="44.63346" lon="3.4847">
        <ele>1172.723577</ele>
        <time>2019-10-07T17:49:56.006Z</time>
      </trkpt>
      <trkpt lat="44.63347" lon="3.48462">
        <ele>1172.278484</ele>
        <time>2019-10-07T17:49:56.967Z</time>
      </trkpt>
      <trkpt lat="44.63348" lon="3.48458">
        <ele>1172.068088</ele>
        <time>2019-10-07T17:49:57.384Z</time>
      </trkpt>
      <trkpt lat="44.63348" lon="3.48445">
        <ele>1171.424376</ele>
        <time>2019-10-07T17:49:58.784Z</time>
      </trkpt>
      <trkpt lat="44.63337" lon="3.4841">
        <ele>1169.555564</ele>
        <time>2019-10-07T17:50:02.743Z</time>
      </trkpt>
      <trkpt lat="44.63305" lon="3.4837">
        <ele>1166.515281</ele>
        <time>2019-10-07T17:50:09.486Z</time>
      </trkpt>
      <trkpt lat="44.6329" lon="3.48359">
        <ele>1165.335686</ele>
        <time>2019-10-07T17:50:12.125Z</time>
      </trkpt>
      <trkpt lat="44.63288" lon="3.4835">
        <ele>1165.009948</ele>
        <time>2019-10-07T17:50:14.188Z</time>
      </trkpt>
      <trkpt lat="44.63253" lon="3.48292">
        <ele>1162.712294</ele>
        <time>2019-10-07T17:50:29.933Z</time>
      </trkpt>
      <trkpt lat="44.63236" lon="3.48245">
        <ele>1161.092795</ele>
        <time>2019-10-07T17:50:41.261Z</time>
      </trkpt>
      <trkpt lat="44.63236" lon="3.48208">
        <ele>1159.973559</ele>
        <time>2019-10-07T17:50:49.142Z</time>
      </trkpt>
      <trkpt lat="44.63258" lon="3.48137">
        <ele>1157.624599</ele>
        <time>2019-10-07T17:51:05.788Z</time>
      </trkpt>
      <trkpt lat="44.63258" lon="3.48135">
        <ele>1157.523026</ele>
        <time>2019-10-07T17:51:06.386Z</time>
      </trkpt>
      <trkpt lat="44.63273" lon="3.4808">
        <ele>1155.336088</ele>
        <time>2019-10-07T17:51:18.648Z</time>
      </trkpt>
      <trkpt lat="44.6328" lon="3.48056">
        <ele>1154.38807</ele>
        <time>2019-10-07T17:51:21.577Z</time>
      </trkpt>
      <trkpt lat="44.633" lon="3.48035">
        <ele>1153.054372</ele>
        <time>2019-10-07T17:51:25.760Z</time>
      </trkpt>
      <trkpt lat="44.63305" lon="3.47998">
        <ele>1151.654099</ele>
        <time>2019-10-07T17:51:30.101Z</time>
      </trkpt>
      <trkpt lat="44.63325" lon="3.47951">
        <ele>1149.614773</ele>
        <time>2019-10-07T17:51:36.302Z</time>
      </trkpt>
      <trkpt lat="44.63338" lon="3.47942">
        <ele>1148.821805</ele>
        <time>2019-10-07T17:51:38.568Z</time>
      </trkpt>
      <trkpt lat="44.63344" lon="3.47938">
        <ele>1148.484919</ele>
        <time>2019-10-07T17:51:39.658Z</time>
      </trkpt>
      <trkpt lat="44.63346" lon="3.47921">
        <ele>1148.042157</ele>
        <time>2019-10-07T17:51:41.807Z</time>
      </trkpt>
      <trkpt lat="44.63361" lon="3.47917">
        <ele>1147.872508</ele>
        <time>2019-10-07T17:51:44.081Z</time>
      </trkpt>
      <trkpt lat="44.6338" lon="3.47904">
        <ele>1147.636009</ele>
        <time>2019-10-07T17:51:47.767Z</time>
      </trkpt>
      <trkpt lat="44.63383" lon="3.47898">
        <ele>1147.579813</ele>
        <time>2019-10-07T17:51:48.559Z</time>
      </trkpt>
      <trkpt lat="44.63384" lon="3.4789">
        <ele>1147.520198</ele>
        <time>2019-10-07T17:51:49.415Z</time>
      </trkpt>
      <trkpt lat="44.63386" lon="3.47875">
        <ele>1147.396688</ele>
        <time>2019-10-07T17:51:52.916Z</time>
      </trkpt>
      <trkpt lat="44.63387" lon="3.47865">
        <ele>1147.317091</ele>
        <time>2019-10-07T17:51:54.146Z</time>
      </trkpt>
      <trkpt lat="44.6339" lon="3.47858">
        <ele>1147.256372</ele>
        <time>2019-10-07T17:51:55.188Z</time>
      </trkpt>
      <trkpt lat="44.63402" lon="3.47852">
        <ele>1147.105279</ele>
        <time>2019-10-07T17:51:57.487Z</time>
      </trkpt>
      <trkpt lat="44.63424" lon="3.47838">
        <ele>1146.841329</ele>
        <time>2019-10-07T17:52:02.962Z</time>
      </trkpt>
      <trkpt lat="44.6344" lon="3.47805">
        <ele>1146.525783</ele>
        <time>2019-10-07T17:52:09.608Z</time>
      </trkpt>
      <trkpt lat="44.63445" lon="3.4781">
        <ele>1146.462758</ele>
        <time>2019-10-07T17:52:11.833Z</time>
      </trkpt>
      <trkpt lat="44.63453" lon="3.47816">
        <ele>1146.354545</ele>
        <time>2019-10-07T17:52:13.763Z</time>
      </trkpt>
      <trkpt lat="44.63464" lon="3.47825">
        <ele>1146.217947</ele>
        <time>2019-10-07T17:52:19.017Z</time>
      </trkpt>
      <trkpt lat="44.63475" lon="3.47829">
        <ele>1146.156662</ele>
        <time>2019-10-07T17:52:23.491Z</time>
      </trkpt>
      <trkpt lat="44.63488" lon="3.4784">
        <ele>1146.96278</ele>
        <time>2019-10-07T17:52:27.634Z</time>
      </trkpt>
      <trkpt lat="44.63496" lon="3.47848">
        <ele>1147.530804</ele>
        <time>2019-10-07T17:52:33.390Z</time>
      </trkpt>
      <trkpt lat="44.63529" lon="3.47873">
        <ele>1149.533067</ele>
        <time>2019-10-07T17:52:51.503Z</time>
      </trkpt>
      <trkpt lat="44.63535" lon="3.47885">
        <ele>1150.069919</ele>
        <time>2019-10-07T17:52:57.151Z</time>
      </trkpt>
      <trkpt lat="44.63561" lon="3.47898">
        <ele>1151.543605</ele>
        <time>2019-10-07T17:53:11.773Z</time>
      </trkpt>
      <trkpt lat="44.63569" lon="3.47902">
        <ele>1152.034833</ele>
        <time>2019-10-07T17:53:17.480Z</time>
      </trkpt>
      <trkpt lat="44.63578" lon="3.47904">
        <ele>1152.499953</ele>
        <time>2019-10-07T17:53:21.885Z</time>
      </trkpt>
      <trkpt lat="44.63614" lon="3.47917">
        <ele>1154.52443</ele>
        <time>2019-10-07T17:53:43.887Z</time>
      </trkpt>
      <trkpt lat="44.63625" lon="3.47923">
        <ele>1155.151744</ele>
        <time>2019-10-07T17:53:50.734Z</time>
      </trkpt>
      <trkpt lat="44.63652" lon="3.47932">
        <ele>1156.214391</ele>
        <time>2019-10-07T17:54:08.964Z</time>
      </trkpt>
      <trkpt lat="44.63711" lon="3.47989">
        <ele>1158.130636</ele>
        <time>2019-10-07T17:54:50.802Z</time>
      </trkpt>
      <trkpt lat="44.63756" lon="3.4804">
        <ele>1159.664997</ele>
        <time>2019-10-07T17:55:16.922Z</time>
      </trkpt>
      <trkpt lat="44.63767" lon="3.4808">
        <ele>1160.470511</ele>
        <time>2019-10-07T17:55:28.512Z</time>
      </trkpt>
      <trkpt lat="44.63791" lon="3.48127">
        <ele>1159.13112</ele>
        <time>2019-10-07T17:55:42.592Z</time>
      </trkpt>
      <trkpt lat="44.63821" lon="3.48246">
        <ele>1155.619994</ele>
        <time>2019-10-07T17:56:09.847Z</time>
      </trkpt>
      <trkpt lat="44.63864" lon="3.48334">
        <ele>1151.763363</ele>
        <time>2019-10-07T17:56:30.693Z</time>
      </trkpt>
      <trkpt lat="44.63876" lon="3.48394">
        <ele>1148.320465</ele>
        <time>2019-10-07T17:56:42.565Z</time>
      </trkpt>
      <trkpt lat="44.63898" lon="3.48422">
        <ele>1146.062754</ele>
        <time>2019-10-07T17:56:50.285Z</time>
      </trkpt>
      <trkpt lat="44.63933" lon="3.48446">
        <ele>1143.038698</ele>
        <time>2019-10-07T17:57:00.582Z</time>
      </trkpt>
      <trkpt lat="44.63965" lon="3.48476">
        <ele>1140.05298</ele>
        <time>2019-10-07T17:57:10.871Z</time>
      </trkpt>
      <trkpt lat="44.64009" lon="3.48549">
        <ele>1135.780316</ele>
        <time>2019-10-07T17:57:29.395Z</time>
      </trkpt>
      <trkpt lat="44.64071" lon="3.48593">
        <ele>1131.551896</ele>
        <time>2019-10-07T17:57:48.734Z</time>
      </trkpt>
      <trkpt lat="44.64096" lon="3.48638">
        <ele>1129.022786</ele>
        <time>2019-10-07T17:58:00.753Z</time>
      </trkpt>
      <trkpt lat="44.64125" lon="3.48651">
        <ele>1127.805442</ele>
        <time>2019-10-07T17:58:09.541Z</time>
      </trkpt>
      <trkpt lat="44.64142" lon="3.48671">
        <ele>1127.064403</ele>
        <time>2019-10-07T17:58:15.943Z</time>
      </trkpt>
      <trkpt lat="44.6417" lon="3.48726">
        <ele>1125.454949</ele>
        <time>2019-10-07T17:58:30.018Z</time>
      </trkpt>
      <trkpt lat="44.64183" lon="3.48766">
        <ele>1124.397298</ele>
        <time>2019-10-07T17:58:39.699Z</time>
      </trkpt>
      <trkpt lat="44.64202" lon="3.48798">
        <ele>1123.382534</ele>
        <time>2019-10-07T17:58:49.263Z</time>
      </trkpt>
      <trkpt lat="44.64216" lon="3.488">
        <ele>1122.934701</ele>
        <time>2019-10-07T17:58:52.490Z</time>
      </trkpt>
      <trkpt lat="44.64222" lon="3.48816">
        <ele>1122.566931</ele>
        <time>2019-10-07T17:58:56.040Z</time>
      </trkpt>
      <trkpt lat="44.64228" lon="3.48825">
        <ele>1122.780741</ele>
        <time>2019-10-07T17:58:58.202Z</time>
      </trkpt>
      <trkpt lat="44.64239" lon="3.48825">
        <ele>1123.077717</ele>
        <time>2019-10-07T17:59:00.550Z</time>
      </trkpt>
      <trkpt lat="44.64253" lon="3.48825">
        <ele>1123.426793</ele>
        <time>2019-10-07T17:59:03.616Z</time>
      </trkpt>
      <trkpt lat="44.64256" lon="3.48824">
        <ele>1123.507888</ele>
        <time>2019-10-07T17:59:04.417Z</time>
      </trkpt>
      <trkpt lat="44.64256" lon="3.48833">
        <ele>1123.670994</ele>
        <time>2019-10-07T17:59:06.034Z</time>
      </trkpt>
      <trkpt lat="44.64251" lon="3.48857">
        <ele>1124.135744</ele>
        <time>2019-10-07T17:59:10.496Z</time>
      </trkpt>
      <trkpt lat="44.64258" lon="3.48943">
        <ele>1125.722113</ele>
        <time>2019-10-07T17:59:31.788Z</time>
      </trkpt>
      <trkpt lat="44.64256" lon="3.4896">
        <ele>1126.04557</ele>
        <time>2019-10-07T17:59:36.852Z</time>
      </trkpt>
      <trkpt lat="44.64226" lon="3.48998">
        <ele>1127.1051</ele>
        <time>2019-10-07T17:59:58.027Z</time>
      </trkpt>
      <trkpt lat="44.64226" lon="3.49018">
        <ele>1128.088346</ele>
        <time>2019-10-07T18:00:06.748Z</time>
      </trkpt>
      <trkpt lat="44.64243" lon="3.49067">
        <ele>1131.752126</ele>
        <time>2019-10-07T18:00:32.351Z</time>
      </trkpt>
      <trkpt lat="44.64267" lon="3.49131">
        <ele>1136.556367</ele>
        <time>2019-10-07T18:01:08.699Z</time>
      </trkpt>
      <trkpt lat="44.6426" lon="3.49258">
        <ele>1145.069338</ele>
        <time>2019-10-07T18:02:18.275Z</time>
      </trkpt>
      <trkpt lat="44.64252" lon="3.49303">
        <ele>1148.398601</ele>
        <time>2019-10-07T18:02:44.603Z</time>
      </trkpt>
      <trkpt lat="44.6426" lon="3.4935">
        <ele>1151.872714</ele>
        <time>2019-10-07T18:03:11.159Z</time>
      </trkpt>
      <trkpt lat="44.64275" lon="3.49395">
        <ele>1155.422481</ele>
        <time>2019-10-07T18:03:37.276Z</time>
      </trkpt>
      <trkpt lat="44.64273" lon="3.4944">
        <ele>1158.638011</ele>
        <time>2019-10-07T18:03:58.691Z</time>
      </trkpt>
      <trkpt lat="44.64273" lon="3.4945">
        <ele>1159.308559</ele>
        <time>2019-10-07T18:04:05.010Z</time>
      </trkpt>
      <trkpt lat="44.64271" lon="3.49466">
        <ele>1160.494982</ele>
        <time>2019-10-07T18:04:12.817Z</time>
      </trkpt>
      <trkpt lat="44.64262" lon="3.49526">
        <ele>1164.661383</ele>
        <time>2019-10-07T18:04:40.625Z</time>
      </trkpt>
      <trkpt lat="44.64262" lon="3.49606">
        <ele>1169.909069</ele>
        <time>2019-10-07T18:05:21.245Z</time>
      </trkpt>
      <trkpt lat="44.64298" lon="3.49705">
        <ele>1177.256308</ele>
        <time>2019-10-07T18:06:17.174Z</time>
      </trkpt>
      <trkpt lat="44.64305" lon="3.49715">
        <ele>1178.205918</ele>
        <time>2019-10-07T18:06:23.498Z</time>
      </trkpt>
      <trkpt lat="44.64312" lon="3.49726">
        <ele>1179.18334</ele>
        <time>2019-10-07T18:06:28.368Z</time>
      </trkpt>
      <trkpt lat="44.64313" lon="3.49729">
        <ele>1179.512229</ele>
        <time>2019-10-07T18:06:30.556Z</time>
      </trkpt>
      <trkpt lat="44.64318" lon="3.49739">
        <ele>1180.358852</ele>
        <time>2019-10-07T18:06:39.884Z</time>
      </trkpt>
      <trkpt lat="44.64329" lon="3.49769">
        <ele>1182.871965</ele>
        <time>2019-10-07T18:06:53.646Z</time>
      </trkpt>
      <trkpt lat="44.64335" lon="3.49824">
        <ele>1187.019033</ele>
        <time>2019-10-07T18:07:22.847Z</time>
      </trkpt>
      <trkpt lat="44.64334" lon="3.49831">
        <ele>1187.567369</ele>
        <time>2019-10-07T18:07:29.407Z</time>
      </trkpt>
      <trkpt lat="44.64328" lon="3.49838">
        <ele>1188.305891</ele>
        <time>2019-10-07T18:07:34.690Z</time>
      </trkpt>
      <trkpt lat="44.64312" lon="3.49857">
        <ele>1190.550435</ele>
        <time>2019-10-07T18:07:50.279Z</time>
      </trkpt>
      <trkpt lat="44.64308" lon="3.49864">
        <ele>1191.259062</ele>
        <time>2019-10-07T18:07:58.417Z</time>
      </trkpt>
      <trkpt lat="44.64303" lon="3.49876">
        <ele>1192.281551</ele>
        <time>2019-10-07T18:08:06.259Z</time>
      </trkpt>
      <trkpt lat="44.64298" lon="3.49887">
        <ele>1193.270702</ele>
        <time>2019-10-07T18:08:13.858Z</time>
      </trkpt>
      <trkpt lat="44.64293" lon="3.49896">
        <ele>1194.06361</ele>
        <time>2019-10-07T18:08:19.241Z</time>
      </trkpt>
      <trkpt lat="44.64289" lon="3.49903">
        <ele>1194.740004</ele>
        <time>2019-10-07T18:08:24.700Z</time>
      </trkpt>
      <trkpt lat="44.64284" lon="3.49911">
        <ele>1195.587804</ele>
        <time>2019-10-07T18:08:33.885Z</time>
      </trkpt>
      <trkpt lat="44.64278" lon="3.49919">
        <ele>1196.497612</ele>
        <time>2019-10-07T18:08:38.559Z</time>
      </trkpt>
      <trkpt lat="44.64252" lon="3.49953">
        <ele>1199.395212</ele>
        <time>2019-10-07T18:09:03.683Z</time>
      </trkpt>
      <trkpt lat="44.64249" lon="3.49957">
        <ele>1199.665734</ele>
        <time>2019-10-07T18:09:05.879Z</time>
      </trkpt>
      <trkpt lat="44.64248" lon="3.49959">
        <ele>1199.8114</ele>
        <time>2019-10-07T18:09:08.205Z</time>
      </trkpt>
      <trkpt lat="44.64242" lon="3.50011">
        <ele>1202.460344</ele>
        <time>2019-10-07T18:09:33.840Z</time>
      </trkpt>
      <trkpt lat="44.64244" lon="3.50017">
        <ele>1202.777817</ele>
        <time>2019-10-07T18:09:37.139Z</time>
      </trkpt>
      <trkpt lat="44.64239" lon="3.50036">
        <ele>1203.787025</ele>
        <time>2019-10-07T18:09:47.669Z</time>
      </trkpt>
      <trkpt lat="44.64221" lon="3.501">
        <ele>1207.293058</ele>
        <time>2019-10-07T18:10:20.205Z</time>
      </trkpt>
      <trkpt lat="44.64209" lon="3.50113">
        <ele>1208.373119</ele>
        <time>2019-10-07T18:10:31.189Z</time>
      </trkpt>
      <trkpt lat="44.64137" lon="3.50147">
        <ele>1211.813649</ele>
        <time>2019-10-07T18:11:12.323Z</time>
      </trkpt>
      <trkpt lat="44.64099" lon="3.50154">
        <ele>1212.945599</ele>
        <time>2019-10-07T18:11:29.647Z</time>
      </trkpt>
      <trkpt lat="44.64043" lon="3.50154">
        <ele>1214.604734</ele>
        <time>2019-10-07T18:11:55.809Z</time>
      </trkpt>
      <trkpt lat="44.64015" lon="3.50154">
        <ele>1215.449037</ele>
        <time>2019-10-07T18:12:09.592Z</time>
      </trkpt>
      <trkpt lat="44.64001" lon="3.5017">
        <ele>1216.247944</ele>
        <time>2019-10-07T18:12:20.194Z</time>
      </trkpt>
      <trkpt lat="44.63984" lon="3.50207">
        <ele>1218.484771</ele>
        <time>2019-10-07T18:12:38.323Z</time>
      </trkpt>
      <trkpt lat="44.63971" lon="3.50276">
        <ele>1222.111002</ele>
        <time>2019-10-07T18:13:11.414Z</time>
      </trkpt>
      <trkpt lat="44.63974" lon="3.50294">
        <ele>1223.077783</ele>
        <time>2019-10-07T18:13:21.469Z</time>
      </trkpt>
      <trkpt lat="44.63979" lon="3.50295">
        <ele>1223.463693</ele>
        <time>2019-10-07T18:13:25.837Z</time>
      </trkpt>
      <trkpt lat="44.64011" lon="3.50258">
        <ele>1226.391006</ele>
        <time>2019-10-07T18:13:59.499Z</time>
      </trkpt>
      <trkpt lat="44.64029" lon="3.50248">
        <ele>1227.780966</ele>
        <time>2019-10-07T18:14:17.028Z</time>
      </trkpt>
      <trkpt lat="44.64042" lon="3.50249">
        <ele>1228.807731</ele>
        <time>2019-10-07T18:14:29.238Z</time>
      </trkpt>
      <trkpt lat="44.64051" lon="3.50255">
        <ele>1229.966171</ele>
        <time>2019-10-07T18:14:38.233Z</time>
      </trkpt>
      <trkpt lat="44.64059" lon="3.50294">
        <ele>1233.361675</ele>
        <time>2019-10-07T18:15:05.419Z</time>
      </trkpt>
      <trkpt lat="44.64096" lon="3.50362">
        <ele>1240.638048</ele>
        <time>2019-10-07T18:16:05.586Z</time>
      </trkpt>
      <trkpt lat="44.64164" lon="3.50388">
        <ele>1249.058581</ele>
        <time>2019-10-07T18:17:16.671Z</time>
      </trkpt>
      <trkpt lat="44.64217" lon="3.50355">
        <ele>1255.576626</ele>
        <time>2019-10-07T18:18:13.357Z</time>
      </trkpt>
      <trkpt lat="44.64261" lon="3.50361">
        <ele>1260.456716</ele>
        <time>2019-10-07T18:18:54.866Z</time>
      </trkpt>
      <trkpt lat="44.64262" lon="3.50377">
        <ele>1261.716315</ele>
        <time>2019-10-07T18:19:05.485Z</time>
      </trkpt>
      <trkpt lat="44.64246" lon="3.50405">
        <ele>1264.623752</ele>
        <time>2019-10-07T18:19:29.261Z</time>
      </trkpt>
      <trkpt lat="44.64238" lon="3.50436">
        <ele>1267.185111</ele>
        <time>2019-10-07T18:19:49.857Z</time>
      </trkpt>
      <trkpt lat="44.64235" lon="3.50481">
        <ele>1270.543033</ele>
        <time>2019-10-07T18:20:17.943Z</time>
      </trkpt>
      <trkpt lat="44.64228" lon="3.50517">
        <ele>1272.776005</ele>
        <time>2019-10-07T18:20:41.024Z</time>
      </trkpt>
      <trkpt lat="44.64201" lon="3.50611">
        <ele>1278.654396</ele>
        <time>2019-10-07T18:21:38.102Z</time>
      </trkpt>
      <trkpt lat="44.64204" lon="3.50618">
        <ele>1279.12857</ele>
        <time>2019-10-07T18:21:42.516Z</time>
      </trkpt>
      <trkpt lat="44.6421" lon="3.50616">
        <ele>1279.628972</ele>
        <time>2019-10-07T18:21:47.118Z</time>
      </trkpt>
      <trkpt lat="44.64236" lon="3.50579">
        <ele>1282.641753</ele>
        <time>2019-10-07T18:22:14.449Z</time>
      </trkpt>
      <trkpt lat="44.64243" lon="3.50579">
        <ele>1283.209716</ele>
        <time>2019-10-07T18:22:19.479Z</time>
      </trkpt>
      <trkpt lat="44.64245" lon="3.50587">
        <ele>1283.73733</ele>
        <time>2019-10-07T18:22:24.150Z</time>
      </trkpt>
      <trkpt lat="44.64243" lon="3.50601">
        <ele>1284.567487</ele>
        <time>2019-10-07T18:22:31.430Z</time>
      </trkpt>
      <trkpt lat="44.64255" lon="3.50757">
        <ele>1290.766409</ele>
        <time>2019-10-07T18:23:46.398Z</time>
      </trkpt>
      <trkpt lat="44.64237" lon="3.50855">
        <ele>1294.751755</ele>
        <time>2019-10-07T18:24:29.094Z</time>
      </trkpt>
      <trkpt lat="44.64241" lon="3.50888">
        <ele>1295.907685</ele>
        <time>2019-10-07T18:24:43.252Z</time>
      </trkpt>
      <trkpt lat="44.64256" lon="3.51019">
        <ele>1300.398024</ele>
        <time>2019-10-07T18:25:38.725Z</time>
      </trkpt>
      <trkpt lat="44.64284" lon="3.51079">
        <ele>1302.869714</ele>
        <time>2019-10-07T18:26:11.322Z</time>
      </trkpt>
      <trkpt lat="44.64338" lon="3.51152">
        <ele>1307.699382</ele>
        <time>2019-10-07T18:27:01.134Z</time>
      </trkpt>
      <trkpt lat="44.64366" lon="3.51183">
        <ele>1310.103581</ele>
        <time>2019-10-07T18:27:26.957Z</time>
      </trkpt>
      <trkpt lat="44.64412" lon="3.51215">
        <ele>1313.534208</ele>
        <time>2019-10-07T18:28:05.029Z</time>
      </trkpt>
      <trkpt lat="44.64435" lon="3.51262">
        <ele>1316.247325</ele>
        <time>2019-10-07T18:28:35.170Z</time>
      </trkpt>
      <trkpt lat="44.64503" lon="3.51334">
        <ele>1321.890446</ele>
        <time>2019-10-07T18:29:37.318Z</time>
      </trkpt>
      <trkpt lat="44.64561" lon="3.51505">
        <ele>1330.765764</ele>
        <time>2019-10-07T18:31:07.164Z</time>
      </trkpt>
      <trkpt lat="44.64593" lon="3.51557">
        <ele>1333.958846</ele>
        <time>2019-10-07T18:31:39.514Z</time>
      </trkpt>
      <trkpt lat="44.64598" lon="3.51574">
        <ele>1334.80037</ele>
        <time>2019-10-07T18:31:48.159Z</time>
      </trkpt>
      <trkpt lat="44.64601" lon="3.51684">
        <ele>1340.503497</ele>
        <time>2019-10-07T18:32:45.759Z</time>
      </trkpt>
      <trkpt lat="44.64613" lon="3.51789">
        <ele>1348.571066</ele>
        <time>2019-10-07T18:33:49.167Z</time>
      </trkpt>
      <trkpt lat="44.64641" lon="3.51931">
        <ele>1360.214583</ele>
        <time>2019-10-07T18:35:32.941Z</time>
      </trkpt>
      <trkpt lat="44.64672" lon="3.52007">
        <ele>1369.196806</ele>
        <time>2019-10-07T18:36:41.106Z</time>
      </trkpt>
      <trkpt lat="44.64673" lon="3.52021">
        <ele>1370.695204</ele>
        <time>2019-10-07T18:36:52.640Z</time>
      </trkpt>
      <trkpt lat="44.64658" lon="3.52045">
        <ele>1373.942575</ele>
        <time>2019-10-07T18:37:17.953Z</time>
      </trkpt>
      <trkpt lat="44.64639" lon="3.52097">
        <ele>1379.906554</ele>
        <time>2019-10-07T18:38:04.818Z</time>
      </trkpt>
      <trkpt lat="44.64622" lon="3.52122">
        <ele>1383.435311</ele>
        <time>2019-10-07T18:38:32.725Z</time>
      </trkpt>
      <trkpt lat="44.64539" lon="3.52172">
        <ele>1395.887165</ele>
        <time>2019-10-07T18:40:13.118Z</time>
      </trkpt>
      <trkpt lat="44.64532" lon="3.52183">
        <ele>1397.377172</ele>
        <time>2019-10-07T18:40:24.622Z</time>
      </trkpt>
      <trkpt lat="44.64533" lon="3.52195">
        <ele>1398.483883</ele>
        <time>2019-10-07T18:40:33.523Z</time>
      </trkpt>
      <trkpt lat="44.64542" lon="3.52203">
        <ele>1399.880845</ele>
        <time>2019-10-07T18:40:44.334Z</time>
      </trkpt>
      <trkpt lat="44.64559" lon="3.52204">
        <ele>1402.195877</ele>
        <time>2019-10-07T18:41:01.359Z</time>
      </trkpt>
      <trkpt lat="44.6457" lon="3.52211">
        <ele>1403.920554</ele>
        <time>2019-10-07T18:41:14.581Z</time>
      </trkpt>
      <trkpt lat="44.64613" lon="3.52256">
        <ele>1410.51879</ele>
        <time>2019-10-07T18:42:07.084Z</time>
      </trkpt>
      <trkpt lat="44.64648" lon="3.52274">
        <ele>1414.062101</ele>
        <time>2019-10-07T18:42:41.794Z</time>
      </trkpt>
      <trkpt lat="44.64653" lon="3.52283">
        <ele>1414.797306</ele>
        <time>2019-10-07T18:42:48.797Z</time>
      </trkpt>
      <trkpt lat="44.64651" lon="3.52294">
        <ele>1415.556276</ele>
        <time>2019-10-07T18:42:56.241Z</time>
      </trkpt>
      <trkpt lat="44.64644" lon="3.523">
        <ele>1416.361364</ele>
        <time>2019-10-07T18:43:03.649Z</time>
      </trkpt>
      <trkpt lat="44.64595" lon="3.523">
        <ele>1421.02673</ele>
        <time>2019-10-07T18:43:43.995Z</time>
      </trkpt>
      <trkpt lat="44.64506" lon="3.52291">
        <ele>1428.236669</ele>
        <time>2019-10-07T18:44:48.849Z</time>
      </trkpt>
      <trkpt lat="44.64415" lon="3.5231">
        <ele>1434.05946</ele>
        <time>2019-10-07T18:45:49.881Z</time>
      </trkpt>
      <trkpt lat="44.64371" lon="3.52332">
        <ele>1436.975998</ele>
        <time>2019-10-07T18:46:20.728Z</time>
      </trkpt>
      <trkpt lat="44.64338" lon="3.52369">
        <ele>1440.18765</ele>
        <time>2019-10-07T18:46:49.787Z</time>
      </trkpt>
      <trkpt lat="44.64305" lon="3.52418">
        <ele>1443.886045</ele>
        <time>2019-10-07T18:47:25.189Z</time>
      </trkpt>
      <trkpt lat="44.64294" lon="3.52444">
        <ele>1445.530461</ele>
        <time>2019-10-07T18:47:41.450Z</time>
      </trkpt>
      <trkpt lat="44.64295" lon="3.52455">
        <ele>1446.163685</ele>
        <time>2019-10-07T18:47:47.958Z</time>
      </trkpt>
      <trkpt lat="44.64304" lon="3.52462">
        <ele>1446.910584</ele>
        <time>2019-10-07T18:47:55.742Z</time>
      </trkpt>
      <trkpt lat="44.64356" lon="3.52434">
        <ele>1451.299448</ele>
        <time>2019-10-07T18:48:41.183Z</time>
      </trkpt>
      <trkpt lat="44.64364" lon="3.52435">
        <ele>1452.046863</ele>
        <time>2019-10-07T18:48:47.844Z</time>
      </trkpt>
      <trkpt lat="44.64369" lon="3.52448">
        <ele>1452.981055</ele>
        <time>2019-10-07T18:48:56.241Z</time>
      </trkpt>
      <trkpt lat="44.6433" lon="3.52537">
        <ele>1459.976278</ele>
        <time>2019-10-07T18:49:59.306Z</time>
      </trkpt>
      <trkpt lat="44.64335" lon="3.52562">
        <ele>1461.706856</ele>
        <time>2019-10-07T18:50:15.126Z</time>
      </trkpt>
      <trkpt lat="44.6439" lon="3.52553">
        <ele>1466.888901</ele>
        <time>2019-10-07T18:51:02.167Z</time>
      </trkpt>
      <trkpt lat="44.64406" lon="3.52543">
        <ele>1468.580547</ele>
        <time>2019-10-07T18:51:17.393Z</time>
      </trkpt>
      <trkpt lat="44.64424" lon="3.52521">
        <ele>1470.856721</ele>
        <time>2019-10-07T18:51:37.709Z</time>
      </trkpt>
      <trkpt lat="44.64443" lon="3.52514">
        <ele>1472.639776</ele>
        <time>2019-10-07T18:51:53.526Z</time>
      </trkpt>
      <trkpt lat="44.64466" lon="3.52519">
        <ele>1474.903051</ele>
        <time>2019-10-07T18:52:13.484Z</time>
      </trkpt>
      <trkpt lat="44.64481" lon="3.52532">
        <ele>1476.56855</ele>
        <time>2019-10-07T18:52:28.123Z</time>
      </trkpt>
      <trkpt lat="44.64495" lon="3.52555">
        <ele>1478.559763</ele>
        <time>2019-10-07T18:52:45.568Z</time>
      </trkpt>
      <trkpt lat="44.645" lon="3.52618">
        <ele>1482.818242</ele>
        <time>2019-10-07T18:53:22.184Z</time>
      </trkpt>
      <trkpt lat="44.64496" lon="3.52641">
        <ele>1484.386322</ele>
        <time>2019-10-07T18:53:35.622Z</time>
      </trkpt>
      <trkpt lat="44.64461" lon="3.52722">
        <ele>1491.33683</ele>
        <time>2019-10-07T18:54:37.937Z</time>
      </trkpt>
      <trkpt lat="44.64469" lon="3.52752">
        <ele>1493.670573</ele>
        <time>2019-10-07T18:55:00.076Z</time>
      </trkpt>
      <trkpt lat="44.64515" lon="3.52787">
        <ele>1499.056733</ele>
        <time>2019-10-07T18:55:43.893Z</time>
      </trkpt>
      <trkpt lat="44.6452" lon="3.52796">
        <ele>1499.840442</ele>
        <time>2019-10-07T18:55:51.995Z</time>
      </trkpt>
      <trkpt lat="44.6452" lon="3.52805">
        <ele>1500.545609</ele>
        <time>2019-10-07T18:55:59.611Z</time>
      </trkpt>
      <trkpt lat="44.6451" lon="3.52864">
        <ele>1504.72807</ele>
        <time>2019-10-07T18:56:36.434Z</time>
      </trkpt>
      <trkpt lat="44.64511" lon="3.52897">
        <ele>1506.699652</ele>
        <time>2019-10-07T18:56:56.509Z</time>
      </trkpt>
      <trkpt lat="44.64546" lon="3.52954">
        <ele>1511.253176</ele>
        <time>2019-10-07T18:57:41.993Z</time>
      </trkpt>
      <trkpt lat="44.64594" lon="3.52998">
        <ele>1516.091595</ele>
        <time>2019-10-07T18:58:26.790Z</time>
      </trkpt>
      <trkpt lat="44.64601" lon="3.5301">
        <ele>1517.00939</ele>
        <time>2019-10-07T18:58:34.222Z</time>
      </trkpt>
      <trkpt lat="44.64621" lon="3.53059">
        <ele>1519.558059</ele>
        <time>2019-10-07T18:59:01.382Z</time>
      </trkpt>
      <trkpt lat="44.64629" lon="3.53104">
        <ele>1520.981662</ele>
        <time>2019-10-07T18:59:22.857Z</time>
      </trkpt>
      <trkpt lat="44.64626" lon="3.5312">
        <ele>1521.496273</ele>
        <time>2019-10-07T18:59:30.362Z</time>
      </trkpt>
      <trkpt lat="44.64609" lon="3.53158">
        <ele>1522.845898</ele>
        <time>2019-10-07T18:59:49.529Z</time>
      </trkpt>
      <trkpt lat="44.64561" lon="3.53226">
        <ele>1525.783713</ele>
        <time>2019-10-07T19:00:26.395Z</time>
      </trkpt>
      <trkpt lat="44.64546" lon="3.53262">
        <ele>1526.336775</ele>
        <time>2019-10-07T19:00:40.537Z</time>
      </trkpt>
      <trkpt lat="44.64534" lon="3.53316">
        <ele>1526.198257</ele>
        <time>2019-10-07T19:00:57.632Z</time>
      </trkpt>
      <trkpt lat="44.6453" lon="3.53338">
        <ele>1526.143062</ele>
        <time>2019-10-07T19:01:03.831Z</time>
      </trkpt>
      <trkpt lat="44.64552" lon="3.53359">
        <ele>1526.050617</ele>
        <time>2019-10-07T19:01:13.643Z</time>
      </trkpt>
      <trkpt lat="44.64603" lon="3.53401">
        <ele>1525.844441</ele>
        <time>2019-10-07T19:01:34.225Z</time>
      </trkpt>
      <trkpt lat="44.64867" lon="3.5353">
        <ele>1516.345001</ele>
        <time>2019-10-07T19:02:58.526Z</time>
      </trkpt>
      <trkpt lat="44.64885" lon="3.53547">
        <ele>1515.480626</ele>
        <time>2019-10-07T19:03:04.737Z</time>
      </trkpt>
      <trkpt lat="44.64919" lon="3.53599">
        <ele>1513.421457</ele>
        <time>2019-10-07T19:03:19.196Z</time>
      </trkpt>
      <trkpt lat="44.64947" lon="3.5362">
        <ele>1512.133045</ele>
        <time>2019-10-07T19:03:28.828Z</time>
      </trkpt>
      <trkpt lat="44.64949" lon="3.53622">
        <ele>1512.053004</ele>
        <time>2019-10-07T19:03:29.516Z</time>
      </trkpt>
      <trkpt lat="44.64968" lon="3.53635">
        <ele>1511.470165</ele>
        <time>2019-10-07T19:03:35.929Z</time>
      </trkpt>
      <trkpt lat="44.65084" lon="3.53715">
        <ele>1507.909456</ele>
        <time>2019-10-07T19:04:15.604Z</time>
      </trkpt>
      <trkpt lat="44.65168" lon="3.53747">
        <ele>1508.385687</ele>
        <time>2019-10-07T19:04:47.482Z</time>
      </trkpt>
      <trkpt lat="44.65335" lon="3.53758">
        <ele>1512.832216</ele>
        <time>2019-10-07T19:06:17.138Z</time>
      </trkpt>
      <trkpt lat="44.65352" lon="3.53764">
        <ele>1513.615247</ele>
        <time>2019-10-07T19:06:28.106Z</time>
      </trkpt>
      <trkpt lat="44.65363" lon="3.53768">
        <ele>1514.105013</ele>
        <time>2019-10-07T19:06:35.442Z</time>
      </trkpt>
      <trkpt lat="44.65374" lon="3.53781">
        <ele>1514.725376</ele>
        <time>2019-10-07T19:06:43.012Z</time>
      </trkpt>
      <trkpt lat="44.6538" lon="3.53788">
        <ele>1515.064143</ele>
        <time>2019-10-07T19:06:48.158Z</time>
      </trkpt>
      <trkpt lat="44.65373" lon="3.5381">
        <ele>1515.832365</ele>
        <time>2019-10-07T19:06:59.423Z</time>
      </trkpt>
      <trkpt lat="44.6535" lon="3.53874">
        <ele>1518.068478</ele>
        <time>2019-10-07T19:07:29.929Z</time>
      </trkpt>
      <trkpt lat="44.65337" lon="3.53889">
        <ele>1518.776205</ele>
        <time>2019-10-07T19:07:40.764Z</time>
      </trkpt>
      <trkpt lat="44.65322" lon="3.53934">
        <ele>1520.233627</ele>
        <time>2019-10-07T19:08:02.704Z</time>
      </trkpt>
      <trkpt lat="44.65309" lon="3.53956">
        <ele>1521.063286</ele>
        <time>2019-10-07T19:08:13.857Z</time>
      </trkpt>
      <trkpt lat="44.65308" lon="3.53972">
        <ele>1521.534895</ele>
        <time>2019-10-07T19:08:20.828Z</time>
      </trkpt>
      <trkpt lat="44.65324" lon="3.53989">
        <ele>1522.357783</ele>
        <time>2019-10-07T19:08:32.026Z</time>
      </trkpt>
      <trkpt lat="44.65334" lon="3.54009">
        <ele>1523.058088</ele>
        <time>2019-10-07T19:08:41.026Z</time>
      </trkpt>
      <trkpt lat="44.65334" lon="3.54009">
        <ele>1523.058088</ele>
        <time>2019-10-07T19:08:41.056Z</time>
      </trkpt>
      <trkpt lat="44.65329" lon="3.54021">
        <ele>1523.469929</ele>
        <time>2019-10-07T19:08:46.290Z</time>
      </trkpt>
      <trkpt lat="44.65331" lon="3.54043">
        <ele>1524.112668</ele>
        <time>2019-10-07T19:08:54.796Z</time>
      </trkpt>
      <trkpt lat="44.65355" lon="3.54061">
        <ele>1525.223073</ele>
        <time>2019-10-07T19:09:09.552Z</time>
      </trkpt>
      <trkpt lat="44.6538" lon="3.54092">
        <ele>1526.70271</ele>
        <time>2019-10-07T19:09:28.263Z</time>
      </trkpt>
      <trkpt lat="44.6558" lon="3.54288">
        <ele>1537.728956</ele>
        <time>2019-10-07T19:12:00.939Z</time>
      </trkpt>
      <trkpt lat="44.65599" lon="3.54302">
        <ele>1538.569681</ele>
        <time>2019-10-07T19:12:13.606Z</time>
      </trkpt>
      <trkpt lat="44.65636" lon="3.54314">
        <ele>1540.023728</ele>
        <time>2019-10-07T19:12:34.358Z</time>
      </trkpt>
      <trkpt lat="44.6565" lon="3.54323">
        <ele>1540.617348</ele>
        <time>2019-10-07T19:12:42.488Z</time>
      </trkpt>
      <trkpt lat="44.65659" lon="3.54336">
        <ele>1541.145683</ele>
        <time>2019-10-07T19:12:49.073Z</time>
      </trkpt>
      <trkpt lat="44.65672" lon="3.54367">
        <ele>1541.497816</ele>
        <time>2019-10-07T19:13:01.313Z</time>
      </trkpt>
      <trkpt lat="44.65742" lon="3.54368">
        <ele>1540.818529</ele>
        <time>2019-10-07T19:13:23.735Z</time>
      </trkpt>
      <trkpt lat="44.65772" lon="3.54357">
        <ele>1540.519397</ele>
        <time>2019-10-07T19:13:31.810Z</time>
      </trkpt>
      <trkpt lat="44.65804" lon="3.54331">
        <ele>1540.163232</ele>
        <time>2019-10-07T19:13:40.818Z</time>
      </trkpt>
      <trkpt lat="44.6582" lon="3.54307">
        <ele>1539.937475</ele>
        <time>2019-10-07T19:13:46.188Z</time>
      </trkpt>
      <trkpt lat="44.65828" lon="3.54279">
        <ele>1538.993978</ele>
        <time>2019-10-07T19:13:51.020Z</time>
      </trkpt>
      <trkpt lat="44.6583" lon="3.5425">
        <ele>1537.871212</ele>
        <time>2019-10-07T19:13:55.575Z</time>
      </trkpt>
      <trkpt lat="44.65814" lon="3.54132">
        <ele>1533.2201</ele>
        <time>2019-10-07T19:14:14.044Z</time>
      </trkpt>
      <trkpt lat="44.65815" lon="3.541">
        <ele>1531.974643</ele>
        <time>2019-10-07T19:14:18.838Z</time>
      </trkpt>
      <trkpt lat="44.65824" lon="3.54065">
        <ele>1530.511965</ele>
        <time>2019-10-07T19:14:24.387Z</time>
      </trkpt>
      <trkpt lat="44.65832" lon="3.54053">
        <ele>1529.875606</ele>
        <time>2019-10-07T19:14:26.849Z</time>
      </trkpt>
      <trkpt lat="44.65864" lon="3.54034">
        <ele>1528.085308</ele>
        <time>2019-10-07T19:14:34.100Z</time>
      </trkpt>
      <trkpt lat="44.65891" lon="3.54005">
        <ele>1526.331968</ele>
        <time>2019-10-07T19:14:41.369Z</time>
      </trkpt>
      <trkpt lat="44.65942" lon="3.53931">
        <ele>1522.528954</ele>
        <time>2019-10-07T19:14:57.555Z</time>
      </trkpt>
      <trkpt lat="44.65958" lon="3.53903">
        <ele>1521.184968</ele>
        <time>2019-10-07T19:15:05.319Z</time>
      </trkpt>
      <trkpt lat="44.65986" lon="3.53864">
        <ele>1519.28816</ele>
        <time>2019-10-07T19:15:16.931Z</time>
      </trkpt>
      <trkpt lat="44.66022" lon="3.53793">
        <ele>1516.304968</ele>
        <time>2019-10-07T19:15:35.520Z</time>
      </trkpt>
      <trkpt lat="44.66033" lon="3.53767">
        <ele>1515.289971</ele>
        <time>2019-10-07T19:15:41.793Z</time>
      </trkpt>
      <trkpt lat="44.66039" lon="3.53723">
        <ele>1513.76204</ele>
        <time>2019-10-07T19:15:51.226Z</time>
      </trkpt>
      <trkpt lat="44.6605" lon="3.53683">
        <ele>1512.267953</ele>
        <time>2019-10-07T19:16:00.010Z</time>
      </trkpt>
      <trkpt lat="44.66101" lon="3.53639">
        <ele>1506.704664</ele>
        <time>2019-10-07T19:16:15.953Z</time>
      </trkpt>
      <trkpt lat="44.66118" lon="3.53609">
        <ele>1504.09966</ele>
        <time>2019-10-07T19:16:23.050Z</time>
      </trkpt>
      <trkpt lat="44.66139" lon="3.53589">
        <ele>1501.669009</ele>
        <time>2019-10-07T19:16:29.578Z</time>
      </trkpt>
      <trkpt lat="44.66153" lon="3.53545">
        <ele>1498.360553</ele>
        <time>2019-10-07T19:16:38.325Z</time>
      </trkpt>
      <trkpt lat="44.66172" lon="3.53522">
        <ele>1495.97861</ele>
        <time>2019-10-07T19:16:44.554Z</time>
      </trkpt>
      <trkpt lat="44.66207" lon="3.5344">
        <ele>1487.548551</ele>
        <time>2019-10-07T19:17:01.403Z</time>
      </trkpt>
      <trkpt lat="44.66239" lon="3.53392">
        <ele>1481.429855</ele>
        <time>2019-10-07T19:17:13.033Z</time>
      </trkpt>
      <trkpt lat="44.66263" lon="3.53342">
        <ele>1475.86289</ele>
        <time>2019-10-07T19:17:23.663Z</time>
      </trkpt>
      <trkpt lat="44.66275" lon="3.53279">
        <ele>1469.696249</ele>
        <time>2019-10-07T19:17:35.038Z</time>
      </trkpt>
      <trkpt lat="44.66288" lon="3.53238">
        <ele>1465.220691</ele>
        <time>2019-10-07T19:17:42.795Z</time>
      </trkpt>
      <trkpt lat="44.66313" lon="3.53214">
        <ele>1461.033217</ele>
        <time>2019-10-07T19:17:50.099Z</time>
      </trkpt>
      <trkpt lat="44.6635" lon="3.53138">
        <ele>1451.904582</ele>
        <time>2019-10-07T19:18:06.115Z</time>
      </trkpt>
      <trkpt lat="44.66362" lon="3.53127">
        <ele>1449.912102</ele>
        <time>2019-10-07T19:18:09.577Z</time>
      </trkpt>
      <trkpt lat="44.66373" lon="3.53116">
        <ele>1447.982624</ele>
        <time>2019-10-07T19:18:12.967Z</time>
      </trkpt>
      <trkpt lat="44.66435" lon="3.53035">
        <ele>1437.711782</ele>
        <time>2019-10-07T19:18:34.094Z</time>
      </trkpt>
      <trkpt lat="44.66553" lon="3.52898">
        <ele>1420.318241</ele>
        <time>2019-10-07T19:19:12.720Z</time>
      </trkpt>
      <trkpt lat="44.66567" lon="3.5289">
        <ele>1418.775462</ele>
        <time>2019-10-07T19:19:16.683Z</time>
      </trkpt>
      <trkpt lat="44.66572" lon="3.52889">
        <ele>1418.257781</ele>
        <time>2019-10-07T19:19:17.883Z</time>
      </trkpt>
      <trkpt lat="44.66601" lon="3.52885">
        <ele>1415.217329</ele>
        <time>2019-10-07T19:19:25.596Z</time>
      </trkpt>
      <trkpt lat="44.66735" lon="3.52848">
        <ele>1402.296936</ele>
        <time>2019-10-07T19:20:00.470Z</time>
      </trkpt>
      <trkpt lat="44.66881" lon="3.52836">
        <ele>1391.578811</ele>
        <time>2019-10-07T19:20:39.829Z</time>
      </trkpt>
      <trkpt lat="44.66899" lon="3.5284">
        <ele>1391.323193</ele>
        <time>2019-10-07T19:20:45.288Z</time>
      </trkpt>
      <trkpt lat="44.66899" lon="3.5284">
        <ele>1391.323193</ele>
        <time>2019-10-07T19:20:45.305Z</time>
      </trkpt>
      <trkpt lat="44.66908" lon="3.5287">
        <ele>1390.991288</ele>
        <time>2019-10-07T19:20:52.352Z</time>
      </trkpt>
      <trkpt lat="44.66922" lon="3.52881">
        <ele>1390.766544</ele>
        <time>2019-10-07T19:20:57.487Z</time>
      </trkpt>
      <trkpt lat="44.66924" lon="3.52903">
        <ele>1390.536806</ele>
        <time>2019-10-07T19:21:02.600Z</time>
      </trkpt>
      <trkpt lat="44.66923" lon="3.52937">
        <ele>1390.197338</ele>
        <time>2019-10-07T19:21:07.761Z</time>
      </trkpt>
      <trkpt lat="44.66898" lon="3.52981">
        <ele>1389.619944</ele>
        <time>2019-10-07T19:21:18.651Z</time>
      </trkpt>
      <trkpt lat="44.66856" lon="3.53042">
        <ele>1391.271419</ele>
        <time>2019-10-07T19:21:42.775Z</time>
      </trkpt>
      <trkpt lat="44.66798" lon="3.53094">
        <ele>1395.095159</ele>
        <time>2019-10-07T19:22:19.605Z</time>
      </trkpt>
      <trkpt lat="44.66763" lon="3.53139">
        <ele>1397.701634</ele>
        <time>2019-10-07T19:22:45.790Z</time>
      </trkpt>
      <trkpt lat="44.66752" lon="3.53172">
        <ele>1399.131896</ele>
        <time>2019-10-07T19:22:59.907Z</time>
      </trkpt>
      <trkpt lat="44.66746" lon="3.53237">
        <ele>1402.166013</ele>
        <time>2019-10-07T19:23:25.514Z</time>
      </trkpt>
      <trkpt lat="44.66735" lon="3.53302">
        <ele>1405.294478</ele>
        <time>2019-10-07T19:23:51.622Z</time>
      </trkpt>
      <trkpt lat="44.66741" lon="3.53363">
        <ele>1408.185554</ele>
        <time>2019-10-07T19:24:15.806Z</time>
      </trkpt>
      <trkpt lat="44.66771" lon="3.53504">
        <ele>1415.441054</ele>
        <time>2019-10-07T19:25:14.284Z</time>
      </trkpt>
      <trkpt lat="44.66785" lon="3.53674">
        <ele>1424.184591</ele>
        <time>2019-10-07T19:26:26.270Z</time>
      </trkpt>
      <trkpt lat="44.66782" lon="3.53711">
        <ele>1426.20115</ele>
        <time>2019-10-07T19:26:42.407Z</time>
      </trkpt>
      <trkpt lat="44.66755" lon="3.53784">
        <ele>1430.662749</ele>
        <time>2019-10-07T19:27:18.259Z</time>
      </trkpt>
      <trkpt lat="44.66746" lon="3.53825">
        <ele>1433.04087</ele>
        <time>2019-10-07T19:27:37.336Z</time>
      </trkpt>
      <trkpt lat="44.66748" lon="3.53911">
        <ele>1437.743132</ele>
        <time>2019-10-07T19:28:14.600Z</time>
      </trkpt>
      <trkpt lat="44.66736" lon="3.54006">
        <ele>1441.763622</ele>
        <time>2019-10-07T19:28:54.595Z</time>
      </trkpt>
      <trkpt lat="44.6674" lon="3.54043">
        <ele>1443.296387</ele>
        <time>2019-10-07T19:29:09.439Z</time>
      </trkpt>
      <trkpt lat="44.66791" lon="3.54242">
        <ele>1449.613009</ele>
        <time>2019-10-07T19:30:16.081Z</time>
      </trkpt>
      <trkpt lat="44.66795" lon="3.54296">
        <ele>1450.402543</ele>
        <time>2019-10-07T19:30:27.907Z</time>
      </trkpt>
      <trkpt lat="44.66798" lon="3.54335">
        <ele>1450.975967</ele>
        <time>2019-10-07T19:30:35.177Z</time>
      </trkpt>
      <trkpt lat="44.66797" lon="3.54369">
        <ele>1451.463828</ele>
        <time>2019-10-07T19:30:40.623Z</time>
      </trkpt>
      <trkpt lat="44.66787" lon="3.54414">
        <ele>1451.961451</ele>
        <time>2019-10-07T19:30:48.128Z</time>
      </trkpt>
      <trkpt lat="44.66758" lon="3.54457">
        <ele>1452.060329</ele>
        <time>2019-10-07T19:30:57.009Z</time>
      </trkpt>
      <trkpt lat="44.6673" lon="3.54469">
        <ele>1452.130187</ele>
        <time>2019-10-07T19:31:02.866Z</time>
      </trkpt>
      <trkpt lat="44.66674" lon="3.54471">
        <ele>1452.261714</ele>
        <time>2019-10-07T19:31:14.701Z</time>
      </trkpt>
      <trkpt lat="44.66664" lon="3.54479">
        <ele>1452.287213</ele>
        <time>2019-10-07T19:31:17.588Z</time>
      </trkpt>
      <trkpt lat="44.66655" lon="3.54502">
        <ele>1452.331287</ele>
        <time>2019-10-07T19:31:22.706Z</time>
      </trkpt>
      <trkpt lat="44.66661" lon="3.54534">
        <ele>1452.804747</ele>
        <time>2019-10-07T19:31:29.033Z</time>
      </trkpt>
      <trkpt lat="44.66731" lon="3.54675">
        <ele>1457.826938</ele>
        <time>2019-10-07T19:32:19.585Z</time>
      </trkpt>
      <trkpt lat="44.66754" lon="3.54701">
        <ele>1459.058958</ele>
        <time>2019-10-07T19:32:34.908Z</time>
      </trkpt>
      <trkpt lat="44.66739" lon="3.54738">
        <ele>1460.771128</ele>
        <time>2019-10-07T19:32:52.300Z</time>
      </trkpt>
      <trkpt lat="44.66721" lon="3.54787">
        <ele>1463.784028</ele>
        <time>2019-10-07T19:33:15.699Z</time>
      </trkpt>
      <trkpt lat="44.66711" lon="3.548">
        <ele>1464.81555</ele>
        <time>2019-10-07T19:33:24.276Z</time>
      </trkpt>
      <trkpt lat="44.66681" lon="3.54805">
        <ele>1467.081485</ele>
        <time>2019-10-07T19:33:43.040Z</time>
      </trkpt>
      <trkpt lat="44.66665" lon="3.54801">
        <ele>1468.356433</ele>
        <time>2019-10-07T19:33:54.251Z</time>
      </trkpt>
      <trkpt lat="44.66648" lon="3.54775">
        <ele>1470.277853</ele>
        <time>2019-10-07T19:34:11.054Z</time>
      </trkpt>
      <trkpt lat="44.66622" lon="3.54763">
        <ele>1472.358535</ele>
        <time>2019-10-07T19:34:29.539Z</time>
      </trkpt>
      <trkpt lat="44.66595" lon="3.54761">
        <ele>1474.256822</ele>
        <time>2019-10-07T19:34:46.296Z</time>
      </trkpt>
      <trkpt lat="44.66585" lon="3.54776">
        <ele>1475.118171</ele>
        <time>2019-10-07T19:34:54.825Z</time>
      </trkpt>
      <trkpt lat="44.66546" lon="3.54893">
        <ele>1480.654257</ele>
        <time>2019-10-07T19:35:46.127Z</time>
      </trkpt>
      <trkpt lat="44.66443" lon="3.5507">
        <ele>1487.678331</ele>
        <time>2019-10-07T19:36:58.260Z</time>
      </trkpt>
      <trkpt lat="44.66388" lon="3.55147">
        <ele>1490.23455</ele>
        <time>2019-10-07T19:37:25.424Z</time>
      </trkpt>
      <trkpt lat="44.66378" lon="3.5517">
        <ele>1490.331961</ele>
        <time>2019-10-07T19:37:31.655Z</time>
      </trkpt>
      <trkpt lat="44.66375" lon="3.552">
        <ele>1490.426265</ele>
        <time>2019-10-07T19:37:38.363Z</time>
      </trkpt>
      <trkpt lat="44.6641" lon="3.55555">
        <ele>1489.952319</ele>
        <time>2019-10-07T19:38:36.657Z</time>
      </trkpt>
      <trkpt lat="44.66438" lon="3.55668">
        <ele>1488.585813</ele>
        <time>2019-10-07T19:38:52.941Z</time>
      </trkpt>
      <trkpt lat="44.66448" lon="3.55683">
        <ele>1488.049359</ele>
        <time>2019-10-07T19:38:55.606Z</time>
      </trkpt>
      <trkpt lat="44.66469" lon="3.55788">
        <ele>1485.172334</ele>
        <time>2019-10-07T19:39:09.360Z</time>
      </trkpt>
      <trkpt lat="44.66464" lon="3.55845">
        <ele>1483.668564</ele>
        <time>2019-10-07T19:39:16.359Z</time>
      </trkpt>
      <trkpt lat="44.66421" lon="3.56064">
        <ele>1475.694164</ele>
        <time>2019-10-07T19:39:43.184Z</time>
      </trkpt>
      <trkpt lat="44.66428" lon="3.561">
        <ele>1474.325229</ele>
        <time>2019-10-07T19:39:47.499Z</time>
      </trkpt>
      <trkpt lat="44.66443" lon="3.56119">
        <ele>1473.259035</ele>
        <time>2019-10-07T19:39:50.805Z</time>
      </trkpt>
      <trkpt lat="44.66577" lon="3.56126">
        <ele>1465.254579</ele>
        <time>2019-10-07T19:40:12.648Z</time>
      </trkpt>
      <trkpt lat="44.66591" lon="3.56139">
        <ele>1464.255716</ele>
        <time>2019-10-07T19:40:15.353Z</time>
      </trkpt>
      <trkpt lat="44.66601" lon="3.5616">
        <ele>1463.220835</ele>
        <time>2019-10-07T19:40:18.174Z</time>
      </trkpt>
      <trkpt lat="44.66621" lon="3.56385">
        <ele>1452.366892</ele>
        <time>2019-10-07T19:40:43.924Z</time>
      </trkpt>
      <trkpt lat="44.66607" lon="3.56417">
        <ele>1450.581764</ele>
        <time>2019-10-07T19:40:48.048Z</time>
      </trkpt>
      <trkpt lat="44.66579" lon="3.56458">
        <ele>1447.34074</ele>
        <time>2019-10-07T19:40:54.347Z</time>
      </trkpt>
      <trkpt lat="44.66326" lon="3.56616">
        <ele>1425.097087</ele>
        <time>2019-10-07T19:41:36.765Z</time>
      </trkpt>
      <trkpt lat="44.66263" lon="3.56641">
        <ele>1420.323765</ele>
        <time>2019-10-07T19:41:46.933Z</time>
      </trkpt>
      <trkpt lat="44.6624" lon="3.5663">
        <ele>1418.864284</ele>
        <time>2019-10-07T19:41:50.811Z</time>
      </trkpt>
      <trkpt lat="44.6615" lon="3.56566">
        <ele>1412.886341</ele>
        <time>2019-10-07T19:42:07.149Z</time>
      </trkpt>
      <trkpt lat="44.66106" lon="3.56528">
        <ele>1410.524538</ele>
        <time>2019-10-07T19:42:15.887Z</time>
      </trkpt>
      <trkpt lat="44.66076" lon="3.56487">
        <ele>1409.512644</ele>
        <time>2019-10-07T19:42:23.333Z</time>
      </trkpt>
      <trkpt lat="44.66071" lon="3.5649">
        <ele>1409.388289</ele>
        <time>2019-10-07T19:42:24.258Z</time>
      </trkpt>
      <trkpt lat="44.66138" lon="3.56596">
        <ele>1406.94566</ele>
        <time>2019-10-07T19:42:43.838Z</time>
      </trkpt>
      <trkpt lat="44.66145" lon="3.56625">
        <ele>1406.673654</ele>
        <time>2019-10-07T19:42:48.483Z</time>
      </trkpt>
      <trkpt lat="44.66138" lon="3.56645">
        <ele>1406.723685</ele>
        <time>2019-10-07T19:42:52.032Z</time>
      </trkpt>
      <trkpt lat="44.66117" lon="3.56643">
        <ele>1406.789964</ele>
        <time>2019-10-07T19:42:57.988Z</time>
      </trkpt>
      <trkpt lat="44.66047" lon="3.5666">
        <ele>1407.013277</ele>
        <time>2019-10-07T19:43:17.068Z</time>
      </trkpt>
      <trkpt lat="44.66036" lon="3.56675">
        <ele>1407.060149</ele>
        <time>2019-10-07T19:43:20.553Z</time>
      </trkpt>
      <trkpt lat="44.66028" lon="3.56735">
        <ele>1407.198656</ele>
        <time>2019-10-07T19:43:32.081Z</time>
      </trkpt>
      <trkpt lat="44.66027" lon="3.56746">
        <ele>1407.22459</ele>
        <time>2019-10-07T19:43:35.281Z</time>
      </trkpt>
      <trkpt lat="44.66021" lon="3.56737">
        <ele>1407.254867</ele>
        <time>2019-10-07T19:43:38.482Z</time>
      </trkpt>
      <trkpt lat="44.66023" lon="3.56707">
        <ele>1407.327305</ele>
        <time>2019-10-07T19:43:46.780Z</time>
      </trkpt>
      <trkpt lat="44.66016" lon="3.56668">
        <ele>1407.422231</ele>
        <time>2019-10-07T19:43:57.675Z</time>
      </trkpt>
      <trkpt lat="44.66001" lon="3.56625">
        <ele>1407.537441</ele>
        <time>2019-10-07T19:44:11.045Z</time>
      </trkpt>
      <trkpt lat="44.65968" lon="3.56607">
        <ele>1407.658971</ele>
        <time>2019-10-07T19:44:24.981Z</time>
      </trkpt>
      <trkpt lat="44.65896" lon="3.56604">
        <ele>1407.980074</ele>
        <time>2019-10-07T19:44:51.591Z</time>
      </trkpt>
      <trkpt lat="44.65855" lon="3.56593">
        <ele>1408.25656</ele>
        <time>2019-10-07T19:45:07.439Z</time>
      </trkpt>
      <trkpt lat="44.65823" lon="3.56563">
        <ele>1408.506473</ele>
        <time>2019-10-07T19:45:22.739Z</time>
      </trkpt>
      <trkpt lat="44.65807" lon="3.5652">
        <ele>1408.736278</ele>
        <time>2019-10-07T19:45:37.609Z</time>
      </trkpt>
      <trkpt lat="44.65591" lon="3.56411">
        <ele>1410.687018</ele>
        <time>2019-10-07T19:47:16.818Z</time>
      </trkpt>
      <trkpt lat="44.65525" lon="3.56385">
        <ele>1409.819902</ele>
        <time>2019-10-07T19:47:40.472Z</time>
      </trkpt>
      <trkpt lat="44.65359" lon="3.56344">
        <ele>1407.396491</ele>
        <time>2019-10-07T19:48:34.802Z</time>
      </trkpt>
      <trkpt lat="44.65168" lon="3.56304">
        <ele>1404.162199</ele>
        <time>2019-10-07T19:49:39.569Z</time>
      </trkpt>
      <trkpt lat="44.64815" lon="3.56275">
        <ele>1397.105158</ele>
        <time>2019-10-07T19:51:36.012Z</time>
      </trkpt>
      <trkpt lat="44.64404" lon="3.56273">
        <ele>1382.127832</ele>
        <time>2019-10-07T19:53:41.094Z</time>
      </trkpt>
      <trkpt lat="44.64404" lon="3.56273">
        <ele>1382.127832</ele>
        <time>2019-10-07T19:53:41.304Z</time>
      </trkpt>
      <trkpt lat="44.64159" lon="3.56288">
        <ele>1367.563841</ele>
        <time>2019-10-07T19:54:49.129Z</time>
      </trkpt>
      <trkpt lat="44.6403" lon="3.56332">
        <ele>1360.07481</ele>
        <time>2019-10-07T19:55:26.556Z</time>
      </trkpt>
      <trkpt lat="44.63972" lon="3.56378">
        <ele>1356.761836</ele>
        <time>2019-10-07T19:55:45.740Z</time>
      </trkpt>
      <trkpt lat="44.63895" lon="3.56512">
        <ele>1351.912296</ele>
        <time>2019-10-07T19:56:22.015Z</time>
      </trkpt>
      <trkpt lat="44.63806" lon="3.56683">
        <ele>1347.955283</ele>
        <time>2019-10-07T19:57:10.287Z</time>
      </trkpt>
      <trkpt lat="44.63767" lon="3.56724">
        <ele>1346.847971</ele>
        <time>2019-10-07T19:57:26.226Z</time>
      </trkpt>
      <trkpt lat="44.6373" lon="3.56738">
        <ele>1346.458851</ele>
        <time>2019-10-07T19:57:38.669Z</time>
      </trkpt>
      <trkpt lat="44.63677" lon="3.56774">
        <ele>1346.063417</ele>
        <time>2019-10-07T19:57:58.697Z</time>
      </trkpt>
      <trkpt lat="44.63643" lon="3.56807">
        <ele>1345.784336</ele>
        <time>2019-10-07T19:58:13.399Z</time>
      </trkpt>
      <trkpt lat="44.63632" lon="3.56852">
        <ele>1345.554767</ele>
        <time>2019-10-07T19:58:26.138Z</time>
      </trkpt>
      <trkpt lat="44.63639" lon="3.56966">
        <ele>1346.344159</ele>
        <time>2019-10-07T19:59:00.289Z</time>
      </trkpt>
      <trkpt lat="44.63679" lon="3.57054">
        <ele>1347.372148</ele>
        <time>2019-10-07T19:59:34.722Z</time>
      </trkpt>
      <trkpt lat="44.6368" lon="3.57071">
        <ele>1347.535563</ele>
        <time>2019-10-07T19:59:40.387Z</time>
      </trkpt>
      <trkpt lat="44.63675" lon="3.57082">
        <ele>1347.66773</ele>
        <time>2019-10-07T19:59:44.933Z</time>
      </trkpt>
      <trkpt lat="44.63663" lon="3.5709">
        <ele>1347.848856</ele>
        <time>2019-10-07T19:59:51.073Z</time>
      </trkpt>
      <trkpt lat="44.63607" lon="3.57102">
        <ele>1348.082597</ele>
        <time>2019-10-07T20:00:16.372Z</time>
      </trkpt>
      <trkpt lat="44.63561" lon="3.57126">
        <ele>1348.220133</ele>
        <time>2019-10-07T20:00:36.053Z</time>
      </trkpt>
      <trkpt lat="44.63527" lon="3.57153">
        <ele>1348.331814</ele>
        <time>2019-10-07T20:00:50.676Z</time>
      </trkpt>
      <trkpt lat="44.6349" lon="3.57114">
        <ele>1348.318287</ele>
        <time>2019-10-07T20:01:00.492Z</time>
      </trkpt>
      <trkpt lat="44.63409" lon="3.57027">
        <ele>1345.698303</ele>
        <time>2019-10-07T20:01:19.728Z</time>
      </trkpt>
      <trkpt lat="44.6335" lon="3.56972">
        <ele>1343.882762</ele>
        <time>2019-10-07T20:01:32.256Z</time>
      </trkpt>
      <trkpt lat="44.63344" lon="3.56961">
        <ele>1343.546586</ele>
        <time>2019-10-07T20:01:33.976Z</time>
      </trkpt>
      <trkpt lat="44.63344" lon="3.5694">
        <ele>1343.011939</ele>
        <time>2019-10-07T20:01:36.589Z</time>
      </trkpt>
      <trkpt lat="44.63385" lon="3.56653">
        <ele>1336.703308</ele>
        <time>2019-10-07T20:02:13.427Z</time>
      </trkpt>
      <trkpt lat="44.63383" lon="3.56632">
        <ele>1336.491432</ele>
        <time>2019-10-07T20:02:16.332Z</time>
      </trkpt>
      <trkpt lat="44.63375" lon="3.56613">
        <ele>1336.272536</ele>
        <time>2019-10-07T20:02:19.341Z</time>
      </trkpt>
      <trkpt lat="44.63353" lon="3.56591">
        <ele>1335.888892</ele>
        <time>2019-10-07T20:02:24.923Z</time>
      </trkpt>
      <trkpt lat="44.6328" lon="3.56545">
        <ele>1335.143118</ele>
        <time>2019-10-07T20:02:43.215Z</time>
      </trkpt>
      <trkpt lat="44.63257" lon="3.56502">
        <ele>1336.125793</ele>
        <time>2019-10-07T20:02:55.146Z</time>
      </trkpt>
      <trkpt lat="44.63234" lon="3.56409">
        <ele>1337.884303</ele>
        <time>2019-10-07T20:03:22.623Z</time>
      </trkpt>
      <trkpt lat="44.63228" lon="3.56352">
        <ele>1338.914662</ele>
        <time>2019-10-07T20:03:39.482Z</time>
      </trkpt>
      <trkpt lat="44.63229" lon="3.56313">
        <ele>1339.580894</ele>
        <time>2019-10-07T20:03:51.063Z</time>
      </trkpt>
      <trkpt lat="44.63236" lon="3.56272">
        <ele>1340.142951</ele>
        <time>2019-10-07T20:04:02.309Z</time>
      </trkpt>
      <trkpt lat="44.6325" lon="3.56216">
        <ele>1340.949544</ele>
        <time>2019-10-07T20:04:18.028Z</time>
      </trkpt>
      <trkpt lat="44.63211" lon="3.56163">
        <ele>1341.975491</ele>
        <time>2019-10-07T20:04:35.209Z</time>
      </trkpt>
      <trkpt lat="44.63183" lon="3.56138">
        <ele>1342.605008</ele>
        <time>2019-10-07T20:04:44.641Z</time>
      </trkpt>
      <trkpt lat="44.63139" lon="3.56116">
        <ele>1342.489913</ele>
        <time>2019-10-07T20:04:56.069Z</time>
      </trkpt>
      <trkpt lat="44.63091" lon="3.56102">
        <ele>1341.975251</ele>
        <time>2019-10-07T20:05:05.957Z</time>
      </trkpt>
      <trkpt lat="44.6303" lon="3.56075">
        <ele>1341.311615</ele>
        <time>2019-10-07T20:05:18.495Z</time>
      </trkpt>
      <trkpt lat="44.62955" lon="3.56062">
        <ele>1339.921287</ele>
        <time>2019-10-07T20:05:33.339Z</time>
      </trkpt>
      <trkpt lat="44.62849" lon="3.56065">
        <ele>1337.278835</ele>
        <time>2019-10-07T20:05:53.126Z</time>
      </trkpt>
      <trkpt lat="44.62819" lon="3.56076">
        <ele>1336.521119</ele>
        <time>2019-10-07T20:05:58.680Z</time>
      </trkpt>
      <trkpt lat="44.62768" lon="3.5607">
        <ele>1334.471822</ele>
        <time>2019-10-07T20:06:07.966Z</time>
      </trkpt>
      <trkpt lat="44.6275" lon="3.56068">
        <ele>1333.760859</ele>
        <time>2019-10-07T20:06:10.886Z</time>
      </trkpt>
      <trkpt lat="44.62657" lon="3.56111">
        <ele>1329.836683</ele>
        <time>2019-10-07T20:06:27.544Z</time>
      </trkpt>
      <trkpt lat="44.62623" lon="3.56112">
        <ele>1328.758525</ele>
        <time>2019-10-07T20:06:33.251Z</time>
      </trkpt>
      <trkpt lat="44.62613" lon="3.56108">
        <ele>1328.462478</ele>
        <time>2019-10-07T20:06:34.986Z</time>
      </trkpt>
      <trkpt lat="44.62608" lon="3.56072">
        <ele>1327.759755</ele>
        <time>2019-10-07T20:06:39.657Z</time>
      </trkpt>
      <trkpt lat="44.62602" lon="3.56021">
        <ele>1326.748783</ele>
        <time>2019-10-07T20:06:46.277Z</time>
      </trkpt>
      <trkpt lat="44.62592" lon="3.55993">
        <ele>1326.145243</ele>
        <time>2019-10-07T20:06:50.244Z</time>
      </trkpt>
      <trkpt lat="44.62577" lon="3.55985">
        <ele>1325.685628</ele>
        <time>2019-10-07T20:06:53.649Z</time>
      </trkpt>
      <trkpt lat="44.62554" lon="3.55998">
        <ele>1325.025108</ele>
        <time>2019-10-07T20:06:58.297Z</time>
      </trkpt>
      <trkpt lat="44.62532" lon="3.56024">
        <ele>1324.494187</ele>
        <time>2019-10-07T20:07:04.004Z</time>
      </trkpt>
      <trkpt lat="44.62523" lon="3.56031">
        <ele>1324.632282</ele>
        <time>2019-10-07T20:07:06.902Z</time>
      </trkpt>
      <trkpt lat="44.62508" lon="3.56044">
        <ele>1324.877384</ele>
        <time>2019-10-07T20:07:10.873Z</time>
      </trkpt>
      <trkpt lat="44.62493" lon="3.56048">
        <ele>1325.086302</ele>
        <time>2019-10-07T20:07:14.938Z</time>
      </trkpt>
      <trkpt lat="44.62483" lon="3.56046">
        <ele>1325.230221</ele>
        <time>2019-10-07T20:07:18.205Z</time>
      </trkpt>
      <trkpt lat="44.62468" lon="3.56032">
        <ele>1325.471358</ele>
        <time>2019-10-07T20:07:23.518Z</time>
      </trkpt>
      <trkpt lat="44.62467" lon="3.56022">
        <ele>1325.57054</ele>
        <time>2019-10-07T20:07:25.813Z</time>
      </trkpt>
      <trkpt lat="44.62467" lon="3.56015">
        <ele>1325.64209</ele>
        <time>2019-10-07T20:07:28.013Z</time>
      </trkpt>
      <trkpt lat="44.62496" lon="3.55941">
        <ele>1326.473824</ele>
        <time>2019-10-07T20:07:47.406Z</time>
      </trkpt>
      <trkpt lat="44.62487" lon="3.5592">
        <ele>1326.709034</ele>
        <time>2019-10-07T20:07:53.710Z</time>
      </trkpt>
      <trkpt lat="44.62473" lon="3.55915">
        <ele>1326.96198</ele>
        <time>2019-10-07T20:07:59.297Z</time>
      </trkpt>
      <trkpt lat="44.62461" lon="3.55918">
        <ele>1327.418268</ele>
        <time>2019-10-07T20:08:03.720Z</time>
      </trkpt>
      <trkpt lat="44.62453" lon="3.55929">
        <ele>1327.882967</ele>
        <time>2019-10-07T20:08:08.334Z</time>
      </trkpt>
      <trkpt lat="44.6245" lon="3.55941">
        <ele>1328.207055</ele>
        <time>2019-10-07T20:08:12.368Z</time>
      </trkpt>
      <trkpt lat="44.62436" lon="3.55995">
        <ele>1329.77606</ele>
        <time>2019-10-07T20:08:30.040Z</time>
      </trkpt>
      <trkpt lat="44.6241" lon="3.56034">
        <ele>1331.238798</ele>
        <time>2019-10-07T20:08:46.557Z</time>
      </trkpt>
      <trkpt lat="44.62385" lon="3.56054">
        <ele>1332.326746</ele>
        <time>2019-10-07T20:08:59.329Z</time>
      </trkpt>
      <trkpt lat="44.62369" lon="3.56059">
        <ele>1332.934051</ele>
        <time>2019-10-07T20:09:06.017Z</time>
      </trkpt>
      <trkpt lat="44.62357" lon="3.56035">
        <ele>1333.725084</ele>
        <time>2019-10-07T20:09:16.954Z</time>
      </trkpt>
      <trkpt lat="44.62354" lon="3.56029">
        <ele>1333.892258</ele>
        <time>2019-10-07T20:09:19.888Z</time>
      </trkpt>
      <trkpt lat="44.6235" lon="3.56023">
        <ele>1334.055602</ele>
        <time>2019-10-07T20:09:22.749Z</time>
      </trkpt>
      <trkpt lat="44.62341" lon="3.56009">
        <ele>1334.443981</ele>
        <time>2019-10-07T20:09:29.716Z</time>
      </trkpt>
      <trkpt lat="44.62324" lon="3.56001">
        <ele>1334.970652</ele>
        <time>2019-10-07T20:09:38.285Z</time>
      </trkpt>
      <trkpt lat="44.62308" lon="3.55994">
        <ele>1335.449237</ele>
        <time>2019-10-07T20:09:46.852Z</time>
      </trkpt>
      <trkpt lat="44.62241" lon="3.55964">
        <ele>1337.512433</ele>
        <time>2019-10-07T20:10:15.915Z</time>
      </trkpt>
      <trkpt lat="44.6223" lon="3.55951">
        <ele>1337.926314</ele>
        <time>2019-10-07T20:10:19.851Z</time>
      </trkpt>
      <trkpt lat="44.62228" lon="3.5596">
        <ele>1338.112973</ele>
        <time>2019-10-07T20:10:22.317Z</time>
      </trkpt>
      <trkpt lat="44.62229" lon="3.56026">
        <ele>1338.805907</ele>
        <time>2019-10-07T20:10:36.252Z</time>
      </trkpt>
      <trkpt lat="44.62234" lon="3.5606">
        <ele>1338.516803</ele>
        <time>2019-10-07T20:10:41.312Z</time>
      </trkpt>
      <trkpt lat="44.62231" lon="3.56118">
        <ele>1338.034168</ele>
        <time>2019-10-07T20:10:49.584Z</time>
      </trkpt>
      <trkpt lat="44.62227" lon="3.5613">
        <ele>1337.926619</ele>
        <time>2019-10-07T20:10:51.263Z</time>
      </trkpt>
      <trkpt lat="44.62227" lon="3.56153">
        <ele>1337.733874</ele>
        <time>2019-10-07T20:10:54.410Z</time>
      </trkpt>
      <trkpt lat="44.6221" lon="3.56214">
        <ele>1337.183313</ele>
        <time>2019-10-07T20:11:03.755Z</time>
      </trkpt>
      <trkpt lat="44.62205" lon="3.56238">
        <ele>1336.977523</ele>
        <time>2019-10-07T20:11:06.867Z</time>
      </trkpt>
      <trkpt lat="44.62196" lon="3.56283">
        <ele>1336.795877</ele>
        <time>2019-10-07T20:11:13.300Z</time>
      </trkpt>
      <trkpt lat="44.62189" lon="3.56303">
        <ele>1336.739603</ele>
        <time>2019-10-07T20:11:16.592Z</time>
      </trkpt>
      <trkpt lat="44.62174" lon="3.56376">
        <ele>1336.54044</ele>
        <time>2019-10-07T20:11:27.464Z</time>
      </trkpt>
      <trkpt lat="44.62147" lon="3.56702">
        <ele>1337.684763</ele>
        <time>2019-10-07T20:12:34.881Z</time>
      </trkpt>
      <trkpt lat="44.62147" lon="3.56778">
        <ele>1338.049889</ele>
        <time>2019-10-07T20:12:49.125Z</time>
      </trkpt>
      <trkpt lat="44.62137" lon="3.56895">
        <ele>1338.32684</ele>
        <time>2019-10-07T20:13:09.463Z</time>
      </trkpt>
      <trkpt lat="44.62121" lon="3.57054">
        <ele>1338.924965</ele>
        <time>2019-10-07T20:13:36.849Z</time>
      </trkpt>
      <trkpt lat="44.6211" lon="3.57105">
        <ele>1339.252381</ele>
        <time>2019-10-07T20:13:47.115Z</time>
      </trkpt>
      <trkpt lat="44.62102" lon="3.57134">
        <ele>1339.438062</ele>
        <time>2019-10-07T20:13:52.743Z</time>
      </trkpt>
      <trkpt lat="44.62101" lon="3.57153">
        <ele>1339.552524</ele>
        <time>2019-10-07T20:13:57.022Z</time>
      </trkpt>
      <trkpt lat="44.62082" lon="3.5723">
        <ele>1340.050996</ele>
        <time>2019-10-07T20:14:14.069Z</time>
      </trkpt>
      <trkpt lat="44.62032" lon="3.57378">
        <ele>1341.410482</ele>
        <time>2019-10-07T20:14:51.030Z</time>
      </trkpt>
      <trkpt lat="44.62019" lon="3.57436">
        <ele>1341.926199</ele>
        <time>2019-10-07T20:15:03.255Z</time>
      </trkpt>
      <trkpt lat="44.6201" lon="3.57508">
        <ele>1341.931271</ele>
        <time>2019-10-07T20:15:15.960Z</time>
      </trkpt>
      <trkpt lat="44.62008" lon="3.57577">
        <ele>1341.358944</ele>
        <time>2019-10-07T20:15:26.902Z</time>
      </trkpt>
      <trkpt lat="44.62018" lon="3.57781">
        <ele>1339.62551</ele>
        <time>2019-10-07T20:15:55.110Z</time>
      </trkpt>
      <trkpt lat="44.62011" lon="3.5785">
        <ele>1338.999685</ele>
        <time>2019-10-07T20:16:04.010Z</time>
      </trkpt>
      <trkpt lat="44.61997" lon="3.57901">
        <ele>1338.505198</ele>
        <time>2019-10-07T20:16:11.622Z</time>
      </trkpt>
      <trkpt lat="44.61982" lon="3.57931">
        <ele>1338.170718</ele>
        <time>2019-10-07T20:16:17.661Z</time>
      </trkpt>
      <trkpt lat="44.61941" lon="3.57968">
        <ele>1338.15853</ele>
        <time>2019-10-07T20:16:31.919Z</time>
      </trkpt>
      <trkpt lat="44.61899" lon="3.57984">
        <ele>1338.682791</ele>
        <time>2019-10-07T20:16:46.794Z</time>
      </trkpt>
      <trkpt lat="44.61892" lon="3.57987">
        <ele>1338.77068</ele>
        <time>2019-10-07T20:16:50.238Z</time>
      </trkpt>
      <trkpt lat="44.6186" lon="3.58003">
        <ele>1339.188703</ele>
        <time>2019-10-07T20:17:00.612Z</time>
      </trkpt>
      <trkpt lat="44.61832" lon="3.58027">
        <ele>1339.586487</ele>
        <time>2019-10-07T20:17:09.656Z</time>
      </trkpt>
      <trkpt lat="44.61816" lon="3.58053">
        <ele>1339.882142</ele>
        <time>2019-10-07T20:17:14.271Z</time>
      </trkpt>
      <trkpt lat="44.61804" lon="3.58075">
        <ele>1340.076587</ele>
        <time>2019-10-07T20:17:23.002Z</time>
      </trkpt>
      <trkpt lat="44.61817" lon="3.58094">
        <ele>1340.174809</ele>
        <time>2019-10-07T20:17:36.240Z</time>
      </trkpt>
      <trkpt lat="44.61845" lon="3.58144">
        <ele>1340.407443</ele>
        <time>2019-10-07T20:18:07.632Z</time>
      </trkpt>
      <trkpt lat="44.61873" lon="3.58175">
        <ele>1340.590953</ele>
        <time>2019-10-07T20:18:32.357Z</time>
      </trkpt>
      <trkpt lat="44.61884" lon="3.5819">
        <ele>1340.671714</ele>
        <time>2019-10-07T20:18:43.285Z</time>
      </trkpt>
      <trkpt lat="44.61888" lon="3.58195">
        <ele>1340.698982</ele>
        <time>2019-10-07T20:18:46.927Z</time>
      </trkpt>
      <trkpt lat="44.61891" lon="3.58203">
        <ele>1340.730786</ele>
        <time>2019-10-07T20:18:51.229Z</time>
      </trkpt>
      <trkpt lat="44.61898" lon="3.58214">
        <ele>1340.786267</ele>
        <time>2019-10-07T20:18:58.679Z</time>
      </trkpt>
      <trkpt lat="44.61912" lon="3.58227">
        <ele>1340.872263</ele>
        <time>2019-10-07T20:19:10.320Z</time>
      </trkpt>
      <trkpt lat="44.61954" lon="3.5824">
        <ele>1341.584338</ele>
        <time>2019-10-07T20:19:40.393Z</time>
      </trkpt>
      <trkpt lat="44.61954" lon="3.5824">
        <ele>1341.584338</ele>
        <time>2019-10-07T20:19:40.452Z</time>
      </trkpt>
      <trkpt lat="44.62002" lon="3.58273">
        <ele>1342.945952</ele>
        <time>2019-10-07T20:20:17.408Z</time>
      </trkpt>
      <trkpt lat="44.62021" lon="3.583">
        <ele>1343.644319</ele>
        <time>2019-10-07T20:20:36.386Z</time>
      </trkpt>
      <trkpt lat="44.62036" lon="3.58338">
        <ele>1344.431825</ele>
        <time>2019-10-07T20:20:57.847Z</time>
      </trkpt>
      <trkpt lat="44.62038" lon="3.58354">
        <ele>1344.737341</ele>
        <time>2019-10-07T20:21:06.186Z</time>
      </trkpt>
      <trkpt lat="44.6203" lon="3.58368">
        <ele>1345.051513</ele>
        <time>2019-10-07T20:21:14.771Z</time>
      </trkpt>
      <trkpt lat="44.62034" lon="3.58376">
        <ele>1345.225474</ele>
        <time>2019-10-07T20:21:19.499Z</time>
      </trkpt>
      <trkpt lat="44.62039" lon="3.58393">
        <ele>1345.568051</ele>
        <time>2019-10-07T20:21:28.823Z</time>
      </trkpt>
      <trkpt lat="44.62047" lon="3.58423">
        <ele>1345.961607</ele>
        <time>2019-10-07T20:21:44.762Z</time>
      </trkpt>
      <trkpt lat="44.62049" lon="3.58428">
        <ele>1346.028779</ele>
        <time>2019-10-07T20:21:47.526Z</time>
      </trkpt>
      <trkpt lat="44.62056" lon="3.58454">
        <ele>1346.375445</ele>
        <time>2019-10-07T20:22:01.631Z</time>
      </trkpt>
      <trkpt lat="44.62069" lon="3.58478">
        <ele>1346.741433</ele>
        <time>2019-10-07T20:22:16.568Z</time>
      </trkpt>
      <trkpt lat="44.62073" lon="3.58496">
        <ele>1346.962231</ele>
        <time>2019-10-07T20:22:25.523Z</time>
      </trkpt>
      <trkpt lat="44.62076" lon="3.58519">
        <ele>1347.255737</ele>
        <time>2019-10-07T20:22:37.509Z</time>
      </trkpt>
      <trkpt lat="44.62086" lon="3.58549">
        <ele>1347.650527</ele>
        <time>2019-10-07T20:22:53.585Z</time>
      </trkpt>
      <trkpt lat="44.6209" lon="3.58567">
        <ele>1347.883956</ele>
        <time>2019-10-07T20:23:03.107Z</time>
      </trkpt>
      <trkpt lat="44.62101" lon="3.58602">
        <ele>1348.348961</ele>
        <time>2019-10-07T20:23:22.050Z</time>
      </trkpt>
      <trkpt lat="44.62109" lon="3.58632">
        <ele>1348.670025</ele>
        <time>2019-10-07T20:23:37.774Z</time>
      </trkpt>
      <trkpt lat="44.6212" lon="3.58677">
        <ele>1348.803</ele>
        <time>2019-10-07T20:24:01.297Z</time>
      </trkpt>
      <trkpt lat="44.62121" lon="3.58687">
        <ele>1348.832118</ele>
        <time>2019-10-07T20:24:06.478Z</time>
      </trkpt>
      <trkpt lat="44.62132" lon="3.58714">
        <ele>1348.918949</ele>
        <time>2019-10-07T20:24:21.846Z</time>
      </trkpt>
      <trkpt lat="44.62134" lon="3.58732">
        <ele>1348.97051</ele>
        <time>2019-10-07T20:24:30.929Z</time>
      </trkpt>
      <trkpt lat="44.62135" lon="3.5875">
        <ele>1349.022618</ele>
        <time>2019-10-07T20:24:40.158Z</time>
      </trkpt>
      <trkpt lat="44.62158" lon="3.58864">
        <ele>1349.352756</ele>
        <time>2019-10-07T20:25:38.594Z</time>
      </trkpt>
      <trkpt lat="44.6217" lon="3.58919">
        <ele>1349.37072</ele>
        <time>2019-10-07T20:26:07.326Z</time>
      </trkpt>
      <trkpt lat="44.62174" lon="3.58929">
        <ele>1349.373039</ele>
        <time>2019-10-07T20:26:12.707Z</time>
      </trkpt>
      <trkpt lat="44.62183" lon="3.58959">
        <ele>1349.380014</ele>
        <time>2019-10-07T20:26:28.900Z</time>
      </trkpt>
      <trkpt lat="44.62186" lon="3.58982">
        <ele>1349.385006</ele>
        <time>2019-10-07T20:26:40.554Z</time>
      </trkpt>
      <trkpt lat="44.62197" lon="3.59039">
        <ele>1349.397525</ele>
        <time>2019-10-07T20:27:09.659Z</time>
      </trkpt>
      <trkpt lat="44.62212" lon="3.59105">
        <ele>1349.412265</ele>
        <time>2019-10-07T20:27:43.923Z</time>
      </trkpt>
      <trkpt lat="44.62226" lon="3.59157">
        <ele>1348.375395</ele>
        <time>2019-10-07T20:28:11.629Z</time>
      </trkpt>
      <trkpt lat="44.62229" lon="3.59187">
        <ele>1347.78532</ele>
        <time>2019-10-07T20:28:26.828Z</time>
      </trkpt>
      <trkpt lat="44.62259" lon="3.59282">
        <ele>1345.786751</ele>
        <time>2019-10-07T20:29:18.250Z</time>
      </trkpt>
      <trkpt lat="44.6228" lon="3.59329">
        <ele>1344.714302</ele>
        <time>2019-10-07T20:29:45.767Z</time>
      </trkpt>
      <trkpt lat="44.62289" lon="3.59374">
        <ele>1343.806262</ele>
        <time>2019-10-07T20:30:08.764Z</time>
      </trkpt>
      <trkpt lat="44.62323" lon="3.59455">
        <ele>1341.951116</ele>
        <time>2019-10-07T20:30:55.507Z</time>
      </trkpt>
      <trkpt lat="44.62329" lon="3.59477">
        <ele>1341.483824</ele>
        <time>2019-10-07T20:31:07.297Z</time>
      </trkpt>
      <trkpt lat="44.62329" lon="3.59493">
        <ele>1341.180756</ele>
        <time>2019-10-07T20:31:14.902Z</time>
      </trkpt>
      <trkpt lat="44.62309" lon="3.59555">
        <ele>1339.845665</ele>
        <time>2019-10-07T20:31:48.541Z</time>
      </trkpt>
      <trkpt lat="44.62306" lon="3.5956">
        <ele>1339.714083</ele>
        <time>2019-10-07T20:31:51.881Z</time>
      </trkpt>
      <trkpt lat="44.62304" lon="3.59569">
        <ele>1339.550684</ele>
        <time>2019-10-07T20:31:56.411Z</time>
      </trkpt>
      <trkpt lat="44.62304" lon="3.59573">
        <ele>1339.51263</ele>
        <time>2019-10-07T20:31:58.392Z</time>
      </trkpt>
      <trkpt lat="44.62305" lon="3.59583">
        <ele>1339.414301</ele>
        <time>2019-10-07T20:32:03.537Z</time>
      </trkpt>
      <trkpt lat="44.62307" lon="3.59605">
        <ele>1339.209285</ele>
        <time>2019-10-07T20:32:14.256Z</time>
      </trkpt>
      <trkpt lat="44.6231" lon="3.59617">
        <ele>1339.088119</ele>
        <time>2019-10-07T20:32:20.600Z</time>
      </trkpt>
      <trkpt lat="44.62358" lon="3.59652">
        <ele>1338.367482</ele>
        <time>2019-10-07T20:32:58.170Z</time>
      </trkpt>
      <trkpt lat="44.62386" lon="3.59696">
        <ele>1337.797584</ele>
        <time>2019-10-07T20:33:27.857Z</time>
      </trkpt>
      <trkpt lat="44.62396" lon="3.59709">
        <ele>1337.617849</ele>
        <time>2019-10-07T20:33:37.263Z</time>
      </trkpt>
      <trkpt lat="44.62407" lon="3.59717">
        <ele>1337.461157</ele>
        <time>2019-10-07T20:33:45.435Z</time>
      </trkpt>
      <trkpt lat="44.62429" lon="3.59737">
        <ele>1337.054685</ele>
        <time>2019-10-07T20:34:03.979Z</time>
      </trkpt>
      <trkpt lat="44.62435" lon="3.59746">
        <ele>1336.840379</ele>
        <time>2019-10-07T20:34:10.128Z</time>
      </trkpt>
      <trkpt lat="44.62451" lon="3.59758">
        <ele>1336.400397</ele>
        <time>2019-10-07T20:34:22.697Z</time>
      </trkpt>
      <trkpt lat="44.62458" lon="3.59761">
        <ele>1336.225769</ele>
        <time>2019-10-07T20:34:27.695Z</time>
      </trkpt>
      <trkpt lat="44.62474" lon="3.5979">
        <ele>1335.589913</ele>
        <time>2019-10-07T20:34:45.933Z</time>
      </trkpt>
      <trkpt lat="44.6249" lon="3.598">
        <ele>1335.181758</ele>
        <time>2019-10-07T20:34:57.623Z</time>
      </trkpt>
      <trkpt lat="44.62507" lon="3.59822">
        <ele>1334.602877</ele>
        <time>2019-10-07T20:35:14.220Z</time>
      </trkpt>
      <trkpt lat="44.6251" lon="3.59821">
        <ele>1334.550488</ele>
        <time>2019-10-07T20:35:15.747Z</time>
      </trkpt>
      <trkpt lat="44.62538" lon="3.59798">
        <ele>1333.749898</ele>
        <time>2019-10-07T20:35:38.644Z</time>
      </trkpt>
      <trkpt lat="44.62546" lon="3.59771">
        <ele>1333.242021</ele>
        <time>2019-10-07T20:35:53.230Z</time>
      </trkpt>
      <trkpt lat="44.62547" lon="3.59766">
        <ele>1333.160246</ele>
        <time>2019-10-07T20:35:55.559Z</time>
      </trkpt>
      <trkpt lat="44.62554" lon="3.59686">
        <ele>1332.608495</ele>
        <time>2019-10-07T20:36:35.867Z</time>
      </trkpt>
      <trkpt lat="44.62568" lon="3.59546">
        <ele>1332.157648</ele>
        <time>2019-10-07T20:37:45.773Z</time>
      </trkpt>
      <trkpt lat="44.62568" lon="3.59546">
        <ele>1332.157648</ele>
        <time>2019-10-07T20:37:45.831Z</time>
      </trkpt>
      <trkpt lat="44.62569" lon="3.5947">
        <ele>1332.432941</ele>
        <time>2019-10-07T20:38:23.807Z</time>
      </trkpt>
      <trkpt lat="44.62579" lon="3.59431">
        <ele>1333.140963</ele>
        <time>2019-10-07T20:38:43.972Z</time>
      </trkpt>
      <trkpt lat="44.62575" lon="3.59405">
        <ele>1333.618371</ele>
        <time>2019-10-07T20:38:57.542Z</time>
      </trkpt>
      <trkpt lat="44.62577" lon="3.59381">
        <ele>1334.036226</ele>
        <time>2019-10-07T20:39:09.442Z</time>
      </trkpt>
      <trkpt lat="44.62585" lon="3.59369">
        <ele>1334.326889</ele>
        <time>2019-10-07T20:39:17.674Z</time>
      </trkpt>
      <trkpt lat="44.62585" lon="3.5933">
        <ele>1334.99573</ele>
        <time>2019-10-07T20:39:36.722Z</time>
      </trkpt>
      <trkpt lat="44.62593" lon="3.59298">
        <ele>1335.594643</ele>
        <time>2019-10-07T20:39:53.814Z</time>
      </trkpt>
      <trkpt lat="44.62592" lon="3.59289">
        <ele>1335.758448</ele>
        <time>2019-10-07T20:39:58.483Z</time>
      </trkpt>
      <trkpt lat="44.62599" lon="3.59136">
        <ele>1339.246987</ele>
        <time>2019-10-07T20:40:55.047Z</time>
      </trkpt>
      <trkpt lat="44.62618" lon="3.59077">
        <ele>1340.815594</ele>
        <time>2019-10-07T20:41:20.523Z</time>
      </trkpt>
      <trkpt lat="44.62627" lon="3.59061">
        <ele>1341.316654</ele>
        <time>2019-10-07T20:41:27.783Z</time>
      </trkpt>
      <trkpt lat="44.62635" lon="3.59053">
        <ele>1341.64548</ele>
        <time>2019-10-07T20:41:32.838Z</time>
      </trkpt>
      <trkpt lat="44.62644" lon="3.59053">
        <ele>1341.944702</ele>
        <time>2019-10-07T20:41:38.628Z</time>
      </trkpt>
      <trkpt lat="44.62871" lon="3.59179">
        <ele>1352.346998</ele>
        <time>2019-10-07T20:44:02.876Z</time>
      </trkpt>
      <trkpt lat="44.63041" lon="3.59334">
        <ele>1360.631208</ele>
        <time>2019-10-07T20:46:00.924Z</time>
      </trkpt>
      <trkpt lat="44.63145" lon="3.59342">
        <ele>1364.51918</ele>
        <time>2019-10-07T20:46:58.074Z</time>
      </trkpt>
      <trkpt lat="44.63262" lon="3.59336">
        <ele>1367.846143</ele>
        <time>2019-10-07T20:47:58.657Z</time>
      </trkpt>
      <trkpt lat="44.63365" lon="3.59344">
        <ele>1370.123395</ele>
        <time>2019-10-07T20:48:50.437Z</time>
      </trkpt>
      <trkpt lat="44.63499" lon="3.5931">
        <ele>1371.530123</ele>
        <time>2019-10-07T20:49:47.748Z</time>
      </trkpt>
      <trkpt lat="44.63533" lon="3.59435">
        <ele>1369.995435</ele>
        <time>2019-10-07T20:50:06.960Z</time>
      </trkpt>
      <trkpt lat="44.63539" lon="3.59483">
        <ele>1369.318821</ele>
        <time>2019-10-07T20:50:13.459Z</time>
      </trkpt>
      <trkpt lat="44.63583" lon="3.59602">
        <ele>1367.590397</ele>
        <time>2019-10-07T20:50:30.594Z</time>
      </trkpt>
      <trkpt lat="44.63579" lon="3.59627">
        <ele>1367.294451</ele>
        <time>2019-10-07T20:50:33.944Z</time>
      </trkpt>
      <trkpt lat="44.63527" lon="3.59798">
        <ele>1365.391515</ele>
        <time>2019-10-07T20:51:00.745Z</time>
      </trkpt>
      <trkpt lat="44.63523" lon="3.59836">
        <ele>1365.980442</ele>
        <time>2019-10-07T20:51:08.169Z</time>
      </trkpt>
      <trkpt lat="44.6353" lon="3.59884">
        <ele>1366.731986</ele>
        <time>2019-10-07T20:51:18.903Z</time>
      </trkpt>
      <trkpt lat="44.63553" lon="3.60176">
        <ele>1372.043936</ele>
        <time>2019-10-07T20:52:42.546Z</time>
      </trkpt>
      <trkpt lat="44.63601" lon="3.60355">
        <ele>1375.801811</ele>
        <time>2019-10-07T20:53:31.340Z</time>
      </trkpt>
      <trkpt lat="44.63593" lon="3.60413">
        <ele>1376.818979</ele>
        <time>2019-10-07T20:53:45.796Z</time>
      </trkpt>
      <trkpt lat="44.63546" lon="3.60485">
        <ele>1378.51979</ele>
        <time>2019-10-07T20:54:10.956Z</time>
      </trkpt>
      <trkpt lat="44.63653" lon="3.60503">
        <ele>1380.779328</ele>
        <time>2019-10-07T20:55:02.758Z</time>
      </trkpt>
      <trkpt lat="44.63732" lon="3.6046">
        <ele>1382.523511</ele>
        <time>2019-10-07T20:55:43.664Z</time>
      </trkpt>
      <trkpt lat="44.63813" lon="3.60378">
        <ele>1383.00524</ele>
        <time>2019-10-07T20:56:24.013Z</time>
      </trkpt>
      <trkpt lat="44.63904" lon="3.6034">
        <ele>1383.419385</ele>
        <time>2019-10-07T20:56:58.785Z</time>
      </trkpt>
      <trkpt lat="44.64056" lon="3.6026">
        <ele>1383.867412</ele>
        <time>2019-10-07T20:57:59.738Z</time>
      </trkpt>
      <trkpt lat="44.6414" lon="3.60232">
        <ele>1385.831243</ele>
        <time>2019-10-07T20:58:38.653Z</time>
      </trkpt>
      <trkpt lat="44.64202" lon="3.60229">
        <ele>1387.318177</ele>
        <time>2019-10-07T20:59:10.019Z</time>
      </trkpt>
      <trkpt lat="44.64253" lon="3.60226">
        <ele>1388.917363</ele>
        <time>2019-10-07T20:59:37.839Z</time>
      </trkpt>
      <trkpt lat="44.64372" lon="3.60295">
        <ele>1395.359303</ele>
        <time>2019-10-07T21:00:57.876Z</time>
      </trkpt>
      <trkpt lat="44.64466" lon="3.60318">
        <ele>1400.803496</ele>
        <time>2019-10-07T21:02:02.998Z</time>
      </trkpt>
      <trkpt lat="44.64537" lon="3.60243">
        <ele>1406.148924</ele>
        <time>2019-10-07T21:03:03.775Z</time>
      </trkpt>
      <trkpt lat="44.6457" lon="3.60239">
        <ele>1408.178259</ele>
        <time>2019-10-07T21:03:26.786Z</time>
      </trkpt>
      <trkpt lat="44.64762" lon="3.60264">
        <ele>1418.05726</ele>
        <time>2019-10-07T21:05:29.700Z</time>
      </trkpt>
      <trkpt lat="44.64857" lon="3.60247">
        <ele>1420.945745</ele>
        <time>2019-10-07T21:06:21.655Z</time>
      </trkpt>
      <trkpt lat="44.64921" lon="3.60256">
        <ele>1422.893561</ele>
        <time>2019-10-07T21:06:51.873Z</time>
      </trkpt>
      <trkpt lat="44.64969" lon="3.60243">
        <ele>1422.91024</ele>
        <time>2019-10-07T21:07:12.184Z</time>
      </trkpt>
      <trkpt lat="44.6517" lon="3.59672">
        <ele>1421.414137</ele>
        <time>2019-10-07T21:09:53.422Z</time>
      </trkpt>
      <trkpt lat="44.6517" lon="3.59672">
        <ele>1421.414137</ele>
        <time>2019-10-07T21:09:53.426Z</time>
      </trkpt>
      <trkpt lat="44.65228" lon="3.59395">
        <ele>1421.485582</ele>
        <time>2019-10-07T21:11:09.950Z</time>
      </trkpt>
      <trkpt lat="44.65228" lon="3.59327">
        <ele>1421.876759</ele>
        <time>2019-10-07T21:11:30.209Z</time>
      </trkpt>
      <trkpt lat="44.65356" lon="3.59033">
        <ele>1424.635002</ele>
        <time>2019-10-07T21:12:43.507Z</time>
      </trkpt>
      <trkpt lat="44.65411" lon="3.5885">
        <ele>1425.639939</ele>
        <time>2019-10-07T21:13:21.526Z</time>
      </trkpt>
      <trkpt lat="44.65431" lon="3.58649">
        <ele>1425.70827</ele>
        <time>2019-10-07T21:13:55.458Z</time>
      </trkpt>
      <trkpt lat="44.65547" lon="3.58331">
        <ele>1422.742273</ele>
        <time>2019-10-07T21:14:48.567Z</time>
      </trkpt>
      <trkpt lat="44.65623" lon="3.5802">
        <ele>1417.020828</ele>
        <time>2019-10-07T21:15:31.367Z</time>
      </trkpt>
      <trkpt lat="44.65691" lon="3.57893">
        <ele>1414.702188</ele>
        <time>2019-10-07T21:15:52.398Z</time>
      </trkpt>
      <trkpt lat="44.65723" lon="3.57814">
        <ele>1413.518719</ele>
        <time>2019-10-07T21:16:05.330Z</time>
      </trkpt>
      <trkpt lat="44.65742" lon="3.57604">
        <ele>1412.155065</ele>
        <time>2019-10-07T21:16:37.499Z</time>
      </trkpt>
      <trkpt lat="44.65784" lon="3.57621">
        <ele>1411.862725</ele>
        <time>2019-10-07T21:16:47.242Z</time>
      </trkpt>
      <trkpt lat="44.65844" lon="3.57649">
        <ele>1411.451167</ele>
        <time>2019-10-07T21:17:01.072Z</time>
      </trkpt>
      <trkpt lat="44.65936" lon="3.57822">
        <ele>1410.212296</ele>
        <time>2019-10-07T21:17:34.052Z</time>
      </trkpt>
      <trkpt lat="44.65971" lon="3.57916">
        <ele>1408.844281</ele>
        <time>2019-10-07T21:17:49.301Z</time>
      </trkpt>
      <trkpt lat="44.66109" lon="3.57997">
        <ele>1404.666114</ele>
        <time>2019-10-07T21:18:17.003Z</time>
      </trkpt>
      <trkpt lat="44.66232" lon="3.58139">
        <ele>1397.256143</ele>
        <time>2019-10-07T21:18:43.690Z</time>
      </trkpt>
      <trkpt lat="44.66257" lon="3.58202">
        <ele>1394.081991</ele>
        <time>2019-10-07T21:18:51.844Z</time>
      </trkpt>
      <trkpt lat="44.66294" lon="3.58353">
        <ele>1386.95866</ele>
        <time>2019-10-07T21:19:09.846Z</time>
      </trkpt>
      <trkpt lat="44.66302" lon="3.58357">
        <ele>1386.412859</ele>
        <time>2019-10-07T21:19:11.200Z</time>
      </trkpt>
      <trkpt lat="44.66338" lon="3.58354">
        <ele>1384.14577</ele>
        <time>2019-10-07T21:19:16.858Z</time>
      </trkpt>
      <trkpt lat="44.66459" lon="3.58326">
        <ele>1376.586491</ele>
        <time>2019-10-07T21:19:36.713Z</time>
      </trkpt>
      <trkpt lat="44.66502" lon="3.58304">
        <ele>1374.218252</ele>
        <time>2019-10-07T21:19:44.323Z</time>
      </trkpt>
      <trkpt lat="44.6651" lon="3.58305">
        <ele>1373.805031</ele>
        <time>2019-10-07T21:19:45.665Z</time>
      </trkpt>
      <trkpt lat="44.66573" lon="3.58413">
        <ele>1368.634457</ele>
        <time>2019-10-07T21:20:02.332Z</time>
      </trkpt>
      <trkpt lat="44.66597" lon="3.58465">
        <ele>1365.510932</ele>
        <time>2019-10-07T21:20:09.514Z</time>
      </trkpt>
      <trkpt lat="44.66642" lon="3.58519">
        <ele>1360.908306</ele>
        <time>2019-10-07T21:20:18.958Z</time>
      </trkpt>
      <trkpt lat="44.66685" lon="3.58553">
        <ele>1357.12075</ele>
        <time>2019-10-07T21:20:26.454Z</time>
      </trkpt>
      <trkpt lat="44.66699" lon="3.5858">
        <ele>1355.2707</ele>
        <time>2019-10-07T21:20:30.053Z</time>
      </trkpt>
      <trkpt lat="44.66707" lon="3.58628">
        <ele>1351.705074</ele>
        <time>2019-10-07T21:20:35.255Z</time>
      </trkpt>
      <trkpt lat="44.66706" lon="3.58785">
        <ele>1338.638807</ele>
        <time>2019-10-07T21:20:51.549Z</time>
      </trkpt>
      <trkpt lat="44.66714" lon="3.58897">
        <ele>1328.656814</ele>
        <time>2019-10-07T21:21:03.109Z</time>
      </trkpt>
      <trkpt lat="44.66703" lon="3.58978">
        <ele>1320.850879</ele>
        <time>2019-10-07T21:21:11.450Z</time>
      </trkpt>
      <trkpt lat="44.66698" lon="3.59248">
        <ele>1296.590225</ele>
        <time>2019-10-07T21:21:38.931Z</time>
      </trkpt>
      <trkpt lat="44.66708" lon="3.59259">
        <ele>1295.122302</ele>
        <time>2019-10-07T21:21:40.701Z</time>
      </trkpt>
      <trkpt lat="44.66758" lon="3.59288">
        <ele>1288.556684</ele>
        <time>2019-10-07T21:21:48.781Z</time>
      </trkpt>
      <trkpt lat="44.66769" lon="3.59298">
        <ele>1287.232162</ele>
        <time>2019-10-07T21:21:50.780Z</time>
      </trkpt>
      <trkpt lat="44.66772" lon="3.59311">
        <ele>1286.667202</ele>
        <time>2019-10-07T21:21:52.271Z</time>
      </trkpt>
      <trkpt lat="44.66763" lon="3.59347">
        <ele>1285.11197</ele>
        <time>2019-10-07T21:21:56.426Z</time>
      </trkpt>
      <trkpt lat="44.66742" lon="3.59389">
        <ele>1283.022102</ele>
        <time>2019-10-07T21:22:02.173Z</time>
      </trkpt>
      <trkpt lat="44.66741" lon="3.59406">
        <ele>1282.343289</ele>
        <time>2019-10-07T21:22:04.122Z</time>
      </trkpt>
      <trkpt lat="44.66745" lon="3.59445">
        <ele>1280.720048</ele>
        <time>2019-10-07T21:22:08.765Z</time>
      </trkpt>
      <trkpt lat="44.66749" lon="3.59458">
        <ele>1280.131254</ele>
        <time>2019-10-07T21:22:11.109Z</time>
      </trkpt>
      <trkpt lat="44.66754" lon="3.59471">
        <ele>1279.553462</ele>
        <time>2019-10-07T21:22:13.513Z</time>
      </trkpt>
      <trkpt lat="44.6676" lon="3.59478">
        <ele>1279.129622</ele>
        <time>2019-10-07T21:22:15.262Z</time>
      </trkpt>
      <trkpt lat="44.66764" lon="3.59485">
        <ele>1278.757925</ele>
        <time>2019-10-07T21:22:16.694Z</time>
      </trkpt>
      <trkpt lat="44.66768" lon="3.59511">
        <ele>1277.655825</ele>
        <time>2019-10-07T21:22:21.451Z</time>
      </trkpt>
      <trkpt lat="44.66782" lon="3.59521">
        <ele>1277.418793</ele>
        <time>2019-10-07T21:22:25.112Z</time>
      </trkpt>
      <trkpt lat="44.66777" lon="3.59559">
        <ele>1278.185415</ele>
        <time>2019-10-07T21:22:30.575Z</time>
      </trkpt>
      <trkpt lat="44.66774" lon="3.59601">
        <ele>1279.023342</ele>
        <time>2019-10-07T21:22:39.917Z</time>
      </trkpt>
      <trkpt lat="44.66766" lon="3.59645">
        <ele>1279.922943</ele>
        <time>2019-10-07T21:22:51.540Z</time>
      </trkpt>
      <trkpt lat="44.66775" lon="3.59652">
        <ele>1280.202086</ele>
        <time>2019-10-07T21:22:56.130Z</time>
      </trkpt>
      <trkpt lat="44.66806" lon="3.59665">
        <ele>1281.125322</ele>
        <time>2019-10-07T21:23:13.061Z</time>
      </trkpt>
      <trkpt lat="44.66809" lon="3.59694">
        <ele>1281.697356</ele>
        <time>2019-10-07T21:23:25.577Z</time>
      </trkpt>
      <trkpt lat="44.66821" lon="3.59716">
        <ele>1282.2437</ele>
        <time>2019-10-07T21:23:35.872Z</time>
      </trkpt>
      <trkpt lat="44.66823" lon="3.5972">
        <ele>1282.508164</ele>
        <time>2019-10-07T21:23:38.962Z</time>
      </trkpt>
      <trkpt lat="44.66826" lon="3.59728">
        <ele>1283.036054</ele>
        <time>2019-10-07T21:23:44.879Z</time>
      </trkpt>
      <trkpt lat="44.66848" lon="3.59778">
        <ele>1286.444098</ele>
        <time>2019-10-07T21:24:15.136Z</time>
      </trkpt>
      <trkpt lat="44.66871" lon="3.59956">
        <ele>1296.868706</ele>
        <time>2019-10-07T21:26:00.096Z</time>
      </trkpt>
      <trkpt lat="44.66881" lon="3.59978">
        <ele>1298.440147</ele>
        <time>2019-10-07T21:26:14.386Z</time>
      </trkpt>
      <trkpt lat="44.66913" lon="3.60014">
        <ele>1301.958049</ele>
        <time>2019-10-07T21:26:46.598Z</time>
      </trkpt>
      <trkpt lat="44.66922" lon="3.60005">
        <ele>1302.934047</ele>
        <time>2019-10-07T21:26:55.638Z</time>
      </trkpt>
      <trkpt lat="44.66986" lon="3.59862">
        <ele>1313.219328</ele>
        <time>2019-10-07T21:28:32.617Z</time>
      </trkpt>
      <trkpt lat="44.67038" lon="3.59775">
        <ele>1319.722876</ele>
        <time>2019-10-07T21:29:38.357Z</time>
      </trkpt>
      <trkpt lat="44.67105" lon="3.59648">
        <ele>1327.827742</ele>
        <time>2019-10-07T21:31:03.126Z</time>
      </trkpt>
      <trkpt lat="44.67155" lon="3.59512">
        <ele>1332.48246</ele>
        <time>2019-10-07T21:32:08.968Z</time>
      </trkpt>
      <trkpt lat="44.67174" lon="3.59401">
        <ele>1334.520544</ele>
        <time>2019-10-07T21:32:44.997Z</time>
      </trkpt>
      <trkpt lat="44.67172" lon="3.59304">
        <ele>1334.595328</ele>
        <time>2019-10-07T21:33:10.538Z</time>
      </trkpt>
      <trkpt lat="44.67183" lon="3.59249">
        <ele>1334.639407</ele>
        <time>2019-10-07T21:33:24.667Z</time>
      </trkpt>
      <trkpt lat="44.67198" lon="3.58906">
        <ele>1334.392452</ele>
        <time>2019-10-07T21:34:52.506Z</time>
      </trkpt>
      <trkpt lat="44.67238" lon="3.58792">
        <ele>1335.593775</ele>
        <time>2019-10-07T21:35:31.699Z</time>
      </trkpt>
      <trkpt lat="44.67294" lon="3.5866">
        <ele>1337.742715</ele>
        <time>2019-10-07T21:36:26.247Z</time>
      </trkpt>
      <trkpt lat="44.6736" lon="3.58527">
        <ele>1340.899256</ele>
        <time>2019-10-07T21:37:26.682Z</time>
      </trkpt>
      <trkpt lat="44.67412" lon="3.5838">
        <ele>1341.990789</ele>
        <time>2019-10-07T21:38:22.589Z</time>
      </trkpt>
      <trkpt lat="44.67455" lon="3.58289">
        <ele>1342.504242</ele>
        <time>2019-10-07T21:38:49.304Z</time>
      </trkpt>
      <trkpt lat="44.6747" lon="3.58253">
        <ele>1341.71571</ele>
        <time>2019-10-07T21:38:59.404Z</time>
      </trkpt>
      <trkpt lat="44.67476" lon="3.58262">
        <ele>1341.464635</ele>
        <time>2019-10-07T21:39:01.944Z</time>
      </trkpt>
      <trkpt lat="44.67498" lon="3.58299">
        <ele>1340.510574</ele>
        <time>2019-10-07T21:39:12.588Z</time>
      </trkpt>
      <trkpt lat="44.67532" lon="3.58321">
        <ele>1339.453439</ele>
        <time>2019-10-07T21:39:24.036Z</time>
      </trkpt>
      <trkpt lat="44.67574" lon="3.58341">
        <ele>1338.221996</ele>
        <time>2019-10-07T21:39:37.449Z</time>
      </trkpt>
      <trkpt lat="44.6764" lon="3.58358">
        <ele>1337.679594</ele>
        <time>2019-10-07T21:39:58.346Z</time>
      </trkpt>
      <trkpt lat="44.67701" lon="3.58385">
        <ele>1337.970998</ele>
        <time>2019-10-07T21:40:21.480Z</time>
      </trkpt>
      <trkpt lat="44.67734" lon="3.58438">
        <ele>1338.200257</ele>
        <time>2019-10-07T21:40:44.684Z</time>
      </trkpt>
      <trkpt lat="44.6776" lon="3.58516">
        <ele>1340.991507</ele>
        <time>2019-10-07T21:41:19.554Z</time>
      </trkpt>
      <trkpt lat="44.67795" lon="3.58596">
        <ele>1345.875522</ele>
        <time>2019-10-07T21:42:08.736Z</time>
      </trkpt>
      <trkpt lat="44.67813" lon="3.5868">
        <ele>1350.493898</ele>
        <time>2019-10-07T21:43:00.816Z</time>
      </trkpt>
      <trkpt lat="44.67807" lon="3.58713">
        <ele>1352.538641</ele>
        <time>2019-10-07T21:43:21.528Z</time>
      </trkpt>
      <trkpt lat="44.67843" lon="3.58753">
        <ele>1357.400215</ele>
        <time>2019-10-07T21:44:02.831Z</time>
      </trkpt>
      <trkpt lat="44.67868" lon="3.58777">
        <ele>1360.583418</ele>
        <time>2019-10-07T21:44:30.637Z</time>
      </trkpt>
      <trkpt lat="44.68003" lon="3.58855">
        <ele>1374.848448</ele>
        <time>2019-10-07T21:46:43.953Z</time>
      </trkpt>
      <trkpt lat="44.68042" lon="3.58864">
        <ele>1378.181169</ele>
        <time>2019-10-07T21:47:16.385Z</time>
      </trkpt>
      <trkpt lat="44.68065" lon="3.58876">
        <ele>1380.265996</ele>
        <time>2019-10-07T21:47:35.590Z</time>
      </trkpt>
      <trkpt lat="44.68108" lon="3.58912">
        <ele>1384.429654</ele>
        <time>2019-10-07T21:48:11.913Z</time>
      </trkpt>
      <trkpt lat="44.68148" lon="3.58933">
        <ele>1386.536685</ele>
        <time>2019-10-07T21:48:39.941Z</time>
      </trkpt>
      <trkpt lat="44.68197" lon="3.5905">
        <ele>1389.741906</ele>
        <time>2019-10-07T21:49:32.921Z</time>
      </trkpt>
      <trkpt lat="44.6826" lon="3.5913">
        <ele>1391.603037</ele>
        <time>2019-10-07T21:50:09.440Z</time>
      </trkpt>
      <trkpt lat="44.6832" lon="3.59244">
        <ele>1391.811387</ele>
        <time>2019-10-07T21:50:46.931Z</time>
      </trkpt>
      <trkpt lat="44.68415" lon="3.59388">
        <ele>1392.387638</ele>
        <time>2019-10-07T21:51:37.237Z</time>
      </trkpt>
      <trkpt lat="44.68473" lon="3.59433">
        <ele>1392.73745</ele>
        <time>2019-10-07T21:52:05.682Z</time>
      </trkpt>
      <trkpt lat="44.68551" lon="3.59494">
        <ele>1394.539452</ele>
        <time>2019-10-07T21:52:46.694Z</time>
      </trkpt>
      <trkpt lat="44.68562" lon="3.59468">
        <ele>1395.081233</ele>
        <time>2019-10-07T21:52:58.093Z</time>
      </trkpt>
      <trkpt lat="44.68617" lon="3.5943">
        <ele>1396.600072</ele>
        <time>2019-10-07T21:53:28.805Z</time>
      </trkpt>
      <trkpt lat="44.68655" lon="3.59341">
        <ele>1398.68567</ele>
        <time>2019-10-07T21:54:08.899Z</time>
      </trkpt>
      <trkpt lat="44.68678" lon="3.59258">
        <ele>1400.615237</ele>
        <time>2019-10-07T21:54:41.991Z</time>
      </trkpt>
      <trkpt lat="44.68688" lon="3.59202">
        <ele>1401.864716</ele>
        <time>2019-10-07T21:55:03.106Z</time>
      </trkpt>
      <trkpt lat="44.68703" lon="3.59138">
        <ele>1403.399035</ele>
        <time>2019-10-07T21:55:27.808Z</time>
      </trkpt>
      <trkpt lat="44.68729" lon="3.5904">
        <ele>1406.0213</ele>
        <time>2019-10-07T21:56:06.850Z</time>
      </trkpt>
      <trkpt lat="44.68827" lon="3.58891">
        <ele>1411.328687</ele>
        <time>2019-10-07T21:57:29.562Z</time>
      </trkpt>
      <trkpt lat="44.68869" lon="3.58841">
        <ele>1413.510744</ele>
        <time>2019-10-07T21:58:01.855Z</time>
      </trkpt>
      <trkpt lat="44.68889" lon="3.58803">
        <ele>1414.868269</ele>
        <time>2019-10-07T21:58:21.566Z</time>
      </trkpt>
      <trkpt lat="44.68956" lon="3.58595">
        <ele>1420.299347</ele>
        <time>2019-10-07T21:59:49.292Z</time>
      </trkpt>
      <trkpt lat="44.68979" lon="3.58497">
        <ele>1422.531332</ele>
        <time>2019-10-07T22:00:25.663Z</time>
      </trkpt>
      <trkpt lat="44.69046" lon="3.58113">
        <ele>1430.455994</ele>
        <time>2019-10-07T22:02:47.928Z</time>
      </trkpt>
      <trkpt lat="44.69074" lon="3.5803">
        <ele>1432.450094</ele>
        <time>2019-10-07T22:03:24.247Z</time>
      </trkpt>
      <trkpt lat="44.69092" lon="3.57999">
        <ele>1433.404099</ele>
        <time>2019-10-07T22:03:40.309Z</time>
      </trkpt>
      <trkpt lat="44.69176" lon="3.57882">
        <ele>1437.357872</ele>
        <time>2019-10-07T22:04:45.997Z</time>
      </trkpt>
      <trkpt lat="44.69435" lon="3.57478">
        <ele>1445.528863</ele>
        <time>2019-10-07T22:07:48.529Z</time>
      </trkpt>
      <trkpt lat="44.69559" lon="3.5726">
        <ele>1448.410967</ele>
        <time>2019-10-07T22:09:14.690Z</time>
      </trkpt>
      <trkpt lat="44.69641" lon="3.57092">
        <ele>1451.183012</ele>
        <time>2019-10-07T22:10:22.298Z</time>
      </trkpt>
      <trkpt lat="44.69696" lon="3.57016">
        <ele>1453.394799</ele>
        <time>2019-10-07T22:11:01.184Z</time>
      </trkpt>
      <trkpt lat="44.6979" lon="3.56854">
        <ele>1458.167024</ele>
        <time>2019-10-07T22:12:22.300Z</time>
      </trkpt>
      <trkpt lat="44.69804" lon="3.56834">
        <ele>1458.832361</ele>
        <time>2019-10-07T22:12:32.878Z</time>
      </trkpt>
      <trkpt lat="44.69826" lon="3.56815">
        <ele>1459.734737</ele>
        <time>2019-10-07T22:12:47.507Z</time>
      </trkpt>
      <trkpt lat="44.69874" lon="3.5679">
        <ele>1461.449609</ele>
        <time>2019-10-07T22:13:14.847Z</time>
      </trkpt>
      <trkpt lat="44.69876" lon="3.56786">
        <ele>1461.568257</ele>
        <time>2019-10-07T22:13:16.671Z</time>
      </trkpt>
      <trkpt lat="44.69879" lon="3.5678">
        <ele>1461.75016</ele>
        <time>2019-10-07T22:13:20.035Z</time>
      </trkpt>
      <trkpt lat="44.6994" lon="3.56676">
        <ele>1464.605269</ele>
        <time>2019-10-07T22:14:10.797Z</time>
      </trkpt>
      <trkpt lat="44.70049" lon="3.5644">
        <ele>1469.365309</ele>
        <time>2019-10-07T22:15:48.632Z</time>
      </trkpt>
      <trkpt lat="44.70111" lon="3.56294">
        <ele>1471.704116</ele>
        <time>2019-10-07T22:16:44.179Z</time>
      </trkpt>
      <trkpt lat="44.70135" lon="3.56189">
        <ele>1472.967508</ele>
        <time>2019-10-07T22:17:18.904Z</time>
      </trkpt>
      <trkpt lat="44.70137" lon="3.5616">
        <ele>1473.295835</ele>
        <time>2019-10-07T22:17:28.323Z</time>
      </trkpt>
      <trkpt lat="44.70149" lon="3.56138">
        <ele>1473.612898</ele>
        <time>2019-10-07T22:17:36.710Z</time>
      </trkpt>
      <trkpt lat="44.70261" lon="3.56039">
        <ele>1476.065041</ele>
        <time>2019-10-07T22:18:37.911Z</time>
      </trkpt>
      <trkpt lat="44.70493" lon="3.55892">
        <ele>1481.059233</ele>
        <time>2019-10-07T22:20:40.006Z</time>
      </trkpt>
      <trkpt lat="44.70556" lon="3.55873">
        <ele>1481.422512</ele>
        <time>2019-10-07T22:21:07.480Z</time>
      </trkpt>
      <trkpt lat="44.70578" lon="3.5587">
        <ele>1481.392678</ele>
        <time>2019-10-07T22:21:16.208Z</time>
      </trkpt>
      <trkpt lat="44.70694" lon="3.55852">
        <ele>1481.21795</ele>
        <time>2019-10-07T22:21:57.334Z</time>
      </trkpt>
      <trkpt lat="44.70811" lon="3.55827">
        <ele>1479.504941</ele>
        <time>2019-10-07T22:22:36.114Z</time>
      </trkpt>
      <trkpt lat="44.7085" lon="3.55827">
        <ele>1478.944643</ele>
        <time>2019-10-07T22:22:49.121Z</time>
      </trkpt>
      <trkpt lat="44.70922" lon="3.55866">
        <ele>1478.848986</ele>
        <time>2019-10-07T22:23:16.159Z</time>
      </trkpt>
      <trkpt lat="44.7119" lon="3.55875">
        <ele>1479.925977</ele>
        <time>2019-10-07T22:25:08.506Z</time>
      </trkpt>
      <trkpt lat="44.71493" lon="3.56159">
        <ele>1475.578509</ele>
        <time>2019-10-07T22:27:12.267Z</time>
      </trkpt>
      <trkpt lat="44.71493" lon="3.56159">
        <ele>1475.577333</ele>
        <time>2019-10-07T22:27:12.346Z</time>
      </trkpt>
      <trkpt lat="44.71504" lon="3.56168">
        <ele>1475.365298</ele>
        <time>2019-10-07T22:27:16.492Z</time>
      </trkpt>
      <trkpt lat="44.71524" lon="3.56185">
        <ele>1474.963498</ele>
        <time>2019-10-07T22:27:23.769Z</time>
      </trkpt>
      <trkpt lat="44.716" lon="3.56271">
        <ele>1472.989342</ele>
        <time>2019-10-07T22:27:55.065Z</time>
      </trkpt>
      <trkpt lat="44.71714" lon="3.56337">
        <ele>1470.794719</ele>
        <time>2019-10-07T22:28:36.173Z</time>
      </trkpt>
      <trkpt lat="44.71892" lon="3.56468">
        <ele>1468.034394</ele>
        <time>2019-10-07T22:29:44.152Z</time>
      </trkpt>
      <trkpt lat="44.71955" lon="3.56482">
        <ele>1467.149123</ele>
        <time>2019-10-07T22:30:05.584Z</time>
      </trkpt>
      <trkpt lat="44.7207" lon="3.56476">
        <ele>1465.287167</ele>
        <time>2019-10-07T22:30:44.141Z</time>
      </trkpt>
      <trkpt lat="44.72247" lon="3.56504">
        <ele>1462.91468</ele>
        <time>2019-10-07T22:31:41.978Z</time>
      </trkpt>
      <trkpt lat="44.72255" lon="3.56491">
        <ele>1462.846804</ele>
        <time>2019-10-07T22:31:46.048Z</time>
      </trkpt>
      <trkpt lat="44.72316" lon="3.56494">
        <ele>1462.517344</ele>
        <time>2019-10-07T22:32:08.155Z</time>
      </trkpt>
      <trkpt lat="44.72313" lon="3.56503">
        <ele>1462.476434</ele>
        <time>2019-10-07T22:32:09.734Z</time>
      </trkpt>
      <trkpt lat="44.72308" lon="3.56517">
        <ele>1462.42015</ele>
        <time>2019-10-07T22:32:12.316Z</time>
      </trkpt>
      <trkpt lat="44.72317" lon="3.56522">
        <ele>1462.370047</ele>
        <time>2019-10-07T22:32:16.276Z</time>
      </trkpt>
      <trkpt lat="44.72372" lon="3.56528">
        <ele>1463.71459</ele>
        <time>2019-10-07T22:32:41.118Z</time>
      </trkpt>
      <trkpt lat="44.72397" lon="3.56513">
        <ele>1464.704097</ele>
        <time>2019-10-07T22:32:55.459Z</time>
      </trkpt>
      <trkpt lat="44.72442" lon="3.5647">
        <ele>1466.687536</ele>
        <time>2019-10-07T22:33:26.126Z</time>
      </trkpt>
      <trkpt lat="44.72472" lon="3.5645">
        <ele>1467.868902</ele>
        <time>2019-10-07T22:33:46.660Z</time>
      </trkpt>
      <trkpt lat="44.72551" lon="3.56415">
        <ele>1471.499219</ele>
        <time>2019-10-07T22:34:41.875Z</time>
      </trkpt>
      <trkpt lat="44.72601" lon="3.56414">
        <ele>1473.82376</ele>
        <time>2019-10-07T22:35:12.584Z</time>
      </trkpt>
      <trkpt lat="44.7268" lon="3.56424">
        <ele>1477.415717</ele>
        <time>2019-10-07T22:35:58.117Z</time>
      </trkpt>
      <trkpt lat="44.72701" lon="3.56417">
        <ele>1477.953014</ele>
        <time>2019-10-07T22:36:09.614Z</time>
      </trkpt>
      <trkpt lat="44.72727" lon="3.56424">
        <ele>1478.607677</ele>
        <time>2019-10-07T22:36:23.062Z</time>
      </trkpt>
      <trkpt lat="44.72802" lon="3.56392">
        <ele>1480.527019</ele>
        <time>2019-10-07T22:37:00.276Z</time>
      </trkpt>
      <trkpt lat="44.7286" lon="3.5635">
        <ele>1482.114167</ele>
        <time>2019-10-07T22:37:30.343Z</time>
      </trkpt>
      <trkpt lat="44.72883" lon="3.56323">
        <ele>1482.788449</ele>
        <time>2019-10-07T22:37:44.056Z</time>
      </trkpt>
      <trkpt lat="44.72986" lon="3.56237">
        <ele>1485.481101</ele>
        <time>2019-10-07T22:38:42.323Z</time>
      </trkpt>
      <trkpt lat="44.73029" lon="3.56192">
        <ele>1486.746212</ele>
        <time>2019-10-07T22:39:09.911Z</time>
      </trkpt>
      <trkpt lat="44.73076" lon="3.56113">
        <ele>1488.510259</ele>
        <time>2019-10-07T22:39:47.487Z</time>
      </trkpt>
      <trkpt lat="44.73125" lon="3.56058">
        <ele>1490.012803</ele>
        <time>2019-10-07T22:40:18.194Z</time>
      </trkpt>
      <trkpt lat="44.73192" lon="3.55951">
        <ele>1489.842155</ele>
        <time>2019-10-07T22:40:59.934Z</time>
      </trkpt>
      <trkpt lat="44.73231" lon="3.55903">
        <ele>1489.723271</ele>
        <time>2019-10-07T22:41:17.601Z</time>
      </trkpt>
      <trkpt lat="44.73282" lon="3.55873">
        <ele>1488.667397</ele>
        <time>2019-10-07T22:41:35.248Z</time>
      </trkpt>
      <trkpt lat="44.73344" lon="3.55809">
        <ele>1485.741509</ele>
        <time>2019-10-07T22:41:58.442Z</time>
      </trkpt>
      <trkpt lat="44.73381" lon="3.55755">
        <ele>1483.711885</ele>
        <time>2019-10-07T22:42:14.059Z</time>
      </trkpt>
      <trkpt lat="44.73401" lon="3.55712">
        <ele>1482.219919</ele>
        <time>2019-10-07T22:42:24.579Z</time>
      </trkpt>
      <trkpt lat="44.73538" lon="3.55235">
        <ele>1464.926596</ele>
        <time>2019-10-07T22:44:11.185Z</time>
      </trkpt>
      <trkpt lat="44.73538" lon="3.55235">
        <ele>1464.926596</ele>
        <time>2019-10-07T22:44:11.210Z</time>
      </trkpt>
      <trkpt lat="44.73545" lon="3.55174">
        <ele>1462.401368</ele>
        <time>2019-10-07T22:44:24.309Z</time>
      </trkpt>
      <trkpt lat="44.73556" lon="3.5514">
        <ele>1460.889991</ele>
        <time>2019-10-07T22:44:32.120Z</time>
      </trkpt>
      <trkpt lat="44.73606" lon="3.55062">
        <ele>1456.631697</ele>
        <time>2019-10-07T22:44:52.815Z</time>
      </trkpt>
      <trkpt lat="44.73627" lon="3.55005">
        <ele>1453.280603</ele>
        <time>2019-10-07T22:45:05.140Z</time>
      </trkpt>
      <trkpt lat="44.73642" lon="3.54965">
        <ele>1450.554465</ele>
        <time>2019-10-07T22:45:14.038Z</time>
      </trkpt>
      <trkpt lat="44.73646" lon="3.54955">
        <ele>1449.921347</ele>
        <time>2019-10-07T22:45:15.941Z</time>
      </trkpt>
      <trkpt lat="44.7377" lon="3.54715">
        <ele>1432.959491</ele>
        <time>2019-10-07T22:46:11.263Z</time>
      </trkpt>
      <trkpt lat="44.73815" lon="3.54616">
        <ele>1426.781178</ele>
        <time>2019-10-07T22:46:34.241Z</time>
      </trkpt>
      <trkpt lat="44.73833" lon="3.54575">
        <ele>1426.122815</ele>
        <time>2019-10-07T22:46:44.168Z</time>
      </trkpt>
      <trkpt lat="44.73839" lon="3.5456">
        <ele>1425.880304</ele>
        <time>2019-10-07T22:46:47.993Z</time>
      </trkpt>
      <trkpt lat="44.73848" lon="3.54532">
        <ele>1425.455932</ele>
        <time>2019-10-07T22:46:51.813Z</time>
      </trkpt>
      <trkpt lat="44.73856" lon="3.54515">
        <ele>1425.175602</ele>
        <time>2019-10-07T22:46:54.578Z</time>
      </trkpt>
      <trkpt lat="44.73928" lon="3.54349">
        <ele>1424.591262</ele>
        <time>2019-10-07T22:47:29.942Z</time>
      </trkpt>
      <trkpt lat="44.73939" lon="3.54319">
        <ele>1425.237408</ele>
        <time>2019-10-07T22:47:39.249Z</time>
      </trkpt>
      <trkpt lat="44.73952" lon="3.54302">
        <ele>1425.703551</ele>
        <time>2019-10-07T22:47:45.632Z</time>
      </trkpt>
      <trkpt lat="44.74267" lon="3.54099">
        <ele>1438.343881</ele>
        <time>2019-10-07T22:50:10.786Z</time>
      </trkpt>
      <trkpt lat="44.74349" lon="3.5403">
        <ele>1442.816082</ele>
        <time>2019-10-07T22:50:57.863Z</time>
      </trkpt>
      <trkpt lat="44.74408" lon="3.53991">
        <ele>1446.446747</ele>
        <time>2019-10-07T22:51:31.986Z</time>
      </trkpt>
      <trkpt lat="44.74648" lon="3.53851">
        <ele>1460.942197</ele>
        <time>2019-10-07T22:53:47.069Z</time>
      </trkpt>
      <trkpt lat="44.74817" lon="3.53676">
        <ele>1470.359054</ele>
        <time>2019-10-07T22:55:23.428Z</time>
      </trkpt>
      <trkpt lat="44.75017" lon="3.53436">
        <ele>1475.66567</ele>
        <time>2019-10-07T22:56:55.074Z</time>
      </trkpt>
      <trkpt lat="44.75187" lon="3.53181">
        <ele>1474.487668</ele>
        <time>2019-10-07T22:57:46.732Z</time>
      </trkpt>
      <trkpt lat="44.75199" lon="3.53173">
        <ele>1474.348185</ele>
        <time>2019-10-07T22:57:49.444Z</time>
      </trkpt>
      <trkpt lat="44.7521" lon="3.53167">
        <ele>1474.214228</ele>
        <time>2019-10-07T22:57:51.681Z</time>
      </trkpt>
      <trkpt lat="44.75257" lon="3.53146">
        <ele>1473.865059</ele>
        <time>2019-10-07T22:58:01.803Z</time>
      </trkpt>
      <trkpt lat="44.75274" lon="3.53136">
        <ele>1473.777037</ele>
        <time>2019-10-07T22:58:05.742Z</time>
      </trkpt>
      <trkpt lat="44.75278" lon="3.5313">
        <ele>1473.750446</ele>
        <time>2019-10-07T22:58:06.723Z</time>
      </trkpt>
      <trkpt lat="44.75356" lon="3.53029">
        <ele>1473.246171</ele>
        <time>2019-10-07T22:58:30.275Z</time>
      </trkpt>
      <trkpt lat="44.75427" lon="3.52936">
        <ele>1472.840824</ele>
        <time>2019-10-07T22:58:55.845Z</time>
      </trkpt>
      <trkpt lat="44.75503" lon="3.52893">
        <ele>1472.512034</ele>
        <time>2019-10-07T22:59:14.212Z</time>
      </trkpt>
      <trkpt lat="44.75599" lon="3.52645">
        <ele>1466.982195</ele>
        <time>2019-10-07T22:59:51.168Z</time>
      </trkpt>
      <trkpt lat="44.75708" lon="3.52404">
        <ele>1452.941053</ele>
        <time>2019-10-07T23:00:23.485Z</time>
      </trkpt>
      <trkpt lat="44.75764" lon="3.52282">
        <ele>1442.804747</ele>
        <time>2019-10-07T23:00:38.583Z</time>
      </trkpt>
      <trkpt lat="44.75777" lon="3.52263">
        <ele>1440.95481</ele>
        <time>2019-10-07T23:00:41.333Z</time>
      </trkpt>
      <trkpt lat="44.75809" lon="3.52236">
        <ele>1437.313415</ele>
        <time>2019-10-07T23:00:46.871Z</time>
      </trkpt>
      <trkpt lat="44.75839" lon="3.52201">
        <ele>1434.521368</ele>
        <time>2019-10-07T23:00:52.608Z</time>
      </trkpt>
      <trkpt lat="44.75864" lon="3.52164">
        <ele>1431.872238</ele>
        <time>2019-10-07T23:01:02.194Z</time>
      </trkpt>
      <trkpt lat="44.75868" lon="3.52171">
        <ele>1431.424628</ele>
        <time>2019-10-07T23:01:03.115Z</time>
      </trkpt>
      <trkpt lat="44.75872" lon="3.52182">
        <ele>1430.810785</ele>
        <time>2019-10-07T23:01:04.380Z</time>
      </trkpt>
      <trkpt lat="44.75875" lon="3.52191">
        <ele>1430.289657</ele>
        <time>2019-10-07T23:01:05.446Z</time>
      </trkpt>
      <trkpt lat="44.75886" lon="3.52185">
        <ele>1429.399928</ele>
        <time>2019-10-07T23:01:07.975Z</time>
      </trkpt>
      <trkpt lat="44.75891" lon="3.52185">
        <ele>1429.074623</ele>
        <time>2019-10-07T23:01:08.934Z</time>
      </trkpt>
      <trkpt lat="44.75906" lon="3.52209">
        <ele>1427.427391</ele>
        <time>2019-10-07T23:01:13.736Z</time>
      </trkpt>
      <trkpt lat="44.75939" lon="3.52204">
        <ele>1425.04416</ele>
        <time>2019-10-07T23:01:21.144Z</time>
      </trkpt>
      <trkpt lat="44.75955" lon="3.5219">
        <ele>1424.498492</ele>
        <time>2019-10-07T23:01:25.826Z</time>
      </trkpt>
      <trkpt lat="44.75962" lon="3.52159">
        <ele>1424.396295</ele>
        <time>2019-10-07T23:01:31.607Z</time>
      </trkpt>
      <trkpt lat="44.75948" lon="3.51998">
        <ele>1423.894156</ele>
        <time>2019-10-07T23:02:14.112Z</time>
      </trkpt>
      <trkpt lat="44.75949" lon="3.51741">
        <ele>1427.123377</ele>
        <time>2019-10-07T23:03:42.145Z</time>
      </trkpt>
      <trkpt lat="44.75953" lon="3.51711">
        <ele>1427.589657</ele>
        <time>2019-10-07T23:03:53.014Z</time>
      </trkpt>
      <trkpt lat="44.76028" lon="3.51593">
        <ele>1430.539875</ele>
        <time>2019-10-07T23:04:50.117Z</time>
      </trkpt>
      <trkpt lat="44.76084" lon="3.51531">
        <ele>1432.440134</ele>
        <time>2019-10-07T23:05:26.119Z</time>
      </trkpt>
      <trkpt lat="44.76112" lon="3.51489">
        <ele>1433.262033</ele>
        <time>2019-10-07T23:05:45.979Z</time>
      </trkpt>
      <trkpt lat="44.76149" lon="3.51454">
        <ele>1434.16539</ele>
        <time>2019-10-07T23:06:07.487Z</time>
      </trkpt>
      <trkpt lat="44.76203" lon="3.51344">
        <ele>1436.077433</ele>
        <time>2019-10-07T23:06:51.182Z</time>
      </trkpt>
      <trkpt lat="44.76238" lon="3.5129">
        <ele>1436.569471</ele>
        <time>2019-10-07T23:07:14.275Z</time>
      </trkpt>
      <trkpt lat="44.76252" lon="3.51252">
        <ele>1436.846977</ele>
        <time>2019-10-07T23:07:27.284Z</time>
      </trkpt>
      <trkpt lat="44.76294" lon="3.51178">
        <ele>1437.466004</ele>
        <time>2019-10-07T23:07:55.302Z</time>
      </trkpt>
      <trkpt lat="44.76301" lon="3.5112">
        <ele>1437.651629</ele>
        <time>2019-10-07T23:08:11.430Z</time>
      </trkpt>
      <trkpt lat="44.76318" lon="3.51077">
        <ele>1437.36848</ele>
        <time>2019-10-07T23:08:24.406Z</time>
      </trkpt>
      <trkpt lat="44.76303" lon="3.50989">
        <ele>1436.855371</ele>
        <time>2019-10-07T23:08:47.112Z</time>
      </trkpt>
      <trkpt lat="44.76305" lon="3.50982">
        <ele>1436.810656</ele>
        <time>2019-10-07T23:08:49.043Z</time>
      </trkpt>
      <trkpt lat="44.76427" lon="3.50769">
        <ele>1433.741567</ele>
        <time>2019-10-07T23:09:52.702Z</time>
      </trkpt>
      <trkpt lat="44.76458" lon="3.50708">
        <ele>1432.689064</ele>
        <time>2019-10-07T23:10:09.892Z</time>
      </trkpt>
      <trkpt lat="44.76463" lon="3.50699">
        <ele>1432.497704</ele>
        <time>2019-10-07T23:10:12.346Z</time>
      </trkpt>
      <trkpt lat="44.76469" lon="3.50693">
        <ele>1432.316795</ele>
        <time>2019-10-07T23:10:15.009Z</time>
      </trkpt>
      <trkpt lat="44.76472" lon="3.50693">
        <ele>1432.250012</ele>
        <time>2019-10-07T23:10:15.979Z</time>
      </trkpt>
      <trkpt lat="44.76552" lon="3.50789">
        <ele>1429.829684</ele>
        <time>2019-10-07T23:10:49.689Z</time>
      </trkpt>
      <trkpt lat="44.76556" lon="3.50789">
        <ele>1429.730636</ele>
        <time>2019-10-07T23:10:51.085Z</time>
      </trkpt>
      <trkpt lat="44.76561" lon="3.50788">
        <ele>1429.624175</ele>
        <time>2019-10-07T23:10:52.506Z</time>
      </trkpt>
      <trkpt lat="44.76592" lon="3.50757">
        <ele>1428.747968</ele>
        <time>2019-10-07T23:11:04.672Z</time>
      </trkpt>
      <trkpt lat="44.76624" lon="3.50754">
        <ele>1427.906879</ele>
        <time>2019-10-07T23:11:14.999Z</time>
      </trkpt>
      <trkpt lat="44.76676" lon="3.50722">
        <ele>1426.357977</ele>
        <time>2019-10-07T23:11:33.031Z</time>
      </trkpt>
      <trkpt lat="44.7672" lon="3.50717">
        <ele>1425.146981</ele>
        <time>2019-10-07T23:11:46.778Z</time>
      </trkpt>
      <trkpt lat="44.76758" lon="3.50642">
        <ele>1423.374452</ele>
        <time>2019-10-07T23:12:06.926Z</time>
      </trkpt>
      <trkpt lat="44.76791" lon="3.50613">
        <ele>1422.318583</ele>
        <time>2019-10-07T23:12:18.893Z</time>
      </trkpt>
      <trkpt lat="44.7683" lon="3.5059">
        <ele>1421.182596</ele>
        <time>2019-10-07T23:12:31.791Z</time>
      </trkpt>
      <trkpt lat="44.76855" lon="3.50565">
        <ele>1420.325888</ele>
        <time>2019-10-07T23:12:41.669Z</time>
      </trkpt>
      <trkpt lat="44.76891" lon="3.50546">
        <ele>1419.302786</ele>
        <time>2019-10-07T23:12:53.647Z</time>
      </trkpt>
      <trkpt lat="44.76911" lon="3.50526">
        <ele>1418.821423</ele>
        <time>2019-10-07T23:13:01.688Z</time>
      </trkpt>
      <trkpt lat="44.76947" lon="3.50512">
        <ele>1418.784118</ele>
        <time>2019-10-07T23:13:14.002Z</time>
      </trkpt>
      <trkpt lat="44.77045" lon="3.50502">
        <ele>1418.685685</ele>
        <time>2019-10-07T23:13:50.308Z</time>
      </trkpt>
      <trkpt lat="44.77096" lon="3.50489">
        <ele>1419.12415</ele>
        <time>2019-10-07T23:14:13.796Z</time>
      </trkpt>
      <trkpt lat="44.77119" lon="3.50486">
        <ele>1419.890096</ele>
        <time>2019-10-07T23:14:25.241Z</time>
      </trkpt>
      <trkpt lat="44.77167" lon="3.5047">
        <ele>1421.497719</ele>
        <time>2019-10-07T23:14:51.106Z</time>
      </trkpt>
      <trkpt lat="44.77208" lon="3.50451">
        <ele>1422.889335</ele>
        <time>2019-10-07T23:15:16.060Z</time>
      </trkpt>
      <trkpt lat="44.77221" lon="3.5045">
        <ele>1423.31131</ele>
        <time>2019-10-07T23:15:23.298Z</time>
      </trkpt>
      <trkpt lat="44.77327" lon="3.50387">
        <ele>1426.610937</ele>
        <time>2019-10-07T23:16:29.616Z</time>
      </trkpt>
      <trkpt lat="44.77342" lon="3.50376">
        <ele>1427.077299</ele>
        <time>2019-10-07T23:16:39.327Z</time>
      </trkpt>
      <trkpt lat="44.77364" lon="3.50359">
        <ele>1427.756413</ele>
        <time>2019-10-07T23:16:50.902Z</time>
      </trkpt>
      <trkpt lat="44.77373" lon="3.5035">
        <ele>1428.04942</ele>
        <time>2019-10-07T23:16:56.640Z</time>
      </trkpt>
      <trkpt lat="44.77436" lon="3.50261">
        <ele>1428.883016</ele>
        <time>2019-10-07T23:17:33.011Z</time>
      </trkpt>
      <trkpt lat="44.77456" lon="3.50241">
        <ele>1428.612394</ele>
        <time>2019-10-07T23:17:42.115Z</time>
      </trkpt>
      <trkpt lat="44.77579" lon="3.49989">
        <ele>1425.436217</ele>
        <time>2019-10-07T23:18:52.315Z</time>
      </trkpt>
      <trkpt lat="44.77627" lon="3.49854">
        <ele>1423.786097</ele>
        <time>2019-10-07T23:19:28.123Z</time>
      </trkpt>
      <trkpt lat="44.77667" lon="3.49804">
        <ele>1423.353525</ele>
        <time>2019-10-07T23:19:46.929Z</time>
      </trkpt>
      <trkpt lat="44.77673" lon="3.49791">
        <ele>1423.264319</ele>
        <time>2019-10-07T23:19:50.857Z</time>
      </trkpt>
      <trkpt lat="44.77692" lon="3.49626">
        <ele>1422.144005</ele>
        <time>2019-10-07T23:20:33.284Z</time>
      </trkpt>
      <trkpt lat="44.77698" lon="3.49503">
        <ele>1420.996445</ele>
        <time>2019-10-07T23:21:03.614Z</time>
      </trkpt>
      <trkpt lat="44.77697" lon="3.49429">
        <ele>1420.314223</ele>
        <time>2019-10-07T23:21:20.807Z</time>
      </trkpt>
      <trkpt lat="44.77703" lon="3.49377">
        <ele>1419.436045</ele>
        <time>2019-10-07T23:21:32.841Z</time>
      </trkpt>
      <trkpt lat="44.77736" lon="3.49319">
        <ele>1418.10572</ele>
        <time>2019-10-07T23:21:49.323Z</time>
      </trkpt>
      <trkpt lat="44.77765" lon="3.49254">
        <ele>1416.711147</ele>
        <time>2019-10-07T23:22:06.440Z</time>
      </trkpt>
      <trkpt lat="44.7783" lon="3.49131">
        <ele>1414.480118</ele>
        <time>2019-10-07T23:22:41.156Z</time>
      </trkpt>
      <trkpt lat="44.77877" lon="3.49062">
        <ele>1413.287135</ele>
        <time>2019-10-07T23:23:04.006Z</time>
      </trkpt>
      <trkpt lat="44.77938" lon="3.48953">
        <ele>1411.616492</ele>
        <time>2019-10-07T23:23:37.731Z</time>
      </trkpt>
      <trkpt lat="44.77942" lon="3.48936">
        <ele>1411.406694</ele>
        <time>2019-10-07T23:23:42.066Z</time>
      </trkpt>
      <trkpt lat="44.77966" lon="3.48901">
        <ele>1410.844985</ele>
        <time>2019-10-07T23:23:53.560Z</time>
      </trkpt>
      <trkpt lat="44.77977" lon="3.48855">
        <ele>1410.270598</ele>
        <time>2019-10-07T23:24:05.114Z</time>
      </trkpt>
      <trkpt lat="44.77977" lon="3.48752">
        <ele>1408.412844</ele>
        <time>2019-10-07T23:24:28.580Z</time>
      </trkpt>
      <trkpt lat="44.7797" lon="3.48675">
        <ele>1406.242413</ele>
        <time>2019-10-07T23:24:45.563Z</time>
      </trkpt>
      <trkpt lat="44.77958" lon="3.48638">
        <ele>1405.114183</ele>
        <time>2019-10-07T23:24:54.215Z</time>
      </trkpt>
      <trkpt lat="44.7795" lon="3.48589">
        <ele>1403.726336</ele>
        <time>2019-10-07T23:25:04.680Z</time>
      </trkpt>
      <trkpt lat="44.78014" lon="3.48414">
        <ele>1395.062066</ele>
        <time>2019-10-07T23:25:43.987Z</time>
      </trkpt>
      <trkpt lat="44.78058" lon="3.48392">
        <ele>1391.847552</ele>
        <time>2019-10-07T23:25:56.511Z</time>
      </trkpt>
      <trkpt lat="44.78088" lon="3.48365">
        <ele>1388.985937</ele>
        <time>2019-10-07T23:26:05.852Z</time>
      </trkpt>
      <trkpt lat="44.78112" lon="3.4834">
        <ele>1385.753701</ele>
        <time>2019-10-07T23:26:13.520Z</time>
      </trkpt>
      <trkpt lat="44.78143" lon="3.48293">
        <ele>1380.824712</ele>
        <time>2019-10-07T23:26:25.062Z</time>
      </trkpt>
      <trkpt lat="44.78163" lon="3.48242">
        <ele>1376.264189</ele>
        <time>2019-10-07T23:26:35.594Z</time>
      </trkpt>
      <trkpt lat="44.78182" lon="3.48161">
        <ele>1369.555311</ele>
        <time>2019-10-07T23:26:50.650Z</time>
      </trkpt>
      <trkpt lat="44.78255" lon="3.48017">
        <ele>1353.658173</ele>
        <time>2019-10-07T23:27:21.825Z</time>
      </trkpt>
      <trkpt lat="44.78284" lon="3.4795">
        <ele>1346.829656</ele>
        <time>2019-10-07T23:27:35.723Z</time>
      </trkpt>
      <trkpt lat="44.78294" lon="3.47934">
        <ele>1345.307185</ele>
        <time>2019-10-07T23:27:39.420Z</time>
      </trkpt>
      <trkpt lat="44.78333" lon="3.47896">
        <ele>1340.464786</ele>
        <time>2019-10-07T23:27:51.479Z</time>
      </trkpt>
      <trkpt lat="44.78349" lon="3.47887">
        <ele>1338.661051</ele>
        <time>2019-10-07T23:27:55.964Z</time>
      </trkpt>
      <trkpt lat="44.78358" lon="3.47879">
        <ele>1337.576836</ele>
        <time>2019-10-07T23:27:58.667Z</time>
      </trkpt>
      <trkpt lat="44.78417" lon="3.47795">
        <ele>1329.122078</ele>
        <time>2019-10-07T23:28:20.520Z</time>
      </trkpt>
      <trkpt lat="44.78445" lon="3.47729">
        <ele>1324.791789</ele>
        <time>2019-10-07T23:28:35.078Z</time>
      </trkpt>
      <trkpt lat="44.78464" lon="3.47695">
        <ele>1322.408712</ele>
        <time>2019-10-07T23:28:43.416Z</time>
      </trkpt>
      <trkpt lat="44.7848" lon="3.47631">
        <ele>1318.603045</ele>
        <time>2019-10-07T23:28:56.662Z</time>
      </trkpt>
      <trkpt lat="44.78487" lon="3.47523">
        <ele>1312.520241</ele>
        <time>2019-10-07T23:29:17.345Z</time>
      </trkpt>
      <trkpt lat="44.78505" lon="3.47427">
        <ele>1307.022873</ele>
        <time>2019-10-07T23:29:35.988Z</time>
      </trkpt>
      <trkpt lat="44.7851" lon="3.47391">
        <ele>1304.962238</ele>
        <time>2019-10-07T23:29:42.936Z</time>
      </trkpt>
      <trkpt lat="44.78514" lon="3.47351">
        <ele>1302.686963</ele>
        <time>2019-10-07T23:29:50.709Z</time>
      </trkpt>
      <trkpt lat="44.78526" lon="3.47298">
        <ele>1299.872741</ele>
        <time>2019-10-07T23:30:01.388Z</time>
      </trkpt>
      <trkpt lat="44.78538" lon="3.47232">
        <ele>1296.831877</ele>
        <time>2019-10-07T23:30:14.608Z</time>
      </trkpt>
      <trkpt lat="44.78573" lon="3.47233">
        <ele>1294.582218</ele>
        <time>2019-10-07T23:30:20.336Z</time>
      </trkpt>
      <trkpt lat="44.78593" lon="3.47249">
        <ele>1293.138087</ele>
        <time>2019-10-07T23:30:24.163Z</time>
      </trkpt>
      <trkpt lat="44.78625" lon="3.47258">
        <ele>1291.096426</ele>
        <time>2019-10-07T23:30:29.478Z</time>
      </trkpt>
      <trkpt lat="44.78865" lon="3.4725">
        <ele>1278.378928</ele>
        <time>2019-10-07T23:31:09.300Z</time>
      </trkpt>
      <trkpt lat="44.7897" lon="3.47209">
        <ele>1272.559617</ele>
        <time>2019-10-07T23:31:27.101Z</time>
      </trkpt>
      <trkpt lat="44.79026" lon="3.47171">
        <ele>1269.10064</ele>
        <time>2019-10-07T23:31:37.303Z</time>
      </trkpt>
      <trkpt lat="44.79041" lon="3.47163">
        <ele>1268.10132</ele>
        <time>2019-10-07T23:31:40.109Z</time>
      </trkpt>
      <trkpt lat="44.79043" lon="3.47153">
        <ele>1267.674163</ele>
        <time>2019-10-07T23:31:41.254Z</time>
      </trkpt>
      <trkpt lat="44.79054" lon="3.47068">
        <ele>1264.063466</ele>
        <time>2019-10-07T23:31:51.088Z</time>
      </trkpt>
      <trkpt lat="44.79053" lon="3.47024">
        <ele>1262.239093</ele>
        <time>2019-10-07T23:31:55.991Z</time>
      </trkpt>
      <trkpt lat="44.79036" lon="3.46949">
        <ele>1259.429875</ele>
        <time>2019-10-07T23:32:05.052Z</time>
      </trkpt>
      <trkpt lat="44.79038" lon="3.46932">
        <ele>1258.98158</ele>
        <time>2019-10-07T23:32:06.990Z</time>
      </trkpt>
      <trkpt lat="44.79047" lon="3.46932">
        <ele>1258.653489</ele>
        <time>2019-10-07T23:32:08.587Z</time>
      </trkpt>
      <trkpt lat="44.79052" lon="3.46928">
        <ele>1258.457444</ele>
        <time>2019-10-07T23:32:09.507Z</time>
      </trkpt>
      <trkpt lat="44.79059" lon="3.4692">
        <ele>1258.11756</ele>
        <time>2019-10-07T23:32:11.237Z</time>
      </trkpt>
      <trkpt lat="44.79066" lon="3.46911">
        <ele>1257.763634</ele>
        <time>2019-10-07T23:32:12.787Z</time>
      </trkpt>
      <trkpt lat="44.79112" lon="3.46857">
        <ele>1255.586769</ele>
        <time>2019-10-07T23:32:23.516Z</time>
      </trkpt>
      <trkpt lat="44.79099" lon="3.46788">
        <ele>1253.746881</ele>
        <time>2019-10-07T23:32:32.704Z</time>
      </trkpt>
      <trkpt lat="44.79102" lon="3.46763">
        <ele>1254.011444</ele>
        <time>2019-10-07T23:32:36.209Z</time>
      </trkpt>
      <trkpt lat="44.79109" lon="3.46771">
        <ele>1254.181266</ele>
        <time>2019-10-07T23:32:38.195Z</time>
      </trkpt>
      <trkpt lat="44.79124" lon="3.46803">
        <ele>1254.730864</ele>
        <time>2019-10-07T23:32:45.226Z</time>
      </trkpt>
      <trkpt lat="44.79141" lon="3.4682">
        <ele>1255.154099</ele>
        <time>2019-10-07T23:32:52.807Z</time>
      </trkpt>
      <trkpt lat="44.79223" lon="3.46833">
        <ele>1256.803047</ele>
        <time>2019-10-07T23:33:23.448Z</time>
      </trkpt>
      <trkpt lat="44.7924" lon="3.46846">
        <ele>1257.194804</ele>
        <time>2019-10-07T23:33:31.361Z</time>
      </trkpt>
      <trkpt lat="44.79246" lon="3.46855">
        <ele>1257.473376</ele>
        <time>2019-10-07T23:33:36.042Z</time>
      </trkpt>
      <trkpt lat="44.7925" lon="3.46872">
        <ele>1258.113474</ele>
        <time>2019-10-07T23:33:41.440Z</time>
      </trkpt>
      <trkpt lat="44.79278" lon="3.47048">
        <ele>1264.476319</ele>
        <time>2019-10-07T23:34:42.974Z</time>
      </trkpt>
      <trkpt lat="44.79293" lon="3.472">
        <ele>1269.750808</ele>
        <time>2019-10-07T23:35:36.728Z</time>
      </trkpt>
      <trkpt lat="44.79283" lon="3.47237">
        <ele>1271.082371</ele>
        <time>2019-10-07T23:35:50.743Z</time>
      </trkpt>
      <trkpt lat="44.79172" lon="3.47518">
        <ele>1279.209145</ele>
        <time>2019-10-07T23:37:25.719Z</time>
      </trkpt>
      <trkpt lat="44.79164" lon="3.47557">
        <ele>1280.051109</ele>
        <time>2019-10-07T23:37:32.518Z</time>
      </trkpt>
      <trkpt lat="44.7916" lon="3.4761">
        <ele>1279.722852</ele>
        <time>2019-10-07T23:37:40.605Z</time>
      </trkpt>
      <trkpt lat="44.7916" lon="3.47623">
        <ele>1279.632204</ele>
        <time>2019-10-07T23:37:42.407Z</time>
      </trkpt>
      <trkpt lat="44.79138" lon="3.47704">
        <ele>1279.023003</ele>
        <time>2019-10-07T23:38:03.103Z</time>
      </trkpt>
      <trkpt lat="44.79124" lon="3.47747">
        <ele>1278.68951</ele>
        <time>2019-10-07T23:38:14.015Z</time>
      </trkpt>
      <trkpt lat="44.79136" lon="3.47769">
        <ele>1278.493191</ele>
        <time>2019-10-07T23:38:20.467Z</time>
      </trkpt>
      <trkpt lat="44.79161" lon="3.47779">
        <ele>1278.41742</ele>
        <time>2019-10-07T23:38:28.769Z</time>
      </trkpt>
      <trkpt lat="44.79193" lon="3.4778">
        <ele>1279.00077</ele>
        <time>2019-10-07T23:38:39.902Z</time>
      </trkpt>
      <trkpt lat="44.79263" lon="3.47795">
        <ele>1280.245014</ele>
        <time>2019-10-07T23:39:07.712Z</time>
      </trkpt>
      <trkpt lat="44.79285" lon="3.47809">
        <ele>1280.673349</ele>
        <time>2019-10-07T23:39:19.428Z</time>
      </trkpt>
      <trkpt lat="44.79319" lon="3.47848">
        <ele>1281.447215</ele>
        <time>2019-10-07T23:39:47.430Z</time>
      </trkpt>
      <trkpt lat="44.79325" lon="3.47865">
        <ele>1282.371758</ele>
        <time>2019-10-07T23:39:56.425Z</time>
      </trkpt>
      <trkpt lat="44.79321" lon="3.4798">
        <ele>1288.876828</ele>
        <time>2019-10-07T23:40:56.995Z</time>
      </trkpt>
      <trkpt lat="44.79328" lon="3.48007">
        <ele>1290.541904</ele>
        <time>2019-10-07T23:41:14.266Z</time>
      </trkpt>
      <trkpt lat="44.79337" lon="3.48046">
        <ele>1292.852593</ele>
        <time>2019-10-07T23:41:38.198Z</time>
      </trkpt>
      <trkpt lat="44.79352" lon="3.48089">
        <ele>1295.572668</ele>
        <time>2019-10-07T23:42:06.598Z</time>
      </trkpt>
      <trkpt lat="44.7937" lon="3.48219">
        <ele>1304.407717</ele>
        <time>2019-10-07T23:43:29.300Z</time>
      </trkpt>
      <trkpt lat="44.79383" lon="3.48831">
        <ele>1344.740265</ele>
        <time>2019-10-07T23:49:27.225Z</time>
      </trkpt>
      <trkpt lat="44.79383" lon="3.48831">
        <ele>1344.740265</ele>
        <time>2019-10-07T23:49:27.819Z</time>
      </trkpt>
      <trkpt lat="44.79402" lon="3.48929">
        <ele>1352.825501</ele>
        <time>2019-10-07T23:50:33.412Z</time>
      </trkpt>
      <trkpt lat="44.79435" lon="3.49063">
        <ele>1364.408036</ele>
        <time>2019-10-07T23:52:09.468Z</time>
      </trkpt>
      <trkpt lat="44.79437" lon="3.49091">
        <ele>1366.776281</ele>
        <time>2019-10-07T23:52:29.693Z</time>
      </trkpt>
      <trkpt lat="44.79463" lon="3.49209">
        <ele>1378.438085</ele>
        <time>2019-10-07T23:54:01.239Z</time>
      </trkpt>
      <trkpt lat="44.79486" lon="3.49283">
        <ele>1386.075571</ele>
        <time>2019-10-07T23:55:02.559Z</time>
      </trkpt>
      <trkpt lat="44.79487" lon="3.49315">
        <ele>1389.150837</ele>
        <time>2019-10-07T23:55:27.238Z</time>
      </trkpt>
      <trkpt lat="44.79496" lon="3.49348">
        <ele>1392.157577</ele>
        <time>2019-10-07T23:55:53.003Z</time>
      </trkpt>
      <trkpt lat="44.79496" lon="3.49384">
        <ele>1394.912522</ele>
        <time>2019-10-07T23:56:19.909Z</time>
      </trkpt>
      <trkpt lat="44.79512" lon="3.4946">
        <ele>1400.799941</ele>
        <time>2019-10-07T23:57:13.759Z</time>
      </trkpt>
      <trkpt lat="44.79539" lon="3.49488">
        <ele>1404.298589</ele>
        <time>2019-10-07T23:57:42.998Z</time>
      </trkpt>
      <trkpt lat="44.79561" lon="3.49558">
        <ele>1410.026742</ele>
        <time>2019-10-07T23:58:26.520Z</time>
      </trkpt>
      <trkpt lat="44.79576" lon="3.49588">
        <ele>1411.189507</ele>
        <time>2019-10-07T23:58:45.533Z</time>
      </trkpt>
      <trkpt lat="44.79601" lon="3.49715">
        <ele>1415.229642</ele>
        <time>2019-10-07T23:59:41.142Z</time>
      </trkpt>
      <trkpt lat="44.79615" lon="3.49755">
        <ele>1416.60132</ele>
        <time>2019-10-07T23:59:56.954Z</time>
      </trkpt>
      <trkpt lat="44.79625" lon="3.49791">
        <ele>1417.79855</ele>
        <time>2019-10-08T00:00:09.617Z</time>
      </trkpt>
      <trkpt lat="44.79632" lon="3.49806">
        <ele>1417.992267</ele>
        <time>2019-10-08T00:00:13.628Z</time>
      </trkpt>
      <trkpt lat="44.79636" lon="3.49817">
        <ele>1418.116454</ele>
        <time>2019-10-08T00:00:16.245Z</time>
      </trkpt>
      <trkpt lat="44.79643" lon="3.49812">
        <ele>1418.2221</ele>
        <time>2019-10-08T00:00:19.635Z</time>
      </trkpt>
      <trkpt lat="44.79801" lon="3.49721">
        <ele>1420.560087</ele>
        <time>2019-10-08T00:01:32.747Z</time>
      </trkpt>
      <trkpt lat="44.79812" lon="3.49694">
        <ele>1420.857798</ele>
        <time>2019-10-08T00:01:42.760Z</time>
      </trkpt>
      <trkpt lat="44.79817" lon="3.49657">
        <ele>1421.2083</ele>
        <time>2019-10-08T00:01:54.813Z</time>
      </trkpt>
      <trkpt lat="44.79819" lon="3.49637">
        <ele>1421.391651</ele>
        <time>2019-10-08T00:02:00.983Z</time>
      </trkpt>
      <trkpt lat="44.7983" lon="3.49659">
        <ele>1421.642336</ele>
        <time>2019-10-08T00:02:07.003Z</time>
      </trkpt>
      <trkpt lat="44.80009" lon="3.5002">
        <ele>1424.006636</ele>
        <time>2019-10-08T00:03:34.464Z</time>
      </trkpt>
      <trkpt lat="44.80012" lon="3.50027">
        <ele>1423.939816</ele>
        <time>2019-10-08T00:03:35.993Z</time>
      </trkpt>
      <trkpt lat="44.80015" lon="3.50032">
        <ele>1423.887196</ele>
        <time>2019-10-08T00:03:36.947Z</time>
      </trkpt>
      <trkpt lat="44.80018" lon="3.5004">
        <ele>1423.810941</ele>
        <time>2019-10-08T00:03:38.305Z</time>
      </trkpt>
      <trkpt lat="44.80028" lon="3.50049">
        <ele>1423.675137</ele>
        <time>2019-10-08T00:03:40.387Z</time>
      </trkpt>
      <trkpt lat="44.80094" lon="3.50097">
        <ele>1422.812947</ele>
        <time>2019-10-08T00:03:53.968Z</time>
      </trkpt>
      <trkpt lat="44.80124" lon="3.50101">
        <ele>1422.240303</ele>
        <time>2019-10-08T00:03:59.196Z</time>
      </trkpt>
      <trkpt lat="44.80214" lon="3.50086">
        <ele>1418.405531</ele>
        <time>2019-10-08T00:04:13.990Z</time>
      </trkpt>
      <trkpt lat="44.80237" lon="3.50067">
        <ele>1417.255904</ele>
        <time>2019-10-08T00:04:18.366Z</time>
      </trkpt>
      <trkpt lat="44.80283" lon="3.50013">
        <ele>1414.838158</ele>
        <time>2019-10-08T00:04:27.694Z</time>
      </trkpt>
      <trkpt lat="44.80293" lon="3.50007">
        <ele>1414.551571</ele>
        <time>2019-10-08T00:04:29.617Z</time>
      </trkpt>
      <trkpt lat="44.80317" lon="3.50007">
        <ele>1413.97564</ele>
        <time>2019-10-08T00:04:33.417Z</time>
      </trkpt>
      <trkpt lat="44.80343" lon="3.50048">
        <ele>1413.030948</ele>
        <time>2019-10-08T00:04:39.858Z</time>
      </trkpt>
      <trkpt lat="44.80364" lon="3.50101">
        <ele>1411.964809</ele>
        <time>2019-10-08T00:04:47.802Z</time>
      </trkpt>
      <trkpt lat="44.80371" lon="3.50129">
        <ele>1411.457096</ele>
        <time>2019-10-08T00:04:52.123Z</time>
      </trkpt>
      <trkpt lat="44.80373" lon="3.50142">
        <ele>1411.227369</ele>
        <time>2019-10-08T00:04:53.631Z</time>
      </trkpt>
      <trkpt lat="44.80381" lon="3.50146">
        <ele>1411.017252</ele>
        <time>2019-10-08T00:04:57.941Z</time>
      </trkpt>
      <trkpt lat="44.80412" lon="3.50165">
        <ele>1410.894991</ele>
        <time>2019-10-08T00:05:10.278Z</time>
      </trkpt>
      <trkpt lat="44.80454" lon="3.50177">
        <ele>1411.883147</ele>
        <time>2019-10-08T00:05:28.978Z</time>
      </trkpt>
      <trkpt lat="44.80525" lon="3.5016">
        <ele>1413.565925</ele>
        <time>2019-10-08T00:06:05.708Z</time>
      </trkpt>
      <trkpt lat="44.807" lon="3.50153">
        <ele>1419.068138</ele>
        <time>2019-10-08T00:07:45.328Z</time>
      </trkpt>
      <trkpt lat="44.80741" lon="3.50144">
        <ele>1420.493288</ele>
        <time>2019-10-08T00:08:06.668Z</time>
      </trkpt>
      <trkpt lat="44.8077" lon="3.50131">
        <ele>1421.188673</ele>
        <time>2019-10-08T00:08:21.736Z</time>
      </trkpt>
      <trkpt lat="44.80797" lon="3.5012">
        <ele>1421.556413</ele>
        <time>2019-10-08T00:08:35.519Z</time>
      </trkpt>
      <trkpt lat="44.80817" lon="3.50112">
        <ele>1421.807586</ele>
        <time>2019-10-08T00:08:44.210Z</time>
      </trkpt>
      <trkpt lat="44.80909" lon="3.50078">
        <ele>1423.016886</ele>
        <time>2019-10-08T00:09:24.268Z</time>
      </trkpt>
      <trkpt lat="44.80949" lon="3.50066">
        <ele>1423.091733</ele>
        <time>2019-10-08T00:09:39.834Z</time>
      </trkpt>
      <trkpt lat="44.80956" lon="3.50064">
        <ele>1423.044072</ele>
        <time>2019-10-08T00:09:42.098Z</time>
      </trkpt>
      <trkpt lat="44.80991" lon="3.50048">
        <ele>1422.767009</ele>
        <time>2019-10-08T00:09:55.238Z</time>
      </trkpt>
      <trkpt lat="44.81016" lon="3.50029">
        <ele>1422.5487</ele>
        <time>2019-10-08T00:10:05.562Z</time>
      </trkpt>
      <trkpt lat="44.81038" lon="3.50002">
        <ele>1422.334891</ele>
        <time>2019-10-08T00:10:15.526Z</time>
      </trkpt>
      <trkpt lat="44.81087" lon="3.49864">
        <ele>1420.44221</ele>
        <time>2019-10-08T00:10:52.145Z</time>
      </trkpt>
      <trkpt lat="44.811" lon="3.49849">
        <ele>1419.981248</ele>
        <time>2019-10-08T00:10:57.448Z</time>
      </trkpt>
      <trkpt lat="44.81123" lon="3.49836">
        <ele>1419.301058</ele>
        <time>2019-10-08T00:11:05.160Z</time>
      </trkpt>
      <trkpt lat="44.81205" lon="3.49813">
        <ele>1416.988703</ele>
        <time>2019-10-08T00:11:30.679Z</time>
      </trkpt>
      <trkpt lat="44.81235" lon="3.49813">
        <ele>1415.964849</ele>
        <time>2019-10-08T00:11:39.611Z</time>
      </trkpt>
      <trkpt lat="44.81311" lon="3.49959">
        <ele>1411.551591</ele>
        <time>2019-10-08T00:12:18.087Z</time>
      </trkpt>
      <trkpt lat="44.81376" lon="3.50033">
        <ele>1410.020405</ele>
        <time>2019-10-08T00:12:45.010Z</time>
      </trkpt>
      <trkpt lat="44.81427" lon="3.50057">
        <ele>1409.378292</ele>
        <time>2019-10-08T00:13:03.494Z</time>
      </trkpt>
      <trkpt lat="44.81471" lon="3.50069">
        <ele>1408.843659</ele>
        <time>2019-10-08T00:13:19.834Z</time>
      </trkpt>
      <trkpt lat="44.81541" lon="3.50071">
        <ele>1408.919891</ele>
        <time>2019-10-08T00:13:46.778Z</time>
      </trkpt>
      <trkpt lat="44.81559" lon="3.50063">
        <ele>1409.048587</ele>
        <time>2019-10-08T00:13:54.888Z</time>
      </trkpt>
      <trkpt lat="44.81587" lon="3.50048">
        <ele>1409.245099</ele>
        <time>2019-10-08T00:14:07.420Z</time>
      </trkpt>
      <trkpt lat="44.81675" lon="3.4998">
        <ele>1409.749491</ele>
        <time>2019-10-08T00:14:48.732Z</time>
      </trkpt>
      <trkpt lat="44.81723" lon="3.49934">
        <ele>1409.663451</ele>
        <time>2019-10-08T00:15:11.971Z</time>
      </trkpt>
      <trkpt lat="44.8174" lon="3.49938">
        <ele>1409.638323</ele>
        <time>2019-10-08T00:15:18.287Z</time>
      </trkpt>
      <trkpt lat="44.81749" lon="3.4977">
        <ele>1408.811084</ele>
        <time>2019-10-08T00:16:00.361Z</time>
      </trkpt>
      <trkpt lat="44.81736" lon="3.49761">
        <ele>1408.499791</ele>
        <time>2019-10-08T00:16:05.133Z</time>
      </trkpt>
      <trkpt lat="44.81713" lon="3.49746">
        <ele>1407.97561</ele>
        <time>2019-10-08T00:16:13.258Z</time>
      </trkpt>
      <trkpt lat="44.81699" lon="3.49712">
        <ele>1407.402486</ele>
        <time>2019-10-08T00:16:21.948Z</time>
      </trkpt>
      <trkpt lat="44.81703" lon="3.49694">
        <ele>1407.113594</ele>
        <time>2019-10-08T00:16:26.450Z</time>
      </trkpt>
      <trkpt lat="44.81724" lon="3.49646">
        <ele>1406.28089</ele>
        <time>2019-10-08T00:16:39.133Z</time>
      </trkpt>
      <trkpt lat="44.81726" lon="3.49638">
        <ele>1406.156213</ele>
        <time>2019-10-08T00:16:40.823Z</time>
      </trkpt>
      <trkpt lat="44.81761" lon="3.49637">
        <ele>1405.472428</ele>
        <time>2019-10-08T00:16:51.940Z</time>
      </trkpt>
      <trkpt lat="44.81843" lon="3.49606">
        <ele>1403.975441</ele>
        <time>2019-10-08T00:17:19.151Z</time>
      </trkpt>
      <trkpt lat="44.81888" lon="3.49602">
        <ele>1403.167332</ele>
        <time>2019-10-08T00:17:34.144Z</time>
      </trkpt>
      <trkpt lat="44.81963" lon="3.49616">
        <ele>1402.225317</ele>
        <time>2019-10-08T00:18:00.937Z</time>
      </trkpt>
      <trkpt lat="44.82048" lon="3.49682">
        <ele>1401.436468</ele>
        <time>2019-10-08T00:18:35.302Z</time>
      </trkpt>
      <trkpt lat="44.82107" lon="3.49738">
        <ele>1400.478965</ele>
        <time>2019-10-08T00:18:59.758Z</time>
      </trkpt>
      <trkpt lat="44.822" lon="3.49808">
        <ele>1398.314405</ele>
        <time>2019-10-08T00:19:33.838Z</time>
      </trkpt>
      <trkpt lat="44.82228" lon="3.49844">
        <ele>1397.515388</ele>
        <time>2019-10-08T00:19:46.010Z</time>
      </trkpt>
      <trkpt lat="44.8225" lon="3.50011">
        <ele>1394.088824</ele>
        <time>2019-10-08T00:20:23.440Z</time>
      </trkpt>
      <trkpt lat="44.82252" lon="3.5011">
        <ele>1392.083428</ele>
        <time>2019-10-08T00:20:45.432Z</time>
      </trkpt>
      <trkpt lat="44.82285" lon="3.50185">
        <ele>1390.556187</ele>
        <time>2019-10-08T00:21:05.181Z</time>
      </trkpt>
      <trkpt lat="44.82334" lon="3.5025">
        <ele>1388.900704</ele>
        <time>2019-10-08T00:21:26.816Z</time>
      </trkpt>
      <trkpt lat="44.82373" lon="3.50278">
        <ele>1387.818415</ele>
        <time>2019-10-08T00:21:41.086Z</time>
      </trkpt>
      <trkpt lat="44.82466" lon="3.50313">
        <ele>1385.441876</ele>
        <time>2019-10-08T00:22:11.108Z</time>
      </trkpt>
      <trkpt lat="44.82546" lon="3.50328">
        <ele>1383.419203</ele>
        <time>2019-10-08T00:22:36.846Z</time>
      </trkpt>
      <trkpt lat="44.82567" lon="3.50331">
        <ele>1382.942063</ele>
        <time>2019-10-08T00:22:43.381Z</time>
      </trkpt>
      <trkpt lat="44.82564" lon="3.50337">
        <ele>1382.823632</ele>
        <time>2019-10-08T00:22:44.975Z</time>
      </trkpt>
      <trkpt lat="44.82543" lon="3.50371">
        <ele>1382.105081</ele>
        <time>2019-10-08T00:22:55.275Z</time>
      </trkpt>
      <trkpt lat="44.82502" lon="3.50412">
        <ele>1380.96245</ele>
        <time>2019-10-08T00:23:11.670Z</time>
      </trkpt>
      <trkpt lat="44.82409" lon="3.50529">
        <ele>1378.22708</ele>
        <time>2019-10-08T00:23:51.461Z</time>
      </trkpt>
      <trkpt lat="44.82407" lon="3.50547">
        <ele>1377.950863</ele>
        <time>2019-10-08T00:23:55.729Z</time>
      </trkpt>
      <trkpt lat="44.82408" lon="3.50606">
        <ele>1377.05714</ele>
        <time>2019-10-08T00:24:09.391Z</time>
      </trkpt>
      <trkpt lat="44.82418" lon="3.50665">
        <ele>1376.150365</ele>
        <time>2019-10-08T00:24:23.387Z</time>
      </trkpt>
      <trkpt lat="44.82417" lon="3.50719">
        <ele>1375.40567</ele>
        <time>2019-10-08T00:24:35.827Z</time>
      </trkpt>
      <trkpt lat="44.82433" lon="3.5074">
        <ele>1375.254212</ele>
        <time>2019-10-08T00:24:42.918Z</time>
      </trkpt>
      <trkpt lat="44.82438" lon="3.50796">
        <ele>1374.967848</ele>
        <time>2019-10-08T00:24:56.476Z</time>
      </trkpt>
      <trkpt lat="44.82394" lon="3.5091">
        <ele>1374.318596</ele>
        <time>2019-10-08T00:25:29.980Z</time>
      </trkpt>
      <trkpt lat="44.82372" lon="3.5094">
        <ele>1374.156245</ele>
        <time>2019-10-08T00:25:41.655Z</time>
      </trkpt>
      <trkpt lat="44.82362" lon="3.50966">
        <ele>1374.126791</ele>
        <time>2019-10-08T00:25:50.167Z</time>
      </trkpt>
      <trkpt lat="44.82358" lon="3.50993">
        <ele>1374.10021</ele>
        <time>2019-10-08T00:25:57.985Z</time>
      </trkpt>
      <trkpt lat="44.82362" lon="3.5102">
        <ele>1374.073967</ele>
        <time>2019-10-08T00:26:05.609Z</time>
      </trkpt>
      <trkpt lat="44.82385" lon="3.51093">
        <ele>1373.9968</ele>
        <time>2019-10-08T00:26:27.187Z</time>
      </trkpt>
      <trkpt lat="44.82418" lon="3.51134">
        <ele>1373.936492</ele>
        <time>2019-10-08T00:26:43.061Z</time>
      </trkpt>
      <trkpt lat="44.82464" lon="3.51217">
        <ele>1372.193907</ele>
        <time>2019-10-08T00:27:08.109Z</time>
      </trkpt>
      <trkpt lat="44.82482" lon="3.51288">
        <ele>1370.761133</ele>
        <time>2019-10-08T00:27:24.886Z</time>
      </trkpt>
      <trkpt lat="44.82472" lon="3.51427">
        <ele>1367.288041</ele>
        <time>2019-10-08T00:27:54.500Z</time>
      </trkpt>
      <trkpt lat="44.82453" lon="3.51583">
        <ele>1361.866855</ele>
        <time>2019-10-08T00:28:26.815Z</time>
      </trkpt>
      <trkpt lat="44.82415" lon="3.51656">
        <ele>1358.456851</ele>
        <time>2019-10-08T00:28:45.278Z</time>
      </trkpt>
      <trkpt lat="44.82346" lon="3.51757">
        <ele>1352.777178</ele>
        <time>2019-10-08T00:29:13.392Z</time>
      </trkpt>
      <trkpt lat="44.82251" lon="3.51828">
        <ele>1345.070003</ele>
        <time>2019-10-08T00:29:43.322Z</time>
      </trkpt>
      <trkpt lat="44.82251" lon="3.51828">
        <ele>1345.070003</ele>
        <time>2019-10-08T00:29:43.397Z</time>
      </trkpt>
      <trkpt lat="44.82106" lon="3.51893">
        <ele>1331.778194</ele>
        <time>2019-10-08T00:30:23.347Z</time>
      </trkpt>
      <trkpt lat="44.82014" lon="3.52006">
        <ele>1319.204692</ele>
        <time>2019-10-08T00:30:54.212Z</time>
      </trkpt>
      <trkpt lat="44.81991" lon="3.52049">
        <ele>1315.300383</ele>
        <time>2019-10-08T00:31:04.049Z</time>
      </trkpt>
      <trkpt lat="44.81963" lon="3.52155">
        <ele>1307.655611</ele>
        <time>2019-10-08T00:31:24.670Z</time>
      </trkpt>
      <trkpt lat="44.8196" lon="3.52202">
        <ele>1304.456331</ele>
        <time>2019-10-08T00:31:33.445Z</time>
      </trkpt>
      <trkpt lat="44.81969" lon="3.52252">
        <ele>1301.024211</ele>
        <time>2019-10-08T00:31:42.967Z</time>
      </trkpt>
      <trkpt lat="44.81981" lon="3.52284">
        <ele>1298.756027</ele>
        <time>2019-10-08T00:31:49.957Z</time>
      </trkpt>
      <trkpt lat="44.82016" lon="3.52345">
        <ele>1294.674467</ele>
        <time>2019-10-08T00:32:05.003Z</time>
      </trkpt>
      <trkpt lat="44.82031" lon="3.5236">
        <ele>1293.281762</ele>
        <time>2019-10-08T00:32:10.181Z</time>
      </trkpt>
      <trkpt lat="44.82095" lon="3.52342">
        <ele>1288.475555</ele>
        <time>2019-10-08T00:32:28.026Z</time>
      </trkpt>
      <trkpt lat="44.82111" lon="3.52352">
        <ele>1287.189887</ele>
        <time>2019-10-08T00:32:32.787Z</time>
      </trkpt>
      <trkpt lat="44.82124" lon="3.52387">
        <ele>1284.941898</ele>
        <time>2019-10-08T00:32:40.376Z</time>
      </trkpt>
      <trkpt lat="44.82128" lon="3.52433">
        <ele>1282.172919</ele>
        <time>2019-10-08T00:32:49.061Z</time>
      </trkpt>
      <trkpt lat="44.82125" lon="3.52484">
        <ele>1279.063283</ele>
        <time>2019-10-08T00:32:58.723Z</time>
      </trkpt>
      <trkpt lat="44.82107" lon="3.5255">
        <ele>1274.750142</ele>
        <time>2019-10-08T00:33:11.985Z</time>
      </trkpt>
      <trkpt lat="44.82078" lon="3.52709">
        <ele>1264.076614</ele>
        <time>2019-10-08T00:33:42.265Z</time>
      </trkpt>
      <trkpt lat="44.82068" lon="3.52734">
        <ele>1262.172701</ele>
        <time>2019-10-08T00:33:47.436Z</time>
      </trkpt>
      <trkpt lat="44.82054" lon="3.5275">
        <ele>1260.408152</ele>
        <time>2019-10-08T00:33:52.199Z</time>
      </trkpt>
      <trkpt lat="44.81966" lon="3.52781">
        <ele>1251.690269</ele>
        <time>2019-10-08T00:34:15.633Z</time>
      </trkpt>
      <trkpt lat="44.81938" lon="3.52829">
        <ele>1247.370577</ele>
        <time>2019-10-08T00:34:27.109Z</time>
      </trkpt>
      <trkpt lat="44.81923" lon="3.52842">
        <ele>1245.656285</ele>
        <time>2019-10-08T00:34:31.652Z</time>
      </trkpt>
      <trkpt lat="44.81864" lon="3.5286">
        <ele>1239.735965</ele>
        <time>2019-10-08T00:34:47.316Z</time>
      </trkpt>
      <trkpt lat="44.81828" lon="3.52867">
        <ele>1236.252605</ele>
        <time>2019-10-08T00:34:56.540Z</time>
      </trkpt>
      <trkpt lat="44.81813" lon="3.5286">
        <ele>1234.702268</ele>
        <time>2019-10-08T00:35:00.782Z</time>
      </trkpt>
      <trkpt lat="44.81791" lon="3.52816">
        <ele>1231.063949</ele>
        <time>2019-10-08T00:35:10.829Z</time>
      </trkpt>
      <trkpt lat="44.81779" lon="3.52807">
        <ele>1229.843167</ele>
        <time>2019-10-08T00:35:14.159Z</time>
      </trkpt>
      <trkpt lat="44.81766" lon="3.52807">
        <ele>1228.615283</ele>
        <time>2019-10-08T00:35:17.504Z</time>
      </trkpt>
      <trkpt lat="44.81722" lon="3.52838">
        <ele>1223.986192</ele>
        <time>2019-10-08T00:35:30.190Z</time>
      </trkpt>
      <trkpt lat="44.81715" lon="3.52848">
        <ele>1223.017686</ele>
        <time>2019-10-08T00:35:32.855Z</time>
      </trkpt>
      <trkpt lat="44.81693" lon="3.52927">
        <ele>1217.575997</ele>
        <time>2019-10-08T00:35:48.629Z</time>
      </trkpt>
      <trkpt lat="44.81675" lon="3.52964">
        <ele>1214.981671</ele>
        <time>2019-10-08T00:35:56.909Z</time>
      </trkpt>
      <trkpt lat="44.81663" lon="3.52998">
        <ele>1212.717396</ele>
        <time>2019-10-08T00:36:01.042Z</time>
      </trkpt>
      <trkpt lat="44.81657" lon="3.53019">
        <ele>1211.429691</ele>
        <time>2019-10-08T00:36:03.466Z</time>
      </trkpt>
      <trkpt lat="44.81657" lon="3.53041">
        <ele>1210.137604</ele>
        <time>2019-10-08T00:36:05.823Z</time>
      </trkpt>
      <trkpt lat="44.81655" lon="3.53047">
        <ele>1209.718859</ele>
        <time>2019-10-08T00:36:06.588Z</time>
      </trkpt>
      <trkpt lat="44.81659" lon="3.53051">
        <ele>1209.366958</ele>
        <time>2019-10-08T00:36:07.245Z</time>
      </trkpt>
      <trkpt lat="44.81685" lon="3.53057">
        <ele>1207.157112</ele>
        <time>2019-10-08T00:36:11.360Z</time>
      </trkpt>
      <trkpt lat="44.81694" lon="3.53069">
        <ele>1206.16827</ele>
        <time>2019-10-08T00:36:13.220Z</time>
      </trkpt>
      <trkpt lat="44.81694" lon="3.53082">
        <ele>1205.437165</ele>
        <time>2019-10-08T00:36:14.644Z</time>
      </trkpt>
      <trkpt lat="44.81701" lon="3.53101">
        <ele>1204.201608</ele>
        <time>2019-10-08T00:36:16.851Z</time>
      </trkpt>
      <trkpt lat="44.81705" lon="3.53116">
        <ele>1203.511461</ele>
        <time>2019-10-08T00:36:18.564Z</time>
      </trkpt>
      <trkpt lat="44.81707" lon="3.53133">
        <ele>1202.766952</ele>
        <time>2019-10-08T00:36:20.511Z</time>
      </trkpt>
      <trkpt lat="44.81707" lon="3.53141">
        <ele>1202.417155</ele>
        <time>2019-10-08T00:36:21.431Z</time>
      </trkpt>
      <trkpt lat="44.81707" lon="3.53146">
        <ele>1202.216662</ele>
        <time>2019-10-08T00:36:21.877Z</time>
      </trkpt>
      <trkpt lat="44.81701" lon="3.53163">
        <ele>1201.391902</ele>
        <time>2019-10-08T00:36:24.003Z</time>
      </trkpt>
      <trkpt lat="44.81688" lon="3.53178">
        <ele>1200.383581</ele>
        <time>2019-10-08T00:36:26.693Z</time>
      </trkpt>
      <trkpt lat="44.8163" lon="3.53213">
        <ele>1196.606759</ele>
        <time>2019-10-08T00:36:36.416Z</time>
      </trkpt>
      <trkpt lat="44.81615" lon="3.53232">
        <ele>1195.38548</ele>
        <time>2019-10-08T00:36:39.443Z</time>
      </trkpt>
      <trkpt lat="44.81602" lon="3.53271">
        <ele>1193.565262</ele>
        <time>2019-10-08T00:36:44.132Z</time>
      </trkpt>
      <trkpt lat="44.81598" lon="3.53346">
        <ele>1191.35252</ele>
        <time>2019-10-08T00:36:53.053Z</time>
      </trkpt>
      <trkpt lat="44.81596" lon="3.53363">
        <ele>1190.841599</ele>
        <time>2019-10-08T00:36:55.160Z</time>
      </trkpt>
      <trkpt lat="44.81596" lon="3.53369">
        <ele>1190.667125</ele>
        <time>2019-10-08T00:36:55.791Z</time>
      </trkpt>
      <trkpt lat="44.81585" lon="3.53414">
        <ele>1189.297803</ele>
        <time>2019-10-08T00:37:01.431Z</time>
      </trkpt>
      <trkpt lat="44.81587" lon="3.53457">
        <ele>1188.059308</ele>
        <time>2019-10-08T00:37:06.513Z</time>
      </trkpt>
      <trkpt lat="44.81632" lon="3.53648">
        <ele>1183.915708</ele>
        <time>2019-10-08T00:37:30.785Z</time>
      </trkpt>
      <trkpt lat="44.81632" lon="3.53655">
        <ele>1183.806827</ele>
        <time>2019-10-08T00:37:31.522Z</time>
      </trkpt>
      <trkpt lat="44.81632" lon="3.53665">
        <ele>1183.633607</ele>
        <time>2019-10-08T00:37:32.951Z</time>
      </trkpt>
      <trkpt lat="44.81634" lon="3.53702">
        <ele>1183.029293</ele>
        <time>2019-10-08T00:37:37.979Z</time>
      </trkpt>
      <trkpt lat="44.81656" lon="3.53801">
        <ele>1182.132205</ele>
        <time>2019-10-08T00:37:52.674Z</time>
      </trkpt>
      <trkpt lat="44.81667" lon="3.53893">
        <ele>1182.588507</ele>
        <time>2019-10-08T00:38:08.974Z</time>
      </trkpt>
      <trkpt lat="44.81682" lon="3.53942">
        <ele>1182.850503</ele>
        <time>2019-10-08T00:38:20.148Z</time>
      </trkpt>
      <trkpt lat="44.8172" lon="3.54032">
        <ele>1183.476703</ele>
        <time>2019-10-08T00:38:42.832Z</time>
      </trkpt>
      <trkpt lat="44.81742" lon="3.54114">
        <ele>1184.16692</ele>
        <time>2019-10-08T00:39:01.538Z</time>
      </trkpt>
      <trkpt lat="44.81755" lon="3.54187">
        <ele>1184.763817</ele>
        <time>2019-10-08T00:39:16.735Z</time>
      </trkpt>
      <trkpt lat="44.81752" lon="3.5421">
        <ele>1184.952616</ele>
        <time>2019-10-08T00:39:21.381Z</time>
      </trkpt>
      <trkpt lat="44.81737" lon="3.54255">
        <ele>1184.996135</ele>
        <time>2019-10-08T00:39:30.114Z</time>
      </trkpt>
      <trkpt lat="44.81671" lon="3.54384">
        <ele>1183.282629</ele>
        <time>2019-10-08T00:39:52.684Z</time>
      </trkpt>
      <trkpt lat="44.81609" lon="3.5447">
        <ele>1181.026911</ele>
        <time>2019-10-08T00:40:07.438Z</time>
      </trkpt>
      <trkpt lat="44.81602" lon="3.54487">
        <ele>1180.433398</ele>
        <time>2019-10-08T00:40:09.684Z</time>
      </trkpt>
      <trkpt lat="44.81598" lon="3.54509">
        <ele>1179.753732</ele>
        <time>2019-10-08T00:40:12.243Z</time>
      </trkpt>
      <trkpt lat="44.81598" lon="3.54575">
        <ele>1177.718576</ele>
        <time>2019-10-08T00:40:19.811Z</time>
      </trkpt>
      <trkpt lat="44.81594" lon="3.5461">
        <ele>1176.654198</ele>
        <time>2019-10-08T00:40:23.762Z</time>
      </trkpt>
      <trkpt lat="44.81568" lon="3.5471">
        <ele>1173.864586</ele>
        <time>2019-10-08T00:40:36.037Z</time>
      </trkpt>
      <trkpt lat="44.81561" lon="3.54764">
        <ele>1172.799208</ele>
        <time>2019-10-08T00:40:42.429Z</time>
      </trkpt>
      <trkpt lat="44.81564" lon="3.54792">
        <ele>1172.250213</ele>
        <time>2019-10-08T00:40:45.819Z</time>
      </trkpt>
      <trkpt lat="44.81607" lon="3.54936">
        <ele>1169.938322</ele>
        <time>2019-10-08T00:41:06.633Z</time>
      </trkpt>
      <trkpt lat="44.81617" lon="3.54994">
        <ele>1170.297222</ele>
        <time>2019-10-08T00:41:16.149Z</time>
      </trkpt>
      <trkpt lat="44.81609" lon="3.55032">
        <ele>1170.53952</ele>
        <time>2019-10-08T00:41:23.363Z</time>
      </trkpt>
      <trkpt lat="44.81546" lon="3.55208">
        <ele>1173.149368</ele>
        <time>2019-10-08T00:42:08.982Z</time>
      </trkpt>
      <trkpt lat="44.81527" lon="3.55247">
        <ele>1174.367415</ele>
        <time>2019-10-08T00:42:22.308Z</time>
      </trkpt>
      <trkpt lat="44.81493" lon="3.55292">
        <ele>1176.073743</ele>
        <time>2019-10-08T00:42:42.144Z</time>
      </trkpt>
      <trkpt lat="44.81486" lon="3.55318">
        <ele>1176.77871</ele>
        <time>2019-10-08T00:42:50.881Z</time>
      </trkpt>
      <trkpt lat="44.81491" lon="3.55393">
        <ele>1179.292515</ele>
        <time>2019-10-08T00:43:16.422Z</time>
      </trkpt>
      <trkpt lat="44.81527" lon="3.55487">
        <ele>1183.826462</ele>
        <time>2019-10-08T00:43:56.007Z</time>
      </trkpt>
      <trkpt lat="44.81559" lon="3.5562">
        <ele>1189.400581</ele>
        <time>2019-10-08T00:44:51.470Z</time>
      </trkpt>
      <trkpt lat="44.81583" lon="3.55676">
        <ele>1191.359643</ele>
        <time>2019-10-08T00:45:14.538Z</time>
      </trkpt>
      <trkpt lat="44.81594" lon="3.55736">
        <ele>1193.228201</ele>
        <time>2019-10-08T00:45:33.654Z</time>
      </trkpt>
      <trkpt lat="44.81592" lon="3.55742">
        <ele>1193.420272</ele>
        <time>2019-10-08T00:45:37.241Z</time>
      </trkpt>
      <trkpt lat="44.81589" lon="3.55755">
        <ele>1193.838256</ele>
        <time>2019-10-08T00:45:40.708Z</time>
      </trkpt>
      <trkpt lat="44.81579" lon="3.55794">
        <ele>1195.087979</ele>
        <time>2019-10-08T00:45:52.841Z</time>
      </trkpt>
      <trkpt lat="44.81579" lon="3.55873">
        <ele>1195.747743</ele>
        <time>2019-10-08T00:46:07.513Z</time>
      </trkpt>
      <trkpt lat="44.81576" lon="3.55893">
        <ele>1195.561651</ele>
        <time>2019-10-08T00:46:12.905Z</time>
      </trkpt>
      <trkpt lat="44.81575" lon="3.55901">
        <ele>1195.485393</ele>
        <time>2019-10-08T00:46:13.918Z</time>
      </trkpt>
      <trkpt lat="44.81574" lon="3.55908">
        <ele>1195.416828</ele>
        <time>2019-10-08T00:46:14.767Z</time>
      </trkpt>
      <trkpt lat="44.81572" lon="3.55923">
        <ele>1195.271742</ele>
        <time>2019-10-08T00:46:17.047Z</time>
      </trkpt>
      <trkpt lat="44.81574" lon="3.55944">
        <ele>1195.065984</ele>
        <time>2019-10-08T00:46:21.275Z</time>
      </trkpt>
      <trkpt lat="44.81581" lon="3.55957">
        <ele>1194.91765</ele>
        <time>2019-10-08T00:46:23.002Z</time>
      </trkpt>
      <trkpt lat="44.81588" lon="3.55967">
        <ele>1194.782769</ele>
        <time>2019-10-08T00:46:25.036Z</time>
      </trkpt>
      <trkpt lat="44.81589" lon="3.5597">
        <ele>1194.749967</ele>
        <time>2019-10-08T00:46:25.607Z</time>
      </trkpt>
      <trkpt lat="44.81597" lon="3.55982">
        <ele>1194.598795</ele>
        <time>2019-10-08T00:46:27.684Z</time>
      </trkpt>
      <trkpt lat="44.81591" lon="3.55997">
        <ele>1194.426609</ele>
        <time>2019-10-08T00:46:29.745Z</time>
      </trkpt>
      <trkpt lat="44.81553" lon="3.56118">
        <ele>1192.317973</ele>
        <time>2019-10-08T00:46:46.869Z</time>
      </trkpt>
      <trkpt lat="44.81551" lon="3.56126">
        <ele>1192.130613</ele>
        <time>2019-10-08T00:46:47.714Z</time>
      </trkpt>
      <trkpt lat="44.81549" lon="3.56139">
        <ele>1191.793827</ele>
        <time>2019-10-08T00:46:49.530Z</time>
      </trkpt>
      <trkpt lat="44.8154" lon="3.5618">
        <ele>1190.79607</ele>
        <time>2019-10-08T00:46:54.999Z</time>
      </trkpt>
      <trkpt lat="44.8154" lon="3.5623">
        <ele>1189.639299</ele>
        <time>2019-10-08T00:47:01.377Z</time>
      </trkpt>
      <trkpt lat="44.81531" lon="3.56279">
        <ele>1188.445788</ele>
        <time>2019-10-08T00:47:07.734Z</time>
      </trkpt>
      <trkpt lat="44.81493" lon="3.56358">
        <ele>1185.742806</ele>
        <time>2019-10-08T00:47:19.968Z</time>
      </trkpt>
      <trkpt lat="44.81465" lon="3.56436">
        <ele>1183.158434</ele>
        <time>2019-10-08T00:47:30.900Z</time>
      </trkpt>
      <trkpt lat="44.81465" lon="3.56441">
        <ele>1183.003154</ele>
        <time>2019-10-08T00:47:31.470Z</time>
      </trkpt>
      <trkpt lat="44.81467" lon="3.56445">
        <ele>1182.871246</ele>
        <time>2019-10-08T00:47:32.031Z</time>
      </trkpt>
      <trkpt lat="44.81465" lon="3.56453">
        <ele>1182.616232</ele>
        <time>2019-10-08T00:47:32.985Z</time>
      </trkpt>
      <trkpt lat="44.81454" lon="3.56489">
        <ele>1181.435705</ele>
        <time>2019-10-08T00:47:37.791Z</time>
      </trkpt>
      <trkpt lat="44.81431" lon="3.56543">
        <ele>1179.24717</ele>
        <time>2019-10-08T00:47:45.088Z</time>
      </trkpt>
      <trkpt lat="44.81413" lon="3.56627">
        <ele>1175.496718</ele>
        <time>2019-10-08T00:47:55.020Z</time>
      </trkpt>
      <trkpt lat="44.81351" lon="3.56805">
        <ele>1167.616847</ele>
        <time>2019-10-08T00:48:17.646Z</time>
      </trkpt>
      <trkpt lat="44.81351" lon="3.56833">
        <ele>1166.754049</ele>
        <time>2019-10-08T00:48:20.916Z</time>
      </trkpt>
      <trkpt lat="44.81368" lon="3.56903">
        <ele>1164.439761</ele>
        <time>2019-10-08T00:48:29.923Z</time>
      </trkpt>
      <trkpt lat="44.81368" lon="3.56927">
        <ele>1163.709941</ele>
        <time>2019-10-08T00:48:32.864Z</time>
      </trkpt>
      <trkpt lat="44.81345" lon="3.56991">
        <ele>1161.480179</ele>
        <time>2019-10-08T00:48:42.183Z</time>
      </trkpt>
      <trkpt lat="44.81343" lon="3.57043">
        <ele>1161.025295</ele>
        <time>2019-10-08T00:48:49.222Z</time>
      </trkpt>
      <trkpt lat="44.81351" lon="3.57107">
        <ele>1160.447525</ele>
        <time>2019-10-08T00:48:58.641Z</time>
      </trkpt>
      <trkpt lat="44.81383" lon="3.572">
        <ele>1159.540236</ele>
        <time>2019-10-08T00:49:13.774Z</time>
      </trkpt>
      <trkpt lat="44.81393" lon="3.57262">
        <ele>1159.788824</ele>
        <time>2019-10-08T00:49:23.412Z</time>
      </trkpt>
      <trkpt lat="44.8139" lon="3.57275">
        <ele>1160.028708</ele>
        <time>2019-10-08T00:49:25.832Z</time>
      </trkpt>
      <trkpt lat="44.81381" lon="3.57281">
        <ele>1160.273487</ele>
        <time>2019-10-08T00:49:29.629Z</time>
      </trkpt>
      <trkpt lat="44.81334" lon="3.5729">
        <ele>1161.467098</ele>
        <time>2019-10-08T00:49:45.934Z</time>
      </trkpt>
      <trkpt lat="44.81325" lon="3.57292">
        <ele>1161.686348</ele>
        <time>2019-10-08T00:49:47.875Z</time>
      </trkpt>
      <trkpt lat="44.81315" lon="3.57294">
        <ele>1161.957341</ele>
        <time>2019-10-08T00:49:52.135Z</time>
      </trkpt>
      <trkpt lat="44.81304" lon="3.57296">
        <ele>1162.231068</ele>
        <time>2019-10-08T00:49:57.886Z</time>
      </trkpt>
      <trkpt lat="44.81294" lon="3.573">
        <ele>1162.482689</ele>
        <time>2019-10-08T00:50:00.830Z</time>
      </trkpt>
      <trkpt lat="44.81289" lon="3.57302">
        <ele>1162.624194</ele>
        <time>2019-10-08T00:50:02.575Z</time>
      </trkpt>
      <trkpt lat="44.8128" lon="3.57309">
        <ele>1162.868138</ele>
        <time>2019-10-08T00:50:07.042Z</time>
      </trkpt>
      <trkpt lat="44.81254" lon="3.57327">
        <ele>1163.600735</ele>
        <time>2019-10-08T00:50:20.013Z</time>
      </trkpt>
      <trkpt lat="44.81248" lon="3.5733">
        <ele>1163.763543</ele>
        <time>2019-10-08T00:50:23.247Z</time>
      </trkpt>
      <trkpt lat="44.81237" lon="3.57337">
        <ele>1164.67293</ele>
        <time>2019-10-08T00:50:30.485Z</time>
      </trkpt>
      <trkpt lat="44.81227" lon="3.5735">
        <ele>1165.774497</ele>
        <time>2019-10-08T00:50:35.818Z</time>
      </trkpt>
      <trkpt lat="44.81218" lon="3.57395">
        <ele>1168.366545</ele>
        <time>2019-10-08T00:50:53.817Z</time>
      </trkpt>
      <trkpt lat="44.81205" lon="3.57414">
        <ele>1169.838318</ele>
        <time>2019-10-08T00:51:06.000Z</time>
      </trkpt>
      <trkpt lat="44.81143" lon="3.57459">
        <ele>1175.310764</ele>
        <time>2019-10-08T00:51:56.532Z</time>
      </trkpt>
      <trkpt lat="44.81095" lon="3.5751">
        <ele>1180.087675</ele>
        <time>2019-10-08T00:52:36.750Z</time>
      </trkpt>
      <trkpt lat="44.81066" lon="3.57555">
        <ele>1183.627281</ele>
        <time>2019-10-08T00:53:05.265Z</time>
      </trkpt>
      <trkpt lat="44.81068" lon="3.57538">
        <ele>1184.624224</ele>
        <time>2019-10-08T00:53:12.695Z</time>
      </trkpt>
      <trkpt lat="44.81068" lon="3.57524">
        <ele>1185.438228</ele>
        <time>2019-10-08T00:53:18.525Z</time>
      </trkpt>
      <trkpt lat="44.81056" lon="3.57543">
        <ele>1186.962138</ele>
        <time>2019-10-08T00:53:33.745Z</time>
      </trkpt>
      <trkpt lat="44.81021" lon="3.57623">
        <ele>1192.381813</ele>
        <time>2019-10-08T00:54:24.519Z</time>
      </trkpt>
      <trkpt lat="44.81012" lon="3.57669">
        <ele>1194.979827</ele>
        <time>2019-10-08T00:54:50.085Z</time>
      </trkpt>
      <trkpt lat="44.81055" lon="3.57725">
        <ele>1199.40721</ele>
        <time>2019-10-08T00:55:29.837Z</time>
      </trkpt>
      <trkpt lat="44.8106" lon="3.57739">
        <ele>1200.218131</ele>
        <time>2019-10-08T00:55:38.194Z</time>
      </trkpt>
      <trkpt lat="44.81057" lon="3.57753">
        <ele>1201.004131</ele>
        <time>2019-10-08T00:55:47.827Z</time>
      </trkpt>
      <trkpt lat="44.81007" lon="3.5783">
        <ele>1206.632648</ele>
        <time>2019-10-08T00:56:45.330Z</time>
      </trkpt>
      <trkpt lat="44.80977" lon="3.579">
        <ele>1210.906365</ele>
        <time>2019-10-08T00:57:27.007Z</time>
      </trkpt>
      <trkpt lat="44.80975" lon="3.57901">
        <ele>1211.104517</ele>
        <time>2019-10-08T00:57:31.190Z</time>
      </trkpt>
      <trkpt lat="44.80972" lon="3.57901">
        <ele>1211.290664</ele>
        <time>2019-10-08T00:57:34.004Z</time>
      </trkpt>
      <trkpt lat="44.80948" lon="3.57857">
        <ele>1214.197464</ele>
        <time>2019-10-08T00:58:02.914Z</time>
      </trkpt>
      <trkpt lat="44.80899" lon="3.5783">
        <ele>1218.123691</ele>
        <time>2019-10-08T00:58:39.828Z</time>
      </trkpt>
      <trkpt lat="44.80865" lon="3.57826">
        <ele>1220.389095</ele>
        <time>2019-10-08T00:59:04.956Z</time>
      </trkpt>
      <trkpt lat="44.80789" lon="3.57828">
        <ele>1224.717883</ele>
        <time>2019-10-08T00:59:55.613Z</time>
      </trkpt>
      <trkpt lat="44.8074" lon="3.5782">
        <ele>1227.482052</ele>
        <time>2019-10-08T01:00:24.644Z</time>
      </trkpt>
      <trkpt lat="44.80733" lon="3.57802">
        <ele>1228.319141</ele>
        <time>2019-10-08T01:00:33.312Z</time>
      </trkpt>
      <trkpt lat="44.80744" lon="3.57756">
        <ele>1230.341123</ele>
        <time>2019-10-08T01:00:54.962Z</time>
      </trkpt>
      <trkpt lat="44.80734" lon="3.57736">
        <ele>1231.565937</ele>
        <time>2019-10-08T01:01:07.574Z</time>
      </trkpt>
      <trkpt lat="44.8064" lon="3.57752">
        <ele>1238.010785</ele>
        <time>2019-10-08T01:02:12.755Z</time>
      </trkpt>
      <trkpt lat="44.8064" lon="3.57752">
        <ele>1238.010785</ele>
        <time>2019-10-08T01:02:12.973Z</time>
      </trkpt>
      <trkpt lat="44.80618" lon="3.57753">
        <ele>1239.560804</ele>
        <time>2019-10-08T01:02:28.638Z</time>
      </trkpt>
      <trkpt lat="44.80594" lon="3.57752">
        <ele>1241.15087</ele>
        <time>2019-10-08T01:02:46.796Z</time>
      </trkpt>
      <trkpt lat="44.80464" lon="3.57749">
        <ele>1252.462347</ele>
        <time>2019-10-08T01:04:33.779Z</time>
      </trkpt>
      <trkpt lat="44.80404" lon="3.57766">
        <ele>1257.879757</ele>
        <time>2019-10-08T01:05:25.046Z</time>
      </trkpt>
      <trkpt lat="44.80368" lon="3.57749">
        <ele>1260.561245</ele>
        <time>2019-10-08T01:05:55.460Z</time>
      </trkpt>
      <trkpt lat="44.8032" lon="3.57736">
        <ele>1263.998297</ele>
        <time>2019-10-08T01:06:33.274Z</time>
      </trkpt>
      <trkpt lat="44.80267" lon="3.57705">
        <ele>1268.039649</ele>
        <time>2019-10-08T01:07:15.630Z</time>
      </trkpt>
      <trkpt lat="44.80139" lon="3.57674">
        <ele>1272.656165</ele>
        <time>2019-10-08T01:08:28.325Z</time>
      </trkpt>
      <trkpt lat="44.80127" lon="3.57674">
        <ele>1272.922105</ele>
        <time>2019-10-08T01:08:33.940Z</time>
      </trkpt>
      <trkpt lat="44.80119" lon="3.57665">
        <ele>1273.140548</ele>
        <time>2019-10-08T01:08:38.091Z</time>
      </trkpt>
      <trkpt lat="44.80123" lon="3.57713">
        <ele>1273.88618</ele>
        <time>2019-10-08T01:08:51.619Z</time>
      </trkpt>
      <trkpt lat="44.80127" lon="3.57749">
        <ele>1274.45432</ele>
        <time>2019-10-08T01:09:01.235Z</time>
      </trkpt>
      <trkpt lat="44.80124" lon="3.57827">
        <ele>1273.870923</ele>
        <time>2019-10-08T01:09:20.687Z</time>
      </trkpt>
      <trkpt lat="44.80114" lon="3.57861">
        <ele>1273.508725</ele>
        <time>2019-10-08T01:09:29.360Z</time>
      </trkpt>
      <trkpt lat="44.80109" lon="3.57917">
        <ele>1272.946124</ele>
        <time>2019-10-08T01:09:42.492Z</time>
      </trkpt>
      <trkpt lat="44.80092" lon="3.5799">
        <ele>1272.186816</ele>
        <time>2019-10-08T01:10:00.205Z</time>
      </trkpt>
      <trkpt lat="44.80014" lon="3.58158">
        <ele>1269.924754</ele>
        <time>2019-10-08T01:10:47.496Z</time>
      </trkpt>
      <trkpt lat="44.79999" lon="3.58202">
        <ele>1269.372102</ele>
        <time>2019-10-08T01:10:59.216Z</time>
      </trkpt>
      <trkpt lat="44.79924" lon="3.58257">
        <ele>1268.109057</ele>
        <time>2019-10-08T01:11:28.107Z</time>
      </trkpt>
      <trkpt lat="44.79769" lon="3.58391">
        <ele>1264.858451</ele>
        <time>2019-10-08T01:12:28.424Z</time>
      </trkpt>
      <trkpt lat="44.79736" lon="3.58422">
        <ele>1263.969976</ele>
        <time>2019-10-08T01:12:41.115Z</time>
      </trkpt>
      <trkpt lat="44.79702" lon="3.58451">
        <ele>1263.083207</ele>
        <time>2019-10-08T01:12:53.606Z</time>
      </trkpt>
      <trkpt lat="44.79685" lon="3.58467">
        <ele>1262.634747</ele>
        <time>2019-10-08T01:12:59.918Z</time>
      </trkpt>
      <trkpt lat="44.7959" lon="3.58597">
        <ele>1259.427561</ele>
        <time>2019-10-08T01:13:41.285Z</time>
      </trkpt>
      <trkpt lat="44.79486" lon="3.58864">
        <ele>1256.352759</ele>
        <time>2019-10-08T01:14:53.577Z</time>
      </trkpt>
      <trkpt lat="44.79435" lon="3.5903">
        <ele>1257.783019</ele>
        <time>2019-10-08T01:15:48.634Z</time>
      </trkpt>
      <trkpt lat="44.7943" lon="3.59068">
        <ele>1258.1744</ele>
        <time>2019-10-08T01:16:02.245Z</time>
      </trkpt>
      <trkpt lat="44.79429" lon="3.59126">
        <ele>1258.765978</ele>
        <time>2019-10-08T01:16:23.167Z</time>
      </trkpt>
      <trkpt lat="44.79438" lon="3.59215">
        <ele>1259.382942</ele>
        <time>2019-10-08T01:16:54.841Z</time>
      </trkpt>
      <trkpt lat="44.79447" lon="3.5928">
        <ele>1259.836431</ele>
        <time>2019-10-08T01:17:16.285Z</time>
      </trkpt>
      <trkpt lat="44.79477" lon="3.59418">
        <ele>1259.12626</ele>
        <time>2019-10-08T01:17:52.769Z</time>
      </trkpt>
      <trkpt lat="44.79489" lon="3.59526">
        <ele>1256.036705</ele>
        <time>2019-10-08T01:18:15.971Z</time>
      </trkpt>
      <trkpt lat="44.79489" lon="3.59628">
        <ele>1253.02764</ele>
        <time>2019-10-08T01:18:36.305Z</time>
      </trkpt>
      <trkpt lat="44.79479" lon="3.5974">
        <ele>1247.50084</ele>
        <time>2019-10-08T01:18:58.173Z</time>
      </trkpt>
      <trkpt lat="44.79501" lon="3.59907">
        <ele>1239.620246</ele>
        <time>2019-10-08T01:19:31.248Z</time>
      </trkpt>
      <trkpt lat="44.79498" lon="3.59955">
        <ele>1237.820745</ele>
        <time>2019-10-08T01:19:40.792Z</time>
      </trkpt>
      <trkpt lat="44.79458" lon="3.60217">
        <ele>1228.591573</ele>
        <time>2019-10-08T01:20:36.325Z</time>
      </trkpt>
      <trkpt lat="44.79453" lon="3.60386">
        <ele>1223.728002</ele>
        <time>2019-10-08T01:21:12.729Z</time>
      </trkpt>
      <trkpt lat="44.79441" lon="3.60552">
        <ele>1219.442494</ele>
        <time>2019-10-08T01:21:48.474Z</time>
      </trkpt>
      <trkpt lat="44.79448" lon="3.60593">
        <ele>1218.354017</ele>
        <time>2019-10-08T01:21:57.562Z</time>
      </trkpt>
      <trkpt lat="44.79452" lon="3.60608">
        <ele>1217.918116</ele>
        <time>2019-10-08T01:22:01.111Z</time>
      </trkpt>
      <trkpt lat="44.79471" lon="3.60674">
        <ele>1216.392354</ele>
        <time>2019-10-08T01:22:09.942Z</time>
      </trkpt>
      <trkpt lat="44.79471" lon="3.60689">
        <ele>1216.068002</ele>
        <time>2019-10-08T01:22:11.977Z</time>
      </trkpt>
      <trkpt lat="44.79468" lon="3.60777">
        <ele>1214.242119</ele>
        <time>2019-10-08T01:22:23.250Z</time>
      </trkpt>
      <trkpt lat="44.79466" lon="3.60848">
        <ele>1212.76979</ele>
        <time>2019-10-08T01:22:32.600Z</time>
      </trkpt>
      <trkpt lat="44.79457" lon="3.60986">
        <ele>1211.066339</ele>
        <time>2019-10-08T01:22:51.614Z</time>
      </trkpt>
      <trkpt lat="44.79451" lon="3.61045">
        <ele>1210.432114</ele>
        <time>2019-10-08T01:23:00.310Z</time>
      </trkpt>
      <trkpt lat="44.79447" lon="3.61097">
        <ele>1209.878229</ele>
        <time>2019-10-08T01:23:08.066Z</time>
      </trkpt>
      <trkpt lat="44.79435" lon="3.6118">
        <ele>1208.892364</ele>
        <time>2019-10-08T01:23:20.778Z</time>
      </trkpt>
      <trkpt lat="44.794" lon="3.61286">
        <ele>1207.479286</ele>
        <time>2019-10-08T01:23:37.256Z</time>
      </trkpt>
      <trkpt lat="44.79391" lon="3.61305">
        <ele>1207.203571</ele>
        <time>2019-10-08T01:23:40.250Z</time>
      </trkpt>
      <trkpt lat="44.79397" lon="3.61345">
        <ele>1206.71278</ele>
        <time>2019-10-08T01:23:49.655Z</time>
      </trkpt>
      <trkpt lat="44.79404" lon="3.61376">
        <ele>1206.199037</ele>
        <time>2019-10-08T01:23:56.976Z</time>
      </trkpt>
      <trkpt lat="44.79406" lon="3.6138">
        <ele>1206.109001</ele>
        <time>2019-10-08T01:23:58.175Z</time>
      </trkpt>
      <trkpt lat="44.79417" lon="3.61416">
        <ele>1205.361752</ele>
        <time>2019-10-08T01:24:06.917Z</time>
      </trkpt>
      <trkpt lat="44.79418" lon="3.6145">
        <ele>1204.724686</ele>
        <time>2019-10-08T01:24:14.454Z</time>
      </trkpt>
      <trkpt lat="44.79366" lon="3.61544">
        <ele>1202.481133</ele>
        <time>2019-10-08T01:24:40.772Z</time>
      </trkpt>
      <trkpt lat="44.79353" lon="3.61597">
        <ele>1201.5258</ele>
        <time>2019-10-08T01:24:53.401Z</time>
      </trkpt>
      <trkpt lat="44.79349" lon="3.61632">
        <ele>1201.089718</ele>
        <time>2019-10-08T01:25:01.552Z</time>
      </trkpt>
      <trkpt lat="44.79281" lon="3.61691">
        <ele>1199.717388</ele>
        <time>2019-10-08T01:25:27.786Z</time>
      </trkpt>
      <trkpt lat="44.79228" lon="3.61701">
        <ele>1198.789486</ele>
        <time>2019-10-08T01:25:46.002Z</time>
      </trkpt>
      <trkpt lat="44.7915" lon="3.6178">
        <ele>1197.816643</ele>
        <time>2019-10-08T01:26:19.048Z</time>
      </trkpt>
      <trkpt lat="44.7904" lon="3.61904">
        <ele>1196.586459</ele>
        <time>2019-10-08T01:27:08.196Z</time>
      </trkpt>
      <trkpt lat="44.7904" lon="3.61904">
        <ele>1197.3</ele>
      </trkpt>
      <trkpt lat="44.79035" lon="3.61909">
        <ele>1196.9</ele>
      </trkpt>
      <trkpt lat="44.79026" lon="3.61919">
        <ele>1196.2</ele>
      </trkpt>
      <trkpt lat="44.7901" lon="3.61934">
        <ele>1195.2</ele>
      </trkpt>
      <trkpt lat="44.7899" lon="3.61957">
        <ele>1194.1</ele>
      </trkpt>
      <trkpt lat="44.78973" lon="3.6198">
        <ele>1193.3</ele>
      </trkpt>
      <trkpt lat="44.78961" lon="3.61999">
        <ele>1192.7</ele>
      </trkpt>
      <trkpt lat="44.78955" lon="3.62007">
        <ele>1192.1</ele>
      </trkpt>
      <trkpt lat="44.78951" lon="3.62008">
        <ele>1191.5</ele>
      </trkpt>
      <trkpt lat="44.78945" lon="3.62011">
        <ele>1190.7</ele>
      </trkpt>
      <trkpt lat="44.78918" lon="3.62027">
        <ele>1187.1</ele>
      </trkpt>
      <trkpt lat="44.78897" lon="3.6204">
        <ele>1184.8</ele>
      </trkpt>
      <trkpt lat="44.78884" lon="3.6205">
        <ele>1183.2</ele>
      </trkpt>
      <trkpt lat="44.78875" lon="3.62062">
        <ele>1182.1</ele>
      </trkpt>
      <trkpt lat="44.78871" lon="3.62071">
        <ele>1181.6</ele>
      </trkpt>
      <trkpt lat="44.78867" lon="3.62082">
        <ele>1181</ele>
      </trkpt>
      <trkpt lat="44.7886" lon="3.62095">
        <ele>1179.8</ele>
      </trkpt>
      <trkpt lat="44.78853" lon="3.62104">
        <ele>1178.7</ele>
      </trkpt>
      <trkpt lat="44.78844" lon="3.62112">
        <ele>1177.2</ele>
      </trkpt>
      <trkpt lat="44.78835" lon="3.62118">
        <ele>1175.9</ele>
      </trkpt>
      <trkpt lat="44.78825" lon="3.62122">
        <ele>1174.7</ele>
      </trkpt>
      <trkpt lat="44.78813" lon="3.62125">
        <ele>1173.3</ele>
      </trkpt>
      <trkpt lat="44.78799" lon="3.62129">
        <ele>1171.6</ele>
      </trkpt>
      <trkpt lat="44.78783" lon="3.62133">
        <ele>1169.9</ele>
      </trkpt>
      <trkpt lat="44.7877" lon="3.62136">
        <ele>1168.4</ele>
      </trkpt>
      <trkpt lat="44.78763" lon="3.62137">
        <ele>1167.7</ele>
      </trkpt>
      <trkpt lat="44.78755" lon="3.62152">
        <ele>1166.6</ele>
      </trkpt>
      <trkpt lat="44.78751" lon="3.62159">
        <ele>1166.2</ele>
      </trkpt>
      <trkpt lat="44.78749" lon="3.62168">
        <ele>1165.8</ele>
      </trkpt>
      <trkpt lat="44.78748" lon="3.62181">
        <ele>1164.9</ele>
      </trkpt>
      <trkpt lat="44.78748" lon="3.62205">
        <ele>1163.4</ele>
      </trkpt>
      <trkpt lat="44.78747" lon="3.62219">
        <ele>1162.5</ele>
      </trkpt>
      <trkpt lat="44.78745" lon="3.62229">
        <ele>1161.7</ele>
      </trkpt>
      <trkpt lat="44.78745" lon="3.62237">
        <ele>1161.2</ele>
      </trkpt>
      <trkpt lat="44.78747" lon="3.62244">
        <ele>1161</ele>
      </trkpt>
      <trkpt lat="44.7875" lon="3.62255">
        <ele>1160.8</ele>
      </trkpt>
      <trkpt lat="44.78751" lon="3.62259">
        <ele>1160.7</ele>
      </trkpt>
      <trkpt lat="44.78752" lon="3.62265">
        <ele>1160.5</ele>
      </trkpt>
      <trkpt lat="44.78751" lon="3.62276">
        <ele>1159.9</ele>
      </trkpt>
      <trkpt lat="44.78749" lon="3.62291">
        <ele>1158.9</ele>
      </trkpt>
      <trkpt lat="44.78746" lon="3.62308">
        <ele>1157.7</ele>
      </trkpt>
      <trkpt lat="44.78743" lon="3.62315">
        <ele>1157</ele>
      </trkpt>
      <trkpt lat="44.7874" lon="3.62319">
        <ele>1156.4</ele>
      </trkpt>
      <trkpt lat="44.78737" lon="3.62323">
        <ele>1156</ele>
      </trkpt>
      <trkpt lat="44.78733" lon="3.62334">
        <ele>1154.9</ele>
      </trkpt>
      <trkpt lat="44.78729" lon="3.62348">
        <ele>1154.5</ele>
      </trkpt>
      <trkpt lat="44.78725" lon="3.62378">
        <ele>1153.9</ele>
      </trkpt>
      <trkpt lat="44.78724" lon="3.62396">
        <ele>1153.6</ele>
      </trkpt>
      <trkpt lat="44.78724" lon="3.62402">
        <ele>1153.6</ele>
      </trkpt>
      <trkpt lat="44.78724" lon="3.62407">
        <ele>1153.6</ele>
      </trkpt>
      <trkpt lat="44.78724" lon="3.62427">
        <ele>1153.5</ele>
      </trkpt>
      <trkpt lat="44.78724" lon="3.62452">
        <ele>1153.3</ele>
      </trkpt>
      <trkpt lat="44.78724" lon="3.62456">
        <ele>1153.2</ele>
      </trkpt>
      <trkpt lat="44.78722" lon="3.62473">
        <ele>1152.8</ele>
      </trkpt>
      <trkpt lat="44.78719" lon="3.62485">
        <ele>1152.5</ele>
      </trkpt>
      <trkpt lat="44.78716" lon="3.62495">
        <ele>1152.1</ele>
      </trkpt>
      <trkpt lat="44.78714" lon="3.625">
        <ele>1152</ele>
      </trkpt>
      <trkpt lat="44.78706" lon="3.62513">
        <ele>1151.6</ele>
      </trkpt>
      <trkpt lat="44.78698" lon="3.62524">
        <ele>1151.2</ele>
      </trkpt>
      <trkpt lat="44.78692" lon="3.62538">
        <ele>1151</ele>
      </trkpt>
      <trkpt lat="44.78686" lon="3.62555">
        <ele>1151</ele>
      </trkpt>
      <trkpt lat="44.78681" lon="3.62572">
        <ele>1150.9</ele>
      </trkpt>
      <trkpt lat="44.78675" lon="3.62588">
        <ele>1150.9</ele>
      </trkpt>
      <trkpt lat="44.78671" lon="3.62595">
        <ele>1150.8</ele>
      </trkpt>
      <trkpt lat="44.78665" lon="3.62604">
        <ele>1150.6</ele>
      </trkpt>
      <trkpt lat="44.78656" lon="3.62615">
        <ele>1150.1</ele>
      </trkpt>
      <trkpt lat="44.78649" lon="3.62622">
        <ele>1149.7</ele>
      </trkpt>
      <trkpt lat="44.78642" lon="3.62626">
        <ele>1149.1</ele>
      </trkpt>
      <trkpt lat="44.78632" lon="3.62631">
        <ele>1148.3</ele>
      </trkpt>
      <trkpt lat="44.78615" lon="3.62642">
        <ele>1146.9</ele>
      </trkpt>
      <trkpt lat="44.78607" lon="3.62648">
        <ele>1146.2</ele>
      </trkpt>
      <trkpt lat="44.78602" lon="3.62655">
        <ele>1145.8</ele>
      </trkpt>
      <trkpt lat="44.78596" lon="3.62664">
        <ele>1145.3</ele>
      </trkpt>
      <trkpt lat="44.78578" lon="3.62696">
        <ele>1144</ele>
      </trkpt>
      <trkpt lat="44.78566" lon="3.62719">
        <ele>1143.3</ele>
      </trkpt>
      <trkpt lat="44.78559" lon="3.62738">
        <ele>1142.9</ele>
      </trkpt>
      <trkpt lat="44.78551" lon="3.62764">
        <ele>1142.1</ele>
      </trkpt>
      <trkpt lat="44.78545" lon="3.62785">
        <ele>1141.4</ele>
      </trkpt>
      <trkpt lat="44.78543" lon="3.62801">
        <ele>1141</ele>
      </trkpt>
      <trkpt lat="44.78542" lon="3.62821">
        <ele>1140.7</ele>
      </trkpt>
      <trkpt lat="44.78542" lon="3.62841">
        <ele>1140.5</ele>
      </trkpt>
      <trkpt lat="44.78545" lon="3.62855">
        <ele>1140.7</ele>
      </trkpt>
      <trkpt lat="44.78545" lon="3.62858">
        <ele>1140.8</ele>
      </trkpt>
      <trkpt lat="44.78546" lon="3.62861">
        <ele>1140.8</ele>
      </trkpt>
      <trkpt lat="44.78547" lon="3.62863">
        <ele>1140.8</ele>
      </trkpt>
      <trkpt lat="44.78547" lon="3.62866">
        <ele>1140.9</ele>
      </trkpt>
      <trkpt lat="44.78548" lon="3.62869">
        <ele>1140.9</ele>
      </trkpt>
      <trkpt lat="44.7855" lon="3.62877">
        <ele>1141</ele>
      </trkpt>
      <trkpt lat="44.78551" lon="3.62879">
        <ele>1141</ele>
      </trkpt>
      <trkpt lat="44.78551" lon="3.62881">
        <ele>1141</ele>
      </trkpt>
      <trkpt lat="44.78548" lon="3.62881">
        <ele>1140.9</ele>
      </trkpt>
      <trkpt lat="44.78545" lon="3.62883">
        <ele>1140.7</ele>
      </trkpt>
      <trkpt lat="44.7854" lon="3.62886">
        <ele>1140.4</ele>
      </trkpt>
      <trkpt lat="44.78537" lon="3.62889">
        <ele>1140.3</ele>
      </trkpt>
      <trkpt lat="44.78536" lon="3.62891">
        <ele>1140.2</ele>
      </trkpt>
      <trkpt lat="44.78534" lon="3.62893">
        <ele>1140.1</ele>
      </trkpt>
      <trkpt lat="44.78532" lon="3.62896">
        <ele>1140.1</ele>
      </trkpt>
      <trkpt lat="44.78531" lon="3.62899">
        <ele>1140</ele>
      </trkpt>
      <trkpt lat="44.7853" lon="3.62901">
        <ele>1140</ele>
      </trkpt>
      <trkpt lat="44.78529" lon="3.62905">
        <ele>1139.9</ele>
      </trkpt>
      <trkpt lat="44.78527" lon="3.6291">
        <ele>1139.9</ele>
      </trkpt>
      <trkpt lat="44.78527" lon="3.62912">
        <ele>1139.9</ele>
      </trkpt>
      <trkpt lat="44.78526" lon="3.62916">
        <ele>1139.9</ele>
      </trkpt>
      <trkpt lat="44.78525" lon="3.62925">
        <ele>1140.4</ele>
      </trkpt>
      <trkpt lat="44.78524" lon="3.62929">
        <ele>1140.6</ele>
      </trkpt>
      <trkpt lat="44.78524" lon="3.62933">
        <ele>1140.9</ele>
      </trkpt>
      <trkpt lat="44.78526" lon="3.62964">
        <ele>1142.6</ele>
      </trkpt>
      <trkpt lat="44.78528" lon="3.63025">
        <ele>1145.2</ele>
      </trkpt>
      <trkpt lat="44.78533" lon="3.63077">
        <ele>1146.4</ele>
      </trkpt>
      <trkpt lat="44.78537" lon="3.63119">
        <ele>1147.4</ele>
      </trkpt>
      <trkpt lat="44.78537" lon="3.6312">
        <ele>1147.4</ele>
      </trkpt>
      <trkpt lat="44.78537" lon="3.63126">
        <ele>1147.5</ele>
      </trkpt>
      <trkpt lat="44.78538" lon="3.63135">
        <ele>1147.7</ele>
      </trkpt>
      <trkpt lat="44.78539" lon="3.6314">
        <ele>1147.8</ele>
      </trkpt>
      <trkpt lat="44.7854" lon="3.63149">
        <ele>1148</ele>
      </trkpt>
      <trkpt lat="44.78543" lon="3.63161">
        <ele>1148.1</ele>
      </trkpt>
      <trkpt lat="44.78549" lon="3.63183">
        <ele>1148.8</ele>
      </trkpt>
      <trkpt lat="44.78555" lon="3.63203">
        <ele>1149.5</ele>
      </trkpt>
      <trkpt lat="44.78558" lon="3.63211">
        <ele>1149.8</ele>
      </trkpt>
      <trkpt lat="44.7857" lon="3.63244">
        <ele>1151.2</ele>
      </trkpt>
      <trkpt lat="44.78585" lon="3.63287">
        <ele>1152.4</ele>
      </trkpt>
      <trkpt lat="44.78595" lon="3.63317">
        <ele>1152.8</ele>
      </trkpt>
      <trkpt lat="44.78596" lon="3.63323">
        <ele>1153.1</ele>
      </trkpt>
      <trkpt lat="44.78596" lon="3.63329">
        <ele>1153.6</ele>
      </trkpt>
      <trkpt lat="44.78594" lon="3.63336">
        <ele>1153.8</ele>
      </trkpt>
      <trkpt lat="44.78591" lon="3.63341">
        <ele>1153.7</ele>
      </trkpt>
      <trkpt lat="44.78586" lon="3.63342">
        <ele>1154.3</ele>
      </trkpt>
      <trkpt lat="44.78567" lon="3.63343">
        <ele>1155.9</ele>
      </trkpt>
      <trkpt lat="44.78565" lon="3.63343">
        <ele>1156</ele>
      </trkpt>
      <trkpt lat="44.78534" lon="3.63342">
        <ele>1158.5</ele>
      </trkpt>
      <trkpt lat="44.78499" lon="3.63344">
        <ele>1161.1</ele>
      </trkpt>
      <trkpt lat="44.7848" lon="3.63345">
        <ele>1162.7</ele>
      </trkpt>
      <trkpt lat="44.78472" lon="3.63348">
        <ele>1163.1</ele>
      </trkpt>
      <trkpt lat="44.78449" lon="3.63363">
        <ele>1164.1</ele>
      </trkpt>
      <trkpt lat="44.78435" lon="3.63376">
        <ele>1164.6</ele>
      </trkpt>
      <trkpt lat="44.78417" lon="3.63393">
        <ele>1165.4</ele>
      </trkpt>
      <trkpt lat="44.78408" lon="3.63401">
        <ele>1165</ele>
      </trkpt>
      <trkpt lat="44.78394" lon="3.63413">
        <ele>1164.3</ele>
      </trkpt>
      <trkpt lat="44.78391" lon="3.63414">
        <ele>1164.2</ele>
      </trkpt>
      <trkpt lat="44.78389" lon="3.63415">
        <ele>1164.1</ele>
      </trkpt>
      <trkpt lat="44.78384" lon="3.63415">
        <ele>1164.1</ele>
      </trkpt>
      <trkpt lat="44.78377" lon="3.63415">
        <ele>1164.2</ele>
      </trkpt>
      <trkpt lat="44.78369" lon="3.6341">
        <ele>1164.5</ele>
      </trkpt>
      <trkpt lat="44.78352" lon="3.63398">
        <ele>1165.5</ele>
      </trkpt>
      <trkpt lat="44.78346" lon="3.63393">
        <ele>1165.9</ele>
      </trkpt>
      <trkpt lat="44.78329" lon="3.63378">
        <ele>1166.9</ele>
      </trkpt>
      <trkpt lat="44.78318" lon="3.63368">
        <ele>1166.9</ele>
      </trkpt>
      <trkpt lat="44.78307" lon="3.63354">
        <ele>1167.5</ele>
      </trkpt>
      <trkpt lat="44.78297" lon="3.63343">
        <ele>1168.1</ele>
      </trkpt>
      <trkpt lat="44.78282" lon="3.63328">
        <ele>1169.2</ele>
      </trkpt>
      <trkpt lat="44.78268" lon="3.63317">
        <ele>1169.8</ele>
      </trkpt>
      <trkpt lat="44.78258" lon="3.6331">
        <ele>1170.1</ele>
      </trkpt>
      <trkpt lat="44.78241" lon="3.63303">
        <ele>1170.5</ele>
      </trkpt>
      <trkpt lat="44.78236" lon="3.633">
        <ele>1170.6</ele>
      </trkpt>
      <trkpt lat="44.78227" lon="3.63298">
        <ele>1170.7</ele>
      </trkpt>
      <trkpt lat="44.78216" lon="3.63297">
        <ele>1170.6</ele>
      </trkpt>
      <trkpt lat="44.78177" lon="3.63294">
        <ele>1169.9</ele>
      </trkpt>
      <trkpt lat="44.78156" lon="3.63292">
        <ele>1169.1</ele>
      </trkpt>
      <trkpt lat="44.78141" lon="3.63289">
        <ele>1168.4</ele>
      </trkpt>
      <trkpt lat="44.78128" lon="3.63286">
        <ele>1167.8</ele>
      </trkpt>
      <trkpt lat="44.78108" lon="3.63276">
        <ele>1167.7</ele>
      </trkpt>
      <trkpt lat="44.78084" lon="3.6326">
        <ele>1168.4</ele>
      </trkpt>
      <trkpt lat="44.78075" lon="3.63254">
        <ele>1169.2</ele>
      </trkpt>
      <trkpt lat="44.78059" lon="3.63244">
        <ele>1170.3</ele>
      </trkpt>
      <trkpt lat="44.78052" lon="3.63241">
        <ele>1170.6</ele>
      </trkpt>
      <trkpt lat="44.78037" lon="3.63236">
        <ele>1170.8</ele>
      </trkpt>
      <trkpt lat="44.78021" lon="3.63233">
        <ele>1170.7</ele>
      </trkpt>
      <trkpt lat="44.78004" lon="3.6323">
        <ele>1170.5</ele>
      </trkpt>
      <trkpt lat="44.77994" lon="3.63228">
        <ele>1170.2</ele>
      </trkpt>
      <trkpt lat="44.77984" lon="3.63224">
        <ele>1169.9</ele>
      </trkpt>
      <trkpt lat="44.77973" lon="3.63219">
        <ele>1169.6</ele>
      </trkpt>
      <trkpt lat="44.77974" lon="3.63204">
        <ele>1170.5</ele>
      </trkpt>
      <trkpt lat="44.77971" lon="3.63191">
        <ele>1171.1</ele>
      </trkpt>
      <trkpt lat="44.77966" lon="3.63177">
        <ele>1171.6</ele>
      </trkpt>
      <trkpt lat="44.7796" lon="3.63162">
        <ele>1171.9</ele>
      </trkpt>
      <trkpt lat="44.77957" lon="3.63145">
        <ele>1172.5</ele>
      </trkpt>
      <trkpt lat="44.77956" lon="3.63134">
        <ele>1172.9</ele>
      </trkpt>
      <trkpt lat="44.77955" lon="3.63125">
        <ele>1173.4</ele>
      </trkpt>
      <trkpt lat="44.77956" lon="3.63115">
        <ele>1174</ele>
      </trkpt>
      <trkpt lat="44.77958" lon="3.63102">
        <ele>1175</ele>
      </trkpt>
      <trkpt lat="44.77967" lon="3.63067">
        <ele>1178.1</ele>
      </trkpt>
      <trkpt lat="44.77981" lon="3.63013">
        <ele>1182.7</ele>
      </trkpt>
      <trkpt lat="44.77993" lon="3.6297">
        <ele>1185.4</ele>
      </trkpt>
      <trkpt lat="44.78" lon="3.62943">
        <ele>1186.7</ele>
      </trkpt>
      <trkpt lat="44.78004" lon="3.62923">
        <ele>1186.8</ele>
      </trkpt>
      <trkpt lat="44.78006" lon="3.62909">
        <ele>1186.5</ele>
      </trkpt>
      <trkpt lat="44.78006" lon="3.6289">
        <ele>1185.8</ele>
      </trkpt>
      <trkpt lat="44.78006" lon="3.62871">
        <ele>1185.2</ele>
      </trkpt>
      <trkpt lat="44.78005" lon="3.62863">
        <ele>1184.9</ele>
      </trkpt>
      <trkpt lat="44.78004" lon="3.62849">
        <ele>1184.4</ele>
      </trkpt>
      <trkpt lat="44.77998" lon="3.62853">
        <ele>1184.6</ele>
      </trkpt>
      <trkpt lat="44.77961" lon="3.62827">
        <ele>1181.347541</ele>
        <time>2019-10-08T01:42:46.456Z</time>
      </trkpt>
      <trkpt lat="44.77863" lon="3.6272">
        <ele>1179.323664</ele>
        <time>2019-10-08T01:43:26.816Z</time>
      </trkpt>
      <trkpt lat="44.7785" lon="3.62696">
        <ele>1179.038314</ele>
        <time>2019-10-08T01:43:34.112Z</time>
      </trkpt>
      <trkpt lat="44.77816" lon="3.62606">
        <ele>1178.053991</ele>
        <time>2019-10-08T01:43:59.411Z</time>
      </trkpt>
      <trkpt lat="44.77786" lon="3.62574">
        <ele>1177.529069</ele>
        <time>2019-10-08T01:44:11.986Z</time>
      </trkpt>
      <trkpt lat="44.77782" lon="3.62572">
        <ele>1177.456392</ele>
        <time>2019-10-08T01:44:13.999Z</time>
      </trkpt>
      <trkpt lat="44.77747" lon="3.62552">
        <ele>1176.868384</ele>
        <time>2019-10-08T01:44:26.847Z</time>
      </trkpt>
      <trkpt lat="44.77723" lon="3.62531">
        <ele>1176.444719</ele>
        <time>2019-10-08T01:44:35.879Z</time>
      </trkpt>
      <trkpt lat="44.77717" lon="3.62525">
        <ele>1176.326774</ele>
        <time>2019-10-08T01:44:38.845Z</time>
      </trkpt>
      <trkpt lat="44.77708" lon="3.62514">
        <ele>1176.146277</ele>
        <time>2019-10-08T01:44:42.399Z</time>
      </trkpt>
      <trkpt lat="44.77654" lon="3.62462">
        <ele>1175.140895</ele>
        <time>2019-10-08T01:45:04.471Z</time>
      </trkpt>
      <trkpt lat="44.77654" lon="3.62462">
        <ele>1175.140895</ele>
        <time>2019-10-08T01:45:04.481Z</time>
      </trkpt>
      <trkpt lat="44.77607" lon="3.6243">
        <ele>1174.74405</ele>
        <time>2019-10-08T01:45:21.788Z</time>
      </trkpt>
      <trkpt lat="44.77591" lon="3.62398">
        <ele>1174.608912</ele>
        <time>2019-10-08T01:45:30.765Z</time>
      </trkpt>
      <trkpt lat="44.77595" lon="3.62375">
        <ele>1174.527586</ele>
        <time>2019-10-08T01:45:36.656Z</time>
      </trkpt>
      <trkpt lat="44.77625" lon="3.62316">
        <ele>1174.272289</ele>
        <time>2019-10-08T01:45:55.561Z</time>
      </trkpt>
      <trkpt lat="44.77639" lon="3.62274">
        <ele>1174.11006</ele>
        <time>2019-10-08T01:46:08.552Z</time>
      </trkpt>
      <trkpt lat="44.7762" lon="3.62195">
        <ele>1174.590748</ele>
        <time>2019-10-08T01:46:33.445Z</time>
      </trkpt>
      <trkpt lat="44.77624" lon="3.62158">
        <ele>1174.903543</ele>
        <time>2019-10-08T01:46:45.181Z</time>
      </trkpt>
      <trkpt lat="44.77636" lon="3.62109">
        <ele>1175.329854</ele>
        <time>2019-10-08T01:47:01.801Z</time>
      </trkpt>
      <trkpt lat="44.77636" lon="3.62055">
        <ele>1175.781817</ele>
        <time>2019-10-08T01:47:19.176Z</time>
      </trkpt>
      <trkpt lat="44.77637" lon="3.62048">
        <ele>1175.838872</ele>
        <time>2019-10-08T01:47:21.790Z</time>
      </trkpt>
      <trkpt lat="44.77636" lon="3.62043">
        <ele>1175.880773</ele>
        <time>2019-10-08T01:47:22.551Z</time>
      </trkpt>
      <trkpt lat="44.7764" lon="3.62004">
        <ele>1176.13543</ele>
        <time>2019-10-08T01:47:30.757Z</time>
      </trkpt>
      <trkpt lat="44.77641" lon="3.6199">
        <ele>1176.115693</ele>
        <time>2019-10-08T01:47:33.484Z</time>
      </trkpt>
      <trkpt lat="44.77649" lon="3.61965">
        <ele>1176.079265</ele>
        <time>2019-10-08T01:47:39.201Z</time>
      </trkpt>
      <trkpt lat="44.7768" lon="3.6189">
        <ele>1175.961174</ele>
        <time>2019-10-08T01:47:53.606Z</time>
      </trkpt>
      <trkpt lat="44.77683" lon="3.6188">
        <ele>1175.946217</ele>
        <time>2019-10-08T01:47:56.689Z</time>
      </trkpt>
      <trkpt lat="44.77684" lon="3.61873">
        <ele>1175.936235</ele>
        <time>2019-10-08T01:47:57.534Z</time>
      </trkpt>
      <trkpt lat="44.77667" lon="3.61824">
        <ele>1175.861663</ele>
        <time>2019-10-08T01:48:05.787Z</time>
      </trkpt>
      <trkpt lat="44.77661" lon="3.61785">
        <ele>1175.808404</ele>
        <time>2019-10-08T01:48:12.186Z</time>
      </trkpt>
      <trkpt lat="44.7766" lon="3.61768">
        <ele>1175.687452</ele>
        <time>2019-10-08T01:48:14.343Z</time>
      </trkpt>
      <trkpt lat="44.77663" lon="3.61753">
        <ele>1175.539651</ele>
        <time>2019-10-08T01:48:17.041Z</time>
      </trkpt>
      <trkpt lat="44.7766" lon="3.61736">
        <ele>1175.374118</ele>
        <time>2019-10-08T01:48:19.325Z</time>
      </trkpt>
      <trkpt lat="44.77658" lon="3.61729">
        <ele>1175.310045</ele>
        <time>2019-10-08T01:48:20.064Z</time>
      </trkpt>
      <trkpt lat="44.77653" lon="3.61709">
        <ele>1175.111813</ele>
        <time>2019-10-08T01:48:23.103Z</time>
      </trkpt>
      <trkpt lat="44.7765" lon="3.61695">
        <ele>1174.966916</ele>
        <time>2019-10-08T01:48:25.043Z</time>
      </trkpt>
      <trkpt lat="44.77645" lon="3.61674">
        <ele>1174.756119</ele>
        <time>2019-10-08T01:48:27.823Z</time>
      </trkpt>
      <trkpt lat="44.77643" lon="3.61661">
        <ele>1174.631431</ele>
        <time>2019-10-08T01:48:29.894Z</time>
      </trkpt>
      <trkpt lat="44.77642" lon="3.61654">
        <ele>1174.571062</ele>
        <time>2019-10-08T01:48:30.826Z</time>
      </trkpt>
      <trkpt lat="44.77635" lon="3.61657">
        <ele>1174.473836</ele>
        <time>2019-10-08T01:48:32.798Z</time>
      </trkpt>
      <trkpt lat="44.77624" lon="3.61678">
        <ele>1174.224982</ele>
        <time>2019-10-08T01:48:39.233Z</time>
      </trkpt>
      <trkpt lat="44.7763" lon="3.61705">
        <ele>1173.955913</ele>
        <time>2019-10-08T01:48:46.072Z</time>
      </trkpt>
      <trkpt lat="44.77629" lon="3.61738">
        <ele>1173.644564</ele>
        <time>2019-10-08T01:48:56.046Z</time>
      </trkpt>
      <trkpt lat="44.77632" lon="3.61749">
        <ele>1173.52988</ele>
        <time>2019-10-08T01:48:58.672Z</time>
      </trkpt>
      <trkpt lat="44.7763" lon="3.61764">
        <ele>1173.465087</ele>
        <time>2019-10-08T01:49:02.688Z</time>
      </trkpt>
      <trkpt lat="44.77622" lon="3.61795">
        <ele>1174.242821</ele>
        <time>2019-10-08T01:49:13.286Z</time>
      </trkpt>
      <trkpt lat="44.77622" lon="3.61795">
        <ele>1174.242821</ele>
        <time>2019-10-08T01:49:13.292Z</time>
      </trkpt>
      <trkpt lat="44.77593" lon="3.61804">
        <ele>1175.254209</ele>
        <time>2019-10-08T01:49:27.952Z</time>
      </trkpt>
      <trkpt lat="44.77578" lon="3.61809">
        <ele>1175.755585</ele>
        <time>2019-10-08T01:49:33.077Z</time>
      </trkpt>
      <trkpt lat="44.77555" lon="3.61819">
        <ele>1176.57483</ele>
        <time>2019-10-08T01:49:47.282Z</time>
      </trkpt>
      <trkpt lat="44.77508" lon="3.61834">
        <ele>1178.187214</ele>
        <time>2019-10-08T01:50:14.158Z</time>
      </trkpt>
      <trkpt lat="44.77457" lon="3.61817">
        <ele>1180.404085</ele>
        <time>2019-10-08T01:50:51.087Z</time>
      </trkpt>
      <trkpt lat="44.77391" lon="3.61784">
        <ele>1184.98816</ele>
        <time>2019-10-08T01:51:43.099Z</time>
      </trkpt>
      <trkpt lat="44.77362" lon="3.61783">
        <ele>1186.895403</ele>
        <time>2019-10-08T01:52:03.753Z</time>
      </trkpt>
      <trkpt lat="44.77304" lon="3.61803">
        <ele>1190.777464</ele>
        <time>2019-10-08T01:52:44.856Z</time>
      </trkpt>
      <trkpt lat="44.77285" lon="3.61818">
        <ele>1191.764962</ele>
        <time>2019-10-08T01:52:58.614Z</time>
      </trkpt>
      <trkpt lat="44.77244" lon="3.61833">
        <ele>1193.449312</ele>
        <time>2019-10-08T01:53:25.562Z</time>
      </trkpt>
      <trkpt lat="44.77234" lon="3.61831">
        <ele>1193.863549</ele>
        <time>2019-10-08T01:53:31.737Z</time>
      </trkpt>
      <trkpt lat="44.77213" lon="3.61811">
        <ele>1194.863129</ele>
        <time>2019-10-08T01:53:46.293Z</time>
      </trkpt>
      <trkpt lat="44.77188" lon="3.61798">
        <ele>1195.920179</ele>
        <time>2019-10-08T01:54:00.440Z</time>
      </trkpt>
      <trkpt lat="44.7718" lon="3.61793">
        <ele>1196.266559</ele>
        <time>2019-10-08T01:54:05.570Z</time>
      </trkpt>
      <trkpt lat="44.77167" lon="3.61799">
        <ele>1196.814235</ele>
        <time>2019-10-08T01:54:12.699Z</time>
      </trkpt>
      <trkpt lat="44.77118" lon="3.61811">
        <ele>1198.451651</ele>
        <time>2019-10-08T01:54:37.024Z</time>
      </trkpt>
      <trkpt lat="44.77006" lon="3.61799">
        <ele>1200.021577</ele>
        <time>2019-10-08T01:55:27.533Z</time>
      </trkpt>
      <trkpt lat="44.76946" lon="3.61785">
        <ele>1200.815556</ele>
        <time>2019-10-08T01:55:51.631Z</time>
      </trkpt>
      <trkpt lat="44.76787" lon="3.61716">
        <ele>1201.703981</ele>
        <time>2019-10-08T01:56:56.907Z</time>
      </trkpt>
      <trkpt lat="44.76753" lon="3.61691">
        <ele>1202.249852</ele>
        <time>2019-10-08T01:57:12.760Z</time>
      </trkpt>
      <trkpt lat="44.76736" lon="3.61669">
        <ele>1202.621485</ele>
        <time>2019-10-08T01:57:22.349Z</time>
      </trkpt>
      <trkpt lat="44.76699" lon="3.61618">
        <ele>1203.458103</ele>
        <time>2019-10-08T01:57:44.428Z</time>
      </trkpt>
      <trkpt lat="44.76673" lon="3.61558">
        <ele>1204.265564</ele>
        <time>2019-10-08T01:58:07.962Z</time>
      </trkpt>
      <trkpt lat="44.76649" lon="3.61536">
        <ele>1204.854496</ele>
        <time>2019-10-08T01:58:22.588Z</time>
      </trkpt>
      <trkpt lat="44.76632" lon="3.61504">
        <ele>1206.095686</ele>
        <time>2019-10-08T01:58:37.973Z</time>
      </trkpt>
      <trkpt lat="44.76592" lon="3.61491">
        <ele>1207.887997</ele>
        <time>2019-10-08T01:59:01.149Z</time>
      </trkpt>
      <trkpt lat="44.76563" lon="3.61465">
        <ele>1209.390744</ele>
        <time>2019-10-08T01:59:21.335Z</time>
      </trkpt>
      <trkpt lat="44.76482" lon="3.61394">
        <ele>1213.924252</ele>
        <time>2019-10-08T02:00:21.479Z</time>
      </trkpt>
      <trkpt lat="44.76467" lon="3.61391">
        <ele>1214.902407</ele>
        <time>2019-10-08T02:00:33.782Z</time>
      </trkpt>
      <trkpt lat="44.76405" lon="3.61412">
        <ele>1218.747022</ele>
        <time>2019-10-08T02:01:16.922Z</time>
      </trkpt>
      <trkpt lat="44.76375" lon="3.61429">
        <ele>1220.720384</ele>
        <time>2019-10-08T02:01:38.243Z</time>
      </trkpt>
      <trkpt lat="44.76371" lon="3.61433">
        <ele>1221.041941</ele>
        <time>2019-10-08T02:01:42.845Z</time>
      </trkpt>
      <trkpt lat="44.76365" lon="3.61431">
        <ele>1221.391771</ele>
        <time>2019-10-08T02:01:47.220Z</time>
      </trkpt>
      <trkpt lat="44.76219" lon="3.61389">
        <ele>1229.36191</ele>
        <time>2019-10-08T02:03:25.624Z</time>
      </trkpt>
      <trkpt lat="44.76144" lon="3.61352">
        <ele>1232.942637</ele>
        <time>2019-10-08T02:04:11.123Z</time>
      </trkpt>
      <trkpt lat="44.76144" lon="3.61352">
        <ele>1232.942637</ele>
        <time>2019-10-08T02:04:11.253Z</time>
      </trkpt>
      <trkpt lat="44.76102" lon="3.6135">
        <ele>1233.751213</ele>
        <time>2019-10-08T02:04:33.691Z</time>
      </trkpt>
      <trkpt lat="44.76007" lon="3.61368">
        <ele>1235.590924</ele>
        <time>2019-10-08T02:05:17.646Z</time>
      </trkpt>
      <trkpt lat="44.75986" lon="3.61364">
        <ele>1236.009406</ele>
        <time>2019-10-08T02:05:25.762Z</time>
      </trkpt>
      <trkpt lat="44.75958" lon="3.61361">
        <ele>1235.5197</ele>
        <time>2019-10-08T02:05:35.744Z</time>
      </trkpt>
      <trkpt lat="44.75933" lon="3.61357">
        <ele>1234.832792</ele>
        <time>2019-10-08T02:05:44.296Z</time>
      </trkpt>
      <trkpt lat="44.7592" lon="3.61354">
        <ele>1234.493444</ele>
        <time>2019-10-08T02:05:48.405Z</time>
      </trkpt>
      <trkpt lat="44.75916" lon="3.61358">
        <ele>1234.349805</ele>
        <time>2019-10-08T02:05:50.012Z</time>
      </trkpt>
      <trkpt lat="44.7586" lon="3.61395">
        <ele>1232.66496</ele>
        <time>2019-10-08T02:06:09.373Z</time>
      </trkpt>
      <trkpt lat="44.7585" lon="3.61403">
        <ele>1232.370763</ele>
        <time>2019-10-08T02:06:12.576Z</time>
      </trkpt>
      <trkpt lat="44.7584" lon="3.61403">
        <ele>1232.074294</ele>
        <time>2019-10-08T02:06:14.401Z</time>
      </trkpt>
      <trkpt lat="44.75835" lon="3.61405">
        <ele>1231.941366</ele>
        <time>2019-10-08T02:06:15.233Z</time>
      </trkpt>
      <trkpt lat="44.75831" lon="3.61408">
        <ele>1231.809672</ele>
        <time>2019-10-08T02:06:16.025Z</time>
      </trkpt>
      <trkpt lat="44.75813" lon="3.61385">
        <ele>1231.068512</ele>
        <time>2019-10-08T02:06:22.990Z</time>
      </trkpt>
      <trkpt lat="44.7579" lon="3.61346">
        <ele>1229.092843</ele>
        <time>2019-10-08T02:06:33.321Z</time>
      </trkpt>
      <trkpt lat="44.75768" lon="3.61326">
        <ele>1227.67844</ele>
        <time>2019-10-08T02:06:40.769Z</time>
      </trkpt>
      <trkpt lat="44.75759" lon="3.61319">
        <ele>1227.154457</ele>
        <time>2019-10-08T02:06:43.481Z</time>
      </trkpt>
      <trkpt lat="44.75744" lon="3.61315">
        <ele>1226.316966</ele>
        <time>2019-10-08T02:06:47.761Z</time>
      </trkpt>
      <trkpt lat="44.75605" lon="3.61289">
        <ele>1220.059019</ele>
        <time>2019-10-08T02:07:27.453Z</time>
      </trkpt>
      <trkpt lat="44.75491" lon="3.61321">
        <ele>1216.89136</ele>
        <time>2019-10-08T02:08:04.635Z</time>
      </trkpt>
      <trkpt lat="44.7548" lon="3.61311">
        <ele>1216.560347</ele>
        <time>2019-10-08T02:08:09.888Z</time>
      </trkpt>
      <trkpt lat="44.75472" lon="3.61283">
        <ele>1217.194184</ele>
        <time>2019-10-08T02:08:18.653Z</time>
      </trkpt>
      <trkpt lat="44.75453" lon="3.61268">
        <ele>1217.815572</ele>
        <time>2019-10-08T02:08:29.041Z</time>
      </trkpt>
      <trkpt lat="44.75439" lon="3.61263">
        <ele>1218.263217</ele>
        <time>2019-10-08T02:08:35.401Z</time>
      </trkpt>
      <trkpt lat="44.7543" lon="3.61268">
        <ele>1218.542121</ele>
        <time>2019-10-08T02:08:39.882Z</time>
      </trkpt>
      <trkpt lat="44.75418" lon="3.61274">
        <ele>1218.904637</ele>
        <time>2019-10-08T02:08:47.409Z</time>
      </trkpt>
      <trkpt lat="44.7539" lon="3.61281">
        <ele>1219.734528</ele>
        <time>2019-10-08T02:09:01.898Z</time>
      </trkpt>
      <trkpt lat="44.75341" lon="3.61274">
        <ele>1221.190548</ele>
        <time>2019-10-08T02:09:31.737Z</time>
      </trkpt>
      <trkpt lat="44.75259" lon="3.61291">
        <ele>1224.594754</ele>
        <time>2019-10-08T02:10:25.129Z</time>
      </trkpt>
      <trkpt lat="44.75201" lon="3.61324">
        <ele>1227.430871</ele>
        <time>2019-10-08T02:11:02.532Z</time>
      </trkpt>
      <trkpt lat="44.75188" lon="3.61325">
        <ele>1228.034469</ele>
        <time>2019-10-08T02:11:10.386Z</time>
      </trkpt>
      <trkpt lat="44.75036" lon="3.61295">
        <ele>1233.428896</ele>
        <time>2019-10-08T02:12:34.462Z</time>
      </trkpt>
      <trkpt lat="44.74957" lon="3.61294">
        <ele>1235.696603</ele>
        <time>2019-10-08T02:13:13.434Z</time>
      </trkpt>
      <trkpt lat="44.74952" lon="3.61292">
        <ele>1235.755833</ele>
        <time>2019-10-08T02:13:16.239Z</time>
      </trkpt>
      <trkpt lat="44.74942" lon="3.6129">
        <ele>1235.875935</ele>
        <time>2019-10-08T02:13:20.980Z</time>
      </trkpt>
      <trkpt lat="44.74931" lon="3.61287">
        <ele>1236.002725</ele>
        <time>2019-10-08T02:13:25.921Z</time>
      </trkpt>
      <trkpt lat="44.74918" lon="3.61282">
        <ele>1236.164974</ele>
        <time>2019-10-08T02:13:32.173Z</time>
      </trkpt>
      <trkpt lat="44.74896" lon="3.61269">
        <ele>1236.44443</ele>
        <time>2019-10-08T02:13:42.860Z</time>
      </trkpt>
      <trkpt lat="44.74798" lon="3.61221">
        <ele>1237.68061</ele>
        <time>2019-10-08T02:14:26.126Z</time>
      </trkpt>
      <trkpt lat="44.74721" lon="3.61199">
        <ele>1236.809039</ele>
        <time>2019-10-08T02:14:54.389Z</time>
      </trkpt>
      <trkpt lat="44.74609" lon="3.6119">
        <ele>1235.302266</ele>
        <time>2019-10-08T02:15:31.257Z</time>
      </trkpt>
      <trkpt lat="44.74545" lon="3.61169">
        <ele>1233.271664</ele>
        <time>2019-10-08T02:15:51.595Z</time>
      </trkpt>
      <trkpt lat="44.74492" lon="3.6117">
        <ele>1231.635107</ele>
        <time>2019-10-08T02:16:07.659Z</time>
      </trkpt>
      <trkpt lat="44.74474" lon="3.6118">
        <ele>1231.035669</ele>
        <time>2019-10-08T02:16:13.476Z</time>
      </trkpt>
      <trkpt lat="44.74463" lon="3.61208">
        <ele>1230.33772</ele>
        <time>2019-10-08T02:16:20.260Z</time>
      </trkpt>
      <trkpt lat="44.74453" lon="3.61221">
        <ele>1229.94648</ele>
        <time>2019-10-08T02:16:24.261Z</time>
      </trkpt>
      <trkpt lat="44.74405" lon="3.61246">
        <ele>1229.242019</ele>
        <time>2019-10-08T02:16:40.289Z</time>
      </trkpt>
      <trkpt lat="44.74345" lon="3.61328">
        <ele>1228.079769</ele>
        <time>2019-10-08T02:17:07.907Z</time>
      </trkpt>
      <trkpt lat="44.74342" lon="3.61337">
        <ele>1227.976096</ele>
        <time>2019-10-08T02:17:10.069Z</time>
      </trkpt>
      <trkpt lat="44.74333" lon="3.61329">
        <ele>1227.823196</ele>
        <time>2019-10-08T02:17:15.630Z</time>
      </trkpt>
      <trkpt lat="44.74223" lon="3.61221">
        <ele>1229.561788</ele>
        <time>2019-10-08T02:17:54.769Z</time>
      </trkpt>
      <trkpt lat="44.74221" lon="3.61216">
        <ele>1229.642762</ele>
        <time>2019-10-08T02:17:58.262Z</time>
      </trkpt>
      <trkpt lat="44.74214" lon="3.61214">
        <ele>1229.775768</ele>
        <time>2019-10-08T02:18:02.584Z</time>
      </trkpt>
      <trkpt lat="44.74139" lon="3.61182">
        <ele>1230.985559</ele>
        <time>2019-10-08T02:18:42.147Z</time>
      </trkpt>
      <trkpt lat="44.74116" lon="3.61158">
        <ele>1231.092339</ele>
        <time>2019-10-08T02:18:55.849Z</time>
      </trkpt>
      <trkpt lat="44.74086" lon="3.61111">
        <ele>1231.258291</ele>
        <time>2019-10-08T02:19:15.027Z</time>
      </trkpt>
      <trkpt lat="44.74066" lon="3.61068">
        <ele>1231.392674</ele>
        <time>2019-10-08T02:19:28.181Z</time>
      </trkpt>
      <trkpt lat="44.74045" lon="3.61006">
        <ele>1231.572742</ele>
        <time>2019-10-08T02:19:44.417Z</time>
      </trkpt>
      <trkpt lat="44.73989" lon="3.60867">
        <ele>1229.943438</ele>
        <time>2019-10-08T02:20:21.154Z</time>
      </trkpt>
      <trkpt lat="44.73985" lon="3.60858">
        <ele>1229.834165</ele>
        <time>2019-10-08T02:20:23.319Z</time>
      </trkpt>
      <trkpt lat="44.73985" lon="3.60839">
        <ele>1229.633634</ele>
        <time>2019-10-08T02:20:27.666Z</time>
      </trkpt>
      <trkpt lat="44.73983" lon="3.60817">
        <ele>1229.409172</ele>
        <time>2019-10-08T02:20:33.096Z</time>
      </trkpt>
      <trkpt lat="44.73965" lon="3.60764">
        <ele>1229.237836</ele>
        <time>2019-10-08T02:20:48.284Z</time>
      </trkpt>
      <trkpt lat="44.73918" lon="3.60646">
        <ele>1231.923924</ele>
        <time>2019-10-08T02:21:33.179Z</time>
      </trkpt>
      <trkpt lat="44.73914" lon="3.60627">
        <ele>1232.308958</ele>
        <time>2019-10-08T02:21:40.961Z</time>
      </trkpt>
      <trkpt lat="44.7391" lon="3.60611">
        <ele>1232.645398</ele>
        <time>2019-10-08T02:21:49.452Z</time>
      </trkpt>
      <trkpt lat="44.73888" lon="3.60536">
        <ele>1234.422484</ele>
        <time>2019-10-08T02:22:24.086Z</time>
      </trkpt>
      <trkpt lat="44.73841" lon="3.60422">
        <ele>1238.64659</ele>
        <time>2019-10-08T02:23:27.340Z</time>
      </trkpt>
      <trkpt lat="44.73693" lon="3.60184">
        <ele>1245.715164</ele>
        <time>2019-10-08T02:25:23.417Z</time>
      </trkpt>
      <trkpt lat="44.73678" lon="3.60165">
        <ele>1246.211331</ele>
        <time>2019-10-08T02:25:32.871Z</time>
      </trkpt>
      <trkpt lat="44.73671" lon="3.60156">
        <ele>1246.429128</ele>
        <time>2019-10-08T02:25:35.712Z</time>
      </trkpt>
      <trkpt lat="44.73637" lon="3.60109">
        <ele>1247.312261</ele>
        <time>2019-10-08T02:25:55.936Z</time>
      </trkpt>
      <trkpt lat="44.73575" lon="3.60051">
        <ele>1248.664777</ele>
        <time>2019-10-08T02:26:28.087Z</time>
      </trkpt>
      <trkpt lat="44.7356" lon="3.59987">
        <ele>1249.538566</ele>
        <time>2019-10-08T02:26:50.942Z</time>
      </trkpt>
      <trkpt lat="44.73519" lon="3.59882">
        <ele>1252.6226</ele>
        <time>2019-10-08T02:27:40.110Z</time>
      </trkpt>
      <trkpt lat="44.73481" lon="3.59826">
        <ele>1254.780416</ele>
        <time>2019-10-08T02:28:14.531Z</time>
      </trkpt>
      <trkpt lat="44.73444" lon="3.59744">
        <ele>1256.965691</ele>
        <time>2019-10-08T02:28:52.628Z</time>
      </trkpt>
      <trkpt lat="44.7342" lon="3.59716">
        <ele>1257.327337</ele>
        <time>2019-10-08T02:29:07.598Z</time>
      </trkpt>
      <trkpt lat="44.73381" lon="3.59687">
        <ele>1257.851539</ele>
        <time>2019-10-08T02:29:26.494Z</time>
      </trkpt>
      <trkpt lat="44.73369" lon="3.59676">
        <ele>1258.021871</ele>
        <time>2019-10-08T02:29:32.887Z</time>
      </trkpt>
      <trkpt lat="44.7336" lon="3.59654">
        <ele>1258.226832</ele>
        <time>2019-10-08T02:29:39.450Z</time>
      </trkpt>
      <trkpt lat="44.73346" lon="3.59619">
        <ele>1258.561384</ele>
        <time>2019-10-08T02:29:50.821Z</time>
      </trkpt>
      <trkpt lat="44.73344" lon="3.5961">
        <ele>1258.648972</ele>
        <time>2019-10-08T02:29:53.326Z</time>
      </trkpt>
      <trkpt lat="44.73338" lon="3.59611">
        <ele>1258.721499</ele>
        <time>2019-10-08T02:29:55.386Z</time>
      </trkpt>
      <trkpt lat="44.73325" lon="3.59605">
        <ele>1258.857378</ele>
        <time>2019-10-08T02:30:00.934Z</time>
      </trkpt>
      <trkpt lat="44.73279" lon="3.59533">
        <ele>1258.190969</ele>
        <time>2019-10-08T02:30:24.131Z</time>
      </trkpt>
      <trkpt lat="44.73266" lon="3.59503">
        <ele>1257.945309</ele>
        <time>2019-10-08T02:30:32.276Z</time>
      </trkpt>
      <trkpt lat="44.73252" lon="3.5945">
        <ele>1257.555748</ele>
        <time>2019-10-08T02:30:45.866Z</time>
      </trkpt>
      <trkpt lat="44.73239" lon="3.59394">
        <ele>1257.143946</ele>
        <time>2019-10-08T02:31:01.043Z</time>
      </trkpt>
      <trkpt lat="44.73239" lon="3.59394">
        <ele>1257.143946</ele>
        <time>2019-10-08T02:31:01.056Z</time>
      </trkpt>
      <trkpt lat="44.7323" lon="3.59359">
        <ele>1257.086949</ele>
        <time>2019-10-08T02:31:10.494Z</time>
      </trkpt>
      <trkpt lat="44.73212" lon="3.59322">
        <ele>1257.050612</ele>
        <time>2019-10-08T02:31:21.789Z</time>
      </trkpt>
      <trkpt lat="44.73188" lon="3.5929">
        <ele>1257.012722</ele>
        <time>2019-10-08T02:31:33.498Z</time>
      </trkpt>
      <trkpt lat="44.73062" lon="3.59187">
        <ele>1257.466395</ele>
        <time>2019-10-08T02:32:30.153Z</time>
      </trkpt>
      <trkpt lat="44.73053" lon="3.59176">
        <ele>1257.589137</ele>
        <time>2019-10-08T02:32:34.754Z</time>
      </trkpt>
      <trkpt lat="44.73047" lon="3.59166">
        <ele>1257.680136</ele>
        <time>2019-10-08T02:32:37.388Z</time>
      </trkpt>
      <trkpt lat="44.73036" lon="3.59154">
        <ele>1257.828105</ele>
        <time>2019-10-08T02:32:42.218Z</time>
      </trkpt>
      <trkpt lat="44.72999" lon="3.59086">
        <ele>1258.450681</ele>
        <time>2019-10-08T02:33:03.550Z</time>
      </trkpt>
      <trkpt lat="44.72996" lon="3.5908">
        <ele>1258.502063</ele>
        <time>2019-10-08T02:33:06.462Z</time>
      </trkpt>
      <trkpt lat="44.72997" lon="3.59114">
        <ele>1258.751281</ele>
        <time>2019-10-08T02:33:12.873Z</time>
      </trkpt>
      <trkpt lat="44.72996" lon="3.59122">
        <ele>1258.929955</ele>
        <time>2019-10-08T02:33:14.956Z</time>
      </trkpt>
      <trkpt lat="44.72986" lon="3.59126">
        <ele>1259.290126</ele>
        <time>2019-10-08T02:33:19.340Z</time>
      </trkpt>
      <trkpt lat="44.72981" lon="3.59127">
        <ele>1259.44205</ele>
        <time>2019-10-08T02:33:20.123Z</time>
      </trkpt>
      <trkpt lat="44.72975" lon="3.59129">
        <ele>1259.684517</ele>
        <time>2019-10-08T02:33:22.788Z</time>
      </trkpt>
      <trkpt lat="44.72934" lon="3.59133">
        <ele>1261.133162</ele>
        <time>2019-10-08T02:33:39.075Z</time>
      </trkpt>
      <trkpt lat="44.72915" lon="3.59137">
        <ele>1261.80754</ele>
        <time>2019-10-08T02:33:46.519Z</time>
      </trkpt>
      <trkpt lat="44.72914" lon="3.59141">
        <ele>1261.91945</ele>
        <time>2019-10-08T02:33:47.156Z</time>
      </trkpt>
      <trkpt lat="44.72893" lon="3.59247">
        <ele>1264.653725</ele>
        <time>2019-10-08T02:34:19.044Z</time>
      </trkpt>
      <trkpt lat="44.72891" lon="3.59261">
        <ele>1265.028781</ele>
        <time>2019-10-08T02:34:25.628Z</time>
      </trkpt>
      <trkpt lat="44.7289" lon="3.59269">
        <ele>1265.321537</ele>
        <time>2019-10-08T02:34:28.208Z</time>
      </trkpt>
      <trkpt lat="44.7289" lon="3.59286">
        <ele>1266.083107</ele>
        <time>2019-10-08T02:34:33.685Z</time>
      </trkpt>
      <trkpt lat="44.72891" lon="3.59295">
        <ele>1266.476445</ele>
        <time>2019-10-08T02:34:36.655Z</time>
      </trkpt>
      <trkpt lat="44.72886" lon="3.59295">
        <ele>1266.786386</ele>
        <time>2019-10-08T02:34:41.481Z</time>
      </trkpt>
      <trkpt lat="44.72843" lon="3.59412">
        <ele>1272.568581</ele>
        <time>2019-10-08T02:35:45.224Z</time>
      </trkpt>
      <trkpt lat="44.72776" lon="3.59679">
        <ele>1285.429641</ele>
        <time>2019-10-08T02:38:08.432Z</time>
      </trkpt>
      <trkpt lat="44.72764" lon="3.59771">
        <ele>1289.000316</ele>
        <time>2019-10-08T02:38:52.102Z</time>
      </trkpt>
      <trkpt lat="44.72742" lon="3.59866">
        <ele>1291.912649</ele>
        <time>2019-10-08T02:39:34.869Z</time>
      </trkpt>
      <trkpt lat="44.72736" lon="3.59886">
        <ele>1292.530846</ele>
        <time>2019-10-08T02:39:43.825Z</time>
      </trkpt>
      <trkpt lat="44.72729" lon="3.59905">
        <ele>1293.156744</ele>
        <time>2019-10-08T02:39:51.749Z</time>
      </trkpt>
      <trkpt lat="44.72695" lon="3.5997">
        <ele>1295.246704</ele>
        <time>2019-10-08T02:40:20.984Z</time>
      </trkpt>
      <trkpt lat="44.72626" lon="3.60068">
        <ele>1296.371192</ele>
        <time>2019-10-08T02:41:04.554Z</time>
      </trkpt>
      <trkpt lat="44.72545" lon="3.6014">
        <ele>1297.272537</ele>
        <time>2019-10-08T02:41:41.355Z</time>
      </trkpt>
      <trkpt lat="44.72489" lon="3.60201">
        <ele>1297.445022</ele>
        <time>2019-10-08T02:42:07.739Z</time>
      </trkpt>
      <trkpt lat="44.72425" lon="3.60244">
        <ele>1297.618625</ele>
        <time>2019-10-08T02:42:34.938Z</time>
      </trkpt>
      <trkpt lat="44.72403" lon="3.60255">
        <ele>1297.730161</ele>
        <time>2019-10-08T02:42:43.498Z</time>
      </trkpt>
      <trkpt lat="44.72393" lon="3.60261">
        <ele>1297.852642</ele>
        <time>2019-10-08T02:42:48.556Z</time>
      </trkpt>
      <trkpt lat="44.72307" lon="3.60276">
        <ele>1298.756325</ele>
        <time>2019-10-08T02:43:24.450Z</time>
      </trkpt>
      <trkpt lat="44.7227" lon="3.60309">
        <ele>1299.206578</ele>
        <time>2019-10-08T02:43:43.235Z</time>
      </trkpt>
      <trkpt lat="44.7226" lon="3.6033">
        <ele>1299.39915</ele>
        <time>2019-10-08T02:43:51.846Z</time>
      </trkpt>
      <trkpt lat="44.72233" lon="3.60422">
        <ele>1299.902793</ele>
        <time>2019-10-08T02:44:23.520Z</time>
      </trkpt>
      <trkpt lat="44.72215" lon="3.60455">
        <ele>1300.085624</ele>
        <time>2019-10-08T02:44:35.966Z</time>
      </trkpt>
      <trkpt lat="44.72163" lon="3.60521">
        <ele>1300.530371</ele>
        <time>2019-10-08T02:45:03.661Z</time>
      </trkpt>
      <trkpt lat="44.72115" lon="3.60569">
        <ele>1299.532886</ele>
        <time>2019-10-08T02:45:24.318Z</time>
      </trkpt>
      <trkpt lat="44.72088" lon="3.6059">
        <ele>1298.557718</ele>
        <time>2019-10-08T02:45:34.580Z</time>
      </trkpt>
      <trkpt lat="44.72035" lon="3.60618">
        <ele>1296.775854</ele>
        <time>2019-10-08T02:45:51.577Z</time>
      </trkpt>
      <trkpt lat="44.7191" lon="3.60648">
        <ele>1290.584196</ele>
        <time>2019-10-08T02:46:27.807Z</time>
      </trkpt>
      <trkpt lat="44.719" lon="3.60653">
        <ele>1289.930759</ele>
        <time>2019-10-08T02:46:30.606Z</time>
      </trkpt>
      <trkpt lat="44.71897" lon="3.60654">
        <ele>1289.73838</ele>
        <time>2019-10-08T02:46:31.357Z</time>
      </trkpt>
      <trkpt lat="44.71794" lon="3.60755">
        <ele>1282.25592</ele>
        <time>2019-10-08T02:47:06.166Z</time>
      </trkpt>
      <trkpt lat="44.71787" lon="3.60759">
        <ele>1281.890029</ele>
        <time>2019-10-08T02:47:08.024Z</time>
      </trkpt>
      <trkpt lat="44.71777" lon="3.60766">
        <ele>1281.293837</ele>
        <time>2019-10-08T02:47:11.098Z</time>
      </trkpt>
      <trkpt lat="44.71748" lon="3.60781">
        <ele>1279.709478</ele>
        <time>2019-10-08T02:47:20.153Z</time>
      </trkpt>
      <trkpt lat="44.71741" lon="3.60786">
        <ele>1279.316294</ele>
        <time>2019-10-08T02:47:22.553Z</time>
      </trkpt>
      <trkpt lat="44.71736" lon="3.6079">
        <ele>1279.017614</ele>
        <time>2019-10-08T02:47:23.501Z</time>
      </trkpt>
      <trkpt lat="44.71715" lon="3.60867">
        <ele>1276.018882</ele>
        <time>2019-10-08T02:47:33.620Z</time>
      </trkpt>
      <trkpt lat="44.71658" lon="3.60989">
        <ele>1271.853609</ele>
        <time>2019-10-08T02:47:51.120Z</time>
      </trkpt>
      <trkpt lat="44.71655" lon="3.61002">
        <ele>1271.497411</ele>
        <time>2019-10-08T02:47:52.938Z</time>
      </trkpt>
      <trkpt lat="44.71657" lon="3.61049">
        <ele>1270.270467</ele>
        <time>2019-10-08T02:47:58.797Z</time>
      </trkpt>
      <trkpt lat="44.71655" lon="3.61056">
        <ele>1270.08775</ele>
        <time>2019-10-08T02:47:59.656Z</time>
      </trkpt>
      <trkpt lat="44.71645" lon="3.61075">
        <ele>1269.462775</ele>
        <time>2019-10-08T02:48:02.506Z</time>
      </trkpt>
      <trkpt lat="44.71603" lon="3.61122">
        <ele>1268.153863</ele>
        <time>2019-10-08T02:48:13.022Z</time>
      </trkpt>
      <trkpt lat="44.71599" lon="3.61129">
        <ele>1268.196183</ele>
        <time>2019-10-08T02:48:14.035Z</time>
      </trkpt>
      <trkpt lat="44.71599" lon="3.61137">
        <ele>1268.23481</ele>
        <time>2019-10-08T02:48:15.007Z</time>
      </trkpt>
      <trkpt lat="44.71603" lon="3.61165">
        <ele>1268.375506</ele>
        <time>2019-10-08T02:48:20.143Z</time>
      </trkpt>
      <trkpt lat="44.71635" lon="3.6124">
        <ele>1268.798076</ele>
        <time>2019-10-08T02:48:33.804Z</time>
      </trkpt>
      <trkpt lat="44.71637" lon="3.61244">
        <ele>1268.823391</ele>
        <time>2019-10-08T02:48:34.543Z</time>
      </trkpt>
      <trkpt lat="44.71633" lon="3.61244">
        <ele>1268.852069</ele>
        <time>2019-10-08T02:48:38.058Z</time>
      </trkpt>
      <trkpt lat="44.71606" lon="3.61212">
        <ele>1269.093305</ele>
        <time>2019-10-08T02:48:55.905Z</time>
      </trkpt>
      <trkpt lat="44.71591" lon="3.61209">
        <ele>1269.196614</ele>
        <time>2019-10-08T02:49:02.792Z</time>
      </trkpt>
      <trkpt lat="44.71566" lon="3.61236">
        <ele>1270.213668</ele>
        <time>2019-10-08T02:49:21.125Z</time>
      </trkpt>
      <trkpt lat="44.71566" lon="3.61281">
        <ele>1271.795533</ele>
        <time>2019-10-08T02:49:41.029Z</time>
      </trkpt>
      <trkpt lat="44.71569" lon="3.61302">
        <ele>1272.553944</ele>
        <time>2019-10-08T02:49:50.843Z</time>
      </trkpt>
      <trkpt lat="44.71571" lon="3.61311">
        <ele>1272.872898</ele>
        <time>2019-10-08T02:49:55.479Z</time>
      </trkpt>
      <trkpt lat="44.71594" lon="3.61356">
        <ele>1274.83738</ele>
        <time>2019-10-08T02:50:21.234Z</time>
      </trkpt>
      <trkpt lat="44.71598" lon="3.6144">
        <ele>1277.804571</ele>
        <time>2019-10-08T02:50:59.401Z</time>
      </trkpt>
      <trkpt lat="44.7161" lon="3.61544">
        <ele>1280.904964</ele>
        <time>2019-10-08T02:51:45.795Z</time>
      </trkpt>
      <trkpt lat="44.71601" lon="3.61557">
        <ele>1281.439254</ele>
        <time>2019-10-08T02:51:52.758Z</time>
      </trkpt>
      <trkpt lat="44.71556" lon="3.6156">
        <ele>1283.256927</ele>
        <time>2019-10-08T02:52:16.974Z</time>
      </trkpt>
      <trkpt lat="44.71549" lon="3.61558">
        <ele>1283.539063</ele>
        <time>2019-10-08T02:52:21.538Z</time>
      </trkpt>
      <trkpt lat="44.7155" lon="3.61538">
        <ele>1284.1313</ele>
        <time>2019-10-08T02:52:27.157Z</time>
      </trkpt>
      <trkpt lat="44.71545" lon="3.61494">
        <ele>1285.412299</ele>
        <time>2019-10-08T02:52:39.621Z</time>
      </trkpt>
      <trkpt lat="44.71524" lon="3.61457">
        <ele>1286.521601</ele>
        <time>2019-10-08T02:52:53.024Z</time>
      </trkpt>
      <trkpt lat="44.71504" lon="3.61442">
        <ele>1287.222404</ele>
        <time>2019-10-08T02:53:01.140Z</time>
      </trkpt>
      <trkpt lat="44.71444" lon="3.6142">
        <ele>1289.193476</ele>
        <time>2019-10-08T02:53:25.590Z</time>
      </trkpt>
      <trkpt lat="44.71414" lon="3.61392">
        <ele>1290.336469</ele>
        <time>2019-10-08T02:53:38.547Z</time>
      </trkpt>
      <trkpt lat="44.71408" lon="3.61375">
        <ele>1290.774503</ele>
        <time>2019-10-08T02:53:43.571Z</time>
      </trkpt>
      <trkpt lat="44.71408" lon="3.61358">
        <ele>1291.16301</ele>
        <time>2019-10-08T02:53:48.050Z</time>
      </trkpt>
      <trkpt lat="44.71429" lon="3.61223">
        <ele>1293.95636</ele>
        <time>2019-10-08T02:54:24.338Z</time>
      </trkpt>
      <trkpt lat="44.71427" lon="3.61188">
        <ele>1294.649472</ele>
        <time>2019-10-08T02:54:33.351Z</time>
      </trkpt>
      <trkpt lat="44.71418" lon="3.61161">
        <ele>1295.261525</ele>
        <time>2019-10-08T02:54:41.284Z</time>
      </trkpt>
      <trkpt lat="44.71356" lon="3.61043">
        <ele>1297.921077</ele>
        <time>2019-10-08T02:55:18.272Z</time>
      </trkpt>
      <trkpt lat="44.71268" lon="3.60916">
        <ele>1301.070683</ele>
        <time>2019-10-08T02:55:59.438Z</time>
      </trkpt>
      <trkpt lat="44.71234" lon="3.60813">
        <ele>1303.845226</ele>
        <time>2019-10-08T02:56:30.197Z</time>
      </trkpt>
      <trkpt lat="44.71199" lon="3.60762">
        <ele>1305.570829</ele>
        <time>2019-10-08T02:56:50.158Z</time>
      </trkpt>
      <trkpt lat="44.71197" lon="3.6075">
        <ele>1305.864358</ele>
        <time>2019-10-08T02:56:53.756Z</time>
      </trkpt>
      <trkpt lat="44.71187" lon="3.60742">
        <ele>1306.268571</ele>
        <time>2019-10-08T02:57:01.326Z</time>
      </trkpt>
      <trkpt lat="44.71173" lon="3.60732">
        <ele>1306.797617</ele>
        <time>2019-10-08T02:57:09.727Z</time>
      </trkpt>
      <trkpt lat="44.71161" lon="3.60707">
        <ele>1307.754374</ele>
        <time>2019-10-08T02:57:23.414Z</time>
      </trkpt>
      <trkpt lat="44.71123" lon="3.60742">
        <ele>1309.741878</ele>
        <time>2019-10-08T02:57:51.208Z</time>
      </trkpt>
      <trkpt lat="44.71116" lon="3.60741">
        <ele>1310.077151</ele>
        <time>2019-10-08T02:57:55.840Z</time>
      </trkpt>
      <trkpt lat="44.71099" lon="3.60706">
        <ele>1311.397883</ele>
        <time>2019-10-08T02:58:15.375Z</time>
      </trkpt>
      <trkpt lat="44.71061" lon="3.60692">
        <ele>1313.105237</ele>
        <time>2019-10-08T02:58:39.894Z</time>
      </trkpt>
      <trkpt lat="44.71038" lon="3.60668">
        <ele>1314.346609</ele>
        <time>2019-10-08T02:58:55.340Z</time>
      </trkpt>
      <trkpt lat="44.71004" lon="3.60607">
        <ele>1314.661635</ele>
        <time>2019-10-08T02:59:22.704Z</time>
      </trkpt>
      <trkpt lat="44.70995" lon="3.60581">
        <ele>1314.654843</ele>
        <time>2019-10-08T02:59:31.052Z</time>
      </trkpt>
      <trkpt lat="44.70984" lon="3.60576">
        <ele>1314.650928</ele>
        <time>2019-10-08T02:59:35.922Z</time>
      </trkpt>
      <trkpt lat="44.70974" lon="3.6058">
        <ele>1314.647713</ele>
        <time>2019-10-08T02:59:41.112Z</time>
      </trkpt>
      <trkpt lat="44.70968" lon="3.60588">
        <ele>1314.644911</ele>
        <time>2019-10-08T02:59:43.694Z</time>
      </trkpt>
      <trkpt lat="44.70854" lon="3.60641">
        <ele>1313.453869</ele>
        <time>2019-10-08T03:00:22.421Z</time>
      </trkpt>
      <trkpt lat="44.70819" lon="3.60652">
        <ele>1312.365268</ele>
        <time>2019-10-08T03:00:33.184Z</time>
      </trkpt>
      <trkpt lat="44.70756" lon="3.60609">
        <ele>1310.277307</ele>
        <time>2019-10-08T03:00:54.120Z</time>
      </trkpt>
      <trkpt lat="44.70717" lon="3.60562">
        <ele>1308.839003</ele>
        <time>2019-10-08T03:01:10.571Z</time>
      </trkpt>
      <trkpt lat="44.70702" lon="3.60538">
        <ele>1308.329324</ele>
        <time>2019-10-08T03:01:17.914Z</time>
      </trkpt>
      <trkpt lat="44.70689" lon="3.60506">
        <ele>1307.740089</ele>
        <time>2019-10-08T03:01:26.618Z</time>
      </trkpt>
      <trkpt lat="44.70663" lon="3.60448">
        <ele>1306.63497</ele>
        <time>2019-10-08T03:01:43.091Z</time>
      </trkpt>
      <trkpt lat="44.70652" lon="3.60431">
        <ele>1306.266701</ele>
        <time>2019-10-08T03:01:46.054Z</time>
      </trkpt>
      <trkpt lat="44.70624" lon="3.60425">
        <ele>1305.626142</ele>
        <time>2019-10-08T03:01:51.486Z</time>
      </trkpt>
      <trkpt lat="44.70616" lon="3.60429">
        <ele>1305.421545</ele>
        <time>2019-10-08T03:01:52.991Z</time>
      </trkpt>
      <trkpt lat="44.70599" lon="3.60452">
        <ele>1304.540572</ele>
        <time>2019-10-08T03:01:57.620Z</time>
      </trkpt>
      <trkpt lat="44.70569" lon="3.60504">
        <ele>1302.075414</ele>
        <time>2019-10-08T03:02:05.968Z</time>
      </trkpt>
      <trkpt lat="44.70547" lon="3.6053">
        <ele>1300.603506</ele>
        <time>2019-10-08T03:02:10.711Z</time>
      </trkpt>
      <trkpt lat="44.70545" lon="3.60545">
        <ele>1300.036486</ele>
        <time>2019-10-08T03:02:12.314Z</time>
      </trkpt>
      <trkpt lat="44.70545" lon="3.60631">
        <ele>1296.860056</ele>
        <time>2019-10-08T03:02:22.273Z</time>
      </trkpt>
      <trkpt lat="44.7053" lon="3.60669">
        <ele>1295.40384</ele>
        <time>2019-10-08T03:02:27.202Z</time>
      </trkpt>
      <trkpt lat="44.70521" lon="3.60678">
        <ele>1295.031027</ele>
        <time>2019-10-08T03:02:28.815Z</time>
      </trkpt>
      <trkpt lat="44.7051" lon="3.60686">
        <ele>1294.589979</ele>
        <time>2019-10-08T03:02:30.725Z</time>
      </trkpt>
      <trkpt lat="44.70509" lon="3.60691">
        <ele>1294.447891</ele>
        <time>2019-10-08T03:02:31.406Z</time>
      </trkpt>
      <trkpt lat="44.7051" lon="3.60697">
        <ele>1294.301547</ele>
        <time>2019-10-08T03:02:32.108Z</time>
      </trkpt>
      <trkpt lat="44.70511" lon="3.60709">
        <ele>1294.001104</ele>
        <time>2019-10-08T03:02:33.585Z</time>
      </trkpt>
      <trkpt lat="44.70507" lon="3.60713">
        <ele>1293.84208</ele>
        <time>2019-10-08T03:02:34.678Z</time>
      </trkpt>
      <trkpt lat="44.70501" lon="3.60754">
        <ele>1292.785895</ele>
        <time>2019-10-08T03:02:43.244Z</time>
      </trkpt>
      <trkpt lat="44.70459" lon="3.60884">
        <ele>1289.680437</ele>
        <time>2019-10-08T03:03:15.884Z</time>
      </trkpt>
      <trkpt lat="44.70454" lon="3.60922">
        <ele>1290.787792</ele>
        <time>2019-10-08T03:03:29.566Z</time>
      </trkpt>
      <trkpt lat="44.70442" lon="3.60946">
        <ele>1291.635768</ele>
        <time>2019-10-08T03:03:42.444Z</time>
      </trkpt>
      <trkpt lat="44.70414" lon="3.60978">
        <ele>1293.102009</ele>
        <time>2019-10-08T03:04:04.432Z</time>
      </trkpt>
      <trkpt lat="44.70396" lon="3.61008">
        <ele>1294.258401</ele>
        <time>2019-10-08T03:04:20.932Z</time>
      </trkpt>
      <trkpt lat="44.70392" lon="3.61007">
        <ele>1294.422049</ele>
        <time>2019-10-08T03:04:25.810Z</time>
      </trkpt>
      <trkpt lat="44.70362" lon="3.61015">
        <ele>1295.670387</ele>
        <time>2019-10-08T03:04:44.065Z</time>
      </trkpt>
      <trkpt lat="44.70327" lon="3.61014">
        <ele>1297.205765</ele>
        <time>2019-10-08T03:05:08.352Z</time>
      </trkpt>
      <trkpt lat="44.70254" lon="3.61035">
        <ele>1301.195566</ele>
        <time>2019-10-08T03:06:01.796Z</time>
      </trkpt>
      <trkpt lat="44.70158" lon="3.61104">
        <ele>1306.833813</ele>
        <time>2019-10-08T03:07:05.602Z</time>
      </trkpt>
      <trkpt lat="44.70119" lon="3.61137">
        <ele>1308.70654</ele>
        <time>2019-10-08T03:07:31.227Z</time>
      </trkpt>
      <trkpt lat="44.70042" lon="3.61188">
        <ele>1312.175146</ele>
        <time>2019-10-08T03:08:18.965Z</time>
      </trkpt>
      <trkpt lat="44.69987" lon="3.61224">
        <ele>1314.809945</ele>
        <time>2019-10-08T03:08:54.128Z</time>
      </trkpt>
      <trkpt lat="44.699" lon="3.6134">
        <ele>1320.604114</ele>
        <time>2019-10-08T03:10:09.383Z</time>
      </trkpt>
      <trkpt lat="44.69815" lon="3.61429">
        <ele>1324.584238</ele>
        <time>2019-10-08T03:11:13.939Z</time>
      </trkpt>
      <trkpt lat="44.69802" lon="3.61448">
        <ele>1325.170251</ele>
        <time>2019-10-08T03:11:24.389Z</time>
      </trkpt>
      <trkpt lat="44.69787" lon="3.61496">
        <ele>1326.346412</ele>
        <time>2019-10-08T03:11:44.018Z</time>
      </trkpt>
      <trkpt lat="44.69777" lon="3.61599">
        <ele>1327.902452</ele>
        <time>2019-10-08T03:12:18.306Z</time>
      </trkpt>
      <trkpt lat="44.69712" lon="3.61798">
        <ele>1326.133294</ele>
        <time>2019-10-08T03:13:11.246Z</time>
      </trkpt>
      <trkpt lat="44.69657" lon="3.61921">
        <ele>1321.728873</ele>
        <time>2019-10-08T03:13:41.355Z</time>
      </trkpt>
      <trkpt lat="44.69638" lon="3.61957">
        <ele>1320.273524</ele>
        <time>2019-10-08T03:13:50.786Z</time>
      </trkpt>
      <trkpt lat="44.69632" lon="3.61967">
        <ele>1319.872449</ele>
        <time>2019-10-08T03:13:53.279Z</time>
      </trkpt>
      <trkpt lat="44.69614" lon="3.61985">
        <ele>1318.863664</ele>
        <time>2019-10-08T03:13:59.864Z</time>
      </trkpt>
      <trkpt lat="44.69608" lon="3.61989">
        <ele>1318.569939</ele>
        <time>2019-10-08T03:14:01.653Z</time>
      </trkpt>
      <trkpt lat="44.69506" lon="3.62012">
        <ele>1313.596179</ele>
        <time>2019-10-08T03:14:30.919Z</time>
      </trkpt>
      <trkpt lat="44.69357" lon="3.62073">
        <ele>1305.81888</ele>
        <time>2019-10-08T03:15:16.506Z</time>
      </trkpt>
      <trkpt lat="44.69295" lon="3.62072">
        <ele>1302.636279</ele>
        <time>2019-10-08T03:15:34.213Z</time>
      </trkpt>
      <trkpt lat="44.69218" lon="3.62163">
        <ele>1296.649529</ele>
        <time>2019-10-08T03:16:02.538Z</time>
      </trkpt>
      <trkpt lat="44.69194" lon="3.62184">
        <ele>1294.748022</ele>
        <time>2019-10-08T03:16:10.355Z</time>
      </trkpt>
      <trkpt lat="44.69185" lon="3.62193">
        <ele>1294.009644</ele>
        <time>2019-10-08T03:16:13.255Z</time>
      </trkpt>
      <trkpt lat="44.69141" lon="3.62239">
        <ele>1290.2915</ele>
        <time>2019-10-08T03:16:28.347Z</time>
      </trkpt>
      <trkpt lat="44.69006" lon="3.62345">
        <ele>1278.67072</ele>
        <time>2019-10-08T03:17:09.632Z</time>
      </trkpt>
      <trkpt lat="44.68937" lon="3.62377">
        <ele>1273.58511</ele>
        <time>2019-10-08T03:17:28.922Z</time>
      </trkpt>
      <trkpt lat="44.68933" lon="3.62381">
        <ele>1273.492408</ele>
        <time>2019-10-08T03:17:30.031Z</time>
      </trkpt>
      <trkpt lat="44.68929" lon="3.62386">
        <ele>1273.370686</ele>
        <time>2019-10-08T03:17:31.587Z</time>
      </trkpt>
      <trkpt lat="44.68926" lon="3.62391">
        <ele>1273.275103</ele>
        <time>2019-10-08T03:17:32.896Z</time>
      </trkpt>
      <trkpt lat="44.68921" lon="3.6238">
        <ele>1273.092534</ele>
        <time>2019-10-08T03:17:35.090Z</time>
      </trkpt>
      <trkpt lat="44.68915" lon="3.62371">
        <ele>1272.920848</ele>
        <time>2019-10-08T03:17:37.191Z</time>
      </trkpt>
      <trkpt lat="44.6891" lon="3.62366">
        <ele>1272.786036</ele>
        <time>2019-10-08T03:17:38.636Z</time>
      </trkpt>
      <trkpt lat="44.68908" lon="3.62372">
        <ele>1272.695322</ele>
        <time>2019-10-08T03:17:39.279Z</time>
      </trkpt>
      <trkpt lat="44.68907" lon="3.62394">
        <ele>1272.36573</ele>
        <time>2019-10-08T03:17:42.287Z</time>
      </trkpt>
      <trkpt lat="44.68903" lon="3.62446">
        <ele>1271.625333</ele>
        <time>2019-10-08T03:17:49.618Z</time>
      </trkpt>
      <trkpt lat="44.68902" lon="3.62459">
        <ele>1271.437262</ele>
        <time>2019-10-08T03:17:53.196Z</time>
      </trkpt>
      <trkpt lat="44.68897" lon="3.62454">
        <ele>1271.321314</ele>
        <time>2019-10-08T03:17:54.167Z</time>
      </trkpt>
      <trkpt lat="44.68854" lon="3.62412">
        <ele>1270.257706</ele>
        <time>2019-10-08T03:18:06.449Z</time>
      </trkpt>
      <trkpt lat="44.68846" lon="3.62407">
        <ele>1270.358983</ele>
        <time>2019-10-08T03:18:11.029Z</time>
      </trkpt>
      <trkpt lat="44.68839" lon="3.62406">
        <ele>1270.742845</ele>
        <time>2019-10-08T03:18:15.257Z</time>
      </trkpt>
      <trkpt lat="44.68829" lon="3.62381">
        <ele>1271.938407</ele>
        <time>2019-10-08T03:18:22.311Z</time>
      </trkpt>
      <trkpt lat="44.68829" lon="3.62367">
        <ele>1272.53159</ele>
        <time>2019-10-08T03:18:27.730Z</time>
      </trkpt>
      <trkpt lat="44.68813" lon="3.62377">
        <ele>1273.566163</ele>
        <time>2019-10-08T03:18:40.447Z</time>
      </trkpt>
      <trkpt lat="44.68782" lon="3.62385">
        <ele>1275.442986</ele>
        <time>2019-10-08T03:19:03.402Z</time>
      </trkpt>
      <trkpt lat="44.68727" lon="3.62415">
        <ele>1278.904416</ele>
        <time>2019-10-08T03:19:46.885Z</time>
      </trkpt>
      <trkpt lat="44.68714" lon="3.62411">
        <ele>1279.681685</ele>
        <time>2019-10-08T03:19:57.728Z</time>
      </trkpt>
      <trkpt lat="44.68681" lon="3.62382">
        <ele>1281.64396</ele>
        <time>2019-10-08T03:20:25.587Z</time>
      </trkpt>
      <trkpt lat="44.68663" lon="3.62385">
        <ele>1282.394307</ele>
        <time>2019-10-08T03:20:36.755Z</time>
      </trkpt>
      <trkpt lat="44.68643" lon="3.62396">
        <ele>1283.303262</ele>
        <time>2019-10-08T03:20:50.012Z</time>
      </trkpt>
      <trkpt lat="44.68586" lon="3.62451">
        <ele>1286.163792</ele>
        <time>2019-10-08T03:21:28.369Z</time>
      </trkpt>
      <trkpt lat="44.68542" lon="3.62522">
        <ele>1288.574389</ele>
        <time>2019-10-08T03:22:02.169Z</time>
      </trkpt>
      <trkpt lat="44.68465" lon="3.62547">
        <ele>1289.955482</ele>
        <time>2019-10-08T03:22:38.233Z</time>
      </trkpt>
      <trkpt lat="44.68422" lon="3.6258">
        <ele>1290.821939</ele>
        <time>2019-10-08T03:22:59.590Z</time>
      </trkpt>
      <trkpt lat="44.68279" lon="3.62669">
        <ele>1293.694657</ele>
        <time>2019-10-08T03:24:08.850Z</time>
      </trkpt>
      <trkpt lat="44.68225" lon="3.62721">
        <ele>1295.114476</ele>
        <time>2019-10-08T03:24:41.277Z</time>
      </trkpt>
      <trkpt lat="44.68206" lon="3.62755">
        <ele>1296.660309</ele>
        <time>2019-10-08T03:24:57.191Z</time>
      </trkpt>
      <trkpt lat="44.68181" lon="3.62773">
        <ele>1298.069425</ele>
        <time>2019-10-08T03:25:12.061Z</time>
      </trkpt>
      <trkpt lat="44.68164" lon="3.62774">
        <ele>1298.894715</ele>
        <time>2019-10-08T03:25:20.880Z</time>
      </trkpt>
      <trkpt lat="44.68143" lon="3.62767">
        <ele>1299.968996</ele>
        <time>2019-10-08T03:25:36.232Z</time>
      </trkpt>
      <trkpt lat="44.68026" lon="3.62714">
        <ele>1306.489307</ele>
        <time>2019-10-08T03:27:02.718Z</time>
      </trkpt>
      <trkpt lat="44.68026" lon="3.62714">
        <ele>1306.489307</ele>
        <time>2019-10-08T03:27:03.515Z</time>
      </trkpt>
      <trkpt lat="44.68004" lon="3.62698">
        <ele>1307.883846</ele>
        <time>2019-10-08T03:27:19.185Z</time>
      </trkpt>
      <trkpt lat="44.67984" lon="3.62666">
        <ele>1309.601173</ele>
        <time>2019-10-08T03:27:40.897Z</time>
      </trkpt>
      <trkpt lat="44.67965" lon="3.62658">
        <ele>1310.710447</ele>
        <time>2019-10-08T03:27:55.281Z</time>
      </trkpt>
      <trkpt lat="44.67943" lon="3.62679">
        <ele>1312.225555</ele>
        <time>2019-10-08T03:28:10.530Z</time>
      </trkpt>
      <trkpt lat="44.67886" lon="3.62804">
        <ele>1313.986728</ele>
        <time>2019-10-08T03:29:05.862Z</time>
      </trkpt>
      <trkpt lat="44.67827" lon="3.6288">
        <ele>1313.907125</ele>
        <time>2019-10-08T03:29:32.348Z</time>
      </trkpt>
      <trkpt lat="44.67736" lon="3.62975">
        <ele>1310.513676</ele>
        <time>2019-10-08T03:30:06.215Z</time>
      </trkpt>
      <trkpt lat="44.67694" lon="3.63002">
        <ele>1308.748693</ele>
        <time>2019-10-08T03:30:19.620Z</time>
      </trkpt>
      <trkpt lat="44.67669" lon="3.63024">
        <ele>1307.568815</ele>
        <time>2019-10-08T03:30:28.683Z</time>
      </trkpt>
      <trkpt lat="44.67639" lon="3.63076">
        <ele>1305.935188</ele>
        <time>2019-10-08T03:30:42.714Z</time>
      </trkpt>
      <trkpt lat="44.67617" lon="3.63134">
        <ele>1304.407137</ele>
        <time>2019-10-08T03:30:56.894Z</time>
      </trkpt>
      <trkpt lat="44.67458" lon="3.63508">
        <ele>1294.730828</ele>
        <time>2019-10-08T03:32:33.865Z</time>
      </trkpt>
      <trkpt lat="44.67373" lon="3.63659">
        <ele>1289.561578</ele>
        <time>2019-10-08T03:33:14.786Z</time>
      </trkpt>
      <trkpt lat="44.67274" lon="3.63777">
        <ele>1284.704465</ele>
        <time>2019-10-08T03:33:53.379Z</time>
      </trkpt>
      <trkpt lat="44.67245" lon="3.63759">
        <ele>1283.51366</ele>
        <time>2019-10-08T03:34:03.034Z</time>
      </trkpt>
      <trkpt lat="44.67178" lon="3.63712">
        <ele>1280.9345</ele>
        <time>2019-10-08T03:34:26.313Z</time>
      </trkpt>
      <trkpt lat="44.67122" lon="3.63687">
        <ele>1279.105656</ele>
        <time>2019-10-08T03:34:44.680Z</time>
      </trkpt>
      <trkpt lat="44.67075" lon="3.63739">
        <ele>1277.24401</ele>
        <time>2019-10-08T03:35:03.345Z</time>
      </trkpt>
      <trkpt lat="44.66933" lon="3.63821">
        <ele>1271.041249</ele>
        <time>2019-10-08T03:35:49.587Z</time>
      </trkpt>
      <trkpt lat="44.66812" lon="3.63912">
        <ele>1264.151179</ele>
        <time>2019-10-08T03:36:28.560Z</time>
      </trkpt>
      <trkpt lat="44.66812" lon="3.63912">
        <ele>1264.151179</ele>
        <time>2019-10-08T03:36:28.663Z</time>
      </trkpt>
      <trkpt lat="44.66708" lon="3.63939">
        <ele>1258.589423</ele>
        <time>2019-10-08T03:36:59.131Z</time>
      </trkpt>
      <trkpt lat="44.66685" lon="3.63942">
        <ele>1257.645431</ele>
        <time>2019-10-08T03:37:05.501Z</time>
      </trkpt>
      <trkpt lat="44.66672" lon="3.63944">
        <ele>1257.116265</ele>
        <time>2019-10-08T03:37:09.576Z</time>
      </trkpt>
      <trkpt lat="44.66646" lon="3.63953">
        <ele>1256.008984</ele>
        <time>2019-10-08T03:37:17.169Z</time>
      </trkpt>
      <trkpt lat="44.66626" lon="3.63962">
        <ele>1255.153033</ele>
        <time>2019-10-08T03:37:23.544Z</time>
      </trkpt>
      <trkpt lat="44.66602" lon="3.63986">
        <ele>1253.928505</ele>
        <time>2019-10-08T03:37:32.701Z</time>
      </trkpt>
      <trkpt lat="44.66547" lon="3.64034">
        <ele>1251.412469</ele>
        <time>2019-10-08T03:37:52.335Z</time>
      </trkpt>
      <trkpt lat="44.66479" lon="3.64068">
        <ele>1248.958231</ele>
        <time>2019-10-08T03:38:14.989Z</time>
      </trkpt>
      <trkpt lat="44.66448" lon="3.64101">
        <ele>1247.644689</ele>
        <time>2019-10-08T03:38:26.767Z</time>
      </trkpt>
      <trkpt lat="44.6642" lon="3.64117">
        <ele>1246.63478</ele>
        <time>2019-10-08T03:38:35.755Z</time>
      </trkpt>
      <trkpt lat="44.66365" lon="3.64125">
        <ele>1243.862859</ele>
        <time>2019-10-08T03:38:52.433Z</time>
      </trkpt>
      <trkpt lat="44.66343" lon="3.64123">
        <ele>1242.434012</ele>
        <time>2019-10-08T03:38:59.220Z</time>
      </trkpt>
      <trkpt lat="44.66284" lon="3.64102">
        <ele>1238.626127</ele>
        <time>2019-10-08T03:39:15.830Z</time>
      </trkpt>
      <trkpt lat="44.66237" lon="3.64108">
        <ele>1235.625471</ele>
        <time>2019-10-08T03:39:28.691Z</time>
      </trkpt>
      <trkpt lat="44.66209" lon="3.64102">
        <ele>1233.417913</ele>
        <time>2019-10-08T03:39:36.070Z</time>
      </trkpt>
      <trkpt lat="44.66202" lon="3.64102">
        <ele>1232.674905</ele>
        <time>2019-10-08T03:39:37.896Z</time>
      </trkpt>
      <trkpt lat="44.66205" lon="3.64147">
        <ele>1229.176332</ele>
        <time>2019-10-08T03:39:46.216Z</time>
      </trkpt>
      <trkpt lat="44.66205" lon="3.64186">
        <ele>1226.161074</ele>
        <time>2019-10-08T03:39:53.320Z</time>
      </trkpt>
      <trkpt lat="44.66198" lon="3.6421">
        <ele>1224.139315</ele>
        <time>2019-10-08T03:39:58.018Z</time>
      </trkpt>
      <trkpt lat="44.66184" lon="3.64242">
        <ele>1221.21927</ele>
        <time>2019-10-08T03:40:04.726Z</time>
      </trkpt>
      <trkpt lat="44.66148" lon="3.64298">
        <ele>1215.310013</ele>
        <time>2019-10-08T03:40:18.109Z</time>
      </trkpt>
      <trkpt lat="44.66104" lon="3.64347">
        <ele>1208.521809</ele>
        <time>2019-10-08T03:40:31.942Z</time>
      </trkpt>
      <trkpt lat="44.66071" lon="3.64359">
        <ele>1204.353251</ele>
        <time>2019-10-08T03:40:40.423Z</time>
      </trkpt>
      <trkpt lat="44.66054" lon="3.64374">
        <ele>1201.872348</ele>
        <time>2019-10-08T03:40:45.469Z</time>
      </trkpt>
      <trkpt lat="44.66044" lon="3.64392">
        <ele>1199.842764</ele>
        <time>2019-10-08T03:40:49.580Z</time>
      </trkpt>
      <trkpt lat="44.66029" lon="3.64489">
        <ele>1191.410441</ele>
        <time>2019-10-08T03:41:07.161Z</time>
      </trkpt>
      <trkpt lat="44.65999" lon="3.64607">
        <ele>1181.799131</ele>
        <time>2019-10-08T03:41:29.697Z</time>
      </trkpt>
      <trkpt lat="44.65965" lon="3.64798">
        <ele>1168.30915</ele>
        <time>2019-10-08T03:42:05.919Z</time>
      </trkpt>
      <trkpt lat="44.65907" lon="3.6498">
        <ele>1157.751552</ele>
        <time>2019-10-08T03:42:44.337Z</time>
      </trkpt>
      <trkpt lat="44.65864" lon="3.65072">
        <ele>1154.564862</ele>
        <time>2019-10-08T03:43:07.415Z</time>
      </trkpt>
      <trkpt lat="44.65853" lon="3.65086">
        <ele>1153.972416</ele>
        <time>2019-10-08T03:43:11.754Z</time>
      </trkpt>
      <trkpt lat="44.65843" lon="3.65166">
        <ele>1151.623124</ele>
        <time>2019-10-08T03:43:22.122Z</time>
      </trkpt>
      <trkpt lat="44.65842" lon="3.65173">
        <ele>1151.420602</ele>
        <time>2019-10-08T03:43:22.987Z</time>
      </trkpt>
      <trkpt lat="44.65772" lon="3.65508">
        <ele>1149.323204</ele>
        <time>2019-10-08T03:44:14.250Z</time>
      </trkpt>
      <trkpt lat="44.65767" lon="3.65575">
        <ele>1149.009636</ele>
        <time>2019-10-08T03:44:24.322Z</time>
      </trkpt>
      <trkpt lat="44.65764" lon="3.65755">
        <ele>1147.993757</ele>
        <time>2019-10-08T03:44:50.347Z</time>
      </trkpt>
      <trkpt lat="44.65763" lon="3.65785">
        <ele>1147.788953</ele>
        <time>2019-10-08T03:44:54.685Z</time>
      </trkpt>
      <trkpt lat="44.65758" lon="3.65887">
        <ele>1147.114863</ele>
        <time>2019-10-08T03:45:09.013Z</time>
      </trkpt>
      <trkpt lat="44.65735" lon="3.6603">
        <ele>1146.534264</ele>
        <time>2019-10-08T03:45:29.930Z</time>
      </trkpt>
      <trkpt lat="44.65735" lon="3.66081">
        <ele>1146.369592</ele>
        <time>2019-10-08T03:45:37.404Z</time>
      </trkpt>
      <trkpt lat="44.65752" lon="3.66202">
        <ele>1146.580568</ele>
        <time>2019-10-08T03:45:56.791Z</time>
      </trkpt>
      <trkpt lat="44.65771" lon="3.66376">
        <ele>1148.862495</ele>
        <time>2019-10-08T03:46:38.305Z</time>
      </trkpt>
      <trkpt lat="44.65745" lon="3.66375">
        <ele>1149.333971</ele>
        <time>2019-10-08T03:46:49.906Z</time>
      </trkpt>
      <trkpt lat="44.65711" lon="3.66375">
        <ele>1149.988619</ele>
        <time>2019-10-08T03:47:04.537Z</time>
      </trkpt>
      <trkpt lat="44.65688" lon="3.66375">
        <ele>1150.417679</ele>
        <time>2019-10-08T03:47:13.822Z</time>
      </trkpt>
      <trkpt lat="44.65678" lon="3.66375">
        <ele>1150.606539</ele>
        <time>2019-10-08T03:47:18.176Z</time>
      </trkpt>
      <trkpt lat="44.65672" lon="3.66377">
        <ele>1150.726742</ele>
        <time>2019-10-08T03:47:21.047Z</time>
      </trkpt>
      <trkpt lat="44.65663" lon="3.66388">
        <ele>1150.945737</ele>
        <time>2019-10-08T03:47:26.361Z</time>
      </trkpt>
      <trkpt lat="44.65657" lon="3.66407">
        <ele>1151.234578</ele>
        <time>2019-10-08T03:47:33.829Z</time>
      </trkpt>
      <trkpt lat="44.65655" lon="3.66482">
        <ele>1152.254125</ele>
        <time>2019-10-08T03:47:59.168Z</time>
      </trkpt>
      <trkpt lat="44.65646" lon="3.66555">
        <ele>1152.478625</ele>
        <time>2019-10-08T03:48:20.564Z</time>
      </trkpt>
      <trkpt lat="44.65618" lon="3.66628">
        <ele>1151.726804</ele>
        <time>2019-10-08T03:48:40.556Z</time>
      </trkpt>
      <trkpt lat="44.65606" lon="3.66679">
        <ele>1151.230928</ele>
        <time>2019-10-08T03:48:53.227Z</time>
      </trkpt>
      <trkpt lat="44.65562" lon="3.66758">
        <ele>1150.19632</ele>
        <time>2019-10-08T03:49:16.223Z</time>
      </trkpt>
      <trkpt lat="44.65533" lon="3.6682">
        <ele>1149.042926</ele>
        <time>2019-10-08T03:49:33.049Z</time>
      </trkpt>
      <trkpt lat="44.65425" lon="3.66958">
        <ele>1146.057195</ele>
        <time>2019-10-08T03:50:20.070Z</time>
      </trkpt>
      <trkpt lat="44.6538" lon="3.66995">
        <ele>1145.263602</ele>
        <time>2019-10-08T03:50:37.254Z</time>
      </trkpt>
      <trkpt lat="44.6538" lon="3.66995">
        <ele>1145.263602</ele>
        <time>2019-10-08T03:50:37.267Z</time>
      </trkpt>
      <trkpt lat="44.6532" lon="3.67029">
        <ele>1144.282766</ele>
        <time>2019-10-08T03:50:58.913Z</time>
      </trkpt>
      <trkpt lat="44.65252" lon="3.67038">
        <ele>1144.025404</ele>
        <time>2019-10-08T03:51:22.933Z</time>
      </trkpt>
      <trkpt lat="44.65224" lon="3.67058">
        <ele>1144.211013</ele>
        <time>2019-10-08T03:51:35.030Z</time>
      </trkpt>
      <trkpt lat="44.65221" lon="3.67063">
        <ele>1144.234196</ele>
        <time>2019-10-08T03:51:36.405Z</time>
      </trkpt>
      <trkpt lat="44.65218" lon="3.67069">
        <ele>1144.265785</ele>
        <time>2019-10-08T03:51:38.537Z</time>
      </trkpt>
      <trkpt lat="44.65217" lon="3.6708">
        <ele>1144.312245</ele>
        <time>2019-10-08T03:51:41.678Z</time>
      </trkpt>
      <trkpt lat="44.65216" lon="3.67092">
        <ele>1144.36097</ele>
        <time>2019-10-08T03:51:44.976Z</time>
      </trkpt>
      <trkpt lat="44.65216" lon="3.67105">
        <ele>1144.414635</ele>
        <time>2019-10-08T03:51:49.141Z</time>
      </trkpt>
      <trkpt lat="44.65208" lon="3.67166">
        <ele>1144.671634</ele>
        <time>2019-10-08T03:52:07.372Z</time>
      </trkpt>
      <trkpt lat="44.65181" lon="3.67201">
        <ele>1144.977378</ele>
        <time>2019-10-08T03:52:23.447Z</time>
      </trkpt>
      <trkpt lat="44.65118" lon="3.67258">
        <ele>1146.756354</ele>
        <time>2019-10-08T03:53:02.935Z</time>
      </trkpt>
      <trkpt lat="44.65116" lon="3.67283">
        <ele>1147.189736</ele>
        <time>2019-10-08T03:53:12.438Z</time>
      </trkpt>
      <trkpt lat="44.65086" lon="3.67347">
        <ele>1148.472607</ele>
        <time>2019-10-08T03:53:39.665Z</time>
      </trkpt>
      <trkpt lat="44.65067" lon="3.67363">
        <ele>1149.010637</ele>
        <time>2019-10-08T03:53:50.018Z</time>
      </trkpt>
      <trkpt lat="44.65057" lon="3.67386">
        <ele>1149.27909</ele>
        <time>2019-10-08T03:53:56.551Z</time>
      </trkpt>
      <trkpt lat="44.65053" lon="3.67388">
        <ele>1149.319923</ele>
        <time>2019-10-08T03:53:57.480Z</time>
      </trkpt>
      <trkpt lat="44.65027" lon="3.67369">
        <ele>1149.623103</ele>
        <time>2019-10-08T03:54:06.256Z</time>
      </trkpt>
      <trkpt lat="44.65003" lon="3.67452">
        <ele>1150.286666</ele>
        <time>2019-10-08T03:54:21.531Z</time>
      </trkpt>
      <trkpt lat="44.6493" lon="3.67695">
        <ele>1154.71273</ele>
        <time>2019-10-08T03:55:13.152Z</time>
      </trkpt>
      <trkpt lat="44.64929" lon="3.677">
        <ele>1154.836887</ele>
        <time>2019-10-08T03:55:14.475Z</time>
      </trkpt>
      <trkpt lat="44.64902" lon="3.67685">
        <ele>1155.741058</ele>
        <time>2019-10-08T03:55:32.917Z</time>
      </trkpt>
      <trkpt lat="44.64782" lon="3.67621">
        <ele>1165.914886</ele>
        <time>2019-10-08T03:57:14.322Z</time>
      </trkpt>
      <trkpt lat="44.64812" lon="3.67468">
        <ele>1176.825613</ele>
        <time>2019-10-08T03:58:58.166Z</time>
      </trkpt>
      <trkpt lat="44.64809" lon="3.67457">
        <ele>1177.743323</ele>
        <time>2019-10-08T03:59:06.287Z</time>
      </trkpt>
      <trkpt lat="44.64753" lon="3.67494">
        <ele>1184.268413</ele>
        <time>2019-10-08T04:00:02.772Z</time>
      </trkpt>
      <trkpt lat="44.64732" lon="3.675">
        <ele>1186.515049</ele>
        <time>2019-10-08T04:00:22.114Z</time>
      </trkpt>
      <trkpt lat="44.64619" lon="3.67557">
        <ele>1198.499146</ele>
        <time>2019-10-08T04:02:06.790Z</time>
      </trkpt>
      <trkpt lat="44.64543" lon="3.67589">
        <ele>1205.982966</ele>
        <time>2019-10-08T04:03:12.232Z</time>
      </trkpt>
      <trkpt lat="44.6448" lon="3.67598">
        <ele>1212.107611</ele>
        <time>2019-10-08T04:04:05.179Z</time>
      </trkpt>
      <trkpt lat="44.64428" lon="3.67614">
        <ele>1217.264072</ele>
        <time>2019-10-08T04:04:49.369Z</time>
      </trkpt>
      <trkpt lat="44.64171" lon="3.6773">
        <ele>1244.405578</ele>
        <time>2019-10-08T04:08:47.447Z</time>
      </trkpt>
      <trkpt lat="44.64168" lon="3.67723">
        <ele>1244.965123</ele>
        <time>2019-10-08T04:08:52.462Z</time>
      </trkpt>
      <trkpt lat="44.64205" lon="3.67672">
        <ele>1250.679536</ele>
        <time>2019-10-08T04:09:38.893Z</time>
      </trkpt>
      <trkpt lat="44.64281" lon="3.67532">
        <ele>1264.397766</ele>
        <time>2019-10-08T04:11:37.386Z</time>
      </trkpt>
      <trkpt lat="44.64281" lon="3.67526">
        <ele>1264.866166</ele>
        <time>2019-10-08T04:11:42.180Z</time>
      </trkpt>
      <trkpt lat="44.64275" lon="3.67522">
        <ele>1265.380317</ele>
        <time>2019-10-08T04:11:48.549Z</time>
      </trkpt>
      <trkpt lat="44.64258" lon="3.67528">
        <ele>1266.522394</ele>
        <time>2019-10-08T04:12:02.205Z</time>
      </trkpt>
      <trkpt lat="44.64243" lon="3.6753">
        <ele>1267.521845</ele>
        <time>2019-10-08T04:12:17.732Z</time>
      </trkpt>
      <trkpt lat="44.64218" lon="3.67538">
        <ele>1269.285115</ele>
        <time>2019-10-08T04:12:35.154Z</time>
      </trkpt>
      <trkpt lat="44.64149" lon="3.6755">
        <ele>1273.901112</ele>
        <time>2019-10-08T04:13:16.044Z</time>
      </trkpt>
      <trkpt lat="44.64139" lon="3.67551">
        <ele>1274.611164</ele>
        <time>2019-10-08T04:13:23.377Z</time>
      </trkpt>
      <trkpt lat="44.64117" lon="3.67552">
        <ele>1276.031117</ele>
        <time>2019-10-08T04:13:28.993Z</time>
      </trkpt>
      <trkpt lat="44.64086" lon="3.67554">
        <ele>1276.023626</ele>
        <time>2019-10-08T04:13:39.304Z</time>
      </trkpt>
      <trkpt lat="44.64055" lon="3.67558">
        <ele>1274.270361</ele>
        <time>2019-10-08T04:13:45.549Z</time>
      </trkpt>
      <trkpt lat="44.64055" lon="3.67543">
        <ele>1273.649947</ele>
        <time>2019-10-08T04:13:47.187Z</time>
      </trkpt>
      <trkpt lat="44.64059" lon="3.6753">
        <ele>1273.122884</ele>
        <time>2019-10-08T04:13:48.837Z</time>
      </trkpt>
      <trkpt lat="44.64024" lon="3.67521">
        <ele>1271.127439</ele>
        <time>2019-10-08T04:13:54.253Z</time>
      </trkpt>
      <trkpt lat="44.64007" lon="3.6752">
        <ele>1270.155001</ele>
        <time>2019-10-08T04:13:57.028Z</time>
      </trkpt>
      <trkpt lat="44.64004" lon="3.67521">
        <ele>1269.972486</ele>
        <time>2019-10-08T04:13:57.456Z</time>
      </trkpt>
      <trkpt lat="44.6399" lon="3.67523">
        <ele>1269.175604</ele>
        <time>2019-10-08T04:13:59.461Z</time>
      </trkpt>
      <trkpt lat="44.63968" lon="3.67534">
        <ele>1267.882139</ele>
        <time>2019-10-08T04:14:02.732Z</time>
      </trkpt>
      <trkpt lat="44.63977" lon="3.67517">
        <ele>1267.013323</ele>
        <time>2019-10-08T04:14:04.993Z</time>
      </trkpt>
      <trkpt lat="44.63977" lon="3.67506">
        <ele>1266.251559</ele>
        <time>2019-10-08T04:14:06.169Z</time>
      </trkpt>
      <trkpt lat="44.63979" lon="3.67495">
        <ele>1265.181625</ele>
        <time>2019-10-08T04:14:07.355Z</time>
      </trkpt>
      <trkpt lat="44.63968" lon="3.67511">
        <ele>1263.097481</ele>
        <time>2019-10-08T04:14:11.140Z</time>
      </trkpt>
      <trkpt lat="44.63899" lon="3.67547">
        <ele>1253.213933</ele>
        <time>2019-10-08T04:14:29.377Z</time>
      </trkpt>
      <trkpt lat="44.63881" lon="3.67563">
        <ele>1250.510941</ele>
        <time>2019-10-08T04:14:34.383Z</time>
      </trkpt>
      <trkpt lat="44.63806" lon="3.67591">
        <ele>1239.805353</ele>
        <time>2019-10-08T04:14:53.235Z</time>
      </trkpt>
      <trkpt lat="44.63724" lon="3.67564">
        <ele>1226.927015</ele>
        <time>2019-10-08T04:15:13.639Z</time>
      </trkpt>
      <trkpt lat="44.63646" lon="3.67563">
        <ele>1215.167739</ele>
        <time>2019-10-08T04:15:32.261Z</time>
      </trkpt>
      <trkpt lat="44.63446" lon="3.67588">
        <ele>1189.939135</ele>
        <time>2019-10-08T04:16:21.582Z</time>
      </trkpt>
      <trkpt lat="44.63428" lon="3.67592">
        <ele>1188.628417</ele>
        <time>2019-10-08T04:16:26.344Z</time>
      </trkpt>
      <trkpt lat="44.63416" lon="3.67602">
        <ele>1187.572589</ele>
        <time>2019-10-08T04:16:30.321Z</time>
      </trkpt>
      <trkpt lat="44.63399" lon="3.67606">
        <ele>1186.389892</ele>
        <time>2019-10-08T04:16:34.721Z</time>
      </trkpt>
      <trkpt lat="44.63398" lon="3.67584">
        <ele>1185.214656</ele>
        <time>2019-10-08T04:16:37.233Z</time>
      </trkpt>
      <trkpt lat="44.63401" lon="3.67558">
        <ele>1183.888924</ele>
        <time>2019-10-08T04:16:40.059Z</time>
      </trkpt>
      <trkpt lat="44.63403" lon="3.67549">
        <ele>1183.407826</ele>
        <time>2019-10-08T04:16:41.092Z</time>
      </trkpt>
      <trkpt lat="44.63431" lon="3.67481">
        <ele>1179.403803</ele>
        <time>2019-10-08T04:16:50.052Z</time>
      </trkpt>
      <trkpt lat="44.63442" lon="3.67464">
        <ele>1178.567465</ele>
        <time>2019-10-08T04:16:52.879Z</time>
      </trkpt>
      <trkpt lat="44.63474" lon="3.67435">
        <ele>1177.838611</ele>
        <time>2019-10-08T04:16:59.444Z</time>
      </trkpt>
      <trkpt lat="44.63506" lon="3.67413">
        <ele>1177.152784</ele>
        <time>2019-10-08T04:17:06.111Z</time>
      </trkpt>
      <trkpt lat="44.63504" lon="3.67408">
        <ele>1177.073462</ele>
        <time>2019-10-08T04:17:06.848Z</time>
      </trkpt>
      <trkpt lat="44.63498" lon="3.67392">
        <ele>1176.833571</ele>
        <time>2019-10-08T04:17:09.304Z</time>
      </trkpt>
      <trkpt lat="44.63477" lon="3.67366">
        <ele>1176.279435</ele>
        <time>2019-10-08T04:17:14.876Z</time>
      </trkpt>
      <trkpt lat="44.63462" lon="3.6735">
        <ele>1175.913241</ele>
        <time>2019-10-08T04:17:18.660Z</time>
      </trkpt>
      <trkpt lat="44.63457" lon="3.67347">
        <ele>1175.819542</ele>
        <time>2019-10-08T04:17:19.580Z</time>
      </trkpt>
      <trkpt lat="44.63446" lon="3.67343">
        <ele>1175.595775</ele>
        <time>2019-10-08T04:17:21.790Z</time>
      </trkpt>
      <trkpt lat="44.63416" lon="3.67349">
        <ele>1175.150566</ele>
        <time>2019-10-08T04:17:27.769Z</time>
      </trkpt>
      <trkpt lat="44.63335" lon="3.67361">
        <ele>1174.618539</ele>
        <time>2019-10-08T04:17:43.975Z</time>
      </trkpt>
      <trkpt lat="44.6326" lon="3.67348">
        <ele>1174.128294</ele>
        <time>2019-10-08T04:18:00.142Z</time>
      </trkpt>
      <trkpt lat="44.63221" lon="3.67349">
        <ele>1174.063637</ele>
        <time>2019-10-08T04:18:08.713Z</time>
      </trkpt>
      <trkpt lat="44.63068" lon="3.67294">
        <ele>1174.145913</ele>
        <time>2019-10-08T04:18:44.384Z</time>
      </trkpt>
      <trkpt lat="44.62981" lon="3.67247">
        <ele>1174.494864</ele>
        <time>2019-10-08T04:19:06.311Z</time>
      </trkpt>
      <trkpt lat="44.62832" lon="3.67225">
        <ele>1175.754003</ele>
        <time>2019-10-08T04:19:43.979Z</time>
      </trkpt>
      <trkpt lat="44.62796" lon="3.672">
        <ele>1176.31399</ele>
        <time>2019-10-08T04:19:55.404Z</time>
      </trkpt>
      <trkpt lat="44.62767" lon="3.67157">
        <ele>1176.89424</ele>
        <time>2019-10-08T04:20:07.904Z</time>
      </trkpt>
      <trkpt lat="44.62764" lon="3.67143">
        <ele>1177.044806</ele>
        <time>2019-10-08T04:20:11.370Z</time>
      </trkpt>
      <trkpt lat="44.62752" lon="3.67136">
        <ele>1177.222539</ele>
        <time>2019-10-08T04:20:15.780Z</time>
      </trkpt>
      <trkpt lat="44.62709" lon="3.67087">
        <ele>1179.398016</ele>
        <time>2019-10-08T04:20:36.257Z</time>
      </trkpt>
      <trkpt lat="44.62638" lon="3.67044">
        <ele>1182.682859</ele>
        <time>2019-10-08T04:21:10.806Z</time>
      </trkpt>
      <trkpt lat="44.62612" lon="3.6704">
        <ele>1183.789734</ele>
        <time>2019-10-08T04:21:23.810Z</time>
      </trkpt>
      <trkpt lat="44.62501" lon="3.67087">
        <ele>1190.598476</ele>
        <time>2019-10-08T04:22:25.884Z</time>
      </trkpt>
      <trkpt lat="44.62492" lon="3.67066">
        <ele>1191.708372</ele>
        <time>2019-10-08T04:22:35.932Z</time>
      </trkpt>
      <trkpt lat="44.62509" lon="3.66991">
        <ele>1195.269394</ele>
        <time>2019-10-08T04:23:08.276Z</time>
      </trkpt>
      <trkpt lat="44.62505" lon="3.66958">
        <ele>1196.78244</ele>
        <time>2019-10-08T04:23:21.672Z</time>
      </trkpt>
      <trkpt lat="44.6249" lon="3.66924">
        <ele>1198.783938</ele>
        <time>2019-10-08T04:23:37.996Z</time>
      </trkpt>
      <trkpt lat="44.62473" lon="3.669">
        <ele>1200.45175</ele>
        <time>2019-10-08T04:23:51.492Z</time>
      </trkpt>
      <trkpt lat="44.62333" lon="3.6678">
        <ele>1212.310643</ele>
        <time>2019-10-08T04:25:26.690Z</time>
      </trkpt>
      <trkpt lat="44.62265" lon="3.6675">
        <ele>1218.129464</ele>
        <time>2019-10-08T04:26:12.751Z</time>
      </trkpt>
      <trkpt lat="44.62172" lon="3.66737">
        <ele>1225.744949</ele>
        <time>2019-10-08T04:27:14.949Z</time>
      </trkpt>
      <trkpt lat="44.62117" lon="3.66722">
        <ele>1230.602022</ele>
        <time>2019-10-08T04:27:53.556Z</time>
      </trkpt>
      <trkpt lat="44.62095" lon="3.66694">
        <ele>1233.103636</ele>
        <time>2019-10-08T04:28:13.412Z</time>
      </trkpt>
      <trkpt lat="44.62061" lon="3.6663">
        <ele>1237.992154</ele>
        <time>2019-10-08T04:28:51.478Z</time>
      </trkpt>
      <trkpt lat="44.61975" lon="3.66396">
        <ele>1250.952821</ele>
        <time>2019-10-08T04:30:41.350Z</time>
      </trkpt>
      <trkpt lat="44.6196" lon="3.6637">
        <ele>1251.821095</ele>
        <time>2019-10-08T04:30:52.253Z</time>
      </trkpt>
      <trkpt lat="44.61936" lon="3.66349">
        <ele>1252.757347</ele>
        <time>2019-10-08T04:31:04.114Z</time>
      </trkpt>
      <trkpt lat="44.61904" lon="3.66304">
        <ele>1254.272889</ele>
        <time>2019-10-08T04:31:21.120Z</time>
      </trkpt>
      <trkpt lat="44.61883" lon="3.66286">
        <ele>1255.083868</ele>
        <time>2019-10-08T04:31:29.781Z</time>
      </trkpt>
      <trkpt lat="44.61864" lon="3.66255">
        <ele>1256.074322</ele>
        <time>2019-10-08T04:31:39.799Z</time>
      </trkpt>
      <trkpt lat="44.61854" lon="3.66238">
        <ele>1256.583879</ele>
        <time>2019-10-08T04:31:46.096Z</time>
      </trkpt>
      <trkpt lat="44.61848" lon="3.66228">
        <ele>1256.892042</ele>
        <time>2019-10-08T04:31:49.997Z</time>
      </trkpt>
      <trkpt lat="44.61829" lon="3.66177">
        <ele>1258.110237</ele>
        <time>2019-10-08T04:32:09.627Z</time>
      </trkpt>
      <trkpt lat="44.61818" lon="3.66131">
        <ele>1259.11859</ele>
        <time>2019-10-08T04:32:26.811Z</time>
      </trkpt>
      <trkpt lat="44.61811" lon="3.66123">
        <ele>1259.381714</ele>
        <time>2019-10-08T04:32:30.703Z</time>
      </trkpt>
      <trkpt lat="44.61803" lon="3.66124">
        <ele>1259.616453</ele>
        <time>2019-10-08T04:32:36.133Z</time>
      </trkpt>
      <trkpt lat="44.61746" lon="3.6615">
        <ele>1261.341585</ele>
        <time>2019-10-08T04:33:05.832Z</time>
      </trkpt>
      <trkpt lat="44.61739" lon="3.66159">
        <ele>1261.611283</ele>
        <time>2019-10-08T04:33:11.504Z</time>
      </trkpt>
      <trkpt lat="44.61721" lon="3.66236">
        <ele>1263.323608</ele>
        <time>2019-10-08T04:33:44.311Z</time>
      </trkpt>
      <trkpt lat="44.61721" lon="3.66315">
        <ele>1264.995778</ele>
        <time>2019-10-08T04:34:16.308Z</time>
      </trkpt>
      <trkpt lat="44.61726" lon="3.66414">
        <ele>1267.118026</ele>
        <time>2019-10-08T04:34:52.613Z</time>
      </trkpt>
      <trkpt lat="44.61751" lon="3.66486">
        <ele>1267.198717</ele>
        <time>2019-10-08T04:35:17.281Z</time>
      </trkpt>
      <trkpt lat="44.61751" lon="3.66486">
        <ele>1267.198717</ele>
        <time>2019-10-08T04:35:17.373Z</time>
      </trkpt>
      <trkpt lat="44.61749" lon="3.66528">
        <ele>1266.788036</ele>
        <time>2019-10-08T04:35:28.493Z</time>
      </trkpt>
      <trkpt lat="44.61713" lon="3.66611">
        <ele>1265.857534</ele>
        <time>2019-10-08T04:35:51.810Z</time>
      </trkpt>
      <trkpt lat="44.61649" lon="3.66798">
        <ele>1258.648102</ele>
        <time>2019-10-08T04:36:34.597Z</time>
      </trkpt>
      <trkpt lat="44.61623" lon="3.66844">
        <ele>1256.026141</ele>
        <time>2019-10-08T04:36:45.650Z</time>
      </trkpt>
      <trkpt lat="44.61586" lon="3.66892">
        <ele>1252.484257</ele>
        <time>2019-10-08T04:36:59.132Z</time>
      </trkpt>
      <trkpt lat="44.61551" lon="3.66975">
        <ele>1246.9617</ele>
        <time>2019-10-08T04:37:16.833Z</time>
      </trkpt>
      <trkpt lat="44.61531" lon="3.67053">
        <ele>1242.20733</ele>
        <time>2019-10-08T04:37:32.392Z</time>
      </trkpt>
      <trkpt lat="44.61547" lon="3.67131">
        <ele>1239.044726</ele>
        <time>2019-10-08T04:37:49.035Z</time>
      </trkpt>
      <trkpt lat="44.61546" lon="3.67135">
        <ele>1239.013008</ele>
        <time>2019-10-08T04:37:49.634Z</time>
      </trkpt>
      <trkpt lat="44.61512" lon="3.67114">
        <ele>1238.546732</ele>
        <time>2019-10-08T04:37:56.299Z</time>
      </trkpt>
      <trkpt lat="44.61467" lon="3.67081">
        <ele>1237.913409</ele>
        <time>2019-10-08T04:38:06.904Z</time>
      </trkpt>
      <trkpt lat="44.61446" lon="3.67072">
        <ele>1237.639084</ele>
        <time>2019-10-08T04:38:11.805Z</time>
      </trkpt>
      <trkpt lat="44.6142" lon="3.6708">
        <ele>1237.319277</ele>
        <time>2019-10-08T04:38:21.875Z</time>
      </trkpt>
      <trkpt lat="44.61398" lon="3.67105">
        <ele>1237.470182</ele>
        <time>2019-10-08T04:38:31.640Z</time>
      </trkpt>
      <trkpt lat="44.6138" lon="3.67114">
        <ele>1238.244642</ele>
        <time>2019-10-08T04:38:41.469Z</time>
      </trkpt>
      <trkpt lat="44.61344" lon="3.67113">
        <ele>1239.705607</ele>
        <time>2019-10-08T04:38:57.679Z</time>
      </trkpt>
      <trkpt lat="44.61327" lon="3.67121">
        <ele>1240.424824</ele>
        <time>2019-10-08T04:39:05.143Z</time>
      </trkpt>
      <trkpt lat="44.6131" lon="3.67121">
        <ele>1241.126864</ele>
        <time>2019-10-08T04:39:16.180Z</time>
      </trkpt>
      <trkpt lat="44.61284" lon="3.67117">
        <ele>1242.187354</ele>
        <time>2019-10-08T04:39:31.518Z</time>
      </trkpt>
      <trkpt lat="44.61089" lon="3.67046">
        <ele>1249.746476</ele>
        <time>2019-10-08T04:41:28.647Z</time>
      </trkpt>
      <trkpt lat="44.61015" lon="3.67004">
        <ele>1251.309556</ele>
        <time>2019-10-08T04:42:05.996Z</time>
      </trkpt>
      <trkpt lat="44.60963" lon="3.66966">
        <ele>1251.769146</ele>
        <time>2019-10-08T04:42:29.480Z</time>
      </trkpt>
      <trkpt lat="44.6093" lon="3.66903">
        <ele>1252.204799</ele>
        <time>2019-10-08T04:42:49.797Z</time>
      </trkpt>
      <trkpt lat="44.60904" lon="3.66873">
        <ele>1252.37435</ele>
        <time>2019-10-08T04:43:01.684Z</time>
      </trkpt>
      <trkpt lat="44.60864" lon="3.66847">
        <ele>1252.454962</ele>
        <time>2019-10-08T04:43:17.716Z</time>
      </trkpt>
      <trkpt lat="44.60763" lon="3.66842">
        <ele>1252.640228</ele>
        <time>2019-10-08T04:43:56.697Z</time>
      </trkpt>
      <trkpt lat="44.60706" lon="3.66851">
        <ele>1252.448949</ele>
        <time>2019-10-08T04:44:20.163Z</time>
      </trkpt>
      <trkpt lat="44.60675" lon="3.66842">
        <ele>1252.260997</ele>
        <time>2019-10-08T04:44:32.685Z</time>
      </trkpt>
      <trkpt lat="44.60609" lon="3.66846">
        <ele>1251.859793</ele>
        <time>2019-10-08T04:44:56.706Z</time>
      </trkpt>
      <trkpt lat="44.60575" lon="3.66839">
        <ele>1251.652918</ele>
        <time>2019-10-08T04:45:08.190Z</time>
      </trkpt>
      <trkpt lat="44.60522" lon="3.66838">
        <ele>1249.226152</ele>
        <time>2019-10-08T04:45:24.878Z</time>
      </trkpt>
      <trkpt lat="44.60382" lon="3.66754">
        <ele>1240.336502</ele>
        <time>2019-10-08T04:46:07.116Z</time>
      </trkpt>
      <trkpt lat="44.60363" lon="3.66733">
        <ele>1238.251953</ele>
        <time>2019-10-08T04:46:13.316Z</time>
      </trkpt>
      <trkpt lat="44.60337" lon="3.66718">
        <ele>1235.788864</ele>
        <time>2019-10-08T04:46:20.577Z</time>
      </trkpt>
      <trkpt lat="44.60269" lon="3.6671">
        <ele>1229.737666</ele>
        <time>2019-10-08T04:46:38.238Z</time>
      </trkpt>
      <trkpt lat="44.60259" lon="3.66701">
        <ele>1228.764599</ele>
        <time>2019-10-08T04:46:41.082Z</time>
      </trkpt>
      <trkpt lat="44.60259" lon="3.66683">
        <ele>1227.649282</ele>
        <time>2019-10-08T04:46:44.350Z</time>
      </trkpt>
      <trkpt lat="44.60248" lon="3.66661">
        <ele>1225.929148</ele>
        <time>2019-10-08T04:46:49.579Z</time>
      </trkpt>
      <trkpt lat="44.60225" lon="3.66645">
        <ele>1224.761959</ele>
        <time>2019-10-08T04:46:56.337Z</time>
      </trkpt>
      <trkpt lat="44.602" lon="3.66631">
        <ele>1223.545074</ele>
        <time>2019-10-08T04:47:03.512Z</time>
      </trkpt>
      <trkpt lat="44.60204" lon="3.66625">
        <ele>1223.288711</ele>
        <time>2019-10-08T04:47:04.517Z</time>
      </trkpt>
      <trkpt lat="44.60233" lon="3.66568">
        <ele>1221.048188</ele>
        <time>2019-10-08T04:47:12.758Z</time>
      </trkpt>
      <trkpt lat="44.60243" lon="3.66527">
        <ele>1219.621423</ele>
        <time>2019-10-08T04:47:18.422Z</time>
      </trkpt>
      <trkpt lat="44.60247" lon="3.66489">
        <ele>1218.385687</ele>
        <time>2019-10-08T04:47:23.567Z</time>
      </trkpt>
      <trkpt lat="44.60284" lon="3.66451">
        <ele>1218.305255</ele>
        <time>2019-10-08T04:47:40.295Z</time>
      </trkpt>
      <trkpt lat="44.60429" lon="3.66282">
        <ele>1222.222023</ele>
        <time>2019-10-08T04:49:15.378Z</time>
      </trkpt>
      <trkpt lat="44.60463" lon="3.66251">
        <ele>1223.470635</ele>
        <time>2019-10-08T04:49:36.881Z</time>
      </trkpt>
      <trkpt lat="44.60541" lon="3.66207">
        <ele>1226.103286</ele>
        <time>2019-10-08T04:50:22.144Z</time>
      </trkpt>
      <trkpt lat="44.60598" lon="3.66139">
        <ele>1228.525006</ele>
        <time>2019-10-08T04:51:01.929Z</time>
      </trkpt>
      <trkpt lat="44.60692" lon="3.66071">
        <ele>1231.985361</ele>
        <time>2019-10-08T04:51:58.320Z</time>
      </trkpt>
      <trkpt lat="44.60753" lon="3.65957">
        <ele>1235.569208</ele>
        <time>2019-10-08T04:52:52.656Z</time>
      </trkpt>
      <trkpt lat="44.6081" lon="3.65902">
        <ele>1238.031193</ele>
        <time>2019-10-08T04:53:31.168Z</time>
      </trkpt>
      <trkpt lat="44.6084" lon="3.65864">
        <ele>1239.630261</ele>
        <time>2019-10-08T04:53:54.061Z</time>
      </trkpt>
      <trkpt lat="44.60915" lon="3.65674">
        <ele>1246.702144</ele>
        <time>2019-10-08T04:55:27.160Z</time>
      </trkpt>
      <trkpt lat="44.60942" lon="3.65637">
        <ele>1248.738556</ele>
        <time>2019-10-08T04:55:50.984Z</time>
      </trkpt>
      <trkpt lat="44.60992" lon="3.65581">
        <ele>1252.323941</ele>
        <time>2019-10-08T04:56:31.613Z</time>
      </trkpt>
      <trkpt lat="44.60988" lon="3.65552">
        <ele>1253.518497</ele>
        <time>2019-10-08T04:56:45.464Z</time>
      </trkpt>
      <trkpt lat="44.60979" lon="3.65526">
        <ele>1254.685912</ele>
        <time>2019-10-08T04:56:59.235Z</time>
      </trkpt>
      <trkpt lat="44.60924" lon="3.65513">
        <ele>1258.05915</ele>
        <time>2019-10-08T04:57:37.480Z</time>
      </trkpt>
      <trkpt lat="44.60895" lon="3.6551">
        <ele>1260.194325</ele>
        <time>2019-10-08T04:57:57.828Z</time>
      </trkpt>
      <trkpt lat="44.6078" lon="3.65549">
        <ele>1268.84939</ele>
        <time>2019-10-08T04:59:24.676Z</time>
      </trkpt>
      <trkpt lat="44.60759" lon="3.65547">
        <ele>1270.378409</ele>
        <time>2019-10-08T04:59:41.241Z</time>
      </trkpt>
      <trkpt lat="44.60741" lon="3.65531">
        <ele>1272.353116</ele>
        <time>2019-10-08T04:59:58.952Z</time>
      </trkpt>
      <trkpt lat="44.60709" lon="3.65466">
        <ele>1277.441572</ele>
        <time>2019-10-08T05:00:45.489Z</time>
      </trkpt>
      <trkpt lat="44.60677" lon="3.65412">
        <ele>1282.005991</ele>
        <time>2019-10-08T05:01:27.603Z</time>
      </trkpt>
      <trkpt lat="44.60648" lon="3.65316">
        <ele>1288.512532</ele>
        <time>2019-10-08T05:02:30.454Z</time>
      </trkpt>
      <trkpt lat="44.60607" lon="3.65266">
        <ele>1292.793809</ele>
        <time>2019-10-08T05:03:15.818Z</time>
      </trkpt>
      <trkpt lat="44.6059" lon="3.65232">
        <ele>1295.157145</ele>
        <time>2019-10-08T05:03:38.935Z</time>
      </trkpt>
      <trkpt lat="44.60581" lon="3.65201">
        <ele>1297.043885</ele>
        <time>2019-10-08T05:03:55.449Z</time>
      </trkpt>
      <trkpt lat="44.60578" lon="3.65193">
        <ele>1297.551116</ele>
        <time>2019-10-08T05:04:01.302Z</time>
      </trkpt>
      <trkpt lat="44.60561" lon="3.65192">
        <ele>1298.904416</ele>
        <time>2019-10-08T05:04:13.209Z</time>
      </trkpt>
      <trkpt lat="44.60551" lon="3.65186">
        <ele>1299.800565</ele>
        <time>2019-10-08T05:04:20.096Z</time>
      </trkpt>
      <trkpt lat="44.60522" lon="3.65136">
        <ele>1302.614694</ele>
        <time>2019-10-08T05:04:51.688Z</time>
      </trkpt>
      <trkpt lat="44.60437" lon="3.65077">
        <ele>1307.508563</ele>
        <time>2019-10-08T05:05:50.823Z</time>
      </trkpt>
      <trkpt lat="44.60415" lon="3.65054">
        <ele>1308.928854</ele>
        <time>2019-10-08T05:06:06.440Z</time>
      </trkpt>
      <trkpt lat="44.60399" lon="3.65033">
        <ele>1310.076565</ele>
        <time>2019-10-08T05:06:19.437Z</time>
      </trkpt>
      <trkpt lat="44.60386" lon="3.64999">
        <ele>1311.550706</ele>
        <time>2019-10-08T05:06:36.136Z</time>
      </trkpt>
      <trkpt lat="44.60353" lon="3.64941">
        <ele>1314.449878</ele>
        <time>2019-10-08T05:07:09.718Z</time>
      </trkpt>
      <trkpt lat="44.60326" lon="3.64791">
        <ele>1320.380986</ele>
        <time>2019-10-08T05:08:22.794Z</time>
      </trkpt>
      <trkpt lat="44.6033" lon="3.64687">
        <ele>1324.142791</ele>
        <time>2019-10-08T05:09:11.157Z</time>
      </trkpt>
      <trkpt lat="44.60333" lon="3.64661">
        <ele>1325.095271</ele>
        <time>2019-10-08T05:09:23.527Z</time>
      </trkpt>
      <trkpt lat="44.60349" lon="3.64523">
        <ele>1329.7805</ele>
        <time>2019-10-08T05:10:23.202Z</time>
      </trkpt>
      <trkpt lat="44.60363" lon="3.64482">
        <ele>1330.730309</ele>
        <time>2019-10-08T05:10:41.310Z</time>
      </trkpt>
      <trkpt lat="44.6037" lon="3.64419">
        <ele>1332.080271</ele>
        <time>2019-10-08T05:11:05.182Z</time>
      </trkpt>
      <trkpt lat="44.60387" lon="3.64371">
        <ele>1333.197292</ele>
        <time>2019-10-08T05:11:23.609Z</time>
      </trkpt>
      <trkpt lat="44.60397" lon="3.64327">
        <ele>1334.165339</ele>
        <time>2019-10-08T05:11:39.286Z</time>
      </trkpt>
      <trkpt lat="44.60425" lon="3.64295">
        <ele>1334.92968</ele>
        <time>2019-10-08T05:11:55.887Z</time>
      </trkpt>
      <trkpt lat="44.60454" lon="3.64235">
        <ele>1335.765817</ele>
        <time>2019-10-08T05:12:19.191Z</time>
      </trkpt>
      <trkpt lat="44.60486" lon="3.64121">
        <ele>1337.174447</ele>
        <time>2019-10-08T05:12:57.861Z</time>
      </trkpt>
      <trkpt lat="44.60486" lon="3.64053">
        <ele>1338.206568</ele>
        <time>2019-10-08T05:13:19.603Z</time>
      </trkpt>
      <trkpt lat="44.60506" lon="3.63965">
        <ele>1339.804853</ele>
        <time>2019-10-08T05:13:50.815Z</time>
      </trkpt>
      <trkpt lat="44.60548" lon="3.63903">
        <ele>1341.302909</ele>
        <time>2019-10-08T05:14:22.368Z</time>
      </trkpt>
      <trkpt lat="44.60548" lon="3.63875">
        <ele>1341.78608</ele>
        <time>2019-10-08T05:14:32.945Z</time>
      </trkpt>
      <trkpt lat="44.606" lon="3.6383">
        <ele>1344.15164</ele>
        <time>2019-10-08T05:15:06.601Z</time>
      </trkpt>
      <trkpt lat="44.60683" lon="3.63673">
        <ele>1349.725994</ele>
        <time>2019-10-08T05:16:27.248Z</time>
      </trkpt>
      <trkpt lat="44.60723" lon="3.63649">
        <ele>1351.688484</ele>
        <time>2019-10-08T05:16:52.932Z</time>
      </trkpt>
      <trkpt lat="44.60765" lon="3.63576">
        <ele>1354.753444</ele>
        <time>2019-10-08T05:17:33.179Z</time>
      </trkpt>
      <trkpt lat="44.60928" lon="3.6348">
        <ele>1363.197722</ele>
        <time>2019-10-08T05:19:20.858Z</time>
      </trkpt>
      <trkpt lat="44.61014" lon="3.63361">
        <ele>1369.061346</ele>
        <time>2019-10-08T05:20:36.218Z</time>
      </trkpt>
      <trkpt lat="44.61086" lon="3.63231">
        <ele>1374.70837</ele>
        <time>2019-10-08T05:21:47.843Z</time>
      </trkpt>
      <trkpt lat="44.611" lon="3.63161">
        <ele>1377.032945</ele>
        <time>2019-10-08T05:22:18.793Z</time>
      </trkpt>
      <trkpt lat="44.61096" lon="3.63112">
        <ele>1378.577538</ele>
        <time>2019-10-08T05:22:39.148Z</time>
      </trkpt>
      <trkpt lat="44.61106" lon="3.63019">
        <ele>1381.582687</ele>
        <time>2019-10-08T05:23:18.918Z</time>
      </trkpt>
      <trkpt lat="44.61103" lon="3.62916">
        <ele>1384.833502</ele>
        <time>2019-10-08T05:24:02.894Z</time>
      </trkpt>
      <trkpt lat="44.61108" lon="3.6287">
        <ele>1386.269038</ele>
        <time>2019-10-08T05:24:22.815Z</time>
      </trkpt>
      <trkpt lat="44.61098" lon="3.62817">
        <ele>1388.017573</ele>
        <time>2019-10-08T05:24:46.647Z</time>
      </trkpt>
      <trkpt lat="44.61109" lon="3.62674">
        <ele>1391.458472</ele>
        <time>2019-10-08T05:25:46.344Z</time>
      </trkpt>
      <trkpt lat="44.61101" lon="3.62493">
        <ele>1394.006918</ele>
        <time>2019-10-08T05:26:46.025Z</time>
      </trkpt>
      <trkpt lat="44.61092" lon="3.62481">
        <ele>1393.937573</ele>
        <time>2019-10-08T05:26:50.710Z</time>
      </trkpt>
      <trkpt lat="44.61063" lon="3.62478">
        <ele>1392.997756</ele>
        <time>2019-10-08T05:27:00.443Z</time>
      </trkpt>
      <trkpt lat="44.60971" lon="3.6238">
        <ele>1389.169612</ele>
        <time>2019-10-08T05:27:35.719Z</time>
      </trkpt>
      <trkpt lat="44.60917" lon="3.62352">
        <ele>1385.874296</ele>
        <time>2019-10-08T05:27:51.696Z</time>
      </trkpt>
      <trkpt lat="44.60899" lon="3.62335">
        <ele>1384.118776</ele>
        <time>2019-10-08T05:27:57.542Z</time>
      </trkpt>
      <trkpt lat="44.6087" lon="3.62295">
        <ele>1380.807298</ele>
        <time>2019-10-08T05:28:08.345Z</time>
      </trkpt>
      <trkpt lat="44.60855" lon="3.62302">
        <ele>1379.525188</ele>
        <time>2019-10-08T05:28:12.465Z</time>
      </trkpt>
      <trkpt lat="44.60839" lon="3.62324">
        <ele>1377.724413</ele>
        <time>2019-10-08T05:28:18.256Z</time>
      </trkpt>
      <trkpt lat="44.60801" lon="3.62339">
        <ele>1374.528752</ele>
        <time>2019-10-08T05:28:28.371Z</time>
      </trkpt>
      <trkpt lat="44.60782" lon="3.62335">
        <ele>1372.818431</ele>
        <time>2019-10-08T05:28:33.444Z</time>
      </trkpt>
      <trkpt lat="44.60753" lon="3.62307">
        <ele>1369.453565</ele>
        <time>2019-10-08T05:28:42.389Z</time>
      </trkpt>
      <trkpt lat="44.60741" lon="3.62308">
        <ele>1368.243736</ele>
        <time>2019-10-08T05:28:45.622Z</time>
      </trkpt>
      <trkpt lat="44.6071" lon="3.62349">
        <ele>1364.168702</ele>
        <time>2019-10-08T05:28:56.459Z</time>
      </trkpt>
      <trkpt lat="44.60663" lon="3.62394">
        <ele>1358.627381</ele>
        <time>2019-10-08T05:29:11.340Z</time>
      </trkpt>
      <trkpt lat="44.60613" lon="3.62457">
        <ele>1353.071076</ele>
        <time>2019-10-08T05:29:28.908Z</time>
      </trkpt>
      <trkpt lat="44.60599" lon="3.62464">
        <ele>1352.035301</ele>
        <time>2019-10-08T05:29:32.549Z</time>
      </trkpt>
      <trkpt lat="44.60587" lon="3.62463">
        <ele>1351.108301</ele>
        <time>2019-10-08T05:29:36.027Z</time>
      </trkpt>
      <trkpt lat="44.60543" lon="3.62424">
        <ele>1347.313503</ele>
        <time>2019-10-08T05:29:50.368Z</time>
      </trkpt>
      <trkpt lat="44.60535" lon="3.62423">
        <ele>1346.715422</ele>
        <time>2019-10-08T05:29:52.449Z</time>
      </trkpt>
      <trkpt lat="44.60519" lon="3.62477">
        <ele>1343.674081</ele>
        <time>2019-10-08T05:30:04.019Z</time>
      </trkpt>
      <trkpt lat="44.60489" lon="3.62553">
        <ele>1340.579018</ele>
        <time>2019-10-08T05:30:21.673Z</time>
      </trkpt>
      <trkpt lat="44.60462" lon="3.62617">
        <ele>1338.139184</ele>
        <time>2019-10-08T05:30:37.207Z</time>
      </trkpt>
      <trkpt lat="44.60436" lon="3.62603">
        <ele>1336.853484</ele>
        <time>2019-10-08T05:30:45.731Z</time>
      </trkpt>
      <trkpt lat="44.60413" lon="3.6259">
        <ele>1335.733351</ele>
        <time>2019-10-08T05:30:53.211Z</time>
      </trkpt>
      <trkpt lat="44.60413" lon="3.6259">
        <ele>1335.733351</ele>
        <time>2019-10-08T05:30:53.214Z</time>
      </trkpt>
      <trkpt lat="44.60404" lon="3.62596">
        <ele>1335.28996</ele>
        <time>2019-10-08T05:30:56.124Z</time>
      </trkpt>
      <trkpt lat="44.60394" lon="3.62627">
        <ele>1334.24153</ele>
        <time>2019-10-08T05:31:03.397Z</time>
      </trkpt>
      <trkpt lat="44.6035" lon="3.62704">
        <ele>1331.339734</ele>
        <time>2019-10-08T05:31:24.358Z</time>
      </trkpt>
      <trkpt lat="44.60316" lon="3.62777">
        <ele>1328.79511</ele>
        <time>2019-10-08T05:31:42.963Z</time>
      </trkpt>
      <trkpt lat="44.60225" lon="3.62836">
        <ele>1324.161196</ele>
        <time>2019-10-08T05:32:12.473Z</time>
      </trkpt>
      <trkpt lat="44.60151" lon="3.62858">
        <ele>1320.483254</ele>
        <time>2019-10-08T05:32:33.940Z</time>
      </trkpt>
      <trkpt lat="44.60038" lon="3.62925">
        <ele>1313.940306</ele>
        <time>2019-10-08T05:33:08.812Z</time>
      </trkpt>
      <trkpt lat="44.59897" lon="3.62979">
        <ele>1306.03125</ele>
        <time>2019-10-08T05:33:50.106Z</time>
      </trkpt>
      <trkpt lat="44.59723" lon="3.63099">
        <ele>1295.931533</ele>
        <time>2019-10-08T05:34:45.769Z</time>
      </trkpt>
      <trkpt lat="44.59627" lon="3.63191">
        <ele>1289.992859</ele>
        <time>2019-10-08T05:35:19.109Z</time>
      </trkpt>
      <trkpt lat="44.59593" lon="3.63241">
        <ele>1287.834641</ele>
        <time>2019-10-08T05:35:33.402Z</time>
      </trkpt>
      <trkpt lat="44.5957" lon="3.63256">
        <ele>1286.712433</ele>
        <time>2019-10-08T05:35:40.761Z</time>
      </trkpt>
      <trkpt lat="44.59535" lon="3.6317">
        <ele>1283.594341</ele>
        <time>2019-10-08T05:36:01.656Z</time>
      </trkpt>
      <trkpt lat="44.59521" lon="3.63151">
        <ele>1282.749035</ele>
        <time>2019-10-08T05:36:07.393Z</time>
      </trkpt>
      <trkpt lat="44.59463" lon="3.63174">
        <ele>1279.842704</ele>
        <time>2019-10-08T05:36:25.165Z</time>
      </trkpt>
      <trkpt lat="44.59427" lon="3.63168">
        <ele>1277.994003</ele>
        <time>2019-10-08T05:36:35.897Z</time>
      </trkpt>
      <trkpt lat="44.59384" lon="3.63138">
        <ele>1275.603318</ele>
        <time>2019-10-08T05:36:49.579Z</time>
      </trkpt>
      <trkpt lat="44.59341" lon="3.63096">
        <ele>1273.003926</ele>
        <time>2019-10-08T05:37:04.402Z</time>
      </trkpt>
      <trkpt lat="44.59322" lon="3.63079">
        <ele>1271.570663</ele>
        <time>2019-10-08T05:37:10.766Z</time>
      </trkpt>
      <trkpt lat="44.59301" lon="3.63088">
        <ele>1270.227158</ele>
        <time>2019-10-08T05:37:16.837Z</time>
      </trkpt>
      <trkpt lat="44.59143" lon="3.63145">
        <ele>1259.821925</ele>
        <time>2019-10-08T05:38:01.931Z</time>
      </trkpt>
      <trkpt lat="44.59066" lon="3.63131">
        <ele>1254.405919</ele>
        <time>2019-10-08T05:38:23.290Z</time>
      </trkpt>
      <trkpt lat="44.59026" lon="3.63135">
        <ele>1251.605855</ele>
        <time>2019-10-08T05:38:34.190Z</time>
      </trkpt>
      <trkpt lat="44.58997" lon="3.63144">
        <ele>1249.520785</ele>
        <time>2019-10-08T05:38:42.234Z</time>
      </trkpt>
      <trkpt lat="44.58963" lon="3.6317">
        <ele>1246.551584</ele>
        <time>2019-10-08T05:38:52.697Z</time>
      </trkpt>
      <trkpt lat="44.58874" lon="3.63281">
        <ele>1237.375853</ele>
        <time>2019-10-08T05:39:24.728Z</time>
      </trkpt>
      <trkpt lat="44.5878" lon="3.63371">
        <ele>1228.443421</ele>
        <time>2019-10-08T05:39:55.085Z</time>
      </trkpt>
      <trkpt lat="44.5873" lon="3.63444">
        <ele>1222.695006</ele>
        <time>2019-10-08T05:40:14.401Z</time>
      </trkpt>
      <trkpt lat="44.58705" lon="3.63468">
        <ele>1220.31644</ele>
        <time>2019-10-08T05:40:22.418Z</time>
      </trkpt>
      <trkpt lat="44.58681" lon="3.63502">
        <ele>1217.660604</ele>
        <time>2019-10-08T05:40:31.510Z</time>
      </trkpt>
      <trkpt lat="44.58642" lon="3.6362">
        <ele>1210.489561</ele>
        <time>2019-10-08T05:40:56.293Z</time>
      </trkpt>
      <trkpt lat="44.58629" lon="3.63647">
        <ele>1208.715624</ele>
        <time>2019-10-08T05:41:02.523Z</time>
      </trkpt>
      <trkpt lat="44.58563" lon="3.63708">
        <ele>1204.368855</ele>
        <time>2019-10-08T05:41:24.053Z</time>
      </trkpt>
      <trkpt lat="44.5852" lon="3.63782">
        <ele>1201.17463</ele>
        <time>2019-10-08T05:41:44.050Z</time>
      </trkpt>
      <trkpt lat="44.5852" lon="3.63782">
        <ele>1201.17463</ele>
        <time>2019-10-08T05:41:44.111Z</time>
      </trkpt>
      <trkpt lat="44.58514" lon="3.638">
        <ele>1200.513607</ele>
        <time>2019-10-08T05:41:46.806Z</time>
      </trkpt>
      <trkpt lat="44.58499" lon="3.63821">
        <ele>1199.508176</ele>
        <time>2019-10-08T05:41:50.878Z</time>
      </trkpt>
      <trkpt lat="44.58473" lon="3.63841">
        <ele>1198.88261</ele>
        <time>2019-10-08T05:41:56.382Z</time>
      </trkpt>
      <trkpt lat="44.58445" lon="3.63856">
        <ele>1199.369735</ele>
        <time>2019-10-08T05:42:02.558Z</time>
      </trkpt>
      <trkpt lat="44.58398" lon="3.63888">
        <ele>1200.221662</ele>
        <time>2019-10-08T05:42:15.391Z</time>
      </trkpt>
      <trkpt lat="44.58394" lon="3.63899">
        <ele>1200.363969</ele>
        <time>2019-10-08T05:42:19.110Z</time>
      </trkpt>
      <trkpt lat="44.58415" lon="3.63989">
        <ele>1201.464104</ele>
        <time>2019-10-08T05:42:47.927Z</time>
      </trkpt>
      <trkpt lat="44.58415" lon="3.63995">
        <ele>1201.532443</ele>
        <time>2019-10-08T05:42:50.512Z</time>
      </trkpt>
      <trkpt lat="44.58416" lon="3.64002">
        <ele>1201.623443</ele>
        <time>2019-10-08T05:42:52.756Z</time>
      </trkpt>
      <trkpt lat="44.58406" lon="3.64002">
        <ele>1202.235578</ele>
        <time>2019-10-08T05:42:57.613Z</time>
      </trkpt>
      <trkpt lat="44.58401" lon="3.64002">
        <ele>1202.583494</ele>
        <time>2019-10-08T05:43:00.307Z</time>
      </trkpt>
      <trkpt lat="44.58397" lon="3.64002">
        <ele>1202.849505</ele>
        <time>2019-10-08T05:43:02.375Z</time>
      </trkpt>
      <trkpt lat="44.58396" lon="3.64036">
        <ele>1204.369223</ele>
        <time>2019-10-08T05:43:14.328Z</time>
      </trkpt>
      <trkpt lat="44.58395" lon="3.64043">
        <ele>1204.719332</ele>
        <time>2019-10-08T05:43:17.481Z</time>
      </trkpt>
      <trkpt lat="44.5839" lon="3.64107">
        <ele>1207.656341</ele>
        <time>2019-10-08T05:43:41.093Z</time>
      </trkpt>
      <trkpt lat="44.58386" lon="3.64115">
        <ele>1208.153939</ele>
        <time>2019-10-08T05:43:45.853Z</time>
      </trkpt>
      <trkpt lat="44.5838" lon="3.64123">
        <ele>1208.649231</ele>
        <time>2019-10-08T05:43:50.248Z</time>
      </trkpt>
      <trkpt lat="44.58361" lon="3.64114">
        <ele>1209.950627</ele>
        <time>2019-10-08T05:44:05.600Z</time>
      </trkpt>
      <trkpt lat="44.5832" lon="3.6408">
        <ele>1213.022912</ele>
        <time>2019-10-08T05:44:41.666Z</time>
      </trkpt>
      <trkpt lat="44.58289" lon="3.64012">
        <ele>1216.531627</ele>
        <time>2019-10-08T05:45:23.919Z</time>
      </trkpt>
      <trkpt lat="44.58279" lon="3.63999">
        <ele>1217.338959</ele>
        <time>2019-10-08T05:45:33.440Z</time>
      </trkpt>
      <trkpt lat="44.5826" lon="3.63983">
        <ele>1218.677151</ele>
        <time>2019-10-08T05:45:49.336Z</time>
      </trkpt>
      <trkpt lat="44.58224" lon="3.63984">
        <ele>1220.868649</ele>
        <time>2019-10-08T05:46:12.541Z</time>
      </trkpt>
      <trkpt lat="44.58172" lon="3.64055">
        <ele>1224.634333</ele>
        <time>2019-10-08T05:46:58.239Z</time>
      </trkpt>
      <trkpt lat="44.58029" lon="3.64106">
        <ele>1228.551718</ele>
        <time>2019-10-08T05:48:12.928Z</time>
      </trkpt>
      <trkpt lat="44.57948" lon="3.64169">
        <ele>1228.199813</ele>
        <time>2019-10-08T05:48:46.688Z</time>
      </trkpt>
      <trkpt lat="44.57865" lon="3.64268">
        <ele>1227.144807</ele>
        <time>2019-10-08T05:49:22.559Z</time>
      </trkpt>
      <trkpt lat="44.57821" lon="3.64317">
        <ele>1226.041515</ele>
        <time>2019-10-08T05:49:40.389Z</time>
      </trkpt>
      <trkpt lat="44.57781" lon="3.64364">
        <ele>1225.017291</ele>
        <time>2019-10-08T05:49:57.063Z</time>
      </trkpt>
      <trkpt lat="44.57772" lon="3.64384">
        <ele>1224.684829</ele>
        <time>2019-10-08T05:50:02.501Z</time>
      </trkpt>
      <trkpt lat="44.57778" lon="3.64421">
        <ele>1224.149046</ele>
        <time>2019-10-08T05:50:11.425Z</time>
      </trkpt>
      <trkpt lat="44.5779" lon="3.6446">
        <ele>1223.806946</ele>
        <time>2019-10-08T05:50:21.573Z</time>
      </trkpt>
      <trkpt lat="44.57745" lon="3.64447">
        <ele>1223.979563</ele>
        <time>2019-10-08T05:50:38.100Z</time>
      </trkpt>
      <trkpt lat="44.57685" lon="3.64439">
        <ele>1224.204047</ele>
        <time>2019-10-08T05:51:01.248Z</time>
      </trkpt>
      <trkpt lat="44.57656" lon="3.64452">
        <ele>1224.317515</ele>
        <time>2019-10-08T05:51:14.002Z</time>
      </trkpt>
      <trkpt lat="44.57625" lon="3.64458">
        <ele>1224.432911</ele>
        <time>2019-10-08T05:51:28.231Z</time>
      </trkpt>
      <trkpt lat="44.57589" lon="3.64445">
        <ele>1225.623731</ele>
        <time>2019-10-08T05:51:46.751Z</time>
      </trkpt>
      <trkpt lat="44.57549" lon="3.64443">
        <ele>1226.907238</ele>
        <time>2019-10-08T05:52:07.549Z</time>
      </trkpt>
      <trkpt lat="44.5752" lon="3.64443">
        <ele>1227.847378</ele>
        <time>2019-10-08T05:52:23.673Z</time>
      </trkpt>
      <trkpt lat="44.57494" lon="3.64456">
        <ele>1228.738284</ele>
        <time>2019-10-08T05:52:39.434Z</time>
      </trkpt>
      <trkpt lat="44.57479" lon="3.64437">
        <ele>1229.400423</ele>
        <time>2019-10-08T05:52:51.204Z</time>
      </trkpt>
      <trkpt lat="44.57401" lon="3.64389">
        <ele>1232.161184</ele>
        <time>2019-10-08T05:53:39.133Z</time>
      </trkpt>
      <trkpt lat="44.57377" lon="3.6438">
        <ele>1232.96717</ele>
        <time>2019-10-08T05:53:52.928Z</time>
      </trkpt>
      <trkpt lat="44.57356" lon="3.64378">
        <ele>1233.636165</ele>
        <time>2019-10-08T05:54:04.036Z</time>
      </trkpt>
      <trkpt lat="44.57271" lon="3.64402">
        <ele>1236.256835</ele>
        <time>2019-10-08T05:54:48.479Z</time>
      </trkpt>
      <trkpt lat="44.57187" lon="3.64404">
        <ele>1237.449929</ele>
        <time>2019-10-08T05:55:26.582Z</time>
      </trkpt>
      <trkpt lat="44.57164" lon="3.64395">
        <ele>1237.789588</ele>
        <time>2019-10-08T05:55:36.745Z</time>
      </trkpt>
      <trkpt lat="44.57106" lon="3.64393">
        <ele>1238.611573</ele>
        <time>2019-10-08T05:56:00.162Z</time>
      </trkpt>
      <trkpt lat="44.5704" lon="3.64379">
        <ele>1239.288824</ele>
        <time>2019-10-08T05:56:26.605Z</time>
      </trkpt>
      <trkpt lat="44.56991" lon="3.64358">
        <ele>1239.799167</ele>
        <time>2019-10-08T05:56:47.214Z</time>
      </trkpt>
      <trkpt lat="44.56956" lon="3.64308">
        <ele>1240.295098</ele>
        <time>2019-10-08T05:57:08.656Z</time>
      </trkpt>
      <trkpt lat="44.56916" lon="3.64216">
        <ele>1242.00128</ele>
        <time>2019-10-08T05:57:45.978Z</time>
      </trkpt>
      <trkpt lat="44.5692" lon="3.64213">
        <ele>1236.8</ele>
      </trkpt>
      <trkpt lat="44.56917" lon="3.64205">
        <ele>1237</ele>
      </trkpt>
      <trkpt lat="44.56914" lon="3.64197">
        <ele>1237.2</ele>
      </trkpt>
      <trkpt lat="44.56909" lon="3.64188">
        <ele>1237.6</ele>
      </trkpt>
      <trkpt lat="44.56901" lon="3.64165">
        <ele>1238.1</ele>
      </trkpt>
      <trkpt lat="44.56893" lon="3.64144">
        <ele>1238.4</ele>
      </trkpt>
      <trkpt lat="44.56893" lon="3.64143">
        <ele>1238.4</ele>
      </trkpt>
      <trkpt lat="44.56879" lon="3.64111">
        <ele>1239.1</ele>
      </trkpt>
      <trkpt lat="44.56864" lon="3.64079">
        <ele>1239.7</ele>
      </trkpt>
      <trkpt lat="44.56858" lon="3.64062">
        <ele>1240</ele>
      </trkpt>
      <trkpt lat="44.56853" lon="3.64039">
        <ele>1240.2</ele>
      </trkpt>
      <trkpt lat="44.56847" lon="3.64018">
        <ele>1240.4</ele>
      </trkpt>
      <trkpt lat="44.56838" lon="3.63996">
        <ele>1240.7</ele>
      </trkpt>
      <trkpt lat="44.56828" lon="3.63976">
        <ele>1241.3</ele>
      </trkpt>
      <trkpt lat="44.5681" lon="3.63952">
        <ele>1242</ele>
      </trkpt>
      <trkpt lat="44.56804" lon="3.63941">
        <ele>1242.2</ele>
      </trkpt>
      <trkpt lat="44.56794" lon="3.63916">
        <ele>1242.4</ele>
      </trkpt>
      <trkpt lat="44.56789" lon="3.63906">
        <ele>1242.6</ele>
      </trkpt>
      <trkpt lat="44.56781" lon="3.63888">
        <ele>1242.9</ele>
      </trkpt>
      <trkpt lat="44.56768" lon="3.63859">
        <ele>1243.4</ele>
      </trkpt>
      <trkpt lat="44.56755" lon="3.6384">
        <ele>1243.8</ele>
      </trkpt>
      <trkpt lat="44.56741" lon="3.63819">
        <ele>1243.6</ele>
      </trkpt>
      <trkpt lat="44.56716" lon="3.63786">
        <ele>1242.9</ele>
      </trkpt>
      <trkpt lat="44.56693" lon="3.63761">
        <ele>1242.8</ele>
      </trkpt>
      <trkpt lat="44.56689" lon="3.63756">
        <ele>1242.8</ele>
      </trkpt>
      <trkpt lat="44.56684" lon="3.6375">
        <ele>1242.8</ele>
      </trkpt>
      <trkpt lat="44.56683" lon="3.63748">
        <ele>1242.8</ele>
      </trkpt>
      <trkpt lat="44.56677" lon="3.63737">
        <ele>1242.7</ele>
      </trkpt>
      <trkpt lat="44.56671" lon="3.63727">
        <ele>1242.7</ele>
      </trkpt>
      <trkpt lat="44.56662" lon="3.63715">
        <ele>1242.5</ele>
      </trkpt>
      <trkpt lat="44.56638" lon="3.63682">
        <ele>1241.7</ele>
      </trkpt>
      <trkpt lat="44.56628" lon="3.63665">
        <ele>1241.5</ele>
      </trkpt>
      <trkpt lat="44.56626" lon="3.63663">
        <ele>1241.5</ele>
      </trkpt>
      <trkpt lat="44.56615" lon="3.63644">
        <ele>1241.5</ele>
      </trkpt>
      <trkpt lat="44.56612" lon="3.63639">
        <ele>1241.5</ele>
      </trkpt>
      <trkpt lat="44.56605" lon="3.63626">
        <ele>1241.4</ele>
      </trkpt>
      <trkpt lat="44.56593" lon="3.63599">
        <ele>1241.2</ele>
      </trkpt>
      <trkpt lat="44.56584" lon="3.6358">
        <ele>1241</ele>
      </trkpt>
      <trkpt lat="44.56574" lon="3.63563">
        <ele>1240.4</ele>
      </trkpt>
      <trkpt lat="44.56565" lon="3.63547">
        <ele>1239.8</ele>
      </trkpt>
      <trkpt lat="44.56557" lon="3.63531">
        <ele>1239.2</ele>
      </trkpt>
      <trkpt lat="44.56537" lon="3.63499">
        <ele>1237.7</ele>
      </trkpt>
      <trkpt lat="44.56516" lon="3.63464">
        <ele>1235.6</ele>
      </trkpt>
      <trkpt lat="44.56491" lon="3.63425">
        <ele>1233.5</ele>
      </trkpt>
      <trkpt lat="44.56483" lon="3.63412">
        <ele>1232.7</ele>
      </trkpt>
      <trkpt lat="44.56479" lon="3.63407">
        <ele>1232.4</ele>
      </trkpt>
      <trkpt lat="44.56462" lon="3.63393">
        <ele>1231.1</ele>
      </trkpt>
      <trkpt lat="44.56449" lon="3.63382">
        <ele>1230.2</ele>
      </trkpt>
      <trkpt lat="44.56432" lon="3.6337">
        <ele>1229</ele>
      </trkpt>
      <trkpt lat="44.56418" lon="3.63358">
        <ele>1228.1</ele>
      </trkpt>
      <trkpt lat="44.56403" lon="3.63346">
        <ele>1226.9</ele>
      </trkpt>
      <trkpt lat="44.56394" lon="3.63339">
        <ele>1226.1</ele>
      </trkpt>
      <trkpt lat="44.56377" lon="3.63329">
        <ele>1224.5</ele>
      </trkpt>
      <trkpt lat="44.56357" lon="3.63319">
        <ele>1222.4</ele>
      </trkpt>
      <trkpt lat="44.56336" lon="3.6331">
        <ele>1220.4</ele>
      </trkpt>
      <trkpt lat="44.56317" lon="3.63302">
        <ele>1218.3</ele>
      </trkpt>
      <trkpt lat="44.56298" lon="3.63293">
        <ele>1216.4</ele>
      </trkpt>
      <trkpt lat="44.56277" lon="3.63286">
        <ele>1214.3</ele>
      </trkpt>
      <trkpt lat="44.5626" lon="3.63278">
        <ele>1212.5</ele>
      </trkpt>
      <trkpt lat="44.56243" lon="3.63269">
        <ele>1210.9</ele>
      </trkpt>
      <trkpt lat="44.56223" lon="3.6326">
        <ele>1209.2</ele>
      </trkpt>
      <trkpt lat="44.56206" lon="3.63252">
        <ele>1207.9</ele>
      </trkpt>
      <trkpt lat="44.56188" lon="3.63244">
        <ele>1206.3</ele>
      </trkpt>
      <trkpt lat="44.56168" lon="3.63236">
        <ele>1204.7</ele>
      </trkpt>
      <trkpt lat="44.56146" lon="3.63223">
        <ele>1203.1</ele>
      </trkpt>
      <trkpt lat="44.5614" lon="3.6322">
        <ele>1202.7</ele>
      </trkpt>
      <trkpt lat="44.56132" lon="3.63217">
        <ele>1202.1</ele>
      </trkpt>
      <trkpt lat="44.56131" lon="3.63217">
        <ele>1202.1</ele>
      </trkpt>
      <trkpt lat="44.56121" lon="3.63217">
        <ele>1201.5</ele>
      </trkpt>
      <trkpt lat="44.56102" lon="3.63218">
        <ele>1200.4</ele>
      </trkpt>
      <trkpt lat="44.56077" lon="3.6322">
        <ele>1198.9</ele>
      </trkpt>
      <trkpt lat="44.5606" lon="3.63218">
        <ele>1198.1</ele>
      </trkpt>
      <trkpt lat="44.56044" lon="3.63218">
        <ele>1197.3</ele>
      </trkpt>
      <trkpt lat="44.56023" lon="3.63219">
        <ele>1196.4</ele>
      </trkpt>
      <trkpt lat="44.55998" lon="3.63225">
        <ele>1195.3</ele>
      </trkpt>
      <trkpt lat="44.55987" lon="3.63225">
        <ele>1194.9</ele>
      </trkpt>
      <trkpt lat="44.5596" lon="3.63225">
        <ele>1193.8</ele>
      </trkpt>
      <trkpt lat="44.5595" lon="3.63225">
        <ele>1193.4</ele>
      </trkpt>
      <trkpt lat="44.55913" lon="3.63225">
        <ele>1192.1</ele>
      </trkpt>
      <trkpt lat="44.55888" lon="3.63228">
        <ele>1192.3</ele>
      </trkpt>
      <trkpt lat="44.55863" lon="3.6323">
        <ele>1192.5</ele>
      </trkpt>
      <trkpt lat="44.55853" lon="3.63231">
        <ele>1192.6</ele>
      </trkpt>
      <trkpt lat="44.55847" lon="3.63232">
        <ele>1192.6</ele>
      </trkpt>
      <trkpt lat="44.5584" lon="3.63231">
        <ele>1192.6</ele>
      </trkpt>
      <trkpt lat="44.55835" lon="3.6323">
        <ele>1192.5</ele>
      </trkpt>
      <trkpt lat="44.55828" lon="3.63229">
        <ele>1192.5</ele>
      </trkpt>
      <trkpt lat="44.55818" lon="3.63229">
        <ele>1192.5</ele>
      </trkpt>
      <trkpt lat="44.55808" lon="3.63231">
        <ele>1192.7</ele>
      </trkpt>
      <trkpt lat="44.55804" lon="3.63234">
        <ele>1192.9</ele>
      </trkpt>
      <trkpt lat="44.55798" lon="3.63238">
        <ele>1193.2</ele>
      </trkpt>
      <trkpt lat="44.55791" lon="3.63241">
        <ele>1193.4</ele>
      </trkpt>
      <trkpt lat="44.55777" lon="3.63242">
        <ele>1193.5</ele>
      </trkpt>
      <trkpt lat="44.55757" lon="3.63242">
        <ele>1193.5</ele>
      </trkpt>
      <trkpt lat="44.55746" lon="3.63242">
        <ele>1193.4</ele>
      </trkpt>
      <trkpt lat="44.55723" lon="3.63242">
        <ele>1192.9</ele>
      </trkpt>
      <trkpt lat="44.55704" lon="3.63244">
        <ele>1192.5</ele>
      </trkpt>
      <trkpt lat="44.55684" lon="3.63247">
        <ele>1192.3</ele>
      </trkpt>
      <trkpt lat="44.55661" lon="3.63249">
        <ele>1191.9</ele>
      </trkpt>
      <trkpt lat="44.55639" lon="3.63247">
        <ele>1191.5</ele>
      </trkpt>
      <trkpt lat="44.55633" lon="3.63246">
        <ele>1191.4</ele>
      </trkpt>
      <trkpt lat="44.5562" lon="3.6324">
        <ele>1191</ele>
      </trkpt>
      <trkpt lat="44.55599" lon="3.63232">
        <ele>1190.5</ele>
      </trkpt>
      <trkpt lat="44.55586" lon="3.63227">
        <ele>1190.2</ele>
      </trkpt>
      <trkpt lat="44.55571" lon="3.63222">
        <ele>1189.7</ele>
      </trkpt>
      <trkpt lat="44.55556" lon="3.63217">
        <ele>1189.1</ele>
      </trkpt>
      <trkpt lat="44.55545" lon="3.63213">
        <ele>1188.7</ele>
      </trkpt>
      <trkpt lat="44.5553" lon="3.63203">
        <ele>1188.1</ele>
      </trkpt>
      <trkpt lat="44.5551" lon="3.63185">
        <ele>1187.4</ele>
      </trkpt>
      <trkpt lat="44.55491" lon="3.6317">
        <ele>1186.6</ele>
      </trkpt>
      <trkpt lat="44.5547" lon="3.63152">
        <ele>1185.1</ele>
      </trkpt>
      <trkpt lat="44.5545" lon="3.63136">
        <ele>1183.8</ele>
      </trkpt>
      <trkpt lat="44.55434" lon="3.63124">
        <ele>1183</ele>
      </trkpt>
      <trkpt lat="44.55426" lon="3.63117">
        <ele>1182.7</ele>
      </trkpt>
      <trkpt lat="44.55412" lon="3.63113">
        <ele>1182.1</ele>
      </trkpt>
      <trkpt lat="44.55408" lon="3.63113">
        <ele>1181.9</ele>
      </trkpt>
      <trkpt lat="44.55401" lon="3.63114">
        <ele>1181.6</ele>
      </trkpt>
      <trkpt lat="44.55389" lon="3.6312">
        <ele>1181.1</ele>
      </trkpt>
      <trkpt lat="44.55377" lon="3.63124">
        <ele>1180.6</ele>
      </trkpt>
      <trkpt lat="44.55364" lon="3.63124">
        <ele>1180</ele>
      </trkpt>
      <trkpt lat="44.55351" lon="3.63124">
        <ele>1179.3</ele>
      </trkpt>
      <trkpt lat="44.55341" lon="3.63112">
        <ele>1178.7</ele>
      </trkpt>
      <trkpt lat="44.55333" lon="3.631">
        <ele>1178.2</ele>
      </trkpt>
      <trkpt lat="44.55329" lon="3.63088">
        <ele>1177.8</ele>
      </trkpt>
      <trkpt lat="44.55328" lon="3.6308">
        <ele>1177.6</ele>
      </trkpt>
      <trkpt lat="44.55328" lon="3.63073">
        <ele>1177.4</ele>
      </trkpt>
      <trkpt lat="44.55327" lon="3.63068">
        <ele>1177.3</ele>
      </trkpt>
      <trkpt lat="44.55324" lon="3.63064">
        <ele>1176.9</ele>
      </trkpt>
      <trkpt lat="44.5531" lon="3.63054">
        <ele>1175.8</ele>
      </trkpt>
      <trkpt lat="44.55292" lon="3.6304">
        <ele>1174.2</ele>
      </trkpt>
      <trkpt lat="44.55259" lon="3.63015">
        <ele>1171.2</ele>
      </trkpt>
      <trkpt lat="44.55221" lon="3.62984">
        <ele>1167.2</ele>
      </trkpt>
      <trkpt lat="44.55207" lon="3.62972">
        <ele>1165.7</ele>
      </trkpt>
      <trkpt lat="44.55188" lon="3.62957">
        <ele>1164</ele>
      </trkpt>
      <trkpt lat="44.5514" lon="3.62919">
        <ele>1160.4</ele>
      </trkpt>
      <trkpt lat="44.5513" lon="3.62913">
        <ele>1159.9</ele>
      </trkpt>
      <trkpt lat="44.55122" lon="3.62912">
        <ele>1159.6</ele>
      </trkpt>
      <trkpt lat="44.5512" lon="3.62911">
        <ele>1159.6</ele>
      </trkpt>
      <trkpt lat="44.55104" lon="3.6291">
        <ele>1159.2</ele>
      </trkpt>
      <trkpt lat="44.55088" lon="3.62907">
        <ele>1158.7</ele>
      </trkpt>
      <trkpt lat="44.55075" lon="3.62903">
        <ele>1158.6</ele>
      </trkpt>
      <trkpt lat="44.55075" lon="3.62893">
        <ele>1158.3</ele>
      </trkpt>
      <trkpt lat="44.55076" lon="3.62885">
        <ele>1158</ele>
      </trkpt>
      <trkpt lat="44.55043" lon="3.62879">
        <ele>1158.1</ele>
      </trkpt>
      <trkpt lat="44.5502" lon="3.62874">
        <ele>1158.2</ele>
      </trkpt>
      <trkpt lat="44.55" lon="3.62867">
        <ele>1158.2</ele>
      </trkpt>
      <trkpt lat="44.54986" lon="3.62863">
        <ele>1158</ele>
      </trkpt>
      <trkpt lat="44.54949" lon="3.6285">
        <ele>1157.5</ele>
      </trkpt>
      <trkpt lat="44.54925" lon="3.62839">
        <ele>1157.1</ele>
      </trkpt>
      <trkpt lat="44.54906" lon="3.62829">
        <ele>1157.1</ele>
      </trkpt>
      <trkpt lat="44.549" lon="3.62827">
        <ele>1157.1</ele>
      </trkpt>
      <trkpt lat="44.54885" lon="3.62829">
        <ele>1157.6</ele>
      </trkpt>
      <trkpt lat="44.54858" lon="3.62835">
        <ele>1158.4</ele>
      </trkpt>
      <trkpt lat="44.5484" lon="3.62837">
        <ele>1158.8</ele>
      </trkpt>
      <trkpt lat="44.54813" lon="3.62838">
        <ele>1159</ele>
      </trkpt>
      <trkpt lat="44.54811" lon="3.62838">
        <ele>1159</ele>
      </trkpt>
      <trkpt lat="44.54789" lon="3.62843">
        <ele>1159</ele>
      </trkpt>
      <trkpt lat="44.54762" lon="3.62849">
        <ele>1159.1</ele>
      </trkpt>
      <trkpt lat="44.54761" lon="3.6285">
        <ele>1159.1</ele>
      </trkpt>
      <trkpt lat="44.54751" lon="3.62852">
        <ele>1159.2</ele>
      </trkpt>
      <trkpt lat="44.5474" lon="3.62856">
        <ele>1158.9</ele>
      </trkpt>
      <trkpt lat="44.54731" lon="3.62861">
        <ele>1158.6</ele>
      </trkpt>
      <trkpt lat="44.54723" lon="3.62864">
        <ele>1158.3</ele>
      </trkpt>
      <trkpt lat="44.54714" lon="3.62867">
        <ele>1158</ele>
      </trkpt>
      <trkpt lat="44.54705" lon="3.6287">
        <ele>1157.7</ele>
      </trkpt>
      <trkpt lat="44.54696" lon="3.62872">
        <ele>1157.5</ele>
      </trkpt>
      <trkpt lat="44.54689" lon="3.62876">
        <ele>1157.3</ele>
      </trkpt>
      <trkpt lat="44.54681" lon="3.6288">
        <ele>1157.2</ele>
      </trkpt>
      <trkpt lat="44.54672" lon="3.62884">
        <ele>1157</ele>
      </trkpt>
      <trkpt lat="44.54664" lon="3.62888">
        <ele>1156.8</ele>
      </trkpt>
      <trkpt lat="44.54656" lon="3.62892">
        <ele>1156.3</ele>
      </trkpt>
      <trkpt lat="44.5465" lon="3.62895">
        <ele>1156</ele>
      </trkpt>
      <trkpt lat="44.54645" lon="3.62897">
        <ele>1155.6</ele>
      </trkpt>
      <trkpt lat="44.5464" lon="3.62897">
        <ele>1155.3</ele>
      </trkpt>
      <trkpt lat="44.54632" lon="3.62897">
        <ele>1154.7</ele>
      </trkpt>
      <trkpt lat="44.54625" lon="3.62897">
        <ele>1154.1</ele>
      </trkpt>
      <trkpt lat="44.54608" lon="3.62899">
        <ele>1152.9</ele>
      </trkpt>
      <trkpt lat="44.546" lon="3.629">
        <ele>1152.2</ele>
      </trkpt>
      <trkpt lat="44.54597" lon="3.629">
        <ele>1152.1</ele>
      </trkpt>
      <trkpt lat="44.54594" lon="3.629">
        <ele>1151.8</ele>
      </trkpt>
      <trkpt lat="44.54589" lon="3.62899">
        <ele>1151.4</ele>
      </trkpt>
      <trkpt lat="44.54573" lon="3.62903">
        <ele>1150.4</ele>
      </trkpt>
      <trkpt lat="44.54536" lon="3.6291">
        <ele>1148.2</ele>
      </trkpt>
      <trkpt lat="44.54507" lon="3.62917">
        <ele>1146.4</ele>
      </trkpt>
      <trkpt lat="44.54501" lon="3.62918">
        <ele>1146</ele>
      </trkpt>
      <trkpt lat="44.54497" lon="3.62921">
        <ele>1145.6</ele>
      </trkpt>
      <trkpt lat="44.54487" lon="3.62928">
        <ele>1144.7</ele>
      </trkpt>
      <trkpt lat="44.54476" lon="3.62932">
        <ele>1143.8</ele>
      </trkpt>
      <trkpt lat="44.54452" lon="3.62936">
        <ele>1142</ele>
      </trkpt>
      <trkpt lat="44.54442" lon="3.62938">
        <ele>1141.2</ele>
      </trkpt>
      <trkpt lat="44.54427" lon="3.62942">
        <ele>1140.1</ele>
      </trkpt>
      <trkpt lat="44.54415" lon="3.62944">
        <ele>1139.3</ele>
      </trkpt>
      <trkpt lat="44.54395" lon="3.62944">
        <ele>1138.4</ele>
      </trkpt>
      <trkpt lat="44.54386" lon="3.62946">
        <ele>1138</ele>
      </trkpt>
      <trkpt lat="44.54374" lon="3.62948">
        <ele>1137.4</ele>
      </trkpt>
      <trkpt lat="44.54361" lon="3.62947">
        <ele>1136.8</ele>
      </trkpt>
      <trkpt lat="44.54351" lon="3.62949">
        <ele>1136.4</ele>
      </trkpt>
      <trkpt lat="44.54337" lon="3.62952">
        <ele>1135.7</ele>
      </trkpt>
      <trkpt lat="44.54318" lon="3.62952">
        <ele>1134</ele>
      </trkpt>
      <trkpt lat="44.54306" lon="3.62954">
        <ele>1132.7</ele>
      </trkpt>
      <trkpt lat="44.54293" lon="3.62958">
        <ele>1131.4</ele>
      </trkpt>
      <trkpt lat="44.54282" lon="3.6296">
        <ele>1130.2</ele>
      </trkpt>
      <trkpt lat="44.54266" lon="3.62962">
        <ele>1128.6</ele>
      </trkpt>
      <trkpt lat="44.54253" lon="3.62965">
        <ele>1127.2</ele>
      </trkpt>
      <trkpt lat="44.54243" lon="3.62966">
        <ele>1126</ele>
      </trkpt>
      <trkpt lat="44.54225" lon="3.62966">
        <ele>1123.9</ele>
      </trkpt>
      <trkpt lat="44.54209" lon="3.62968">
        <ele>1121.9</ele>
      </trkpt>
      <trkpt lat="44.542" lon="3.62967">
        <ele>1120.9</ele>
      </trkpt>
      <trkpt lat="44.5419" lon="3.62963">
        <ele>1120</ele>
      </trkpt>
      <trkpt lat="44.54185" lon="3.6296">
        <ele>1119.5</ele>
      </trkpt>
      <trkpt lat="44.54176" lon="3.62956">
        <ele>1118.7</ele>
      </trkpt>
      <trkpt lat="44.5416" lon="3.62949">
        <ele>1117.4</ele>
      </trkpt>
      <trkpt lat="44.54155" lon="3.62948">
        <ele>1116.8</ele>
      </trkpt>
      <trkpt lat="44.54136" lon="3.62949">
        <ele>1114.9</ele>
      </trkpt>
      <trkpt lat="44.54128" lon="3.62947">
        <ele>1114.1</ele>
      </trkpt>
      <trkpt lat="44.54121" lon="3.62943">
        <ele>1113.7</ele>
      </trkpt>
      <trkpt lat="44.54114" lon="3.62933">
        <ele>1113.7</ele>
      </trkpt>
      <trkpt lat="44.54103" lon="3.62916">
        <ele>1113.8</ele>
      </trkpt>
      <trkpt lat="44.54089" lon="3.6289">
        <ele>1111.6</ele>
      </trkpt>
      <trkpt lat="44.54082" lon="3.62875">
        <ele>1110.3</ele>
      </trkpt>
      <trkpt lat="44.54076" lon="3.62858">
        <ele>1108.9</ele>
      </trkpt>
      <trkpt lat="44.54069" lon="3.62844">
        <ele>1107.5</ele>
      </trkpt>
      <trkpt lat="44.54063" lon="3.62834">
        <ele>1106.4</ele>
      </trkpt>
      <trkpt lat="44.54054" lon="3.62823">
        <ele>1104.4</ele>
      </trkpt>
      <trkpt lat="44.54045" lon="3.62812">
        <ele>1102.4</ele>
      </trkpt>
      <trkpt lat="44.54039" lon="3.62804">
        <ele>1101</ele>
      </trkpt>
      <trkpt lat="44.54033" lon="3.62794">
        <ele>1099.6</ele>
      </trkpt>
      <trkpt lat="44.54031" lon="3.62787">
        <ele>1098.7</ele>
      </trkpt>
      <trkpt lat="44.54028" lon="3.62779">
        <ele>1097.8</ele>
      </trkpt>
      <trkpt lat="44.54026" lon="3.62774">
        <ele>1097.2</ele>
      </trkpt>
      <trkpt lat="44.54023" lon="3.62766">
        <ele>1096.2</ele>
      </trkpt>
      <trkpt lat="44.54014" lon="3.62753">
        <ele>1094.1</ele>
      </trkpt>
      <trkpt lat="44.54002" lon="3.62737">
        <ele>1091</ele>
      </trkpt>
      <trkpt lat="44.53994" lon="3.62725">
        <ele>1088.9</ele>
      </trkpt>
      <trkpt lat="44.53983" lon="3.62704">
        <ele>1085.7</ele>
      </trkpt>
      <trkpt lat="44.53974" lon="3.62689">
        <ele>1083.5</ele>
      </trkpt>
      <trkpt lat="44.53967" lon="3.6268">
        <ele>1082.2</ele>
      </trkpt>
      <trkpt lat="44.53962" lon="3.62677">
        <ele>1081.5</ele>
      </trkpt>
      <trkpt lat="44.5395" lon="3.62669">
        <ele>1080</ele>
      </trkpt>
      <trkpt lat="44.5393" lon="3.62656">
        <ele>1077.7</ele>
      </trkpt>
      <trkpt lat="44.53913" lon="3.62645">
        <ele>1076</ele>
      </trkpt>
      <trkpt lat="44.53904" lon="3.62637">
        <ele>1075.2</ele>
      </trkpt>
      <trkpt lat="44.53896" lon="3.62628">
        <ele>1074.5</ele>
      </trkpt>
      <trkpt lat="44.53888" lon="3.62622">
        <ele>1073.9</ele>
      </trkpt>
      <trkpt lat="44.53874" lon="3.62615">
        <ele>1072.9</ele>
      </trkpt>
      <trkpt lat="44.53858" lon="3.62607">
        <ele>1071.8</ele>
      </trkpt>
      <trkpt lat="44.53837" lon="3.62595">
        <ele>1070.5</ele>
      </trkpt>
      <trkpt lat="44.53821" lon="3.62586">
        <ele>1069.5</ele>
      </trkpt>
      <trkpt lat="44.5382" lon="3.62596">
        <ele>1069.6</ele>
      </trkpt>
      <trkpt lat="44.53825" lon="3.62649">
        <ele>1063.922067</ele>
        <time>2019-10-08T06:35:53.209Z</time>
      </trkpt>
      <trkpt lat="44.53817" lon="3.62787">
        <ele>1057.468457</ele>
        <time>2019-10-08T06:36:20.222Z</time>
      </trkpt>
      <trkpt lat="44.53778" lon="3.62894">
        <ele>1050.63786</ele>
        <time>2019-10-08T06:36:43.455Z</time>
      </trkpt>
      <trkpt lat="44.53763" lon="3.62908">
        <ele>1049.01649</ele>
        <time>2019-10-08T06:36:48.336Z</time>
      </trkpt>
      <trkpt lat="44.53752" lon="3.62906">
        <ele>1048.093227</ele>
        <time>2019-10-08T06:36:51.090Z</time>
      </trkpt>
      <trkpt lat="44.53741" lon="3.62893">
        <ele>1046.763615</ele>
        <time>2019-10-08T06:36:55.077Z</time>
      </trkpt>
      <trkpt lat="44.53706" lon="3.62814">
        <ele>1040.953477</ele>
        <time>2019-10-08T06:37:12.256Z</time>
      </trkpt>
      <trkpt lat="44.53707" lon="3.62784">
        <ele>1038.810299</ele>
        <time>2019-10-08T06:37:17.804Z</time>
      </trkpt>
      <trkpt lat="44.53703" lon="3.62772">
        <ele>1037.584179</ele>
        <time>2019-10-08T06:37:20.255Z</time>
      </trkpt>
      <trkpt lat="44.53693" lon="3.62771">
        <ele>1036.255689</ele>
        <time>2019-10-08T06:37:22.893Z</time>
      </trkpt>
      <trkpt lat="44.53673" lon="3.62795">
        <ele>1032.939498</ele>
        <time>2019-10-08T06:37:29.401Z</time>
      </trkpt>
      <trkpt lat="44.53668" lon="3.62821">
        <ele>1030.474415</ele>
        <time>2019-10-08T06:37:34.195Z</time>
      </trkpt>
      <trkpt lat="44.53661" lon="3.62831">
        <ele>1029.146443</ele>
        <time>2019-10-08T06:37:36.750Z</time>
      </trkpt>
      <trkpt lat="44.53652" lon="3.62864">
        <ele>1025.954559</ele>
        <time>2019-10-08T06:37:42.883Z</time>
      </trkpt>
      <trkpt lat="44.5365" lon="3.62906">
        <ele>1022.079286</ele>
        <time>2019-10-08T06:37:50.252Z</time>
      </trkpt>
      <trkpt lat="44.53636" lon="3.62965">
        <ele>1016.279106</ele>
        <time>2019-10-08T06:38:01.114Z</time>
      </trkpt>
      <trkpt lat="44.53609" lon="3.63016">
        <ele>1009.455887</ele>
        <time>2019-10-08T06:38:11.934Z</time>
      </trkpt>
      <trkpt lat="44.53541" lon="3.63104">
        <ele>995.380859</ele>
        <time>2019-10-08T06:38:34.123Z</time>
      </trkpt>
      <trkpt lat="44.53517" lon="3.63166">
        <ele>988.163571</ele>
        <time>2019-10-08T06:38:46.362Z</time>
      </trkpt>
      <trkpt lat="44.5349" lon="3.63197">
        <ele>984.716029</ele>
        <time>2019-10-08T06:38:54.959Z</time>
      </trkpt>
      <trkpt lat="44.53482" lon="3.63222">
        <ele>982.826801</ele>
        <time>2019-10-08T06:38:59.777Z</time>
      </trkpt>
      <trkpt lat="44.5349" lon="3.63256">
        <ele>980.26749</ele>
        <time>2019-10-08T06:39:06.448Z</time>
      </trkpt>
      <trkpt lat="44.53531" lon="3.63355">
        <ele>972.216855</ele>
        <time>2019-10-08T06:39:28.320Z</time>
      </trkpt>
      <trkpt lat="44.53613" lon="3.63472">
        <ele>965.586211</ele>
        <time>2019-10-08T06:40:01.801Z</time>
      </trkpt>
      <trkpt lat="44.53619" lon="3.63489">
        <ele>964.858462</ele>
        <time>2019-10-08T06:40:06.444Z</time>
      </trkpt>
      <trkpt lat="44.53612" lon="3.63497">
        <ele>964.379624</ele>
        <time>2019-10-08T06:40:08.746Z</time>
      </trkpt>
      <trkpt lat="44.53599" lon="3.63504">
        <ele>963.611336</ele>
        <time>2019-10-08T06:40:13.012Z</time>
      </trkpt>
      <trkpt lat="44.53587" lon="3.63498">
        <ele>962.948036</ele>
        <time>2019-10-08T06:40:17.031Z</time>
      </trkpt>
      <trkpt lat="44.53571" lon="3.63479">
        <ele>961.866288</ele>
        <time>2019-10-08T06:40:22.617Z</time>
      </trkpt>
      <trkpt lat="44.53555" lon="3.63429">
        <ele>959.865775</ele>
        <time>2019-10-08T06:40:34.167Z</time>
      </trkpt>
      <trkpt lat="44.53546" lon="3.63422">
        <ele>959.353636</ele>
        <time>2019-10-08T06:40:37.448Z</time>
      </trkpt>
      <trkpt lat="44.53533" lon="3.6343">
        <ele>958.640425</ele>
        <time>2019-10-08T06:40:41.324Z</time>
      </trkpt>
      <trkpt lat="44.53532" lon="3.63445">
        <ele>958.122358</ele>
        <time>2019-10-08T06:40:44.366Z</time>
      </trkpt>
      <trkpt lat="44.5354" lon="3.63481">
        <ele>956.765448</ele>
        <time>2019-10-08T06:40:52.042Z</time>
      </trkpt>
      <trkpt lat="44.53539" lon="3.63505">
        <ele>955.891966</ele>
        <time>2019-10-08T06:40:57.024Z</time>
      </trkpt>
      <trkpt lat="44.53534" lon="3.63546">
        <ele>954.43159</ele>
        <time>2019-10-08T06:41:01.963Z</time>
      </trkpt>
      <trkpt lat="44.53548" lon="3.636">
        <ele>952.624358</ele>
        <time>2019-10-08T06:41:08.877Z</time>
      </trkpt>
      <trkpt lat="44.53565" lon="3.63621">
        <ele>952.261067</ele>
        <time>2019-10-08T06:41:12.790Z</time>
      </trkpt>
      <trkpt lat="44.53569" lon="3.63641">
        <ele>952.028928</ele>
        <time>2019-10-08T06:41:15.223Z</time>
      </trkpt>
      <trkpt lat="44.53544" lon="3.63623">
        <ele>951.579323</ele>
        <time>2019-10-08T06:41:20.020Z</time>
      </trkpt>
      <trkpt lat="44.535" lon="3.63568">
        <ele>950.642374</ele>
        <time>2019-10-08T06:41:31.857Z</time>
      </trkpt>
      <trkpt lat="44.53491" lon="3.63551">
        <ele>950.392937</ele>
        <time>2019-10-08T06:41:35.229Z</time>
      </trkpt>
      <trkpt lat="44.5348" lon="3.63576">
        <ele>950.064558</ele>
        <time>2019-10-08T06:41:43.892Z</time>
      </trkpt>
      <trkpt lat="44.53471" lon="3.63589">
        <ele>949.87869</ele>
        <time>2019-10-08T06:41:49.008Z</time>
      </trkpt>
      <trkpt lat="44.53457" lon="3.63594">
        <ele>950.452385</ele>
        <time>2019-10-08T06:41:55.576Z</time>
      </trkpt>
      <trkpt lat="44.53411" lon="3.63578">
        <ele>952.312632</ele>
        <time>2019-10-08T06:42:18.170Z</time>
      </trkpt>
      <trkpt lat="44.53398" lon="3.63579">
        <ele>952.844358</ele>
        <time>2019-10-08T06:42:25.174Z</time>
      </trkpt>
      <trkpt lat="44.53391" lon="3.63588">
        <ele>953.24276</ele>
        <time>2019-10-08T06:42:30.914Z</time>
      </trkpt>
      <trkpt lat="44.53363" lon="3.63665">
        <ele>955.668563</ele>
        <time>2019-10-08T06:43:09.208Z</time>
      </trkpt>
      <trkpt lat="44.53345" lon="3.6368">
        <ele>956.478382</ele>
        <time>2019-10-08T06:43:23.558Z</time>
      </trkpt>
      <trkpt lat="44.53297" lon="3.63692">
        <ele>959.37523</ele>
        <time>2019-10-08T06:43:58.523Z</time>
      </trkpt>
      <trkpt lat="44.53249" lon="3.63656">
        <ele>962.991418</ele>
        <time>2019-10-08T06:44:36.307Z</time>
      </trkpt>
      <trkpt lat="44.53195" lon="3.63636">
        <ele>966.730221</ele>
        <time>2019-10-08T06:45:14.783Z</time>
      </trkpt>
      <trkpt lat="44.53175" lon="3.63638">
        <ele>968.030236</ele>
        <time>2019-10-08T06:45:28.063Z</time>
      </trkpt>
      <trkpt lat="44.53148" lon="3.63653">
        <ele>970.315943</ele>
        <time>2019-10-08T06:45:47.723Z</time>
      </trkpt>
      <trkpt lat="44.53076" lon="3.6372">
        <ele>978.241449</ele>
        <time>2019-10-08T06:47:00.391Z</time>
      </trkpt>
      <trkpt lat="44.53056" lon="3.63728">
        <ele>980.183018</ele>
        <time>2019-10-08T06:47:18.223Z</time>
      </trkpt>
      <trkpt lat="44.53011" lon="3.63728">
        <ele>984.270721</ele>
        <time>2019-10-08T06:47:55.127Z</time>
      </trkpt>
      <trkpt lat="44.53005" lon="3.63733">
        <ele>984.942079</ele>
        <time>2019-10-08T06:48:03.167Z</time>
      </trkpt>
      <trkpt lat="44.52993" lon="3.63739">
        <ele>986.232694</ele>
        <time>2019-10-08T06:48:15.120Z</time>
      </trkpt>
      <trkpt lat="44.52985" lon="3.63744">
        <ele>987.332896</ele>
        <time>2019-10-08T06:48:22.111Z</time>
      </trkpt>
      <trkpt lat="44.52963" lon="3.6372">
        <ele>990.555437</ele>
        <time>2019-10-08T06:48:49.057Z</time>
      </trkpt>
      <trkpt lat="44.52946" lon="3.63687">
        <ele>993.960452</ele>
        <time>2019-10-08T06:49:16.921Z</time>
      </trkpt>
      <trkpt lat="44.52938" lon="3.63655">
        <ele>996.77716</ele>
        <time>2019-10-08T06:49:39.105Z</time>
      </trkpt>
      <trkpt lat="44.52935" lon="3.63609">
        <ele>1000.617321</ele>
        <time>2019-10-08T06:50:12.350Z</time>
      </trkpt>
      <trkpt lat="44.52925" lon="3.63615">
        <ele>1001.910168</ele>
        <time>2019-10-08T06:50:25.439Z</time>
      </trkpt>
      <trkpt lat="44.52922" lon="3.63641">
        <ele>1004.097033</ele>
        <time>2019-10-08T06:50:44.358Z</time>
      </trkpt>
      <trkpt lat="44.52882" lon="3.638">
        <ele>1017.630792</ele>
        <time>2019-10-08T06:52:36.589Z</time>
      </trkpt>
      <trkpt lat="44.52856" lon="3.63878">
        <ele>1024.548029</ele>
        <time>2019-10-08T06:53:34.198Z</time>
      </trkpt>
      <trkpt lat="44.52853" lon="3.63924">
        <ele>1027.664209</ele>
        <time>2019-10-08T06:54:04.301Z</time>
      </trkpt>
      <trkpt lat="44.52863" lon="3.63972">
        <ele>1030.295781</ele>
        <time>2019-10-08T06:54:34.137Z</time>
      </trkpt>
      <trkpt lat="44.52879" lon="3.64">
        <ele>1032.269039</ele>
        <time>2019-10-08T06:54:55.533Z</time>
      </trkpt>
      <trkpt lat="44.52871" lon="3.64">
        <ele>1032.902596</ele>
        <time>2019-10-08T06:55:01.465Z</time>
      </trkpt>
      <trkpt lat="44.52839" lon="3.63973">
        <ele>1035.729067</ele>
        <time>2019-10-08T06:55:28.502Z</time>
      </trkpt>
      <trkpt lat="44.52825" lon="3.63955">
        <ele>1037.128224</ele>
        <time>2019-10-08T06:55:42.179Z</time>
      </trkpt>
      <trkpt lat="44.5281" lon="3.63933">
        <ele>1038.775383</ele>
        <time>2019-10-08T06:55:55.271Z</time>
      </trkpt>
      <trkpt lat="44.52796" lon="3.63901">
        <ele>1040.366825</ele>
        <time>2019-10-08T06:56:11.665Z</time>
      </trkpt>
      <trkpt lat="44.52797" lon="3.6383">
        <ele>1041.874477</ele>
        <time>2019-10-08T06:56:40.190Z</time>
      </trkpt>
      <trkpt lat="44.52785" lon="3.63713">
        <ele>1044.363335</ele>
        <time>2019-10-08T06:57:20.630Z</time>
      </trkpt>
      <trkpt lat="44.52775" lon="3.63687">
        <ele>1045.006987</ele>
        <time>2019-10-08T06:57:30.379Z</time>
      </trkpt>
      <trkpt lat="44.52757" lon="3.63673">
        <ele>1045.639968</ele>
        <time>2019-10-08T06:57:39.702Z</time>
      </trkpt>
      <trkpt lat="44.52742" lon="3.63673">
        <ele>1046.174342</ele>
        <time>2019-10-08T06:57:46.696Z</time>
      </trkpt>
      <trkpt lat="44.52726" lon="3.63699">
        <ele>1047.067797</ele>
        <time>2019-10-08T06:57:58.740Z</time>
      </trkpt>
      <trkpt lat="44.52663" lon="3.63851">
        <ele>1051.548938</ele>
        <time>2019-10-08T06:59:07.083Z</time>
      </trkpt>
      <trkpt lat="44.52604" lon="3.63969">
        <ele>1059.346337</ele>
        <time>2019-10-08T07:00:20.163Z</time>
      </trkpt>
      <trkpt lat="44.52598" lon="3.63977">
        <ele>1059.989932</ele>
        <time>2019-10-08T07:00:26.903Z</time>
      </trkpt>
      <trkpt lat="44.52595" lon="3.63983">
        <ele>1060.376627</ele>
        <time>2019-10-08T07:00:32.522Z</time>
      </trkpt>
      <trkpt lat="44.5258" lon="3.64028">
        <ele>1063.171147</ele>
        <time>2019-10-08T07:01:01.210Z</time>
      </trkpt>
      <trkpt lat="44.52557" lon="3.64063">
        <ele>1065.868114</ele>
        <time>2019-10-08T07:01:30.106Z</time>
      </trkpt>
      <trkpt lat="44.52552" lon="3.6409">
        <ele>1068.080909</ele>
        <time>2019-10-08T07:01:47.714Z</time>
      </trkpt>
      <trkpt lat="44.52675" lon="3.64246">
        <ele>1086.964149</ele>
        <time>2019-10-08T07:04:27.752Z</time>
      </trkpt>
      <trkpt lat="44.52705" lon="3.64249">
        <ele>1090.090608</ele>
        <time>2019-10-08T07:04:56.142Z</time>
      </trkpt>
      <trkpt lat="44.52733" lon="3.6427">
        <ele>1093.476818</ele>
        <time>2019-10-08T07:05:26.566Z</time>
      </trkpt>
      <trkpt lat="44.52765" lon="3.64314">
        <ele>1098.167685</ele>
        <time>2019-10-08T07:06:07.497Z</time>
      </trkpt>
      <trkpt lat="44.52847" lon="3.6438">
        <ele>1107.391352</ele>
        <time>2019-10-08T07:07:28.324Z</time>
      </trkpt>
      <trkpt lat="44.5289" lon="3.64423">
        <ele>1111.200349</ele>
        <time>2019-10-08T07:08:08.086Z</time>
      </trkpt>
      <trkpt lat="44.52899" lon="3.64463">
        <ele>1113.403921</ele>
        <time>2019-10-08T07:08:29.797Z</time>
      </trkpt>
      <trkpt lat="44.52887" lon="3.64522">
        <ele>1116.629647</ele>
        <time>2019-10-08T07:09:00.426Z</time>
      </trkpt>
      <trkpt lat="44.52888" lon="3.64557">
        <ele>1118.424519</ele>
        <time>2019-10-08T07:09:16.901Z</time>
      </trkpt>
      <trkpt lat="44.52902" lon="3.6459">
        <ele>1120.148961</ele>
        <time>2019-10-08T07:09:34.993Z</time>
      </trkpt>
      <trkpt lat="44.5294" lon="3.64651">
        <ele>1123.604465</ele>
        <time>2019-10-08T07:10:12.128Z</time>
      </trkpt>
      <trkpt lat="44.52972" lon="3.64763">
        <ele>1128.802678</ele>
        <time>2019-10-08T07:11:09.996Z</time>
      </trkpt>
      <trkpt lat="44.53021" lon="3.64822">
        <ele>1133.234264</ele>
        <time>2019-10-08T07:11:56.419Z</time>
      </trkpt>
      <trkpt lat="44.53033" lon="3.64902">
        <ele>1137.394103</ele>
        <time>2019-10-08T07:12:40.026Z</time>
      </trkpt>
      <trkpt lat="44.53067" lon="3.64939">
        <ele>1140.431304</ele>
        <time>2019-10-08T07:13:11.860Z</time>
      </trkpt>
      <trkpt lat="44.5311" lon="3.64977">
        <ele>1143.587386</ele>
        <time>2019-10-08T07:13:48.689Z</time>
      </trkpt>
      <trkpt lat="44.53148" lon="3.64988">
        <ele>1145.588174</ele>
        <time>2019-10-08T07:14:14.956Z</time>
      </trkpt>
      <trkpt lat="44.5317" lon="3.6502">
        <ele>1147.264597</ele>
        <time>2019-10-08T07:14:35.255Z</time>
      </trkpt>
      <trkpt lat="44.53173" lon="3.65044">
        <ele>1148.205935</ele>
        <time>2019-10-08T07:14:45.955Z</time>
      </trkpt>
      <trkpt lat="44.53154" lon="3.65094">
        <ele>1150.302691</ele>
        <time>2019-10-08T07:15:09.707Z</time>
      </trkpt>
      <trkpt lat="44.53139" lon="3.65156">
        <ele>1152.389078</ele>
        <time>2019-10-08T07:15:35.887Z</time>
      </trkpt>
      <trkpt lat="44.53113" lon="3.65201">
        <ele>1153.746122</ele>
        <time>2019-10-08T07:15:57.909Z</time>
      </trkpt>
      <trkpt lat="44.53114" lon="3.65244">
        <ele>1154.774712</ele>
        <time>2019-10-08T07:16:14.235Z</time>
      </trkpt>
      <trkpt lat="44.53115" lon="3.65276">
        <ele>1155.553165</ele>
        <time>2019-10-08T07:16:26.884Z</time>
      </trkpt>
      <trkpt lat="44.53137" lon="3.65426">
        <ele>1158.911417</ele>
        <time>2019-10-08T07:17:24.186Z</time>
      </trkpt>
      <trkpt lat="44.53166" lon="3.6556">
        <ele>1161.635125</ele>
        <time>2019-10-08T07:18:16.087Z</time>
      </trkpt>
      <trkpt lat="44.53186" lon="3.65589">
        <ele>1162.413637</ele>
        <time>2019-10-08T07:18:29.603Z</time>
      </trkpt>
      <trkpt lat="44.53212" lon="3.65678">
        <ele>1164.16009</ele>
        <time>2019-10-08T07:19:00.303Z</time>
      </trkpt>
      <trkpt lat="44.5323" lon="3.65715">
        <ele>1164.949182</ele>
        <time>2019-10-08T07:19:15.236Z</time>
      </trkpt>
      <trkpt lat="44.53234" lon="3.65741">
        <ele>1165.426946</ele>
        <time>2019-10-08T07:19:24.846Z</time>
      </trkpt>
      <trkpt lat="44.53257" lon="3.65764">
        <ele>1166.12758</ele>
        <time>2019-10-08T07:19:39.175Z</time>
      </trkpt>
      <trkpt lat="44.53276" lon="3.65812">
        <ele>1167.110049</ele>
        <time>2019-10-08T07:20:00.143Z</time>
      </trkpt>
      <trkpt lat="44.53286" lon="3.6586">
        <ele>1168.865923</ele>
        <time>2019-10-08T07:20:20.216Z</time>
      </trkpt>
      <trkpt lat="44.53305" lon="3.65917">
        <ele>1171.109812</ele>
        <time>2019-10-08T07:20:47.508Z</time>
      </trkpt>
      <trkpt lat="44.53324" lon="3.65992">
        <ele>1173.955875</ele>
        <time>2019-10-08T07:21:24.609Z</time>
      </trkpt>
      <trkpt lat="44.53328" lon="3.66103">
        <ele>1177.612441</ele>
        <time>2019-10-08T07:22:18.600Z</time>
      </trkpt>
      <trkpt lat="44.53337" lon="3.66159">
        <ele>1179.302841</ele>
        <time>2019-10-08T07:22:43.349Z</time>
      </trkpt>
      <trkpt lat="44.53337" lon="3.66159">
        <ele>1179.302841</ele>
        <time>2019-10-08T07:22:43.651Z</time>
      </trkpt>
      <trkpt lat="44.53345" lon="3.66329">
        <ele>1184.075775</ele>
        <time>2019-10-08T07:23:47.749Z</time>
      </trkpt>
      <trkpt lat="44.53341" lon="3.66401">
        <ele>1185.403195</ele>
        <time>2019-10-08T07:24:10.905Z</time>
      </trkpt>
      <trkpt lat="44.53316" lon="3.66485">
        <ele>1187.060821</ele>
        <time>2019-10-08T07:24:42.560Z</time>
      </trkpt>
      <trkpt lat="44.5329" lon="3.66559">
        <ele>1188.895981</ele>
        <time>2019-10-08T07:25:12.652Z</time>
      </trkpt>
      <trkpt lat="44.53337" lon="3.66559">
        <ele>1191.30079</ele>
        <time>2019-10-08T07:25:39.470Z</time>
      </trkpt>
      <trkpt lat="44.53359" lon="3.66555">
        <ele>1192.482636</ele>
        <time>2019-10-08T07:25:52.549Z</time>
      </trkpt>
      <trkpt lat="44.5349" lon="3.6656">
        <ele>1199.423905</ele>
        <time>2019-10-08T07:27:24.023Z</time>
      </trkpt>
      <trkpt lat="44.53503" lon="3.66566">
        <ele>1200.197646</ele>
        <time>2019-10-08T07:27:32.976Z</time>
      </trkpt>
      <trkpt lat="44.53528" lon="3.66594">
        <ele>1202.026006</ele>
        <time>2019-10-08T07:27:54.621Z</time>
      </trkpt>
      <trkpt lat="44.53533" lon="3.66636">
        <ele>1203.728033</ele>
        <time>2019-10-08T07:28:14.447Z</time>
      </trkpt>
      <trkpt lat="44.53558" lon="3.66713">
        <ele>1207.164646</ele>
        <time>2019-10-08T07:28:53.217Z</time>
      </trkpt>
      <trkpt lat="44.53601" lon="3.66789">
        <ele>1209.246616</ele>
        <time>2019-10-08T07:29:34.588Z</time>
      </trkpt>
      <trkpt lat="44.53609" lon="3.66812">
        <ele>1209.706181</ele>
        <time>2019-10-08T07:29:44.003Z</time>
      </trkpt>
      <trkpt lat="44.53623" lon="3.66829">
        <ele>1210.180812</ele>
        <time>2019-10-08T07:29:53.095Z</time>
      </trkpt>
      <trkpt lat="44.53631" lon="3.66887">
        <ele>1211.258715</ele>
        <time>2019-10-08T07:30:12.442Z</time>
      </trkpt>
      <trkpt lat="44.53676" lon="3.66934">
        <ele>1212.121095</ele>
        <time>2019-10-08T07:30:35.105Z</time>
      </trkpt>
      <trkpt lat="44.53688" lon="3.66958">
        <ele>1211.782888</ele>
        <time>2019-10-08T07:30:42.832Z</time>
      </trkpt>
      <trkpt lat="44.53694" lon="3.66979">
        <ele>1211.519446</ele>
        <time>2019-10-08T07:30:48.653Z</time>
      </trkpt>
      <trkpt lat="44.53699" lon="3.67073">
        <ele>1210.457825</ele>
        <time>2019-10-08T07:31:10.578Z</time>
      </trkpt>
      <trkpt lat="44.53691" lon="3.67108">
        <ele>1210.04395</ele>
        <time>2019-10-08T07:31:18.765Z</time>
      </trkpt>
      <trkpt lat="44.53697" lon="3.67144">
        <ele>1209.615592</ele>
        <time>2019-10-08T07:31:27.098Z</time>
      </trkpt>
      <trkpt lat="44.53695" lon="3.67183">
        <ele>1209.240315</ele>
        <time>2019-10-08T07:31:35.667Z</time>
      </trkpt>
      <trkpt lat="44.53715" lon="3.6722">
        <ele>1208.838204</ele>
        <time>2019-10-08T07:31:45.777Z</time>
      </trkpt>
      <trkpt lat="44.53743" lon="3.67252">
        <ele>1208.393485</ele>
        <time>2019-10-08T07:31:57.190Z</time>
      </trkpt>
      <trkpt lat="44.5377" lon="3.67348">
        <ele>1207.482389</ele>
        <time>2019-10-08T07:32:23.851Z</time>
      </trkpt>
      <trkpt lat="44.53775" lon="3.67387">
        <ele>1207.536553</ele>
        <time>2019-10-08T07:32:35.275Z</time>
      </trkpt>
      <trkpt lat="44.53787" lon="3.67421">
        <ele>1208.338474</ele>
        <time>2019-10-08T07:32:47.843Z</time>
      </trkpt>
      <trkpt lat="44.53789" lon="3.67457">
        <ele>1209.10591</ele>
        <time>2019-10-08T07:33:00.398Z</time>
      </trkpt>
      <trkpt lat="44.53792" lon="3.67474">
        <ele>1209.493974</ele>
        <time>2019-10-08T07:33:07.260Z</time>
      </trkpt>
      <trkpt lat="44.53795" lon="3.67481">
        <ele>1209.660421</ele>
        <time>2019-10-08T07:33:09.938Z</time>
      </trkpt>
      <trkpt lat="44.53802" lon="3.67493">
        <ele>1209.993313</ele>
        <time>2019-10-08T07:33:16.364Z</time>
      </trkpt>
      <trkpt lat="44.53849" lon="3.6773">
        <ele>1215.523609</ele>
        <time>2019-10-08T07:34:57.187Z</time>
      </trkpt>
      <trkpt lat="44.53893" lon="3.67856">
        <ele>1218.787403</ele>
        <time>2019-10-08T07:35:48.274Z</time>
      </trkpt>
      <trkpt lat="44.53899" lon="3.67906">
        <ele>1219.59016</ele>
        <time>2019-10-08T07:36:05.213Z</time>
      </trkpt>
      <trkpt lat="44.53895" lon="3.6799">
        <ele>1220.94619</ele>
        <time>2019-10-08T07:36:34.839Z</time>
      </trkpt>
      <trkpt lat="44.53897" lon="3.68037">
        <ele>1221.709494</ele>
        <time>2019-10-08T07:36:51.235Z</time>
      </trkpt>
      <trkpt lat="44.53891" lon="3.68094">
        <ele>1222.631135</ele>
        <time>2019-10-08T07:37:11.144Z</time>
      </trkpt>
      <trkpt lat="44.53889" lon="3.68134">
        <ele>1222.768271</ele>
        <time>2019-10-08T07:37:23.994Z</time>
      </trkpt>
      <trkpt lat="44.539" lon="3.6813">
        <ele>1222.806638</ele>
        <time>2019-10-08T07:37:29.929Z</time>
      </trkpt>
      <trkpt lat="44.5391" lon="3.68142">
        <ele>1222.851389</ele>
        <time>2019-10-08T07:37:35.344Z</time>
      </trkpt>
      <trkpt lat="44.53948" lon="3.68237">
        <ele>1223.11839</ele>
        <time>2019-10-08T07:38:07.188Z</time>
      </trkpt>
      <trkpt lat="44.53977" lon="3.68291">
        <ele>1223.283334</ele>
        <time>2019-10-08T07:38:24.284Z</time>
      </trkpt>
      <trkpt lat="44.54008" lon="3.68342">
        <ele>1220.81861</ele>
        <time>2019-10-08T07:38:39.405Z</time>
      </trkpt>
      <trkpt lat="44.54061" lon="3.68403">
        <ele>1217.026744</ele>
        <time>2019-10-08T07:38:58.981Z</time>
      </trkpt>
      <trkpt lat="44.54107" lon="3.68445">
        <ele>1213.995078</ele>
        <time>2019-10-08T07:39:13.695Z</time>
      </trkpt>
      <trkpt lat="44.54128" lon="3.68471">
        <ele>1211.737205</ele>
        <time>2019-10-08T07:39:20.956Z</time>
      </trkpt>
      <trkpt lat="44.5416" lon="3.68495">
        <ele>1208.113375</ele>
        <time>2019-10-08T07:39:30.437Z</time>
      </trkpt>
      <trkpt lat="44.54241" lon="3.68527">
        <ele>1199.743931</ele>
        <time>2019-10-08T07:39:51.848Z</time>
      </trkpt>
      <trkpt lat="44.54254" lon="3.68541">
        <ele>1198.060423</ele>
        <time>2019-10-08T07:39:56.072Z</time>
      </trkpt>
      <trkpt lat="44.54281" lon="3.68632">
        <ele>1191.963392</ele>
        <time>2019-10-08T07:40:14.012Z</time>
      </trkpt>
      <trkpt lat="44.54281" lon="3.68632">
        <ele>1191.963392</ele>
        <time>2019-10-08T07:40:14.102Z</time>
      </trkpt>
      <trkpt lat="44.54289" lon="3.68687">
        <ele>1188.779813</ele>
        <time>2019-10-08T07:40:24.409Z</time>
      </trkpt>
      <trkpt lat="44.54282" lon="3.68757">
        <ele>1184.750105</ele>
        <time>2019-10-08T07:40:38.187Z</time>
      </trkpt>
      <trkpt lat="44.54278" lon="3.68801">
        <ele>1182.216333</ele>
        <time>2019-10-08T07:40:47.058Z</time>
      </trkpt>
      <trkpt lat="44.54263" lon="3.68836">
        <ele>1181.092706</ele>
        <time>2019-10-08T07:40:51.861Z</time>
      </trkpt>
      <trkpt lat="44.54257" lon="3.68854">
        <ele>1181.130462</ele>
        <time>2019-10-08T07:40:54.552Z</time>
      </trkpt>
      <trkpt lat="44.54249" lon="3.68885">
        <ele>1181.192417</ele>
        <time>2019-10-08T07:40:59.032Z</time>
      </trkpt>
      <trkpt lat="44.5424" lon="3.68931">
        <ele>1181.281129</ele>
        <time>2019-10-08T07:41:06.326Z</time>
      </trkpt>
      <trkpt lat="44.54206" lon="3.69019">
        <ele>1181.466544</ele>
        <time>2019-10-08T07:41:29.652Z</time>
      </trkpt>
      <trkpt lat="44.54183" lon="3.69079">
        <ele>1183.17171</ele>
        <time>2019-10-08T07:41:53.363Z</time>
      </trkpt>
      <trkpt lat="44.54162" lon="3.6914">
        <ele>1186.187509</ele>
        <time>2019-10-08T07:42:19.639Z</time>
      </trkpt>
      <trkpt lat="44.54152" lon="3.69201">
        <ele>1189.044254</ele>
        <time>2019-10-08T07:42:45.192Z</time>
      </trkpt>
      <trkpt lat="44.54151" lon="3.69367">
        <ele>1196.731129</ele>
        <time>2019-10-08T07:43:56.342Z</time>
      </trkpt>
      <trkpt lat="44.54128" lon="3.69468">
        <ele>1201.808081</ele>
        <time>2019-10-08T07:44:39.951Z</time>
      </trkpt>
      <trkpt lat="44.54128" lon="3.69487">
        <ele>1202.707688</ele>
        <time>2019-10-08T07:44:47.971Z</time>
      </trkpt>
      <trkpt lat="44.54123" lon="3.69559">
        <ele>1205.710997</ele>
        <time>2019-10-08T07:45:14.294Z</time>
      </trkpt>
      <trkpt lat="44.54114" lon="3.69644">
        <ele>1208.368536</ele>
        <time>2019-10-08T07:45:44.030Z</time>
      </trkpt>
      <trkpt lat="44.54082" lon="3.69772">
        <ele>1212.554364</ele>
        <time>2019-10-08T07:46:23.147Z</time>
      </trkpt>
      <trkpt lat="44.5407" lon="3.69845">
        <ele>1214.926044</ele>
        <time>2019-10-08T07:46:44.088Z</time>
      </trkpt>
      <trkpt lat="44.54039" lon="3.6995">
        <ele>1218.56059</ele>
        <time>2019-10-08T07:47:21.601Z</time>
      </trkpt>
      <trkpt lat="44.54025" lon="3.69978">
        <ele>1219.629919</ele>
        <time>2019-10-08T07:47:33.801Z</time>
      </trkpt>
      <trkpt lat="44.54009" lon="3.70006">
        <ele>1220.808275</ele>
        <time>2019-10-08T07:47:47.122Z</time>
      </trkpt>
      <trkpt lat="44.53997" lon="3.70036">
        <ele>1222.145426</ele>
        <time>2019-10-08T07:47:58.846Z</time>
      </trkpt>
      <trkpt lat="44.5399" lon="3.70068">
        <ele>1223.443863</ele>
        <time>2019-10-08T07:48:11.239Z</time>
      </trkpt>
      <trkpt lat="44.53989" lon="3.70108">
        <ele>1224.998273</ele>
        <time>2019-10-08T07:48:26.406Z</time>
      </trkpt>
      <trkpt lat="44.53994" lon="3.70197">
        <ele>1228.498745</ele>
        <time>2019-10-08T07:48:59.994Z</time>
      </trkpt>
      <trkpt lat="44.54007" lon="3.7028">
        <ele>1231.439497</ele>
        <time>2019-10-08T07:49:30.178Z</time>
      </trkpt>
      <trkpt lat="44.54014" lon="3.70372">
        <ele>1233.923957</ele>
        <time>2019-10-08T07:49:57.990Z</time>
      </trkpt>
      <trkpt lat="44.54023" lon="3.7042">
        <ele>1235.254079</ele>
        <time>2019-10-08T07:50:11.690Z</time>
      </trkpt>
      <trkpt lat="44.54035" lon="3.70466">
        <ele>1236.552223</ele>
        <time>2019-10-08T07:50:24.984Z</time>
      </trkpt>
      <trkpt lat="44.54043" lon="3.70505">
        <ele>1237.634297</ele>
        <time>2019-10-08T07:50:36.230Z</time>
      </trkpt>
      <trkpt lat="44.54075" lon="3.70565">
        <ele>1239.539495</ele>
        <time>2019-10-08T07:50:57.006Z</time>
      </trkpt>
      <trkpt lat="44.54083" lon="3.706">
        <ele>1240.466187</ele>
        <time>2019-10-08T07:51:07.369Z</time>
      </trkpt>
      <trkpt lat="44.54113" lon="3.70749">
        <ele>1244.577627</ele>
        <time>2019-10-08T07:51:53.613Z</time>
      </trkpt>
      <trkpt lat="44.54133" lon="3.70816">
        <ele>1247.035953</ele>
        <time>2019-10-08T07:52:17.826Z</time>
      </trkpt>
      <trkpt lat="44.54157" lon="3.70966">
        <ele>1252.209089</ele>
        <time>2019-10-08T07:53:11.167Z</time>
      </trkpt>
      <trkpt lat="44.5418" lon="3.71043">
        <ele>1254.978412</ele>
        <time>2019-10-08T07:53:39.700Z</time>
      </trkpt>
      <trkpt lat="44.54191" lon="3.71105">
        <ele>1257.138437</ele>
        <time>2019-10-08T07:54:01.380Z</time>
      </trkpt>
      <trkpt lat="44.54195" lon="3.71376">
        <ele>1265.240494</ele>
        <time>2019-10-08T07:55:28.301Z</time>
      </trkpt>
      <trkpt lat="44.54193" lon="3.71389">
        <ele>1265.603636</ele>
        <time>2019-10-08T07:55:32.154Z</time>
      </trkpt>
      <trkpt lat="44.54185" lon="3.71406">
        <ele>1266.170462</ele>
        <time>2019-10-08T07:55:37.993Z</time>
      </trkpt>
      <trkpt lat="44.5418" lon="3.71424">
        <ele>1266.690836</ele>
        <time>2019-10-08T07:55:43.638Z</time>
      </trkpt>
      <trkpt lat="44.54184" lon="3.71455">
        <ele>1267.567167</ele>
        <time>2019-10-08T07:55:52.327Z</time>
      </trkpt>
      <trkpt lat="44.5418" lon="3.71586">
        <ele>1269.355143</ele>
        <time>2019-10-08T07:56:25.616Z</time>
      </trkpt>
      <trkpt lat="44.5417" lon="3.71657">
        <ele>1270.327399</ele>
        <time>2019-10-08T07:56:41.812Z</time>
      </trkpt>
      <trkpt lat="44.54133" lon="3.71788">
        <ele>1271.718601</ele>
        <time>2019-10-08T07:57:06.816Z</time>
      </trkpt>
      <trkpt lat="44.54081" lon="3.71899">
        <ele>1272.782231</ele>
        <time>2019-10-08T07:57:33.716Z</time>
      </trkpt>
      <trkpt lat="44.54054" lon="3.71974">
        <ele>1274.155171</ele>
        <time>2019-10-08T07:57:54.173Z</time>
      </trkpt>
      <trkpt lat="44.5403" lon="3.72022">
        <ele>1275.40752</ele>
        <time>2019-10-08T07:58:11.274Z</time>
      </trkpt>
      <trkpt lat="44.54007" lon="3.72063">
        <ele>1276.520119</ele>
        <time>2019-10-08T07:58:27.046Z</time>
      </trkpt>
      <trkpt lat="44.53958" lon="3.72117">
        <ele>1278.366672</ele>
        <time>2019-10-08T07:58:51.760Z</time>
      </trkpt>
      <trkpt lat="44.53935" lon="3.72135">
        <ele>1278.547267</ele>
        <time>2019-10-08T07:59:01.804Z</time>
      </trkpt>
      <trkpt lat="44.53903" lon="3.72144">
        <ele>1278.748828</ele>
        <time>2019-10-08T07:59:13.154Z</time>
      </trkpt>
      <trkpt lat="44.53915" lon="3.7216">
        <ele>1278.848856</ele>
        <time>2019-10-08T07:59:17.562Z</time>
      </trkpt>
      <trkpt lat="44.53949" lon="3.72213">
        <ele>1279.16114</ele>
        <time>2019-10-08T07:59:31.326Z</time>
      </trkpt>
      <trkpt lat="44.53975" lon="3.72278">
        <ele>1279.481114</ele>
        <time>2019-10-08T07:59:42.189Z</time>
      </trkpt>
      <trkpt lat="44.54024" lon="3.72348">
        <ele>1277.237377</ele>
        <time>2019-10-08T07:59:54.850Z</time>
      </trkpt>
      <trkpt lat="44.54128" lon="3.7241">
        <ele>1273.590534</ele>
        <time>2019-10-08T08:00:14.456Z</time>
      </trkpt>
      <trkpt lat="44.54145" lon="3.7244">
        <ele>1272.755696</ele>
        <time>2019-10-08T08:00:19.281Z</time>
      </trkpt>
      <trkpt lat="44.5416" lon="3.72449">
        <ele>1272.259414</ele>
        <time>2019-10-08T08:00:22.160Z</time>
      </trkpt>
      <trkpt lat="44.54204" lon="3.72457">
        <ele>1270.896142</ele>
        <time>2019-10-08T08:00:30.127Z</time>
      </trkpt>
      <trkpt lat="44.54316" lon="3.72519">
        <ele>1267.84172</ele>
        <time>2019-10-08T08:00:52.274Z</time>
      </trkpt>
      <trkpt lat="44.54355" lon="3.72563">
        <ele>1267.268764</ele>
        <time>2019-10-08T08:01:02.235Z</time>
      </trkpt>
      <trkpt lat="44.54366" lon="3.72584">
        <ele>1267.049785</ele>
        <time>2019-10-08T08:01:06.175Z</time>
      </trkpt>
      <trkpt lat="44.54387" lon="3.72654">
        <ele>1266.430902</ele>
        <time>2019-10-08T08:01:17.744Z</time>
      </trkpt>
      <trkpt lat="44.54402" lon="3.72678">
        <ele>1266.173693</ele>
        <time>2019-10-08T08:01:22.771Z</time>
      </trkpt>
      <trkpt lat="44.54516" lon="3.72655">
        <ele>1267.172609</ele>
        <time>2019-10-08T08:01:52.993Z</time>
      </trkpt>
      <trkpt lat="44.54557" lon="3.72675">
        <ele>1267.576042</ele>
        <time>2019-10-08T08:02:06.347Z</time>
      </trkpt>
      <trkpt lat="44.54626" lon="3.72733">
        <ele>1268.355309</ele>
        <time>2019-10-08T08:02:32.445Z</time>
      </trkpt>
      <trkpt lat="44.5466" lon="3.72779">
        <ele>1268.822603</ele>
        <time>2019-10-08T08:02:48.255Z</time>
      </trkpt>
      <trkpt lat="44.54719" lon="3.72934">
        <ele>1268.607395</ele>
        <time>2019-10-08T08:03:17.195Z</time>
      </trkpt>
      <trkpt lat="44.54719" lon="3.72934">
        <ele>1268.607395</ele>
        <time>2019-10-08T08:03:17.232Z</time>
      </trkpt>
      <trkpt lat="44.54735" lon="3.72984">
        <ele>1267.821873</ele>
        <time>2019-10-08T08:03:24.564Z</time>
      </trkpt>
      <trkpt lat="44.5475" lon="3.72999">
        <ele>1267.462595</ele>
        <time>2019-10-08T08:03:27.865Z</time>
      </trkpt>
      <trkpt lat="44.54774" lon="3.73025">
        <ele>1266.840927</ele>
        <time>2019-10-08T08:03:33.452Z</time>
      </trkpt>
      <trkpt lat="44.54795" lon="3.73007">
        <ele>1266.347959</ele>
        <time>2019-10-08T08:03:40.888Z</time>
      </trkpt>
      <trkpt lat="44.5484" lon="3.72964">
        <ele>1265.351023</ele>
        <time>2019-10-08T08:03:57.604Z</time>
      </trkpt>
      <trkpt lat="44.54855" lon="3.72944">
        <ele>1264.987337</ele>
        <time>2019-10-08T08:04:03.866Z</time>
      </trkpt>
      <trkpt lat="44.54871" lon="3.72901">
        <ele>1264.387906</ele>
        <time>2019-10-08T08:04:14.464Z</time>
      </trkpt>
      <trkpt lat="44.55004" lon="3.72534">
        <ele>1262.434326</ele>
        <time>2019-10-08T08:06:01.657Z</time>
      </trkpt>
      <trkpt lat="44.55083" lon="3.72279">
        <ele>1261.712238</ele>
        <time>2019-10-08T08:07:14.907Z</time>
      </trkpt>
      <trkpt lat="44.55193" lon="3.72073">
        <ele>1259.282573</ele>
        <time>2019-10-08T08:08:16.146Z</time>
      </trkpt>
      <trkpt lat="44.55228" lon="3.72032">
        <ele>1258.539957</ele>
        <time>2019-10-08T08:08:30.994Z</time>
      </trkpt>
      <trkpt lat="44.55238" lon="3.72007">
        <ele>1258.215258</ele>
        <time>2019-10-08T08:08:37.531Z</time>
      </trkpt>
      <trkpt lat="44.55232" lon="3.71911">
        <ele>1257.092797</ele>
        <time>2019-10-08T08:09:00.554Z</time>
      </trkpt>
      <trkpt lat="44.55233" lon="3.71854">
        <ele>1256.722948</ele>
        <time>2019-10-08T08:09:14.580Z</time>
      </trkpt>
      <trkpt lat="44.55241" lon="3.71718">
        <ele>1255.851339</ele>
        <time>2019-10-08T08:09:48.893Z</time>
      </trkpt>
      <trkpt lat="44.55258" lon="3.71582">
        <ele>1254.426705</ele>
        <time>2019-10-08T08:10:23.482Z</time>
      </trkpt>
      <trkpt lat="44.55263" lon="3.71478">
        <ele>1253.050617</ele>
        <time>2019-10-08T08:10:48.179Z</time>
      </trkpt>
      <trkpt lat="44.55249" lon="3.71116">
        <ele>1244.883648</ele>
        <time>2019-10-08T08:12:07.068Z</time>
      </trkpt>
      <trkpt lat="44.55253" lon="3.71069">
        <ele>1243.546544</ele>
        <time>2019-10-08T08:12:17.163Z</time>
      </trkpt>
      <trkpt lat="44.55254" lon="3.71047">
        <ele>1242.926423</ele>
        <time>2019-10-08T08:12:21.803Z</time>
      </trkpt>
      <trkpt lat="44.55258" lon="3.71035">
        <ele>1242.530444</ele>
        <time>2019-10-08T08:12:24.790Z</time>
      </trkpt>
      <trkpt lat="44.55294" lon="3.70796">
        <ele>1235.172816</ele>
        <time>2019-10-08T08:13:16.379Z</time>
      </trkpt>
      <trkpt lat="44.55299" lon="3.70649">
        <ele>1230.474798</ele>
        <time>2019-10-08T08:13:46.858Z</time>
      </trkpt>
      <trkpt lat="44.55303" lon="3.70627">
        <ele>1229.964234</ele>
        <time>2019-10-08T08:13:51.532Z</time>
      </trkpt>
      <trkpt lat="44.55312" lon="3.70607">
        <ele>1229.400006</ele>
        <time>2019-10-08T08:13:56.510Z</time>
      </trkpt>
      <trkpt lat="44.55328" lon="3.70584">
        <ele>1228.65331</ele>
        <time>2019-10-08T08:14:03.320Z</time>
      </trkpt>
      <trkpt lat="44.55366" lon="3.70552">
        <ele>1227.219414</ele>
        <time>2019-10-08T08:14:16.531Z</time>
      </trkpt>
      <trkpt lat="44.5541" lon="3.70439">
        <ele>1224.990478</ele>
        <time>2019-10-08T08:14:45.913Z</time>
      </trkpt>
      <trkpt lat="44.55494" lon="3.70308">
        <ele>1225.894886</ele>
        <time>2019-10-08T08:15:38.825Z</time>
      </trkpt>
      <trkpt lat="44.55633" lon="3.70111">
        <ele>1229.7373</ele>
        <time>2019-10-08T08:17:15.894Z</time>
      </trkpt>
      <trkpt lat="44.55698" lon="3.70039">
        <ele>1230.823937</ele>
        <time>2019-10-08T08:17:54.172Z</time>
      </trkpt>
      <trkpt lat="44.55756" lon="3.6996">
        <ele>1231.691811</ele>
        <time>2019-10-08T08:18:28.290Z</time>
      </trkpt>
      <trkpt lat="44.55776" lon="3.69922">
        <ele>1232.055242</ele>
        <time>2019-10-08T08:18:41.741Z</time>
      </trkpt>
      <trkpt lat="44.55852" lon="3.69719">
        <ele>1230.569599</ele>
        <time>2019-10-08T08:19:38.587Z</time>
      </trkpt>
      <trkpt lat="44.55865" lon="3.69694">
        <ele>1230.298791</ele>
        <time>2019-10-08T08:19:45.815Z</time>
      </trkpt>
      <trkpt lat="44.55889" lon="3.69664">
        <ele>1229.607401</ele>
        <time>2019-10-08T08:19:56.406Z</time>
      </trkpt>
      <trkpt lat="44.56006" lon="3.69561">
        <ele>1226.658675</ele>
        <time>2019-10-08T08:20:40.491Z</time>
      </trkpt>
      <trkpt lat="44.56078" lon="3.69507">
        <ele>1224.614399</ele>
        <time>2019-10-08T08:21:06.698Z</time>
      </trkpt>
      <trkpt lat="44.56161" lon="3.69482">
        <ele>1222.443639</ele>
        <time>2019-10-08T08:21:33.592Z</time>
      </trkpt>
      <trkpt lat="44.56191" lon="3.69467">
        <ele>1221.533338</ele>
        <time>2019-10-08T08:21:43.394Z</time>
      </trkpt>
      <trkpt lat="44.56219" lon="3.69444">
        <ele>1220.48844</ele>
        <time>2019-10-08T08:21:53.412Z</time>
      </trkpt>
      <trkpt lat="44.56236" lon="3.6942">
        <ele>1219.718977</ele>
        <time>2019-10-08T08:22:00.872Z</time>
      </trkpt>
      <trkpt lat="44.56248" lon="3.69383">
        <ele>1218.799506</ele>
        <time>2019-10-08T08:22:09.589Z</time>
      </trkpt>
      <trkpt lat="44.56264" lon="3.69363">
        <ele>1218.109385</ele>
        <time>2019-10-08T08:22:15.926Z</time>
      </trkpt>
      <trkpt lat="44.56362" lon="3.69272">
        <ele>1215.071927</ele>
        <time>2019-10-08T08:22:52.641Z</time>
      </trkpt>
      <trkpt lat="44.56369" lon="3.6926">
        <ele>1214.860156</ele>
        <time>2019-10-08T08:22:55.858Z</time>
      </trkpt>
      <trkpt lat="44.56374" lon="3.69259">
        <ele>1214.755068</ele>
        <time>2019-10-08T08:22:56.869Z</time>
      </trkpt>
      <trkpt lat="44.5638" lon="3.69258">
        <ele>1214.637915</ele>
        <time>2019-10-08T08:22:58.031Z</time>
      </trkpt>
      <trkpt lat="44.56384" lon="3.69256">
        <ele>1214.56197</ele>
        <time>2019-10-08T08:22:58.787Z</time>
      </trkpt>
      <trkpt lat="44.56389" lon="3.69269">
        <ele>1214.35419</ele>
        <time>2019-10-08T08:23:02.518Z</time>
      </trkpt>
      <trkpt lat="44.56396" lon="3.69284">
        <ele>1214.101964</ele>
        <time>2019-10-08T08:23:06.559Z</time>
      </trkpt>
      <trkpt lat="44.56408" lon="3.69296">
        <ele>1213.817115</ele>
        <time>2019-10-08T08:23:11.736Z</time>
      </trkpt>
      <trkpt lat="44.56454" lon="3.69337">
        <ele>1212.742807</ele>
        <time>2019-10-08T08:23:30.249Z</time>
      </trkpt>
      <trkpt lat="44.5652" lon="3.69382">
        <ele>1212.010103</ele>
        <time>2019-10-08T08:23:56.436Z</time>
      </trkpt>
      <trkpt lat="44.56573" lon="3.69431">
        <ele>1211.400015</ele>
        <time>2019-10-08T08:24:18.570Z</time>
      </trkpt>
      <trkpt lat="44.56614" lon="3.69477">
        <ele>1210.822778</ele>
        <time>2019-10-08T08:24:36.569Z</time>
      </trkpt>
      <trkpt lat="44.56752" lon="3.69664">
        <ele>1207.501084</ele>
        <time>2019-10-08T08:25:39.513Z</time>
      </trkpt>
      <trkpt lat="44.5679" lon="3.69703">
        <ele>1206.806285</ele>
        <time>2019-10-08T08:25:54.883Z</time>
      </trkpt>
      <trkpt lat="44.5679" lon="3.69703">
        <ele>1206.806285</ele>
        <time>2019-10-08T08:25:54.891Z</time>
      </trkpt>
      <trkpt lat="44.56827" lon="3.69734">
        <ele>1206.159474</ele>
        <time>2019-10-08T08:26:09.377Z</time>
      </trkpt>
      <trkpt lat="44.5692" lon="3.69786">
        <ele>1204.949308</ele>
        <time>2019-10-08T08:26:43.467Z</time>
      </trkpt>
      <trkpt lat="44.56943" lon="3.69806">
        <ele>1204.796957</ele>
        <time>2019-10-08T08:26:52.781Z</time>
      </trkpt>
      <trkpt lat="44.57016" lon="3.69892">
        <ele>1204.249023</ele>
        <time>2019-10-08T08:27:27.037Z</time>
      </trkpt>
      <trkpt lat="44.57045" lon="3.69933">
        <ele>1204.108166</ele>
        <time>2019-10-08T08:27:42.157Z</time>
      </trkpt>
      <trkpt lat="44.57085" lon="3.70012">
        <ele>1204.187362</ele>
        <time>2019-10-08T08:28:07.638Z</time>
      </trkpt>
      <trkpt lat="44.57176" lon="3.70253">
        <ele>1204.778875</ele>
        <time>2019-10-08T08:29:23.390Z</time>
      </trkpt>
      <trkpt lat="44.57192" lon="3.70302">
        <ele>1204.96428</ele>
        <time>2019-10-08T08:29:38.736Z</time>
      </trkpt>
      <trkpt lat="44.57197" lon="3.7034">
        <ele>1205.101633</ele>
        <time>2019-10-08T08:29:49.592Z</time>
      </trkpt>
      <trkpt lat="44.57199" lon="3.70352">
        <ele>1205.143415</ele>
        <time>2019-10-08T08:29:53.504Z</time>
      </trkpt>
      <trkpt lat="44.57288" lon="3.70264">
        <ele>1205.726758</ele>
        <time>2019-10-08T08:30:37.127Z</time>
      </trkpt>
      <trkpt lat="44.57368" lon="3.70147">
        <ele>1206.380113</ele>
        <time>2019-10-08T08:31:22.163Z</time>
      </trkpt>
      <trkpt lat="44.57425" lon="3.70058">
        <ele>1206.912972</ele>
        <time>2019-10-08T08:31:56.651Z</time>
      </trkpt>
      <trkpt lat="44.57496" lon="3.70125">
        <ele>1207.453526</ele>
        <time>2019-10-08T08:32:31.697Z</time>
      </trkpt>
      <trkpt lat="44.57613" lon="3.70259">
        <ele>1208.459484</ele>
        <time>2019-10-08T08:33:33.326Z</time>
      </trkpt>
      <trkpt lat="44.5767" lon="3.70312">
        <ele>1208.316001</ele>
        <time>2019-10-08T08:33:59.148Z</time>
      </trkpt>
      <trkpt lat="44.57726" lon="3.70364">
        <ele>1208.163907</ele>
        <time>2019-10-08T08:34:23.497Z</time>
      </trkpt>
      <trkpt lat="44.57862" lon="3.70475">
        <ele>1206.961614</ele>
        <time>2019-10-08T08:35:17.986Z</time>
      </trkpt>
      <trkpt lat="44.57897" lon="3.70519">
        <ele>1206.489781</ele>
        <time>2019-10-08T08:35:34.173Z</time>
      </trkpt>
      <trkpt lat="44.57897" lon="3.70519">
        <ele>1206.489781</ele>
        <time>2019-10-08T08:35:34.182Z</time>
      </trkpt>
      <trkpt lat="44.57951" lon="3.70556">
        <ele>1206.006065</ele>
        <time>2019-10-08T08:35:54.733Z</time>
      </trkpt>
      <trkpt lat="44.57996" lon="3.70604">
        <ele>1205.601968</ele>
        <time>2019-10-08T08:36:14.456Z</time>
      </trkpt>
      <trkpt lat="44.58051" lon="3.70685">
        <ele>1205.033881</ele>
        <time>2019-10-08T08:36:43.005Z</time>
      </trkpt>
      <trkpt lat="44.58179" lon="3.70786">
        <ele>1204.872087</ele>
        <time>2019-10-08T08:37:37.293Z</time>
      </trkpt>
      <trkpt lat="44.58186" lon="3.70785">
        <ele>1204.866033</ele>
        <time>2019-10-08T08:37:39.683Z</time>
      </trkpt>
      <trkpt lat="44.58201" lon="3.70787">
        <ele>1204.852037</ele>
        <time>2019-10-08T08:37:45.325Z</time>
      </trkpt>
      <trkpt lat="44.58211" lon="3.70794">
        <ele>1204.842241</ele>
        <time>2019-10-08T08:37:49.357Z</time>
      </trkpt>
      <trkpt lat="44.58386" lon="3.70931">
        <ele>1204.579015</ele>
        <time>2019-10-08T08:39:02.452Z</time>
      </trkpt>
      <trkpt lat="44.58438" lon="3.70984">
        <ele>1204.890903</ele>
        <time>2019-10-08T08:39:26.594Z</time>
      </trkpt>
      <trkpt lat="44.58453" lon="3.70998">
        <ele>1204.978858</ele>
        <time>2019-10-08T08:39:33.437Z</time>
      </trkpt>
      <trkpt lat="44.58468" lon="3.7101">
        <ele>1205.061255</ele>
        <time>2019-10-08T08:39:40.100Z</time>
      </trkpt>
      <trkpt lat="44.58603" lon="3.71109">
        <ele>1207.084412</ele>
        <time>2019-10-08T08:40:45.521Z</time>
      </trkpt>
      <trkpt lat="44.5882" lon="3.712">
        <ele>1212.592295</ele>
        <time>2019-10-08T08:42:40.110Z</time>
      </trkpt>
      <trkpt lat="44.58889" lon="3.71235">
        <ele>1214.604624</ele>
        <time>2019-10-08T08:43:18.402Z</time>
      </trkpt>
      <trkpt lat="44.59043" lon="3.7134">
        <ele>1219.24614</ele>
        <time>2019-10-08T08:44:44.898Z</time>
      </trkpt>
      <trkpt lat="44.5906" lon="3.71358">
        <ele>1219.799439</ele>
        <time>2019-10-08T08:44:55.198Z</time>
      </trkpt>
      <trkpt lat="44.59075" lon="3.71386">
        <ele>1220.43792</ele>
        <time>2019-10-08T08:45:07.139Z</time>
      </trkpt>
      <trkpt lat="44.59083" lon="3.71398">
        <ele>1220.734463</ele>
        <time>2019-10-08T08:45:13.675Z</time>
      </trkpt>
      <trkpt lat="44.59083" lon="3.71407">
        <ele>1220.894822</ele>
        <time>2019-10-08T08:45:16.331Z</time>
      </trkpt>
      <trkpt lat="44.59083" lon="3.71422">
        <ele>1221.180518</ele>
        <time>2019-10-08T08:45:20.101Z</time>
      </trkpt>
      <trkpt lat="44.5908" lon="3.7144">
        <ele>1221.512363</ele>
        <time>2019-10-08T08:45:24.775Z</time>
      </trkpt>
      <trkpt lat="44.59093" lon="3.71446">
        <ele>1221.875659</ele>
        <time>2019-10-08T08:45:30.657Z</time>
      </trkpt>
      <trkpt lat="44.59112" lon="3.71462">
        <ele>1222.439924</ele>
        <time>2019-10-08T08:45:38.011Z</time>
      </trkpt>
      <trkpt lat="44.59148" lon="3.71508">
        <ele>1223.474899</ele>
        <time>2019-10-08T08:45:55.505Z</time>
      </trkpt>
      <trkpt lat="44.59157" lon="3.71527">
        <ele>1223.579299</ele>
        <time>2019-10-08T08:45:59.694Z</time>
      </trkpt>
      <trkpt lat="44.59155" lon="3.71549">
        <ele>1223.685948</ele>
        <time>2019-10-08T08:46:05.466Z</time>
      </trkpt>
      <trkpt lat="44.59168" lon="3.71562">
        <ele>1223.79014</ele>
        <time>2019-10-08T08:46:09.675Z</time>
      </trkpt>
      <trkpt lat="44.59177" lon="3.71572">
        <ele>1223.869986</ele>
        <time>2019-10-08T08:46:13.165Z</time>
      </trkpt>
      <trkpt lat="44.59171" lon="3.71598">
        <ele>1224.003586</ele>
        <time>2019-10-08T08:46:22.081Z</time>
      </trkpt>
      <trkpt lat="44.59155" lon="3.71642">
        <ele>1224.235824</ele>
        <time>2019-10-08T08:46:35.701Z</time>
      </trkpt>
      <trkpt lat="44.59142" lon="3.71686">
        <ele>1224.462573</ele>
        <time>2019-10-08T08:46:48.347Z</time>
      </trkpt>
      <trkpt lat="44.59116" lon="3.71823">
        <ele>1223.520831</ele>
        <time>2019-10-08T08:47:22.406Z</time>
      </trkpt>
      <trkpt lat="44.59111" lon="3.71875">
        <ele>1223.027605</ele>
        <time>2019-10-08T08:47:34.746Z</time>
      </trkpt>
      <trkpt lat="44.5912" lon="3.7191">
        <ele>1222.678085</ele>
        <time>2019-10-08T08:47:43.522Z</time>
      </trkpt>
      <trkpt lat="44.59141" lon="3.7194">
        <ele>1222.292419</ele>
        <time>2019-10-08T08:47:53.387Z</time>
      </trkpt>
      <trkpt lat="44.59231" lon="3.72025">
        <ele>1222.11981</ele>
        <time>2019-10-08T08:48:31.662Z</time>
      </trkpt>
      <trkpt lat="44.59253" lon="3.7206">
        <ele>1222.084929</ele>
        <time>2019-10-08T08:48:44.683Z</time>
      </trkpt>
      <trkpt lat="44.59261" lon="3.72195">
        <ele>1222.934559</ele>
        <time>2019-10-08T08:49:25.865Z</time>
      </trkpt>
      <trkpt lat="44.59259" lon="3.72208">
        <ele>1223.093876</ele>
        <time>2019-10-08T08:49:30.071Z</time>
      </trkpt>
      <trkpt lat="44.59227" lon="3.72248">
        <ele>1223.812476</ele>
        <time>2019-10-08T08:49:49.351Z</time>
      </trkpt>
      <trkpt lat="44.59226" lon="3.72262">
        <ele>1223.99233</ele>
        <time>2019-10-08T08:49:54.350Z</time>
      </trkpt>
      <trkpt lat="44.59237" lon="3.72369">
        <ele>1225.449721</ele>
        <time>2019-10-08T08:50:30.967Z</time>
      </trkpt>
      <trkpt lat="44.59251" lon="3.72446">
        <ele>1227.169166</ele>
        <time>2019-10-08T08:50:59.753Z</time>
      </trkpt>
      <trkpt lat="44.59249" lon="3.72527">
        <ele>1228.923066</ele>
        <time>2019-10-08T08:51:30.250Z</time>
      </trkpt>
      <trkpt lat="44.59273" lon="3.72568">
        <ele>1230.074304</ele>
        <time>2019-10-08T08:51:50.944Z</time>
      </trkpt>
      <trkpt lat="44.59284" lon="3.72604">
        <ele>1230.978547</ele>
        <time>2019-10-08T08:52:06.526Z</time>
      </trkpt>
      <trkpt lat="44.5929" lon="3.72736">
        <ele>1234.219579</ele>
        <time>2019-10-08T08:52:59.976Z</time>
      </trkpt>
      <trkpt lat="44.59288" lon="3.72816">
        <ele>1236.196203</ele>
        <time>2019-10-08T08:53:31.462Z</time>
      </trkpt>
      <trkpt lat="44.59291" lon="3.72858">
        <ele>1236.906399</ele>
        <time>2019-10-08T08:53:46.218Z</time>
      </trkpt>
      <trkpt lat="44.59313" lon="3.72952">
        <ele>1237.748933</ele>
        <time>2019-10-08T08:54:17.808Z</time>
      </trkpt>
      <trkpt lat="44.59314" lon="3.72969">
        <ele>1237.891679</ele>
        <time>2019-10-08T08:54:23.506Z</time>
      </trkpt>
      <trkpt lat="44.59317" lon="3.73002">
        <ele>1238.178788</ele>
        <time>2019-10-08T08:54:32.477Z</time>
      </trkpt>
      <trkpt lat="44.59322" lon="3.73029">
        <ele>1238.413537</ele>
        <time>2019-10-08T08:54:40.680Z</time>
      </trkpt>
      <trkpt lat="44.59331" lon="3.73044">
        <ele>1238.586933</ele>
        <time>2019-10-08T08:54:45.907Z</time>
      </trkpt>
      <trkpt lat="44.59379" lon="3.73071">
        <ele>1239.058983</ele>
        <time>2019-10-08T08:55:05.746Z</time>
      </trkpt>
      <trkpt lat="44.59418" lon="3.73119">
        <ele>1239.400358</ele>
        <time>2019-10-08T08:55:24.385Z</time>
      </trkpt>
      <trkpt lat="44.59442" lon="3.73213">
        <ele>1239.87182</ele>
        <time>2019-10-08T08:55:53.288Z</time>
      </trkpt>
      <trkpt lat="44.59486" lon="3.73297">
        <ele>1241.60464</ele>
        <time>2019-10-08T08:56:27.805Z</time>
      </trkpt>
      <trkpt lat="44.59489" lon="3.73327">
        <ele>1242.355425</ele>
        <time>2019-10-08T08:56:38.624Z</time>
      </trkpt>
      <trkpt lat="44.59482" lon="3.73352">
        <ele>1243.019347</ele>
        <time>2019-10-08T08:56:49.041Z</time>
      </trkpt>
      <trkpt lat="44.59437" lon="3.73415">
        <ele>1245.249774</ele>
        <time>2019-10-08T08:57:25.283Z</time>
      </trkpt>
      <trkpt lat="44.59435" lon="3.7343">
        <ele>1245.643248</ele>
        <time>2019-10-08T08:57:31.653Z</time>
      </trkpt>
      <trkpt lat="44.59441" lon="3.73499">
        <ele>1248.47676</ele>
        <time>2019-10-08T08:58:02.778Z</time>
      </trkpt>
      <trkpt lat="44.59441" lon="3.73499">
        <ele>1248.47676</ele>
        <time>2019-10-08T08:58:02.875Z</time>
      </trkpt>
      <trkpt lat="44.59446" lon="3.73518">
        <ele>1249.54906</ele>
        <time>2019-10-08T08:58:13.139Z</time>
      </trkpt>
      <trkpt lat="44.59454" lon="3.73551">
        <ele>1251.368267</ele>
        <time>2019-10-08T08:58:27.448Z</time>
      </trkpt>
      <trkpt lat="44.59446" lon="3.73578">
        <ele>1252.912883</ele>
        <time>2019-10-08T08:58:40.216Z</time>
      </trkpt>
      <trkpt lat="44.59438" lon="3.73599">
        <ele>1254.151148</ele>
        <time>2019-10-08T08:58:50.895Z</time>
      </trkpt>
      <trkpt lat="44.59432" lon="3.73617">
        <ele>1255.203127</ele>
        <time>2019-10-08T08:59:00.011Z</time>
      </trkpt>
      <trkpt lat="44.59419" lon="3.73654">
        <ele>1257.33232</ele>
        <time>2019-10-08T08:59:18.971Z</time>
      </trkpt>
      <trkpt lat="44.59409" lon="3.73686">
        <ele>1259.235649</ele>
        <time>2019-10-08T08:59:36.554Z</time>
      </trkpt>
      <trkpt lat="44.59396" lon="3.73743">
        <ele>1262.917793</ele>
        <time>2019-10-08T09:00:05.698Z</time>
      </trkpt>
      <trkpt lat="44.59394" lon="3.7375">
        <ele>1263.338255</ele>
        <time>2019-10-08T09:00:08.918Z</time>
      </trkpt>
      <trkpt lat="44.59396" lon="3.7376">
        <ele>1264.026915</ele>
        <time>2019-10-08T09:00:13.918Z</time>
      </trkpt>
      <trkpt lat="44.59354" lon="3.73794">
        <ele>1268.315926</ele>
        <time>2019-10-08T09:00:47.363Z</time>
      </trkpt>
      <trkpt lat="44.59312" lon="3.73826">
        <ele>1272.529633</ele>
        <time>2019-10-08T09:01:21.632Z</time>
      </trkpt>
      <trkpt lat="44.593" lon="3.73834">
        <ele>1273.706679</ele>
        <time>2019-10-08T09:01:31.072Z</time>
      </trkpt>
      <trkpt lat="44.59277" lon="3.73835">
        <ele>1275.633334</ele>
        <time>2019-10-08T09:01:45.286Z</time>
      </trkpt>
      <trkpt lat="44.59251" lon="3.73831">
        <ele>1276.960736</ele>
        <time>2019-10-08T09:01:59.426Z</time>
      </trkpt>
      <trkpt lat="44.59245" lon="3.73855">
        <ele>1277.881319</ele>
        <time>2019-10-08T09:02:10.576Z</time>
      </trkpt>
      <trkpt lat="44.59242" lon="3.73874">
        <ele>1278.620214</ele>
        <time>2019-10-08T09:02:18.415Z</time>
      </trkpt>
      <trkpt lat="44.59247" lon="3.73883">
        <ele>1279.041597</ele>
        <time>2019-10-08T09:02:22.935Z</time>
      </trkpt>
      <trkpt lat="44.59241" lon="3.73888">
        <ele>1279.393342</ele>
        <time>2019-10-08T09:02:27.116Z</time>
      </trkpt>
      <trkpt lat="44.59204" lon="3.73897">
        <ele>1281.364062</ele>
        <time>2019-10-08T09:02:47.395Z</time>
      </trkpt>
      <trkpt lat="44.59196" lon="3.73898">
        <ele>1281.779166</ele>
        <time>2019-10-08T09:02:51.619Z</time>
      </trkpt>
      <trkpt lat="44.59189" lon="3.73893">
        <ele>1282.148689</ele>
        <time>2019-10-08T09:02:54.159Z</time>
      </trkpt>
      <trkpt lat="44.59181" lon="3.73889">
        <ele>1282.603689</ele>
        <time>2019-10-08T09:02:57.348Z</time>
      </trkpt>
      <trkpt lat="44.59166" lon="3.73892">
        <ele>1283.364314</ele>
        <time>2019-10-08T09:03:04.266Z</time>
      </trkpt>
      <trkpt lat="44.59153" lon="3.73891">
        <ele>1284.04218</ele>
        <time>2019-10-08T09:03:09.393Z</time>
      </trkpt>
      <trkpt lat="44.59145" lon="3.7389">
        <ele>1284.457627</ele>
        <time>2019-10-08T09:03:12.321Z</time>
      </trkpt>
      <trkpt lat="44.59127" lon="3.73887">
        <ele>1284.892866</ele>
        <time>2019-10-08T09:03:20.939Z</time>
      </trkpt>
      <trkpt lat="44.59092" lon="3.73887">
        <ele>1285.231139</ele>
        <time>2019-10-08T09:03:33.641Z</time>
      </trkpt>
      <trkpt lat="44.59071" lon="3.73893">
        <ele>1285.446659</ele>
        <time>2019-10-08T09:03:38.651Z</time>
      </trkpt>
      <trkpt lat="44.59062" lon="3.73896">
        <ele>1285.535532</ele>
        <time>2019-10-08T09:03:42.806Z</time>
      </trkpt>
      <trkpt lat="44.58995" lon="3.73949">
        <ele>1286.293392</ele>
        <time>2019-10-08T09:04:11.859Z</time>
      </trkpt>
      <trkpt lat="44.58962" lon="3.73978">
        <ele>1286.278764</ele>
        <time>2019-10-08T09:04:25.945Z</time>
      </trkpt>
      <trkpt lat="44.58952" lon="3.73986">
        <ele>1286.05064</ele>
        <time>2019-10-08T09:04:29.845Z</time>
      </trkpt>
      <trkpt lat="44.58911" lon="3.7402">
        <ele>1285.13219</ele>
        <time>2019-10-08T09:04:46.294Z</time>
      </trkpt>
      <trkpt lat="44.58844" lon="3.74101">
        <ele>1283.416489</ele>
        <time>2019-10-08T09:05:14.543Z</time>
      </trkpt>
      <trkpt lat="44.58816" lon="3.74115">
        <ele>1282.56357</ele>
        <time>2019-10-08T09:05:23.443Z</time>
      </trkpt>
      <trkpt lat="44.58774" lon="3.74122">
        <ele>1280.608068</ele>
        <time>2019-10-08T09:05:36.278Z</time>
      </trkpt>
      <trkpt lat="44.5874" lon="3.74138">
        <ele>1278.985966</ele>
        <time>2019-10-08T09:05:46.727Z</time>
      </trkpt>
      <trkpt lat="44.58691" lon="3.74184">
        <ele>1276.330776</ele>
        <time>2019-10-08T09:06:03.616Z</time>
      </trkpt>
      <trkpt lat="44.58668" lon="3.74219">
        <ele>1274.764441</ele>
        <time>2019-10-08T09:06:13.299Z</time>
      </trkpt>
      <trkpt lat="44.58624" lon="3.7426">
        <ele>1271.57687</ele>
        <time>2019-10-08T09:06:28.290Z</time>
      </trkpt>
      <trkpt lat="44.58564" lon="3.74331">
        <ele>1266.856587</ele>
        <time>2019-10-08T09:06:50.224Z</time>
      </trkpt>
      <trkpt lat="44.58517" lon="3.74398">
        <ele>1262.694714</ele>
        <time>2019-10-08T09:07:08.843Z</time>
      </trkpt>
      <trkpt lat="44.5848" lon="3.74463">
        <ele>1258.841769</ele>
        <time>2019-10-08T09:07:25.020Z</time>
      </trkpt>
      <trkpt lat="44.58432" lon="3.74521">
        <ele>1254.649909</ele>
        <time>2019-10-08T09:07:42.598Z</time>
      </trkpt>
      <trkpt lat="44.58418" lon="3.74547">
        <ele>1253.174117</ele>
        <time>2019-10-08T09:07:48.680Z</time>
      </trkpt>
      <trkpt lat="44.5839" lon="3.74652">
        <ele>1249.346506</ele>
        <time>2019-10-08T09:08:11.420Z</time>
      </trkpt>
      <trkpt lat="44.5837" lon="3.74664">
        <ele>1248.415719</ele>
        <time>2019-10-08T09:08:17.737Z</time>
      </trkpt>
      <trkpt lat="44.58357" lon="3.74666">
        <ele>1247.802993</ele>
        <time>2019-10-08T09:08:21.756Z</time>
      </trkpt>
      <trkpt lat="44.5834" lon="3.74659">
        <ele>1247.050161</ele>
        <time>2019-10-08T09:08:27.171Z</time>
      </trkpt>
      <trkpt lat="44.58326" lon="3.74658">
        <ele>1246.416645</ele>
        <time>2019-10-08T09:08:31.252Z</time>
      </trkpt>
      <trkpt lat="44.58331" lon="3.74685">
        <ele>1245.551689</ele>
        <time>2019-10-08T09:08:35.082Z</time>
      </trkpt>
      <trkpt lat="44.58327" lon="3.74707">
        <ele>1244.830067</ele>
        <time>2019-10-08T09:08:37.881Z</time>
      </trkpt>
      <trkpt lat="44.58256" lon="3.74757">
        <ele>1243.207782</ele>
        <time>2019-10-08T09:08:53.026Z</time>
      </trkpt>
      <trkpt lat="44.58168" lon="3.74854">
        <ele>1241.300945</ele>
        <time>2019-10-08T09:09:16.067Z</time>
      </trkpt>
      <trkpt lat="44.58146" lon="3.74907">
        <ele>1240.731882</ele>
        <time>2019-10-08T09:09:24.795Z</time>
      </trkpt>
      <trkpt lat="44.58142" lon="3.74968">
        <ele>1240.172879</ele>
        <time>2019-10-08T09:09:33.237Z</time>
      </trkpt>
      <trkpt lat="44.58113" lon="3.75169">
        <ele>1239.099811</ele>
        <time>2019-10-08T09:10:03.385Z</time>
      </trkpt>
      <trkpt lat="44.5809" lon="3.75242">
        <ele>1239.222302</ele>
        <time>2019-10-08T09:10:16.957Z</time>
      </trkpt>
      <trkpt lat="44.5809" lon="3.75264">
        <ele>1239.255356</ele>
        <time>2019-10-08T09:10:20.964Z</time>
      </trkpt>
      <trkpt lat="44.58108" lon="3.75298">
        <ele>1239.321242</ele>
        <time>2019-10-08T09:10:29.591Z</time>
      </trkpt>
      <trkpt lat="44.58116" lon="3.75341">
        <ele>1239.594326</ele>
        <time>2019-10-08T09:10:39.294Z</time>
      </trkpt>
      <trkpt lat="44.58116" lon="3.75395">
        <ele>1240.547245</ele>
        <time>2019-10-08T09:10:52.191Z</time>
      </trkpt>
      <trkpt lat="44.58065" lon="3.75444">
        <ele>1242.077624</ele>
        <time>2019-10-08T09:11:14.597Z</time>
      </trkpt>
      <trkpt lat="44.58024" lon="3.75459">
        <ele>1243.140448</ele>
        <time>2019-10-08T09:11:30.767Z</time>
      </trkpt>
      <trkpt lat="44.57989" lon="3.75459">
        <ele>1244.056252</ele>
        <time>2019-10-08T09:11:44.266Z</time>
      </trkpt>
      <trkpt lat="44.57935" lon="3.75543">
        <ele>1246.554665</ele>
        <time>2019-10-08T09:12:15.571Z</time>
      </trkpt>
      <trkpt lat="44.57938" lon="3.75579">
        <ele>1247.370929</ele>
        <time>2019-10-08T09:12:25.816Z</time>
      </trkpt>
      <trkpt lat="44.57931" lon="3.75727">
        <ele>1250.519835</ele>
        <time>2019-10-08T09:13:06.709Z</time>
      </trkpt>
      <trkpt lat="44.57891" lon="3.75922">
        <ele>1254.444353</ele>
        <time>2019-10-08T09:13:59.770Z</time>
      </trkpt>
      <trkpt lat="44.57859" lon="3.75997">
        <ele>1255.675644</ele>
        <time>2019-10-08T09:14:21.032Z</time>
      </trkpt>
      <trkpt lat="44.57816" lon="3.76073">
        <ele>1257.027786</ele>
        <time>2019-10-08T09:14:43.519Z</time>
      </trkpt>
      <trkpt lat="44.57758" lon="3.7616">
        <ele>1258.521406</ele>
        <time>2019-10-08T09:15:10.355Z</time>
      </trkpt>
      <trkpt lat="44.57751" lon="3.76173">
        <ele>1258.689579</ele>
        <time>2019-10-08T09:15:13.826Z</time>
      </trkpt>
      <trkpt lat="44.57734" lon="3.76204">
        <ele>1259.096665</ele>
        <time>2019-10-08T09:15:22.223Z</time>
      </trkpt>
      <trkpt lat="44.57716" lon="3.76238">
        <ele>1259.553814</ele>
        <time>2019-10-08T09:15:31.598Z</time>
      </trkpt>
      <trkpt lat="44.57652" lon="3.76379">
        <ele>1261.250774</ele>
        <time>2019-10-08T09:16:24.147Z</time>
      </trkpt>
      <trkpt lat="44.57536" lon="3.76488">
        <ele>1263.209998</ele>
        <time>2019-10-08T09:17:24.266Z</time>
      </trkpt>
      <trkpt lat="44.57424" lon="3.76558">
        <ele>1266.080016</ele>
        <time>2019-10-08T09:18:21.243Z</time>
      </trkpt>
      <trkpt lat="44.5736" lon="3.76616">
        <ele>1268.478917</ele>
        <time>2019-10-08T09:19:02.405Z</time>
      </trkpt>
      <trkpt lat="44.57284" lon="3.76852">
        <ele>1276.640126</ele>
        <time>2019-10-08T09:20:57.788Z</time>
      </trkpt>
      <trkpt lat="44.57259" lon="3.76914">
        <ele>1278.361042</ele>
        <time>2019-10-08T09:21:27.798Z</time>
      </trkpt>
      <trkpt lat="44.5722" lon="3.76915">
        <ele>1279.709999</ele>
        <time>2019-10-08T09:21:48.872Z</time>
      </trkpt>
      <trkpt lat="44.57194" lon="3.76901">
        <ele>1280.652487</ele>
        <time>2019-10-08T09:22:02.482Z</time>
      </trkpt>
      <trkpt lat="44.57169" lon="3.76894">
        <ele>1281.539449</ele>
        <time>2019-10-08T09:22:14.419Z</time>
      </trkpt>
      <trkpt lat="44.5712" lon="3.76936">
        <ele>1281.863736</ele>
        <time>2019-10-08T09:22:38.432Z</time>
      </trkpt>
      <trkpt lat="44.57114" lon="3.76951">
        <ele>1281.901116</ele>
        <time>2019-10-08T09:22:42.868Z</time>
      </trkpt>
      <trkpt lat="44.57106" lon="3.76967">
        <ele>1281.941639</ele>
        <time>2019-10-08T09:22:48.027Z</time>
      </trkpt>
      <trkpt lat="44.57083" lon="3.77034">
        <ele>1282.099867</ele>
        <time>2019-10-08T09:23:07.189Z</time>
      </trkpt>
      <trkpt lat="44.57081" lon="3.77112">
        <ele>1282.365334</ele>
        <time>2019-10-08T09:23:27.167Z</time>
      </trkpt>
      <trkpt lat="44.57103" lon="3.77162">
        <ele>1283.092362</ele>
        <time>2019-10-08T09:23:43.285Z</time>
      </trkpt>
      <trkpt lat="44.57163" lon="3.77255">
        <ele>1284.635201</ele>
        <time>2019-10-08T09:24:23.572Z</time>
      </trkpt>
      <trkpt lat="44.57261" lon="3.77323">
        <ele>1287.984383</ele>
        <time>2019-10-08T09:25:25.072Z</time>
      </trkpt>
      <trkpt lat="44.57357" lon="3.77379">
        <ele>1292.041211</ele>
        <time>2019-10-08T09:26:26.994Z</time>
      </trkpt>
      <trkpt lat="44.57359" lon="3.77416">
        <ele>1292.435979</ele>
        <time>2019-10-08T09:26:41.524Z</time>
      </trkpt>
      <trkpt lat="44.57339" lon="3.77442">
        <ele>1292.524486</ele>
        <time>2019-10-08T09:26:55.041Z</time>
      </trkpt>
      <trkpt lat="44.57265" lon="3.77481">
        <ele>1292.783603</ele>
        <time>2019-10-08T09:27:28.624Z</time>
      </trkpt>
      <trkpt lat="44.57024" lon="3.77577">
        <ele>1286.603897</ele>
        <time>2019-10-08T09:28:45.531Z</time>
      </trkpt>
      <trkpt lat="44.57024" lon="3.77577">
        <ele>1286.603897</ele>
        <time>2019-10-08T09:28:45.545Z</time>
      </trkpt>
      <trkpt lat="44.56999" lon="3.77606">
        <ele>1285.534378</ele>
        <time>2019-10-08T09:28:55.178Z</time>
      </trkpt>
      <trkpt lat="44.56974" lon="3.77645">
        <ele>1284.336423</ele>
        <time>2019-10-08T09:29:06.078Z</time>
      </trkpt>
      <trkpt lat="44.56977" lon="3.77691">
        <ele>1283.281768</ele>
        <time>2019-10-08T09:29:15.799Z</time>
      </trkpt>
      <trkpt lat="44.57013" lon="3.77746">
        <ele>1281.551921</ele>
        <time>2019-10-08T09:29:32.275Z</time>
      </trkpt>
      <trkpt lat="44.57072" lon="3.7781">
        <ele>1281.775035</ele>
        <time>2019-10-08T09:29:59.127Z</time>
      </trkpt>
      <trkpt lat="44.57126" lon="3.77855">
        <ele>1282.278168</ele>
        <time>2019-10-08T09:30:28.147Z</time>
      </trkpt>
      <trkpt lat="44.57146" lon="3.7788">
        <ele>1282.486506</ele>
        <time>2019-10-08T09:30:41.261Z</time>
      </trkpt>
      <trkpt lat="44.57123" lon="3.77923">
        <ele>1282.739385</ele>
        <time>2019-10-08T09:30:59.457Z</time>
      </trkpt>
      <trkpt lat="44.57076" lon="3.77969">
        <ele>1282.97365</ele>
        <time>2019-10-08T09:31:17.834Z</time>
      </trkpt>
      <trkpt lat="44.56906" lon="3.78141">
        <ele>1281.981599</ele>
        <time>2019-10-08T09:32:03.173Z</time>
      </trkpt>
      <trkpt lat="44.56868" lon="3.78192">
        <ele>1281.239241</ele>
        <time>2019-10-08T09:32:12.980Z</time>
      </trkpt>
      <trkpt lat="44.56754" lon="3.78364">
        <ele>1277.372831</ele>
        <time>2019-10-08T09:32:44.131Z</time>
      </trkpt>
      <trkpt lat="44.5665" lon="3.78594">
        <ele>1273.229112</ele>
        <time>2019-10-08T09:33:21.182Z</time>
      </trkpt>
      <trkpt lat="44.56618" lon="3.78623">
        <ele>1272.421179</ele>
        <time>2019-10-08T09:33:28.692Z</time>
      </trkpt>
      <trkpt lat="44.5655" lon="3.78662">
        <ele>1270.785304</ele>
        <time>2019-10-08T09:33:42.934Z</time>
      </trkpt>
      <trkpt lat="44.56508" lon="3.78701">
        <ele>1269.668924</ele>
        <time>2019-10-08T09:33:52.443Z</time>
      </trkpt>
      <trkpt lat="44.56476" lon="3.78746">
        <ele>1268.617024</ele>
        <time>2019-10-08T09:34:00.851Z</time>
      </trkpt>
      <trkpt lat="44.56455" lon="3.78813">
        <ele>1266.572802</ele>
        <time>2019-10-08T09:34:10.198Z</time>
      </trkpt>
      <trkpt lat="44.56451" lon="3.78858">
        <ele>1265.300519</ele>
        <time>2019-10-08T09:34:15.846Z</time>
      </trkpt>
      <trkpt lat="44.5646" lon="3.78965">
        <ele>1262.275598</ele>
        <time>2019-10-08T09:34:28.977Z</time>
      </trkpt>
      <trkpt lat="44.56482" lon="3.79114">
        <ele>1257.049771</ele>
        <time>2019-10-08T09:34:47.134Z</time>
      </trkpt>
      <trkpt lat="44.56471" lon="3.79143">
        <ele>1255.880318</ele>
        <time>2019-10-08T09:34:51.058Z</time>
      </trkpt>
      <trkpt lat="44.56331" lon="3.79402">
        <ele>1244.271337</ele>
        <time>2019-10-08T09:35:29.593Z</time>
      </trkpt>
      <trkpt lat="44.56271" lon="3.79489">
        <ele>1239.761783</ele>
        <time>2019-10-08T09:35:43.880Z</time>
      </trkpt>
      <trkpt lat="44.56241" lon="3.7957">
        <ele>1236.310968</ele>
        <time>2019-10-08T09:35:54.678Z</time>
      </trkpt>
      <trkpt lat="44.56221" lon="3.79593">
        <ele>1234.929524</ele>
        <time>2019-10-08T09:35:58.975Z</time>
      </trkpt>
      <trkpt lat="44.56108" lon="3.79689">
        <ele>1227.100326</ele>
        <time>2019-10-08T09:36:20.393Z</time>
      </trkpt>
      <trkpt lat="44.56005" lon="3.79718">
        <ele>1220.30175</ele>
        <time>2019-10-08T09:36:37.268Z</time>
      </trkpt>
      <trkpt lat="44.55978" lon="3.79737">
        <ele>1218.219255</ele>
        <time>2019-10-08T09:36:41.955Z</time>
      </trkpt>
      <trkpt lat="44.55921" lon="3.79756">
        <ele>1214.14391</ele>
        <time>2019-10-08T09:36:51.073Z</time>
      </trkpt>
      <trkpt lat="44.55876" lon="3.79795">
        <ele>1210.449668</ele>
        <time>2019-10-08T09:36:59.324Z</time>
      </trkpt>
      <trkpt lat="44.55836" lon="3.7981">
        <ele>1207.527422</ele>
        <time>2019-10-08T09:37:05.862Z</time>
      </trkpt>
      <trkpt lat="44.55816" lon="3.79808">
        <ele>1206.190814</ele>
        <time>2019-10-08T09:37:08.857Z</time>
      </trkpt>
      <trkpt lat="44.55745" lon="3.7984">
        <ele>1200.93361</ele>
        <time>2019-10-08T09:37:20.720Z</time>
      </trkpt>
      <trkpt lat="44.55677" lon="3.79844">
        <ele>1196.377436</ele>
        <time>2019-10-08T09:37:31.559Z</time>
      </trkpt>
      <trkpt lat="44.55622" lon="3.79858">
        <ele>1192.869593</ele>
        <time>2019-10-08T09:37:40.560Z</time>
      </trkpt>
      <trkpt lat="44.55428" lon="3.79977">
        <ele>1178.706602</ele>
        <time>2019-10-08T09:38:14.471Z</time>
      </trkpt>
      <trkpt lat="44.55373" lon="3.79989">
        <ele>1174.770908</ele>
        <time>2019-10-08T09:38:23.087Z</time>
      </trkpt>
      <trkpt lat="44.55234" lon="3.80045">
        <ele>1160.63084</ele>
        <time>2019-10-08T09:38:44.698Z</time>
      </trkpt>
      <trkpt lat="44.55117" lon="3.80075">
        <ele>1147.978704</ele>
        <time>2019-10-08T09:39:02.063Z</time>
      </trkpt>
      <trkpt lat="44.55046" lon="3.8008">
        <ele>1140.117279</ele>
        <time>2019-10-08T09:39:12.464Z</time>
      </trkpt>
      <trkpt lat="44.54868" lon="3.80134">
        <ele>1121.652971</ele>
        <time>2019-10-08T09:39:39.315Z</time>
      </trkpt>
      <trkpt lat="44.54822" lon="3.80163">
        <ele>1117.535057</ele>
        <time>2019-10-08T09:39:47.036Z</time>
      </trkpt>
      <trkpt lat="44.54772" lon="3.80163">
        <ele>1115.094805</ele>
        <time>2019-10-08T09:39:54.685Z</time>
      </trkpt>
      <trkpt lat="44.54735" lon="3.8017">
        <ele>1113.265298</ele>
        <time>2019-10-08T09:40:00.781Z</time>
      </trkpt>
      <trkpt lat="44.54693" lon="3.80194">
        <ele>1111.002844</ele>
        <time>2019-10-08T09:40:09.123Z</time>
      </trkpt>
      <trkpt lat="44.54659" lon="3.80212">
        <ele>1109.924308</ele>
        <time>2019-10-08T09:40:16.753Z</time>
      </trkpt>
      <trkpt lat="44.54647" lon="3.80235">
        <ele>1110.596886</ele>
        <time>2019-10-08T09:40:21.798Z</time>
      </trkpt>
      <trkpt lat="44.54574" lon="3.80228">
        <ele>1113.058171</ele>
        <time>2019-10-08T09:40:47.288Z</time>
      </trkpt>
      <trkpt lat="44.54404" lon="3.80111">
        <ele>1123.072892</ele>
        <time>2019-10-08T09:42:28.496Z</time>
      </trkpt>
      <trkpt lat="44.54379" lon="3.80101">
        <ele>1124.838944</ele>
        <time>2019-10-08T09:42:42.849Z</time>
      </trkpt>
      <trkpt lat="44.54357" lon="3.80099">
        <ele>1126.262021</ele>
        <time>2019-10-08T09:42:56.000Z</time>
      </trkpt>
      <trkpt lat="44.54307" lon="3.80146">
        <ele>1130.616429</ele>
        <time>2019-10-08T09:43:33.037Z</time>
      </trkpt>
      <trkpt lat="44.54282" lon="3.80148">
        <ele>1132.423176</ele>
        <time>2019-10-08T09:43:47.018Z</time>
      </trkpt>
      <trkpt lat="44.54271" lon="3.80146">
        <ele>1133.242257</ele>
        <time>2019-10-08T09:43:54.342Z</time>
      </trkpt>
      <trkpt lat="44.54257" lon="3.80147">
        <ele>1134.320883</ele>
        <time>2019-10-08T09:44:02.843Z</time>
      </trkpt>
      <trkpt lat="44.54211" lon="3.80155">
        <ele>1137.784</ele>
        <time>2019-10-08T09:44:30.554Z</time>
      </trkpt>
      <trkpt lat="44.54174" lon="3.8017">
        <ele>1140.584617</ele>
        <time>2019-10-08T09:44:52.677Z</time>
      </trkpt>
      <trkpt lat="44.54166" lon="3.80175">
        <ele>1141.173002</ele>
        <time>2019-10-08T09:44:58.398Z</time>
      </trkpt>
      <trkpt lat="44.54161" lon="3.80187">
        <ele>1141.710636</ele>
        <time>2019-10-08T09:45:04.613Z</time>
      </trkpt>
      <trkpt lat="44.54161" lon="3.80197">
        <ele>1142.077987</ele>
        <time>2019-10-08T09:45:08.149Z</time>
      </trkpt>
      <trkpt lat="44.54165" lon="3.80204">
        <ele>1142.4328</ele>
        <time>2019-10-08T09:45:12.127Z</time>
      </trkpt>
      <trkpt lat="44.5419" lon="3.80223">
        <ele>1143.95046</ele>
        <time>2019-10-08T09:45:29.773Z</time>
      </trkpt>
      <trkpt lat="44.54206" lon="3.80226">
        <ele>1144.783575</ele>
        <time>2019-10-08T09:45:38.638Z</time>
      </trkpt>
      <trkpt lat="44.54228" lon="3.80227">
        <ele>1145.953616</ele>
        <time>2019-10-08T09:45:49.671Z</time>
      </trkpt>
      <trkpt lat="44.54241" lon="3.80241">
        <ele>1146.804921</ele>
        <time>2019-10-08T09:45:57.645Z</time>
      </trkpt>
      <trkpt lat="44.54242" lon="3.80251">
        <ele>1147.194418</ele>
        <time>2019-10-08T09:46:01.225Z</time>
      </trkpt>
      <trkpt lat="44.54236" lon="3.80266">
        <ele>1147.863307</ele>
        <time>2019-10-08T09:46:06.945Z</time>
      </trkpt>
      <trkpt lat="44.54211" lon="3.80275">
        <ele>1149.202327</ele>
        <time>2019-10-08T09:46:18.738Z</time>
      </trkpt>
      <trkpt lat="44.54187" lon="3.80281">
        <ele>1150.510252</ele>
        <time>2019-10-08T09:46:26.794Z</time>
      </trkpt>
      <trkpt lat="44.54191" lon="3.80282">
        <ele>1150.510085</ele>
        <time>2019-10-08T09:46:28.731Z</time>
      </trkpt>
      <trkpt lat="44.54196" lon="3.80284">
        <ele>1150.473148</ele>
        <time>2019-10-08T09:46:31.286Z</time>
      </trkpt>
      <trkpt lat="44.54223" lon="3.80287">
        <ele>1150.27708</ele>
        <time>2019-10-08T09:46:42.996Z</time>
      </trkpt>
      <trkpt lat="44.5429" lon="3.80319">
        <ele>1149.762776</ele>
        <time>2019-10-08T09:47:08.695Z</time>
      </trkpt>
      <trkpt lat="44.54299" lon="3.8033">
        <ele>1149.673443</ele>
        <time>2019-10-08T09:47:13.178Z</time>
      </trkpt>
      <trkpt lat="44.54318" lon="3.8034">
        <ele>1149.529764</ele>
        <time>2019-10-08T09:47:19.422Z</time>
      </trkpt>
      <trkpt lat="44.54389" lon="3.80361">
        <ele>1147.962565</ele>
        <time>2019-10-08T09:47:41.373Z</time>
      </trkpt>
      <trkpt lat="44.54419" lon="3.80377">
        <ele>1146.666862</ele>
        <time>2019-10-08T09:47:50.762Z</time>
      </trkpt>
      <trkpt lat="44.54459" lon="3.80411">
        <ele>1144.780729</ele>
        <time>2019-10-08T09:48:04.257Z</time>
      </trkpt>
      <trkpt lat="44.54516" lon="3.80508">
        <ele>1141.187783</ele>
        <time>2019-10-08T09:48:31.203Z</time>
      </trkpt>
      <trkpt lat="44.54534" lon="3.80584">
        <ele>1138.920451</ele>
        <time>2019-10-08T09:48:48.658Z</time>
      </trkpt>
      <trkpt lat="44.54535" lon="3.80591">
        <ele>1138.713131</ele>
        <time>2019-10-08T09:48:50.209Z</time>
      </trkpt>
      <trkpt lat="44.54534" lon="3.8061">
        <ele>1138.178291</ele>
        <time>2019-10-08T09:48:54.405Z</time>
      </trkpt>
      <trkpt lat="44.54535" lon="3.80701">
        <ele>1135.630933</ele>
        <time>2019-10-08T09:49:13.607Z</time>
      </trkpt>
      <trkpt lat="44.54514" lon="3.80865">
        <ele>1129.926973</ele>
        <time>2019-10-08T09:49:48.211Z</time>
      </trkpt>
      <trkpt lat="44.54514" lon="3.80865">
        <ele>1129.926973</ele>
        <time>2019-10-08T09:49:48.261Z</time>
      </trkpt>
      <trkpt lat="44.54514" lon="3.80945">
        <ele>1127.096821</ele>
        <time>2019-10-08T09:50:04.600Z</time>
      </trkpt>
      <trkpt lat="44.54508" lon="3.80972">
        <ele>1126.089338</ele>
        <time>2019-10-08T09:50:10.276Z</time>
      </trkpt>
      <trkpt lat="44.54458" lon="3.81024">
        <ele>1124.849497</ele>
        <time>2019-10-08T09:50:28.668Z</time>
      </trkpt>
      <trkpt lat="44.54392" lon="3.81077">
        <ele>1123.423016</ele>
        <time>2019-10-08T09:50:53.955Z</time>
      </trkpt>
      <trkpt lat="44.54375" lon="3.81102">
        <ele>1122.966632</ele>
        <time>2019-10-08T09:51:03.271Z</time>
      </trkpt>
      <trkpt lat="44.54372" lon="3.81118">
        <ele>1122.734298</ele>
        <time>2019-10-08T09:51:08.202Z</time>
      </trkpt>
      <trkpt lat="44.54376" lon="3.81135">
        <ele>1122.638261</ele>
        <time>2019-10-08T09:51:13.812Z</time>
      </trkpt>
      <trkpt lat="44.54388" lon="3.81144">
        <ele>1122.80353</ele>
        <time>2019-10-08T09:51:19.478Z</time>
      </trkpt>
      <trkpt lat="44.54458" lon="3.81169">
        <ele>1123.701259</ele>
        <time>2019-10-08T09:51:54.139Z</time>
      </trkpt>
      <trkpt lat="44.54494" lon="3.81227">
        <ele>1124.385113</ele>
        <time>2019-10-08T09:52:20.011Z</time>
      </trkpt>
      <trkpt lat="44.54511" lon="3.81293">
        <ele>1124.393586</ele>
        <time>2019-10-08T09:52:38.970Z</time>
      </trkpt>
      <trkpt lat="44.54496" lon="3.8133">
        <ele>1123.553736</ele>
        <time>2019-10-08T09:52:50.176Z</time>
      </trkpt>
      <trkpt lat="44.54482" lon="3.8138">
        <ele>1122.478128</ele>
        <time>2019-10-08T09:53:02.834Z</time>
      </trkpt>
      <trkpt lat="44.54484" lon="3.81387">
        <ele>1122.334274</ele>
        <time>2019-10-08T09:53:04.118Z</time>
      </trkpt>
      <trkpt lat="44.54501" lon="3.81405">
        <ele>1121.73693</ele>
        <time>2019-10-08T09:53:11.261Z</time>
      </trkpt>
      <trkpt lat="44.54511" lon="3.81431">
        <ele>1121.154544</ele>
        <time>2019-10-08T09:53:17.178Z</time>
      </trkpt>
      <trkpt lat="44.54561" lon="3.8146">
        <ele>1119.527363</ele>
        <time>2019-10-08T09:53:32.786Z</time>
      </trkpt>
      <trkpt lat="44.54605" lon="3.81508">
        <ele>1116.445435</ele>
        <time>2019-10-08T09:53:48.462Z</time>
      </trkpt>
      <trkpt lat="44.54619" lon="3.81513">
        <ele>1115.678298</ele>
        <time>2019-10-08T09:53:52.583Z</time>
      </trkpt>
      <trkpt lat="44.54622" lon="3.81517">
        <ele>1115.467897</ele>
        <time>2019-10-08T09:53:53.527Z</time>
      </trkpt>
      <trkpt lat="44.54617" lon="3.81523">
        <ele>1115.097526</ele>
        <time>2019-10-08T09:53:55.549Z</time>
      </trkpt>
      <trkpt lat="44.54609" lon="3.81532">
        <ele>1114.553262</ele>
        <time>2019-10-08T09:53:58.611Z</time>
      </trkpt>
      <trkpt lat="44.54604" lon="3.81539">
        <ele>1114.164121</ele>
        <time>2019-10-08T09:54:00.654Z</time>
      </trkpt>
      <trkpt lat="44.54618" lon="3.81535">
        <ele>1113.35453</ele>
        <time>2019-10-08T09:54:02.952Z</time>
      </trkpt>
      <trkpt lat="44.54657" lon="3.81521">
        <ele>1111.176914</ele>
        <time>2019-10-08T09:54:09.445Z</time>
      </trkpt>
      <trkpt lat="44.54692" lon="3.81519">
        <ele>1109.604008</ele>
        <time>2019-10-08T09:54:15.096Z</time>
      </trkpt>
      <trkpt lat="44.54739" lon="3.81539">
        <ele>1108.21676</ele>
        <time>2019-10-08T09:54:23.691Z</time>
      </trkpt>
      <trkpt lat="44.54749" lon="3.8154">
        <ele>1107.949855</ele>
        <time>2019-10-08T09:54:25.238Z</time>
      </trkpt>
      <trkpt lat="44.54764" lon="3.81534">
        <ele>1107.492866</ele>
        <time>2019-10-08T09:54:28.010Z</time>
      </trkpt>
      <trkpt lat="44.54774" lon="3.81528">
        <ele>1107.209623</ele>
        <time>2019-10-08T09:54:31.304Z</time>
      </trkpt>
      <trkpt lat="44.54786" lon="3.8152">
        <ele>1106.831122</ele>
        <time>2019-10-08T09:54:33.670Z</time>
      </trkpt>
      <trkpt lat="44.54793" lon="3.81516">
        <ele>1106.630403</ele>
        <time>2019-10-08T09:54:34.880Z</time>
      </trkpt>
      <trkpt lat="44.54802" lon="3.81492">
        <ele>1106.075849</ele>
        <time>2019-10-08T09:54:39.530Z</time>
      </trkpt>
      <trkpt lat="44.54825" lon="3.81464">
        <ele>1105.219379</ele>
        <time>2019-10-08T09:54:45.989Z</time>
      </trkpt>
      <trkpt lat="44.54849" lon="3.8145">
        <ele>1105.270364</ele>
        <time>2019-10-08T09:54:50.867Z</time>
      </trkpt>
      <trkpt lat="44.54858" lon="3.8146">
        <ele>1105.529169</ele>
        <time>2019-10-08T09:54:55.620Z</time>
      </trkpt>
      <trkpt lat="44.54898" lon="3.81505">
        <ele>1106.699015</ele>
        <time>2019-10-08T09:55:09.038Z</time>
      </trkpt>
      <trkpt lat="44.54912" lon="3.81529">
        <ele>1107.204162</ele>
        <time>2019-10-08T09:55:17.685Z</time>
      </trkpt>
      <trkpt lat="44.54976" lon="3.81544">
        <ele>1108.70687</ele>
        <time>2019-10-08T09:55:45.457Z</time>
      </trkpt>
      <trkpt lat="44.54983" lon="3.81553">
        <ele>1108.915023</ele>
        <time>2019-10-08T09:55:50.412Z</time>
      </trkpt>
      <trkpt lat="44.54976" lon="3.81558">
        <ele>1109.19124</ele>
        <time>2019-10-08T09:55:53.982Z</time>
      </trkpt>
      <trkpt lat="44.54939" lon="3.81559">
        <ele>1111.692369</ele>
        <time>2019-10-08T09:56:10.241Z</time>
      </trkpt>
      <trkpt lat="44.54916" lon="3.81581">
        <ele>1113.658807</ele>
        <time>2019-10-08T09:56:22.911Z</time>
      </trkpt>
      <trkpt lat="44.5492" lon="3.81599">
        <ele>1114.569801</ele>
        <time>2019-10-08T09:56:30.302Z</time>
      </trkpt>
      <trkpt lat="44.54946" lon="3.81611">
        <ele>1116.479959</ele>
        <time>2019-10-08T09:56:47.638Z</time>
      </trkpt>
      <trkpt lat="44.54938" lon="3.81655">
        <ele>1118.706136</ele>
        <time>2019-10-08T09:57:08.825Z</time>
      </trkpt>
      <trkpt lat="44.54949" lon="3.81745">
        <ele>1124.52163</ele>
        <time>2019-10-08T09:57:53.313Z</time>
      </trkpt>
      <trkpt lat="44.54955" lon="3.81754">
        <ele>1125.571884</ele>
        <time>2019-10-08T09:57:59.351Z</time>
      </trkpt>
      <trkpt lat="44.54966" lon="3.81769">
        <ele>1127.440186</ele>
        <time>2019-10-08T09:58:10.598Z</time>
      </trkpt>
      <trkpt lat="44.54985" lon="3.81794">
        <ele>1130.576575</ele>
        <time>2019-10-08T09:58:33.500Z</time>
      </trkpt>
      <trkpt lat="44.55074" lon="3.81915">
        <ele>1145.137339</ele>
        <time>2019-10-08T10:00:24.510Z</time>
      </trkpt>
      <trkpt lat="44.55081" lon="3.8193">
        <ele>1146.543947</ele>
        <time>2019-10-08T10:00:38.738Z</time>
      </trkpt>
      <trkpt lat="44.55089" lon="3.81953">
        <ele>1148.521605</ele>
        <time>2019-10-08T10:00:53.256Z</time>
      </trkpt>
      <trkpt lat="44.55096" lon="3.81998">
        <ele>1152.146989</ele>
        <time>2019-10-08T10:01:19.894Z</time>
      </trkpt>
      <trkpt lat="44.55097" lon="3.82018">
        <ele>1153.750665</ele>
        <time>2019-10-08T10:01:31.423Z</time>
      </trkpt>
      <trkpt lat="44.55098" lon="3.82044">
        <ele>1155.764709</ele>
        <time>2019-10-08T10:01:46.361Z</time>
      </trkpt>
      <trkpt lat="44.55089" lon="3.82249">
        <ele>1166.96729</ele>
        <time>2019-10-08T10:03:21.738Z</time>
      </trkpt>
      <trkpt lat="44.55106" lon="3.82408">
        <ele>1172.331697</ele>
        <time>2019-10-08T10:04:03.225Z</time>
      </trkpt>
      <trkpt lat="44.55119" lon="3.82448">
        <ele>1172.876473</ele>
        <time>2019-10-08T10:04:12.752Z</time>
      </trkpt>
      <trkpt lat="44.55124" lon="3.82459">
        <ele>1173.032188</ele>
        <time>2019-10-08T10:04:15.169Z</time>
      </trkpt>
      <trkpt lat="44.55137" lon="3.82459">
        <ele>1173.255576</ele>
        <time>2019-10-08T10:04:18.996Z</time>
      </trkpt>
      <trkpt lat="44.55158" lon="3.82457">
        <ele>1173.609051</ele>
        <time>2019-10-08T10:04:25.034Z</time>
      </trkpt>
      <trkpt lat="44.55166" lon="3.82458">
        <ele>1173.755974</ele>
        <time>2019-10-08T10:04:28.424Z</time>
      </trkpt>
      <trkpt lat="44.55162" lon="3.82475">
        <ele>1173.976658</ele>
        <time>2019-10-08T10:04:31.454Z</time>
      </trkpt>
      <trkpt lat="44.55159" lon="3.82485">
        <ele>1174.109871</ele>
        <time>2019-10-08T10:04:34.230Z</time>
      </trkpt>
      <trkpt lat="44.55163" lon="3.825">
        <ele>1174.303504</ele>
        <time>2019-10-08T10:04:37.930Z</time>
      </trkpt>
      <trkpt lat="44.5517" lon="3.82509">
        <ele>1174.477641</ele>
        <time>2019-10-08T10:04:40.723Z</time>
      </trkpt>
      <trkpt lat="44.55214" lon="3.82526">
        <ele>1175.346336</ele>
        <time>2019-10-08T10:04:54.753Z</time>
      </trkpt>
      <trkpt lat="44.55279" lon="3.82554">
        <ele>1177.330511</ele>
        <time>2019-10-08T10:05:18.163Z</time>
      </trkpt>
      <trkpt lat="44.5531" lon="3.82592">
        <ele>1178.524574</ele>
        <time>2019-10-08T10:05:35.182Z</time>
      </trkpt>
      <trkpt lat="44.55345" lon="3.82657">
        <ele>1180.207521</ele>
        <time>2019-10-08T10:06:00.282Z</time>
      </trkpt>
      <trkpt lat="44.55364" lon="3.8272">
        <ele>1180.991748</ele>
        <time>2019-10-08T10:06:18.729Z</time>
      </trkpt>
      <trkpt lat="44.5538" lon="3.82759">
        <ele>1181.469399</ele>
        <time>2019-10-08T10:06:29.620Z</time>
      </trkpt>
      <trkpt lat="44.55417" lon="3.82841">
        <ele>1182.508377</ele>
        <time>2019-10-08T10:06:49.738Z</time>
      </trkpt>
      <trkpt lat="44.55472" lon="3.82991">
        <ele>1182.026437</ele>
        <time>2019-10-08T10:07:15.579Z</time>
      </trkpt>
      <trkpt lat="44.5551" lon="3.83135">
        <ele>1180.676055</ele>
        <time>2019-10-08T10:07:37.122Z</time>
      </trkpt>
      <trkpt lat="44.55563" lon="3.83267">
        <ele>1178.752746</ele>
        <time>2019-10-08T10:07:58.093Z</time>
      </trkpt>
      <trkpt lat="44.55597" lon="3.83325">
        <ele>1177.809549</ele>
        <time>2019-10-08T10:08:08.537Z</time>
      </trkpt>
      <trkpt lat="44.55606" lon="3.83343">
        <ele>1177.534147</ele>
        <time>2019-10-08T10:08:11.688Z</time>
      </trkpt>
      <trkpt lat="44.5562" lon="3.83384">
        <ele>1177.00534</ele>
        <time>2019-10-08T10:08:17.981Z</time>
      </trkpt>
      <trkpt lat="44.55627" lon="3.83414">
        <ele>1176.630444</ele>
        <time>2019-10-08T10:08:22.492Z</time>
      </trkpt>
      <trkpt lat="44.55648" lon="3.83496">
        <ele>1175.593217</ele>
        <time>2019-10-08T10:08:34.816Z</time>
      </trkpt>
      <trkpt lat="44.55653" lon="3.8369">
        <ele>1173.225745</ele>
        <time>2019-10-08T10:09:01.993Z</time>
      </trkpt>
      <trkpt lat="44.55637" lon="3.83732">
        <ele>1172.63552</ele>
        <time>2019-10-08T10:09:08.620Z</time>
      </trkpt>
      <trkpt lat="44.55606" lon="3.8378">
        <ele>1171.829047</ele>
        <time>2019-10-08T10:09:17.652Z</time>
      </trkpt>
      <trkpt lat="44.55612" lon="3.83793">
        <ele>1171.636023</ele>
        <time>2019-10-08T10:09:21.202Z</time>
      </trkpt>
      <trkpt lat="44.55622" lon="3.8387">
        <ele>1170.610072</ele>
        <time>2019-10-08T10:09:39.770Z</time>
      </trkpt>
      <trkpt lat="44.55649" lon="3.8394">
        <ele>1169.577145</ele>
        <time>2019-10-08T10:09:58.215Z</time>
      </trkpt>
      <trkpt lat="44.55669" lon="3.84028">
        <ele>1168.371454</ele>
        <time>2019-10-08T10:10:20.093Z</time>
      </trkpt>
      <trkpt lat="44.55667" lon="3.84198">
        <ele>1166.125636</ele>
        <time>2019-10-08T10:11:00.034Z</time>
      </trkpt>
      <trkpt lat="44.55696" lon="3.84368">
        <ele>1163.294432</ele>
        <time>2019-10-08T10:11:41.057Z</time>
      </trkpt>
      <trkpt lat="44.55696" lon="3.84368">
        <ele>1163.294432</ele>
        <time>2019-10-08T10:11:41.093Z</time>
      </trkpt>
      <trkpt lat="44.55708" lon="3.84528">
        <ele>1160.261764</ele>
        <time>2019-10-08T10:12:16.837Z</time>
      </trkpt>
      <trkpt lat="44.55722" lon="3.84571">
        <ele>1159.070658</ele>
        <time>2019-10-08T10:12:27.218Z</time>
      </trkpt>
      <trkpt lat="44.55728" lon="3.84578">
        <ele>1158.810309</ele>
        <time>2019-10-08T10:12:29.506Z</time>
      </trkpt>
      <trkpt lat="44.55744" lon="3.84609">
        <ele>1157.843707</ele>
        <time>2019-10-08T10:12:37.891Z</time>
      </trkpt>
      <trkpt lat="44.55776" lon="3.8465">
        <ele>1156.320833</ele>
        <time>2019-10-08T10:12:50.983Z</time>
      </trkpt>
      <trkpt lat="44.55834" lon="3.84693">
        <ele>1153.993694</ele>
        <time>2019-10-08T10:13:10.730Z</time>
      </trkpt>
      <trkpt lat="44.55884" lon="3.84706">
        <ele>1152.549504</ele>
        <time>2019-10-08T10:13:25.787Z</time>
      </trkpt>
      <trkpt lat="44.55939" lon="3.84705">
        <ele>1150.975913</ele>
        <time>2019-10-08T10:13:43.043Z</time>
      </trkpt>
      <trkpt lat="44.55989" lon="3.84723">
        <ele>1149.516212</ele>
        <time>2019-10-08T10:13:59.395Z</time>
      </trkpt>
      <trkpt lat="44.56046" lon="3.84773">
        <ele>1148.200621</ele>
        <time>2019-10-08T10:14:21.287Z</time>
      </trkpt>
      <trkpt lat="44.56072" lon="3.84833">
        <ele>1147.485775</ele>
        <time>2019-10-08T10:14:38.428Z</time>
      </trkpt>
      <trkpt lat="44.56083" lon="3.84843">
        <ele>1147.309186</ele>
        <time>2019-10-08T10:14:42.732Z</time>
      </trkpt>
      <trkpt lat="44.56143" lon="3.84883">
        <ele>1146.36936</ele>
        <time>2019-10-08T10:15:05.520Z</time>
      </trkpt>
      <trkpt lat="44.56186" lon="3.84932">
        <ele>1144.907574</ele>
        <time>2019-10-08T10:15:24.629Z</time>
      </trkpt>
      <trkpt lat="44.56239" lon="3.84949">
        <ele>1143.328345</ele>
        <time>2019-10-08T10:15:43.016Z</time>
      </trkpt>
      <trkpt lat="44.56253" lon="3.84959">
        <ele>1142.880109</ele>
        <time>2019-10-08T10:15:47.723Z</time>
      </trkpt>
      <trkpt lat="44.56262" lon="3.84961">
        <ele>1142.605155</ele>
        <time>2019-10-08T10:15:49.243Z</time>
      </trkpt>
      <trkpt lat="44.56283" lon="3.84977">
        <ele>1141.921448</ele>
        <time>2019-10-08T10:15:53.298Z</time>
      </trkpt>
      <trkpt lat="44.56323" lon="3.85042">
        <ele>1139.442447</ele>
        <time>2019-10-08T10:16:03.290Z</time>
      </trkpt>
      <trkpt lat="44.56335" lon="3.85044">
        <ele>1138.810835</ele>
        <time>2019-10-08T10:16:05.333Z</time>
      </trkpt>
      <trkpt lat="44.56348" lon="3.85043">
        <ele>1138.131199</ele>
        <time>2019-10-08T10:16:07.373Z</time>
      </trkpt>
      <trkpt lat="44.56376" lon="3.85042">
        <ele>1136.655908</ele>
        <time>2019-10-08T10:16:12.104Z</time>
      </trkpt>
      <trkpt lat="44.56386" lon="3.85042">
        <ele>1136.168912</ele>
        <time>2019-10-08T10:16:13.512Z</time>
      </trkpt>
      <trkpt lat="44.56452" lon="3.85067">
        <ele>1132.578559</ele>
        <time>2019-10-08T10:16:24.849Z</time>
      </trkpt>
      <trkpt lat="44.56498" lon="3.85115">
        <ele>1131.2297</ele>
        <time>2019-10-08T10:16:34.404Z</time>
      </trkpt>
      <trkpt lat="44.56533" lon="3.85193">
        <ele>1130.520484</ele>
        <time>2019-10-08T10:16:47.931Z</time>
      </trkpt>
      <trkpt lat="44.56544" lon="3.85294">
        <ele>1129.73121</ele>
        <time>2019-10-08T10:17:08.724Z</time>
      </trkpt>
      <trkpt lat="44.56556" lon="3.85319">
        <ele>1130.260225</ele>
        <time>2019-10-08T10:17:14.865Z</time>
      </trkpt>
      <trkpt lat="44.56563" lon="3.85324">
        <ele>1130.45305</ele>
        <time>2019-10-08T10:17:18.088Z</time>
      </trkpt>
      <trkpt lat="44.56566" lon="3.85313">
        <ele>1130.688402</ele>
        <time>2019-10-08T10:17:20.874Z</time>
      </trkpt>
      <trkpt lat="44.56567" lon="3.85281">
        <ele>1131.311834</ele>
        <time>2019-10-08T10:17:28.056Z</time>
      </trkpt>
      <trkpt lat="44.56571" lon="3.85263">
        <ele>1131.692433</ele>
        <time>2019-10-08T10:17:33.542Z</time>
      </trkpt>
      <trkpt lat="44.56571" lon="3.85252">
        <ele>1131.907933</ele>
        <time>2019-10-08T10:17:36.059Z</time>
      </trkpt>
      <trkpt lat="44.56561" lon="3.85143">
        <ele>1134.04776</ele>
        <time>2019-10-08T10:18:04.887Z</time>
      </trkpt>
      <trkpt lat="44.56544" lon="3.85064">
        <ele>1136.983538</ele>
        <time>2019-10-08T10:18:32.642Z</time>
      </trkpt>
      <trkpt lat="44.56518" lon="3.85002">
        <ele>1140.252446</ele>
        <time>2019-10-08T10:18:58.434Z</time>
      </trkpt>
      <trkpt lat="44.56515" lon="3.84962">
        <ele>1142.099148</ele>
        <time>2019-10-08T10:19:14.274Z</time>
      </trkpt>
      <trkpt lat="44.5652" lon="3.84931">
        <ele>1143.514998</ele>
        <time>2019-10-08T10:19:27.884Z</time>
      </trkpt>
      <trkpt lat="44.56537" lon="3.84885">
        <ele>1145.842642</ele>
        <time>2019-10-08T10:19:56.295Z</time>
      </trkpt>
      <trkpt lat="44.56558" lon="3.84849">
        <ele>1149.427396</ele>
        <time>2019-10-08T10:20:24.133Z</time>
      </trkpt>
      <trkpt lat="44.56593" lon="3.84823">
        <ele>1153.793967</ele>
        <time>2019-10-08T10:20:58.960Z</time>
      </trkpt>
      <trkpt lat="44.56668" lon="3.84712">
        <ele>1165.941798</ele>
        <time>2019-10-08T10:22:45.252Z</time>
      </trkpt>
      <trkpt lat="44.56696" lon="3.84679">
        <ele>1170.936105</ele>
        <time>2019-10-08T10:23:23.334Z</time>
      </trkpt>
      <trkpt lat="44.56735" lon="3.84658">
        <ele>1176.574772</ele>
        <time>2019-10-08T10:24:07.850Z</time>
      </trkpt>
      <trkpt lat="44.56787" lon="3.84647">
        <ele>1183.887908</ele>
        <time>2019-10-08T10:25:05.625Z</time>
      </trkpt>
      <trkpt lat="44.56878" lon="3.8467">
        <ele>1196.067637</ele>
        <time>2019-10-08T10:26:45.014Z</time>
      </trkpt>
      <trkpt lat="44.57007" lon="3.84746">
        <ele>1213.638786</ele>
        <time>2019-10-08T10:29:03.074Z</time>
      </trkpt>
      <trkpt lat="44.571" lon="3.84761">
        <ele>1223.69964</ele>
        <time>2019-10-08T10:30:28.220Z</time>
      </trkpt>
      <trkpt lat="44.5712" lon="3.84769">
        <ele>1225.938518</ele>
        <time>2019-10-08T10:30:47.030Z</time>
      </trkpt>
      <trkpt lat="44.57259" lon="3.84927">
        <ele>1244.119691</ele>
        <time>2019-10-08T10:33:24.711Z</time>
      </trkpt>
      <trkpt lat="44.57301" lon="3.84958">
        <ele>1248.794203</ele>
        <time>2019-10-08T10:34:04.973Z</time>
      </trkpt>
      <trkpt lat="44.57322" lon="3.84965">
        <ele>1250.894939</ele>
        <time>2019-10-08T10:34:23.228Z</time>
      </trkpt>
      <trkpt lat="44.57355" lon="3.8497">
        <ele>1253.696929</ele>
        <time>2019-10-08T10:34:50.071Z</time>
      </trkpt>
      <trkpt lat="44.57413" lon="3.84967">
        <ele>1258.65819</ele>
        <time>2019-10-08T10:35:36.481Z</time>
      </trkpt>
      <trkpt lat="44.57604" lon="3.84895">
        <ele>1275.266723</ele>
        <time>2019-10-08T10:38:11.038Z</time>
      </trkpt>
      <trkpt lat="44.57661" lon="3.84894">
        <ele>1279.985451</ele>
        <time>2019-10-08T10:38:56.308Z</time>
      </trkpt>
      <trkpt lat="44.57695" lon="3.84884">
        <ele>1282.766541</ele>
        <time>2019-10-08T10:39:23.904Z</time>
      </trkpt>
      <trkpt lat="44.57755" lon="3.84867">
        <ele>1287.557225</ele>
        <time>2019-10-08T10:40:11.762Z</time>
      </trkpt>
      <trkpt lat="44.57802" lon="3.84854">
        <ele>1291.352971</ele>
        <time>2019-10-08T10:40:48.223Z</time>
      </trkpt>
      <trkpt lat="44.57802" lon="3.84855">
        <ele>1294.7</ele>
      </trkpt>
      <trkpt lat="44.57823" lon="3.8485">
        <ele>1297.1</ele>
      </trkpt>
      <trkpt lat="44.57847" lon="3.84841">
        <ele>1299.3</ele>
      </trkpt>
      <trkpt lat="44.57879" lon="3.84823">
        <ele>1301.9</ele>
      </trkpt>
      <trkpt lat="44.57905" lon="3.84808">
        <ele>1303.9</ele>
      </trkpt>
      <trkpt lat="44.57924" lon="3.84792">
        <ele>1304.4</ele>
      </trkpt>
      <trkpt lat="44.57936" lon="3.84782">
        <ele>1304.2</ele>
      </trkpt>
      <trkpt lat="44.57946" lon="3.84793">
        <ele>1304</ele>
      </trkpt>
      <trkpt lat="44.57967" lon="3.84819">
        <ele>1302.9</ele>
      </trkpt>
      <trkpt lat="44.57992" lon="3.84855">
        <ele>1301.9</ele>
      </trkpt>
      <trkpt lat="44.57996" lon="3.84862">
        <ele>1301.9</ele>
      </trkpt>
      <trkpt lat="44.58" lon="3.84878">
        <ele>1302.1</ele>
      </trkpt>
      <trkpt lat="44.58004" lon="3.84907">
        <ele>1302.5</ele>
      </trkpt>
      <trkpt lat="44.58004" lon="3.84935">
        <ele>1303.6</ele>
      </trkpt>
      <trkpt lat="44.58004" lon="3.84968">
        <ele>1305.1</ele>
      </trkpt>
      <trkpt lat="44.58005" lon="3.84988">
        <ele>1305.9</ele>
      </trkpt>
      <trkpt lat="44.58013" lon="3.85028">
        <ele>1306</ele>
      </trkpt>
      <trkpt lat="44.58021" lon="3.85069">
        <ele>1305.8</ele>
      </trkpt>
      <trkpt lat="44.58029" lon="3.85111">
        <ele>1305</ele>
      </trkpt>
      <trkpt lat="44.5804" lon="3.8516">
        <ele>1304</ele>
      </trkpt>
      <trkpt lat="44.58049" lon="3.85198">
        <ele>1303.6</ele>
      </trkpt>
      <trkpt lat="44.58059" lon="3.85228">
        <ele>1303.2</ele>
      </trkpt>
      <trkpt lat="44.58074" lon="3.85263">
        <ele>1302.6</ele>
      </trkpt>
      <trkpt lat="44.58087" lon="3.85293">
        <ele>1301.6</ele>
      </trkpt>
      <trkpt lat="44.58101" lon="3.85323">
        <ele>1299.7</ele>
      </trkpt>
      <trkpt lat="44.5812" lon="3.8536">
        <ele>1297.2</ele>
      </trkpt>
      <trkpt lat="44.58123" lon="3.85368">
        <ele>1296.8</ele>
      </trkpt>
      <trkpt lat="44.58133" lon="3.85397">
        <ele>1295.6</ele>
      </trkpt>
      <trkpt lat="44.58154" lon="3.8544">
        <ele>1294</ele>
      </trkpt>
      <trkpt lat="44.58166" lon="3.85468">
        <ele>1293.4</ele>
      </trkpt>
      <trkpt lat="44.58175" lon="3.85493">
        <ele>1292.4</ele>
      </trkpt>
      <trkpt lat="44.58183" lon="3.85518">
        <ele>1291.6</ele>
      </trkpt>
      <trkpt lat="44.58192" lon="3.8554">
        <ele>1290.8</ele>
      </trkpt>
      <trkpt lat="44.58212" lon="3.85579">
        <ele>1289.9</ele>
      </trkpt>
      <trkpt lat="44.58232" lon="3.8562">
        <ele>1289.3</ele>
      </trkpt>
      <trkpt lat="44.58241" lon="3.85635">
        <ele>1289.2</ele>
      </trkpt>
      <trkpt lat="44.58249" lon="3.85644">
        <ele>1289</ele>
      </trkpt>
      <trkpt lat="44.58257" lon="3.8565">
        <ele>1288.7</ele>
      </trkpt>
      <trkpt lat="44.58266" lon="3.85658">
        <ele>1288.4</ele>
      </trkpt>
      <trkpt lat="44.58291" lon="3.85678">
        <ele>1287.6</ele>
      </trkpt>
      <trkpt lat="44.58321" lon="3.857">
        <ele>1286.8</ele>
      </trkpt>
      <trkpt lat="44.58344" lon="3.85715">
        <ele>1285.3</ele>
      </trkpt>
      <trkpt lat="44.58355" lon="3.85719">
        <ele>1284</ele>
      </trkpt>
      <trkpt lat="44.58356" lon="3.85702">
        <ele>1283.5</ele>
      </trkpt>
      <trkpt lat="44.58357" lon="3.85688">
        <ele>1283</ele>
      </trkpt>
      <trkpt lat="44.58359" lon="3.85666">
        <ele>1282.2</ele>
      </trkpt>
      <trkpt lat="44.5836" lon="3.85644">
        <ele>1281.8</ele>
      </trkpt>
      <trkpt lat="44.58357" lon="3.85618">
        <ele>1281.6</ele>
      </trkpt>
      <trkpt lat="44.58348" lon="3.85589">
        <ele>1282.2</ele>
      </trkpt>
      <trkpt lat="44.58337" lon="3.85557">
        <ele>1281.7</ele>
      </trkpt>
      <trkpt lat="44.58326" lon="3.85521">
        <ele>1280.2</ele>
      </trkpt>
      <trkpt lat="44.58316" lon="3.85488">
        <ele>1279.9</ele>
      </trkpt>
      <trkpt lat="44.58303" lon="3.85442">
        <ele>1281</ele>
      </trkpt>
      <trkpt lat="44.58295" lon="3.8542">
        <ele>1281.3</ele>
      </trkpt>
      <trkpt lat="44.58283" lon="3.85391">
        <ele>1280.9</ele>
      </trkpt>
      <trkpt lat="44.58278" lon="3.85373">
        <ele>1280.2</ele>
      </trkpt>
      <trkpt lat="44.58276" lon="3.85363">
        <ele>1279.8</ele>
      </trkpt>
      <trkpt lat="44.58277" lon="3.85354">
        <ele>1279.3</ele>
      </trkpt>
      <trkpt lat="44.58279" lon="3.85342">
        <ele>1278.8</ele>
      </trkpt>
      <trkpt lat="44.58281" lon="3.85338">
        <ele>1278.6</ele>
      </trkpt>
      <trkpt lat="44.58283" lon="3.85334">
        <ele>1278.4</ele>
      </trkpt>
      <trkpt lat="44.58285" lon="3.85329">
        <ele>1278.4</ele>
      </trkpt>
      <trkpt lat="44.58288" lon="3.85322">
        <ele>1278.5</ele>
      </trkpt>
      <trkpt lat="44.58294" lon="3.85306">
        <ele>1278.7</ele>
      </trkpt>
      <trkpt lat="44.58296" lon="3.85295">
        <ele>1278.8</ele>
      </trkpt>
      <trkpt lat="44.58295" lon="3.85282">
        <ele>1278.9</ele>
      </trkpt>
      <trkpt lat="44.58292" lon="3.85257">
        <ele>1279</ele>
      </trkpt>
      <trkpt lat="44.58293" lon="3.85244">
        <ele>1279.7</ele>
      </trkpt>
      <trkpt lat="44.58297" lon="3.85232">
        <ele>1280.9</ele>
      </trkpt>
      <trkpt lat="44.58301" lon="3.85226">
        <ele>1281.4</ele>
      </trkpt>
      <trkpt lat="44.58305" lon="3.85224">
        <ele>1281.7</ele>
      </trkpt>
      <trkpt lat="44.58325" lon="3.85221">
        <ele>1281.8</ele>
      </trkpt>
      <trkpt lat="44.58334" lon="3.85225">
        <ele>1281.5</ele>
      </trkpt>
      <trkpt lat="44.58343" lon="3.85236">
        <ele>1281.6</ele>
      </trkpt>
      <trkpt lat="44.5835" lon="3.8525">
        <ele>1281.6</ele>
      </trkpt>
      <trkpt lat="44.58357" lon="3.85274">
        <ele>1282</ele>
      </trkpt>
      <trkpt lat="44.58363" lon="3.85295">
        <ele>1282.3</ele>
      </trkpt>
      <trkpt lat="44.58371" lon="3.85308">
        <ele>1282.9</ele>
      </trkpt>
      <trkpt lat="44.58385" lon="3.85325">
        <ele>1284</ele>
      </trkpt>
      <trkpt lat="44.58401" lon="3.8534">
        <ele>1285.1</ele>
      </trkpt>
      <trkpt lat="44.58412" lon="3.85347">
        <ele>1285.5</ele>
      </trkpt>
      <trkpt lat="44.58423" lon="3.85354">
        <ele>1285.7</ele>
      </trkpt>
      <trkpt lat="44.5844" lon="3.85371">
        <ele>1285.7</ele>
      </trkpt>
      <trkpt lat="44.58467" lon="3.85394">
        <ele>1286</ele>
      </trkpt>
      <trkpt lat="44.58485" lon="3.85407">
        <ele>1286.5</ele>
      </trkpt>
      <trkpt lat="44.58504" lon="3.85415">
        <ele>1287.3</ele>
      </trkpt>
      <trkpt lat="44.58544" lon="3.85422">
        <ele>1288.1</ele>
      </trkpt>
      <trkpt lat="44.58562" lon="3.85422">
        <ele>1288.8</ele>
      </trkpt>
      <trkpt lat="44.58581" lon="3.8542">
        <ele>1289.7</ele>
      </trkpt>
      <trkpt lat="44.58594" lon="3.85414">
        <ele>1290.9</ele>
      </trkpt>
      <trkpt lat="44.58608" lon="3.85404">
        <ele>1292.6</ele>
      </trkpt>
      <trkpt lat="44.58624" lon="3.85385">
        <ele>1295.1</ele>
      </trkpt>
      <trkpt lat="44.58649" lon="3.85356">
        <ele>1298.6</ele>
      </trkpt>
      <trkpt lat="44.58675" lon="3.85318">
        <ele>1302</ele>
      </trkpt>
      <trkpt lat="44.58712" lon="3.85268">
        <ele>1305.8</ele>
      </trkpt>
      <trkpt lat="44.58736" lon="3.85237">
        <ele>1307.8</ele>
      </trkpt>
      <trkpt lat="44.58763" lon="3.85203">
        <ele>1309.9</ele>
      </trkpt>
      <trkpt lat="44.58771" lon="3.85188">
        <ele>1310.8</ele>
      </trkpt>
      <trkpt lat="44.58789" lon="3.85148">
        <ele>1312.8</ele>
      </trkpt>
      <trkpt lat="44.58798" lon="3.85137">
        <ele>1313.6</ele>
      </trkpt>
      <trkpt lat="44.58828" lon="3.85111">
        <ele>1316.6</ele>
      </trkpt>
      <trkpt lat="44.5885" lon="3.8509">
        <ele>1318.8</ele>
      </trkpt>
      <trkpt lat="44.58867" lon="3.8507">
        <ele>1320</ele>
      </trkpt>
      <trkpt lat="44.58885" lon="3.85041">
        <ele>1321.1</ele>
      </trkpt>
      <trkpt lat="44.589" lon="3.85015">
        <ele>1322</ele>
      </trkpt>
      <trkpt lat="44.5891" lon="3.84999">
        <ele>1322.6</ele>
      </trkpt>
      <trkpt lat="44.58914" lon="3.84995">
        <ele>1322.9</ele>
      </trkpt>
      <trkpt lat="44.58919" lon="3.84995">
        <ele>1323.1</ele>
      </trkpt>
      <trkpt lat="44.58923" lon="3.84997">
        <ele>1323.3</ele>
      </trkpt>
      <trkpt lat="44.58944" lon="3.85012">
        <ele>1324.4</ele>
      </trkpt>
      <trkpt lat="44.58958" lon="3.85019">
        <ele>1325.2</ele>
      </trkpt>
      <trkpt lat="44.58966" lon="3.85023">
        <ele>1325.7</ele>
      </trkpt>
      <trkpt lat="44.58998" lon="3.85036">
        <ele>1327.8</ele>
      </trkpt>
      <trkpt lat="44.59027" lon="3.85046">
        <ele>1329.2</ele>
      </trkpt>
      <trkpt lat="44.59057" lon="3.85054">
        <ele>1330.6</ele>
      </trkpt>
      <trkpt lat="44.59095" lon="3.85063">
        <ele>1332.3</ele>
      </trkpt>
      <trkpt lat="44.59144" lon="3.85072">
        <ele>1334.4</ele>
      </trkpt>
      <trkpt lat="44.59166" lon="3.85079">
        <ele>1335.1</ele>
      </trkpt>
      <trkpt lat="44.59173" lon="3.85081">
        <ele>1335.1</ele>
      </trkpt>
      <trkpt lat="44.59183" lon="3.85084">
        <ele>1334.9</ele>
      </trkpt>
      <trkpt lat="44.59221" lon="3.85097">
        <ele>1333.6</ele>
      </trkpt>
      <trkpt lat="44.59253" lon="3.85106">
        <ele>1332.6</ele>
      </trkpt>
      <trkpt lat="44.5929" lon="3.85117">
        <ele>1333</ele>
      </trkpt>
      <trkpt lat="44.59297" lon="3.85122">
        <ele>1332.8</ele>
      </trkpt>
      <trkpt lat="44.59301" lon="3.85129">
        <ele>1332.2</ele>
      </trkpt>
      <trkpt lat="44.59305" lon="3.85146">
        <ele>1330.7</ele>
      </trkpt>
      <trkpt lat="44.59313" lon="3.85187">
        <ele>1327.1</ele>
      </trkpt>
      <trkpt lat="44.59323" lon="3.85215">
        <ele>1325.2</ele>
      </trkpt>
      <trkpt lat="44.5934" lon="3.85251">
        <ele>1323.6</ele>
      </trkpt>
      <trkpt lat="44.59361" lon="3.85289">
        <ele>1322.7</ele>
      </trkpt>
      <trkpt lat="44.59375" lon="3.85313">
        <ele>1322.1</ele>
      </trkpt>
      <trkpt lat="44.59393" lon="3.85342">
        <ele>1322</ele>
      </trkpt>
      <trkpt lat="44.59407" lon="3.85357">
        <ele>1323.2</ele>
      </trkpt>
      <trkpt lat="44.59423" lon="3.8537">
        <ele>1324.5</ele>
      </trkpt>
      <trkpt lat="44.59452" lon="3.85394">
        <ele>1326.7</ele>
      </trkpt>
      <trkpt lat="44.59475" lon="3.85411">
        <ele>1328.2</ele>
      </trkpt>
      <trkpt lat="44.59479" lon="3.854">
        <ele>1328.6</ele>
      </trkpt>
      <trkpt lat="44.59483" lon="3.85389">
        <ele>1329.1</ele>
      </trkpt>
      <trkpt lat="44.59492" lon="3.85357">
        <ele>1330.1</ele>
      </trkpt>
      <trkpt lat="44.59498" lon="3.85327">
        <ele>1331.2</ele>
      </trkpt>
      <trkpt lat="44.59502" lon="3.85297">
        <ele>1332.9</ele>
      </trkpt>
      <trkpt lat="44.59504" lon="3.85261">
        <ele>1334.6</ele>
      </trkpt>
      <trkpt lat="44.59503" lon="3.85238">
        <ele>1336</ele>
      </trkpt>
      <trkpt lat="44.59501" lon="3.85207">
        <ele>1338.4</ele>
      </trkpt>
      <trkpt lat="44.59497" lon="3.85182">
        <ele>1339.9</ele>
      </trkpt>
      <trkpt lat="44.5949" lon="3.85163">
        <ele>1340.8</ele>
      </trkpt>
      <trkpt lat="44.59477" lon="3.85131">
        <ele>1343.3</ele>
      </trkpt>
      <trkpt lat="44.59467" lon="3.85099">
        <ele>1345.9</ele>
      </trkpt>
      <trkpt lat="44.59456" lon="3.8506">
        <ele>1348.6</ele>
      </trkpt>
      <trkpt lat="44.59452" lon="3.85041">
        <ele>1349.9</ele>
      </trkpt>
      <trkpt lat="44.59452" lon="3.85023">
        <ele>1351.3</ele>
      </trkpt>
      <trkpt lat="44.59455" lon="3.84992">
        <ele>1353.3</ele>
      </trkpt>
      <trkpt lat="44.59459" lon="3.84963">
        <ele>1354.5</ele>
      </trkpt>
      <trkpt lat="44.59467" lon="3.84938">
        <ele>1355.7</ele>
      </trkpt>
      <trkpt lat="44.59479" lon="3.84901">
        <ele>1357</ele>
      </trkpt>
      <trkpt lat="44.59492" lon="3.84863">
        <ele>1357.6</ele>
      </trkpt>
      <trkpt lat="44.59506" lon="3.84823">
        <ele>1356.2</ele>
      </trkpt>
      <trkpt lat="44.5952" lon="3.84782">
        <ele>1353.1</ele>
      </trkpt>
      <trkpt lat="44.59532" lon="3.84746">
        <ele>1352.3</ele>
      </trkpt>
      <trkpt lat="44.59541" lon="3.8473">
        <ele>1351.8</ele>
      </trkpt>
      <trkpt lat="44.59553" lon="3.84708">
        <ele>1351.6</ele>
      </trkpt>
      <trkpt lat="44.59561" lon="3.84694">
        <ele>1352</ele>
      </trkpt>
      <trkpt lat="44.59566" lon="3.84687">
        <ele>1352.3</ele>
      </trkpt>
      <trkpt lat="44.5957" lon="3.84682">
        <ele>1352.6</ele>
      </trkpt>
      <trkpt lat="44.59582" lon="3.84673">
        <ele>1353.6</ele>
      </trkpt>
      <trkpt lat="44.5959" lon="3.84667">
        <ele>1354.1</ele>
      </trkpt>
      <trkpt lat="44.596" lon="3.8466">
        <ele>1354.2</ele>
      </trkpt>
      <trkpt lat="44.59602" lon="3.84659">
        <ele>1354.2</ele>
      </trkpt>
      <trkpt lat="44.59613" lon="3.84655">
        <ele>1354.4</ele>
      </trkpt>
      <trkpt lat="44.59635" lon="3.84645">
        <ele>1354.9</ele>
      </trkpt>
      <trkpt lat="44.5967" lon="3.84633">
        <ele>1355.9</ele>
      </trkpt>
      <trkpt lat="44.5968" lon="3.84622">
        <ele>1356.6</ele>
      </trkpt>
      <trkpt lat="44.59687" lon="3.8461">
        <ele>1357.4</ele>
      </trkpt>
      <trkpt lat="44.59698" lon="3.84588">
        <ele>1359.3</ele>
      </trkpt>
      <trkpt lat="44.59698" lon="3.84586">
        <ele>1359.5</ele>
      </trkpt>
      <trkpt lat="44.59706" lon="3.84564">
        <ele>1361.1</ele>
      </trkpt>
      <trkpt lat="44.5971" lon="3.84552">
        <ele>1362</ele>
      </trkpt>
      <trkpt lat="44.59721" lon="3.84536">
        <ele>1363.5</ele>
      </trkpt>
      <trkpt lat="44.59728" lon="3.84524">
        <ele>1364.5</ele>
      </trkpt>
      <trkpt lat="44.59729" lon="3.84523">
        <ele>1364.5</ele>
      </trkpt>
      <trkpt lat="44.59731" lon="3.84517">
        <ele>1365</ele>
      </trkpt>
      <trkpt lat="44.59735" lon="3.84505">
        <ele>1365.8</ele>
      </trkpt>
      <trkpt lat="44.59746" lon="3.84484">
        <ele>1367.9</ele>
      </trkpt>
      <trkpt lat="44.59753" lon="3.8447">
        <ele>1369.4</ele>
      </trkpt>
      <trkpt lat="44.59761" lon="3.84455">
        <ele>1371</ele>
      </trkpt>
      <trkpt lat="44.59775" lon="3.84438">
        <ele>1373.3</ele>
      </trkpt>
      <trkpt lat="44.59788" lon="3.84422">
        <ele>1375.4</ele>
      </trkpt>
      <trkpt lat="44.59808" lon="3.8439">
        <ele>1379.4</ele>
      </trkpt>
      <trkpt lat="44.5983" lon="3.84357">
        <ele>1383.8</ele>
      </trkpt>
      <trkpt lat="44.59841" lon="3.84344">
        <ele>1385.2</ele>
      </trkpt>
      <trkpt lat="44.5985" lon="3.84327">
        <ele>1386.6</ele>
      </trkpt>
      <trkpt lat="44.59854" lon="3.84314">
        <ele>1387.2</ele>
      </trkpt>
      <trkpt lat="44.59856" lon="3.84308">
        <ele>1387.5</ele>
      </trkpt>
      <trkpt lat="44.59859" lon="3.84283">
        <ele>1388.6</ele>
      </trkpt>
      <trkpt lat="44.59859" lon="3.84273">
        <ele>1389.1</ele>
      </trkpt>
      <trkpt lat="44.59855" lon="3.84257">
        <ele>1390.1</ele>
      </trkpt>
      <trkpt lat="44.59854" lon="3.84254">
        <ele>1390.3</ele>
      </trkpt>
      <trkpt lat="44.59849" lon="3.84239">
        <ele>1391.3</ele>
      </trkpt>
      <trkpt lat="44.59847" lon="3.84234">
        <ele>1391.7</ele>
      </trkpt>
      <trkpt lat="44.59839" lon="3.84216">
        <ele>1393.1</ele>
      </trkpt>
      <trkpt lat="44.59831" lon="3.84198">
        <ele>1394.5</ele>
      </trkpt>
      <trkpt lat="44.59825" lon="3.84181">
        <ele>1395.5</ele>
      </trkpt>
      <trkpt lat="44.59817" lon="3.84169">
        <ele>1396.3</ele>
      </trkpt>
      <trkpt lat="44.59815" lon="3.84166">
        <ele>1396.5</ele>
      </trkpt>
      <trkpt lat="44.59803" lon="3.84147">
        <ele>1397.2</ele>
      </trkpt>
      <trkpt lat="44.59797" lon="3.84132">
        <ele>1397.8</ele>
      </trkpt>
      <trkpt lat="44.59792" lon="3.84115">
        <ele>1398.5</ele>
      </trkpt>
      <trkpt lat="44.59783" lon="3.84081">
        <ele>1400.1</ele>
      </trkpt>
      <trkpt lat="44.59779" lon="3.84057">
        <ele>1401.4</ele>
      </trkpt>
      <trkpt lat="44.59775" lon="3.84028">
        <ele>1402.9</ele>
      </trkpt>
      <trkpt lat="44.59772" lon="3.84012">
        <ele>1403.9</ele>
      </trkpt>
      <trkpt lat="44.59768" lon="3.83997">
        <ele>1404.8</ele>
      </trkpt>
      <trkpt lat="44.59766" lon="3.83976">
        <ele>1405.6</ele>
      </trkpt>
      <trkpt lat="44.59765" lon="3.83948">
        <ele>1406.4</ele>
      </trkpt>
      <trkpt lat="44.59766" lon="3.83926">
        <ele>1406.9</ele>
      </trkpt>
      <trkpt lat="44.59766" lon="3.83905">
        <ele>1407</ele>
      </trkpt>
      <trkpt lat="44.59767" lon="3.83889">
        <ele>1406.6</ele>
      </trkpt>
      <trkpt lat="44.59771" lon="3.83872">
        <ele>1406.2</ele>
      </trkpt>
      <trkpt lat="44.59776" lon="3.83863">
        <ele>1406</ele>
      </trkpt>
      <trkpt lat="44.59781" lon="3.83851">
        <ele>1405.9</ele>
      </trkpt>
      <trkpt lat="44.59786" lon="3.83832">
        <ele>1405.9</ele>
      </trkpt>
      <trkpt lat="44.59792" lon="3.83802">
        <ele>1406.9</ele>
      </trkpt>
      <trkpt lat="44.59798" lon="3.83771">
        <ele>1408.3</ele>
      </trkpt>
      <trkpt lat="44.59806" lon="3.83733">
        <ele>1410.1</ele>
      </trkpt>
      <trkpt lat="44.59811" lon="3.83705">
        <ele>1411.3</ele>
      </trkpt>
      <trkpt lat="44.59812" lon="3.83685">
        <ele>1412</ele>
      </trkpt>
      <trkpt lat="44.59813" lon="3.83643">
        <ele>1412.5</ele>
      </trkpt>
      <trkpt lat="44.59813" lon="3.83596">
        <ele>1412.4</ele>
      </trkpt>
      <trkpt lat="44.59813" lon="3.8358">
        <ele>1412.3</ele>
      </trkpt>
      <trkpt lat="44.59809" lon="3.8354">
        <ele>1412.8</ele>
      </trkpt>
      <trkpt lat="44.59806" lon="3.83519">
        <ele>1413.2</ele>
      </trkpt>
      <trkpt lat="44.598" lon="3.83486">
        <ele>1413.7</ele>
      </trkpt>
      <trkpt lat="44.59789" lon="3.83435">
        <ele>1414.8</ele>
      </trkpt>
      <trkpt lat="44.5978" lon="3.83398">
        <ele>1416.2</ele>
      </trkpt>
      <trkpt lat="44.59774" lon="3.83374">
        <ele>1417.2</ele>
      </trkpt>
      <trkpt lat="44.59772" lon="3.83357">
        <ele>1417.9</ele>
      </trkpt>
      <trkpt lat="44.59768" lon="3.83327">
        <ele>1419.1</ele>
      </trkpt>
      <trkpt lat="44.59762" lon="3.83284">
        <ele>1421.4</ele>
      </trkpt>
      <trkpt lat="44.59759" lon="3.83257">
        <ele>1423.2</ele>
      </trkpt>
      <trkpt lat="44.59754" lon="3.83209">
        <ele>1427.2</ele>
      </trkpt>
      <trkpt lat="44.59748" lon="3.83179">
        <ele>1430.3</ele>
      </trkpt>
      <trkpt lat="44.59744" lon="3.83138">
        <ele>1432.7</ele>
      </trkpt>
      <trkpt lat="44.5974" lon="3.83099">
        <ele>1434.4</ele>
      </trkpt>
      <trkpt lat="44.59736" lon="3.83076">
        <ele>1435.3</ele>
      </trkpt>
      <trkpt lat="44.59731" lon="3.83062">
        <ele>1435.7</ele>
      </trkpt>
      <trkpt lat="44.59717" lon="3.83028">
        <ele>1437</ele>
      </trkpt>
      <trkpt lat="44.59714" lon="3.83021">
        <ele>1437.3</ele>
      </trkpt>
      <trkpt lat="44.59704" lon="3.82997">
        <ele>1438.4</ele>
      </trkpt>
      <trkpt lat="44.59697" lon="3.82984">
        <ele>1438.8</ele>
      </trkpt>
      <trkpt lat="44.59687" lon="3.82971">
        <ele>1439.6</ele>
      </trkpt>
      <trkpt lat="44.59681" lon="3.82962">
        <ele>1440.2</ele>
      </trkpt>
      <trkpt lat="44.59676" lon="3.82952">
        <ele>1440.6</ele>
      </trkpt>
      <trkpt lat="44.59667" lon="3.82932">
        <ele>1441.3</ele>
      </trkpt>
      <trkpt lat="44.5965" lon="3.82895">
        <ele>1440.1</ele>
      </trkpt>
      <trkpt lat="44.59642" lon="3.82877">
        <ele>1439.4</ele>
      </trkpt>
      <trkpt lat="44.5964" lon="3.82873">
        <ele>1439.3</ele>
      </trkpt>
      <trkpt lat="44.59637" lon="3.82863">
        <ele>1439</ele>
      </trkpt>
      <trkpt lat="44.59636" lon="3.82855">
        <ele>1438.8</ele>
      </trkpt>
      <trkpt lat="44.59637" lon="3.82848">
        <ele>1438.6</ele>
      </trkpt>
      <trkpt lat="44.59642" lon="3.82837">
        <ele>1438.5</ele>
      </trkpt>
      <trkpt lat="44.59651" lon="3.82821">
        <ele>1438.7</ele>
      </trkpt>
      <trkpt lat="44.59655" lon="3.8281">
        <ele>1439</ele>
      </trkpt>
      <trkpt lat="44.59657" lon="3.82802">
        <ele>1439.1</ele>
      </trkpt>
      <trkpt lat="44.5966" lon="3.8279">
        <ele>1439.3</ele>
      </trkpt>
      <trkpt lat="44.59662" lon="3.82766">
        <ele>1439.6</ele>
      </trkpt>
      <trkpt lat="44.59666" lon="3.82733">
        <ele>1440.2</ele>
      </trkpt>
      <trkpt lat="44.59671" lon="3.82697">
        <ele>1440.3</ele>
      </trkpt>
      <trkpt lat="44.59673" lon="3.82661">
        <ele>1440.7</ele>
      </trkpt>
      <trkpt lat="44.59675" lon="3.82651">
        <ele>1440.8</ele>
      </trkpt>
      <trkpt lat="44.59681" lon="3.82626">
        <ele>1440.8</ele>
      </trkpt>
      <trkpt lat="44.5969" lon="3.82593">
        <ele>1441</ele>
      </trkpt>
      <trkpt lat="44.59694" lon="3.82564">
        <ele>1441.5</ele>
      </trkpt>
      <trkpt lat="44.59695" lon="3.82534">
        <ele>1442.2</ele>
      </trkpt>
      <trkpt lat="44.59698" lon="3.82499">
        <ele>1442.9</ele>
      </trkpt>
      <trkpt lat="44.59699" lon="3.82478">
        <ele>1443.4</ele>
      </trkpt>
      <trkpt lat="44.59699" lon="3.8247">
        <ele>1443.6</ele>
      </trkpt>
      <trkpt lat="44.59699" lon="3.82469">
        <ele>1443.6</ele>
      </trkpt>
      <trkpt lat="44.59698" lon="3.82464">
        <ele>1443.8</ele>
      </trkpt>
      <trkpt lat="44.59695" lon="3.82458">
        <ele>1444</ele>
      </trkpt>
      <trkpt lat="44.5969" lon="3.82448">
        <ele>1444.4</ele>
      </trkpt>
      <trkpt lat="44.59687" lon="3.82436">
        <ele>1444.8</ele>
      </trkpt>
      <trkpt lat="44.59683" lon="3.82418">
        <ele>1445.4</ele>
      </trkpt>
      <trkpt lat="44.59682" lon="3.82403">
        <ele>1445.6</ele>
      </trkpt>
      <trkpt lat="44.59681" lon="3.8238">
        <ele>1445.9</ele>
      </trkpt>
      <trkpt lat="44.5968" lon="3.82364">
        <ele>1446</ele>
      </trkpt>
      <trkpt lat="44.59679" lon="3.82355">
        <ele>1446.2</ele>
      </trkpt>
      <trkpt lat="44.59674" lon="3.82335">
        <ele>1446.6</ele>
      </trkpt>
      <trkpt lat="44.59674" lon="3.82334">
        <ele>1446.6</ele>
      </trkpt>
      <trkpt lat="44.59667" lon="3.82305">
        <ele>1447.3</ele>
      </trkpt>
      <trkpt lat="44.59665" lon="3.82297">
        <ele>1447.4</ele>
      </trkpt>
      <trkpt lat="44.59663" lon="3.82287">
        <ele>1447.5</ele>
      </trkpt>
      <trkpt lat="44.59662" lon="3.82281">
        <ele>1447.6</ele>
      </trkpt>
      <trkpt lat="44.59658" lon="3.82259">
        <ele>1448</ele>
      </trkpt>
      <trkpt lat="44.59655" lon="3.82245">
        <ele>1448.3</ele>
      </trkpt>
      <trkpt lat="44.59649" lon="3.82229">
        <ele>1449</ele>
      </trkpt>
      <trkpt lat="44.59643" lon="3.82216">
        <ele>1449.5</ele>
      </trkpt>
      <trkpt lat="44.59638" lon="3.82204">
        <ele>1450</ele>
      </trkpt>
      <trkpt lat="44.59636" lon="3.82194">
        <ele>1450.4</ele>
      </trkpt>
      <trkpt lat="44.59631" lon="3.82168">
        <ele>1451.4</ele>
      </trkpt>
      <trkpt lat="44.59628" lon="3.82141">
        <ele>1452.4</ele>
      </trkpt>
      <trkpt lat="44.59624" lon="3.82114">
        <ele>1453.4</ele>
      </trkpt>
      <trkpt lat="44.59623" lon="3.82088">
        <ele>1454.4</ele>
      </trkpt>
      <trkpt lat="44.59621" lon="3.82068">
        <ele>1455.5</ele>
      </trkpt>
      <trkpt lat="44.5962" lon="3.82063">
        <ele>1455.8</ele>
      </trkpt>
      <trkpt lat="44.59619" lon="3.82058">
        <ele>1456.2</ele>
      </trkpt>
      <trkpt lat="44.59615" lon="3.82053">
        <ele>1456.6</ele>
      </trkpt>
      <trkpt lat="44.5961" lon="3.82046">
        <ele>1457.3</ele>
      </trkpt>
      <trkpt lat="44.59609" lon="3.82044">
        <ele>1457.5</ele>
      </trkpt>
      <trkpt lat="44.59607" lon="3.8204">
        <ele>1457.8</ele>
      </trkpt>
      <trkpt lat="44.59605" lon="3.82035">
        <ele>1458.2</ele>
      </trkpt>
      <trkpt lat="44.59603" lon="3.82028">
        <ele>1458.8</ele>
      </trkpt>
      <trkpt lat="44.59602" lon="3.82006">
        <ele>1460.3</ele>
      </trkpt>
      <trkpt lat="44.59601" lon="3.8198">
        <ele>1462.2</ele>
      </trkpt>
      <trkpt lat="44.596" lon="3.81971">
        <ele>1463</ele>
      </trkpt>
      <trkpt lat="44.59599" lon="3.81963">
        <ele>1463.6</ele>
      </trkpt>
      <trkpt lat="44.59591" lon="3.81939">
        <ele>1465.9</ele>
      </trkpt>
      <trkpt lat="44.59584" lon="3.81915">
        <ele>1468</ele>
      </trkpt>
      <trkpt lat="44.59578" lon="3.81899">
        <ele>1468</ele>
      </trkpt>
      <trkpt lat="44.59576" lon="3.81892">
        <ele>1468</ele>
      </trkpt>
      <trkpt lat="44.59571" lon="3.81886">
        <ele>1467.8</ele>
      </trkpt>
      <trkpt lat="44.59565" lon="3.81876">
        <ele>1467.8</ele>
      </trkpt>
      <trkpt lat="44.59557" lon="3.81859">
        <ele>1468</ele>
      </trkpt>
      <trkpt lat="44.59549" lon="3.81842">
        <ele>1468.3</ele>
      </trkpt>
      <trkpt lat="44.59545" lon="3.81829">
        <ele>1468.8</ele>
      </trkpt>
      <trkpt lat="44.59536" lon="3.81802">
        <ele>1470.1</ele>
      </trkpt>
      <trkpt lat="44.59529" lon="3.81776">
        <ele>1471.6</ele>
      </trkpt>
      <trkpt lat="44.59522" lon="3.81753">
        <ele>1472.8</ele>
      </trkpt>
      <trkpt lat="44.59504" lon="3.81708">
        <ele>1474.4</ele>
      </trkpt>
      <trkpt lat="44.5949" lon="3.81665">
        <ele>1475.8</ele>
      </trkpt>
      <trkpt lat="44.59484" lon="3.81643">
        <ele>1475.3</ele>
      </trkpt>
      <trkpt lat="44.59478" lon="3.81624">
        <ele>1475</ele>
      </trkpt>
      <trkpt lat="44.59469" lon="3.81596">
        <ele>1474.6</ele>
      </trkpt>
      <trkpt lat="44.59459" lon="3.81564">
        <ele>1472.9</ele>
      </trkpt>
      <trkpt lat="44.59453" lon="3.81538">
        <ele>1470.8</ele>
      </trkpt>
      <trkpt lat="44.59444" lon="3.81504">
        <ele>1468.3</ele>
      </trkpt>
      <trkpt lat="44.59439" lon="3.81474">
        <ele>1466.7</ele>
      </trkpt>
      <trkpt lat="44.59436" lon="3.81453">
        <ele>1465.6</ele>
      </trkpt>
      <trkpt lat="44.59436" lon="3.81431">
        <ele>1464.4</ele>
      </trkpt>
      <trkpt lat="44.59437" lon="3.81411">
        <ele>1463.4</ele>
      </trkpt>
      <trkpt lat="44.59442" lon="3.81385">
        <ele>1462.6</ele>
      </trkpt>
      <trkpt lat="44.59447" lon="3.81368">
        <ele>1462.1</ele>
      </trkpt>
      <trkpt lat="44.59449" lon="3.81358">
        <ele>1461.8</ele>
      </trkpt>
      <trkpt lat="44.5945" lon="3.81341">
        <ele>1461.4</ele>
      </trkpt>
      <trkpt lat="44.5945" lon="3.8132">
        <ele>1460.8</ele>
      </trkpt>
      <trkpt lat="44.59451" lon="3.81297">
        <ele>1460</ele>
      </trkpt>
      <trkpt lat="44.5945" lon="3.81273">
        <ele>1459.3</ele>
      </trkpt>
      <trkpt lat="44.59449" lon="3.81265">
        <ele>1459.2</ele>
      </trkpt>
      <trkpt lat="44.59445" lon="3.81259">
        <ele>1459.2</ele>
      </trkpt>
      <trkpt lat="44.59444" lon="3.81252">
        <ele>1459.1</ele>
      </trkpt>
      <trkpt lat="44.59444" lon="3.81242">
        <ele>1458.9</ele>
      </trkpt>
      <trkpt lat="44.59445" lon="3.81227">
        <ele>1458.6</ele>
      </trkpt>
      <trkpt lat="44.59444" lon="3.81217">
        <ele>1458.5</ele>
      </trkpt>
      <trkpt lat="44.5944" lon="3.81205">
        <ele>1458.6</ele>
      </trkpt>
      <trkpt lat="44.59434" lon="3.81194">
        <ele>1458.9</ele>
      </trkpt>
      <trkpt lat="44.59431" lon="3.81187">
        <ele>1459.1</ele>
      </trkpt>
      <trkpt lat="44.59427" lon="3.81179">
        <ele>1459.3</ele>
      </trkpt>
      <trkpt lat="44.59425" lon="3.81169">
        <ele>1459.4</ele>
      </trkpt>
      <trkpt lat="44.59422" lon="3.81154">
        <ele>1459.9</ele>
      </trkpt>
      <trkpt lat="44.59421" lon="3.81146">
        <ele>1460.2</ele>
      </trkpt>
      <trkpt lat="44.59416" lon="3.81064">
        <ele>1453.062792</ele>
        <time>2019-10-08T11:15:53.973Z</time>
      </trkpt>
      <trkpt lat="44.5939" lon="3.80964">
        <ele>1452.370964</ele>
        <time>2019-10-08T11:16:08.679Z</time>
      </trkpt>
      <trkpt lat="44.59387" lon="3.80941">
        <ele>1452.483692</ele>
        <time>2019-10-08T11:16:12.673Z</time>
      </trkpt>
      <trkpt lat="44.59391" lon="3.80846">
        <ele>1452.93952</ele>
        <time>2019-10-08T11:16:30.772Z</time>
      </trkpt>
      <trkpt lat="44.59389" lon="3.8067">
        <ele>1457.594664</ele>
        <time>2019-10-08T11:17:25.938Z</time>
      </trkpt>
      <trkpt lat="44.59355" lon="3.80507">
        <ele>1464.206989</ele>
        <time>2019-10-08T11:18:33.549Z</time>
      </trkpt>
      <trkpt lat="44.59327" lon="3.80453">
        <ele>1466.968123</ele>
        <time>2019-10-08T11:19:01.507Z</time>
      </trkpt>
      <trkpt lat="44.59304" lon="3.80422">
        <ele>1468.812925</ele>
        <time>2019-10-08T11:19:19.438Z</time>
      </trkpt>
      <trkpt lat="44.59216" lon="3.80348">
        <ele>1473.605871</ele>
        <time>2019-10-08T11:20:08.781Z</time>
      </trkpt>
      <trkpt lat="44.59168" lon="3.80286">
        <ele>1474.397349</ele>
        <time>2019-10-08T11:20:30.503Z</time>
      </trkpt>
      <trkpt lat="44.59153" lon="3.80216">
        <ele>1475.030561</ele>
        <time>2019-10-08T11:20:42.841Z</time>
      </trkpt>
      <trkpt lat="44.59113" lon="3.80084">
        <ele>1474.621897</ele>
        <time>2019-10-08T11:21:03.095Z</time>
      </trkpt>
      <trkpt lat="44.5908" lon="3.80015">
        <ele>1473.839077</ele>
        <time>2019-10-08T11:21:14.451Z</time>
      </trkpt>
      <trkpt lat="44.59039" lon="3.79963">
        <ele>1473.087878</ele>
        <time>2019-10-08T11:21:25.793Z</time>
      </trkpt>
      <trkpt lat="44.58952" lon="3.79808">
        <ele>1472.984529</ele>
        <time>2019-10-08T11:21:58.035Z</time>
      </trkpt>
      <trkpt lat="44.58938" lon="3.79775">
        <ele>1472.96533</ele>
        <time>2019-10-08T11:22:05.500Z</time>
      </trkpt>
      <trkpt lat="44.58931" lon="3.7973">
        <ele>1472.977716</ele>
        <time>2019-10-08T11:22:13.933Z</time>
      </trkpt>
      <trkpt lat="44.58936" lon="3.79684">
        <ele>1473.012235</ele>
        <time>2019-10-08T11:22:22.249Z</time>
      </trkpt>
      <trkpt lat="44.58934" lon="3.79656">
        <ele>1473.03343</ele>
        <time>2019-10-08T11:22:27.301Z</time>
      </trkpt>
      <trkpt lat="44.58946" lon="3.7968">
        <ele>1473.055037</ele>
        <time>2019-10-08T11:22:35.210Z</time>
      </trkpt>
      <trkpt lat="44.5896" lon="3.79733">
        <ele>1473.097654</ele>
        <time>2019-10-08T11:22:50.525Z</time>
      </trkpt>
      <trkpt lat="44.58972" lon="3.79747">
        <ele>1473.114217</ele>
        <time>2019-10-08T11:22:56.345Z</time>
      </trkpt>
      <trkpt lat="44.58995" lon="3.79798">
        <ele>1473.020249</ele>
        <time>2019-10-08T11:23:11.889Z</time>
      </trkpt>
      <trkpt lat="44.59019" lon="3.79799">
        <ele>1472.787455</ele>
        <time>2019-10-08T11:23:20.374Z</time>
      </trkpt>
      <trkpt lat="44.5908" lon="3.79779">
        <ele>1472.172636</ele>
        <time>2019-10-08T11:23:42.188Z</time>
      </trkpt>
      <trkpt lat="44.59114" lon="3.79775">
        <ele>1471.841412</ele>
        <time>2019-10-08T11:23:53.741Z</time>
      </trkpt>
      <trkpt lat="44.59254" lon="3.79841">
        <ele>1469.04923</ele>
        <time>2019-10-08T11:24:42.657Z</time>
      </trkpt>
      <trkpt lat="44.59345" lon="3.79856">
        <ele>1466.689756</ele>
        <time>2019-10-08T11:25:11.122Z</time>
      </trkpt>
      <trkpt lat="44.59418" lon="3.7989">
        <ele>1463.42546</ele>
        <time>2019-10-08T11:25:34.104Z</time>
      </trkpt>
      <trkpt lat="44.59444" lon="3.79922">
        <ele>1461.948129</ele>
        <time>2019-10-08T11:25:44.279Z</time>
      </trkpt>
      <trkpt lat="44.59485" lon="3.80018">
        <ele>1457.900477</ele>
        <time>2019-10-08T11:26:07.174Z</time>
      </trkpt>
      <trkpt lat="44.59532" lon="3.80098">
        <ele>1452.660085</ele>
        <time>2019-10-08T11:26:27.925Z</time>
      </trkpt>
      <trkpt lat="44.59558" lon="3.80153">
        <ele>1449.360706</ele>
        <time>2019-10-08T11:26:40.645Z</time>
      </trkpt>
      <trkpt lat="44.59561" lon="3.80175">
        <ele>1448.22036</ele>
        <time>2019-10-08T11:26:44.994Z</time>
      </trkpt>
      <trkpt lat="44.59578" lon="3.80196">
        <ele>1446.459614</ele>
        <time>2019-10-08T11:26:50.754Z</time>
      </trkpt>
      <trkpt lat="44.5963" lon="3.80182">
        <ele>1440.611349</ele>
        <time>2019-10-08T11:27:04.439Z</time>
      </trkpt>
      <trkpt lat="44.59713" lon="3.8023">
        <ele>1430.657047</ele>
        <time>2019-10-08T11:27:27.354Z</time>
      </trkpt>
      <trkpt lat="44.59713" lon="3.8023">
        <ele>1430.657047</ele>
        <time>2019-10-08T11:27:27.490Z</time>
      </trkpt>
      <trkpt lat="44.59796" lon="3.80212">
        <ele>1420.084773</ele>
        <time>2019-10-08T11:27:48.174Z</time>
      </trkpt>
      <trkpt lat="44.59855" lon="3.8019">
        <ele>1411.651089</ele>
        <time>2019-10-08T11:28:02.999Z</time>
      </trkpt>
      <trkpt lat="44.59899" lon="3.80156">
        <ele>1404.813767</ele>
        <time>2019-10-08T11:28:15.337Z</time>
      </trkpt>
      <trkpt lat="44.5993" lon="3.80143">
        <ele>1400.599088</ele>
        <time>2019-10-08T11:28:23.410Z</time>
      </trkpt>
      <trkpt lat="44.59962" lon="3.80103">
        <ele>1395.522186</ele>
        <time>2019-10-08T11:28:33.920Z</time>
      </trkpt>
      <trkpt lat="44.60087" lon="3.79995">
        <ele>1379.436666</ele>
        <time>2019-10-08T11:29:10.764Z</time>
      </trkpt>
      <trkpt lat="44.60174" lon="3.7995">
        <ele>1373.36957</ele>
        <time>2019-10-08T11:29:36.229Z</time>
      </trkpt>
      <trkpt lat="44.60228" lon="3.79928">
        <ele>1369.650949</ele>
        <time>2019-10-08T11:29:52.746Z</time>
      </trkpt>
      <trkpt lat="44.60237" lon="3.79918">
        <ele>1369.120998</ele>
        <time>2019-10-08T11:29:56.270Z</time>
      </trkpt>
      <trkpt lat="44.60262" lon="3.79868">
        <ele>1368.182793</ele>
        <time>2019-10-08T11:30:09.736Z</time>
      </trkpt>
      <trkpt lat="44.60324" lon="3.79819">
        <ele>1366.634536</ele>
        <time>2019-10-08T11:30:33.029Z</time>
      </trkpt>
      <trkpt lat="44.6035" lon="3.79813">
        <ele>1366.064997</ele>
        <time>2019-10-08T11:30:42.014Z</time>
      </trkpt>
      <trkpt lat="44.60419" lon="3.7982">
        <ele>1364.73345</ele>
        <time>2019-10-08T11:31:05.811Z</time>
      </trkpt>
      <trkpt lat="44.60491" lon="3.79861">
        <ele>1363.406554</ele>
        <time>2019-10-08T11:31:31.394Z</time>
      </trkpt>
      <trkpt lat="44.60546" lon="3.79872">
        <ele>1362.449172</ele>
        <time>2019-10-08T11:31:49.610Z</time>
      </trkpt>
      <trkpt lat="44.60718" lon="3.79979">
        <ele>1358.448954</ele>
        <time>2019-10-08T11:32:50.427Z</time>
      </trkpt>
      <trkpt lat="44.60869" lon="3.80022">
        <ele>1354.568333</ele>
        <time>2019-10-08T11:33:39.600Z</time>
      </trkpt>
      <trkpt lat="44.61065" lon="3.80018">
        <ele>1347.941434</ele>
        <time>2019-10-08T11:34:39.454Z</time>
      </trkpt>
      <trkpt lat="44.61329" lon="3.79978">
        <ele>1334.99981</ele>
        <time>2019-10-08T11:35:56.057Z</time>
      </trkpt>
      <trkpt lat="44.61456" lon="3.80001">
        <ele>1328.184563</ele>
        <time>2019-10-08T11:36:32.389Z</time>
      </trkpt>
      <trkpt lat="44.61514" lon="3.80021">
        <ele>1324.666347</ele>
        <time>2019-10-08T11:36:49.472Z</time>
      </trkpt>
      <trkpt lat="44.61537" lon="3.80055">
        <ele>1322.745302</ele>
        <time>2019-10-08T11:36:58.728Z</time>
      </trkpt>
      <trkpt lat="44.61547" lon="3.80058">
        <ele>1322.136494</ele>
        <time>2019-10-08T11:37:01.591Z</time>
      </trkpt>
      <trkpt lat="44.61559" lon="3.80055">
        <ele>1321.444683</ele>
        <time>2019-10-08T11:37:04.923Z</time>
      </trkpt>
      <trkpt lat="44.61564" lon="3.80063">
        <ele>1320.97853</ele>
        <time>2019-10-08T11:37:07.243Z</time>
      </trkpt>
      <trkpt lat="44.6158" lon="3.80126">
        <ele>1318.169954</ele>
        <time>2019-10-08T11:37:20.663Z</time>
      </trkpt>
      <trkpt lat="44.61578" lon="3.80171">
        <ele>1316.227335</ele>
        <time>2019-10-08T11:37:29.572Z</time>
      </trkpt>
      <trkpt lat="44.61588" lon="3.80229">
        <ele>1313.630446</ele>
        <time>2019-10-08T11:37:41.346Z</time>
      </trkpt>
      <trkpt lat="44.61605" lon="3.80267">
        <ele>1311.665249</ele>
        <time>2019-10-08T11:37:50.316Z</time>
      </trkpt>
      <trkpt lat="44.61629" lon="3.80295">
        <ele>1309.795341</ele>
        <time>2019-10-08T11:37:58.824Z</time>
      </trkpt>
      <trkpt lat="44.61691" lon="3.80316">
        <ele>1305.998017</ele>
        <time>2019-10-08T11:38:16.728Z</time>
      </trkpt>
      <trkpt lat="44.61745" lon="3.80348">
        <ele>1302.612096</ele>
        <time>2019-10-08T11:38:33.244Z</time>
      </trkpt>
      <trkpt lat="44.61806" lon="3.80406">
        <ele>1298.37704</ele>
        <time>2019-10-08T11:38:53.930Z</time>
      </trkpt>
      <trkpt lat="44.61891" lon="3.80452">
        <ele>1293.810739</ele>
        <time>2019-10-08T11:39:20.139Z</time>
      </trkpt>
      <trkpt lat="44.6191" lon="3.80487">
        <ele>1292.330733</ele>
        <time>2019-10-08T11:39:29.036Z</time>
      </trkpt>
      <trkpt lat="44.61923" lon="3.80493">
        <ele>1291.658449</ele>
        <time>2019-10-08T11:39:33.087Z</time>
      </trkpt>
      <trkpt lat="44.61949" lon="3.80488">
        <ele>1290.378283</ele>
        <time>2019-10-08T11:39:40.860Z</time>
      </trkpt>
      <trkpt lat="44.61968" lon="3.80498">
        <ele>1289.409336</ele>
        <time>2019-10-08T11:39:46.780Z</time>
      </trkpt>
      <trkpt lat="44.6199" lon="3.80498">
        <ele>1288.480488</ele>
        <time>2019-10-08T11:39:53.286Z</time>
      </trkpt>
      <trkpt lat="44.62046" lon="3.80523">
        <ele>1286.389039</ele>
        <time>2019-10-08T11:40:10.770Z</time>
      </trkpt>
      <trkpt lat="44.62109" lon="3.80528">
        <ele>1284.105612</ele>
        <time>2019-10-08T11:40:29.927Z</time>
      </trkpt>
      <trkpt lat="44.62207" lon="3.80522">
        <ele>1281.329725</ele>
        <time>2019-10-08T11:41:00.163Z</time>
      </trkpt>
      <trkpt lat="44.62218" lon="3.80516">
        <ele>1281.067484</ele>
        <time>2019-10-08T11:41:04.239Z</time>
      </trkpt>
      <trkpt lat="44.62226" lon="3.80516">
        <ele>1280.892462</ele>
        <time>2019-10-08T11:41:06.620Z</time>
      </trkpt>
      <trkpt lat="44.6225" lon="3.80545">
        <ele>1280.217095</ele>
        <time>2019-10-08T11:41:17.092Z</time>
      </trkpt>
      <trkpt lat="44.62359" lon="3.80691">
        <ele>1277.392408</ele>
        <time>2019-10-08T11:42:07.481Z</time>
      </trkpt>
      <trkpt lat="44.62403" lon="3.8073">
        <ele>1276.546515</ele>
        <time>2019-10-08T11:42:25.200Z</time>
      </trkpt>
      <trkpt lat="44.62447" lon="3.80793">
        <ele>1275.464175</ele>
        <time>2019-10-08T11:42:45.761Z</time>
      </trkpt>
      <trkpt lat="44.62458" lon="3.80826">
        <ele>1274.803595</ele>
        <time>2019-10-08T11:42:54.138Z</time>
      </trkpt>
      <trkpt lat="44.62465" lon="3.80882">
        <ele>1273.771698</ele>
        <time>2019-10-08T11:43:06.717Z</time>
      </trkpt>
      <trkpt lat="44.62452" lon="3.8104">
        <ele>1271.011453</ele>
        <time>2019-10-08T11:43:42.217Z</time>
      </trkpt>
      <trkpt lat="44.62456" lon="3.81069">
        <ele>1270.814915</ele>
        <time>2019-10-08T11:43:48.773Z</time>
      </trkpt>
      <trkpt lat="44.62535" lon="3.8114">
        <ele>1269.928685</ele>
        <time>2019-10-08T11:44:20.642Z</time>
      </trkpt>
      <trkpt lat="44.62813" lon="3.81286">
        <ele>1269.668735</ele>
        <time>2019-10-08T11:46:19.160Z</time>
      </trkpt>
      <trkpt lat="44.62892" lon="3.81307">
        <ele>1268.798928</ele>
        <time>2019-10-08T11:46:46.407Z</time>
      </trkpt>
      <trkpt lat="44.62914" lon="3.81322">
        <ele>1268.528141</ele>
        <time>2019-10-08T11:46:54.394Z</time>
      </trkpt>
      <trkpt lat="44.62948" lon="3.81355">
        <ele>1267.201192</ele>
        <time>2019-10-08T11:47:07.305Z</time>
      </trkpt>
      <trkpt lat="44.62983" lon="3.814">
        <ele>1265.107786</ele>
        <time>2019-10-08T11:47:21.340Z</time>
      </trkpt>
      <trkpt lat="44.63021" lon="3.81477">
        <ele>1262.123402</ele>
        <time>2019-10-08T11:47:40.666Z</time>
      </trkpt>
      <trkpt lat="44.63142" lon="3.81563">
        <ele>1255.683609</ele>
        <time>2019-10-08T11:48:18.894Z</time>
      </trkpt>
      <trkpt lat="44.63166" lon="3.81595">
        <ele>1254.074337</ele>
        <time>2019-10-08T11:48:28.458Z</time>
      </trkpt>
      <trkpt lat="44.63211" lon="3.81611">
        <ele>1251.839258</ele>
        <time>2019-10-08T11:48:42.098Z</time>
      </trkpt>
      <trkpt lat="44.63265" lon="3.81616">
        <ele>1250.745177</ele>
        <time>2019-10-08T11:48:58.940Z</time>
      </trkpt>
      <trkpt lat="44.63348" lon="3.8165">
        <ele>1249.300313</ele>
        <time>2019-10-08T11:49:27.762Z</time>
      </trkpt>
      <trkpt lat="44.63423" lon="3.81653">
        <ele>1248.410434</ele>
        <time>2019-10-08T11:49:55.174Z</time>
      </trkpt>
      <trkpt lat="44.63493" lon="3.81631">
        <ele>1248.07222</ele>
        <time>2019-10-08T11:50:22.890Z</time>
      </trkpt>
      <trkpt lat="44.63533" lon="3.81633">
        <ele>1247.88546</ele>
        <time>2019-10-08T11:50:38.854Z</time>
      </trkpt>
      <trkpt lat="44.63554" lon="3.8161">
        <ele>1247.757581</ele>
        <time>2019-10-08T11:50:47.771Z</time>
      </trkpt>
      <trkpt lat="44.63636" lon="3.81578">
        <ele>1244.083038</ele>
        <time>2019-10-08T11:51:14.707Z</time>
      </trkpt>
      <trkpt lat="44.63672" lon="3.81564">
        <ele>1242.27048</ele>
        <time>2019-10-08T11:51:25.645Z</time>
      </trkpt>
      <trkpt lat="44.63666" lon="3.81558">
        <ele>1241.896889</ele>
        <time>2019-10-08T11:51:27.600Z</time>
      </trkpt>
      <trkpt lat="44.63655" lon="3.81526">
        <ele>1240.666479</ele>
        <time>2019-10-08T11:51:35.096Z</time>
      </trkpt>
      <trkpt lat="44.63657" lon="3.81481">
        <ele>1239.101154</ele>
        <time>2019-10-08T11:51:43.859Z</time>
      </trkpt>
      <trkpt lat="44.63675" lon="3.81417">
        <ele>1234.326738</ele>
        <time>2019-10-08T11:51:56.315Z</time>
      </trkpt>
      <trkpt lat="44.63696" lon="3.81359">
        <ele>1229.680312</ele>
        <time>2019-10-08T11:52:08.015Z</time>
      </trkpt>
      <trkpt lat="44.6372" lon="3.8132">
        <ele>1225.972566</ele>
        <time>2019-10-08T11:52:17.414Z</time>
      </trkpt>
      <trkpt lat="44.63749" lon="3.81281">
        <ele>1221.958822</ele>
        <time>2019-10-08T11:52:27.633Z</time>
      </trkpt>
      <trkpt lat="44.63762" lon="3.81266">
        <ele>1220.371684</ele>
        <time>2019-10-08T11:52:31.861Z</time>
      </trkpt>
      <trkpt lat="44.63781" lon="3.81185">
        <ele>1215.334828</ele>
        <time>2019-10-08T11:52:47.772Z</time>
      </trkpt>
      <trkpt lat="44.63792" lon="3.81156">
        <ele>1213.391967</ele>
        <time>2019-10-08T11:52:53.961Z</time>
      </trkpt>
      <trkpt lat="44.63835" lon="3.81091">
        <ele>1208.177553</ele>
        <time>2019-10-08T11:53:10.740Z</time>
      </trkpt>
      <trkpt lat="44.63898" lon="3.81067">
        <ele>1203.77948</ele>
        <time>2019-10-08T11:53:29.473Z</time>
      </trkpt>
      <trkpt lat="44.64024" lon="3.81064">
        <ele>1196.596256</ele>
        <time>2019-10-08T11:54:05.245Z</time>
      </trkpt>
      <trkpt lat="44.64094" lon="3.81028">
        <ele>1191.26136</ele>
        <time>2019-10-08T11:54:25.772Z</time>
      </trkpt>
      <trkpt lat="44.64138" lon="3.8102">
        <ele>1187.905893</ele>
        <time>2019-10-08T11:54:37.773Z</time>
      </trkpt>
      <trkpt lat="44.64274" lon="3.80967">
        <ele>1176.652662</ele>
        <time>2019-10-08T11:55:14.889Z</time>
      </trkpt>
      <trkpt lat="44.64324" lon="3.80966">
        <ele>1172.404722</ele>
        <time>2019-10-08T11:55:27.971Z</time>
      </trkpt>
      <trkpt lat="44.64361" lon="3.80939">
        <ele>1168.910379</ele>
        <time>2019-10-08T11:55:39.022Z</time>
      </trkpt>
      <trkpt lat="44.64378" lon="3.80926">
        <ele>1167.285502</ele>
        <time>2019-10-08T11:55:44.131Z</time>
      </trkpt>
      <trkpt lat="44.64384" lon="3.80922">
        <ele>1166.767219</ele>
        <time>2019-10-08T11:55:45.887Z</time>
      </trkpt>
      <trkpt lat="44.64422" lon="3.80879">
        <ele>1163.671395</ele>
        <time>2019-10-08T11:55:59.566Z</time>
      </trkpt>
      <trkpt lat="44.64453" lon="3.8079">
        <ele>1159.288141</ele>
        <time>2019-10-08T11:56:19.333Z</time>
      </trkpt>
      <trkpt lat="44.64466" lon="3.80769">
        <ele>1158.040305</ele>
        <time>2019-10-08T11:56:24.578Z</time>
      </trkpt>
      <trkpt lat="44.64487" lon="3.8075">
        <ele>1156.50038</ele>
        <time>2019-10-08T11:56:31.913Z</time>
      </trkpt>
      <trkpt lat="44.64491" lon="3.80725">
        <ele>1155.305664</ele>
        <time>2019-10-08T11:56:37.164Z</time>
      </trkpt>
      <trkpt lat="44.64487" lon="3.80672">
        <ele>1152.7088</ele>
        <time>2019-10-08T11:56:48.193Z</time>
      </trkpt>
      <trkpt lat="44.64496" lon="3.80625">
        <ele>1150.343882</ele>
        <time>2019-10-08T11:56:58.058Z</time>
      </trkpt>
      <trkpt lat="44.645" lon="3.80603">
        <ele>1149.262563</ele>
        <time>2019-10-08T11:57:02.827Z</time>
      </trkpt>
      <trkpt lat="44.64502" lon="3.80598">
        <ele>1148.977902</ele>
        <time>2019-10-08T11:57:03.377Z</time>
      </trkpt>
      <trkpt lat="44.64505" lon="3.80554">
        <ele>1146.837599</ele>
        <time>2019-10-08T11:57:08.246Z</time>
      </trkpt>
      <trkpt lat="44.64521" lon="3.80522">
        <ele>1144.921035</ele>
        <time>2019-10-08T11:57:12.302Z</time>
      </trkpt>
      <trkpt lat="44.6458" lon="3.80438">
        <ele>1138.158388</ele>
        <time>2019-10-08T11:57:24.193Z</time>
      </trkpt>
      <trkpt lat="44.64583" lon="3.80427">
        <ele>1137.424885</ele>
        <time>2019-10-08T11:57:25.471Z</time>
      </trkpt>
      <trkpt lat="44.64582" lon="3.80419">
        <ele>1136.939933</ele>
        <time>2019-10-08T11:57:26.221Z</time>
      </trkpt>
      <trkpt lat="44.64577" lon="3.80403">
        <ele>1135.857758</ele>
        <time>2019-10-08T11:57:28.242Z</time>
      </trkpt>
      <trkpt lat="44.64576" lon="3.80388">
        <ele>1134.955025</ele>
        <time>2019-10-08T11:57:29.781Z</time>
      </trkpt>
      <trkpt lat="44.64579" lon="3.80379">
        <ele>1134.335735</ele>
        <time>2019-10-08T11:57:30.898Z</time>
      </trkpt>
      <trkpt lat="44.64585" lon="3.8037">
        <ele>1133.618207</ele>
        <time>2019-10-08T11:57:32.050Z</time>
      </trkpt>
      <trkpt lat="44.64597" lon="3.80355">
        <ele>1132.233773</ele>
        <time>2019-10-08T11:57:34.566Z</time>
      </trkpt>
      <trkpt lat="44.64605" lon="3.80344">
        <ele>1131.289033</ele>
        <time>2019-10-08T11:57:36.243Z</time>
      </trkpt>
      <trkpt lat="44.64607" lon="3.80337">
        <ele>1130.846407</ele>
        <time>2019-10-08T11:57:36.932Z</time>
      </trkpt>
      <trkpt lat="44.64619" lon="3.80325">
        <ele>1129.573173</ele>
        <time>2019-10-08T11:57:39.325Z</time>
      </trkpt>
      <trkpt lat="44.64626" lon="3.80322">
        <ele>1128.977796</ele>
        <time>2019-10-08T11:57:40.328Z</time>
      </trkpt>
      <trkpt lat="44.64636" lon="3.80325">
        <ele>1128.065707</ele>
        <time>2019-10-08T11:57:41.895Z</time>
      </trkpt>
      <trkpt lat="44.64674" lon="3.80336">
        <ele>1126.551804</ele>
        <time>2019-10-08T11:57:47.581Z</time>
      </trkpt>
      <trkpt lat="44.64711" lon="3.80326">
        <ele>1125.140179</ele>
        <time>2019-10-08T11:57:53.485Z</time>
      </trkpt>
      <trkpt lat="44.64738" lon="3.80327">
        <ele>1124.137759</ele>
        <time>2019-10-08T11:57:57.995Z</time>
      </trkpt>
      <trkpt lat="44.64743" lon="3.80327">
        <ele>1123.926698</ele>
        <time>2019-10-08T11:57:58.850Z</time>
      </trkpt>
      <trkpt lat="44.64752" lon="3.80326">
        <ele>1123.601465</ele>
        <time>2019-10-08T11:58:00.320Z</time>
      </trkpt>
      <trkpt lat="44.64762" lon="3.80325">
        <ele>1123.227993</ele>
        <time>2019-10-08T11:58:02.346Z</time>
      </trkpt>
      <trkpt lat="44.64778" lon="3.80324">
        <ele>1122.621152</ele>
        <time>2019-10-08T11:58:05.188Z</time>
      </trkpt>
      <trkpt lat="44.64788" lon="3.80327">
        <ele>1122.225526</ele>
        <time>2019-10-08T11:58:07.314Z</time>
      </trkpt>
      <trkpt lat="44.64801" lon="3.80336">
        <ele>1121.699001</ele>
        <time>2019-10-08T11:58:10.929Z</time>
      </trkpt>
      <trkpt lat="44.64813" lon="3.80339">
        <ele>1121.207369</ele>
        <time>2019-10-08T11:58:13.529Z</time>
      </trkpt>
      <trkpt lat="44.64825" lon="3.80336">
        <ele>1121.518492</ele>
        <time>2019-10-08T11:58:16.054Z</time>
      </trkpt>
      <trkpt lat="44.6484" lon="3.80332">
        <ele>1121.939986</ele>
        <time>2019-10-08T11:58:20.548Z</time>
      </trkpt>
      <trkpt lat="44.6492" lon="3.80326">
        <ele>1124.161537</ele>
        <time>2019-10-08T11:58:45.964Z</time>
      </trkpt>
      <trkpt lat="44.64944" lon="3.80322">
        <ele>1124.827801</ele>
        <time>2019-10-08T11:58:55.396Z</time>
      </trkpt>
      <trkpt lat="44.64982" lon="3.80323">
        <ele>1125.886342</ele>
        <time>2019-10-08T11:59:13.375Z</time>
      </trkpt>
      <trkpt lat="44.64984" lon="3.80319">
        <ele>1125.97938</ele>
        <time>2019-10-08T11:59:16.573Z</time>
      </trkpt>
      <trkpt lat="44.65062" lon="3.80302">
        <ele>1131.570467</ele>
        <time>2019-10-08T12:00:10.571Z</time>
      </trkpt>
      <trkpt lat="44.65185" lon="3.80241">
        <ele>1141.649003</ele>
        <time>2019-10-08T12:01:54.082Z</time>
      </trkpt>
      <trkpt lat="44.65213" lon="3.80218">
        <ele>1144.592581</ele>
        <time>2019-10-08T12:02:21.703Z</time>
      </trkpt>
      <trkpt lat="44.65231" lon="3.80184">
        <ele>1147.28325</ele>
        <time>2019-10-08T12:02:47.228Z</time>
      </trkpt>
      <trkpt lat="44.65232" lon="3.80088">
        <ele>1153.375479</ele>
        <time>2019-10-08T12:03:44.038Z</time>
      </trkpt>
      <trkpt lat="44.65237" lon="3.80069">
        <ele>1154.690418</ele>
        <time>2019-10-08T12:03:55.840Z</time>
      </trkpt>
      <trkpt lat="44.65289" lon="3.79993">
        <ele>1160.471963</ele>
        <time>2019-10-08T12:04:53.357Z</time>
      </trkpt>
      <trkpt lat="44.65297" lon="3.79977">
        <ele>1161.573473</ele>
        <time>2019-10-08T12:05:05.565Z</time>
      </trkpt>
      <trkpt lat="44.65307" lon="3.79931">
        <ele>1164.091641</ele>
        <time>2019-10-08T12:05:31.579Z</time>
      </trkpt>
      <trkpt lat="44.65314" lon="3.79922">
        <ele>1164.798828</ele>
        <time>2019-10-08T12:05:38.275Z</time>
      </trkpt>
      <trkpt lat="44.65388" lon="3.79869">
        <ele>1170.500019</ele>
        <time>2019-10-08T12:06:35.883Z</time>
      </trkpt>
      <trkpt lat="44.65399" lon="3.79854">
        <ele>1171.29282</ele>
        <time>2019-10-08T12:06:46.549Z</time>
      </trkpt>
      <trkpt lat="44.6542" lon="3.79836">
        <ele>1172.539278</ele>
        <time>2019-10-08T12:07:01.316Z</time>
      </trkpt>
      <trkpt lat="44.65438" lon="3.79825">
        <ele>1173.558919</ele>
        <time>2019-10-08T12:07:13.511Z</time>
      </trkpt>
      <trkpt lat="44.65499" lon="3.79812">
        <ele>1176.748572</ele>
        <time>2019-10-08T12:07:50.827Z</time>
      </trkpt>
      <trkpt lat="44.65632" lon="3.7984">
        <ele>1183.948183</ele>
        <time>2019-10-08T12:09:12.105Z</time>
      </trkpt>
      <trkpt lat="44.65638" lon="3.79842">
        <ele>1184.266297</ele>
        <time>2019-10-08T12:09:16.108Z</time>
      </trkpt>
      <trkpt lat="44.65615" lon="3.79797">
        <ele>1186.403511</ele>
        <time>2019-10-08T12:09:41.558Z</time>
      </trkpt>
      <trkpt lat="44.65549" lon="3.7965">
        <ele>1194.909952</ele>
        <time>2019-10-08T12:11:11.164Z</time>
      </trkpt>
      <trkpt lat="44.65514" lon="3.79599">
        <ele>1198.664342</ele>
        <time>2019-10-08T12:11:50.198Z</time>
      </trkpt>
      <trkpt lat="44.65504" lon="3.79572">
        <ele>1200.273645</ele>
        <time>2019-10-08T12:12:06.942Z</time>
      </trkpt>
      <trkpt lat="44.65495" lon="3.7956">
        <ele>1201.2234</ele>
        <time>2019-10-08T12:12:16.760Z</time>
      </trkpt>
      <trkpt lat="44.65487" lon="3.79529">
        <ele>1202.924452</ele>
        <time>2019-10-08T12:12:34.761Z</time>
      </trkpt>
      <trkpt lat="44.65495" lon="3.79432">
        <ele>1207.93065</ele>
        <time>2019-10-08T12:13:27.464Z</time>
      </trkpt>
      <trkpt lat="44.65505" lon="3.79377">
        <ele>1210.819031</ele>
        <time>2019-10-08T12:13:56.880Z</time>
      </trkpt>
      <trkpt lat="44.65515" lon="3.79348">
        <ele>1212.45141</ele>
        <time>2019-10-08T12:14:13.036Z</time>
      </trkpt>
      <trkpt lat="44.65519" lon="3.79295">
        <ele>1215.026032</ele>
        <time>2019-10-08T12:14:39.626Z</time>
      </trkpt>
      <trkpt lat="44.65514" lon="3.792">
        <ele>1218.253091</ele>
        <time>2019-10-08T12:15:23.456Z</time>
      </trkpt>
      <trkpt lat="44.65522" lon="3.79069">
        <ele>1222.715292</ele>
        <time>2019-10-08T12:16:17.928Z</time>
      </trkpt>
      <trkpt lat="44.65537" lon="3.78925">
        <ele>1226.382564</ele>
        <time>2019-10-08T12:17:13.663Z</time>
      </trkpt>
      <trkpt lat="44.65553" lon="3.78825">
        <ele>1228.882707</ele>
        <time>2019-10-08T12:17:52.683Z</time>
      </trkpt>
      <trkpt lat="44.65595" lon="3.78673">
        <ele>1232.478108</ele>
        <time>2019-10-08T12:18:55.833Z</time>
      </trkpt>
      <trkpt lat="44.656" lon="3.78565">
        <ele>1234.831367</ele>
        <time>2019-10-08T12:19:35.545Z</time>
      </trkpt>
      <trkpt lat="44.65593" lon="3.7851">
        <ele>1235.015567</ele>
        <time>2019-10-08T12:19:54.120Z</time>
      </trkpt>
      <trkpt lat="44.65595" lon="3.78478">
        <ele>1235.105626</ele>
        <time>2019-10-08T12:20:04.275Z</time>
      </trkpt>
      <trkpt lat="44.65603" lon="3.78395">
        <ele>1235.337517</ele>
        <time>2019-10-08T12:20:27.579Z</time>
      </trkpt>
      <trkpt lat="44.65616" lon="3.78342">
        <ele>1235.494004</ele>
        <time>2019-10-08T12:20:41.536Z</time>
      </trkpt>
      <trkpt lat="44.65642" lon="3.78278">
        <ele>1234.788799</ele>
        <time>2019-10-08T12:20:58.854Z</time>
      </trkpt>
      <trkpt lat="44.65682" lon="3.7821">
        <ele>1233.305483</ele>
        <time>2019-10-08T12:21:18.994Z</time>
      </trkpt>
      <trkpt lat="44.65699" lon="3.7817">
        <ele>1232.524348</ele>
        <time>2019-10-08T12:21:29.436Z</time>
      </trkpt>
      <trkpt lat="44.65729" lon="3.78122">
        <ele>1231.451421</ele>
        <time>2019-10-08T12:21:43.650Z</time>
      </trkpt>
      <trkpt lat="44.65791" lon="3.78053">
        <ele>1229.346538</ele>
        <time>2019-10-08T12:22:08.206Z</time>
      </trkpt>
      <trkpt lat="44.65823" lon="3.78012">
        <ele>1228.18365</ele>
        <time>2019-10-08T12:22:21.590Z</time>
      </trkpt>
      <trkpt lat="44.65824" lon="3.78006">
        <ele>1228.049579</ele>
        <time>2019-10-08T12:22:23.337Z</time>
      </trkpt>
      <trkpt lat="44.65839" lon="3.77989">
        <ele>1227.522743</ele>
        <time>2019-10-08T12:22:29.617Z</time>
      </trkpt>
      <trkpt lat="44.65877" lon="3.77959">
        <ele>1226.38187</ele>
        <time>2019-10-08T12:22:43.638Z</time>
      </trkpt>
      <trkpt lat="44.65877" lon="3.77959">
        <ele>1226.38187</ele>
        <time>2019-10-08T12:22:43.671Z</time>
      </trkpt>
      <trkpt lat="44.65946" lon="3.77924">
        <ele>1224.730534</ele>
        <time>2019-10-08T12:23:07.603Z</time>
      </trkpt>
      <trkpt lat="44.65928" lon="3.77858">
        <ele>1223.608078</ele>
        <time>2019-10-08T12:23:24.120Z</time>
      </trkpt>
      <trkpt lat="44.65919" lon="3.7783">
        <ele>1223.11174</ele>
        <time>2019-10-08T12:23:31.148Z</time>
      </trkpt>
      <trkpt lat="44.65918" lon="3.77798">
        <ele>1222.602368</ele>
        <time>2019-10-08T12:23:38.566Z</time>
      </trkpt>
      <trkpt lat="44.6592" lon="3.7773">
        <ele>1220.265492</ele>
        <time>2019-10-08T12:23:53.605Z</time>
      </trkpt>
      <trkpt lat="44.65933" lon="3.77648">
        <ele>1217.111182</ele>
        <time>2019-10-08T12:24:11.385Z</time>
      </trkpt>
      <trkpt lat="44.65933" lon="3.77556">
        <ele>1213.673654</ele>
        <time>2019-10-08T12:24:29.534Z</time>
      </trkpt>
      <trkpt lat="44.65903" lon="3.77408">
        <ele>1203.212072</ele>
        <time>2019-10-08T12:24:58.068Z</time>
      </trkpt>
      <trkpt lat="44.65948" lon="3.77356">
        <ele>1197.347902</ele>
        <time>2019-10-08T12:25:12.752Z</time>
      </trkpt>
      <trkpt lat="44.65955" lon="3.77335">
        <ele>1195.712498</ele>
        <time>2019-10-08T12:25:16.849Z</time>
      </trkpt>
      <trkpt lat="44.65939" lon="3.77285">
        <ele>1191.556618</ele>
        <time>2019-10-08T12:25:26.510Z</time>
      </trkpt>
      <trkpt lat="44.6592" lon="3.7719">
        <ele>1183.839212</ele>
        <time>2019-10-08T12:25:44.239Z</time>
      </trkpt>
      <trkpt lat="44.65889" lon="3.77141">
        <ele>1178.765997</ele>
        <time>2019-10-08T12:25:56.252Z</time>
      </trkpt>
      <trkpt lat="44.65885" lon="3.77133">
        <ele>1178.032214</ele>
        <time>2019-10-08T12:25:57.873Z</time>
      </trkpt>
      <trkpt lat="44.65882" lon="3.77132">
        <ele>1177.668697</ele>
        <time>2019-10-08T12:25:58.353Z</time>
      </trkpt>
      <trkpt lat="44.65865" lon="3.77089">
        <ele>1174.401297</ele>
        <time>2019-10-08T12:26:03.668Z</time>
      </trkpt>
      <trkpt lat="44.65863" lon="3.77077">
        <ele>1173.81856</ele>
        <time>2019-10-08T12:26:05.043Z</time>
      </trkpt>
      <trkpt lat="44.65878" lon="3.77027">
        <ele>1171.347903</ele>
        <time>2019-10-08T12:26:10.907Z</time>
      </trkpt>
      <trkpt lat="44.65889" lon="3.7691">
        <ele>1165.868871</ele>
        <time>2019-10-08T12:26:24.326Z</time>
      </trkpt>
      <trkpt lat="44.65904" lon="3.76858">
        <ele>1163.544939</ele>
        <time>2019-10-08T12:26:31.285Z</time>
      </trkpt>
      <trkpt lat="44.65898" lon="3.76809">
        <ele>1163.708142</ele>
        <time>2019-10-08T12:26:38.033Z</time>
      </trkpt>
      <trkpt lat="44.65848" lon="3.76723">
        <ele>1164.069514</ele>
        <time>2019-10-08T12:27:06.790Z</time>
      </trkpt>
      <trkpt lat="44.65837" lon="3.76628">
        <ele>1164.879866</ele>
        <time>2019-10-08T12:27:42.232Z</time>
      </trkpt>
      <trkpt lat="44.6584" lon="3.76551">
        <ele>1169.221446</ele>
        <time>2019-10-08T12:28:21.236Z</time>
      </trkpt>
      <trkpt lat="44.65857" lon="3.76459">
        <ele>1174.570016</ele>
        <time>2019-10-08T12:29:16.386Z</time>
      </trkpt>
      <trkpt lat="44.65855" lon="3.76414">
        <ele>1177.102066</ele>
        <time>2019-10-08T12:29:47.067Z</time>
      </trkpt>
      <trkpt lat="44.65883" lon="3.76315">
        <ele>1181.669706</ele>
        <time>2019-10-08T12:30:50.622Z</time>
      </trkpt>
      <trkpt lat="44.65863" lon="3.76268">
        <ele>1183.805726</ele>
        <time>2019-10-08T12:31:17.679Z</time>
      </trkpt>
      <trkpt lat="44.65863" lon="3.76237">
        <ele>1184.977519</ele>
        <time>2019-10-08T12:31:32.733Z</time>
      </trkpt>
      <trkpt lat="44.65888" lon="3.76186">
        <ele>1187.389482</ele>
        <time>2019-10-08T12:31:55.885Z</time>
      </trkpt>
      <trkpt lat="44.65884" lon="3.76107">
        <ele>1186.386187</ele>
        <time>2019-10-08T12:32:15.637Z</time>
      </trkpt>
      <trkpt lat="44.65884" lon="3.76107">
        <ele>1186.386187</ele>
        <time>2019-10-08T12:32:15.672Z</time>
      </trkpt>
      <trkpt lat="44.65872" lon="3.76037">
        <ele>1183.749725</ele>
        <time>2019-10-08T12:32:30.776Z</time>
      </trkpt>
      <trkpt lat="44.6587" lon="3.76001">
        <ele>1182.427165</ele>
        <time>2019-10-08T12:32:37.589Z</time>
      </trkpt>
      <trkpt lat="44.6587" lon="3.76001">
        <ele>1178.9</ele>
      </trkpt>
      <trkpt lat="44.6587" lon="3.75996">
        <ele>1178.5</ele>
      </trkpt>
      <trkpt lat="44.65871" lon="3.75986">
        <ele>1177.6</ele>
      </trkpt>
      <trkpt lat="44.65871" lon="3.75974">
        <ele>1176.5</ele>
      </trkpt>
      <trkpt lat="44.65873" lon="3.75962">
        <ele>1175.4</ele>
      </trkpt>
      <trkpt lat="44.65875" lon="3.7595">
        <ele>1174.3</ele>
      </trkpt>
      <trkpt lat="44.65877" lon="3.75939">
        <ele>1173.2</ele>
      </trkpt>
      <trkpt lat="44.65878" lon="3.75933">
        <ele>1172.7</ele>
      </trkpt>
      <trkpt lat="44.65878" lon="3.75928">
        <ele>1172.2</ele>
      </trkpt>
      <trkpt lat="44.65878" lon="3.75926">
        <ele>1172.1</ele>
      </trkpt>
      <trkpt lat="44.65877" lon="3.75919">
        <ele>1171.6</ele>
      </trkpt>
      <trkpt lat="44.65875" lon="3.7591">
        <ele>1171.2</ele>
      </trkpt>
      <trkpt lat="44.65874" lon="3.75896">
        <ele>1170.5</ele>
      </trkpt>
      <trkpt lat="44.65874" lon="3.75884">
        <ele>1170</ele>
      </trkpt>
      <trkpt lat="44.65874" lon="3.75876">
        <ele>1169.7</ele>
      </trkpt>
      <trkpt lat="44.65874" lon="3.75866">
        <ele>1169.1</ele>
      </trkpt>
      <trkpt lat="44.65876" lon="3.75855">
        <ele>1168.4</ele>
      </trkpt>
      <trkpt lat="44.6588" lon="3.75844">
        <ele>1167.6</ele>
      </trkpt>
      <trkpt lat="44.65884" lon="3.75834">
        <ele>1166.5</ele>
      </trkpt>
      <trkpt lat="44.65891" lon="3.75823">
        <ele>1165.6</ele>
      </trkpt>
      <trkpt lat="44.65897" lon="3.75813">
        <ele>1164.6</ele>
      </trkpt>
      <trkpt lat="44.65904" lon="3.758">
        <ele>1163.4</ele>
      </trkpt>
      <trkpt lat="44.65909" lon="3.75788">
        <ele>1162.4</ele>
      </trkpt>
      <trkpt lat="44.65914" lon="3.75772">
        <ele>1161.1</ele>
      </trkpt>
      <trkpt lat="44.6592" lon="3.75754">
        <ele>1160.1</ele>
      </trkpt>
      <trkpt lat="44.65924" lon="3.75741">
        <ele>1159.8</ele>
      </trkpt>
      <trkpt lat="44.65927" lon="3.75732">
        <ele>1159.5</ele>
      </trkpt>
      <trkpt lat="44.65928" lon="3.7573">
        <ele>1159.5</ele>
      </trkpt>
      <trkpt lat="44.65931" lon="3.75719">
        <ele>1159.1</ele>
      </trkpt>
      <trkpt lat="44.65933" lon="3.75705">
        <ele>1158.8</ele>
      </trkpt>
      <trkpt lat="44.65933" lon="3.75703">
        <ele>1158.7</ele>
      </trkpt>
      <trkpt lat="44.65933" lon="3.75687">
        <ele>1158.3</ele>
      </trkpt>
      <trkpt lat="44.65933" lon="3.75683">
        <ele>1158.2</ele>
      </trkpt>
      <trkpt lat="44.65933" lon="3.75674">
        <ele>1158</ele>
      </trkpt>
      <trkpt lat="44.65931" lon="3.75662">
        <ele>1157.7</ele>
      </trkpt>
      <trkpt lat="44.6593" lon="3.75652">
        <ele>1157.1</ele>
      </trkpt>
      <trkpt lat="44.6593" lon="3.75646">
        <ele>1156.8</ele>
      </trkpt>
      <trkpt lat="44.65931" lon="3.75641">
        <ele>1156.5</ele>
      </trkpt>
      <trkpt lat="44.6593" lon="3.75635">
        <ele>1156.1</ele>
      </trkpt>
      <trkpt lat="44.65929" lon="3.75619">
        <ele>1155.2</ele>
      </trkpt>
      <trkpt lat="44.65929" lon="3.75617">
        <ele>1155.1</ele>
      </trkpt>
      <trkpt lat="44.65928" lon="3.75599">
        <ele>1154.1</ele>
      </trkpt>
      <trkpt lat="44.65928" lon="3.75582">
        <ele>1153.1</ele>
      </trkpt>
      <trkpt lat="44.65929" lon="3.75572">
        <ele>1152.3</ele>
      </trkpt>
      <trkpt lat="44.65931" lon="3.75563">
        <ele>1151.5</ele>
      </trkpt>
      <trkpt lat="44.65934" lon="3.75554">
        <ele>1150.7</ele>
      </trkpt>
      <trkpt lat="44.6594" lon="3.75538">
        <ele>1149.2</ele>
      </trkpt>
      <trkpt lat="44.65947" lon="3.75527">
        <ele>1148</ele>
      </trkpt>
      <trkpt lat="44.65956" lon="3.75512">
        <ele>1146.4</ele>
      </trkpt>
      <trkpt lat="44.65963" lon="3.75498">
        <ele>1145.2</ele>
      </trkpt>
      <trkpt lat="44.6597" lon="3.75487">
        <ele>1144.3</ele>
      </trkpt>
      <trkpt lat="44.65974" lon="3.75482">
        <ele>1143.9</ele>
      </trkpt>
      <trkpt lat="44.65982" lon="3.75488">
        <ele>1143.6</ele>
      </trkpt>
      <trkpt lat="44.65986" lon="3.75487">
        <ele>1143.3</ele>
      </trkpt>
      <trkpt lat="44.65989" lon="3.75485">
        <ele>1143</ele>
      </trkpt>
      <trkpt lat="44.65993" lon="3.75482">
        <ele>1142.6</ele>
      </trkpt>
      <trkpt lat="44.65997" lon="3.75476">
        <ele>1142.1</ele>
      </trkpt>
      <trkpt lat="44.66005" lon="3.75465">
        <ele>1141.3</ele>
      </trkpt>
      <trkpt lat="44.66011" lon="3.75456">
        <ele>1141</ele>
      </trkpt>
      <trkpt lat="44.66019" lon="3.75448">
        <ele>1140.8</ele>
      </trkpt>
      <trkpt lat="44.6602" lon="3.75447">
        <ele>1140.8</ele>
      </trkpt>
      <trkpt lat="44.66022" lon="3.75444">
        <ele>1140.8</ele>
      </trkpt>
      <trkpt lat="44.66025" lon="3.7544">
        <ele>1140.7</ele>
      </trkpt>
      <trkpt lat="44.66026" lon="3.75437">
        <ele>1140.7</ele>
      </trkpt>
      <trkpt lat="44.66028" lon="3.75432">
        <ele>1140.7</ele>
      </trkpt>
      <trkpt lat="44.66029" lon="3.75426">
        <ele>1140.6</ele>
      </trkpt>
      <trkpt lat="44.66029" lon="3.75421">
        <ele>1140.5</ele>
      </trkpt>
      <trkpt lat="44.66027" lon="3.75413">
        <ele>1140.4</ele>
      </trkpt>
      <trkpt lat="44.66021" lon="3.75399">
        <ele>1140.2</ele>
      </trkpt>
      <trkpt lat="44.66015" lon="3.75387">
        <ele>1139.9</ele>
      </trkpt>
      <trkpt lat="44.66009" lon="3.75375">
        <ele>1139.6</ele>
      </trkpt>
      <trkpt lat="44.66007" lon="3.75369">
        <ele>1139.5</ele>
      </trkpt>
      <trkpt lat="44.66005" lon="3.75363">
        <ele>1139.4</ele>
      </trkpt>
      <trkpt lat="44.66005" lon="3.75357">
        <ele>1139.4</ele>
      </trkpt>
      <trkpt lat="44.66007" lon="3.75346">
        <ele>1139.6</ele>
      </trkpt>
      <trkpt lat="44.66013" lon="3.75326">
        <ele>1140.2</ele>
      </trkpt>
      <trkpt lat="44.66023" lon="3.75283">
        <ele>1144.655224</ele>
        <time>2019-10-08T12:34:36.167Z</time>
      </trkpt>
      <trkpt lat="44.66025" lon="3.75198">
        <ele>1144.065347</ele>
        <time>2019-10-08T12:34:50.845Z</time>
      </trkpt>
      <trkpt lat="44.66007" lon="3.75093">
        <ele>1143.945007</ele>
        <time>2019-10-08T12:35:11.985Z</time>
      </trkpt>
      <trkpt lat="44.66005" lon="3.74996">
        <ele>1144.448101</ele>
        <time>2019-10-08T12:35:31.110Z</time>
      </trkpt>
      <trkpt lat="44.65995" lon="3.74872">
        <ele>1144.987643</ele>
        <time>2019-10-08T12:35:54.659Z</time>
      </trkpt>
      <trkpt lat="44.65973" lon="3.74753">
        <ele>1144.96168</ele>
        <time>2019-10-08T12:36:15.347Z</time>
      </trkpt>
      <trkpt lat="44.65973" lon="3.74693">
        <ele>1144.948958</ele>
        <time>2019-10-08T12:36:24.925Z</time>
      </trkpt>
      <trkpt lat="44.65992" lon="3.7462">
        <ele>1145.139236</ele>
        <time>2019-10-08T12:36:36.905Z</time>
      </trkpt>
      <trkpt lat="44.65973" lon="3.74517">
        <ele>1145.887182</ele>
        <time>2019-10-08T12:36:54.174Z</time>
      </trkpt>
      <trkpt lat="44.65958" lon="3.74464">
        <ele>1146.288535</ele>
        <time>2019-10-08T12:37:05.992Z</time>
      </trkpt>
      <trkpt lat="44.65935" lon="3.74391">
        <ele>1147.49691</ele>
        <time>2019-10-08T12:37:26.104Z</time>
      </trkpt>
      <trkpt lat="44.65905" lon="3.74284">
        <ele>1152.282272</ele>
        <time>2019-10-08T12:38:04.646Z</time>
      </trkpt>
      <trkpt lat="44.65887" lon="3.74193">
        <ele>1156.204258</ele>
        <time>2019-10-08T12:38:44.659Z</time>
      </trkpt>
      <trkpt lat="44.65892" lon="3.74159">
        <ele>1157.81976</ele>
        <time>2019-10-08T12:39:00.651Z</time>
      </trkpt>
      <trkpt lat="44.65915" lon="3.74084">
        <ele>1162.921389</ele>
        <time>2019-10-08T12:39:42.400Z</time>
      </trkpt>
      <trkpt lat="44.6593" lon="3.7405">
        <ele>1165.380111</ele>
        <time>2019-10-08T12:40:03.161Z</time>
      </trkpt>
      <trkpt lat="44.65929" lon="3.7405">
        <ele>1171.2</ele>
      </trkpt>
      <trkpt lat="44.65932" lon="3.74042">
        <ele>1171.8</ele>
      </trkpt>
      <trkpt lat="44.65937" lon="3.74017">
        <ele>1174.1</ele>
      </trkpt>
      <trkpt lat="44.65944" lon="3.73988">
        <ele>1176.6</ele>
      </trkpt>
      <trkpt lat="44.65951" lon="3.7396">
        <ele>1178.9</ele>
      </trkpt>
      <trkpt lat="44.65956" lon="3.73941">
        <ele>1180.7</ele>
      </trkpt>
      <trkpt lat="44.65961" lon="3.73927">
        <ele>1182.1</ele>
      </trkpt>
      <trkpt lat="44.65963" lon="3.73919">
        <ele>1183</ele>
      </trkpt>
      <trkpt lat="44.65965" lon="3.73911">
        <ele>1183.7</ele>
      </trkpt>
      <trkpt lat="44.65966" lon="3.73904">
        <ele>1184.2</ele>
      </trkpt>
      <trkpt lat="44.65966" lon="3.739">
        <ele>1184.4</ele>
      </trkpt>
      <trkpt lat="44.65965" lon="3.73897">
        <ele>1184.5</ele>
      </trkpt>
      <trkpt lat="44.65964" lon="3.73895">
        <ele>1184.6</ele>
      </trkpt>
      <trkpt lat="44.65957" lon="3.73885">
        <ele>1184.8</ele>
      </trkpt>
      <trkpt lat="44.65947" lon="3.7387">
        <ele>1185.1</ele>
      </trkpt>
      <trkpt lat="44.65943" lon="3.73865">
        <ele>1185.1</ele>
      </trkpt>
      <trkpt lat="44.65938" lon="3.73862">
        <ele>1185</ele>
      </trkpt>
      <trkpt lat="44.65932" lon="3.73859">
        <ele>1184.8</ele>
      </trkpt>
      <trkpt lat="44.65925" lon="3.73857">
        <ele>1184.4</ele>
      </trkpt>
      <trkpt lat="44.65924" lon="3.73857">
        <ele>1184.3</ele>
      </trkpt>
      <trkpt lat="44.65907" lon="3.73855">
        <ele>1182.5</ele>
      </trkpt>
      <trkpt lat="44.65903" lon="3.73855">
        <ele>1181.9</ele>
      </trkpt>
      <trkpt lat="44.659" lon="3.73854">
        <ele>1181.5</ele>
      </trkpt>
      <trkpt lat="44.65895" lon="3.7385">
        <ele>1180.9</ele>
      </trkpt>
      <trkpt lat="44.65889" lon="3.73845">
        <ele>1180.3</ele>
      </trkpt>
      <trkpt lat="44.65884" lon="3.73838">
        <ele>1179.7</ele>
      </trkpt>
      <trkpt lat="44.65879" lon="3.73831">
        <ele>1179.2</ele>
      </trkpt>
      <trkpt lat="44.65877" lon="3.73825">
        <ele>1178.8</ele>
      </trkpt>
      <trkpt lat="44.65877" lon="3.73824">
        <ele>1178.8</ele>
      </trkpt>
      <trkpt lat="44.65876" lon="3.7382">
        <ele>1178.7</ele>
      </trkpt>
      <trkpt lat="44.65875" lon="3.73797">
        <ele>1178.5</ele>
      </trkpt>
      <trkpt lat="44.65874" lon="3.73778">
        <ele>1178.4</ele>
      </trkpt>
      <trkpt lat="44.65874" lon="3.73768">
        <ele>1178.4</ele>
      </trkpt>
      <trkpt lat="44.65874" lon="3.73761">
        <ele>1178.4</ele>
      </trkpt>
      <trkpt lat="44.65875" lon="3.73752">
        <ele>1178.6</ele>
      </trkpt>
      <trkpt lat="44.65876" lon="3.73743">
        <ele>1178.6</ele>
      </trkpt>
      <trkpt lat="44.65877" lon="3.73727">
        <ele>1178.6</ele>
      </trkpt>
      <trkpt lat="44.65877" lon="3.73711">
        <ele>1178.5</ele>
      </trkpt>
      <trkpt lat="44.65877" lon="3.73709">
        <ele>1178.5</ele>
      </trkpt>
      <trkpt lat="44.65878" lon="3.73698">
        <ele>1178.5</ele>
      </trkpt>
      <trkpt lat="44.6588" lon="3.73686">
        <ele>1178.5</ele>
      </trkpt>
      <trkpt lat="44.65881" lon="3.73676">
        <ele>1178.5</ele>
      </trkpt>
      <trkpt lat="44.65883" lon="3.73667">
        <ele>1178.6</ele>
      </trkpt>
      <trkpt lat="44.65888" lon="3.73654">
        <ele>1179.6</ele>
      </trkpt>
      <trkpt lat="44.6589" lon="3.73645">
        <ele>1180.1</ele>
      </trkpt>
      <trkpt lat="44.65892" lon="3.73637">
        <ele>1180.6</ele>
      </trkpt>
      <trkpt lat="44.65893" lon="3.73628">
        <ele>1181.1</ele>
      </trkpt>
      <trkpt lat="44.65894" lon="3.73605">
        <ele>1182.2</ele>
      </trkpt>
      <trkpt lat="44.65896" lon="3.73593">
        <ele>1182.8</ele>
      </trkpt>
      <trkpt lat="44.65897" lon="3.73583">
        <ele>1183.3</ele>
      </trkpt>
      <trkpt lat="44.65902" lon="3.73566">
        <ele>1184.3</ele>
      </trkpt>
      <trkpt lat="44.65909" lon="3.73543">
        <ele>1185.4</ele>
      </trkpt>
      <trkpt lat="44.65916" lon="3.73521">
        <ele>1186.2</ele>
      </trkpt>
      <trkpt lat="44.65922" lon="3.73505">
        <ele>1187.5</ele>
      </trkpt>
      <trkpt lat="44.65926" lon="3.73497">
        <ele>1188.2</ele>
      </trkpt>
      <trkpt lat="44.6593" lon="3.73487">
        <ele>1188.5</ele>
      </trkpt>
      <trkpt lat="44.65935" lon="3.73469">
        <ele>1189</ele>
      </trkpt>
      <trkpt lat="44.65936" lon="3.73464">
        <ele>1189.2</ele>
      </trkpt>
      <trkpt lat="44.65939" lon="3.73457">
        <ele>1189.4</ele>
      </trkpt>
      <trkpt lat="44.6594" lon="3.73454">
        <ele>1189.5</ele>
      </trkpt>
      <trkpt lat="44.65941" lon="3.73451">
        <ele>1189.6</ele>
      </trkpt>
      <trkpt lat="44.65942" lon="3.73444">
        <ele>1189.6</ele>
      </trkpt>
      <trkpt lat="44.65942" lon="3.73437">
        <ele>1189.6</ele>
      </trkpt>
      <trkpt lat="44.65941" lon="3.73428">
        <ele>1189.3</ele>
      </trkpt>
      <trkpt lat="44.65938" lon="3.73412">
        <ele>1188.8</ele>
      </trkpt>
      <trkpt lat="44.65935" lon="3.73396">
        <ele>1188.4</ele>
      </trkpt>
      <trkpt lat="44.65931" lon="3.73385">
        <ele>1187.9</ele>
      </trkpt>
      <trkpt lat="44.6593" lon="3.73383">
        <ele>1187.8</ele>
      </trkpt>
      <trkpt lat="44.65928" lon="3.7338">
        <ele>1187.6</ele>
      </trkpt>
      <trkpt lat="44.6593" lon="3.73353">
        <ele>1187.9</ele>
      </trkpt>
      <trkpt lat="44.6593" lon="3.73345">
        <ele>1187.9</ele>
      </trkpt>
      <trkpt lat="44.65929" lon="3.7334">
        <ele>1187.9</ele>
      </trkpt>
      <trkpt lat="44.65926" lon="3.73331">
        <ele>1187.9</ele>
      </trkpt>
      <trkpt lat="44.65921" lon="3.73316">
        <ele>1188.9</ele>
      </trkpt>
      <trkpt lat="44.65912" lon="3.73297">
        <ele>1191.2</ele>
      </trkpt>
      <trkpt lat="44.6591" lon="3.7329">
        <ele>1192.2</ele>
      </trkpt>
      <trkpt lat="44.65909" lon="3.73284">
        <ele>1192.8</ele>
      </trkpt>
      <trkpt lat="44.6591" lon="3.73283">
        <ele>1192.9</ele>
      </trkpt>
      <trkpt lat="44.65939" lon="3.7326">
        <ele>1194.262832</ele>
        <time>2019-10-08T12:45:51.865Z</time>
      </trkpt>
      <trkpt lat="44.65984" lon="3.73217">
        <ele>1196.99297</ele>
        <time>2019-10-08T12:46:25.344Z</time>
      </trkpt>
      <trkpt lat="44.65997" lon="3.73213">
        <ele>1197.709851</ele>
        <time>2019-10-08T12:46:33.297Z</time>
      </trkpt>
      <trkpt lat="44.66032" lon="3.73148">
        <ele>1201.033603</ele>
        <time>2019-10-08T12:47:11.076Z</time>
      </trkpt>
      <trkpt lat="44.66048" lon="3.73106">
        <ele>1202.97829</ele>
        <time>2019-10-08T12:47:34.188Z</time>
      </trkpt>
      <trkpt lat="44.66051" lon="3.73069">
        <ele>1204.462912</ele>
        <time>2019-10-08T12:47:52.209Z</time>
      </trkpt>
      <trkpt lat="44.66084" lon="3.73029">
        <ele>1207.125846</ele>
        <time>2019-10-08T12:48:22.387Z</time>
      </trkpt>
      <trkpt lat="44.66151" lon="3.72893">
        <ele>1214.725738</ele>
        <time>2019-10-08T12:49:45.006Z</time>
      </trkpt>
      <trkpt lat="44.66184" lon="3.72848">
        <ele>1217.636085</ele>
        <time>2019-10-08T12:50:16.695Z</time>
      </trkpt>
      <trkpt lat="44.66217" lon="3.72831">
        <ele>1219.675833</ele>
        <time>2019-10-08T12:50:40.105Z</time>
      </trkpt>
      <trkpt lat="44.6624" lon="3.72795">
        <ele>1221.734971</ele>
        <time>2019-10-08T12:51:03.535Z</time>
      </trkpt>
      <trkpt lat="44.66266" lon="3.72737">
        <ele>1224.605067</ele>
        <time>2019-10-08T12:51:35.757Z</time>
      </trkpt>
      <trkpt lat="44.66374" lon="3.72417">
        <ele>1238.736204</ele>
        <time>2019-10-08T12:54:19.323Z</time>
      </trkpt>
      <trkpt lat="44.66401" lon="3.72297">
        <ele>1243.490805</ele>
        <time>2019-10-08T12:55:17.118Z</time>
      </trkpt>
      <trkpt lat="44.66417" lon="3.72097">
        <ele>1250.47628</ele>
        <time>2019-10-08T12:56:46.906Z</time>
      </trkpt>
      <trkpt lat="44.66412" lon="3.72051">
        <ele>1251.929742</ele>
        <time>2019-10-08T12:57:06.745Z</time>
      </trkpt>
      <trkpt lat="44.66382" lon="3.72015">
        <ele>1253.675372</ele>
        <time>2019-10-08T12:57:29.977Z</time>
      </trkpt>
      <trkpt lat="44.66345" lon="3.71956">
        <ele>1255.458873</ele>
        <time>2019-10-08T12:58:01.900Z</time>
      </trkpt>
      <trkpt lat="44.66375" lon="3.7182">
        <ele>1256.531527</ele>
        <time>2019-10-08T12:58:47.405Z</time>
      </trkpt>
      <trkpt lat="44.66377" lon="3.71776">
        <ele>1256.8594</ele>
        <time>2019-10-08T12:58:58.183Z</time>
      </trkpt>
      <trkpt lat="44.66412" lon="3.71762">
        <ele>1257.014585</ele>
        <time>2019-10-08T12:59:10.608Z</time>
      </trkpt>
      <trkpt lat="44.66436" lon="3.71746">
        <ele>1256.647088</ele>
        <time>2019-10-08T12:59:19.410Z</time>
      </trkpt>
      <trkpt lat="44.66446" lon="3.71747">
        <ele>1256.510622</ele>
        <time>2019-10-08T12:59:22.778Z</time>
      </trkpt>
      <trkpt lat="44.66469" lon="3.71788">
        <ele>1256.000089</ele>
        <time>2019-10-08T12:59:34.999Z</time>
      </trkpt>
      <trkpt lat="44.66489" lon="3.71822">
        <ele>1255.571248</ele>
        <time>2019-10-08T12:59:45.156Z</time>
      </trkpt>
      <trkpt lat="44.66508" lon="3.71855">
        <ele>1255.164584</ele>
        <time>2019-10-08T12:59:54.625Z</time>
      </trkpt>
      <trkpt lat="44.66543" lon="3.71954">
        <ele>1255.281723</ele>
        <time>2019-10-08T13:00:22.917Z</time>
      </trkpt>
      <trkpt lat="44.66543" lon="3.71972">
        <ele>1255.467091</ele>
        <time>2019-10-08T13:00:28.375Z</time>
      </trkpt>
      <trkpt lat="44.66567" lon="3.72029">
        <ele>1256.125268</ele>
        <time>2019-10-08T13:00:50.417Z</time>
      </trkpt>
      <trkpt lat="44.66577" lon="3.72072">
        <ele>1256.571604</ele>
        <time>2019-10-08T13:01:06.435Z</time>
      </trkpt>
      <trkpt lat="44.66577" lon="3.72072">
        <ele>1256.571604</ele>
        <time>2019-10-08T13:01:06.542Z</time>
      </trkpt>
      <trkpt lat="44.66577" lon="3.72112">
        <ele>1256.966167</ele>
        <time>2019-10-08T13:01:20.746Z</time>
      </trkpt>
      <trkpt lat="44.66598" lon="3.72153">
        <ele>1257.404858</ele>
        <time>2019-10-08T13:01:38.950Z</time>
      </trkpt>
      <trkpt lat="44.66619" lon="3.72173">
        <ele>1257.68052</ele>
        <time>2019-10-08T13:01:51.689Z</time>
      </trkpt>
      <trkpt lat="44.66715" lon="3.723">
        <ele>1259.133999</ele>
        <time>2019-10-08T13:02:47.620Z</time>
      </trkpt>
      <trkpt lat="44.66741" lon="3.72419">
        <ele>1256.719893</ele>
        <time>2019-10-08T13:03:16.351Z</time>
      </trkpt>
      <trkpt lat="44.66773" lon="3.72422">
        <ele>1255.821203</ele>
        <time>2019-10-08T13:03:25.956Z</time>
      </trkpt>
      <trkpt lat="44.66823" lon="3.72484">
        <ele>1253.860355</ele>
        <time>2019-10-08T13:03:45.497Z</time>
      </trkpt>
      <trkpt lat="44.66843" lon="3.72521">
        <ele>1252.333843</ele>
        <time>2019-10-08T13:03:55.104Z</time>
      </trkpt>
      <trkpt lat="44.66868" lon="3.72546">
        <ele>1250.904556</ele>
        <time>2019-10-08T13:04:04.011Z</time>
      </trkpt>
      <trkpt lat="44.66969" lon="3.72746">
        <ele>1243.612456</ele>
        <time>2019-10-08T13:04:55.107Z</time>
      </trkpt>
      <trkpt lat="44.67" lon="3.72771">
        <ele>1242.375762</ele>
        <time>2019-10-08T13:05:06.099Z</time>
      </trkpt>
      <trkpt lat="44.67066" lon="3.72881">
        <ele>1239.21706</ele>
        <time>2019-10-08T13:05:38.179Z</time>
      </trkpt>
      <trkpt lat="44.67111" lon="3.72945">
        <ele>1238.057647</ele>
        <time>2019-10-08T13:05:59.320Z</time>
      </trkpt>
      <trkpt lat="44.6717" lon="3.73074">
        <ele>1236.212991</ele>
        <time>2019-10-08T13:06:35.944Z</time>
      </trkpt>
      <trkpt lat="44.67183" lon="3.73083">
        <ele>1236.068767</ele>
        <time>2019-10-08T13:06:40.981Z</time>
      </trkpt>
      <trkpt lat="44.67214" lon="3.73127">
        <ele>1235.649002</ele>
        <time>2019-10-08T13:06:55.716Z</time>
      </trkpt>
      <trkpt lat="44.67303" lon="3.73305">
        <ele>1234.708884</ele>
        <time>2019-10-08T13:07:50.035Z</time>
      </trkpt>
      <trkpt lat="44.6734" lon="3.7337">
        <ele>1234.832464</ele>
        <time>2019-10-08T13:08:11.948Z</time>
      </trkpt>
      <trkpt lat="44.6743" lon="3.735">
        <ele>1236.033239</ele>
        <time>2019-10-08T13:09:06.617Z</time>
      </trkpt>
      <trkpt lat="44.67508" lon="3.73648">
        <ele>1238.479266</ele>
        <time>2019-10-08T13:10:10.165Z</time>
      </trkpt>
      <trkpt lat="44.67556" lon="3.7378">
        <ele>1240.374889</ele>
        <time>2019-10-08T13:11:01.722Z</time>
      </trkpt>
      <trkpt lat="44.67617" lon="3.73903">
        <ele>1241.104634</ele>
        <time>2019-10-08T13:11:47.171Z</time>
      </trkpt>
      <trkpt lat="44.67661" lon="3.74014">
        <ele>1240.00018</ele>
        <time>2019-10-08T13:12:18.405Z</time>
      </trkpt>
      <trkpt lat="44.67697" lon="3.74058">
        <ele>1239.411288</ele>
        <time>2019-10-08T13:12:33.536Z</time>
      </trkpt>
      <trkpt lat="44.67731" lon="3.74127">
        <ele>1236.490034</ele>
        <time>2019-10-08T13:12:51.107Z</time>
      </trkpt>
      <trkpt lat="44.67755" lon="3.7422">
        <ele>1232.958411</ele>
        <time>2019-10-08T13:13:11.081Z</time>
      </trkpt>
      <trkpt lat="44.67806" lon="3.74308">
        <ele>1228.780401</ele>
        <time>2019-10-08T13:13:33.681Z</time>
      </trkpt>
      <trkpt lat="44.67867" lon="3.74501">
        <ele>1220.849439</ele>
        <time>2019-10-08T13:14:16.321Z</time>
      </trkpt>
      <trkpt lat="44.67873" lon="3.74592">
        <ele>1219.603172</ele>
        <time>2019-10-08T13:14:36.346Z</time>
      </trkpt>
      <trkpt lat="44.67931" lon="3.74883">
        <ele>1216.687203</ele>
        <time>2019-10-08T13:15:52.456Z</time>
      </trkpt>
      <trkpt lat="44.67953" lon="3.74945">
        <ele>1216.311206</ele>
        <time>2019-10-08T13:16:10.157Z</time>
      </trkpt>
      <trkpt lat="44.67959" lon="3.74958">
        <ele>1216.229575</ele>
        <time>2019-10-08T13:16:14.129Z</time>
      </trkpt>
      <trkpt lat="44.67985" lon="3.75015">
        <ele>1215.254257</ele>
        <time>2019-10-08T13:16:30.493Z</time>
      </trkpt>
      <trkpt lat="44.6804" lon="3.75121">
        <ele>1212.441861</ele>
        <time>2019-10-08T13:17:00.280Z</time>
      </trkpt>
      <trkpt lat="44.68067" lon="3.752">
        <ele>1210.498426</ele>
        <time>2019-10-08T13:17:18.502Z</time>
      </trkpt>
      <trkpt lat="44.68085" lon="3.75264">
        <ele>1207.729694</ele>
        <time>2019-10-08T13:17:32.440Z</time>
      </trkpt>
      <trkpt lat="44.681" lon="3.75347">
        <ele>1204.273636</ele>
        <time>2019-10-08T13:17:49.377Z</time>
      </trkpt>
      <trkpt lat="44.6811" lon="3.7544">
        <ele>1200.455503</ele>
        <time>2019-10-08T13:18:08.319Z</time>
      </trkpt>
      <trkpt lat="44.68134" lon="3.7551">
        <ele>1198.093718</ele>
        <time>2019-10-08T13:18:23.946Z</time>
      </trkpt>
      <trkpt lat="44.6815" lon="3.75513">
        <ele>1197.385924</ele>
        <time>2019-10-08T13:18:26.748Z</time>
      </trkpt>
      <trkpt lat="44.68161" lon="3.75516">
        <ele>1196.904884</ele>
        <time>2019-10-08T13:18:28.610Z</time>
      </trkpt>
      <trkpt lat="44.68273" lon="3.75562">
        <ele>1192.198334</ele>
        <time>2019-10-08T13:18:49.088Z</time>
      </trkpt>
      <trkpt lat="44.68293" lon="3.75559">
        <ele>1191.683336</ele>
        <time>2019-10-08T13:18:52.793Z</time>
      </trkpt>
      <trkpt lat="44.68329" lon="3.75536">
        <ele>1190.620575</ele>
        <time>2019-10-08T13:19:00.384Z</time>
      </trkpt>
      <trkpt lat="44.68357" lon="3.75526">
        <ele>1189.872722</ele>
        <time>2019-10-08T13:19:05.694Z</time>
      </trkpt>
      <trkpt lat="44.68412" lon="3.75551">
        <ele>1188.326735</ele>
        <time>2019-10-08T13:19:16.620Z</time>
      </trkpt>
      <trkpt lat="44.6845" lon="3.75613">
        <ele>1187.164216</ele>
        <time>2019-10-08T13:19:27.420Z</time>
      </trkpt>
      <trkpt lat="44.68468" lon="3.75634">
        <ele>1186.75558</ele>
        <time>2019-10-08T13:19:31.357Z</time>
      </trkpt>
      <trkpt lat="44.68483" lon="3.75641">
        <ele>1186.453079</ele>
        <time>2019-10-08T13:19:34.677Z</time>
      </trkpt>
      <trkpt lat="44.68506" lon="3.75633">
        <ele>1186.036325</ele>
        <time>2019-10-08T13:19:38.953Z</time>
      </trkpt>
      <trkpt lat="44.68529" lon="3.75633">
        <ele>1185.615885</ele>
        <time>2019-10-08T13:19:43.734Z</time>
      </trkpt>
      <trkpt lat="44.68563" lon="3.75646">
        <ele>1184.973376</ele>
        <time>2019-10-08T13:19:51.193Z</time>
      </trkpt>
      <trkpt lat="44.68578" lon="3.75645">
        <ele>1184.735626</ele>
        <time>2019-10-08T13:19:54.260Z</time>
      </trkpt>
      <trkpt lat="44.6859" lon="3.75635">
        <ele>1184.955243</ele>
        <time>2019-10-08T13:19:58.228Z</time>
      </trkpt>
      <trkpt lat="44.68601" lon="3.75615">
        <ele>1185.234906</ele>
        <time>2019-10-08T13:20:02.011Z</time>
      </trkpt>
      <trkpt lat="44.68632" lon="3.75638">
        <ele>1185.77334</ele>
        <time>2019-10-08T13:20:11.669Z</time>
      </trkpt>
      <trkpt lat="44.68645" lon="3.75667">
        <ele>1186.162575</ele>
        <time>2019-10-08T13:20:20.473Z</time>
      </trkpt>
      <trkpt lat="44.68649" lon="3.75718">
        <ele>1186.728867</ele>
        <time>2019-10-08T13:20:32.976Z</time>
      </trkpt>
      <trkpt lat="44.68639" lon="3.75765">
        <ele>1187.279141</ele>
        <time>2019-10-08T13:20:45.455Z</time>
      </trkpt>
      <trkpt lat="44.68631" lon="3.75847">
        <ele>1188.153838</ele>
        <time>2019-10-08T13:21:08.070Z</time>
      </trkpt>
      <trkpt lat="44.68629" lon="3.75898">
        <ele>1188.690925</ele>
        <time>2019-10-08T13:21:20.567Z</time>
      </trkpt>
      <trkpt lat="44.68636" lon="3.75897">
        <ele>1188.798482</ele>
        <time>2019-10-08T13:21:22.177Z</time>
      </trkpt>
      <trkpt lat="44.68708" lon="3.75841">
        <ele>1190.005287</ele>
        <time>2019-10-08T13:21:45.520Z</time>
      </trkpt>
      <trkpt lat="44.68729" lon="3.75843">
        <ele>1190.097598</ele>
        <time>2019-10-08T13:21:50.885Z</time>
      </trkpt>
      <trkpt lat="44.68804" lon="3.7589">
        <ele>1189.224476</ele>
        <time>2019-10-08T13:22:07.919Z</time>
      </trkpt>
      <trkpt lat="44.6885" lon="3.75911">
        <ele>1188.707017</ele>
        <time>2019-10-08T13:22:17.690Z</time>
      </trkpt>
      <trkpt lat="44.68876" lon="3.75959">
        <ele>1188.209556</ele>
        <time>2019-10-08T13:22:26.198Z</time>
      </trkpt>
      <trkpt lat="44.68913" lon="3.75986">
        <ele>1187.151806</ele>
        <time>2019-10-08T13:22:34.069Z</time>
      </trkpt>
      <trkpt lat="44.68961" lon="3.76011">
        <ele>1185.824333</ele>
        <time>2019-10-08T13:22:43.709Z</time>
      </trkpt>
      <trkpt lat="44.68996" lon="3.76005">
        <ele>1184.90274</ele>
        <time>2019-10-08T13:22:50.281Z</time>
      </trkpt>
      <trkpt lat="44.69033" lon="3.75988">
        <ele>1183.90214</ele>
        <time>2019-10-08T13:22:57.291Z</time>
      </trkpt>
      <trkpt lat="44.69071" lon="3.7595">
        <ele>1182.500035</ele>
        <time>2019-10-08T13:23:05.494Z</time>
      </trkpt>
      <trkpt lat="44.69108" lon="3.75942">
        <ele>1181.344636</ele>
        <time>2019-10-08T13:23:12.002Z</time>
      </trkpt>
      <trkpt lat="44.692" lon="3.75939">
        <ele>1178.47478</ele>
        <time>2019-10-08T13:23:28.765Z</time>
      </trkpt>
      <trkpt lat="44.69204" lon="3.75938">
        <ele>1178.37162</ele>
        <time>2019-10-08T13:23:29.265Z</time>
      </trkpt>
      <trkpt lat="44.69207" lon="3.7599">
        <ele>1177.685119</ele>
        <time>2019-10-08T13:23:41.289Z</time>
      </trkpt>
      <trkpt lat="44.69203" lon="3.76043">
        <ele>1177.180921</ele>
        <time>2019-10-08T13:23:53.822Z</time>
      </trkpt>
      <trkpt lat="44.69186" lon="3.76146">
        <ele>1176.18651</ele>
        <time>2019-10-08T13:24:19.347Z</time>
      </trkpt>
      <trkpt lat="44.69147" lon="3.76226">
        <ele>1175.489769</ele>
        <time>2019-10-08T13:24:44.738Z</time>
      </trkpt>
      <trkpt lat="44.69137" lon="3.76264">
        <ele>1175.326826</ele>
        <time>2019-10-08T13:24:55.414Z</time>
      </trkpt>
      <trkpt lat="44.69114" lon="3.76306">
        <ele>1175.117439</ele>
        <time>2019-10-08T13:25:08.954Z</time>
      </trkpt>
      <trkpt lat="44.69164" lon="3.76417">
        <ele>1174.435051</ele>
        <time>2019-10-08T13:25:41.910Z</time>
      </trkpt>
      <trkpt lat="44.69171" lon="3.76454">
        <ele>1173.707959</ele>
        <time>2019-10-08T13:25:51.359Z</time>
      </trkpt>
      <trkpt lat="44.69238" lon="3.76611">
        <ele>1170.266844</ele>
        <time>2019-10-08T13:26:32.571Z</time>
      </trkpt>
      <trkpt lat="44.69279" lon="3.76654">
        <ele>1167.399514</ele>
        <time>2019-10-08T13:26:47.373Z</time>
      </trkpt>
      <trkpt lat="44.69368" lon="3.76716">
        <ele>1160.679552</ele>
        <time>2019-10-08T13:27:14.543Z</time>
      </trkpt>
      <trkpt lat="44.69443" lon="3.76886">
        <ele>1148.179088</ele>
        <time>2019-10-08T13:27:51.667Z</time>
      </trkpt>
      <trkpt lat="44.69573" lon="3.77068">
        <ele>1130.34805</ele>
        <time>2019-10-08T13:28:38.605Z</time>
      </trkpt>
      <trkpt lat="44.69623" lon="3.77185">
        <ele>1122.077187</ele>
        <time>2019-10-08T13:29:03.971Z</time>
      </trkpt>
      <trkpt lat="44.6965" lon="3.77271">
        <ele>1119.792339</ele>
        <time>2019-10-08T13:29:22.538Z</time>
      </trkpt>
      <trkpt lat="44.69652" lon="3.77322">
        <ele>1118.526918</ele>
        <time>2019-10-08T13:29:33.950Z</time>
      </trkpt>
      <trkpt lat="44.6966" lon="3.77368">
        <ele>1117.36389</ele>
        <time>2019-10-08T13:29:45.925Z</time>
      </trkpt>
      <trkpt lat="44.69681" lon="3.77403">
        <ele>1117.256266</ele>
        <time>2019-10-08T13:30:00.553Z</time>
      </trkpt>
      <trkpt lat="44.69693" lon="3.7744">
        <ele>1119.692772</ele>
        <time>2019-10-08T13:30:16.820Z</time>
      </trkpt>
      <trkpt lat="44.69716" lon="3.77462">
        <ele>1121.989638</ele>
        <time>2019-10-08T13:30:37.849Z</time>
      </trkpt>
      <trkpt lat="44.69713" lon="3.77492">
        <ele>1123.809841</ele>
        <time>2019-10-08T13:30:54.914Z</time>
      </trkpt>
      <trkpt lat="44.69721" lon="3.77525">
        <ele>1125.838535</ele>
        <time>2019-10-08T13:31:16.537Z</time>
      </trkpt>
      <trkpt lat="44.69727" lon="3.77545">
        <ele>1127.18694</ele>
        <time>2019-10-08T13:31:31.610Z</time>
      </trkpt>
      <trkpt lat="44.69742" lon="3.77556">
        <ele>1128.626758</ele>
        <time>2019-10-08T13:31:47.963Z</time>
      </trkpt>
      <trkpt lat="44.6974" lon="3.77565">
        <ele>1129.233666</ele>
        <time>2019-10-08T13:31:56.073Z</time>
      </trkpt>
      <trkpt lat="44.69713" lon="3.77573">
        <ele>1131.53579</ele>
        <time>2019-10-08T13:32:22.516Z</time>
      </trkpt>
      <trkpt lat="44.69705" lon="3.77585">
        <ele>1132.756925</ele>
        <time>2019-10-08T13:32:36.178Z</time>
      </trkpt>
      <trkpt lat="44.69698" lon="3.77607">
        <ele>1134.524645</ele>
        <time>2019-10-08T13:32:52.174Z</time>
      </trkpt>
      <trkpt lat="44.69692" lon="3.77653">
        <ele>1137.975387</ele>
        <time>2019-10-08T13:33:24.492Z</time>
      </trkpt>
      <trkpt lat="44.69693" lon="3.77674">
        <ele>1139.52988</ele>
        <time>2019-10-08T13:33:39.756Z</time>
      </trkpt>
      <trkpt lat="44.69706" lon="3.77696">
        <ele>1141.683249</ele>
        <time>2019-10-08T13:33:58.167Z</time>
      </trkpt>
      <trkpt lat="44.69706" lon="3.77724">
        <ele>1143.752545</ele>
        <time>2019-10-08T13:34:17.533Z</time>
      </trkpt>
      <trkpt lat="44.69704" lon="3.77776">
        <ele>1147.588143</ele>
        <time>2019-10-08T13:34:49.883Z</time>
      </trkpt>
      <trkpt lat="44.69728" lon="3.77885">
        <ele>1152.080411</ele>
        <time>2019-10-08T13:35:46.181Z</time>
      </trkpt>
      <trkpt lat="44.69709" lon="3.78025">
        <ele>1155.289127</ele>
        <time>2019-10-08T13:36:33.138Z</time>
      </trkpt>
      <trkpt lat="44.69715" lon="3.78061">
        <ele>1156.056895</ele>
        <time>2019-10-08T13:36:42.952Z</time>
      </trkpt>
      <trkpt lat="44.69723" lon="3.78061">
        <ele>1155.985231</ele>
        <time>2019-10-08T13:36:44.964Z</time>
      </trkpt>
      <trkpt lat="44.69753" lon="3.78058">
        <ele>1155.734073</ele>
        <time>2019-10-08T13:36:51.619Z</time>
      </trkpt>
      <trkpt lat="44.69811" lon="3.78061">
        <ele>1155.251421</ele>
        <time>2019-10-08T13:37:03.731Z</time>
      </trkpt>
      <trkpt lat="44.69867" lon="3.78054">
        <ele>1154.784853</ele>
        <time>2019-10-08T13:37:14.610Z</time>
      </trkpt>
      <trkpt lat="44.69961" lon="3.78065">
        <ele>1154.165975</ele>
        <time>2019-10-08T13:37:34.468Z</time>
      </trkpt>
      <trkpt lat="44.69974" lon="3.78078">
        <ele>1154.073407</ele>
        <time>2019-10-08T13:37:37.417Z</time>
      </trkpt>
      <trkpt lat="44.69978" lon="3.78069">
        <ele>1154.03079</ele>
        <time>2019-10-08T13:37:40.090Z</time>
      </trkpt>
      <trkpt lat="44.69984" lon="3.78056">
        <ele>1153.967014</ele>
        <time>2019-10-08T13:37:45.056Z</time>
      </trkpt>
      <trkpt lat="44.69995" lon="3.77992">
        <ele>1153.693036</ele>
        <time>2019-10-08T13:38:01.575Z</time>
      </trkpt>
      <trkpt lat="44.70066" lon="3.77898">
        <ele>1153.31988</ele>
        <time>2019-10-08T13:38:38.652Z</time>
      </trkpt>
      <trkpt lat="44.70087" lon="3.77878">
        <ele>1153.245175</ele>
        <time>2019-10-08T13:38:48.237Z</time>
      </trkpt>
      <trkpt lat="44.70104" lon="3.77873">
        <ele>1153.193094</ele>
        <time>2019-10-08T13:38:54.771Z</time>
      </trkpt>
      <trkpt lat="44.70139" lon="3.77877">
        <ele>1153.092038</ele>
        <time>2019-10-08T13:39:07.161Z</time>
      </trkpt>
      <trkpt lat="44.70167" lon="3.77866">
        <ele>1153.006443</ele>
        <time>2019-10-08T13:39:17.435Z</time>
      </trkpt>
      <trkpt lat="44.70267" lon="3.77808">
        <ele>1151.587343</ele>
        <time>2019-10-08T13:39:54.234Z</time>
      </trkpt>
      <trkpt lat="44.7036" lon="3.77704">
        <ele>1150.062162</ele>
        <time>2019-10-08T13:40:33.372Z</time>
      </trkpt>
      <trkpt lat="44.70459" lon="3.7757">
        <ele>1148.495501</ele>
        <time>2019-10-08T13:41:20.483Z</time>
      </trkpt>
      <trkpt lat="44.70459" lon="3.7757">
        <ele>1148.495501</ele>
        <time>2019-10-08T13:41:20.544Z</time>
      </trkpt>
      <trkpt lat="44.70528" lon="3.77517">
        <ele>1148.008743</ele>
        <time>2019-10-08T13:41:48.921Z</time>
      </trkpt>
      <trkpt lat="44.70606" lon="3.77422">
        <ele>1147.368411</ele>
        <time>2019-10-08T13:42:26.012Z</time>
      </trkpt>
      <trkpt lat="44.70677" lon="3.77384">
        <ele>1145.473349</ele>
        <time>2019-10-08T13:42:51.553Z</time>
      </trkpt>
      <trkpt lat="44.70741" lon="3.77374">
        <ele>1143.883929</ele>
        <time>2019-10-08T13:43:11.645Z</time>
      </trkpt>
      <trkpt lat="44.7074" lon="3.77371">
        <ele>1143.8</ele>
      </trkpt>
      <trkpt lat="44.70746" lon="3.77369">
        <ele>1143.6</ele>
      </trkpt>
      <trkpt lat="44.70758" lon="3.77362">
        <ele>1142.9</ele>
      </trkpt>
      <trkpt lat="44.70771" lon="3.77356">
        <ele>1142.3</ele>
      </trkpt>
      <trkpt lat="44.70781" lon="3.77349">
        <ele>1141.9</ele>
      </trkpt>
      <trkpt lat="44.70789" lon="3.77347">
        <ele>1141.7</ele>
      </trkpt>
      <trkpt lat="44.70796" lon="3.77345">
        <ele>1141.5</ele>
      </trkpt>
      <trkpt lat="44.70805" lon="3.77342">
        <ele>1141.4</ele>
      </trkpt>
      <trkpt lat="44.70817" lon="3.77334">
        <ele>1141</ele>
      </trkpt>
      <trkpt lat="44.70829" lon="3.77325">
        <ele>1140.1</ele>
      </trkpt>
      <trkpt lat="44.70842" lon="3.77317">
        <ele>1138.2</ele>
      </trkpt>
      <trkpt lat="44.7086" lon="3.7731">
        <ele>1135.5</ele>
      </trkpt>
      <trkpt lat="44.70872" lon="3.77305">
        <ele>1133.8</ele>
      </trkpt>
      <trkpt lat="44.70886" lon="3.77303">
        <ele>1132.1</ele>
      </trkpt>
      <trkpt lat="44.70895" lon="3.773">
        <ele>1131.1</ele>
      </trkpt>
      <trkpt lat="44.70905" lon="3.77294">
        <ele>1129.8</ele>
      </trkpt>
      <trkpt lat="44.70912" lon="3.7729">
        <ele>1128.9</ele>
      </trkpt>
      <trkpt lat="44.7093" lon="3.77283">
        <ele>1127.4</ele>
      </trkpt>
      <trkpt lat="44.7093" lon="3.77276">
        <ele>1127.2</ele>
      </trkpt>
      <trkpt lat="44.70932" lon="3.7728">
        <ele>1127.2</ele>
      </trkpt>
      <trkpt lat="44.70939" lon="3.77301">
        <ele>1127</ele>
      </trkpt>
      <trkpt lat="44.70944" lon="3.77316">
        <ele>1126.6</ele>
      </trkpt>
      <trkpt lat="44.70946" lon="3.77327">
        <ele>1126.5</ele>
      </trkpt>
      <trkpt lat="44.70948" lon="3.77341">
        <ele>1126</ele>
      </trkpt>
      <trkpt lat="44.70949" lon="3.77348">
        <ele>1125.5</ele>
      </trkpt>
      <trkpt lat="44.70957" lon="3.7737">
        <ele>1122.71622</ele>
        <time>2019-10-08T13:44:37.788Z</time>
      </trkpt>
      <trkpt lat="44.70958" lon="3.7737">
        <ele>1123.4</ele>
      </trkpt>
      <trkpt lat="44.70961" lon="3.77378">
        <ele>1122.4</ele>
      </trkpt>
      <trkpt lat="44.7097" lon="3.77398">
        <ele>1119.9</ele>
      </trkpt>
      <trkpt lat="44.70974" lon="3.7741">
        <ele>1118.5</ele>
      </trkpt>
      <trkpt lat="44.70976" lon="3.77419">
        <ele>1117.4</ele>
      </trkpt>
      <trkpt lat="44.70978" lon="3.77429">
        <ele>1116.3</ele>
      </trkpt>
      <trkpt lat="44.70978" lon="3.77439">
        <ele>1115.5</ele>
      </trkpt>
      <trkpt lat="44.70979" lon="3.77454">
        <ele>1114.3</ele>
      </trkpt>
      <trkpt lat="44.70979" lon="3.77465">
        <ele>1113.4</ele>
      </trkpt>
      <trkpt lat="44.70981" lon="3.77476">
        <ele>1112.3</ele>
      </trkpt>
      <trkpt lat="44.70984" lon="3.77492">
        <ele>1110.3</ele>
      </trkpt>
      <trkpt lat="44.70987" lon="3.77504">
        <ele>1108.8</ele>
      </trkpt>
      <trkpt lat="44.7099" lon="3.77513">
        <ele>1107.5</ele>
      </trkpt>
      <trkpt lat="44.70996" lon="3.77527">
        <ele>1105.5</ele>
      </trkpt>
      <trkpt lat="44.70998" lon="3.77533">
        <ele>1104.9</ele>
      </trkpt>
      <trkpt lat="44.71" lon="3.77539">
        <ele>1104.1</ele>
      </trkpt>
      <trkpt lat="44.71006" lon="3.77559">
        <ele>1102.7</ele>
      </trkpt>
      <trkpt lat="44.71008" lon="3.77566">
        <ele>1102.1</ele>
      </trkpt>
      <trkpt lat="44.71012" lon="3.77573">
        <ele>1101.4</ele>
      </trkpt>
      <trkpt lat="44.71018" lon="3.77579">
        <ele>1100.6</ele>
      </trkpt>
      <trkpt lat="44.71022" lon="3.77582">
        <ele>1099.9</ele>
      </trkpt>
      <trkpt lat="44.71028" lon="3.77586">
        <ele>1099.2</ele>
      </trkpt>
      <trkpt lat="44.71035" lon="3.77588">
        <ele>1098.4</ele>
      </trkpt>
      <trkpt lat="44.71045" lon="3.77592">
        <ele>1097.4</ele>
      </trkpt>
      <trkpt lat="44.7105" lon="3.77592">
        <ele>1096.9</ele>
      </trkpt>
      <trkpt lat="44.71062" lon="3.77592">
        <ele>1095.8</ele>
      </trkpt>
      <trkpt lat="44.7107" lon="3.77592">
        <ele>1095</ele>
      </trkpt>
      <trkpt lat="44.71081" lon="3.77592">
        <ele>1094</ele>
      </trkpt>
      <trkpt lat="44.71095" lon="3.77589">
        <ele>1093.3</ele>
      </trkpt>
      <trkpt lat="44.71107" lon="3.77587">
        <ele>1092.8</ele>
      </trkpt>
      <trkpt lat="44.71119" lon="3.77585">
        <ele>1092.3</ele>
      </trkpt>
      <trkpt lat="44.71129" lon="3.77581">
        <ele>1092</ele>
      </trkpt>
      <trkpt lat="44.71138" lon="3.77578">
        <ele>1091.9</ele>
      </trkpt>
      <trkpt lat="44.7115" lon="3.77574">
        <ele>1091.6</ele>
      </trkpt>
      <trkpt lat="44.71154" lon="3.77573">
        <ele>1091.6</ele>
      </trkpt>
      <trkpt lat="44.71158" lon="3.77572">
        <ele>1091.4</ele>
      </trkpt>
      <trkpt lat="44.71162" lon="3.77573">
        <ele>1091.1</ele>
      </trkpt>
      <trkpt lat="44.71166" lon="3.77575">
        <ele>1090.8</ele>
      </trkpt>
      <trkpt lat="44.71171" lon="3.77578">
        <ele>1090.2</ele>
      </trkpt>
      <trkpt lat="44.71174" lon="3.7758">
        <ele>1089.9</ele>
      </trkpt>
      <trkpt lat="44.7118" lon="3.77585">
        <ele>1089.4</ele>
      </trkpt>
      <trkpt lat="44.71187" lon="3.77593">
        <ele>1089</ele>
      </trkpt>
      <trkpt lat="44.71194" lon="3.77603">
        <ele>1088.6</ele>
      </trkpt>
      <trkpt lat="44.71201" lon="3.77616">
        <ele>1088.3</ele>
      </trkpt>
      <trkpt lat="44.71204" lon="3.77624">
        <ele>1088.2</ele>
      </trkpt>
      <trkpt lat="44.71207" lon="3.77634">
        <ele>1088</ele>
      </trkpt>
      <trkpt lat="44.71209" lon="3.77644">
        <ele>1088</ele>
      </trkpt>
      <trkpt lat="44.7121" lon="3.77648">
        <ele>1087.9</ele>
      </trkpt>
      <trkpt lat="44.71211" lon="3.77654">
        <ele>1087.9</ele>
      </trkpt>
      <trkpt lat="44.71213" lon="3.77665">
        <ele>1087.9</ele>
      </trkpt>
      <trkpt lat="44.71217" lon="3.77689">
        <ele>1088</ele>
      </trkpt>
      <trkpt lat="44.71224" lon="3.77728">
        <ele>1088.4</ele>
      </trkpt>
      <trkpt lat="44.71226" lon="3.77739">
        <ele>1088.6</ele>
      </trkpt>
      <trkpt lat="44.7123" lon="3.77749">
        <ele>1088.7</ele>
      </trkpt>
      <trkpt lat="44.71233" lon="3.77758">
        <ele>1088.9</ele>
      </trkpt>
      <trkpt lat="44.71236" lon="3.77765">
        <ele>1089.1</ele>
      </trkpt>
      <trkpt lat="44.7124" lon="3.77771">
        <ele>1089.3</ele>
      </trkpt>
      <trkpt lat="44.71245" lon="3.77778">
        <ele>1089.6</ele>
      </trkpt>
      <trkpt lat="44.71258" lon="3.77796">
        <ele>1090.8</ele>
      </trkpt>
      <trkpt lat="44.71263" lon="3.77805">
        <ele>1091.6</ele>
      </trkpt>
      <trkpt lat="44.71268" lon="3.77814">
        <ele>1092.4</ele>
      </trkpt>
      <trkpt lat="44.71272" lon="3.7782">
        <ele>1093</ele>
      </trkpt>
      <trkpt lat="44.71278" lon="3.77833">
        <ele>1094</ele>
      </trkpt>
      <trkpt lat="44.71285" lon="3.77849">
        <ele>1096</ele>
      </trkpt>
      <trkpt lat="44.71292" lon="3.77864">
        <ele>1097.9</ele>
      </trkpt>
      <trkpt lat="44.71298" lon="3.77877">
        <ele>1099.5</ele>
      </trkpt>
      <trkpt lat="44.71302" lon="3.77882">
        <ele>1100.4</ele>
      </trkpt>
      <trkpt lat="44.71302" lon="3.77882">
        <ele>1100.4</ele>
      </trkpt>
      <trkpt lat="44.71306" lon="3.77887">
        <ele>1101.1</ele>
      </trkpt>
      <trkpt lat="44.71309" lon="3.77891">
        <ele>1101.7</ele>
      </trkpt>
      <trkpt lat="44.71317" lon="3.77903">
        <ele>1103.4</ele>
      </trkpt>
      <trkpt lat="44.71325" lon="3.77915">
        <ele>1105.1</ele>
      </trkpt>
      <trkpt lat="44.71331" lon="3.77925">
        <ele>1106.1</ele>
      </trkpt>
      <trkpt lat="44.71339" lon="3.7794">
        <ele>1107.6</ele>
      </trkpt>
      <trkpt lat="44.71349" lon="3.77957">
        <ele>1109.3</ele>
      </trkpt>
      <trkpt lat="44.71354" lon="3.77969">
        <ele>1110.3</ele>
      </trkpt>
      <trkpt lat="44.71358" lon="3.77981">
        <ele>1111.2</ele>
      </trkpt>
      <trkpt lat="44.71364" lon="3.77995">
        <ele>1112.3</ele>
      </trkpt>
      <trkpt lat="44.71367" lon="3.78001">
        <ele>1112.9</ele>
      </trkpt>
      <trkpt lat="44.7137" lon="3.78006">
        <ele>1113.2</ele>
      </trkpt>
      <trkpt lat="44.71377" lon="3.7802">
        <ele>1114</ele>
      </trkpt>
      <trkpt lat="44.71385" lon="3.7804">
        <ele>1114.9</ele>
      </trkpt>
      <trkpt lat="44.71388" lon="3.78048">
        <ele>1115.2</ele>
      </trkpt>
      <trkpt lat="44.71392" lon="3.78061">
        <ele>1115.6</ele>
      </trkpt>
      <trkpt lat="44.71396" lon="3.78075">
        <ele>1115.9</ele>
      </trkpt>
      <trkpt lat="44.714" lon="3.78089">
        <ele>1116.1</ele>
      </trkpt>
      <trkpt lat="44.71403" lon="3.78102">
        <ele>1115.9</ele>
      </trkpt>
      <trkpt lat="44.71403" lon="3.78106">
        <ele>1115.9</ele>
      </trkpt>
      <trkpt lat="44.71403" lon="3.7811">
        <ele>1115.7</ele>
      </trkpt>
      <trkpt lat="44.71402" lon="3.78114">
        <ele>1115.6</ele>
      </trkpt>
      <trkpt lat="44.71401" lon="3.78119">
        <ele>1115.5</ele>
      </trkpt>
      <trkpt lat="44.71401" lon="3.78124">
        <ele>1115.4</ele>
      </trkpt>
      <trkpt lat="44.71402" lon="3.78132">
        <ele>1115.2</ele>
      </trkpt>
      <trkpt lat="44.71402" lon="3.78141">
        <ele>1115.1</ele>
      </trkpt>
      <trkpt lat="44.71403" lon="3.7815">
        <ele>1114.9</ele>
      </trkpt>
      <trkpt lat="44.71403" lon="3.78159">
        <ele>1114.7</ele>
      </trkpt>
      <trkpt lat="44.71404" lon="3.78167">
        <ele>1114.5</ele>
      </trkpt>
      <trkpt lat="44.714" lon="3.78171">
        <ele>1114.3</ele>
      </trkpt>
      <trkpt lat="44.71396" lon="3.78177">
        <ele>1114</ele>
      </trkpt>
      <trkpt lat="44.71391" lon="3.78182">
        <ele>1113.7</ele>
      </trkpt>
      <trkpt lat="44.71389" lon="3.78186">
        <ele>1113.5</ele>
      </trkpt>
      <trkpt lat="44.7139" lon="3.78196">
        <ele>1113.3</ele>
      </trkpt>
      <trkpt lat="44.71392" lon="3.78214">
        <ele>1112.9</ele>
      </trkpt>
      <trkpt lat="44.71393" lon="3.78229">
        <ele>1112.5</ele>
      </trkpt>
      <trkpt lat="44.71405" lon="3.78242">
        <ele>1112.3</ele>
      </trkpt>
      <trkpt lat="44.71409" lon="3.78245">
        <ele>1112.2</ele>
      </trkpt>
      <trkpt lat="44.71413" lon="3.78248">
        <ele>1112.1</ele>
      </trkpt>
      <trkpt lat="44.71417" lon="3.78253">
        <ele>1111.9</ele>
      </trkpt>
      <trkpt lat="44.7142" lon="3.78257">
        <ele>1111.4</ele>
      </trkpt>
      <trkpt lat="44.71424" lon="3.78262">
        <ele>1110.8</ele>
      </trkpt>
      <trkpt lat="44.71427" lon="3.78268">
        <ele>1110.2</ele>
      </trkpt>
      <trkpt lat="44.71432" lon="3.78274">
        <ele>1109.5</ele>
      </trkpt>
      <trkpt lat="44.71435" lon="3.78267">
        <ele>1109.5</ele>
      </trkpt>
      <trkpt lat="44.71436" lon="3.78266">
        <ele>1109.5</ele>
      </trkpt>
      <trkpt lat="44.71441" lon="3.78259">
        <ele>1109.4</ele>
      </trkpt>
      <trkpt lat="44.7145" lon="3.78252">
        <ele>1109.1</ele>
      </trkpt>
      <trkpt lat="44.71482" lon="3.78232">
        <ele>1107.7</ele>
      </trkpt>
      <trkpt lat="44.71496" lon="3.78225">
        <ele>1107.1</ele>
      </trkpt>
      <trkpt lat="44.71502" lon="3.78224">
        <ele>1106.8</ele>
      </trkpt>
      <trkpt lat="44.71508" lon="3.78223">
        <ele>1106.5</ele>
      </trkpt>
      <trkpt lat="44.71514" lon="3.78224">
        <ele>1106.1</ele>
      </trkpt>
      <trkpt lat="44.71517" lon="3.78224">
        <ele>1105.9</ele>
      </trkpt>
      <trkpt lat="44.71525" lon="3.78226">
        <ele>1105.3</ele>
      </trkpt>
      <trkpt lat="44.71557" lon="3.7824">
        <ele>1102.4</ele>
      </trkpt>
      <trkpt lat="44.71562" lon="3.78243">
        <ele>1101.9</ele>
      </trkpt>
      <trkpt lat="44.71567" lon="3.78247">
        <ele>1101.2</ele>
      </trkpt>
      <trkpt lat="44.71575" lon="3.78255">
        <ele>1100.1</ele>
      </trkpt>
      <trkpt lat="44.7158" lon="3.7826">
        <ele>1099.2</ele>
      </trkpt>
      <trkpt lat="44.71584" lon="3.78261">
        <ele>1098.9</ele>
      </trkpt>
      <trkpt lat="44.71588" lon="3.78262">
        <ele>1098.6</ele>
      </trkpt>
      <trkpt lat="44.71595" lon="3.78261">
        <ele>1098.2</ele>
      </trkpt>
      <trkpt lat="44.71606" lon="3.78257">
        <ele>1097.9</ele>
      </trkpt>
      <trkpt lat="44.71631" lon="3.78248">
        <ele>1097.3</ele>
      </trkpt>
      <trkpt lat="44.71638" lon="3.78248">
        <ele>1097</ele>
      </trkpt>
      <trkpt lat="44.71646" lon="3.78248">
        <ele>1096.4</ele>
      </trkpt>
      <trkpt lat="44.71655" lon="3.78247">
        <ele>1096</ele>
      </trkpt>
      <trkpt lat="44.71663" lon="3.78245">
        <ele>1095.7</ele>
      </trkpt>
      <trkpt lat="44.71674" lon="3.78241">
        <ele>1095.4</ele>
      </trkpt>
      <trkpt lat="44.71679" lon="3.78239">
        <ele>1095.3</ele>
      </trkpt>
      <trkpt lat="44.71694" lon="3.78234">
        <ele>1095.1</ele>
      </trkpt>
      <trkpt lat="44.7172" lon="3.78227">
        <ele>1094.5</ele>
      </trkpt>
      <trkpt lat="44.71739" lon="3.78224">
        <ele>1094</ele>
      </trkpt>
      <trkpt lat="44.71755" lon="3.78224">
        <ele>1093.7</ele>
      </trkpt>
      <trkpt lat="44.71765" lon="3.78226">
        <ele>1093.9</ele>
      </trkpt>
      <trkpt lat="44.7177" lon="3.78228">
        <ele>1094</ele>
      </trkpt>
      <trkpt lat="44.71774" lon="3.78232">
        <ele>1093.9</ele>
      </trkpt>
      <trkpt lat="44.71782" lon="3.78228">
        <ele>1094.5</ele>
      </trkpt>
      <trkpt lat="44.7179" lon="3.78227">
        <ele>1094.9</ele>
      </trkpt>
      <trkpt lat="44.71804" lon="3.78223">
        <ele>1095.8</ele>
      </trkpt>
      <trkpt lat="44.71817" lon="3.78218">
        <ele>1096.6</ele>
      </trkpt>
      <trkpt lat="44.71828" lon="3.78213">
        <ele>1097.1</ele>
      </trkpt>
      <trkpt lat="44.71843" lon="3.78206">
        <ele>1097.1</ele>
      </trkpt>
      <trkpt lat="44.71858" lon="3.782">
        <ele>1096.3</ele>
      </trkpt>
      <trkpt lat="44.71881" lon="3.78195">
        <ele>1095</ele>
      </trkpt>
      <trkpt lat="44.71931" lon="3.7819">
        <ele>1091.2</ele>
      </trkpt>
      <trkpt lat="44.7195" lon="3.78187">
        <ele>1089.4</ele>
      </trkpt>
      <trkpt lat="44.7196" lon="3.78184">
        <ele>1088.4</ele>
      </trkpt>
      <trkpt lat="44.71974" lon="3.78177">
        <ele>1086.9</ele>
      </trkpt>
      <trkpt lat="44.71985" lon="3.78169">
        <ele>1085.5</ele>
      </trkpt>
      <trkpt lat="44.71998" lon="3.7816">
        <ele>1083.9</ele>
      </trkpt>
      <trkpt lat="44.72024" lon="3.78143">
        <ele>1081.9</ele>
      </trkpt>
      <trkpt lat="44.72051" lon="3.78129">
        <ele>1080.3</ele>
      </trkpt>
      <trkpt lat="44.72064" lon="3.78122">
        <ele>1079.6</ele>
      </trkpt>
      <trkpt lat="44.72073" lon="3.78115">
        <ele>1079.1</ele>
      </trkpt>
      <trkpt lat="44.72089" lon="3.78106">
        <ele>1078.2</ele>
      </trkpt>
      <trkpt lat="44.72113" lon="3.78091">
        <ele>1076.4</ele>
      </trkpt>
      <trkpt lat="44.72118" lon="3.78102">
        <ele>1076.5</ele>
      </trkpt>
      <trkpt lat="44.72129" lon="3.78086">
        <ele>1075.3</ele>
      </trkpt>
      <trkpt lat="44.72145" lon="3.78073">
        <ele>1073.9</ele>
      </trkpt>
      <trkpt lat="44.72197" lon="3.78041">
        <ele>1070.3</ele>
      </trkpt>
      <trkpt lat="44.72219" lon="3.78027">
        <ele>1069.3</ele>
      </trkpt>
      <trkpt lat="44.72225" lon="3.78023">
        <ele>1069</ele>
      </trkpt>
      <trkpt lat="44.72237" lon="3.78015">
        <ele>1068.6</ele>
      </trkpt>
      <trkpt lat="44.72252" lon="3.78005">
        <ele>1068.1</ele>
      </trkpt>
      <trkpt lat="44.72264" lon="3.77997">
        <ele>1068.1</ele>
      </trkpt>
      <trkpt lat="44.72265" lon="3.77997">
        <ele>1068.1</ele>
      </trkpt>
      <trkpt lat="44.72278" lon="3.77987">
        <ele>1068.2</ele>
      </trkpt>
      <trkpt lat="44.7229" lon="3.77979">
        <ele>1068.3</ele>
      </trkpt>
      <trkpt lat="44.72301" lon="3.77974">
        <ele>1068.2</ele>
      </trkpt>
      <trkpt lat="44.72312" lon="3.77969">
        <ele>1068.2</ele>
      </trkpt>
      <trkpt lat="44.72328" lon="3.77964">
        <ele>1068.1</ele>
      </trkpt>
      <trkpt lat="44.72346" lon="3.77957">
        <ele>1068.5</ele>
      </trkpt>
      <trkpt lat="44.72368" lon="3.7795">
        <ele>1069</ele>
      </trkpt>
      <trkpt lat="44.72387" lon="3.77943">
        <ele>1069.2</ele>
      </trkpt>
      <trkpt lat="44.72406" lon="3.77935">
        <ele>1069.2</ele>
      </trkpt>
      <trkpt lat="44.72423" lon="3.7793">
        <ele>1068.6</ele>
      </trkpt>
      <trkpt lat="44.72438" lon="3.77927">
        <ele>1067.7</ele>
      </trkpt>
      <trkpt lat="44.7245" lon="3.77925">
        <ele>1067</ele>
      </trkpt>
      <trkpt lat="44.72467" lon="3.77926">
        <ele>1066.2</ele>
      </trkpt>
      <trkpt lat="44.72483" lon="3.77927">
        <ele>1065.5</ele>
      </trkpt>
      <trkpt lat="44.72492" lon="3.77928">
        <ele>1065</ele>
      </trkpt>
      <trkpt lat="44.72505" lon="3.77927">
        <ele>1064.3</ele>
      </trkpt>
      <trkpt lat="44.72516" lon="3.77925">
        <ele>1063.6</ele>
      </trkpt>
      <trkpt lat="44.72532" lon="3.7792">
        <ele>1062.6</ele>
      </trkpt>
      <trkpt lat="44.72549" lon="3.77915">
        <ele>1061.6</ele>
      </trkpt>
      <trkpt lat="44.72569" lon="3.7791">
        <ele>1060.5</ele>
      </trkpt>
      <trkpt lat="44.72582" lon="3.77907">
        <ele>1059.7</ele>
      </trkpt>
      <trkpt lat="44.72598" lon="3.77905">
        <ele>1059.5</ele>
      </trkpt>
      <trkpt lat="44.72607" lon="3.77904">
        <ele>1059.4</ele>
      </trkpt>
      <trkpt lat="44.72613" lon="3.77903">
        <ele>1059.3</ele>
      </trkpt>
      <trkpt lat="44.72617" lon="3.77901">
        <ele>1059.3</ele>
      </trkpt>
      <trkpt lat="44.72622" lon="3.77907">
        <ele>1059.4</ele>
      </trkpt>
      <trkpt lat="44.72626" lon="3.77911">
        <ele>1059.4</ele>
      </trkpt>
      <trkpt lat="44.7263" lon="3.77916">
        <ele>1059.4</ele>
      </trkpt>
      <trkpt lat="44.72642" lon="3.77924">
        <ele>1059.2</ele>
      </trkpt>
      <trkpt lat="44.72652" lon="3.7793">
        <ele>1059.1</ele>
      </trkpt>
      <trkpt lat="44.72665" lon="3.77937">
        <ele>1058.8</ele>
      </trkpt>
      <trkpt lat="44.72672" lon="3.77941">
        <ele>1059</ele>
      </trkpt>
      <trkpt lat="44.72679" lon="3.77946">
        <ele>1059.2</ele>
      </trkpt>
      <trkpt lat="44.72685" lon="3.77952">
        <ele>1059.4</ele>
      </trkpt>
      <trkpt lat="44.72694" lon="3.77962">
        <ele>1059.6</ele>
      </trkpt>
      <trkpt lat="44.72705" lon="3.77975">
        <ele>1059.8</ele>
      </trkpt>
      <trkpt lat="44.72715" lon="3.77989">
        <ele>1060</ele>
      </trkpt>
      <trkpt lat="44.72724" lon="3.78">
        <ele>1060.1</ele>
      </trkpt>
      <trkpt lat="44.72732" lon="3.78008">
        <ele>1060.2</ele>
      </trkpt>
      <trkpt lat="44.72741" lon="3.78019">
        <ele>1060.4</ele>
      </trkpt>
      <trkpt lat="44.72746" lon="3.78025">
        <ele>1060.5</ele>
      </trkpt>
      <trkpt lat="44.72749" lon="3.78027">
        <ele>1060.6</ele>
      </trkpt>
      <trkpt lat="44.72752" lon="3.78032">
        <ele>1060.8</ele>
      </trkpt>
      <trkpt lat="44.72755" lon="3.78037">
        <ele>1060.9</ele>
      </trkpt>
      <trkpt lat="44.72758" lon="3.78041">
        <ele>1061</ele>
      </trkpt>
      <trkpt lat="44.72761" lon="3.78049">
        <ele>1061.1</ele>
      </trkpt>
      <trkpt lat="44.72769" lon="3.78069">
        <ele>1061.4</ele>
      </trkpt>
      <trkpt lat="44.72782" lon="3.78097">
        <ele>1061.5</ele>
      </trkpt>
      <trkpt lat="44.72789" lon="3.78111">
        <ele>1061.5</ele>
      </trkpt>
      <trkpt lat="44.72795" lon="3.7812">
        <ele>1061.6</ele>
      </trkpt>
      <trkpt lat="44.72801" lon="3.78129">
        <ele>1061.6</ele>
      </trkpt>
      <trkpt lat="44.72808" lon="3.78138">
        <ele>1061.7</ele>
      </trkpt>
      <trkpt lat="44.72814" lon="3.78144">
        <ele>1061.8</ele>
      </trkpt>
      <trkpt lat="44.72822" lon="3.78151">
        <ele>1062</ele>
      </trkpt>
      <trkpt lat="44.72827" lon="3.78157">
        <ele>1062</ele>
      </trkpt>
      <trkpt lat="44.72833" lon="3.78165">
        <ele>1062</ele>
      </trkpt>
      <trkpt lat="44.72843" lon="3.7818">
        <ele>1062</ele>
      </trkpt>
      <trkpt lat="44.72867" lon="3.78217">
        <ele>1061.8</ele>
      </trkpt>
      <trkpt lat="44.72891" lon="3.78259">
        <ele>1061.5</ele>
      </trkpt>
      <trkpt lat="44.72903" lon="3.78283">
        <ele>1061.1</ele>
      </trkpt>
      <trkpt lat="44.72903" lon="3.78283">
        <ele>1061.1</ele>
      </trkpt>
      <trkpt lat="44.72908" lon="3.78294">
        <ele>1060.9</ele>
      </trkpt>
      <trkpt lat="44.72914" lon="3.78308">
        <ele>1060.6</ele>
      </trkpt>
      <trkpt lat="44.7292" lon="3.78322">
        <ele>1060</ele>
      </trkpt>
      <trkpt lat="44.72927" lon="3.78336">
        <ele>1058.9</ele>
      </trkpt>
      <trkpt lat="44.72936" lon="3.7835">
        <ele>1057.7</ele>
      </trkpt>
      <trkpt lat="44.72943" lon="3.78362">
        <ele>1056.6</ele>
      </trkpt>
      <trkpt lat="44.72947" lon="3.78369">
        <ele>1056.1</ele>
      </trkpt>
      <trkpt lat="44.7295" lon="3.78376">
        <ele>1055.7</ele>
      </trkpt>
      <trkpt lat="44.72958" lon="3.78402">
        <ele>1054.3</ele>
      </trkpt>
      <trkpt lat="44.72961" lon="3.78414">
        <ele>1053.9</ele>
      </trkpt>
      <trkpt lat="44.72962" lon="3.78422">
        <ele>1053.8</ele>
      </trkpt>
      <trkpt lat="44.72965" lon="3.78453">
        <ele>1054.1</ele>
      </trkpt>
      <trkpt lat="44.72965" lon="3.78474">
        <ele>1054.4</ele>
      </trkpt>
      <trkpt lat="44.72964" lon="3.785">
        <ele>1054.9</ele>
      </trkpt>
      <trkpt lat="44.72965" lon="3.78515">
        <ele>1054.8</ele>
      </trkpt>
      <trkpt lat="44.72966" lon="3.78523">
        <ele>1054.8</ele>
      </trkpt>
      <trkpt lat="44.72969" lon="3.78536">
        <ele>1054.8</ele>
      </trkpt>
      <trkpt lat="44.72971" lon="3.78552">
        <ele>1054.9</ele>
      </trkpt>
      <trkpt lat="44.72971" lon="3.78564">
        <ele>1054.9</ele>
      </trkpt>
      <trkpt lat="44.72979" lon="3.78575">
        <ele>1055.2</ele>
      </trkpt>
      <trkpt lat="44.72992" lon="3.78598">
        <ele>1055.5</ele>
      </trkpt>
      <trkpt lat="44.73002" lon="3.78615">
        <ele>1055.5</ele>
      </trkpt>
      <trkpt lat="44.73014" lon="3.78641">
        <ele>1054</ele>
      </trkpt>
      <trkpt lat="44.73022" lon="3.78655">
        <ele>1053.1</ele>
      </trkpt>
      <trkpt lat="44.73028" lon="3.78666">
        <ele>1052.3</ele>
      </trkpt>
      <trkpt lat="44.73038" lon="3.78675">
        <ele>1051.3</ele>
      </trkpt>
      <trkpt lat="44.73048" lon="3.78685">
        <ele>1050.1</ele>
      </trkpt>
      <trkpt lat="44.73058" lon="3.78694">
        <ele>1048.9</ele>
      </trkpt>
      <trkpt lat="44.7306" lon="3.78695">
        <ele>1048.6</ele>
      </trkpt>
      <trkpt lat="44.73062" lon="3.78698">
        <ele>1048.4</ele>
      </trkpt>
      <trkpt lat="44.73064" lon="3.78703">
        <ele>1048.1</ele>
      </trkpt>
      <trkpt lat="44.73065" lon="3.7871">
        <ele>1047.8</ele>
      </trkpt>
      <trkpt lat="44.73067" lon="3.78728">
        <ele>1047.3</ele>
      </trkpt>
      <trkpt lat="44.73068" lon="3.78738">
        <ele>1046.9</ele>
      </trkpt>
      <trkpt lat="44.7307" lon="3.78745">
        <ele>1046.6</ele>
      </trkpt>
      <trkpt lat="44.73072" lon="3.7875">
        <ele>1046.3</ele>
      </trkpt>
      <trkpt lat="44.73076" lon="3.78758">
        <ele>1045.1</ele>
      </trkpt>
      <trkpt lat="44.73081" lon="3.78768">
        <ele>1043.7</ele>
      </trkpt>
      <trkpt lat="44.73085" lon="3.78776">
        <ele>1042.7</ele>
      </trkpt>
      <trkpt lat="44.73088" lon="3.78784">
        <ele>1041.7</ele>
      </trkpt>
      <trkpt lat="44.73092" lon="3.78796">
        <ele>1040.5</ele>
      </trkpt>
      <trkpt lat="44.73094" lon="3.78805">
        <ele>1039.6</ele>
      </trkpt>
      <trkpt lat="44.73097" lon="3.78818">
        <ele>1038.4</ele>
      </trkpt>
      <trkpt lat="44.731" lon="3.78829">
        <ele>1037.3</ele>
      </trkpt>
      <trkpt lat="44.73103" lon="3.78844">
        <ele>1036.5</ele>
      </trkpt>
      <trkpt lat="44.73106" lon="3.78856">
        <ele>1036</ele>
      </trkpt>
      <trkpt lat="44.73104" lon="3.78881">
        <ele>1035.5</ele>
      </trkpt>
      <trkpt lat="44.73103" lon="3.78904">
        <ele>1035</ele>
      </trkpt>
      <trkpt lat="44.73102" lon="3.78927">
        <ele>1034.9</ele>
      </trkpt>
      <trkpt lat="44.73104" lon="3.78943">
        <ele>1035.1</ele>
      </trkpt>
      <trkpt lat="44.73109" lon="3.78962">
        <ele>1035.2</ele>
      </trkpt>
      <trkpt lat="44.73115" lon="3.78986">
        <ele>1035.4</ele>
      </trkpt>
      <trkpt lat="44.73117" lon="3.78998">
        <ele>1035.5</ele>
      </trkpt>
      <trkpt lat="44.73117" lon="3.7902">
        <ele>1035.9</ele>
      </trkpt>
      <trkpt lat="44.73117" lon="3.7904">
        <ele>1036.3</ele>
      </trkpt>
      <trkpt lat="44.73115" lon="3.7905">
        <ele>1036.6</ele>
      </trkpt>
      <trkpt lat="44.73113" lon="3.7906">
        <ele>1037</ele>
      </trkpt>
      <trkpt lat="44.73114" lon="3.79069">
        <ele>1037.1</ele>
      </trkpt>
      <trkpt lat="44.73117" lon="3.79087">
        <ele>1036.7</ele>
      </trkpt>
      <trkpt lat="44.73118" lon="3.79103">
        <ele>1035.4</ele>
      </trkpt>
      <trkpt lat="44.73117" lon="3.79121">
        <ele>1034.2</ele>
      </trkpt>
      <trkpt lat="44.73116" lon="3.79134">
        <ele>1033.3</ele>
      </trkpt>
      <trkpt lat="44.73116" lon="3.79147">
        <ele>1032.3</ele>
      </trkpt>
      <trkpt lat="44.73117" lon="3.7916">
        <ele>1031.3</ele>
      </trkpt>
      <trkpt lat="44.73113" lon="3.79181">
        <ele>1030.6</ele>
      </trkpt>
      <trkpt lat="44.73107" lon="3.79207">
        <ele>1029.9</ele>
      </trkpt>
      <trkpt lat="44.73102" lon="3.79237">
        <ele>1028.4</ele>
      </trkpt>
      <trkpt lat="44.73097" lon="3.7926">
        <ele>1027.6</ele>
      </trkpt>
      <trkpt lat="44.73092" lon="3.79281">
        <ele>1027.5</ele>
      </trkpt>
      <trkpt lat="44.73088" lon="3.79299">
        <ele>1027.3</ele>
      </trkpt>
      <trkpt lat="44.73082" lon="3.79319">
        <ele>1027.1</ele>
      </trkpt>
      <trkpt lat="44.73076" lon="3.79339">
        <ele>1027.1</ele>
      </trkpt>
      <trkpt lat="44.73068" lon="3.79362">
        <ele>1026.5</ele>
      </trkpt>
      <trkpt lat="44.73065" lon="3.79379">
        <ele>1025.8</ele>
      </trkpt>
      <trkpt lat="44.73065" lon="3.79392">
        <ele>1025.2</ele>
      </trkpt>
      <trkpt lat="44.73068" lon="3.794">
        <ele>1025.1</ele>
      </trkpt>
      <trkpt lat="44.73071" lon="3.7941">
        <ele>1025.1</ele>
      </trkpt>
      <trkpt lat="44.73071" lon="3.79425">
        <ele>1024.1</ele>
      </trkpt>
      <trkpt lat="44.73071" lon="3.79434">
        <ele>1023.5</ele>
      </trkpt>
      <trkpt lat="44.73074" lon="3.79441">
        <ele>1023.2</ele>
      </trkpt>
      <trkpt lat="44.73076" lon="3.79445">
        <ele>1023.2</ele>
      </trkpt>
      <trkpt lat="44.7308" lon="3.79448">
        <ele>1023.4</ele>
      </trkpt>
      <trkpt lat="44.73084" lon="3.79452">
        <ele>1023.5</ele>
      </trkpt>
      <trkpt lat="44.73086" lon="3.79454">
        <ele>1023.5</ele>
      </trkpt>
      <trkpt lat="44.73089" lon="3.79458">
        <ele>1023.4</ele>
      </trkpt>
      <trkpt lat="44.7309" lon="3.79462">
        <ele>1023.2</ele>
      </trkpt>
      <trkpt lat="44.73088" lon="3.79471">
        <ele>1022.4</ele>
      </trkpt>
      <trkpt lat="44.73086" lon="3.79478">
        <ele>1021.8</ele>
      </trkpt>
      <trkpt lat="44.73085" lon="3.79487">
        <ele>1021</ele>
      </trkpt>
      <trkpt lat="44.73085" lon="3.79498">
        <ele>1020.2</ele>
      </trkpt>
      <trkpt lat="44.73087" lon="3.7952">
        <ele>1019.7</ele>
      </trkpt>
      <trkpt lat="44.73087" lon="3.79524">
        <ele>1019.6</ele>
      </trkpt>
      <trkpt lat="44.73091" lon="3.79547">
        <ele>1019.3</ele>
      </trkpt>
      <trkpt lat="44.73094" lon="3.79565">
        <ele>1019</ele>
      </trkpt>
      <trkpt lat="44.73097" lon="3.79581">
        <ele>1018.9</ele>
      </trkpt>
      <trkpt lat="44.73097" lon="3.79595">
        <ele>1018.8</ele>
      </trkpt>
      <trkpt lat="44.73097" lon="3.79615">
        <ele>1018.9</ele>
      </trkpt>
      <trkpt lat="44.73097" lon="3.79633">
        <ele>1018.9</ele>
      </trkpt>
      <trkpt lat="44.73098" lon="3.79646">
        <ele>1019</ele>
      </trkpt>
      <trkpt lat="44.731" lon="3.79651">
        <ele>1019.2</ele>
      </trkpt>
      <trkpt lat="44.73101" lon="3.79659">
        <ele>1019.2</ele>
      </trkpt>
      <trkpt lat="44.73105" lon="3.79674">
        <ele>1019.1</ele>
      </trkpt>
      <trkpt lat="44.73109" lon="3.79686">
        <ele>1018.5</ele>
      </trkpt>
      <trkpt lat="44.73109" lon="3.79694">
        <ele>1017.9</ele>
      </trkpt>
      <trkpt lat="44.73107" lon="3.79704">
        <ele>1017</ele>
      </trkpt>
      <trkpt lat="44.73106" lon="3.79719">
        <ele>1015.8</ele>
      </trkpt>
      <trkpt lat="44.73106" lon="3.79736">
        <ele>1014.6</ele>
      </trkpt>
      <trkpt lat="44.73105" lon="3.79757">
        <ele>1013.1</ele>
      </trkpt>
      <trkpt lat="44.73105" lon="3.79766">
        <ele>1012.5</ele>
      </trkpt>
      <trkpt lat="44.73106" lon="3.79773">
        <ele>1012.2</ele>
      </trkpt>
      <trkpt lat="44.7311" lon="3.79781">
        <ele>1012.1</ele>
      </trkpt>
      <trkpt lat="44.73112" lon="3.79788">
        <ele>1011.8</ele>
      </trkpt>
      <trkpt lat="44.73113" lon="3.79794">
        <ele>1011.5</ele>
      </trkpt>
      <trkpt lat="44.73116" lon="3.79799">
        <ele>1011.5</ele>
      </trkpt>
      <trkpt lat="44.73119" lon="3.79807">
        <ele>1011.4</ele>
      </trkpt>
      <trkpt lat="44.73121" lon="3.79816">
        <ele>1011</ele>
      </trkpt>
      <trkpt lat="44.73123" lon="3.7983">
        <ele>1010.5</ele>
      </trkpt>
      <trkpt lat="44.73125" lon="3.79844">
        <ele>1010.1</ele>
      </trkpt>
      <trkpt lat="44.73126" lon="3.79855">
        <ele>1009.8</ele>
      </trkpt>
      <trkpt lat="44.73126" lon="3.7986">
        <ele>1009.6</ele>
      </trkpt>
      <trkpt lat="44.73123" lon="3.79866">
        <ele>1009.2</ele>
      </trkpt>
      <trkpt lat="44.73119" lon="3.79872">
        <ele>1008.6</ele>
      </trkpt>
      <trkpt lat="44.73116" lon="3.79875">
        <ele>1008.3</ele>
      </trkpt>
      <trkpt lat="44.73111" lon="3.79883">
        <ele>1007.6</ele>
      </trkpt>
      <trkpt lat="44.73109" lon="3.79889">
        <ele>1007.3</ele>
      </trkpt>
      <trkpt lat="44.73109" lon="3.79898">
        <ele>1007</ele>
      </trkpt>
      <trkpt lat="44.73112" lon="3.7991">
        <ele>1006.9</ele>
      </trkpt>
      <trkpt lat="44.73115" lon="3.79923">
        <ele>1006.6</ele>
      </trkpt>
      <trkpt lat="44.73116" lon="3.79939">
        <ele>1006</ele>
      </trkpt>
      <trkpt lat="44.73117" lon="3.7996">
        <ele>1005.1</ele>
      </trkpt>
      <trkpt lat="44.73117" lon="3.79977">
        <ele>1004.4</ele>
      </trkpt>
      <trkpt lat="44.73119" lon="3.7999">
        <ele>1003.8</ele>
      </trkpt>
      <trkpt lat="44.73122" lon="3.80005">
        <ele>1003.3</ele>
      </trkpt>
      <trkpt lat="44.73131" lon="3.80031">
        <ele>1002.4</ele>
      </trkpt>
      <trkpt lat="44.73136" lon="3.80046">
        <ele>1001.7</ele>
      </trkpt>
      <trkpt lat="44.73136" lon="3.80052">
        <ele>1001.4</ele>
      </trkpt>
      <trkpt lat="44.73134" lon="3.8006">
        <ele>1001.1</ele>
      </trkpt>
      <trkpt lat="44.73129" lon="3.80071">
        <ele>1000.8</ele>
      </trkpt>
      <trkpt lat="44.73125" lon="3.80084">
        <ele>1000.5</ele>
      </trkpt>
      <trkpt lat="44.73124" lon="3.8009">
        <ele>1000.2</ele>
      </trkpt>
      <trkpt lat="44.73124" lon="3.80095">
        <ele>1000</ele>
      </trkpt>
      <trkpt lat="44.73125" lon="3.80103">
        <ele>999.6</ele>
      </trkpt>
      <trkpt lat="44.73129" lon="3.80113">
        <ele>998.9</ele>
      </trkpt>
      <trkpt lat="44.73133" lon="3.80118">
        <ele>998.5</ele>
      </trkpt>
      <trkpt lat="44.73136" lon="3.80124">
        <ele>998</ele>
      </trkpt>
      <trkpt lat="44.7314" lon="3.80138">
        <ele>997.1</ele>
      </trkpt>
      <trkpt lat="44.73143" lon="3.80152">
        <ele>996.2</ele>
      </trkpt>
      <trkpt lat="44.73148" lon="3.80172">
        <ele>994.7</ele>
      </trkpt>
      <trkpt lat="44.73154" lon="3.80196">
        <ele>992.7</ele>
      </trkpt>
      <trkpt lat="44.73159" lon="3.8021">
        <ele>991.4</ele>
      </trkpt>
      <trkpt lat="44.7316" lon="3.80223">
        <ele>990.4</ele>
      </trkpt>
      <trkpt lat="44.7316" lon="3.80247">
        <ele>988.6</ele>
      </trkpt>
      <trkpt lat="44.7316" lon="3.80268">
        <ele>986.8</ele>
      </trkpt>
      <trkpt lat="44.73161" lon="3.80285">
        <ele>985.1</ele>
      </trkpt>
      <trkpt lat="44.73162" lon="3.80295">
        <ele>984</ele>
      </trkpt>
      <trkpt lat="44.73161" lon="3.80302">
        <ele>983.5</ele>
      </trkpt>
      <trkpt lat="44.73158" lon="3.8031">
        <ele>982.9</ele>
      </trkpt>
      <trkpt lat="44.73156" lon="3.8032">
        <ele>982.1</ele>
      </trkpt>
      <trkpt lat="44.73156" lon="3.80328">
        <ele>981.3</ele>
      </trkpt>
      <trkpt lat="44.73156" lon="3.80334">
        <ele>980.7</ele>
      </trkpt>
      <trkpt lat="44.73158" lon="3.8034">
        <ele>979.9</ele>
      </trkpt>
      <trkpt lat="44.73161" lon="3.80344">
        <ele>979.4</ele>
      </trkpt>
      <trkpt lat="44.73164" lon="3.80346">
        <ele>978.9</ele>
      </trkpt>
      <trkpt lat="44.73166" lon="3.8035">
        <ele>978.4</ele>
      </trkpt>
      <trkpt lat="44.7317" lon="3.80368">
        <ele>976.3</ele>
      </trkpt>
      <trkpt lat="44.73176" lon="3.80409">
        <ele>971.9</ele>
      </trkpt>
      <trkpt lat="44.73182" lon="3.80463">
        <ele>967.2</ele>
      </trkpt>
      <trkpt lat="44.73185" lon="3.80476">
        <ele>965.9</ele>
      </trkpt>
      <trkpt lat="44.73196" lon="3.80515">
        <ele>962.4</ele>
      </trkpt>
      <trkpt lat="44.732" lon="3.80529">
        <ele>961.1</ele>
      </trkpt>
      <trkpt lat="44.73205" lon="3.80548">
        <ele>959.4</ele>
      </trkpt>
      <trkpt lat="44.7321" lon="3.80566">
        <ele>957.8</ele>
      </trkpt>
      <trkpt lat="44.73213" lon="3.8058">
        <ele>956.6</ele>
      </trkpt>
      <trkpt lat="44.73213" lon="3.80589">
        <ele>956</ele>
      </trkpt>
      <trkpt lat="44.73216" lon="3.80603">
        <ele>955</ele>
      </trkpt>
      <trkpt lat="44.73218" lon="3.8061">
        <ele>954.4</ele>
      </trkpt>
      <trkpt lat="44.73218" lon="3.8062">
        <ele>953.8</ele>
      </trkpt>
      <trkpt lat="44.73219" lon="3.80628">
        <ele>953.3</ele>
      </trkpt>
      <trkpt lat="44.73219" lon="3.80643">
        <ele>952.4</ele>
      </trkpt>
      <trkpt lat="44.7322" lon="3.80653">
        <ele>951.7</ele>
      </trkpt>
      <trkpt lat="44.73221" lon="3.80663">
        <ele>951</ele>
      </trkpt>
      <trkpt lat="44.73223" lon="3.80677">
        <ele>949.5</ele>
      </trkpt>
      <trkpt lat="44.73224" lon="3.80689">
        <ele>948.3</ele>
      </trkpt>
      <trkpt lat="44.73226" lon="3.80701">
        <ele>946.9</ele>
      </trkpt>
      <trkpt lat="44.73229" lon="3.80714">
        <ele>945.6</ele>
      </trkpt>
      <trkpt lat="44.73228" lon="3.80722">
        <ele>944.8</ele>
      </trkpt>
      <trkpt lat="44.73225" lon="3.80734">
        <ele>943.6</ele>
      </trkpt>
      <trkpt lat="44.73221" lon="3.80729">
        <ele>944.2</ele>
      </trkpt>
      <trkpt lat="44.73214" lon="3.80722">
        <ele>945.1</ele>
      </trkpt>
      <trkpt lat="44.73206" lon="3.80714">
        <ele>946.1</ele>
      </trkpt>
      <trkpt lat="44.732" lon="3.80704">
        <ele>947.5</ele>
      </trkpt>
      <trkpt lat="44.73196" lon="3.80691">
        <ele>949.2</ele>
      </trkpt>
      <trkpt lat="44.73193" lon="3.80682">
        <ele>950.5</ele>
      </trkpt>
      <trkpt lat="44.73191" lon="3.80678">
        <ele>951.1</ele>
      </trkpt>
      <trkpt lat="44.73187" lon="3.80674">
        <ele>951.9</ele>
      </trkpt>
      <trkpt lat="44.73183" lon="3.80671">
        <ele>952.4</ele>
      </trkpt>
      <trkpt lat="44.73177" lon="3.80669">
        <ele>953.1</ele>
      </trkpt>
      <trkpt lat="44.73171" lon="3.80666">
        <ele>953.8</ele>
      </trkpt>
      <trkpt lat="44.73164" lon="3.80663">
        <ele>953.8</ele>
      </trkpt>
      <trkpt lat="44.73159" lon="3.80659">
        <ele>953.3</ele>
      </trkpt>
      <trkpt lat="44.73155" lon="3.80653">
        <ele>953.1</ele>
      </trkpt>
      <trkpt lat="44.73152" lon="3.80648">
        <ele>953</ele>
      </trkpt>
      <trkpt lat="44.73148" lon="3.8064">
        <ele>952.9</ele>
      </trkpt>
      <trkpt lat="44.73144" lon="3.80635">
        <ele>952.8</ele>
      </trkpt>
      <trkpt lat="44.73139" lon="3.80628">
        <ele>952.6</ele>
      </trkpt>
      <trkpt lat="44.73134" lon="3.80625">
        <ele>952.3</ele>
      </trkpt>
      <trkpt lat="44.73128" lon="3.80624">
        <ele>951.7</ele>
      </trkpt>
      <trkpt lat="44.73122" lon="3.80623">
        <ele>951.1</ele>
      </trkpt>
      <trkpt lat="44.73117" lon="3.80621">
        <ele>950.6</ele>
      </trkpt>
      <trkpt lat="44.73111" lon="3.80618">
        <ele>950.3</ele>
      </trkpt>
      <trkpt lat="44.73103" lon="3.80612">
        <ele>950</ele>
      </trkpt>
      <trkpt lat="44.73096" lon="3.80605">
        <ele>949.9</ele>
      </trkpt>
      <trkpt lat="44.7309" lon="3.806">
        <ele>949.8</ele>
      </trkpt>
      <trkpt lat="44.73081" lon="3.80594">
        <ele>949.6</ele>
      </trkpt>
      <trkpt lat="44.73076" lon="3.8059">
        <ele>949.6</ele>
      </trkpt>
      <trkpt lat="44.73073" lon="3.80582">
        <ele>950</ele>
      </trkpt>
      <trkpt lat="44.7307" lon="3.80571">
        <ele>951.3</ele>
      </trkpt>
      <trkpt lat="44.73069" lon="3.80562">
        <ele>952.3</ele>
      </trkpt>
      <trkpt lat="44.73068" lon="3.80557">
        <ele>952.8</ele>
      </trkpt>
      <trkpt lat="44.73065" lon="3.80553">
        <ele>953</ele>
      </trkpt>
      <trkpt lat="44.73057" lon="3.80547">
        <ele>952.9</ele>
      </trkpt>
      <trkpt lat="44.73047" lon="3.80537">
        <ele>953.1</ele>
      </trkpt>
      <trkpt lat="44.7301" lon="3.80503">
        <ele>953.8</ele>
      </trkpt>
      <trkpt lat="44.72999" lon="3.80491">
        <ele>953.9</ele>
      </trkpt>
      <trkpt lat="44.72996" lon="3.80481">
        <ele>954.9</ele>
      </trkpt>
      <trkpt lat="44.72989" lon="3.80465">
        <ele>956.3</ele>
      </trkpt>
      <trkpt lat="44.72985" lon="3.8045">
        <ele>957.4</ele>
      </trkpt>
      <trkpt lat="44.72982" lon="3.8044">
        <ele>958.2</ele>
      </trkpt>
      <trkpt lat="44.72979" lon="3.8043">
        <ele>958.8</ele>
      </trkpt>
      <trkpt lat="44.72976" lon="3.8042">
        <ele>959.4</ele>
      </trkpt>
      <trkpt lat="44.7297" lon="3.80409">
        <ele>960</ele>
      </trkpt>
      <trkpt lat="44.7296" lon="3.804">
        <ele>960</ele>
      </trkpt>
      <trkpt lat="44.72947" lon="3.80395">
        <ele>959.3</ele>
      </trkpt>
      <trkpt lat="44.72938" lon="3.80391">
        <ele>958.8</ele>
      </trkpt>
      <trkpt lat="44.72928" lon="3.80385">
        <ele>958.2</ele>
      </trkpt>
      <trkpt lat="44.72921" lon="3.8038">
        <ele>957.7</ele>
      </trkpt>
      <trkpt lat="44.72913" lon="3.80376">
        <ele>958.2</ele>
      </trkpt>
      <trkpt lat="44.72905" lon="3.80374">
        <ele>959.6</ele>
      </trkpt>
      <trkpt lat="44.72895" lon="3.80371">
        <ele>961.7</ele>
      </trkpt>
      <trkpt lat="44.7289" lon="3.80371">
        <ele>962.6</ele>
      </trkpt>
      <trkpt lat="44.72885" lon="3.80371">
        <ele>963.4</ele>
      </trkpt>
      <trkpt lat="44.72884" lon="3.80373">
        <ele>963.6</ele>
      </trkpt>
      <trkpt lat="44.72883" lon="3.80374">
        <ele>963.7</ele>
      </trkpt>
      <trkpt lat="44.72882" lon="3.80377">
        <ele>963.7</ele>
      </trkpt>
      <trkpt lat="44.72882" lon="3.80393">
        <ele>962.8</ele>
      </trkpt>
      <trkpt lat="44.72882" lon="3.80425">
        <ele>961.4</ele>
      </trkpt>
      <trkpt lat="44.72883" lon="3.80444">
        <ele>961.4</ele>
      </trkpt>
      <trkpt lat="44.72886" lon="3.80471">
        <ele>961.1</ele>
      </trkpt>
      <trkpt lat="44.72896" lon="3.80508">
        <ele>959.4</ele>
      </trkpt>
      <trkpt lat="44.72904" lon="3.80531">
        <ele>958</ele>
      </trkpt>
      <trkpt lat="44.72908" lon="3.80542">
        <ele>957.3</ele>
      </trkpt>
      <trkpt lat="44.72914" lon="3.80556">
        <ele>956.4</ele>
      </trkpt>
      <trkpt lat="44.72919" lon="3.80564">
        <ele>955.7</ele>
      </trkpt>
      <trkpt lat="44.72924" lon="3.8057">
        <ele>955</ele>
      </trkpt>
      <trkpt lat="44.72937" lon="3.80581">
        <ele>952.7</ele>
      </trkpt>
      <trkpt lat="44.72948" lon="3.80596">
        <ele>950.3</ele>
      </trkpt>
      <trkpt lat="44.72952" lon="3.80607">
        <ele>949</ele>
      </trkpt>
      <trkpt lat="44.72953" lon="3.80617">
        <ele>948.6</ele>
      </trkpt>
      <trkpt lat="44.72952" lon="3.80624">
        <ele>948.4</ele>
      </trkpt>
      <trkpt lat="44.72949" lon="3.80631">
        <ele>948.4</ele>
      </trkpt>
      <trkpt lat="44.72947" lon="3.80635">
        <ele>948.6</ele>
      </trkpt>
      <trkpt lat="44.72939" lon="3.80638">
        <ele>949.4</ele>
      </trkpt>
      <trkpt lat="44.7293" lon="3.80641">
        <ele>950.3</ele>
      </trkpt>
      <trkpt lat="44.72922" lon="3.80642">
        <ele>951.2</ele>
      </trkpt>
      <trkpt lat="44.72915" lon="3.80644">
        <ele>951.8</ele>
      </trkpt>
      <trkpt lat="44.72897" lon="3.80648">
        <ele>953.1</ele>
      </trkpt>
      <trkpt lat="44.72888" lon="3.8065">
        <ele>953.6</ele>
      </trkpt>
      <trkpt lat="44.72882" lon="3.80656">
        <ele>953.6</ele>
      </trkpt>
      <trkpt lat="44.72881" lon="3.80658">
        <ele>953.5</ele>
      </trkpt>
      <trkpt lat="44.72877" lon="3.80664">
        <ele>953.2</ele>
      </trkpt>
      <trkpt lat="44.72874" lon="3.8067">
        <ele>953.3</ele>
      </trkpt>
      <trkpt lat="44.72872" lon="3.8068">
        <ele>954.1</ele>
      </trkpt>
      <trkpt lat="44.72872" lon="3.80689">
        <ele>954.7</ele>
      </trkpt>
      <trkpt lat="44.72873" lon="3.80697">
        <ele>955.1</ele>
      </trkpt>
      <trkpt lat="44.72877" lon="3.80701">
        <ele>955.2</ele>
      </trkpt>
      <trkpt lat="44.72885" lon="3.80707">
        <ele>955</ele>
      </trkpt>
      <trkpt lat="44.72895" lon="3.80712">
        <ele>954.7</ele>
      </trkpt>
      <trkpt lat="44.72907" lon="3.8072">
        <ele>954.5</ele>
      </trkpt>
      <trkpt lat="44.72922" lon="3.80727">
        <ele>953.6</ele>
      </trkpt>
      <trkpt lat="44.72944" lon="3.80738">
        <ele>950.9</ele>
      </trkpt>
      <trkpt lat="44.72963" lon="3.80746">
        <ele>948.1</ele>
      </trkpt>
      <trkpt lat="44.72977" lon="3.80752">
        <ele>946</ele>
      </trkpt>
      <trkpt lat="44.72994" lon="3.80763">
        <ele>944.2</ele>
      </trkpt>
      <trkpt lat="44.73011" lon="3.80772">
        <ele>943.8</ele>
      </trkpt>
      <trkpt lat="44.73017" lon="3.80777">
        <ele>944</ele>
      </trkpt>
      <trkpt lat="44.73019" lon="3.80781">
        <ele>944.3</ele>
      </trkpt>
      <trkpt lat="44.73019" lon="3.80786">
        <ele>944.6</ele>
      </trkpt>
      <trkpt lat="44.73017" lon="3.80791">
        <ele>945.1</ele>
      </trkpt>
      <trkpt lat="44.73014" lon="3.80798">
        <ele>945.8</ele>
      </trkpt>
      <trkpt lat="44.7301" lon="3.80806">
        <ele>946.8</ele>
      </trkpt>
      <trkpt lat="44.73004" lon="3.80815">
        <ele>948</ele>
      </trkpt>
      <trkpt lat="44.72997" lon="3.80823">
        <ele>949.3</ele>
      </trkpt>
      <trkpt lat="44.7299" lon="3.80829">
        <ele>950.3</ele>
      </trkpt>
      <trkpt lat="44.72982" lon="3.80833">
        <ele>951.2</ele>
      </trkpt>
      <trkpt lat="44.72977" lon="3.80836">
        <ele>951.4</ele>
      </trkpt>
      <trkpt lat="44.72972" lon="3.80839">
        <ele>951.5</ele>
      </trkpt>
      <trkpt lat="44.72961" lon="3.80844">
        <ele>951.9</ele>
      </trkpt>
      <trkpt lat="44.72932" lon="3.80861">
        <ele>952.5</ele>
      </trkpt>
      <trkpt lat="44.72898" lon="3.80879">
        <ele>953.2</ele>
      </trkpt>
      <trkpt lat="44.72856" lon="3.80899">
        <ele>953.6</ele>
      </trkpt>
      <trkpt lat="44.72716" lon="3.81004">
        <ele>953.1</ele>
      </trkpt>
      <trkpt lat="44.72686" lon="3.81024">
        <ele>952.7</ele>
      </trkpt>
      <trkpt lat="44.72673" lon="3.8102">
        <ele>954.4</ele>
      </trkpt>
      <trkpt lat="44.72644" lon="3.81026">
        <ele>955.5</ele>
      </trkpt>
      <trkpt lat="44.7259" lon="3.81036">
        <ele>957.8</ele>
      </trkpt>
      <trkpt lat="44.72549" lon="3.81047">
        <ele>960.1</ele>
      </trkpt>
      <trkpt lat="44.72534" lon="3.8105">
        <ele>961.4</ele>
      </trkpt>
      <trkpt lat="44.7252" lon="3.81055">
        <ele>962</ele>
      </trkpt>
      <trkpt lat="44.72511" lon="3.8105">
        <ele>963.7</ele>
      </trkpt>
      <trkpt lat="44.72502" lon="3.81043">
        <ele>965.6</ele>
      </trkpt>
      <trkpt lat="44.72492" lon="3.81038">
        <ele>966.7</ele>
      </trkpt>
      <trkpt lat="44.72484" lon="3.81035">
        <ele>967.3</ele>
      </trkpt>
      <trkpt lat="44.72482" lon="3.81035">
        <ele>967.3</ele>
      </trkpt>
      <trkpt lat="44.72481" lon="3.81044">
        <ele>966</ele>
      </trkpt>
      <trkpt lat="44.72481" lon="3.81052">
        <ele>964.8</ele>
      </trkpt>
      <trkpt lat="44.72484" lon="3.81058">
        <ele>964</ele>
      </trkpt>
      <trkpt lat="44.72489" lon="3.81066">
        <ele>962.8</ele>
      </trkpt>
      <trkpt lat="44.72496" lon="3.81071">
        <ele>961.8</ele>
      </trkpt>
      <trkpt lat="44.72501" lon="3.81076">
        <ele>961</ele>
      </trkpt>
      <trkpt lat="44.72504" lon="3.81079">
        <ele>960.3</ele>
      </trkpt>
      <trkpt lat="44.72507" lon="3.81084">
        <ele>959.4</ele>
      </trkpt>
      <trkpt lat="44.72509" lon="3.81089">
        <ele>959.9</ele>
      </trkpt>
      <trkpt lat="44.72513" lon="3.81101">
        <ele>961.1</ele>
      </trkpt>
      <trkpt lat="44.72515" lon="3.81105">
        <ele>961.5</ele>
      </trkpt>
      <trkpt lat="44.72517" lon="3.81106">
        <ele>961.3</ele>
      </trkpt>
      <trkpt lat="44.72519" lon="3.81106">
        <ele>961.1</ele>
      </trkpt>
      <trkpt lat="44.72521" lon="3.81107">
        <ele>961</ele>
      </trkpt>
      <trkpt lat="44.72525" lon="3.81112">
        <ele>961.3</ele>
      </trkpt>
      <trkpt lat="44.72528" lon="3.81116">
        <ele>961.3</ele>
      </trkpt>
      <trkpt lat="44.7253" lon="3.81118">
        <ele>961.2</ele>
      </trkpt>
      <trkpt lat="44.72539" lon="3.81129">
        <ele>961.4</ele>
      </trkpt>
      <trkpt lat="44.72544" lon="3.81136">
        <ele>961.4</ele>
      </trkpt>
      <trkpt lat="44.72551" lon="3.81143">
        <ele>961.2</ele>
      </trkpt>
      <trkpt lat="44.72558" lon="3.81151">
        <ele>960.9</ele>
      </trkpt>
      <trkpt lat="44.72563" lon="3.81154">
        <ele>960.4</ele>
      </trkpt>
      <trkpt lat="44.72568" lon="3.81158">
        <ele>960</ele>
      </trkpt>
      <trkpt lat="44.72577" lon="3.8116">
        <ele>958.6</ele>
      </trkpt>
      <trkpt lat="44.72586" lon="3.81161">
        <ele>957.3</ele>
      </trkpt>
      <trkpt lat="44.72589" lon="3.8116">
        <ele>957</ele>
      </trkpt>
      <trkpt lat="44.72595" lon="3.81159">
        <ele>956.5</ele>
      </trkpt>
      <trkpt lat="44.72598" lon="3.8116">
        <ele>956.4</ele>
      </trkpt>
      <trkpt lat="44.72599" lon="3.81161">
        <ele>956.3</ele>
      </trkpt>
      <trkpt lat="44.726" lon="3.81161">
        <ele>956.3</ele>
      </trkpt>
      <trkpt lat="44.72612" lon="3.81159">
        <ele>955.2</ele>
      </trkpt>
      <trkpt lat="44.72625" lon="3.81154">
        <ele>953.6</ele>
      </trkpt>
      <trkpt lat="44.72633" lon="3.81149">
        <ele>952.6</ele>
      </trkpt>
      <trkpt lat="44.72643" lon="3.81149">
        <ele>951.7</ele>
      </trkpt>
      <trkpt lat="44.72654" lon="3.81161">
        <ele>952.2</ele>
      </trkpt>
      <trkpt lat="44.72687" lon="3.81194">
        <ele>952.9</ele>
      </trkpt>
      <trkpt lat="44.72723" lon="3.81214">
        <ele>951.8</ele>
      </trkpt>
      <trkpt lat="44.7276" lon="3.81223">
        <ele>950.4</ele>
      </trkpt>
      <trkpt lat="44.72791" lon="3.81219">
        <ele>948.3</ele>
      </trkpt>
      <trkpt lat="44.72801" lon="3.81214">
        <ele>947.3</ele>
      </trkpt>
      <trkpt lat="44.72826" lon="3.81215">
        <ele>946.4</ele>
      </trkpt>
      <trkpt lat="44.72847" lon="3.81219">
        <ele>945.7</ele>
      </trkpt>
      <trkpt lat="44.72854" lon="3.81215">
        <ele>945.1</ele>
      </trkpt>
      <trkpt lat="44.72863" lon="3.81214">
        <ele>944.5</ele>
      </trkpt>
      <trkpt lat="44.72881" lon="3.81215">
        <ele>943.7</ele>
      </trkpt>
      <trkpt lat="44.729" lon="3.81216">
        <ele>942.8</ele>
      </trkpt>
      <trkpt lat="44.72903" lon="3.81218">
        <ele>942.7</ele>
      </trkpt>
      <trkpt lat="44.72906" lon="3.81222">
        <ele>942.6</ele>
      </trkpt>
      <trkpt lat="44.72907" lon="3.81227">
        <ele>942.6</ele>
      </trkpt>
      <trkpt lat="44.72905" lon="3.81235">
        <ele>942.8</ele>
      </trkpt>
      <trkpt lat="44.729" lon="3.81245">
        <ele>943.3</ele>
      </trkpt>
      <trkpt lat="44.72892" lon="3.81256">
        <ele>944</ele>
      </trkpt>
      <trkpt lat="44.72875" lon="3.81275">
        <ele>945.2</ele>
      </trkpt>
      <trkpt lat="44.72849" lon="3.81308">
        <ele>946.6</ele>
      </trkpt>
      <trkpt lat="44.72818" lon="3.81344">
        <ele>947.3</ele>
      </trkpt>
      <trkpt lat="44.72796" lon="3.81367">
        <ele>947.6</ele>
      </trkpt>
      <trkpt lat="44.72786" lon="3.81377">
        <ele>947.9</ele>
      </trkpt>
      <trkpt lat="44.72782" lon="3.81379">
        <ele>948</ele>
      </trkpt>
      <trkpt lat="44.72777" lon="3.81382">
        <ele>948.3</ele>
      </trkpt>
      <trkpt lat="44.72772" lon="3.81384">
        <ele>948.5</ele>
      </trkpt>
      <trkpt lat="44.72769" lon="3.81389">
        <ele>948.6</ele>
      </trkpt>
      <trkpt lat="44.72768" lon="3.81391">
        <ele>948.6</ele>
      </trkpt>
      <trkpt lat="44.72765" lon="3.81392">
        <ele>948.7</ele>
      </trkpt>
      <trkpt lat="44.72764" lon="3.81394">
        <ele>948.8</ele>
      </trkpt>
      <trkpt lat="44.72762" lon="3.81394">
        <ele>948.9</ele>
      </trkpt>
      <trkpt lat="44.72759" lon="3.81393">
        <ele>949.2</ele>
      </trkpt>
      <trkpt lat="44.72754" lon="3.8139">
        <ele>949.6</ele>
      </trkpt>
      <trkpt lat="44.72751" lon="3.81388">
        <ele>949.9</ele>
      </trkpt>
      <trkpt lat="44.72749" lon="3.81388">
        <ele>950.1</ele>
      </trkpt>
      <trkpt lat="44.72747" lon="3.81391">
        <ele>950.2</ele>
      </trkpt>
      <trkpt lat="44.72745" lon="3.81398">
        <ele>950.2</ele>
      </trkpt>
      <trkpt lat="44.72741" lon="3.81409">
        <ele>950.3</ele>
      </trkpt>
      <trkpt lat="44.7274" lon="3.81411">
        <ele>950.3</ele>
      </trkpt>
      <trkpt lat="44.7274" lon="3.81413">
        <ele>950.2</ele>
      </trkpt>
      <trkpt lat="44.72742" lon="3.81417">
        <ele>949.9</ele>
      </trkpt>
      <trkpt lat="44.72746" lon="3.81422">
        <ele>949.6</ele>
      </trkpt>
      <trkpt lat="44.72746" lon="3.81424">
        <ele>949.6</ele>
      </trkpt>
      <trkpt lat="44.72748" lon="3.81429">
        <ele>949.5</ele>
      </trkpt>
      <trkpt lat="44.72752" lon="3.81444">
        <ele>949.5</ele>
      </trkpt>
      <trkpt lat="44.72754" lon="3.81457">
        <ele>949.6</ele>
      </trkpt>
      <trkpt lat="44.72755" lon="3.8147">
        <ele>949.9</ele>
      </trkpt>
      <trkpt lat="44.72755" lon="3.81487">
        <ele>950.3</ele>
      </trkpt>
      <trkpt lat="44.72756" lon="3.81498">
        <ele>950.4</ele>
      </trkpt>
      <trkpt lat="44.72759" lon="3.81507">
        <ele>950.2</ele>
      </trkpt>
      <trkpt lat="44.72762" lon="3.81512">
        <ele>950</ele>
      </trkpt>
      <trkpt lat="44.72768" lon="3.8152">
        <ele>949.5</ele>
      </trkpt>
      <trkpt lat="44.72776" lon="3.8153">
        <ele>948.8</ele>
      </trkpt>
      <trkpt lat="44.72784" lon="3.81538">
        <ele>948.1</ele>
      </trkpt>
      <trkpt lat="44.72785" lon="3.81544">
        <ele>948</ele>
      </trkpt>
      <trkpt lat="44.72786" lon="3.81551">
        <ele>947.9</ele>
      </trkpt>
      <trkpt lat="44.72787" lon="3.81563">
        <ele>947.9</ele>
      </trkpt>
      <trkpt lat="44.72786" lon="3.81577">
        <ele>948</ele>
      </trkpt>
      <trkpt lat="44.72784" lon="3.81593">
        <ele>948.2</ele>
      </trkpt>
      <trkpt lat="44.72783" lon="3.81607">
        <ele>948.3</ele>
      </trkpt>
      <trkpt lat="44.72779" lon="3.81626">
        <ele>948.5</ele>
      </trkpt>
      <trkpt lat="44.72775" lon="3.81643">
        <ele>948.9</ele>
      </trkpt>
      <trkpt lat="44.72771" lon="3.81649">
        <ele>949.2</ele>
      </trkpt>
      <trkpt lat="44.72766" lon="3.81656">
        <ele>949.7</ele>
      </trkpt>
      <trkpt lat="44.7276" lon="3.8166">
        <ele>950.2</ele>
      </trkpt>
      <trkpt lat="44.72756" lon="3.81666">
        <ele>950.5</ele>
      </trkpt>
      <trkpt lat="44.72753" lon="3.81674">
        <ele>950.4</ele>
      </trkpt>
      <trkpt lat="44.72747" lon="3.81685">
        <ele>950.2</ele>
      </trkpt>
      <trkpt lat="44.72742" lon="3.81691">
        <ele>950.1</ele>
      </trkpt>
      <trkpt lat="44.72736" lon="3.817">
        <ele>949.8</ele>
      </trkpt>
      <trkpt lat="44.72731" lon="3.81708">
        <ele>949.6</ele>
      </trkpt>
      <trkpt lat="44.72725" lon="3.81713">
        <ele>949.5</ele>
      </trkpt>
      <trkpt lat="44.72719" lon="3.81716">
        <ele>949.5</ele>
      </trkpt>
      <trkpt lat="44.72712" lon="3.81717">
        <ele>949.7</ele>
      </trkpt>
      <trkpt lat="44.72708" lon="3.81719">
        <ele>949.7</ele>
      </trkpt>
      <trkpt lat="44.72704" lon="3.81722">
        <ele>949.6</ele>
      </trkpt>
      <trkpt lat="44.72699" lon="3.81729">
        <ele>949.4</ele>
      </trkpt>
      <trkpt lat="44.72692" lon="3.81732">
        <ele>949.4</ele>
      </trkpt>
      <trkpt lat="44.72683" lon="3.81732">
        <ele>949.7</ele>
      </trkpt>
      <trkpt lat="44.72674" lon="3.8173">
        <ele>950</ele>
      </trkpt>
      <trkpt lat="44.72656" lon="3.81722">
        <ele>951.2</ele>
      </trkpt>
      <trkpt lat="44.72642" lon="3.81713">
        <ele>952.3</ele>
      </trkpt>
      <trkpt lat="44.72631" lon="3.817">
        <ele>953.4</ele>
      </trkpt>
      <trkpt lat="44.72625" lon="3.81693">
        <ele>953.9</ele>
      </trkpt>
      <trkpt lat="44.72621" lon="3.81691">
        <ele>954.1</ele>
      </trkpt>
      <trkpt lat="44.72617" lon="3.81689">
        <ele>954.3</ele>
      </trkpt>
      <trkpt lat="44.72612" lon="3.81686">
        <ele>954.6</ele>
      </trkpt>
      <trkpt lat="44.7261" lon="3.81684">
        <ele>954.7</ele>
      </trkpt>
      <trkpt lat="44.72602" lon="3.8168">
        <ele>955.1</ele>
      </trkpt>
      <trkpt lat="44.72597" lon="3.81679">
        <ele>955.3</ele>
      </trkpt>
      <trkpt lat="44.72593" lon="3.8168">
        <ele>955.4</ele>
      </trkpt>
      <trkpt lat="44.72588" lon="3.81685">
        <ele>955.4</ele>
      </trkpt>
      <trkpt lat="44.72586" lon="3.81691">
        <ele>955.3</ele>
      </trkpt>
      <trkpt lat="44.72585" lon="3.81707">
        <ele>955</ele>
      </trkpt>
      <trkpt lat="44.72585" lon="3.81723">
        <ele>954.6</ele>
      </trkpt>
      <trkpt lat="44.72586" lon="3.81738">
        <ele>954.1</ele>
      </trkpt>
      <trkpt lat="44.7259" lon="3.81757">
        <ele>953.4</ele>
      </trkpt>
      <trkpt lat="44.72595" lon="3.81778">
        <ele>952.4</ele>
      </trkpt>
      <trkpt lat="44.72599" lon="3.81791">
        <ele>951.6</ele>
      </trkpt>
      <trkpt lat="44.72603" lon="3.81801">
        <ele>950.8</ele>
      </trkpt>
      <trkpt lat="44.7261" lon="3.81813">
        <ele>949.7</ele>
      </trkpt>
      <trkpt lat="44.72614" lon="3.81823">
        <ele>948.8</ele>
      </trkpt>
      <trkpt lat="44.72616" lon="3.8183">
        <ele>948.3</ele>
      </trkpt>
      <trkpt lat="44.72616" lon="3.81835">
        <ele>948.1</ele>
      </trkpt>
      <trkpt lat="44.72615" lon="3.81843">
        <ele>947.9</ele>
      </trkpt>
      <trkpt lat="44.72615" lon="3.81845">
        <ele>947.9</ele>
      </trkpt>
      <trkpt lat="44.72612" lon="3.81857">
        <ele>947.8</ele>
      </trkpt>
      <trkpt lat="44.72608" lon="3.81866">
        <ele>947.9</ele>
      </trkpt>
      <trkpt lat="44.72604" lon="3.81873">
        <ele>948.1</ele>
      </trkpt>
      <trkpt lat="44.7259" lon="3.81885">
        <ele>948.9</ele>
      </trkpt>
      <trkpt lat="44.72561" lon="3.81904">
        <ele>950.7</ele>
      </trkpt>
      <trkpt lat="44.72537" lon="3.81919">
        <ele>951.9</ele>
      </trkpt>
      <trkpt lat="44.72535" lon="3.81923">
        <ele>952.3</ele>
      </trkpt>
      <trkpt lat="44.72534" lon="3.81928">
        <ele>952.5</ele>
      </trkpt>
      <trkpt lat="44.72534" lon="3.8193">
        <ele>952.6</ele>
      </trkpt>
      <trkpt lat="44.72534" lon="3.81936">
        <ele>952.8</ele>
      </trkpt>
      <trkpt lat="44.72538" lon="3.81949">
        <ele>952.9</ele>
      </trkpt>
      <trkpt lat="44.72543" lon="3.8197">
        <ele>953.3</ele>
      </trkpt>
      <trkpt lat="44.72544" lon="3.81975">
        <ele>953.4</ele>
      </trkpt>
      <trkpt lat="44.72548" lon="3.82002">
        <ele>954.2</ele>
      </trkpt>
      <trkpt lat="44.72549" lon="3.82022">
        <ele>954.8</ele>
      </trkpt>
      <trkpt lat="44.72549" lon="3.82044">
        <ele>955.6</ele>
      </trkpt>
      <trkpt lat="44.72546" lon="3.82085">
        <ele>957.2</ele>
      </trkpt>
      <trkpt lat="44.72542" lon="3.82148">
        <ele>957.1</ele>
      </trkpt>
      <trkpt lat="44.72538" lon="3.82191">
        <ele>956.8</ele>
      </trkpt>
      <trkpt lat="44.72536" lon="3.82223">
        <ele>956.3</ele>
      </trkpt>
      <trkpt lat="44.72532" lon="3.82266">
        <ele>956.2</ele>
      </trkpt>
      <trkpt lat="44.72528" lon="3.82311">
        <ele>956.6</ele>
      </trkpt>
      <trkpt lat="44.72525" lon="3.82348">
        <ele>957</ele>
      </trkpt>
      <trkpt lat="44.72524" lon="3.82365">
        <ele>957.5</ele>
      </trkpt>
      <trkpt lat="44.72521" lon="3.82375">
        <ele>957.8</ele>
      </trkpt>
      <trkpt lat="44.72515" lon="3.82371">
        <ele>957.7</ele>
      </trkpt>
      <trkpt lat="44.725" lon="3.82365">
        <ele>957.8</ele>
      </trkpt>
      <trkpt lat="44.72485" lon="3.82364">
        <ele>958.6</ele>
      </trkpt>
      <trkpt lat="44.72475" lon="3.82366">
        <ele>959.4</ele>
      </trkpt>
      <trkpt lat="44.72461" lon="3.82376">
        <ele>960.3</ele>
      </trkpt>
      <trkpt lat="44.72448" lon="3.82387">
        <ele>961.2</ele>
      </trkpt>
      <trkpt lat="44.72438" lon="3.82392">
        <ele>961.8</ele>
      </trkpt>
      <trkpt lat="44.72425" lon="3.82398">
        <ele>962.5</ele>
      </trkpt>
      <trkpt lat="44.7242" lon="3.82407">
        <ele>962.9</ele>
      </trkpt>
      <trkpt lat="44.72414" lon="3.8242">
        <ele>963.1</ele>
      </trkpt>
      <trkpt lat="44.7241" lon="3.82431">
        <ele>962.9</ele>
      </trkpt>
      <trkpt lat="44.72407" lon="3.82435">
        <ele>963.1</ele>
      </trkpt>
      <trkpt lat="44.72402" lon="3.82437">
        <ele>963.5</ele>
      </trkpt>
      <trkpt lat="44.72394" lon="3.82435">
        <ele>964.5</ele>
      </trkpt>
      <trkpt lat="44.72375" lon="3.82427">
        <ele>967.3</ele>
      </trkpt>
      <trkpt lat="44.72362" lon="3.82422">
        <ele>969.1</ele>
      </trkpt>
      <trkpt lat="44.72352" lon="3.82423">
        <ele>970.2</ele>
      </trkpt>
      <trkpt lat="44.72302" lon="3.82435">
        <ele>971.5</ele>
      </trkpt>
      <trkpt lat="44.72295" lon="3.82436">
        <ele>971.5</ele>
      </trkpt>
      <trkpt lat="44.72254" lon="3.82441">
        <ele>971.2</ele>
      </trkpt>
      <trkpt lat="44.7223" lon="3.82445">
        <ele>972</ele>
      </trkpt>
      <trkpt lat="44.722" lon="3.82449">
        <ele>973</ele>
      </trkpt>
      <trkpt lat="44.7218" lon="3.82448">
        <ele>974</ele>
      </trkpt>
      <trkpt lat="44.7216" lon="3.82445">
        <ele>975.2</ele>
      </trkpt>
      <trkpt lat="44.72144" lon="3.82443">
        <ele>976.2</ele>
      </trkpt>
      <trkpt lat="44.72121" lon="3.82441">
        <ele>977.3</ele>
      </trkpt>
      <trkpt lat="44.72109" lon="3.82439">
        <ele>977.9</ele>
      </trkpt>
      <trkpt lat="44.72101" lon="3.82436">
        <ele>978.4</ele>
      </trkpt>
      <trkpt lat="44.72095" lon="3.82429">
        <ele>979</ele>
      </trkpt>
      <trkpt lat="44.72086" lon="3.82407">
        <ele>980.6</ele>
      </trkpt>
      <trkpt lat="44.72079" lon="3.82394">
        <ele>981.6</ele>
      </trkpt>
      <trkpt lat="44.7207" lon="3.82382">
        <ele>982.8</ele>
      </trkpt>
      <trkpt lat="44.72062" lon="3.82373">
        <ele>983.8</ele>
      </trkpt>
      <trkpt lat="44.72053" lon="3.82364">
        <ele>984.7</ele>
      </trkpt>
      <trkpt lat="44.72047" lon="3.82358">
        <ele>985.4</ele>
      </trkpt>
      <trkpt lat="44.72043" lon="3.82348">
        <ele>986.2</ele>
      </trkpt>
      <trkpt lat="44.7204" lon="3.82332">
        <ele>987.2</ele>
      </trkpt>
      <trkpt lat="44.72036" lon="3.82313">
        <ele>988.2</ele>
      </trkpt>
      <trkpt lat="44.72034" lon="3.82309">
        <ele>988.5</ele>
      </trkpt>
      <trkpt lat="44.72033" lon="3.82306">
        <ele>988.7</ele>
      </trkpt>
      <trkpt lat="44.72027" lon="3.82301">
        <ele>989.3</ele>
      </trkpt>
      <trkpt lat="44.72018" lon="3.823">
        <ele>989.9</ele>
      </trkpt>
      <trkpt lat="44.72013" lon="3.82301">
        <ele>990.1</ele>
      </trkpt>
      <trkpt lat="44.72005" lon="3.82306">
        <ele>990.3</ele>
      </trkpt>
      <trkpt lat="44.71994" lon="3.82318">
        <ele>990.5</ele>
      </trkpt>
      <trkpt lat="44.71979" lon="3.82342">
        <ele>990.6</ele>
      </trkpt>
      <trkpt lat="44.71972" lon="3.82355">
        <ele>990.8</ele>
      </trkpt>
      <trkpt lat="44.71962" lon="3.82363">
        <ele>991.4</ele>
      </trkpt>
      <trkpt lat="44.71945" lon="3.82374">
        <ele>992.7</ele>
      </trkpt>
      <trkpt lat="44.71924" lon="3.82387">
        <ele>994.3</ele>
      </trkpt>
      <trkpt lat="44.71914" lon="3.82389">
        <ele>995.3</ele>
      </trkpt>
      <trkpt lat="44.71888" lon="3.82398">
        <ele>997.8</ele>
      </trkpt>
      <trkpt lat="44.71868" lon="3.82406">
        <ele>999.8</ele>
      </trkpt>
      <trkpt lat="44.71851" lon="3.82414">
        <ele>1001.2</ele>
      </trkpt>
      <trkpt lat="44.71834" lon="3.82425">
        <ele>1002.3</ele>
      </trkpt>
      <trkpt lat="44.71813" lon="3.8244">
        <ele>1002.3</ele>
      </trkpt>
      <trkpt lat="44.71798" lon="3.8245">
        <ele>1002.4</ele>
      </trkpt>
      <trkpt lat="44.71775" lon="3.82471">
        <ele>1002.6</ele>
      </trkpt>
      <trkpt lat="44.71755" lon="3.82488">
        <ele>1003.1</ele>
      </trkpt>
      <trkpt lat="44.71727" lon="3.82505">
        <ele>1002.7</ele>
      </trkpt>
      <trkpt lat="44.71718" lon="3.82508">
        <ele>1002.5</ele>
      </trkpt>
      <trkpt lat="44.71709" lon="3.82509">
        <ele>1002.5</ele>
      </trkpt>
      <trkpt lat="44.71703" lon="3.82509">
        <ele>1002.6</ele>
      </trkpt>
      <trkpt lat="44.71698" lon="3.82507">
        <ele>1002.9</ele>
      </trkpt>
      <trkpt lat="44.71692" lon="3.82503">
        <ele>1003.4</ele>
      </trkpt>
      <trkpt lat="44.7168" lon="3.82492">
        <ele>1004.3</ele>
      </trkpt>
      <trkpt lat="44.71667" lon="3.82482">
        <ele>1005.1</ele>
      </trkpt>
      <trkpt lat="44.71658" lon="3.82481">
        <ele>1005.3</ele>
      </trkpt>
      <trkpt lat="44.71652" lon="3.8248">
        <ele>1005.5</ele>
      </trkpt>
      <trkpt lat="44.71642" lon="3.82481">
        <ele>1005.8</ele>
      </trkpt>
      <trkpt lat="44.71626" lon="3.82484">
        <ele>1005.9</ele>
      </trkpt>
      <trkpt lat="44.7161" lon="3.82491">
        <ele>1005.9</ele>
      </trkpt>
      <trkpt lat="44.71593" lon="3.82497">
        <ele>1006</ele>
      </trkpt>
      <trkpt lat="44.71567" lon="3.82501">
        <ele>1005.7</ele>
      </trkpt>
      <trkpt lat="44.71522" lon="3.82508">
        <ele>1004.6</ele>
      </trkpt>
      <trkpt lat="44.71495" lon="3.82509">
        <ele>1004.5</ele>
      </trkpt>
      <trkpt lat="44.71489" lon="3.82508">
        <ele>1004.5</ele>
      </trkpt>
      <trkpt lat="44.71484" lon="3.82507">
        <ele>1004.6</ele>
      </trkpt>
      <trkpt lat="44.71475" lon="3.82504">
        <ele>1004.8</ele>
      </trkpt>
      <trkpt lat="44.7146" lon="3.82488">
        <ele>1005.4</ele>
      </trkpt>
      <trkpt lat="44.71455" lon="3.82483">
        <ele>1005.6</ele>
      </trkpt>
      <trkpt lat="44.7145" lon="3.82481">
        <ele>1005.7</ele>
      </trkpt>
      <trkpt lat="44.71438" lon="3.82487">
        <ele>1005.5</ele>
      </trkpt>
      <trkpt lat="44.71415" lon="3.82507">
        <ele>1004.6</ele>
      </trkpt>
      <trkpt lat="44.71407" lon="3.82518">
        <ele>1004.1</ele>
      </trkpt>
      <trkpt lat="44.71402" lon="3.8253">
        <ele>1003.5</ele>
      </trkpt>
      <trkpt lat="44.714" lon="3.82546">
        <ele>1002.7</ele>
      </trkpt>
      <trkpt lat="44.71395" lon="3.82553">
        <ele>1002.5</ele>
      </trkpt>
      <trkpt lat="44.71389" lon="3.82558">
        <ele>1002.5</ele>
      </trkpt>
      <trkpt lat="44.71379" lon="3.8256">
        <ele>1002.7</ele>
      </trkpt>
      <trkpt lat="44.71368" lon="3.82564">
        <ele>1003</ele>
      </trkpt>
      <trkpt lat="44.7137" lon="3.82569">
        <ele>1002.7</ele>
      </trkpt>
      <trkpt lat="44.71375" lon="3.82631">
        <ele>1001.2</ele>
      </trkpt>
      <trkpt lat="44.71374" lon="3.8268">
        <ele>1000.5</ele>
      </trkpt>
      <trkpt lat="44.71373" lon="3.82728">
        <ele>1000.3</ele>
      </trkpt>
      <trkpt lat="44.71376" lon="3.82749">
        <ele>999.9</ele>
      </trkpt>
      <trkpt lat="44.71368" lon="3.82779">
        <ele>1000.4</ele>
      </trkpt>
      <trkpt lat="44.7136" lon="3.82809">
        <ele>1000.7</ele>
      </trkpt>
      <trkpt lat="44.71349" lon="3.82858">
        <ele>1000.3</ele>
      </trkpt>
      <trkpt lat="44.71336" lon="3.82901">
        <ele>999.4</ele>
      </trkpt>
      <trkpt lat="44.71327" lon="3.82936">
        <ele>998.8</ele>
      </trkpt>
      <trkpt lat="44.71434" lon="3.8304">
        <ele>994.7</ele>
      </trkpt>
      <trkpt lat="44.71457" lon="3.83081">
        <ele>994.5</ele>
      </trkpt>
      <trkpt lat="44.71474" lon="3.83121">
        <ele>993.6</ele>
      </trkpt>
      <trkpt lat="44.71488" lon="3.83158">
        <ele>993</ele>
      </trkpt>
      <trkpt lat="44.71504" lon="3.83193">
        <ele>992.5</ele>
      </trkpt>
      <trkpt lat="44.71517" lon="3.8322">
        <ele>991.7</ele>
      </trkpt>
      <trkpt lat="44.71528" lon="3.83249">
        <ele>991</ele>
      </trkpt>
      <trkpt lat="44.7153" lon="3.83254">
        <ele>990.7</ele>
      </trkpt>
      <trkpt lat="44.71543" lon="3.83285">
        <ele>989.2</ele>
      </trkpt>
      <trkpt lat="44.71563" lon="3.83323">
        <ele>987.5</ele>
      </trkpt>
      <trkpt lat="44.71584" lon="3.83357">
        <ele>986.4</ele>
      </trkpt>
      <trkpt lat="44.71605" lon="3.83391">
        <ele>984.7</ele>
      </trkpt>
      <trkpt lat="44.71621" lon="3.83422">
        <ele>983</ele>
      </trkpt>
      <trkpt lat="44.71629" lon="3.8344">
        <ele>982</ele>
      </trkpt>
      <trkpt lat="44.71634" lon="3.83448">
        <ele>981.5</ele>
      </trkpt>
      <trkpt lat="44.71643" lon="3.83458">
        <ele>980.9</ele>
      </trkpt>
      <trkpt lat="44.71661" lon="3.83474">
        <ele>979.8</ele>
      </trkpt>
      <trkpt lat="44.7167" lon="3.8348">
        <ele>979.3</ele>
      </trkpt>
      <trkpt lat="44.71677" lon="3.83482">
        <ele>979</ele>
      </trkpt>
      <trkpt lat="44.7168" lon="3.83483">
        <ele>978.8</ele>
      </trkpt>
      <trkpt lat="44.71694" lon="3.83487">
        <ele>978.1</ele>
      </trkpt>
      <trkpt lat="44.71706" lon="3.83494">
        <ele>977.6</ele>
      </trkpt>
      <trkpt lat="44.71715" lon="3.835">
        <ele>977.3</ele>
      </trkpt>
      <trkpt lat="44.71727" lon="3.83511">
        <ele>977.1</ele>
      </trkpt>
      <trkpt lat="44.71746" lon="3.83535">
        <ele>977</ele>
      </trkpt>
      <trkpt lat="44.71772" lon="3.83565">
        <ele>977.2</ele>
      </trkpt>
      <trkpt lat="44.71808" lon="3.83611">
        <ele>977.2</ele>
      </trkpt>
      <trkpt lat="44.71836" lon="3.83645">
        <ele>976.2</ele>
      </trkpt>
      <trkpt lat="44.71873" lon="3.83687">
        <ele>976.7</ele>
      </trkpt>
      <trkpt lat="44.71914" lon="3.83729">
        <ele>978.2</ele>
      </trkpt>
      <trkpt lat="44.71935" lon="3.83751">
        <ele>978.1</ele>
      </trkpt>
      <trkpt lat="44.71957" lon="3.83774">
        <ele>977.3</ele>
      </trkpt>
      <trkpt lat="44.71972" lon="3.83793">
        <ele>977</ele>
      </trkpt>
      <trkpt lat="44.71989" lon="3.83817">
        <ele>976.9</ele>
      </trkpt>
      <trkpt lat="44.72001" lon="3.83838">
        <ele>976.8</ele>
      </trkpt>
      <trkpt lat="44.7201" lon="3.83848">
        <ele>976</ele>
      </trkpt>
      <trkpt lat="44.72025" lon="3.83862">
        <ele>974.9</ele>
      </trkpt>
      <trkpt lat="44.72059" lon="3.83889">
        <ele>973.4</ele>
      </trkpt>
      <trkpt lat="44.72081" lon="3.8391">
        <ele>973</ele>
      </trkpt>
      <trkpt lat="44.72107" lon="3.83933">
        <ele>971.7</ele>
      </trkpt>
      <trkpt lat="44.72141" lon="3.83963">
        <ele>970.3</ele>
      </trkpt>
      <trkpt lat="44.72173" lon="3.83992">
        <ele>969.5</ele>
      </trkpt>
      <trkpt lat="44.72215" lon="3.84029">
        <ele>967.4</ele>
      </trkpt>
      <trkpt lat="44.72243" lon="3.84053">
        <ele>967.1</ele>
      </trkpt>
      <trkpt lat="44.72264" lon="3.84069">
        <ele>966.9</ele>
      </trkpt>
      <trkpt lat="44.72271" lon="3.84073">
        <ele>966.7</ele>
      </trkpt>
      <trkpt lat="44.72278" lon="3.84076">
        <ele>966.5</ele>
      </trkpt>
      <trkpt lat="44.72291" lon="3.84082">
        <ele>966</ele>
      </trkpt>
      <trkpt lat="44.72296" lon="3.84085">
        <ele>965.8</ele>
      </trkpt>
      <trkpt lat="44.72301" lon="3.84092">
        <ele>965.6</ele>
      </trkpt>
      <trkpt lat="44.72312" lon="3.84114">
        <ele>965.1</ele>
      </trkpt>
      <trkpt lat="44.72321" lon="3.84132">
        <ele>964.7</ele>
      </trkpt>
      <trkpt lat="44.72329" lon="3.84144">
        <ele>964.2</ele>
      </trkpt>
      <trkpt lat="44.72335" lon="3.84158">
        <ele>963.9</ele>
      </trkpt>
      <trkpt lat="44.72342" lon="3.84171">
        <ele>963.6</ele>
      </trkpt>
      <trkpt lat="44.72338" lon="3.84175">
        <ele>963.5</ele>
      </trkpt>
      <trkpt lat="44.72347" lon="3.84191">
        <ele>962.6</ele>
      </trkpt>
      <trkpt lat="44.72351" lon="3.84208">
        <ele>961.8</ele>
      </trkpt>
      <trkpt lat="44.72356" lon="3.84234">
        <ele>960.8</ele>
      </trkpt>
      <trkpt lat="44.72359" lon="3.84271">
        <ele>959.5</ele>
      </trkpt>
      <trkpt lat="44.72359" lon="3.84295">
        <ele>958.8</ele>
      </trkpt>
      <trkpt lat="44.72359" lon="3.84308">
        <ele>958.4</ele>
      </trkpt>
      <trkpt lat="44.7236" lon="3.84305">
        <ele>958.5</ele>
      </trkpt>
      <trkpt lat="44.72372" lon="3.84293">
        <ele>958.5</ele>
      </trkpt>
      <trkpt lat="44.72395" lon="3.84273">
        <ele>958.3</ele>
      </trkpt>
      <trkpt lat="44.72421" lon="3.84253">
        <ele>958.1</ele>
      </trkpt>
      <trkpt lat="44.72439" lon="3.84237">
        <ele>959.1</ele>
      </trkpt>
      <trkpt lat="44.72452" lon="3.84226">
        <ele>960</ele>
      </trkpt>
      <trkpt lat="44.72459" lon="3.8422">
        <ele>960.4</ele>
      </trkpt>
      <trkpt lat="44.7246" lon="3.84229">
        <ele>960.1</ele>
      </trkpt>
      <trkpt lat="44.72467" lon="3.84265">
        <ele>958.9</ele>
      </trkpt>
      <trkpt lat="44.72477" lon="3.84317">
        <ele>958.1</ele>
      </trkpt>
      <trkpt lat="44.72485" lon="3.84356">
        <ele>958</ele>
      </trkpt>
      <trkpt lat="44.72485" lon="3.84357">
        <ele>958</ele>
      </trkpt>
      <trkpt lat="44.72488" lon="3.84374">
        <ele>958.2</ele>
      </trkpt>
      <trkpt lat="44.72489" lon="3.84382">
        <ele>958.3</ele>
      </trkpt>
      <trkpt lat="44.7249" lon="3.84401">
        <ele>958.5</ele>
      </trkpt>
      <trkpt lat="44.7249" lon="3.8441">
        <ele>958.6</ele>
      </trkpt>
      <trkpt lat="44.7249" lon="3.84426">
        <ele>959</ele>
      </trkpt>
      <trkpt lat="44.72489" lon="3.84459">
        <ele>960.4</ele>
      </trkpt>
      <trkpt lat="44.72487" lon="3.84496">
        <ele>961.9</ele>
      </trkpt>
      <trkpt lat="44.72484" lon="3.84524">
        <ele>962.8</ele>
      </trkpt>
      <trkpt lat="44.7248" lon="3.84548">
        <ele>963.6</ele>
      </trkpt>
      <trkpt lat="44.72471" lon="3.84598">
        <ele>963.9</ele>
      </trkpt>
      <trkpt lat="44.72468" lon="3.84624">
        <ele>962.9</ele>
      </trkpt>
      <trkpt lat="44.72468" lon="3.84642">
        <ele>962.4</ele>
      </trkpt>
      <trkpt lat="44.72469" lon="3.84651">
        <ele>962.2</ele>
      </trkpt>
      <trkpt lat="44.7247" lon="3.84657">
        <ele>962.2</ele>
      </trkpt>
      <trkpt lat="44.72473" lon="3.84674">
        <ele>961.8</ele>
      </trkpt>
      <trkpt lat="44.7248" lon="3.847">
        <ele>960.2</ele>
      </trkpt>
      <trkpt lat="44.72484" lon="3.8472">
        <ele>958.7</ele>
      </trkpt>
      <trkpt lat="44.72485" lon="3.84736">
        <ele>957.4</ele>
      </trkpt>
      <trkpt lat="44.72485" lon="3.84758">
        <ele>955.1</ele>
      </trkpt>
      <trkpt lat="44.72485" lon="3.84782">
        <ele>952.1</ele>
      </trkpt>
      <trkpt lat="44.72487" lon="3.84792">
        <ele>951</ele>
      </trkpt>
      <trkpt lat="44.72491" lon="3.84801">
        <ele>950.2</ele>
      </trkpt>
      <trkpt lat="44.72499" lon="3.8481">
        <ele>950</ele>
      </trkpt>
      <trkpt lat="44.72511" lon="3.84819">
        <ele>949.8</ele>
      </trkpt>
      <trkpt lat="44.72532" lon="3.84832">
        <ele>949.8</ele>
      </trkpt>
      <trkpt lat="44.72547" lon="3.84843">
        <ele>949.8</ele>
      </trkpt>
      <trkpt lat="44.72559" lon="3.84854">
        <ele>949.4</ele>
      </trkpt>
      <trkpt lat="44.72565" lon="3.84862">
        <ele>948.9</ele>
      </trkpt>
      <trkpt lat="44.72573" lon="3.84878">
        <ele>947.5</ele>
      </trkpt>
      <trkpt lat="44.72579" lon="3.84894">
        <ele>945.8</ele>
      </trkpt>
      <trkpt lat="44.72586" lon="3.84911">
        <ele>943.9</ele>
      </trkpt>
      <trkpt lat="44.72591" lon="3.8492">
        <ele>943.2</ele>
      </trkpt>
      <trkpt lat="44.72597" lon="3.84931">
        <ele>943</ele>
      </trkpt>
      <trkpt lat="44.72608" lon="3.8495">
        <ele>942.7</ele>
      </trkpt>
      <trkpt lat="44.72616" lon="3.84962">
        <ele>942.6</ele>
      </trkpt>
      <trkpt lat="44.72621" lon="3.84971">
        <ele>942.5</ele>
      </trkpt>
      <trkpt lat="44.72623" lon="3.84974">
        <ele>942.5</ele>
      </trkpt>
      <trkpt lat="44.7263" lon="3.84985">
        <ele>942.4</ele>
      </trkpt>
      <trkpt lat="44.72635" lon="3.84998">
        <ele>942.2</ele>
      </trkpt>
      <trkpt lat="44.72636" lon="3.85001">
        <ele>942.2</ele>
      </trkpt>
      <trkpt lat="44.72642" lon="3.8502">
        <ele>942.6</ele>
      </trkpt>
      <trkpt lat="44.72648" lon="3.8503">
        <ele>943.2</ele>
      </trkpt>
      <trkpt lat="44.72646" lon="3.85033">
        <ele>943</ele>
      </trkpt>
      <trkpt lat="44.7264" lon="3.85041">
        <ele>942.6</ele>
      </trkpt>
      <trkpt lat="44.72637" lon="3.85044">
        <ele>942.4</ele>
      </trkpt>
      <trkpt lat="44.72633" lon="3.85065">
        <ele>942</ele>
      </trkpt>
      <trkpt lat="44.72629" lon="3.85088">
        <ele>941.4</ele>
      </trkpt>
      <trkpt lat="44.72625" lon="3.85113">
        <ele>940.5</ele>
      </trkpt>
      <trkpt lat="44.72622" lon="3.85144">
        <ele>939.6</ele>
      </trkpt>
      <trkpt lat="44.72621" lon="3.85172">
        <ele>938.7</ele>
      </trkpt>
      <trkpt lat="44.72621" lon="3.85192">
        <ele>937.7</ele>
      </trkpt>
      <trkpt lat="44.72623" lon="3.8521">
        <ele>937</ele>
      </trkpt>
      <trkpt lat="44.72626" lon="3.85224">
        <ele>936.5</ele>
      </trkpt>
      <trkpt lat="44.72626" lon="3.85232">
        <ele>936</ele>
      </trkpt>
      <trkpt lat="44.72626" lon="3.85241">
        <ele>935.5</ele>
      </trkpt>
      <trkpt lat="44.72626" lon="3.85247">
        <ele>935.2</ele>
      </trkpt>
      <trkpt lat="44.72626" lon="3.85265">
        <ele>934</ele>
      </trkpt>
      <trkpt lat="44.72628" lon="3.8528">
        <ele>933.1</ele>
      </trkpt>
      <trkpt lat="44.72632" lon="3.85296">
        <ele>932.2</ele>
      </trkpt>
      <trkpt lat="44.72634" lon="3.85304">
        <ele>931.8</ele>
      </trkpt>
      <trkpt lat="44.72637" lon="3.85314">
        <ele>931.2</ele>
      </trkpt>
      <trkpt lat="44.72641" lon="3.85331">
        <ele>930.2</ele>
      </trkpt>
      <trkpt lat="44.72642" lon="3.85334">
        <ele>930</ele>
      </trkpt>
      <trkpt lat="44.72648" lon="3.85342">
        <ele>929.7</ele>
      </trkpt>
      <trkpt lat="44.72654" lon="3.8535">
        <ele>929.3</ele>
      </trkpt>
      <trkpt lat="44.72668" lon="3.85371">
        <ele>928.4</ele>
      </trkpt>
      <trkpt lat="44.72678" lon="3.85383">
        <ele>927.9</ele>
      </trkpt>
      <trkpt lat="44.7268" lon="3.85389">
        <ele>927.6</ele>
      </trkpt>
      <trkpt lat="44.7268" lon="3.8539">
        <ele>927.5</ele>
      </trkpt>
      <trkpt lat="44.7268" lon="3.85389">
        <ele>927.6</ele>
      </trkpt>
      <trkpt lat="44.72681" lon="3.8539">
        <ele>927.6</ele>
      </trkpt>
      <trkpt lat="44.72684" lon="3.85413">
        <ele>926.1</ele>
      </trkpt>
      <trkpt lat="44.72688" lon="3.85432">
        <ele>924.5</ele>
      </trkpt>
      <trkpt lat="44.72689" lon="3.85445">
        <ele>923.4</ele>
      </trkpt>
      <trkpt lat="44.72689" lon="3.85451">
        <ele>922.9</ele>
      </trkpt>
      <trkpt lat="44.72677" lon="3.85453">
        <ele>922.3</ele>
      </trkpt>
      <trkpt lat="44.72656" lon="3.85461">
        <ele>920.8</ele>
      </trkpt>
      <trkpt lat="44.72645" lon="3.85467">
        <ele>919.9</ele>
      </trkpt>
      <trkpt lat="44.72641" lon="3.85469">
        <ele>919.5</ele>
      </trkpt>
    </trkseg>
  </trk>
</gpx>